﻿_id	Station Number:	Station Name:	Station Description:	LATITUDE_deg	LONGITUDE_deg	Rain Gauge:	Temperature / RH Probe:	Soil Moisture Content:	Date Time, GMT-06:00	Rain, mm	Temp, °C	RH, %	Water Content, m³/m³	DewPt, °C
1	AB07CD0350	WETLAND SAL01	SALINE (FEN)	56.573903999999998859493643976747989654541015625	-111.277773999999993748133420012891292572021484375	HOBO Rain Gauge Data Logger - RG3	HOBO Temperature/RH Smart Sensor (S-THB-M002)	Soil Moisture Smart Sensor - EC5 (S-SMC-M005)	2019-05-11T12:00:01	0	14.481	33.500	0.5850	-1.4
2	AB07CD0350	WETLAND SAL01	SALINE (FEN)	56.573903999999998859493643976747989654541015625	-111.277773999999993748133420012891292572021484375	HOBO Rain Gauge Data Logger - RG3	HOBO Temperature/RH Smart Sensor (S-THB-M002)	Soil Moisture Smart Sensor - EC5 (S-SMC-M005)	2019-05-11T13:00:01	0.00	16.010	32.100	0.5857	-0.6
3	AB07CD0350	WETLAND SAL01	SALINE (FEN)	56.573903999999998859493643976747989654541015625	-111.277773999999993748133420012891292572021484375	HOBO Rain Gauge Data Logger - RG3	HOBO Temperature/RH Smart Sensor (S-THB-M002)	Soil Moisture Smart Sensor - EC5 (S-SMC-M005)	2019-05-11T14:00:01	0.00	18.366	30.000	0.5864	0.5
4	AB07CD0350	WETLAND SAL01	SALINE (FEN)	56.573903999999998859493643976747989654541015625	-111.277773999999993748133420012891292572021484375	HOBO Rain Gauge Data Logger - RG3	HOBO Temperature/RH Smart Sensor (S-THB-M002)	Soil Moisture Smart Sensor - EC5 (S-SMC-M005)	2019-05-11T15:00:01	0.00	19.698	25.300	0.5864	-0.7
5	AB07CD0350	WETLAND SAL01	SALINE (FEN)	56.573903999999998859493643976747989654541015625	-111.277773999999993748133420012891292572021484375	HOBO Rain Gauge Data Logger - RG3	HOBO Temperature/RH Smart Sensor (S-THB-M002)	Soil Moisture Smart Sensor - EC5 (S-SMC-M005)	2019-05-11T16:00:01	0.00	20.269	24.000	0.5872	-0.9
6	AB07CD0350	WETLAND SAL01	SALINE (FEN)	56.573903999999998859493643976747989654541015625	-111.277773999999993748133420012891292572021484375	HOBO Rain Gauge Data Logger - RG3	HOBO Temperature/RH Smart Sensor (S-THB-M002)	Soil Moisture Smart Sensor - EC5 (S-SMC-M005)	2019-05-11T17:00:01	0.00	21.318	22.800	0.5872	-0.8
7	AB07CD0350	WETLAND SAL01	SALINE (FEN)	56.573903999999998859493643976747989654541015625	-111.277773999999993748133420012891292572021484375	HOBO Rain Gauge Data Logger - RG3	HOBO Temperature/RH Smart Sensor (S-THB-M002)	Soil Moisture Smart Sensor - EC5 (S-SMC-M005)	2019-05-11T18:00:01	0.00	21.366	21.900	0.5879	-1.3
8	AB07CD0350	WETLAND SAL01	SALINE (FEN)	56.573903999999998859493643976747989654541015625	-111.277773999999993748133420012891292572021484375	HOBO Rain Gauge Data Logger - RG3	HOBO Temperature/RH Smart Sensor (S-THB-M002)	Soil Moisture Smart Sensor - EC5 (S-SMC-M005)	2019-05-11T19:00:01	0.00	20.936	22.300	0.5879	-1.4
9	AB07CD0350	WETLAND SAL01	SALINE (FEN)	56.573903999999998859493643976747989654541015625	-111.277773999999993748133420012891292572021484375	HOBO Rain Gauge Data Logger - RG3	HOBO Temperature/RH Smart Sensor (S-THB-M002)	Soil Moisture Smart Sensor - EC5 (S-SMC-M005)	2019-05-11T20:00:01	0.00	18.033	24.800	0.5879	-2.4
10	AB07CD0350	WETLAND SAL01	SALINE (FEN)	56.573903999999998859493643976747989654541015625	-111.277773999999993748133420012891292572021484375	HOBO Rain Gauge Data Logger - RG3	HOBO Temperature/RH Smart Sensor (S-THB-M002)	Soil Moisture Smart Sensor - EC5 (S-SMC-M005)	2019-05-11T21:00:01	0.00	16.439	31.600	0.5886	-0.5
11	AB07CD0350	WETLAND SAL01	SALINE (FEN)	56.573903999999998859493643976747989654541015625	-111.277773999999993748133420012891292572021484375	HOBO Rain Gauge Data Logger - RG3	HOBO Temperature/RH Smart Sensor (S-THB-M002)	Soil Moisture Smart Sensor - EC5 (S-SMC-M005)	2019-05-11T22:00:01	0.00	15.199	34.500	0.5886	-0.3
12	AB07CD0350	WETLAND SAL01	SALINE (FEN)	56.573903999999998859493643976747989654541015625	-111.277773999999993748133420012891292572021484375	HOBO Rain Gauge Data Logger - RG3	HOBO Temperature/RH Smart Sensor (S-THB-M002)	Soil Moisture Smart Sensor - EC5 (S-SMC-M005)	2019-05-11T23:00:01	0.00	14.745	35.900	0.5893	-0.2
13	AB07CD0350	WETLAND SAL01	SALINE (FEN)	56.573903999999998859493643976747989654541015625	-111.277773999999993748133420012891292572021484375	HOBO Rain Gauge Data Logger - RG3	HOBO Temperature/RH Smart Sensor (S-THB-M002)	Soil Moisture Smart Sensor - EC5 (S-SMC-M005)	2019-05-12T00:00:01	0.00	14.002	38.400	0.5893	0.1
14	AB07CD0350	WETLAND SAL01	SALINE (FEN)	56.573903999999998859493643976747989654541015625	-111.277773999999993748133420012891292572021484375	HOBO Rain Gauge Data Logger - RG3	HOBO Temperature/RH Smart Sensor (S-THB-M002)	Soil Moisture Smart Sensor - EC5 (S-SMC-M005)	2019-05-12T01:00:01	0.00	13.570	40.100	0.5893	0.3
15	AB07CD0350	WETLAND SAL01	SALINE (FEN)	56.573903999999998859493643976747989654541015625	-111.277773999999993748133420012891292572021484375	HOBO Rain Gauge Data Logger - RG3	HOBO Temperature/RH Smart Sensor (S-THB-M002)	Soil Moisture Smart Sensor - EC5 (S-SMC-M005)	2019-05-12T02:00:01	0.00	13.137	39.800	0.5901	-0.2
16	AB07CD0350	WETLAND SAL01	SALINE (FEN)	56.573903999999998859493643976747989654541015625	-111.277773999999993748133420012891292572021484375	HOBO Rain Gauge Data Logger - RG3	HOBO Temperature/RH Smart Sensor (S-THB-M002)	Soil Moisture Smart Sensor - EC5 (S-SMC-M005)	2019-05-12T03:00:01	0.00	12.292	40.400	0.5901	-0.8
17	AB07CD0350	WETLAND SAL01	SALINE (FEN)	56.573903999999998859493643976747989654541015625	-111.277773999999993748133420012891292572021484375	HOBO Rain Gauge Data Logger - RG3	HOBO Temperature/RH Smart Sensor (S-THB-M002)	Soil Moisture Smart Sensor - EC5 (S-SMC-M005)	2019-05-12T04:00:01	0.00	10.467	43.100	0.5901	-1.5
18	AB07CD0350	WETLAND SAL01	SALINE (FEN)	56.573903999999998859493643976747989654541015625	-111.277773999999993748133420012891292572021484375	HOBO Rain Gauge Data Logger - RG3	HOBO Temperature/RH Smart Sensor (S-THB-M002)	Soil Moisture Smart Sensor - EC5 (S-SMC-M005)	2019-05-12T05:00:01	0.00	8.717	48.300	0.5908	-1.6
19	AB07CD0350	WETLAND SAL01	SALINE (FEN)	56.573903999999998859493643976747989654541015625	-111.277773999999993748133420012891292572021484375	HOBO Rain Gauge Data Logger - RG3	HOBO Temperature/RH Smart Sensor (S-THB-M002)	Soil Moisture Smart Sensor - EC5 (S-SMC-M005)	2019-05-12T06:00:01	0.00	8.220	53.400	0.5908	-0.7
20	AB07CD0350	WETLAND SAL01	SALINE (FEN)	56.573903999999998859493643976747989654541015625	-111.277773999999993748133420012891292572021484375	HOBO Rain Gauge Data Logger - RG3	HOBO Temperature/RH Smart Sensor (S-THB-M002)	Soil Moisture Smart Sensor - EC5 (S-SMC-M005)	2019-05-12T07:00:01	0.00	12.219	52.200	0.5908	2.7
21	AB07CD0350	WETLAND SAL01	SALINE (FEN)	56.573903999999998859493643976747989654541015625	-111.277773999999993748133420012891292572021484375	HOBO Rain Gauge Data Logger - RG3	HOBO Temperature/RH Smart Sensor (S-THB-M002)	Soil Moisture Smart Sensor - EC5 (S-SMC-M005)	2019-05-12T08:00:01	0.00	16.439	41.700	0.5908	3.4
22	AB07CD0350	WETLAND SAL01	SALINE (FEN)	56.573903999999998859493643976747989654541015625	-111.277773999999993748133420012891292572021484375	HOBO Rain Gauge Data Logger - RG3	HOBO Temperature/RH Smart Sensor (S-THB-M002)	Soil Moisture Smart Sensor - EC5 (S-SMC-M005)	2019-05-12T09:00:01	0.00	17.296	39.100	0.5915	3.3
23	AB07CD0350	WETLAND SAL01	SALINE (FEN)	56.573903999999998859493643976747989654541015625	-111.277773999999993748133420012891292572021484375	HOBO Rain Gauge Data Logger - RG3	HOBO Temperature/RH Smart Sensor (S-THB-M002)	Soil Moisture Smart Sensor - EC5 (S-SMC-M005)	2019-05-12T10:00:01	0.00	19.008	36.700	0.5915	3.9
24	AB07CD0350	WETLAND SAL01	SALINE (FEN)	56.573903999999998859493643976747989654541015625	-111.277773999999993748133420012891292572021484375	HOBO Rain Gauge Data Logger - RG3	HOBO Temperature/RH Smart Sensor (S-THB-M002)	Soil Moisture Smart Sensor - EC5 (S-SMC-M005)	2019-05-12T11:00:01	0.00	19.674	33.900	0.5915	3.4
25	AB07CD0350	WETLAND SAL01	SALINE (FEN)	56.573903999999998859493643976747989654541015625	-111.277773999999993748133420012891292572021484375	HOBO Rain Gauge Data Logger - RG3	HOBO Temperature/RH Smart Sensor (S-THB-M002)	Soil Moisture Smart Sensor - EC5 (S-SMC-M005)	2019-05-12T12:00:01	0.00	20.079	33.600	0.5915	3.6
26	AB07CD0350	WETLAND SAL01	SALINE (FEN)	56.573903999999998859493643976747989654541015625	-111.277773999999993748133420012891292572021484375	HOBO Rain Gauge Data Logger - RG3	HOBO Temperature/RH Smart Sensor (S-THB-M002)	Soil Moisture Smart Sensor - EC5 (S-SMC-M005)	2019-05-12T13:00:01	0.00	21.127	34.200	0.5915	4.8
27	AB07CD0350	WETLAND SAL01	SALINE (FEN)	56.573903999999998859493643976747989654541015625	-111.277773999999993748133420012891292572021484375	HOBO Rain Gauge Data Logger - RG3	HOBO Temperature/RH Smart Sensor (S-THB-M002)	Soil Moisture Smart Sensor - EC5 (S-SMC-M005)	2019-05-12T14:00:01	0.00	17.415	36.700	0.5915	2.5
28	AB07CD0350	WETLAND SAL01	SALINE (FEN)	56.573903999999998859493643976747989654541015625	-111.277773999999993748133420012891292572021484375	HOBO Rain Gauge Data Logger - RG3	HOBO Temperature/RH Smart Sensor (S-THB-M002)	Soil Moisture Smart Sensor - EC5 (S-SMC-M005)	2019-05-12T15:00:01	0.00	16.630	41.700	0.5915	3.6
29	AB07CD0350	WETLAND SAL01	SALINE (FEN)	56.573903999999998859493643976747989654541015625	-111.277773999999993748133420012891292572021484375	HOBO Rain Gauge Data Logger - RG3	HOBO Temperature/RH Smart Sensor (S-THB-M002)	Soil Moisture Smart Sensor - EC5 (S-SMC-M005)	2019-05-12T16:00:01	0.00	14.697	46.000	0.5922	3.2
30	AB07CD0350	WETLAND SAL01	SALINE (FEN)	56.573903999999998859493643976747989654541015625	-111.277773999999993748133420012891292572021484375	HOBO Rain Gauge Data Logger - RG3	HOBO Temperature/RH Smart Sensor (S-THB-M002)	Soil Moisture Smart Sensor - EC5 (S-SMC-M005)	2019-05-12T17:00:01	0.00	14.673	45.800	0.5922	3.1
31	AB07CD0350	WETLAND SAL01	SALINE (FEN)	56.573903999999998859493643976747989654541015625	-111.277773999999993748133420012891292572021484375	HOBO Rain Gauge Data Logger - RG3	HOBO Temperature/RH Smart Sensor (S-THB-M002)	Soil Moisture Smart Sensor - EC5 (S-SMC-M005)	2019-05-12T18:00:01	0.00	16.392	44.500	0.5922	4.3
32	AB07CD0350	WETLAND SAL01	SALINE (FEN)	56.573903999999998859493643976747989654541015625	-111.277773999999993748133420012891292572021484375	HOBO Rain Gauge Data Logger - RG3	HOBO Temperature/RH Smart Sensor (S-THB-M002)	Soil Moisture Smart Sensor - EC5 (S-SMC-M005)	2019-05-12T19:00:01	0.00	16.582	41.300	0.5922	3.4
33	AB07CD0350	WETLAND SAL01	SALINE (FEN)	56.573903999999998859493643976747989654541015625	-111.277773999999993748133420012891292572021484375	HOBO Rain Gauge Data Logger - RG3	HOBO Temperature/RH Smart Sensor (S-THB-M002)	Soil Moisture Smart Sensor - EC5 (S-SMC-M005)	2019-05-12T20:00:01	0.00	16.249	33.600	0.5930	0.2
34	AB07CD0350	WETLAND SAL01	SALINE (FEN)	56.573903999999998859493643976747989654541015625	-111.277773999999993748133420012891292572021484375	HOBO Rain Gauge Data Logger - RG3	HOBO Temperature/RH Smart Sensor (S-THB-M002)	Soil Moisture Smart Sensor - EC5 (S-SMC-M005)	2019-05-12T21:00:01	0.00	14.601	27.200	0.5930	-4.1
35	AB07CD0350	WETLAND SAL01	SALINE (FEN)	56.573903999999998859493643976747989654541015625	-111.277773999999993748133420012891292572021484375	HOBO Rain Gauge Data Logger - RG3	HOBO Temperature/RH Smart Sensor (S-THB-M002)	Soil Moisture Smart Sensor - EC5 (S-SMC-M005)	2019-05-12T22:00:01	0.00	12.050	28.900	0.5930	-5.5
36	AB07CD0350	WETLAND SAL01	SALINE (FEN)	56.573903999999998859493643976747989654541015625	-111.277773999999993748133420012891292572021484375	HOBO Rain Gauge Data Logger - RG3	HOBO Temperature/RH Smart Sensor (S-THB-M002)	Soil Moisture Smart Sensor - EC5 (S-SMC-M005)	2019-05-12T23:00:01	0.00	10.026	31.400	0.5930	-6.1
37	AB07CD0350	WETLAND SAL01	SALINE (FEN)	56.573903999999998859493643976747989654541015625	-111.277773999999993748133420012891292572021484375	HOBO Rain Gauge Data Logger - RG3	HOBO Temperature/RH Smart Sensor (S-THB-M002)	Soil Moisture Smart Sensor - EC5 (S-SMC-M005)	2019-05-13T00:00:01	0.00	9.386	32.400	0.5937	-6.3
38	AB07CD0350	WETLAND SAL01	SALINE (FEN)	56.573903999999998859493643976747989654541015625	-111.277773999999993748133420012891292572021484375	HOBO Rain Gauge Data Logger - RG3	HOBO Temperature/RH Smart Sensor (S-THB-M002)	Soil Moisture Smart Sensor - EC5 (S-SMC-M005)	2019-05-13T01:00:01	0.00	8.841	35.300	0.5937	-5.7
39	AB07CD0350	WETLAND SAL01	SALINE (FEN)	56.573903999999998859493643976747989654541015625	-111.277773999999993748133420012891292572021484375	HOBO Rain Gauge Data Logger - RG3	HOBO Temperature/RH Smart Sensor (S-THB-M002)	Soil Moisture Smart Sensor - EC5 (S-SMC-M005)	2019-05-13T02:00:01	0.00	7.343	43.200	0.5937	-4.3
40	AB07CD0350	WETLAND SAL01	SALINE (FEN)	56.573903999999998859493643976747989654541015625	-111.277773999999993748133420012891292572021484375	HOBO Rain Gauge Data Logger - RG3	HOBO Temperature/RH Smart Sensor (S-THB-M002)	Soil Moisture Smart Sensor - EC5 (S-SMC-M005)	2019-05-13T03:00:01	0.00	6.990	54.200	0.5937	-1.6
41	AB07CD0350	WETLAND SAL01	SALINE (FEN)	56.573903999999998859493643976747989654541015625	-111.277773999999993748133420012891292572021484375	HOBO Rain Gauge Data Logger - RG3	HOBO Temperature/RH Smart Sensor (S-THB-M002)	Soil Moisture Smart Sensor - EC5 (S-SMC-M005)	2019-05-13T04:00:01	0.00	5.949	62.200	0.5937	-0.7
42	AB07CD0350	WETLAND SAL01	SALINE (FEN)	56.573903999999998859493643976747989654541015625	-111.277773999999993748133420012891292572021484375	HOBO Rain Gauge Data Logger - RG3	HOBO Temperature/RH Smart Sensor (S-THB-M002)	Soil Moisture Smart Sensor - EC5 (S-SMC-M005)	2019-05-13T05:00:01	0.00	6.128	67.500	0.5937	0.6
43	AB07CD0350	WETLAND SAL01	SALINE (FEN)	56.573903999999998859493643976747989654541015625	-111.277773999999993748133420012891292572021484375	HOBO Rain Gauge Data Logger - RG3	HOBO Temperature/RH Smart Sensor (S-THB-M002)	Soil Moisture Smart Sensor - EC5 (S-SMC-M005)	2019-05-13T06:00:01	0.00	5.975	68.000	0.5937	0.5
44	AB07CD0350	WETLAND SAL01	SALINE (FEN)	56.573903999999998859493643976747989654541015625	-111.277773999999993748133420012891292572021484375	HOBO Rain Gauge Data Logger - RG3	HOBO Temperature/RH Smart Sensor (S-THB-M002)	Soil Moisture Smart Sensor - EC5 (S-SMC-M005)	2019-05-13T07:00:01	0.00	6.484	68.600	0.5937	1.1
45	AB07CD0350	WETLAND SAL01	SALINE (FEN)	56.573903999999998859493643976747989654541015625	-111.277773999999993748133420012891292572021484375	HOBO Rain Gauge Data Logger - RG3	HOBO Temperature/RH Smart Sensor (S-THB-M002)	Soil Moisture Smart Sensor - EC5 (S-SMC-M005)	2019-05-13T08:00:01	0.00	6.636	66.300	0.5937	0.8
46	AB07CD0350	WETLAND SAL01	SALINE (FEN)	56.573903999999998859493643976747989654541015625	-111.277773999999993748133420012891292572021484375	HOBO Rain Gauge Data Logger - RG3	HOBO Temperature/RH Smart Sensor (S-THB-M002)	Soil Moisture Smart Sensor - EC5 (S-SMC-M005)	2019-05-13T09:00:01	0.00	8.045	63.500	0.5937	1.5
47	AB07CD0350	WETLAND SAL01	SALINE (FEN)	56.573903999999998859493643976747989654541015625	-111.277773999999993748133420012891292572021484375	HOBO Rain Gauge Data Logger - RG3	HOBO Temperature/RH Smart Sensor (S-THB-M002)	Soil Moisture Smart Sensor - EC5 (S-SMC-M005)	2019-05-13T10:00:01	0.00	7.167	60.000	0.5944	-0.1
48	AB07CD0350	WETLAND SAL01	SALINE (FEN)	56.573903999999998859493643976747989654541015625	-111.277773999999993748133420012891292572021484375	HOBO Rain Gauge Data Logger - RG3	HOBO Temperature/RH Smart Sensor (S-THB-M002)	Soil Moisture Smart Sensor - EC5 (S-SMC-M005)	2019-05-13T11:00:01	0.00	7.343	61.300	0.5937	0.4
49	AB07CD0350	WETLAND SAL01	SALINE (FEN)	56.573903999999998859493643976747989654541015625	-111.277773999999993748133420012891292572021484375	HOBO Rain Gauge Data Logger - RG3	HOBO Temperature/RH Smart Sensor (S-THB-M002)	Soil Moisture Smart Sensor - EC5 (S-SMC-M005)	2019-05-13T12:00:01	0.00	7.619	60.300	0.5937	0.4
50	AB07CD0350	WETLAND SAL01	SALINE (FEN)	56.573903999999998859493643976747989654541015625	-111.277773999999993748133420012891292572021484375	HOBO Rain Gauge Data Logger - RG3	HOBO Temperature/RH Smart Sensor (S-THB-M002)	Soil Moisture Smart Sensor - EC5 (S-SMC-M005)	2019-05-13T13:00:01	0.00	8.419	57.300	0.5937	0.5
51	AB07CD0350	WETLAND SAL01	SALINE (FEN)	56.573903999999998859493643976747989654541015625	-111.277773999999993748133420012891292572021484375	HOBO Rain Gauge Data Logger - RG3	HOBO Temperature/RH Smart Sensor (S-THB-M002)	Soil Moisture Smart Sensor - EC5 (S-SMC-M005)	2019-05-13T14:00:01	0.00	8.145	58.300	0.5937	0.5
52	AB07CD0350	WETLAND SAL01	SALINE (FEN)	56.573903999999998859493643976747989654541015625	-111.277773999999993748133420012891292572021484375	HOBO Rain Gauge Data Logger - RG3	HOBO Temperature/RH Smart Sensor (S-THB-M002)	Soil Moisture Smart Sensor - EC5 (S-SMC-M005)	2019-05-13T15:00:01	0.00	8.618	58.700	0.5937	1.0
53	AB07CD0350	WETLAND SAL01	SALINE (FEN)	56.573903999999998859493643976747989654541015625	-111.277773999999993748133420012891292572021484375	HOBO Rain Gauge Data Logger - RG3	HOBO Temperature/RH Smart Sensor (S-THB-M002)	Soil Moisture Smart Sensor - EC5 (S-SMC-M005)	2019-05-13T16:00:01	0.00	9.657	56.400	0.5937	1.4
54	AB07CD0350	WETLAND SAL01	SALINE (FEN)	56.573903999999998859493643976747989654541015625	-111.277773999999993748133420012891292572021484375	HOBO Rain Gauge Data Logger - RG3	HOBO Temperature/RH Smart Sensor (S-THB-M002)	Soil Moisture Smart Sensor - EC5 (S-SMC-M005)	2019-05-13T17:00:01	0.00	10.492	53.400	0.5937	1.4
55	AB07CD0350	WETLAND SAL01	SALINE (FEN)	56.573903999999998859493643976747989654541015625	-111.277773999999993748133420012891292572021484375	HOBO Rain Gauge Data Logger - RG3	HOBO Temperature/RH Smart Sensor (S-THB-M002)	Soil Moisture Smart Sensor - EC5 (S-SMC-M005)	2019-05-13T18:00:01	0.00	10.565	52.100	0.5937	1.2
56	AB07CD0350	WETLAND SAL01	SALINE (FEN)	56.573903999999998859493643976747989654541015625	-111.277773999999993748133420012891292572021484375	HOBO Rain Gauge Data Logger - RG3	HOBO Temperature/RH Smart Sensor (S-THB-M002)	Soil Moisture Smart Sensor - EC5 (S-SMC-M005)	2019-05-13T19:00:01	0.00	7.670	64.000	0.5937	1.3
57	AB07CD0350	WETLAND SAL01	SALINE (FEN)	56.573903999999998859493643976747989654541015625	-111.277773999999993748133420012891292572021484375	HOBO Rain Gauge Data Logger - RG3	HOBO Temperature/RH Smart Sensor (S-THB-M002)	Soil Moisture Smart Sensor - EC5 (S-SMC-M005)	2019-05-13T20:00:01	0.00	7.845	73.700	0.5937	3.5
58	AB07CD0350	WETLAND SAL01	SALINE (FEN)	56.573903999999998859493643976747989654541015625	-111.277773999999993748133420012891292572021484375	HOBO Rain Gauge Data Logger - RG3	HOBO Temperature/RH Smart Sensor (S-THB-M002)	Soil Moisture Smart Sensor - EC5 (S-SMC-M005)	2019-05-13T21:00:01	0.00	6.712	70.900	0.5937	1.8
59	AB07CD0350	WETLAND SAL01	SALINE (FEN)	56.573903999999998859493643976747989654541015625	-111.277773999999993748133420012891292572021484375	HOBO Rain Gauge Data Logger - RG3	HOBO Temperature/RH Smart Sensor (S-THB-M002)	Soil Moisture Smart Sensor - EC5 (S-SMC-M005)	2019-05-13T22:00:01	0.00	3.089	80.900	0.5937	0.1
60	AB07CD0350	WETLAND SAL01	SALINE (FEN)	56.573903999999998859493643976747989654541015625	-111.277773999999993748133420012891292572021484375	HOBO Rain Gauge Data Logger - RG3	HOBO Temperature/RH Smart Sensor (S-THB-M002)	Soil Moisture Smart Sensor - EC5 (S-SMC-M005)	2019-05-13T23:00:01	0.00	1.886	88.400	0.5937	0.2
61	AB07CD0350	WETLAND SAL01	SALINE (FEN)	56.573903999999998859493643976747989654541015625	-111.277773999999993748133420012891292572021484375	HOBO Rain Gauge Data Logger - RG3	HOBO Temperature/RH Smart Sensor (S-THB-M002)	Soil Moisture Smart Sensor - EC5 (S-SMC-M005)	2019-05-14T00:00:01	0.00	1.317	90.400	0.5937	-0.1
62	AB07CD0350	WETLAND SAL01	SALINE (FEN)	56.573903999999998859493643976747989654541015625	-111.277773999999993748133420012891292572021484375	HOBO Rain Gauge Data Logger - RG3	HOBO Temperature/RH Smart Sensor (S-THB-M002)	Soil Moisture Smart Sensor - EC5 (S-SMC-M005)	2019-05-14T01:00:01	0.00	2.155	91.400	0.5937	0.9
63	AB07CD0350	WETLAND SAL01	SALINE (FEN)	56.573903999999998859493643976747989654541015625	-111.277773999999993748133420012891292572021484375	HOBO Rain Gauge Data Logger - RG3	HOBO Temperature/RH Smart Sensor (S-THB-M002)	Soil Moisture Smart Sensor - EC5 (S-SMC-M005)	2019-05-14T02:00:01	0.00	1.886	91.500	0.5937	0.6
64	AB07CD0350	WETLAND SAL01	SALINE (FEN)	56.573903999999998859493643976747989654541015625	-111.277773999999993748133420012891292572021484375	HOBO Rain Gauge Data Logger - RG3	HOBO Temperature/RH Smart Sensor (S-THB-M002)	Soil Moisture Smart Sensor - EC5 (S-SMC-M005)	2019-05-14T03:00:01	0.00	0.412	92.000	0.5937	-0.7
65	AB07CD0350	WETLAND SAL01	SALINE (FEN)	56.573903999999998859493643976747989654541015625	-111.277773999999993748133420012891292572021484375	HOBO Rain Gauge Data Logger - RG3	HOBO Temperature/RH Smart Sensor (S-THB-M002)	Soil Moisture Smart Sensor - EC5 (S-SMC-M005)	2019-05-14T04:00:01	0.00	0.273	92.900	0.5937	-0.7
66	AB07CD0350	WETLAND SAL01	SALINE (FEN)	56.573903999999998859493643976747989654541015625	-111.277773999999993748133420012891292572021484375	HOBO Rain Gauge Data Logger - RG3	HOBO Temperature/RH Smart Sensor (S-THB-M002)	Soil Moisture Smart Sensor - EC5 (S-SMC-M005)	2019-05-14T05:00:01	0.00	-1.043	94.500	0.5937	-1.8
67	AB07CD0350	WETLAND SAL01	SALINE (FEN)	56.573903999999998859493643976747989654541015625	-111.277773999999993748133420012891292572021484375	HOBO Rain Gauge Data Logger - RG3	HOBO Temperature/RH Smart Sensor (S-THB-M002)	Soil Moisture Smart Sensor - EC5 (S-SMC-M005)	2019-05-14T06:00:01	0.00	0.550	95.200	0.5937	-0.1
68	AB07CD0350	WETLAND SAL01	SALINE (FEN)	56.573903999999998859493643976747989654541015625	-111.277773999999993748133420012891292572021484375	HOBO Rain Gauge Data Logger - RG3	HOBO Temperature/RH Smart Sensor (S-THB-M002)	Soil Moisture Smart Sensor - EC5 (S-SMC-M005)	2019-05-14T07:00:01	0.00	2.877	93.800	0.5937	2.0
69	AB07CD0350	WETLAND SAL01	SALINE (FEN)	56.573903999999998859493643976747989654541015625	-111.277773999999993748133420012891292572021484375	HOBO Rain Gauge Data Logger - RG3	HOBO Temperature/RH Smart Sensor (S-THB-M002)	Soil Moisture Smart Sensor - EC5 (S-SMC-M005)	2019-05-14T08:00:01	0.00	3.749	90.200	0.5937	2.3
70	AB07CD0350	WETLAND SAL01	SALINE (FEN)	56.573903999999998859493643976747989654541015625	-111.277773999999993748133420012891292572021484375	HOBO Rain Gauge Data Logger - RG3	HOBO Temperature/RH Smart Sensor (S-THB-M002)	Soil Moisture Smart Sensor - EC5 (S-SMC-M005)	2019-05-14T09:00:01	0.00	5.693	86.100	0.5937	3.6
71	AB07CD0350	WETLAND SAL01	SALINE (FEN)	56.573903999999998859493643976747989654541015625	-111.277773999999993748133420012891292572021484375	HOBO Rain Gauge Data Logger - RG3	HOBO Temperature/RH Smart Sensor (S-THB-M002)	Soil Moisture Smart Sensor - EC5 (S-SMC-M005)	2019-05-14T10:00:01	0.00	7.368	80.200	0.5937	4.2
72	AB07CD0350	WETLAND SAL01	SALINE (FEN)	56.573903999999998859493643976747989654541015625	-111.277773999999993748133420012891292572021484375	HOBO Rain Gauge Data Logger - RG3	HOBO Temperature/RH Smart Sensor (S-THB-M002)	Soil Moisture Smart Sensor - EC5 (S-SMC-M005)	2019-05-14T11:00:01	0.00	8.568	74.600	0.5937	4.3
73	AB07CD0350	WETLAND SAL01	SALINE (FEN)	56.573903999999998859493643976747989654541015625	-111.277773999999993748133420012891292572021484375	HOBO Rain Gauge Data Logger - RG3	HOBO Temperature/RH Smart Sensor (S-THB-M002)	Soil Moisture Smart Sensor - EC5 (S-SMC-M005)	2019-05-14T12:00:01	0.00	9.928	70.400	0.5937	4.8
74	AB07CD0350	WETLAND SAL01	SALINE (FEN)	56.573903999999998859493643976747989654541015625	-111.277773999999993748133420012891292572021484375	HOBO Rain Gauge Data Logger - RG3	HOBO Temperature/RH Smart Sensor (S-THB-M002)	Soil Moisture Smart Sensor - EC5 (S-SMC-M005)	2019-05-14T13:00:01	0.00	8.742	66.400	0.5937	2.8
75	AB07CD0350	WETLAND SAL01	SALINE (FEN)	56.573903999999998859493643976747989654541015625	-111.277773999999993748133420012891292572021484375	HOBO Rain Gauge Data Logger - RG3	HOBO Temperature/RH Smart Sensor (S-THB-M002)	Soil Moisture Smart Sensor - EC5 (S-SMC-M005)	2019-05-14T14:00:01	0.00	10.736	63.300	0.5937	4.1
76	AB07CD0350	WETLAND SAL01	SALINE (FEN)	56.573903999999998859493643976747989654541015625	-111.277773999999993748133420012891292572021484375	HOBO Rain Gauge Data Logger - RG3	HOBO Temperature/RH Smart Sensor (S-THB-M002)	Soil Moisture Smart Sensor - EC5 (S-SMC-M005)	2019-05-14T15:00:01	0.00	12.122	57.700	0.5937	4.0
77	AB07CD0350	WETLAND SAL01	SALINE (FEN)	56.573903999999998859493643976747989654541015625	-111.277773999999993748133420012891292572021484375	HOBO Rain Gauge Data Logger - RG3	HOBO Temperature/RH Smart Sensor (S-THB-M002)	Soil Moisture Smart Sensor - EC5 (S-SMC-M005)	2019-05-14T16:00:01	0.00	11.492	56.400	0.5937	3.1
78	AB07CD0350	WETLAND SAL01	SALINE (FEN)	56.573903999999998859493643976747989654541015625	-111.277773999999993748133420012891292572021484375	HOBO Rain Gauge Data Logger - RG3	HOBO Temperature/RH Smart Sensor (S-THB-M002)	Soil Moisture Smart Sensor - EC5 (S-SMC-M005)	2019-05-14T17:00:01	0.00	12.122	55.000	0.5937	3.4
79	AB07CD0350	WETLAND SAL01	SALINE (FEN)	56.573903999999998859493643976747989654541015625	-111.277773999999993748133420012891292572021484375	HOBO Rain Gauge Data Logger - RG3	HOBO Temperature/RH Smart Sensor (S-THB-M002)	Soil Moisture Smart Sensor - EC5 (S-SMC-M005)	2019-05-14T18:00:01	0.00	11.127	53.100	0.5937	1.9
80	AB07CD0350	WETLAND SAL01	SALINE (FEN)	56.573903999999998859493643976747989654541015625	-111.277773999999993748133420012891292572021484375	HOBO Rain Gauge Data Logger - RG3	HOBO Temperature/RH Smart Sensor (S-THB-M002)	Soil Moisture Smart Sensor - EC5 (S-SMC-M005)	2019-05-14T19:00:01	0.00	12.147	50.800	0.5937	2.3
81	AB07CD0350	WETLAND SAL01	SALINE (FEN)	56.573903999999998859493643976747989654541015625	-111.277773999999993748133420012891292572021484375	HOBO Rain Gauge Data Logger - RG3	HOBO Temperature/RH Smart Sensor (S-THB-M002)	Soil Moisture Smart Sensor - EC5 (S-SMC-M005)	2019-05-14T20:00:01	0.00	11.516	47.600	0.5937	0.8
82	AB07CD0350	WETLAND SAL01	SALINE (FEN)	56.573903999999998859493643976747989654541015625	-111.277773999999993748133420012891292572021484375	HOBO Rain Gauge Data Logger - RG3	HOBO Temperature/RH Smart Sensor (S-THB-M002)	Soil Moisture Smart Sensor - EC5 (S-SMC-M005)	2019-05-14T21:00:01	0.00	9.558	47.400	0.5937	-1.1
83	AB07CD0350	WETLAND SAL01	SALINE (FEN)	56.573903999999998859493643976747989654541015625	-111.277773999999993748133420012891292572021484375	HOBO Rain Gauge Data Logger - RG3	HOBO Temperature/RH Smart Sensor (S-THB-M002)	Soil Moisture Smart Sensor - EC5 (S-SMC-M005)	2019-05-14T22:00:01	0.00	7.393	51.800	0.5944	-1.9
84	AB07CD0350	WETLAND SAL01	SALINE (FEN)	56.573903999999998859493643976747989654541015625	-111.277773999999993748133420012891292572021484375	HOBO Rain Gauge Data Logger - RG3	HOBO Temperature/RH Smart Sensor (S-THB-M002)	Soil Moisture Smart Sensor - EC5 (S-SMC-M005)	2019-05-14T23:00:01	0.00	0.687	66.200	0.5944	-4.9
85	AB07CD0350	WETLAND SAL01	SALINE (FEN)	56.573903999999998859493643976747989654541015625	-111.277773999999993748133420012891292572021484375	HOBO Rain Gauge Data Logger - RG3	HOBO Temperature/RH Smart Sensor (S-THB-M002)	Soil Moisture Smart Sensor - EC5 (S-SMC-M005)	2019-05-15T00:00:01	0.00	5.205	66.500	0.5944	-0.5
86	AB07CD0350	WETLAND SAL01	SALINE (FEN)	56.573903999999998859493643976747989654541015625	-111.277773999999993748133420012891292572021484375	HOBO Rain Gauge Data Logger - RG3	HOBO Temperature/RH Smart Sensor (S-THB-M002)	Soil Moisture Smart Sensor - EC5 (S-SMC-M005)	2019-05-15T01:00:01	0.00	3.958	55.600	0.5944	-4.1
87	AB07CD0350	WETLAND SAL01	SALINE (FEN)	56.573903999999998859493643976747989654541015625	-111.277773999999993748133420012891292572021484375	HOBO Rain Gauge Data Logger - RG3	HOBO Temperature/RH Smart Sensor (S-THB-M002)	Soil Moisture Smart Sensor - EC5 (S-SMC-M005)	2019-05-15T02:00:01	0.00	1.967	59.800	0.5944	-5.0
88	AB07CD0350	WETLAND SAL01	SALINE (FEN)	56.573903999999998859493643976747989654541015625	-111.277773999999993748133420012891292572021484375	HOBO Rain Gauge Data Logger - RG3	HOBO Temperature/RH Smart Sensor (S-THB-M002)	Soil Moisture Smart Sensor - EC5 (S-SMC-M005)	2019-05-15T03:00:01	0.00	-2.189	73.300	0.5944	-6.3
89	AB07CD0350	WETLAND SAL01	SALINE (FEN)	56.573903999999998859493643976747989654541015625	-111.277773999999993748133420012891292572021484375	HOBO Rain Gauge Data Logger - RG3	HOBO Temperature/RH Smart Sensor (S-THB-M002)	Soil Moisture Smart Sensor - EC5 (S-SMC-M005)	2019-05-15T04:00:01	0.00	-3.508	85.200	0.5951	-5.6
90	AB07CD0350	WETLAND SAL01	SALINE (FEN)	56.573903999999998859493643976747989654541015625	-111.277773999999993748133420012891292572021484375	HOBO Rain Gauge Data Logger - RG3	HOBO Temperature/RH Smart Sensor (S-THB-M002)	Soil Moisture Smart Sensor - EC5 (S-SMC-M005)	2019-05-15T05:00:01	0.00	-3.568	87.000	0.5951	-5.4
91	AB07CD0350	WETLAND SAL01	SALINE (FEN)	56.573903999999998859493643976747989654541015625	-111.277773999999993748133420012891292572021484375	HOBO Rain Gauge Data Logger - RG3	HOBO Temperature/RH Smart Sensor (S-THB-M002)	Soil Moisture Smart Sensor - EC5 (S-SMC-M005)	2019-05-15T06:00:01	0.00	-2.044	86.600	0.5951	-4.0
92	AB07CD0350	WETLAND SAL01	SALINE (FEN)	56.573903999999998859493643976747989654541015625	-111.277773999999993748133420012891292572021484375	HOBO Rain Gauge Data Logger - RG3	HOBO Temperature/RH Smart Sensor (S-THB-M002)	Soil Moisture Smart Sensor - EC5 (S-SMC-M005)	2019-05-15T07:00:01	0.00	2.370	78.800	0.5944	-0.9
93	AB07CD0350	WETLAND SAL01	SALINE (FEN)	56.573903999999998859493643976747989654541015625	-111.277773999999993748133420012891292572021484375	HOBO Rain Gauge Data Logger - RG3	HOBO Temperature/RH Smart Sensor (S-THB-M002)	Soil Moisture Smart Sensor - EC5 (S-SMC-M005)	2019-05-15T08:00:01	0.00	4.141	68.600	0.5944	-1.1
94	AB07CD0350	WETLAND SAL01	SALINE (FEN)	56.573903999999998859493643976747989654541015625	-111.277773999999993748133420012891292572021484375	HOBO Rain Gauge Data Logger - RG3	HOBO Temperature/RH Smart Sensor (S-THB-M002)	Soil Moisture Smart Sensor - EC5 (S-SMC-M005)	2019-05-15T09:00:01	0.00	5.565	60.400	0.5944	-1.5
95	AB07CD0350	WETLAND SAL01	SALINE (FEN)	56.573903999999998859493643976747989654541015625	-111.277773999999993748133420012891292572021484375	HOBO Rain Gauge Data Logger - RG3	HOBO Temperature/RH Smart Sensor (S-THB-M002)	Soil Moisture Smart Sensor - EC5 (S-SMC-M005)	2019-05-15T10:00:01	0.00	7.619	55.300	0.5944	-0.8
96	AB07CD0350	WETLAND SAL01	SALINE (FEN)	56.573903999999998859493643976747989654541015625	-111.277773999999993748133420012891292572021484375	HOBO Rain Gauge Data Logger - RG3	HOBO Temperature/RH Smart Sensor (S-THB-M002)	Soil Moisture Smart Sensor - EC5 (S-SMC-M005)	2019-05-15T11:00:01	0.00	8.990	48.100	0.5944	-1.4
97	AB07CD0350	WETLAND SAL01	SALINE (FEN)	56.573903999999998859493643976747989654541015625	-111.277773999999993748133420012891292572021484375	HOBO Rain Gauge Data Logger - RG3	HOBO Temperature/RH Smart Sensor (S-THB-M002)	Soil Moisture Smart Sensor - EC5 (S-SMC-M005)	2019-05-15T12:00:01	0.00	9.977	42.600	0.5944	-2.1
98	AB07CD0350	WETLAND SAL01	SALINE (FEN)	56.573903999999998859493643976747989654541015625	-111.277773999999993748133420012891292572021484375	HOBO Rain Gauge Data Logger - RG3	HOBO Temperature/RH Smart Sensor (S-THB-M002)	Soil Moisture Smart Sensor - EC5 (S-SMC-M005)	2019-05-15T13:00:01	0.00	9.879	40.500	0.5944	-2.9
99	AB07CD0350	WETLAND SAL01	SALINE (FEN)	56.573903999999998859493643976747989654541015625	-111.277773999999993748133420012891292572021484375	HOBO Rain Gauge Data Logger - RG3	HOBO Temperature/RH Smart Sensor (S-THB-M002)	Soil Moisture Smart Sensor - EC5 (S-SMC-M005)	2019-05-15T14:00:01	0.00	10.051	40.000	0.5944	-2.9
100	AB07CD0350	WETLAND SAL01	SALINE (FEN)	56.573903999999998859493643976747989654541015625	-111.277773999999993748133420012891292572021484375	HOBO Rain Gauge Data Logger - RG3	HOBO Temperature/RH Smart Sensor (S-THB-M002)	Soil Moisture Smart Sensor - EC5 (S-SMC-M005)	2019-05-15T15:00:01	0.00	10.883	37.100	0.5944	-3.2
101	AB07CD0350	WETLAND SAL01	SALINE (FEN)	56.573903999999998859493643976747989654541015625	-111.277773999999993748133420012891292572021484375	HOBO Rain Gauge Data Logger - RG3	HOBO Temperature/RH Smart Sensor (S-THB-M002)	Soil Moisture Smart Sensor - EC5 (S-SMC-M005)	2019-05-15T16:00:01	0.00	10.907	35.900	0.5944	-3.6
102	AB07CD0350	WETLAND SAL01	SALINE (FEN)	56.573903999999998859493643976747989654541015625	-111.277773999999993748133420012891292572021484375	HOBO Rain Gauge Data Logger - RG3	HOBO Temperature/RH Smart Sensor (S-THB-M002)	Soil Moisture Smart Sensor - EC5 (S-SMC-M005)	2019-05-15T17:00:01	0.00	10.663	35.000	0.5944	-4.2
103	AB07CD0350	WETLAND SAL01	SALINE (FEN)	56.573903999999998859493643976747989654541015625	-111.277773999999993748133420012891292572021484375	HOBO Rain Gauge Data Logger - RG3	HOBO Temperature/RH Smart Sensor (S-THB-M002)	Soil Moisture Smart Sensor - EC5 (S-SMC-M005)	2019-05-15T18:00:01	0.00	10.492	33.600	0.5944	-4.9
104	AB07CD0350	WETLAND SAL01	SALINE (FEN)	56.573903999999998859493643976747989654541015625	-111.277773999999993748133420012891292572021484375	HOBO Rain Gauge Data Logger - RG3	HOBO Temperature/RH Smart Sensor (S-THB-M002)	Soil Moisture Smart Sensor - EC5 (S-SMC-M005)	2019-05-15T19:00:01	0.00	9.903	33.900	0.5944	-5.3
105	AB07CD0350	WETLAND SAL01	SALINE (FEN)	56.573903999999998859493643976747989654541015625	-111.277773999999993748133420012891292572021484375	HOBO Rain Gauge Data Logger - RG3	HOBO Temperature/RH Smart Sensor (S-THB-M002)	Soil Moisture Smart Sensor - EC5 (S-SMC-M005)	2019-05-15T20:00:01	0.00	8.195	34.100	0.5944	-6.7
106	AB07CD0350	WETLAND SAL01	SALINE (FEN)	56.573903999999998859493643976747989654541015625	-111.277773999999993748133420012891292572021484375	HOBO Rain Gauge Data Logger - RG3	HOBO Temperature/RH Smart Sensor (S-THB-M002)	Soil Moisture Smart Sensor - EC5 (S-SMC-M005)	2019-05-15T21:00:01	0.00	6.585	35.300	0.5951	-7.7
107	AB07CD0350	WETLAND SAL01	SALINE (FEN)	56.573903999999998859493643976747989654541015625	-111.277773999999993748133420012891292572021484375	HOBO Rain Gauge Data Logger - RG3	HOBO Temperature/RH Smart Sensor (S-THB-M002)	Soil Moisture Smart Sensor - EC5 (S-SMC-M005)	2019-05-15T22:00:01	0.00	4.402	38.900	0.5951	-8.4
108	AB07CD0350	WETLAND SAL01	SALINE (FEN)	56.573903999999998859493643976747989654541015625	-111.277773999999993748133420012891292572021484375	HOBO Rain Gauge Data Logger - RG3	HOBO Temperature/RH Smart Sensor (S-THB-M002)	Soil Moisture Smart Sensor - EC5 (S-SMC-M005)	2019-05-15T23:00:01	0.00	2.182	43.600	0.5951	-8.9
109	AB07CD0350	WETLAND SAL01	SALINE (FEN)	56.573903999999998859493643976747989654541015625	-111.277773999999993748133420012891292572021484375	HOBO Rain Gauge Data Logger - RG3	HOBO Temperature/RH Smart Sensor (S-THB-M002)	Soil Moisture Smart Sensor - EC5 (S-SMC-M005)	2019-05-16T00:00:01	0.00	1.561	48.900	0.5951	-8.0
110	AB07CD0350	WETLAND SAL01	SALINE (FEN)	56.573903999999998859493643976747989654541015625	-111.277773999999993748133420012891292572021484375	HOBO Rain Gauge Data Logger - RG3	HOBO Temperature/RH Smart Sensor (S-THB-M002)	Soil Moisture Smart Sensor - EC5 (S-SMC-M005)	2019-05-16T01:00:01	0.00	-4.167	62.700	0.5951	-10.2
111	AB07CD0350	WETLAND SAL01	SALINE (FEN)	56.573903999999998859493643976747989654541015625	-111.277773999999993748133420012891292572021484375	HOBO Rain Gauge Data Logger - RG3	HOBO Temperature/RH Smart Sensor (S-THB-M002)	Soil Moisture Smart Sensor - EC5 (S-SMC-M005)	2019-05-16T02:00:01	0.00	-5.264	78.200	0.5951	-8.5
112	AB07CD0350	WETLAND SAL01	SALINE (FEN)	56.573903999999998859493643976747989654541015625	-111.277773999999993748133420012891292572021484375	HOBO Rain Gauge Data Logger - RG3	HOBO Temperature/RH Smart Sensor (S-THB-M002)	Soil Moisture Smart Sensor - EC5 (S-SMC-M005)	2019-05-16T03:00:01	0.00	-5.542	82.100	0.5951	-8.1
113	AB07CD0350	WETLAND SAL01	SALINE (FEN)	56.573903999999998859493643976747989654541015625	-111.277773999999993748133420012891292572021484375	HOBO Rain Gauge Data Logger - RG3	HOBO Temperature/RH Smart Sensor (S-THB-M002)	Soil Moisture Smart Sensor - EC5 (S-SMC-M005)	2019-05-16T04:00:01	0.00	-6.452	85.200	0.5951	-8.5
114	AB07CD0350	WETLAND SAL01	SALINE (FEN)	56.573903999999998859493643976747989654541015625	-111.277773999999993748133420012891292572021484375	HOBO Rain Gauge Data Logger - RG3	HOBO Temperature/RH Smart Sensor (S-THB-M002)	Soil Moisture Smart Sensor - EC5 (S-SMC-M005)	2019-05-16T05:00:01	0.00	-7.413	87.300	0.5951	-9.2
115	AB07CD0350	WETLAND SAL01	SALINE (FEN)	56.573903999999998859493643976747989654541015625	-111.277773999999993748133420012891292572021484375	HOBO Rain Gauge Data Logger - RG3	HOBO Temperature/RH Smart Sensor (S-THB-M002)	Soil Moisture Smart Sensor - EC5 (S-SMC-M005)	2019-05-16T06:00:01	0.00	-5.110	87.000	0.5951	-6.9
116	AB07CD0350	WETLAND SAL01	SALINE (FEN)	56.573903999999998859493643976747989654541015625	-111.277773999999993748133420012891292572021484375	HOBO Rain Gauge Data Logger - RG3	HOBO Temperature/RH Smart Sensor (S-THB-M002)	Soil Moisture Smart Sensor - EC5 (S-SMC-M005)	2019-05-16T07:00:01	0.00	0.825	79.400	0.5951	-2.3
117	AB07CD0350	WETLAND SAL01	SALINE (FEN)	56.573903999999998859493643976747989654541015625	-111.277773999999993748133420012891292572021484375	HOBO Rain Gauge Data Logger - RG3	HOBO Temperature/RH Smart Sensor (S-THB-M002)	Soil Moisture Smart Sensor - EC5 (S-SMC-M005)	2019-05-16T08:00:01	0.00	3.459	60.300	0.5951	-3.5
118	AB07CD0350	WETLAND SAL01	SALINE (FEN)	56.573903999999998859493643976747989654541015625	-111.277773999999993748133420012891292572021484375	HOBO Rain Gauge Data Logger - RG3	HOBO Temperature/RH Smart Sensor (S-THB-M002)	Soil Moisture Smart Sensor - EC5 (S-SMC-M005)	2019-05-16T09:00:01	0.00	5.514	50.200	0.5951	-4.0
119	AB07CD0350	WETLAND SAL01	SALINE (FEN)	56.573903999999998859493643976747989654541015625	-111.277773999999993748133420012891292572021484375	HOBO Rain Gauge Data Logger - RG3	HOBO Temperature/RH Smart Sensor (S-THB-M002)	Soil Moisture Smart Sensor - EC5 (S-SMC-M005)	2019-05-16T10:00:01	0.00	7.015	44.000	0.5951	-4.4
120	AB07CD0350	WETLAND SAL01	SALINE (FEN)	56.573903999999998859493643976747989654541015625	-111.277773999999993748133420012891292572021484375	HOBO Rain Gauge Data Logger - RG3	HOBO Temperature/RH Smart Sensor (S-THB-M002)	Soil Moisture Smart Sensor - EC5 (S-SMC-M005)	2019-05-16T11:00:01	0.00	8.295	41.300	0.5944	-4.1
121	AB07CD0350	WETLAND SAL01	SALINE (FEN)	56.573903999999998859493643976747989654541015625	-111.277773999999993748133420012891292572021484375	HOBO Rain Gauge Data Logger - RG3	HOBO Temperature/RH Smart Sensor (S-THB-M002)	Soil Moisture Smart Sensor - EC5 (S-SMC-M005)	2019-05-16T12:00:01	0.00	9.089	38.800	0.5944	-4.2
122	AB07CD0350	WETLAND SAL01	SALINE (FEN)	56.573903999999998859493643976747989654541015625	-111.277773999999993748133420012891292572021484375	HOBO Rain Gauge Data Logger - RG3	HOBO Temperature/RH Smart Sensor (S-THB-M002)	Soil Moisture Smart Sensor - EC5 (S-SMC-M005)	2019-05-16T13:00:01	0.00	10.001	36.200	0.5944	-4.3
123	AB07CD0350	WETLAND SAL01	SALINE (FEN)	56.573903999999998859493643976747989654541015625	-111.277773999999993748133420012891292572021484375	HOBO Rain Gauge Data Logger - RG3	HOBO Temperature/RH Smart Sensor (S-THB-M002)	Soil Moisture Smart Sensor - EC5 (S-SMC-M005)	2019-05-16T14:00:01	0.00	11.151	33.800	0.5944	-4.2
124	AB07CD0350	WETLAND SAL01	SALINE (FEN)	56.573903999999998859493643976747989654541015625	-111.277773999999993748133420012891292572021484375	HOBO Rain Gauge Data Logger - RG3	HOBO Temperature/RH Smart Sensor (S-THB-M002)	Soil Moisture Smart Sensor - EC5 (S-SMC-M005)	2019-05-16T15:00:01	0.00	11.856	31.100	0.5944	-4.7
125	AB07CD0350	WETLAND SAL01	SALINE (FEN)	56.573903999999998859493643976747989654541015625	-111.277773999999993748133420012891292572021484375	HOBO Rain Gauge Data Logger - RG3	HOBO Temperature/RH Smart Sensor (S-THB-M002)	Soil Moisture Smart Sensor - EC5 (S-SMC-M005)	2019-05-16T16:00:01	0.00	13.401	29.500	0.5944	-4.0
126	AB07CD0350	WETLAND SAL01	SALINE (FEN)	56.573903999999998859493643976747989654541015625	-111.277773999999993748133420012891292572021484375	HOBO Rain Gauge Data Logger - RG3	HOBO Temperature/RH Smart Sensor (S-THB-M002)	Soil Moisture Smart Sensor - EC5 (S-SMC-M005)	2019-05-16T17:00:01	0.00	13.401	26.200	0.5944	-5.6
127	AB07CD0350	WETLAND SAL01	SALINE (FEN)	56.573903999999998859493643976747989654541015625	-111.277773999999993748133420012891292572021484375	HOBO Rain Gauge Data Logger - RG3	HOBO Temperature/RH Smart Sensor (S-THB-M002)	Soil Moisture Smart Sensor - EC5 (S-SMC-M005)	2019-05-16T18:00:01	0.00	13.690	25.900	0.5944	-5.5
128	AB07CD0350	WETLAND SAL01	SALINE (FEN)	56.573903999999998859493643976747989654541015625	-111.277773999999993748133420012891292572021484375	HOBO Rain Gauge Data Logger - RG3	HOBO Temperature/RH Smart Sensor (S-THB-M002)	Soil Moisture Smart Sensor - EC5 (S-SMC-M005)	2019-05-16T19:00:01	0.00	13.666	27.200	0.5944	-4.9
129	AB07CD0350	WETLAND SAL01	SALINE (FEN)	56.573903999999998859493643976747989654541015625	-111.277773999999993748133420012891292572021484375	HOBO Rain Gauge Data Logger - RG3	HOBO Temperature/RH Smart Sensor (S-THB-M002)	Soil Moisture Smart Sensor - EC5 (S-SMC-M005)	2019-05-16T20:00:01	0.00	12.074	29.400	0.5944	-5.2
130	AB07CD0350	WETLAND SAL01	SALINE (FEN)	56.573903999999998859493643976747989654541015625	-111.277773999999993748133420012891292572021484375	HOBO Rain Gauge Data Logger - RG3	HOBO Temperature/RH Smart Sensor (S-THB-M002)	Soil Moisture Smart Sensor - EC5 (S-SMC-M005)	2019-05-16T21:00:01	0.00	10.051	35.000	0.5944	-4.7
131	AB07CD0350	WETLAND SAL01	SALINE (FEN)	56.573903999999998859493643976747989654541015625	-111.277773999999993748133420012891292572021484375	HOBO Rain Gauge Data Logger - RG3	HOBO Temperature/RH Smart Sensor (S-THB-M002)	Soil Moisture Smart Sensor - EC5 (S-SMC-M005)	2019-05-16T22:00:01	0.00	7.318	37.300	0.5944	-6.3
132	AB07CD0350	WETLAND SAL01	SALINE (FEN)	56.573903999999998859493643976747989654541015625	-111.277773999999993748133420012891292572021484375	HOBO Rain Gauge Data Logger - RG3	HOBO Temperature/RH Smart Sensor (S-THB-M002)	Soil Moisture Smart Sensor - EC5 (S-SMC-M005)	2019-05-16T23:00:01	0.00	6.509	39.600	0.5944	-6.2
133	AB07CD0350	WETLAND SAL01	SALINE (FEN)	56.573903999999998859493643976747989654541015625	-111.277773999999993748133420012891292572021484375	HOBO Rain Gauge Data Logger - RG3	HOBO Temperature/RH Smart Sensor (S-THB-M002)	Soil Moisture Smart Sensor - EC5 (S-SMC-M005)	2019-05-17T00:00:01	0.00	6.458	41.200	0.5951	-5.8
134	AB07CD0350	WETLAND SAL01	SALINE (FEN)	56.573903999999998859493643976747989654541015625	-111.277773999999993748133420012891292572021484375	HOBO Rain Gauge Data Logger - RG3	HOBO Temperature/RH Smart Sensor (S-THB-M002)	Soil Moisture Smart Sensor - EC5 (S-SMC-M005)	2019-05-17T01:00:01	0.00	5.205	42.600	0.5951	-6.5
135	AB07CD0350	WETLAND SAL01	SALINE (FEN)	56.573903999999998859493643976747989654541015625	-111.277773999999993748133420012891292572021484375	HOBO Rain Gauge Data Logger - RG3	HOBO Temperature/RH Smart Sensor (S-THB-M002)	Soil Moisture Smart Sensor - EC5 (S-SMC-M005)	2019-05-17T02:00:01	0.00	-0.116	55.000	0.5951	-8.1
136	AB07CD0350	WETLAND SAL01	SALINE (FEN)	56.573903999999998859493643976747989654541015625	-111.277773999999993748133420012891292572021484375	HOBO Rain Gauge Data Logger - RG3	HOBO Temperature/RH Smart Sensor (S-THB-M002)	Soil Moisture Smart Sensor - EC5 (S-SMC-M005)	2019-05-17T03:00:01	0.00	-1.527	65.300	0.5951	-7.2
137	AB07CD0350	WETLAND SAL01	SALINE (FEN)	56.573903999999998859493643976747989654541015625	-111.277773999999993748133420012891292572021484375	HOBO Rain Gauge Data Logger - RG3	HOBO Temperature/RH Smart Sensor (S-THB-M002)	Soil Moisture Smart Sensor - EC5 (S-SMC-M005)	2019-05-17T04:00:01	0.00	2.930	64.400	0.5951	-3.1
138	AB07CD0350	WETLAND SAL01	SALINE (FEN)	56.573903999999998859493643976747989654541015625	-111.277773999999993748133420012891292572021484375	HOBO Rain Gauge Data Logger - RG3	HOBO Temperature/RH Smart Sensor (S-THB-M002)	Soil Moisture Smart Sensor - EC5 (S-SMC-M005)	2019-05-17T05:00:01	0.00	3.089	57.500	0.5959	-4.5
139	AB07CD0350	WETLAND SAL01	SALINE (FEN)	56.573903999999998859493643976747989654541015625	-111.277773999999993748133420012891292572021484375	HOBO Rain Gauge Data Logger - RG3	HOBO Temperature/RH Smart Sensor (S-THB-M002)	Soil Moisture Smart Sensor - EC5 (S-SMC-M005)	2019-05-17T06:00:01	0.00	3.670	58.100	0.5951	-3.8
140	AB07CD0350	WETLAND SAL01	SALINE (FEN)	56.573903999999998859493643976747989654541015625	-111.277773999999993748133420012891292572021484375	HOBO Rain Gauge Data Logger - RG3	HOBO Temperature/RH Smart Sensor (S-THB-M002)	Soil Moisture Smart Sensor - EC5 (S-SMC-M005)	2019-05-17T07:00:01	0.00	6.230	56.100	0.5959	-1.9
141	AB07CD0350	WETLAND SAL01	SALINE (FEN)	56.573903999999998859493643976747989654541015625	-111.277773999999993748133420012891292572021484375	HOBO Rain Gauge Data Logger - RG3	HOBO Temperature/RH Smart Sensor (S-THB-M002)	Soil Moisture Smart Sensor - EC5 (S-SMC-M005)	2019-05-17T08:00:01	0.00	8.145	51.500	0.5951	-1.2
142	AB07CD0350	WETLAND SAL01	SALINE (FEN)	56.573903999999998859493643976747989654541015625	-111.277773999999993748133420012891292572021484375	HOBO Rain Gauge Data Logger - RG3	HOBO Temperature/RH Smart Sensor (S-THB-M002)	Soil Moisture Smart Sensor - EC5 (S-SMC-M005)	2019-05-17T09:00:01	0.00	10.418	46.600	0.5959	-0.5
143	AB07CD0350	WETLAND SAL01	SALINE (FEN)	56.573903999999998859493643976747989654541015625	-111.277773999999993748133420012891292572021484375	HOBO Rain Gauge Data Logger - RG3	HOBO Temperature/RH Smart Sensor (S-THB-M002)	Soil Moisture Smart Sensor - EC5 (S-SMC-M005)	2019-05-17T10:00:01	0.00	12.340	40.900	0.5951	-0.6
144	AB07CD0350	WETLAND SAL01	SALINE (FEN)	56.573903999999998859493643976747989654541015625	-111.277773999999993748133420012891292572021484375	HOBO Rain Gauge Data Logger - RG3	HOBO Temperature/RH Smart Sensor (S-THB-M002)	Soil Moisture Smart Sensor - EC5 (S-SMC-M005)	2019-05-17T11:00:01	0.00	14.170	35.400	0.5951	-0.9
145	AB07CD0350	WETLAND SAL01	SALINE (FEN)	56.573903999999998859493643976747989654541015625	-111.277773999999993748133420012891292572021484375	HOBO Rain Gauge Data Logger - RG3	HOBO Temperature/RH Smart Sensor (S-THB-M002)	Soil Moisture Smart Sensor - EC5 (S-SMC-M005)	2019-05-17T12:00:01	0.00	14.912	32.000	0.5951	-1.6
146	AB07CD0350	WETLAND SAL01	SALINE (FEN)	56.573903999999998859493643976747989654541015625	-111.277773999999993748133420012891292572021484375	HOBO Rain Gauge Data Logger - RG3	HOBO Temperature/RH Smart Sensor (S-THB-M002)	Soil Moisture Smart Sensor - EC5 (S-SMC-M005)	2019-05-17T13:00:01	0.00	16.177	30.800	0.5951	-1.0
147	AB07CD0350	WETLAND SAL01	SALINE (FEN)	56.573903999999998859493643976747989654541015625	-111.277773999999993748133420012891292572021484375	HOBO Rain Gauge Data Logger - RG3	HOBO Temperature/RH Smart Sensor (S-THB-M002)	Soil Moisture Smart Sensor - EC5 (S-SMC-M005)	2019-05-17T14:00:01	0.00	16.606	29.100	0.5951	-1.4
148	AB07CD0350	WETLAND SAL01	SALINE (FEN)	56.573903999999998859493643976747989654541015625	-111.277773999999993748133420012891292572021484375	HOBO Rain Gauge Data Logger - RG3	HOBO Temperature/RH Smart Sensor (S-THB-M002)	Soil Moisture Smart Sensor - EC5 (S-SMC-M005)	2019-05-17T15:00:01	0.00	17.034	28.200	0.5951	-1.5
149	AB07CD0350	WETLAND SAL01	SALINE (FEN)	56.573903999999998859493643976747989654541015625	-111.277773999999993748133420012891292572021484375	HOBO Rain Gauge Data Logger - RG3	HOBO Temperature/RH Smart Sensor (S-THB-M002)	Soil Moisture Smart Sensor - EC5 (S-SMC-M005)	2019-05-17T16:00:01	0.00	17.368	27.300	0.5951	-1.7
150	AB07CD0350	WETLAND SAL01	SALINE (FEN)	56.573903999999998859493643976747989654541015625	-111.277773999999993748133420012891292572021484375	HOBO Rain Gauge Data Logger - RG3	HOBO Temperature/RH Smart Sensor (S-THB-M002)	Soil Moisture Smart Sensor - EC5 (S-SMC-M005)	2019-05-17T17:00:01	0.00	17.249	26.200	0.5951	-2.3
151	AB07CD0350	WETLAND SAL01	SALINE (FEN)	56.573903999999998859493643976747989654541015625	-111.277773999999993748133420012891292572021484375	HOBO Rain Gauge Data Logger - RG3	HOBO Temperature/RH Smart Sensor (S-THB-M002)	Soil Moisture Smart Sensor - EC5 (S-SMC-M005)	2019-05-17T18:00:01	0.00	17.391	25.300	0.5951	-2.7
152	AB07CD0350	WETLAND SAL01	SALINE (FEN)	56.573903999999998859493643976747989654541015625	-111.277773999999993748133420012891292572021484375	HOBO Rain Gauge Data Logger - RG3	HOBO Temperature/RH Smart Sensor (S-THB-M002)	Soil Moisture Smart Sensor - EC5 (S-SMC-M005)	2019-05-17T19:00:01	0.00	16.844	24.800	0.5951	-3.4
153	AB07CD0350	WETLAND SAL01	SALINE (FEN)	56.573903999999998859493643976747989654541015625	-111.277773999999993748133420012891292572021484375	HOBO Rain Gauge Data Logger - RG3	HOBO Temperature/RH Smart Sensor (S-THB-M002)	Soil Moisture Smart Sensor - EC5 (S-SMC-M005)	2019-05-17T20:00:01	0.00	15.772	25.800	0.5951	-3.8
154	AB07CD0350	WETLAND SAL01	SALINE (FEN)	56.573903999999998859493643976747989654541015625	-111.277773999999993748133420012891292572021484375	HOBO Rain Gauge Data Logger - RG3	HOBO Temperature/RH Smart Sensor (S-THB-M002)	Soil Moisture Smart Sensor - EC5 (S-SMC-M005)	2019-05-17T21:00:01	0.00	13.714	28.500	0.5959	-4.2
155	AB07CD0350	WETLAND SAL01	SALINE (FEN)	56.573903999999998859493643976747989654541015625	-111.277773999999993748133420012891292572021484375	HOBO Rain Gauge Data Logger - RG3	HOBO Temperature/RH Smart Sensor (S-THB-M002)	Soil Moisture Smart Sensor - EC5 (S-SMC-M005)	2019-05-17T22:00:01	0.00	11.516	31.500	0.5959	-4.8
156	AB07CD0350	WETLAND SAL01	SALINE (FEN)	56.573903999999998859493643976747989654541015625	-111.277773999999993748133420012891292572021484375	HOBO Rain Gauge Data Logger - RG3	HOBO Temperature/RH Smart Sensor (S-THB-M002)	Soil Moisture Smart Sensor - EC5 (S-SMC-M005)	2019-05-17T23:00:01	0.00	10.296	34.500	0.5959	-4.7
157	AB07CD0350	WETLAND SAL01	SALINE (FEN)	56.573903999999998859493643976747989654541015625	-111.277773999999993748133420012891292572021484375	HOBO Rain Gauge Data Logger - RG3	HOBO Temperature/RH Smart Sensor (S-THB-M002)	Soil Moisture Smart Sensor - EC5 (S-SMC-M005)	2019-05-18T00:00:01	0.00	9.213	34.100	0.5959	-5.8
158	AB07CD0350	WETLAND SAL01	SALINE (FEN)	56.573903999999998859493643976747989654541015625	-111.277773999999993748133420012891292572021484375	HOBO Rain Gauge Data Logger - RG3	HOBO Temperature/RH Smart Sensor (S-THB-M002)	Soil Moisture Smart Sensor - EC5 (S-SMC-M005)	2019-05-18T01:00:01	0.00	9.089	35.900	0.5959	-5.2
159	AB07CD0350	WETLAND SAL01	SALINE (FEN)	56.573903999999998859493643976747989654541015625	-111.277773999999993748133420012891292572021484375	HOBO Rain Gauge Data Logger - RG3	HOBO Temperature/RH Smart Sensor (S-THB-M002)	Soil Moisture Smart Sensor - EC5 (S-SMC-M005)	2019-05-18T02:00:01	0.00	8.717	38.800	0.5959	-4.5
160	AB07CD0350	WETLAND SAL01	SALINE (FEN)	56.573903999999998859493643976747989654541015625	-111.277773999999993748133420012891292572021484375	HOBO Rain Gauge Data Logger - RG3	HOBO Temperature/RH Smart Sensor (S-THB-M002)	Soil Moisture Smart Sensor - EC5 (S-SMC-M005)	2019-05-18T03:00:01	0.00	7.770	41.100	0.5966	-4.6
161	AB07CD0350	WETLAND SAL01	SALINE (FEN)	56.573903999999998859493643976747989654541015625	-111.277773999999993748133420012891292572021484375	HOBO Rain Gauge Data Logger - RG3	HOBO Temperature/RH Smart Sensor (S-THB-M002)	Soil Moisture Smart Sensor - EC5 (S-SMC-M005)	2019-05-18T04:00:01	0.00	6.230	42.300	0.5966	-5.6
162	AB07CD0350	WETLAND SAL01	SALINE (FEN)	56.573903999999998859493643976747989654541015625	-111.277773999999993748133420012891292572021484375	HOBO Rain Gauge Data Logger - RG3	HOBO Temperature/RH Smart Sensor (S-THB-M002)	Soil Moisture Smart Sensor - EC5 (S-SMC-M005)	2019-05-18T05:00:01	0.00	5.179	45.600	0.5966	-5.6
163	AB07CD0350	WETLAND SAL01	SALINE (FEN)	56.573903999999998859493643976747989654541015625	-111.277773999999993748133420012891292572021484375	HOBO Rain Gauge Data Logger - RG3	HOBO Temperature/RH Smart Sensor (S-THB-M002)	Soil Moisture Smart Sensor - EC5 (S-SMC-M005)	2019-05-18T06:00:01	0.00	5.565	48.100	0.5966	-4.5
164	AB07CD0350	WETLAND SAL01	SALINE (FEN)	56.573903999999998859493643976747989654541015625	-111.277773999999993748133420012891292572021484375	HOBO Rain Gauge Data Logger - RG3	HOBO Temperature/RH Smart Sensor (S-THB-M002)	Soil Moisture Smart Sensor - EC5 (S-SMC-M005)	2019-05-18T07:00:01	0.00	8.145	45.600	0.5966	-2.9
165	AB07CD0350	WETLAND SAL01	SALINE (FEN)	56.573903999999998859493643976747989654541015625	-111.277773999999993748133420012891292572021484375	HOBO Rain Gauge Data Logger - RG3	HOBO Temperature/RH Smart Sensor (S-THB-M002)	Soil Moisture Smart Sensor - EC5 (S-SMC-M005)	2019-05-18T08:00:01	0.00	10.173	42.100	0.5966	-2.1
166	AB07CD0350	WETLAND SAL01	SALINE (FEN)	56.573903999999998859493643976747989654541015625	-111.277773999999993748133420012891292572021484375	HOBO Rain Gauge Data Logger - RG3	HOBO Temperature/RH Smart Sensor (S-THB-M002)	Soil Moisture Smart Sensor - EC5 (S-SMC-M005)	2019-05-18T09:00:01	0.00	12.944	38.600	0.5966	-0.8
167	AB07CD0350	WETLAND SAL01	SALINE (FEN)	56.573903999999998859493643976747989654541015625	-111.277773999999993748133420012891292572021484375	HOBO Rain Gauge Data Logger - RG3	HOBO Temperature/RH Smart Sensor (S-THB-M002)	Soil Moisture Smart Sensor - EC5 (S-SMC-M005)	2019-05-18T10:00:01	0.00	15.629	33.800	0.5966	-0.2
168	AB07CD0350	WETLAND SAL01	SALINE (FEN)	56.573903999999998859493643976747989654541015625	-111.277773999999993748133420012891292572021484375	HOBO Rain Gauge Data Logger - RG3	HOBO Temperature/RH Smart Sensor (S-THB-M002)	Soil Moisture Smart Sensor - EC5 (S-SMC-M005)	2019-05-18T11:00:01	0.00	17.439	30.400	0.5966	-0.1
169	AB07CD0350	WETLAND SAL01	SALINE (FEN)	56.573903999999998859493643976747989654541015625	-111.277773999999993748133420012891292572021484375	HOBO Rain Gauge Data Logger - RG3	HOBO Temperature/RH Smart Sensor (S-THB-M002)	Soil Moisture Smart Sensor - EC5 (S-SMC-M005)	2019-05-18T12:00:01	0.00	17.677	27.500	0.5966	-1.3
170	AB07CD0350	WETLAND SAL01	SALINE (FEN)	56.573903999999998859493643976747989654541015625	-111.277773999999993748133420012891292572021484375	HOBO Rain Gauge Data Logger - RG3	HOBO Temperature/RH Smart Sensor (S-THB-M002)	Soil Moisture Smart Sensor - EC5 (S-SMC-M005)	2019-05-18T13:00:01	0.00	18.033	26.800	0.5966	-1.3
171	AB07CD0350	WETLAND SAL01	SALINE (FEN)	56.573903999999998859493643976747989654541015625	-111.277773999999993748133420012891292572021484375	HOBO Rain Gauge Data Logger - RG3	HOBO Temperature/RH Smart Sensor (S-THB-M002)	Soil Moisture Smart Sensor - EC5 (S-SMC-M005)	2019-05-18T14:00:01	0.00	19.080	26.500	0.5966	-0.6
172	AB07CD0350	WETLAND SAL01	SALINE (FEN)	56.573903999999998859493643976747989654541015625	-111.277773999999993748133420012891292572021484375	HOBO Rain Gauge Data Logger - RG3	HOBO Temperature/RH Smart Sensor (S-THB-M002)	Soil Moisture Smart Sensor - EC5 (S-SMC-M005)	2019-05-18T15:00:01	0.00	20.007	24.800	0.5966	-0.7
173	AB07CD0350	WETLAND SAL01	SALINE (FEN)	56.573903999999998859493643976747989654541015625	-111.277773999999993748133420012891292572021484375	HOBO Rain Gauge Data Logger - RG3	HOBO Temperature/RH Smart Sensor (S-THB-M002)	Soil Moisture Smart Sensor - EC5 (S-SMC-M005)	2019-05-18T16:00:01	0.00	19.865	23.600	0.5966	-1.5
174	AB07CD0350	WETLAND SAL01	SALINE (FEN)	56.573903999999998859493643976747989654541015625	-111.277773999999993748133420012891292572021484375	HOBO Rain Gauge Data Logger - RG3	HOBO Temperature/RH Smart Sensor (S-THB-M002)	Soil Moisture Smart Sensor - EC5 (S-SMC-M005)	2019-05-18T17:00:01	0.00	19.627	23.700	0.5966	-1.7
175	AB07CD0350	WETLAND SAL01	SALINE (FEN)	56.573903999999998859493643976747989654541015625	-111.277773999999993748133420012891292572021484375	HOBO Rain Gauge Data Logger - RG3	HOBO Temperature/RH Smart Sensor (S-THB-M002)	Soil Moisture Smart Sensor - EC5 (S-SMC-M005)	2019-05-18T18:00:01	0.00	20.246	23.000	0.5966	-1.5
176	AB07CD0350	WETLAND SAL01	SALINE (FEN)	56.573903999999998859493643976747989654541015625	-111.277773999999993748133420012891292572021484375	HOBO Rain Gauge Data Logger - RG3	HOBO Temperature/RH Smart Sensor (S-THB-M002)	Soil Moisture Smart Sensor - EC5 (S-SMC-M005)	2019-05-18T19:00:01	0.00	19.389	24.100	0.5966	-1.6
177	AB07CD0350	WETLAND SAL01	SALINE (FEN)	56.573903999999998859493643976747989654541015625	-111.277773999999993748133420012891292572021484375	HOBO Rain Gauge Data Logger - RG3	HOBO Temperature/RH Smart Sensor (S-THB-M002)	Soil Moisture Smart Sensor - EC5 (S-SMC-M005)	2019-05-18T20:00:01	0.00	18.295	23.700	0.5966	-2.8
178	AB07CD0350	WETLAND SAL01	SALINE (FEN)	56.573903999999998859493643976747989654541015625	-111.277773999999993748133420012891292572021484375	HOBO Rain Gauge Data Logger - RG3	HOBO Temperature/RH Smart Sensor (S-THB-M002)	Soil Moisture Smart Sensor - EC5 (S-SMC-M005)	2019-05-18T21:00:01	0.00	16.296	24.300	0.5966	-4.1
179	AB07CD0350	WETLAND SAL01	SALINE (FEN)	56.573903999999998859493643976747989654541015625	-111.277773999999993748133420012891292572021484375	HOBO Rain Gauge Data Logger - RG3	HOBO Temperature/RH Smart Sensor (S-THB-M002)	Soil Moisture Smart Sensor - EC5 (S-SMC-M005)	2019-05-18T22:00:01	0.00	13.401	29.300	0.5973	-4.1
180	AB07CD0350	WETLAND SAL01	SALINE (FEN)	56.573903999999998859493643976747989654541015625	-111.277773999999993748133420012891292572021484375	HOBO Rain Gauge Data Logger - RG3	HOBO Temperature/RH Smart Sensor (S-THB-M002)	Soil Moisture Smart Sensor - EC5 (S-SMC-M005)	2019-05-18T23:00:01	0.00	12.001	32.700	0.5973	-3.9
181	AB07CD0350	WETLAND SAL01	SALINE (FEN)	56.573903999999998859493643976747989654541015625	-111.277773999999993748133420012891292572021484375	HOBO Rain Gauge Data Logger - RG3	HOBO Temperature/RH Smart Sensor (S-THB-M002)	Soil Moisture Smart Sensor - EC5 (S-SMC-M005)	2019-05-19T00:00:01	0.00	10.492	35.100	0.5973	-4.3
182	AB07CD0350	WETLAND SAL01	SALINE (FEN)	56.573903999999998859493643976747989654541015625	-111.277773999999993748133420012891292572021484375	HOBO Rain Gauge Data Logger - RG3	HOBO Temperature/RH Smart Sensor (S-THB-M002)	Soil Moisture Smart Sensor - EC5 (S-SMC-M005)	2019-05-19T01:00:01	0.00	9.410	39.900	0.5973	-3.5
183	AB07CD0350	WETLAND SAL01	SALINE (FEN)	56.573903999999998859493643976747989654541015625	-111.277773999999993748133420012891292572021484375	HOBO Rain Gauge Data Logger - RG3	HOBO Temperature/RH Smart Sensor (S-THB-M002)	Soil Moisture Smart Sensor - EC5 (S-SMC-M005)	2019-05-19T02:00:01	0.00	7.544	42.700	0.5973	-4.3
184	AB07CD0350	WETLAND SAL01	SALINE (FEN)	56.573903999999998859493643976747989654541015625	-111.277773999999993748133420012891292572021484375	HOBO Rain Gauge Data Logger - RG3	HOBO Temperature/RH Smart Sensor (S-THB-M002)	Soil Moisture Smart Sensor - EC5 (S-SMC-M005)	2019-05-19T03:00:01	0.00	7.268	44.000	0.5973	-4.2
185	AB07CD0350	WETLAND SAL01	SALINE (FEN)	56.573903999999998859493643976747989654541015625	-111.277773999999993748133420012891292572021484375	HOBO Rain Gauge Data Logger - RG3	HOBO Temperature/RH Smart Sensor (S-THB-M002)	Soil Moisture Smart Sensor - EC5 (S-SMC-M005)	2019-05-19T04:00:01	0.00	0.356	60.700	0.5981	-6.3
186	AB07CD0350	WETLAND SAL01	SALINE (FEN)	56.573903999999998859493643976747989654541015625	-111.277773999999993748133420012891292572021484375	HOBO Rain Gauge Data Logger - RG3	HOBO Temperature/RH Smart Sensor (S-THB-M002)	Soil Moisture Smart Sensor - EC5 (S-SMC-M005)	2019-05-19T05:00:01	0.00	0.135	68.000	0.5973	-5.1
187	AB07CD0350	WETLAND SAL01	SALINE (FEN)	56.573903999999998859493643976747989654541015625	-111.277773999999993748133420012891292572021484375	HOBO Rain Gauge Data Logger - RG3	HOBO Temperature/RH Smart Sensor (S-THB-M002)	Soil Moisture Smart Sensor - EC5 (S-SMC-M005)	2019-05-19T06:00:01	0.00	5.745	65.200	0.5973	-0.3
188	AB07CD0350	WETLAND SAL01	SALINE (FEN)	56.573903999999998859493643976747989654541015625	-111.277773999999993748133420012891292572021484375	HOBO Rain Gauge Data Logger - RG3	HOBO Temperature/RH Smart Sensor (S-THB-M002)	Soil Moisture Smart Sensor - EC5 (S-SMC-M005)	2019-05-19T07:00:01	0.00	10.883	47.900	0.5973	0.3
189	AB07CD0350	WETLAND SAL01	SALINE (FEN)	56.573903999999998859493643976747989654541015625	-111.277773999999993748133420012891292572021484375	HOBO Rain Gauge Data Logger - RG3	HOBO Temperature/RH Smart Sensor (S-THB-M002)	Soil Moisture Smart Sensor - EC5 (S-SMC-M005)	2019-05-19T08:00:01	0.00	13.161	36.900	0.5981	-1.2
190	AB07CD0350	WETLAND SAL01	SALINE (FEN)	56.573903999999998859493643976747989654541015625	-111.277773999999993748133420012891292572021484375	HOBO Rain Gauge Data Logger - RG3	HOBO Temperature/RH Smart Sensor (S-THB-M002)	Soil Moisture Smart Sensor - EC5 (S-SMC-M005)	2019-05-19T09:00:01	0.00	15.151	32.000	0.5981	-1.4
191	AB07CD0350	WETLAND SAL01	SALINE (FEN)	56.573903999999998859493643976747989654541015625	-111.277773999999993748133420012891292572021484375	HOBO Rain Gauge Data Logger - RG3	HOBO Temperature/RH Smart Sensor (S-THB-M002)	Soil Moisture Smart Sensor - EC5 (S-SMC-M005)	2019-05-19T10:00:01	0.00	15.963	27.500	0.5973	-2.8
192	AB07CD0350	WETLAND SAL01	SALINE (FEN)	56.573903999999998859493643976747989654541015625	-111.277773999999993748133420012891292572021484375	HOBO Rain Gauge Data Logger - RG3	HOBO Temperature/RH Smart Sensor (S-THB-M002)	Soil Moisture Smart Sensor - EC5 (S-SMC-M005)	2019-05-19T11:00:01	0.00	17.272	24.700	0.5981	-3.1
193	AB07CD0350	WETLAND SAL01	SALINE (FEN)	56.573903999999998859493643976747989654541015625	-111.277773999999993748133420012891292572021484375	HOBO Rain Gauge Data Logger - RG3	HOBO Temperature/RH Smart Sensor (S-THB-M002)	Soil Moisture Smart Sensor - EC5 (S-SMC-M005)	2019-05-19T12:00:01	0.00	17.415	23.800	0.5981	-3.5
194	AB07CD0350	WETLAND SAL01	SALINE (FEN)	56.573903999999998859493643976747989654541015625	-111.277773999999993748133420012891292572021484375	HOBO Rain Gauge Data Logger - RG3	HOBO Temperature/RH Smart Sensor (S-THB-M002)	Soil Moisture Smart Sensor - EC5 (S-SMC-M005)	2019-05-19T13:00:01	0.00	18.485	24.600	0.5973	-2.1
195	AB07CD0350	WETLAND SAL01	SALINE (FEN)	56.573903999999998859493643976747989654541015625	-111.277773999999993748133420012891292572021484375	HOBO Rain Gauge Data Logger - RG3	HOBO Temperature/RH Smart Sensor (S-THB-M002)	Soil Moisture Smart Sensor - EC5 (S-SMC-M005)	2019-05-19T14:00:01	0.00	18.747	23.700	0.5973	-2.4
196	AB07CD0350	WETLAND SAL01	SALINE (FEN)	56.573903999999998859493643976747989654541015625	-111.277773999999993748133420012891292572021484375	HOBO Rain Gauge Data Logger - RG3	HOBO Temperature/RH Smart Sensor (S-THB-M002)	Soil Moisture Smart Sensor - EC5 (S-SMC-M005)	2019-05-19T15:00:01	0.00	19.841	23.000	0.5973	-1.9
197	AB07CD0350	WETLAND SAL01	SALINE (FEN)	56.573903999999998859493643976747989654541015625	-111.277773999999993748133420012891292572021484375	HOBO Rain Gauge Data Logger - RG3	HOBO Temperature/RH Smart Sensor (S-THB-M002)	Soil Moisture Smart Sensor - EC5 (S-SMC-M005)	2019-05-19T16:00:01	0.00	20.150	22.300	0.5973	-2.0
198	AB07CD0350	WETLAND SAL01	SALINE (FEN)	56.573903999999998859493643976747989654541015625	-111.277773999999993748133420012891292572021484375	HOBO Rain Gauge Data Logger - RG3	HOBO Temperature/RH Smart Sensor (S-THB-M002)	Soil Moisture Smart Sensor - EC5 (S-SMC-M005)	2019-05-19T17:00:01	0.00	20.365	21.400	0.5973	-2.4
199	AB07CD0350	WETLAND SAL01	SALINE (FEN)	56.573903999999998859493643976747989654541015625	-111.277773999999993748133420012891292572021484375	HOBO Rain Gauge Data Logger - RG3	HOBO Temperature/RH Smart Sensor (S-THB-M002)	Soil Moisture Smart Sensor - EC5 (S-SMC-M005)	2019-05-19T18:00:01	0.00	20.317	20.800	0.5973	-2.8
200	AB07CD0350	WETLAND SAL01	SALINE (FEN)	56.573903999999998859493643976747989654541015625	-111.277773999999993748133420012891292572021484375	HOBO Rain Gauge Data Logger - RG3	HOBO Temperature/RH Smart Sensor (S-THB-M002)	Soil Moisture Smart Sensor - EC5 (S-SMC-M005)	2019-05-19T19:00:01	0.00	20.246	20.200	0.5981	-3.3
201	AB07CD0350	WETLAND SAL01	SALINE (FEN)	56.573903999999998859493643976747989654541015625	-111.277773999999993748133420012891292572021484375	HOBO Rain Gauge Data Logger - RG3	HOBO Temperature/RH Smart Sensor (S-THB-M002)	Soil Moisture Smart Sensor - EC5 (S-SMC-M005)	2019-05-19T20:00:01	0.00	19.127	20.700	0.5981	-3.9
202	AB07CD0350	WETLAND SAL01	SALINE (FEN)	56.573903999999998859493643976747989654541015625	-111.277773999999993748133420012891292572021484375	HOBO Rain Gauge Data Logger - RG3	HOBO Temperature/RH Smart Sensor (S-THB-M002)	Soil Moisture Smart Sensor - EC5 (S-SMC-M005)	2019-05-19T21:00:01	0.00	16.344	21.600	0.5981	-5.6
203	AB07CD0350	WETLAND SAL01	SALINE (FEN)	56.573903999999998859493643976747989654541015625	-111.277773999999993748133420012891292572021484375	HOBO Rain Gauge Data Logger - RG3	HOBO Temperature/RH Smart Sensor (S-THB-M002)	Soil Moisture Smart Sensor - EC5 (S-SMC-M005)	2019-05-19T22:00:01	0.00	12.340	30.500	0.5981	-4.5
204	AB07CD0350	WETLAND SAL01	SALINE (FEN)	56.573903999999998859493643976747989654541015625	-111.277773999999993748133420012891292572021484375	HOBO Rain Gauge Data Logger - RG3	HOBO Temperature/RH Smart Sensor (S-THB-M002)	Soil Moisture Smart Sensor - EC5 (S-SMC-M005)	2019-05-19T23:00:01	0.00	11.370	33.300	0.5981	-4.2
205	AB07CD0350	WETLAND SAL01	SALINE (FEN)	56.573903999999998859493643976747989654541015625	-111.277773999999993748133420012891292572021484375	HOBO Rain Gauge Data Logger - RG3	HOBO Temperature/RH Smart Sensor (S-THB-M002)	Soil Moisture Smart Sensor - EC5 (S-SMC-M005)	2019-05-20T00:00:01	0.00	10.271	36.300	0.5981	-4.0
206	AB07CD0350	WETLAND SAL01	SALINE (FEN)	56.573903999999998859493643976747989654541015625	-111.277773999999993748133420012891292572021484375	HOBO Rain Gauge Data Logger - RG3	HOBO Temperature/RH Smart Sensor (S-THB-M002)	Soil Moisture Smart Sensor - EC5 (S-SMC-M005)	2019-05-20T01:00:01	0.00	8.170	42.300	0.5981	-3.9
207	AB07CD0350	WETLAND SAL01	SALINE (FEN)	56.573903999999998859493643976747989654541015625	-111.277773999999993748133420012891292572021484375	HOBO Rain Gauge Data Logger - RG3	HOBO Temperature/RH Smart Sensor (S-THB-M002)	Soil Moisture Smart Sensor - EC5 (S-SMC-M005)	2019-05-20T02:00:01	0.00	8.369	42.800	0.5981	-3.5
208	AB07CD0350	WETLAND SAL01	SALINE (FEN)	56.573903999999998859493643976747989654541015625	-111.277773999999993748133420012891292572021484375	HOBO Rain Gauge Data Logger - RG3	HOBO Temperature/RH Smart Sensor (S-THB-M002)	Soil Moisture Smart Sensor - EC5 (S-SMC-M005)	2019-05-20T03:00:01	0.00	1.913	44.600	0.5981	-8.9
209	AB07CD0350	WETLAND SAL01	SALINE (FEN)	56.573903999999998859493643976747989654541015625	-111.277773999999993748133420012891292572021484375	HOBO Rain Gauge Data Logger - RG3	HOBO Temperature/RH Smart Sensor (S-THB-M002)	Soil Moisture Smart Sensor - EC5 (S-SMC-M005)	2019-05-20T04:00:01	0.00	6.864	57.500	0.5988	-0.9
210	AB07CD0350	WETLAND SAL01	SALINE (FEN)	56.573903999999998859493643976747989654541015625	-111.277773999999993748133420012891292572021484375	HOBO Rain Gauge Data Logger - RG3	HOBO Temperature/RH Smart Sensor (S-THB-M002)	Soil Moisture Smart Sensor - EC5 (S-SMC-M005)	2019-05-20T05:00:01	0.00	5.179	50.700	0.5988	-4.2
211	AB07CD0350	WETLAND SAL01	SALINE (FEN)	56.573903999999998859493643976747989654541015625	-111.277773999999993748133420012891292572021484375	HOBO Rain Gauge Data Logger - RG3	HOBO Temperature/RH Smart Sensor (S-THB-M002)	Soil Moisture Smart Sensor - EC5 (S-SMC-M005)	2019-05-20T06:00:01	0.00	8.841	52.100	0.5981	-0.4
212	AB07CD0350	WETLAND SAL01	SALINE (FEN)	56.573903999999998859493643976747989654541015625	-111.277773999999993748133420012891292572021484375	HOBO Rain Gauge Data Logger - RG3	HOBO Temperature/RH Smart Sensor (S-THB-M002)	Soil Moisture Smart Sensor - EC5 (S-SMC-M005)	2019-05-20T07:00:01	0.00	13.233	39.500	0.5981	-0.2
213	AB07CD0350	WETLAND SAL01	SALINE (FEN)	56.573903999999998859493643976747989654541015625	-111.277773999999993748133420012891292572021484375	HOBO Rain Gauge Data Logger - RG3	HOBO Temperature/RH Smart Sensor (S-THB-M002)	Soil Moisture Smart Sensor - EC5 (S-SMC-M005)	2019-05-20T08:00:01	0.00	15.676	31.700	0.5981	-1.1
214	AB07CD0350	WETLAND SAL01	SALINE (FEN)	56.573903999999998859493643976747989654541015625	-111.277773999999993748133420012891292572021484375	HOBO Rain Gauge Data Logger - RG3	HOBO Temperature/RH Smart Sensor (S-THB-M002)	Soil Moisture Smart Sensor - EC5 (S-SMC-M005)	2019-05-20T09:00:01	0.00	17.225	27.900	0.5988	-1.5
215	AB07CD0350	WETLAND SAL01	SALINE (FEN)	56.573903999999998859493643976747989654541015625	-111.277773999999993748133420012891292572021484375	HOBO Rain Gauge Data Logger - RG3	HOBO Temperature/RH Smart Sensor (S-THB-M002)	Soil Moisture Smart Sensor - EC5 (S-SMC-M005)	2019-05-20T10:00:01	0.00	18.224	26.200	0.5988	-1.5
216	AB07CD0350	WETLAND SAL01	SALINE (FEN)	56.573903999999998859493643976747989654541015625	-111.277773999999993748133420012891292572021484375	HOBO Rain Gauge Data Logger - RG3	HOBO Temperature/RH Smart Sensor (S-THB-M002)	Soil Moisture Smart Sensor - EC5 (S-SMC-M005)	2019-05-20T11:00:01	0.00	18.509	25.800	0.5981	-1.4
217	AB07CD0350	WETLAND SAL01	SALINE (FEN)	56.573903999999998859493643976747989654541015625	-111.277773999999993748133420012891292572021484375	HOBO Rain Gauge Data Logger - RG3	HOBO Temperature/RH Smart Sensor (S-THB-M002)	Soil Moisture Smart Sensor - EC5 (S-SMC-M005)	2019-05-20T12:00:01	0.00	19.365	25.400	0.5988	-0.9
218	AB07CD0350	WETLAND SAL01	SALINE (FEN)	56.573903999999998859493643976747989654541015625	-111.277773999999993748133420012891292572021484375	HOBO Rain Gauge Data Logger - RG3	HOBO Temperature/RH Smart Sensor (S-THB-M002)	Soil Moisture Smart Sensor - EC5 (S-SMC-M005)	2019-05-20T13:00:01	0.00	19.532	26.400	0.5988	-0.3
219	AB07CD0350	WETLAND SAL01	SALINE (FEN)	56.573903999999998859493643976747989654541015625	-111.277773999999993748133420012891292572021484375	HOBO Rain Gauge Data Logger - RG3	HOBO Temperature/RH Smart Sensor (S-THB-M002)	Soil Moisture Smart Sensor - EC5 (S-SMC-M005)	2019-05-20T14:00:01	0.00	20.579	24.600	0.5988	-0.3
220	AB07CD0350	WETLAND SAL01	SALINE (FEN)	56.573903999999998859493643976747989654541015625	-111.277773999999993748133420012891292572021484375	HOBO Rain Gauge Data Logger - RG3	HOBO Temperature/RH Smart Sensor (S-THB-M002)	Soil Moisture Smart Sensor - EC5 (S-SMC-M005)	2019-05-20T15:00:01	0.00	21.366	23.500	0.5988	-0.3
221	AB07CD0350	WETLAND SAL01	SALINE (FEN)	56.573903999999998859493643976747989654541015625	-111.277773999999993748133420012891292572021484375	HOBO Rain Gauge Data Logger - RG3	HOBO Temperature/RH Smart Sensor (S-THB-M002)	Soil Moisture Smart Sensor - EC5 (S-SMC-M005)	2019-05-20T16:00:01	0.00	21.819	22.700	0.5988	-0.4
222	AB07CD0350	WETLAND SAL01	SALINE (FEN)	56.573903999999998859493643976747989654541015625	-111.277773999999993748133420012891292572021484375	HOBO Rain Gauge Data Logger - RG3	HOBO Temperature/RH Smart Sensor (S-THB-M002)	Soil Moisture Smart Sensor - EC5 (S-SMC-M005)	2019-05-20T17:00:01	0.00	22.345	21.400	0.5988	-0.8
223	AB07CD0350	WETLAND SAL01	SALINE (FEN)	56.573903999999998859493643976747989654541015625	-111.277773999999993748133420012891292572021484375	HOBO Rain Gauge Data Logger - RG3	HOBO Temperature/RH Smart Sensor (S-THB-M002)	Soil Moisture Smart Sensor - EC5 (S-SMC-M005)	2019-05-20T18:00:01	0.00	22.824	20.400	0.5988	-1.0
224	AB07CD0350	WETLAND SAL01	SALINE (FEN)	56.573903999999998859493643976747989654541015625	-111.277773999999993748133420012891292572021484375	HOBO Rain Gauge Data Logger - RG3	HOBO Temperature/RH Smart Sensor (S-THB-M002)	Soil Moisture Smart Sensor - EC5 (S-SMC-M005)	2019-05-20T19:00:01	0.00	21.772	19.900	0.5988	-2.2
225	AB07CD0350	WETLAND SAL01	SALINE (FEN)	56.573903999999998859493643976747989654541015625	-111.277773999999993748133420012891292572021484375	HOBO Rain Gauge Data Logger - RG3	HOBO Temperature/RH Smart Sensor (S-THB-M002)	Soil Moisture Smart Sensor - EC5 (S-SMC-M005)	2019-05-20T20:00:01	0.00	20.674	20.200	0.5988	-2.9
226	AB07CD0350	WETLAND SAL01	SALINE (FEN)	56.573903999999998859493643976747989654541015625	-111.277773999999993748133420012891292572021484375	HOBO Rain Gauge Data Logger - RG3	HOBO Temperature/RH Smart Sensor (S-THB-M002)	Soil Moisture Smart Sensor - EC5 (S-SMC-M005)	2019-05-20T21:00:01	0.00	18.295	23.300	0.5988	-3.0
227	AB07CD0350	WETLAND SAL01	SALINE (FEN)	56.573903999999998859493643976747989654541015625	-111.277773999999993748133420012891292572021484375	HOBO Rain Gauge Data Logger - RG3	HOBO Temperature/RH Smart Sensor (S-THB-M002)	Soil Moisture Smart Sensor - EC5 (S-SMC-M005)	2019-05-20T22:00:01	0.00	14.601	30.500	0.5988	-2.5
228	AB07CD0350	WETLAND SAL01	SALINE (FEN)	56.573903999999998859493643976747989654541015625	-111.277773999999993748133420012891292572021484375	HOBO Rain Gauge Data Logger - RG3	HOBO Temperature/RH Smart Sensor (S-THB-M002)	Soil Moisture Smart Sensor - EC5 (S-SMC-M005)	2019-05-20T23:00:01	0.00	12.413	35.300	0.5995	-2.5
229	AB07CD0350	WETLAND SAL01	SALINE (FEN)	56.573903999999998859493643976747989654541015625	-111.277773999999993748133420012891292572021484375	HOBO Rain Gauge Data Logger - RG3	HOBO Temperature/RH Smart Sensor (S-THB-M002)	Soil Moisture Smart Sensor - EC5 (S-SMC-M005)	2019-05-21T00:00:01	0.00	10.883	37.000	0.5995	-3.2
230	AB07CD0350	WETLAND SAL01	SALINE (FEN)	56.573903999999998859493643976747989654541015625	-111.277773999999993748133420012891292572021484375	HOBO Rain Gauge Data Logger - RG3	HOBO Temperature/RH Smart Sensor (S-THB-M002)	Soil Moisture Smart Sensor - EC5 (S-SMC-M005)	2019-05-21T01:00:01	0.00	9.977	39.100	0.5995	-3.3
231	AB07CD0350	WETLAND SAL01	SALINE (FEN)	56.573903999999998859493643976747989654541015625	-111.277773999999993748133420012891292572021484375	HOBO Rain Gauge Data Logger - RG3	HOBO Temperature/RH Smart Sensor (S-THB-M002)	Soil Moisture Smart Sensor - EC5 (S-SMC-M005)	2019-05-21T02:00:01	0.00	3.485	52.200	0.5995	-5.4
232	AB07CD0350	WETLAND SAL01	SALINE (FEN)	56.573903999999998859493643976747989654541015625	-111.277773999999993748133420012891292572021484375	HOBO Rain Gauge Data Logger - RG3	HOBO Temperature/RH Smart Sensor (S-THB-M002)	Soil Moisture Smart Sensor - EC5 (S-SMC-M005)	2019-05-21T03:00:01	0.00	1.886	70.800	0.5995	-2.8
233	AB07CD0350	WETLAND SAL01	SALINE (FEN)	56.573903999999998859493643976747989654541015625	-111.277773999999993748133420012891292572021484375	HOBO Rain Gauge Data Logger - RG3	HOBO Temperature/RH Smart Sensor (S-THB-M002)	Soil Moisture Smart Sensor - EC5 (S-SMC-M005)	2019-05-21T04:00:01	0.00	-0.032	74.800	0.5995	-4.0
234	AB07CD0350	WETLAND SAL01	SALINE (FEN)	56.573903999999998859493643976747989654541015625	-111.277773999999993748133420012891292572021484375	HOBO Rain Gauge Data Logger - RG3	HOBO Temperature/RH Smart Sensor (S-THB-M002)	Soil Moisture Smart Sensor - EC5 (S-SMC-M005)	2019-05-21T05:00:01	0.00	-0.311	77.500	0.5995	-3.8
235	AB07CD0350	WETLAND SAL01	SALINE (FEN)	56.573903999999998859493643976747989654541015625	-111.277773999999993748133420012891292572021484375	HOBO Rain Gauge Data Logger - RG3	HOBO Temperature/RH Smart Sensor (S-THB-M002)	Soil Moisture Smart Sensor - EC5 (S-SMC-M005)	2019-05-21T06:00:01	0.00	1.940	81.600	0.5995	-0.9
236	AB07CD0350	WETLAND SAL01	SALINE (FEN)	56.573903999999998859493643976747989654541015625	-111.277773999999993748133420012891292572021484375	HOBO Rain Gauge Data Logger - RG3	HOBO Temperature/RH Smart Sensor (S-THB-M002)	Soil Moisture Smart Sensor - EC5 (S-SMC-M005)	2019-05-21T07:00:01	0.00	9.805	69.300	0.5995	4.5
237	AB07CD0350	WETLAND SAL01	SALINE (FEN)	56.573903999999998859493643976747989654541015625	-111.277773999999993748133420012891292572021484375	HOBO Rain Gauge Data Logger - RG3	HOBO Temperature/RH Smart Sensor (S-THB-M002)	Soil Moisture Smart Sensor - EC5 (S-SMC-M005)	2019-05-21T08:00:01	0.00	14.457	44.800	0.5995	2.6
238	AB07CD0350	WETLAND SAL01	SALINE (FEN)	56.573903999999998859493643976747989654541015625	-111.277773999999993748133420012891292572021484375	HOBO Rain Gauge Data Logger - RG3	HOBO Temperature/RH Smart Sensor (S-THB-M002)	Soil Moisture Smart Sensor - EC5 (S-SMC-M005)	2019-05-21T09:00:01	0.00	18.509	35.400	0.5995	2.9
239	AB07CD0350	WETLAND SAL01	SALINE (FEN)	56.573903999999998859493643976747989654541015625	-111.277773999999993748133420012891292572021484375	HOBO Rain Gauge Data Logger - RG3	HOBO Temperature/RH Smart Sensor (S-THB-M002)	Soil Moisture Smart Sensor - EC5 (S-SMC-M005)	2019-05-21T10:00:01	0.00	20.436	27.600	0.5995	1.1
240	AB07CD0350	WETLAND SAL01	SALINE (FEN)	56.573903999999998859493643976747989654541015625	-111.277773999999993748133420012891292572021484375	HOBO Rain Gauge Data Logger - RG3	HOBO Temperature/RH Smart Sensor (S-THB-M002)	Soil Moisture Smart Sensor - EC5 (S-SMC-M005)	2019-05-21T11:00:01	0.00	20.460	24.300	0.5995	-0.6
241	AB07CD0350	WETLAND SAL01	SALINE (FEN)	56.573903999999998859493643976747989654541015625	-111.277773999999993748133420012891292572021484375	HOBO Rain Gauge Data Logger - RG3	HOBO Temperature/RH Smart Sensor (S-THB-M002)	Soil Moisture Smart Sensor - EC5 (S-SMC-M005)	2019-05-21T12:00:01	0.00	21.676	23.400	0.5995	-0.1
242	AB07CD0350	WETLAND SAL01	SALINE (FEN)	56.573903999999998859493643976747989654541015625	-111.277773999999993748133420012891292572021484375	HOBO Rain Gauge Data Logger - RG3	HOBO Temperature/RH Smart Sensor (S-THB-M002)	Soil Moisture Smart Sensor - EC5 (S-SMC-M005)	2019-05-21T13:00:01	0.00	21.342	22.200	0.5995	-1.1
243	AB07CD0350	WETLAND SAL01	SALINE (FEN)	56.573903999999998859493643976747989654541015625	-111.277773999999993748133420012891292572021484375	HOBO Rain Gauge Data Logger - RG3	HOBO Temperature/RH Smart Sensor (S-THB-M002)	Soil Moisture Smart Sensor - EC5 (S-SMC-M005)	2019-05-21T14:00:01	0.00	22.465	21.500	0.6002	-0.6
244	AB07CD0350	WETLAND SAL01	SALINE (FEN)	56.573903999999998859493643976747989654541015625	-111.277773999999993748133420012891292572021484375	HOBO Rain Gauge Data Logger - RG3	HOBO Temperature/RH Smart Sensor (S-THB-M002)	Soil Moisture Smart Sensor - EC5 (S-SMC-M005)	2019-05-21T15:00:01	0.00	22.848	21.800	0.5995	-0.1
245	AB07CD0350	WETLAND SAL01	SALINE (FEN)	56.573903999999998859493643976747989654541015625	-111.277773999999993748133420012891292572021484375	HOBO Rain Gauge Data Logger - RG3	HOBO Temperature/RH Smart Sensor (S-THB-M002)	Soil Moisture Smart Sensor - EC5 (S-SMC-M005)	2019-05-21T16:00:01	0.00	23.016	21.200	0.5995	-0.3
246	AB07CD0350	WETLAND SAL01	SALINE (FEN)	56.573903999999998859493643976747989654541015625	-111.277773999999993748133420012891292572021484375	HOBO Rain Gauge Data Logger - RG3	HOBO Temperature/RH Smart Sensor (S-THB-M002)	Soil Moisture Smart Sensor - EC5 (S-SMC-M005)	2019-05-21T17:00:01	0.00	23.352	19.500	0.5995	-1.2
247	AB07CD0350	WETLAND SAL01	SALINE (FEN)	56.573903999999998859493643976747989654541015625	-111.277773999999993748133420012891292572021484375	HOBO Rain Gauge Data Logger - RG3	HOBO Temperature/RH Smart Sensor (S-THB-M002)	Soil Moisture Smart Sensor - EC5 (S-SMC-M005)	2019-05-21T18:00:01	0.00	23.857	18.700	0.6002	-1.4
248	AB07CD0350	WETLAND SAL01	SALINE (FEN)	56.573903999999998859493643976747989654541015625	-111.277773999999993748133420012891292572021484375	HOBO Rain Gauge Data Logger - RG3	HOBO Temperature/RH Smart Sensor (S-THB-M002)	Soil Moisture Smart Sensor - EC5 (S-SMC-M005)	2019-05-21T19:00:01	0.00	22.944	19.500	0.5995	-1.5
249	AB07CD0350	WETLAND SAL01	SALINE (FEN)	56.573903999999998859493643976747989654541015625	-111.277773999999993748133420012891292572021484375	HOBO Rain Gauge Data Logger - RG3	HOBO Temperature/RH Smart Sensor (S-THB-M002)	Soil Moisture Smart Sensor - EC5 (S-SMC-M005)	2019-05-21T20:00:01	0.00	21.843	20.700	0.6002	-1.6
250	AB07CD0350	WETLAND SAL01	SALINE (FEN)	56.573903999999998859493643976747989654541015625	-111.277773999999993748133420012891292572021484375	HOBO Rain Gauge Data Logger - RG3	HOBO Temperature/RH Smart Sensor (S-THB-M002)	Soil Moisture Smart Sensor - EC5 (S-SMC-M005)	2019-05-21T21:00:01	0.00	19.318	22.500	0.6002	-2.6
251	AB07CD0350	WETLAND SAL01	SALINE (FEN)	56.573903999999998859493643976747989654541015625	-111.277773999999993748133420012891292572021484375	HOBO Rain Gauge Data Logger - RG3	HOBO Temperature/RH Smart Sensor (S-THB-M002)	Soil Moisture Smart Sensor - EC5 (S-SMC-M005)	2019-05-21T22:00:01	0.00	11.565	42.600	0.6002	-0.7
252	AB07CD0350	WETLAND SAL01	SALINE (FEN)	56.573903999999998859493643976747989654541015625	-111.277773999999993748133420012891292572021484375	HOBO Rain Gauge Data Logger - RG3	HOBO Temperature/RH Smart Sensor (S-THB-M002)	Soil Moisture Smart Sensor - EC5 (S-SMC-M005)	2019-05-21T23:00:01	0.00	7.444	58.000	0.6002	-0.3
253	AB07CD0350	WETLAND SAL01	SALINE (FEN)	56.573903999999998859493643976747989654541015625	-111.277773999999993748133420012891292572021484375	HOBO Rain Gauge Data Logger - RG3	HOBO Temperature/RH Smart Sensor (S-THB-M002)	Soil Moisture Smart Sensor - EC5 (S-SMC-M005)	2019-05-22T00:00:01	0.00	5.024	66.200	0.6002	-0.8
254	AB07CD0350	WETLAND SAL01	SALINE (FEN)	56.573903999999998859493643976747989654541015625	-111.277773999999993748133420012891292572021484375	HOBO Rain Gauge Data Logger - RG3	HOBO Temperature/RH Smart Sensor (S-THB-M002)	Soil Moisture Smart Sensor - EC5 (S-SMC-M005)	2019-05-22T01:00:01	0.00	4.194	72.600	0.6002	-0.3
255	AB07CD0350	WETLAND SAL01	SALINE (FEN)	56.573903999999998859493643976747989654541015625	-111.277773999999993748133420012891292572021484375	HOBO Rain Gauge Data Logger - RG3	HOBO Temperature/RH Smart Sensor (S-THB-M002)	Soil Moisture Smart Sensor - EC5 (S-SMC-M005)	2019-05-22T02:00:01	0.00	2.823	78.300	0.6010	-0.6
256	AB07CD0350	WETLAND SAL01	SALINE (FEN)	56.573903999999998859493643976747989654541015625	-111.277773999999993748133420012891292572021484375	HOBO Rain Gauge Data Logger - RG3	HOBO Temperature/RH Smart Sensor (S-THB-M002)	Soil Moisture Smart Sensor - EC5 (S-SMC-M005)	2019-05-22T03:00:01	0.00	2.823	82.700	0.6010	0.2
257	AB07CD0350	WETLAND SAL01	SALINE (FEN)	56.573903999999998859493643976747989654541015625	-111.277773999999993748133420012891292572021484375	HOBO Rain Gauge Data Logger - RG3	HOBO Temperature/RH Smart Sensor (S-THB-M002)	Soil Moisture Smart Sensor - EC5 (S-SMC-M005)	2019-05-22T04:00:01	0.00	1.262	81.100	0.6010	-1.6
258	AB07CD0350	WETLAND SAL01	SALINE (FEN)	56.573903999999998859493643976747989654541015625	-111.277773999999993748133420012891292572021484375	HOBO Rain Gauge Data Logger - RG3	HOBO Temperature/RH Smart Sensor (S-THB-M002)	Soil Moisture Smart Sensor - EC5 (S-SMC-M005)	2019-05-22T05:00:01	0.00	-0.255	84.600	0.6010	-2.5
259	AB07CD0350	WETLAND SAL01	SALINE (FEN)	56.573903999999998859493643976747989654541015625	-111.277773999999993748133420012891292572021484375	HOBO Rain Gauge Data Logger - RG3	HOBO Temperature/RH Smart Sensor (S-THB-M002)	Soil Moisture Smart Sensor - EC5 (S-SMC-M005)	2019-05-22T06:00:01	0.00	2.209	83.400	0.6010	-0.3
260	AB07CD0350	WETLAND SAL01	SALINE (FEN)	56.573903999999998859493643976747989654541015625	-111.277773999999993748133420012891292572021484375	HOBO Rain Gauge Data Logger - RG3	HOBO Temperature/RH Smart Sensor (S-THB-M002)	Soil Moisture Smart Sensor - EC5 (S-SMC-M005)	2019-05-22T07:00:01	0.00	10.394	71.100	0.6010	5.4
261	AB07CD0350	WETLAND SAL01	SALINE (FEN)	56.573903999999998859493643976747989654541015625	-111.277773999999993748133420012891292572021484375	HOBO Rain Gauge Data Logger - RG3	HOBO Temperature/RH Smart Sensor (S-THB-M002)	Soil Moisture Smart Sensor - EC5 (S-SMC-M005)	2019-05-22T08:00:01	0.00	15.342	48.800	0.6010	4.6
262	AB07CD0350	WETLAND SAL01	SALINE (FEN)	56.573903999999998859493643976747989654541015625	-111.277773999999993748133420012891292572021484375	HOBO Rain Gauge Data Logger - RG3	HOBO Temperature/RH Smart Sensor (S-THB-M002)	Soil Moisture Smart Sensor - EC5 (S-SMC-M005)	2019-05-22T09:00:01	0.00	18.794	35.300	0.6010	3.1
263	AB07CD0350	WETLAND SAL01	SALINE (FEN)	56.573903999999998859493643976747989654541015625	-111.277773999999993748133420012891292572021484375	HOBO Rain Gauge Data Logger - RG3	HOBO Temperature/RH Smart Sensor (S-THB-M002)	Soil Moisture Smart Sensor - EC5 (S-SMC-M005)	2019-05-22T10:00:01	0.00	21.318	29.400	0.6017	2.8
264	AB07CD0350	WETLAND SAL01	SALINE (FEN)	56.573903999999998859493643976747989654541015625	-111.277773999999993748133420012891292572021484375	HOBO Rain Gauge Data Logger - RG3	HOBO Temperature/RH Smart Sensor (S-THB-M002)	Soil Moisture Smart Sensor - EC5 (S-SMC-M005)	2019-05-22T11:00:01	0.00	22.681	26.400	0.6017	2.4
265	AB07CD0350	WETLAND SAL01	SALINE (FEN)	56.573903999999998859493643976747989654541015625	-111.277773999999993748133420012891292572021484375	HOBO Rain Gauge Data Logger - RG3	HOBO Temperature/RH Smart Sensor (S-THB-M002)	Soil Moisture Smart Sensor - EC5 (S-SMC-M005)	2019-05-22T12:00:01	0.00	23.785	21.600	0.6010	0.6
266	AB07CD0350	WETLAND SAL01	SALINE (FEN)	56.573903999999998859493643976747989654541015625	-111.277773999999993748133420012891292572021484375	HOBO Rain Gauge Data Logger - RG3	HOBO Temperature/RH Smart Sensor (S-THB-M002)	Soil Moisture Smart Sensor - EC5 (S-SMC-M005)	2019-05-22T13:00:01	0.00	25.355	19.600	0.6010	0.5
267	AB07CD0350	WETLAND SAL01	SALINE (FEN)	56.573903999999998859493643976747989654541015625	-111.277773999999993748133420012891292572021484375	HOBO Rain Gauge Data Logger - RG3	HOBO Temperature/RH Smart Sensor (S-THB-M002)	Soil Moisture Smart Sensor - EC5 (S-SMC-M005)	2019-05-22T14:00:01	0.00	22.705	21.300	0.6010	-0.5
268	AB07CD0350	WETLAND SAL01	SALINE (FEN)	56.573903999999998859493643976747989654541015625	-111.277773999999993748133420012891292572021484375	HOBO Rain Gauge Data Logger - RG3	HOBO Temperature/RH Smart Sensor (S-THB-M002)	Soil Moisture Smart Sensor - EC5 (S-SMC-M005)	2019-05-22T15:00:01	0.00	24.944	20.800	0.6010	1.0
269	AB07CD0350	WETLAND SAL01	SALINE (FEN)	56.573903999999998859493643976747989654541015625	-111.277773999999993748133420012891292572021484375	HOBO Rain Gauge Data Logger - RG3	HOBO Temperature/RH Smart Sensor (S-THB-M002)	Soil Moisture Smart Sensor - EC5 (S-SMC-M005)	2019-05-22T16:00:01	0.00	25.186	19.000	0.6010	-0.1
270	AB07CD0350	WETLAND SAL01	SALINE (FEN)	56.573903999999998859493643976747989654541015625	-111.277773999999993748133420012891292572021484375	HOBO Rain Gauge Data Logger - RG3	HOBO Temperature/RH Smart Sensor (S-THB-M002)	Soil Moisture Smart Sensor - EC5 (S-SMC-M005)	2019-05-22T17:00:01	0.00	24.484	21.200	0.6010	0.9
271	AB07CD0350	WETLAND SAL01	SALINE (FEN)	56.573903999999998859493643976747989654541015625	-111.277773999999993748133420012891292572021484375	HOBO Rain Gauge Data Logger - RG3	HOBO Temperature/RH Smart Sensor (S-THB-M002)	Soil Moisture Smart Sensor - EC5 (S-SMC-M005)	2019-05-22T18:00:01	0.00	24.581	22.300	0.6017	1.7
272	AB07CD0350	WETLAND SAL01	SALINE (FEN)	56.573903999999998859493643976747989654541015625	-111.277773999999993748133420012891292572021484375	HOBO Rain Gauge Data Logger - RG3	HOBO Temperature/RH Smart Sensor (S-THB-M002)	Soil Moisture Smart Sensor - EC5 (S-SMC-M005)	2019-05-22T19:00:01	0.00	21.963	23.200	0.6010	0.0
273	AB07CD0350	WETLAND SAL01	SALINE (FEN)	56.573903999999998859493643976747989654541015625	-111.277773999999993748133420012891292572021484375	HOBO Rain Gauge Data Logger - RG3	HOBO Temperature/RH Smart Sensor (S-THB-M002)	Soil Moisture Smart Sensor - EC5 (S-SMC-M005)	2019-05-22T20:00:01	0.00	20.889	27.600	0.6017	1.5
274	AB07CD0350	WETLAND SAL01	SALINE (FEN)	56.573903999999998859493643976747989654541015625	-111.277773999999993748133420012891292572021484375	HOBO Rain Gauge Data Logger - RG3	HOBO Temperature/RH Smart Sensor (S-THB-M002)	Soil Moisture Smart Sensor - EC5 (S-SMC-M005)	2019-05-22T21:00:01	0.00	19.484	29.900	0.6017	1.4
275	AB07CD0350	WETLAND SAL01	SALINE (FEN)	56.573903999999998859493643976747989654541015625	-111.277773999999993748133420012891292572021484375	HOBO Rain Gauge Data Logger - RG3	HOBO Temperature/RH Smart Sensor (S-THB-M002)	Soil Moisture Smart Sensor - EC5 (S-SMC-M005)	2019-05-22T22:00:01	0.00	17.938	33.200	0.6017	1.5
276	AB07CD0350	WETLAND SAL01	SALINE (FEN)	56.573903999999998859493643976747989654541015625	-111.277773999999993748133420012891292572021484375	HOBO Rain Gauge Data Logger - RG3	HOBO Temperature/RH Smart Sensor (S-THB-M002)	Soil Moisture Smart Sensor - EC5 (S-SMC-M005)	2019-05-22T23:00:01	0.00	15.748	44.700	0.6017	3.8
277	AB07CD0350	WETLAND SAL01	SALINE (FEN)	56.573903999999998859493643976747989654541015625	-111.277773999999993748133420012891292572021484375	HOBO Rain Gauge Data Logger - RG3	HOBO Temperature/RH Smart Sensor (S-THB-M002)	Soil Moisture Smart Sensor - EC5 (S-SMC-M005)	2019-05-23T00:00:01	0.00	14.457	52.300	0.6017	4.8
278	AB07CD0350	WETLAND SAL01	SALINE (FEN)	56.573903999999998859493643976747989654541015625	-111.277773999999993748133420012891292572021484375	HOBO Rain Gauge Data Logger - RG3	HOBO Temperature/RH Smart Sensor (S-THB-M002)	Soil Moisture Smart Sensor - EC5 (S-SMC-M005)	2019-05-23T01:00:01	0.00	13.305	56.600	0.6017	4.9
279	AB07CD0350	WETLAND SAL01	SALINE (FEN)	56.573903999999998859493643976747989654541015625	-111.277773999999993748133420012891292572021484375	HOBO Rain Gauge Data Logger - RG3	HOBO Temperature/RH Smart Sensor (S-THB-M002)	Soil Moisture Smart Sensor - EC5 (S-SMC-M005)	2019-05-23T02:00:01	0.00	12.147	59.000	0.6017	4.4
280	AB07CD0350	WETLAND SAL01	SALINE (FEN)	56.573903999999998859493643976747989654541015625	-111.277773999999993748133420012891292572021484375	HOBO Rain Gauge Data Logger - RG3	HOBO Temperature/RH Smart Sensor (S-THB-M002)	Soil Moisture Smart Sensor - EC5 (S-SMC-M005)	2019-05-23T03:00:01	0.00	10.492	62.200	0.6024	3.6
281	AB07CD0350	WETLAND SAL01	SALINE (FEN)	56.573903999999998859493643976747989654541015625	-111.277773999999993748133420012891292572021484375	HOBO Rain Gauge Data Logger - RG3	HOBO Temperature/RH Smart Sensor (S-THB-M002)	Soil Moisture Smart Sensor - EC5 (S-SMC-M005)	2019-05-23T04:00:01	0.00	9.608	68.200	0.6024	4.0
282	AB07CD0350	WETLAND SAL01	SALINE (FEN)	56.573903999999998859493643976747989654541015625	-111.277773999999993748133420012891292572021484375	HOBO Rain Gauge Data Logger - RG3	HOBO Temperature/RH Smart Sensor (S-THB-M002)	Soil Moisture Smart Sensor - EC5 (S-SMC-M005)	2019-05-23T05:00:01	0.00	8.444	71.700	0.6024	3.6
283	AB07CD0350	WETLAND SAL01	SALINE (FEN)	56.573903999999998859493643976747989654541015625	-111.277773999999993748133420012891292572021484375	HOBO Rain Gauge Data Logger - RG3	HOBO Temperature/RH Smart Sensor (S-THB-M002)	Soil Moisture Smart Sensor - EC5 (S-SMC-M005)	2019-05-23T06:00:01	0.00	7.870	75.900	0.6024	3.9
284	AB07CD0350	WETLAND SAL01	SALINE (FEN)	56.573903999999998859493643976747989654541015625	-111.277773999999993748133420012891292572021484375	HOBO Rain Gauge Data Logger - RG3	HOBO Temperature/RH Smart Sensor (S-THB-M002)	Soil Moisture Smart Sensor - EC5 (S-SMC-M005)	2019-05-23T07:00:01	0.00	9.682	74.000	0.6024	5.3
285	AB07CD0350	WETLAND SAL01	SALINE (FEN)	56.573903999999998859493643976747989654541015625	-111.277773999999993748133420012891292572021484375	HOBO Rain Gauge Data Logger - RG3	HOBO Temperature/RH Smart Sensor (S-THB-M002)	Soil Moisture Smart Sensor - EC5 (S-SMC-M005)	2019-05-23T08:00:01	0.00	11.102	69.000	0.6024	5.6
286	AB07CD0350	WETLAND SAL01	SALINE (FEN)	56.573903999999998859493643976747989654541015625	-111.277773999999993748133420012891292572021484375	HOBO Rain Gauge Data Logger - RG3	HOBO Temperature/RH Smart Sensor (S-THB-M002)	Soil Moisture Smart Sensor - EC5 (S-SMC-M005)	2019-05-23T09:00:01	0.00	12.751	62.400	0.6024	5.8
287	AB07CD0350	WETLAND SAL01	SALINE (FEN)	56.573903999999998859493643976747989654541015625	-111.277773999999993748133420012891292572021484375	HOBO Rain Gauge Data Logger - RG3	HOBO Temperature/RH Smart Sensor (S-THB-M002)	Soil Moisture Smart Sensor - EC5 (S-SMC-M005)	2019-05-23T10:00:01	0.00	14.170	58.000	0.6024	6.0
288	AB07CD0350	WETLAND SAL01	SALINE (FEN)	56.573903999999998859493643976747989654541015625	-111.277773999999993748133420012891292572021484375	HOBO Rain Gauge Data Logger - RG3	HOBO Temperature/RH Smart Sensor (S-THB-M002)	Soil Moisture Smart Sensor - EC5 (S-SMC-M005)	2019-05-23T11:00:01	0.00	13.666	59.200	0.6024	5.9
289	AB07CD0350	WETLAND SAL01	SALINE (FEN)	56.573903999999998859493643976747989654541015625	-111.277773999999993748133420012891292572021484375	HOBO Rain Gauge Data Logger - RG3	HOBO Temperature/RH Smart Sensor (S-THB-M002)	Soil Moisture Smart Sensor - EC5 (S-SMC-M005)	2019-05-23T12:00:01	0.00	13.377	59.300	0.6024	5.6
290	AB07CD0350	WETLAND SAL01	SALINE (FEN)	56.573903999999998859493643976747989654541015625	-111.277773999999993748133420012891292572021484375	HOBO Rain Gauge Data Logger - RG3	HOBO Temperature/RH Smart Sensor (S-THB-M002)	Soil Moisture Smart Sensor - EC5 (S-SMC-M005)	2019-05-23T13:00:01	0.00	13.858	62.100	0.6024	6.7
291	AB07CD0350	WETLAND SAL01	SALINE (FEN)	56.573903999999998859493643976747989654541015625	-111.277773999999993748133420012891292572021484375	HOBO Rain Gauge Data Logger - RG3	HOBO Temperature/RH Smart Sensor (S-THB-M002)	Soil Moisture Smart Sensor - EC5 (S-SMC-M005)	2019-05-23T14:00:01	0.00	15.724	57.500	0.6024	7.4
292	AB07CD0350	WETLAND SAL01	SALINE (FEN)	56.573903999999998859493643976747989654541015625	-111.277773999999993748133420012891292572021484375	HOBO Rain Gauge Data Logger - RG3	HOBO Temperature/RH Smart Sensor (S-THB-M002)	Soil Moisture Smart Sensor - EC5 (S-SMC-M005)	2019-05-23T15:00:01	0.00	17.843	48.000	0.6024	6.7
293	AB07CD0350	WETLAND SAL01	SALINE (FEN)	56.573903999999998859493643976747989654541015625	-111.277773999999993748133420012891292572021484375	HOBO Rain Gauge Data Logger - RG3	HOBO Temperature/RH Smart Sensor (S-THB-M002)	Soil Moisture Smart Sensor - EC5 (S-SMC-M005)	2019-05-23T16:00:01	0.00	18.771	44.100	0.6024	6.3
294	AB07CD0350	WETLAND SAL01	SALINE (FEN)	56.573903999999998859493643976747989654541015625	-111.277773999999993748133420012891292572021484375	HOBO Rain Gauge Data Logger - RG3	HOBO Temperature/RH Smart Sensor (S-THB-M002)	Soil Moisture Smart Sensor - EC5 (S-SMC-M005)	2019-05-23T17:00:01	0.00	15.772	45.600	0.6031	4.1
295	AB07CD0350	WETLAND SAL01	SALINE (FEN)	56.573903999999998859493643976747989654541015625	-111.277773999999993748133420012891292572021484375	HOBO Rain Gauge Data Logger - RG3	HOBO Temperature/RH Smart Sensor (S-THB-M002)	Soil Moisture Smart Sensor - EC5 (S-SMC-M005)	2019-05-23T18:00:01	0.00	13.834	53.300	0.6024	4.5
296	AB07CD0350	WETLAND SAL01	SALINE (FEN)	56.573903999999998859493643976747989654541015625	-111.277773999999993748133420012891292572021484375	HOBO Rain Gauge Data Logger - RG3	HOBO Temperature/RH Smart Sensor (S-THB-M002)	Soil Moisture Smart Sensor - EC5 (S-SMC-M005)	2019-05-23T19:00:01	0.00	14.745	53.000	0.6031	5.3
297	AB07CD0350	WETLAND SAL01	SALINE (FEN)	56.573903999999998859493643976747989654541015625	-111.277773999999993748133420012891292572021484375	HOBO Rain Gauge Data Logger - RG3	HOBO Temperature/RH Smart Sensor (S-THB-M002)	Soil Moisture Smart Sensor - EC5 (S-SMC-M005)	2019-05-23T20:00:01	0.00	13.978	52.900	0.6031	4.5
298	AB07CD0350	WETLAND SAL01	SALINE (FEN)	56.573903999999998859493643976747989654541015625	-111.277773999999993748133420012891292572021484375	HOBO Rain Gauge Data Logger - RG3	HOBO Temperature/RH Smart Sensor (S-THB-M002)	Soil Moisture Smart Sensor - EC5 (S-SMC-M005)	2019-05-23T21:00:01	0.00	12.606	55.800	0.6031	4.0
299	AB07CD0350	WETLAND SAL01	SALINE (FEN)	56.573903999999998859493643976747989654541015625	-111.277773999999993748133420012891292572021484375	HOBO Rain Gauge Data Logger - RG3	HOBO Temperature/RH Smart Sensor (S-THB-M002)	Soil Moisture Smart Sensor - EC5 (S-SMC-M005)	2019-05-23T22:00:01	0.00	11.273	60.200	0.6031	3.9
300	AB07CD0350	WETLAND SAL01	SALINE (FEN)	56.573903999999998859493643976747989654541015625	-111.277773999999993748133420012891292572021484375	HOBO Rain Gauge Data Logger - RG3	HOBO Temperature/RH Smart Sensor (S-THB-M002)	Soil Moisture Smart Sensor - EC5 (S-SMC-M005)	2019-05-23T23:00:01	0.00	8.866	68.400	0.6031	3.4
301	AB07CD0350	WETLAND SAL01	SALINE (FEN)	56.573903999999998859493643976747989654541015625	-111.277773999999993748133420012891292572021484375	HOBO Rain Gauge Data Logger - RG3	HOBO Temperature/RH Smart Sensor (S-THB-M002)	Soil Moisture Smart Sensor - EC5 (S-SMC-M005)	2019-05-24T00:00:01	0.00	9.780	73.000	0.6031	5.2
302	AB07CD0350	WETLAND SAL01	SALINE (FEN)	56.573903999999998859493643976747989654541015625	-111.277773999999993748133420012891292572021484375	HOBO Rain Gauge Data Logger - RG3	HOBO Temperature/RH Smart Sensor (S-THB-M002)	Soil Moisture Smart Sensor - EC5 (S-SMC-M005)	2019-05-24T01:00:01	0.00	9.977	66.900	0.6031	4.1
303	AB07CD0350	WETLAND SAL01	SALINE (FEN)	56.573903999999998859493643976747989654541015625	-111.277773999999993748133420012891292572021484375	HOBO Rain Gauge Data Logger - RG3	HOBO Temperature/RH Smart Sensor (S-THB-M002)	Soil Moisture Smart Sensor - EC5 (S-SMC-M005)	2019-05-24T02:00:01	0.00	8.319	69.800	0.6031	3.1
304	AB07CD0350	WETLAND SAL01	SALINE (FEN)	56.573903999999998859493643976747989654541015625	-111.277773999999993748133420012891292572021484375	HOBO Rain Gauge Data Logger - RG3	HOBO Temperature/RH Smart Sensor (S-THB-M002)	Soil Moisture Smart Sensor - EC5 (S-SMC-M005)	2019-05-24T03:00:01	0.00	9.040	71.400	0.6031	4.2
305	AB07CD0350	WETLAND SAL01	SALINE (FEN)	56.573903999999998859493643976747989654541015625	-111.277773999999993748133420012891292572021484375	HOBO Rain Gauge Data Logger - RG3	HOBO Temperature/RH Smart Sensor (S-THB-M002)	Soil Moisture Smart Sensor - EC5 (S-SMC-M005)	2019-05-24T04:00:01	0.00	8.070	71.900	0.6031	3.3
306	AB07CD0350	WETLAND SAL01	SALINE (FEN)	56.573903999999998859493643976747989654541015625	-111.277773999999993748133420012891292572021484375	HOBO Rain Gauge Data Logger - RG3	HOBO Temperature/RH Smart Sensor (S-THB-M002)	Soil Moisture Smart Sensor - EC5 (S-SMC-M005)	2019-05-24T05:00:01	0.00	5.642	76.400	0.6031	1.8
307	AB07CD0350	WETLAND SAL01	SALINE (FEN)	56.573903999999998859493643976747989654541015625	-111.277773999999993748133420012891292572021484375	HOBO Rain Gauge Data Logger - RG3	HOBO Temperature/RH Smart Sensor (S-THB-M002)	Soil Moisture Smart Sensor - EC5 (S-SMC-M005)	2019-05-24T06:00:01	0.00	6.230	80.800	0.6024	3.2
308	AB07CD0350	WETLAND SAL01	SALINE (FEN)	56.573903999999998859493643976747989654541015625	-111.277773999999993748133420012891292572021484375	HOBO Rain Gauge Data Logger - RG3	HOBO Temperature/RH Smart Sensor (S-THB-M002)	Soil Moisture Smart Sensor - EC5 (S-SMC-M005)	2019-05-24T07:00:01	0.00	7.995	77.800	0.6031	4.4
309	AB07CD0350	WETLAND SAL01	SALINE (FEN)	56.573903999999998859493643976747989654541015625	-111.277773999999993748133420012891292572021484375	HOBO Rain Gauge Data Logger - RG3	HOBO Temperature/RH Smart Sensor (S-THB-M002)	Soil Moisture Smart Sensor - EC5 (S-SMC-M005)	2019-05-24T08:00:01	0.00	9.928	73.200	0.6024	5.4
310	AB07CD0350	WETLAND SAL01	SALINE (FEN)	56.573903999999998859493643976747989654541015625	-111.277773999999993748133420012891292572021484375	HOBO Rain Gauge Data Logger - RG3	HOBO Temperature/RH Smart Sensor (S-THB-M002)	Soil Moisture Smart Sensor - EC5 (S-SMC-M005)	2019-05-24T09:00:01	0.00	12.122	68.300	0.6031	6.5
311	AB07CD0350	WETLAND SAL01	SALINE (FEN)	56.573903999999998859493643976747989654541015625	-111.277773999999993748133420012891292572021484375	HOBO Rain Gauge Data Logger - RG3	HOBO Temperature/RH Smart Sensor (S-THB-M002)	Soil Moisture Smart Sensor - EC5 (S-SMC-M005)	2019-05-24T10:00:01	0.00	13.930	59.900	0.6031	6.3
312	AB07CD0350	WETLAND SAL01	SALINE (FEN)	56.573903999999998859493643976747989654541015625	-111.277773999999993748133420012891292572021484375	HOBO Rain Gauge Data Logger - RG3	HOBO Temperature/RH Smart Sensor (S-THB-M002)	Soil Moisture Smart Sensor - EC5 (S-SMC-M005)	2019-05-24T11:00:01	0.00	15.867	46.900	0.6031	4.6
313	AB07CD0350	WETLAND SAL01	SALINE (FEN)	56.573903999999998859493643976747989654541015625	-111.277773999999993748133420012891292572021484375	HOBO Rain Gauge Data Logger - RG3	HOBO Temperature/RH Smart Sensor (S-THB-M002)	Soil Moisture Smart Sensor - EC5 (S-SMC-M005)	2019-05-24T12:00:01	0.00	17.439	36.000	0.6031	2.2
314	AB07CD0350	WETLAND SAL01	SALINE (FEN)	56.573903999999998859493643976747989654541015625	-111.277773999999993748133420012891292572021484375	HOBO Rain Gauge Data Logger - RG3	HOBO Temperature/RH Smart Sensor (S-THB-M002)	Soil Moisture Smart Sensor - EC5 (S-SMC-M005)	2019-05-24T13:00:01	0.00	17.772	31.700	0.6031	0.7
315	AB07CD0350	WETLAND SAL01	SALINE (FEN)	56.573903999999998859493643976747989654541015625	-111.277773999999993748133420012891292572021484375	HOBO Rain Gauge Data Logger - RG3	HOBO Temperature/RH Smart Sensor (S-THB-M002)	Soil Moisture Smart Sensor - EC5 (S-SMC-M005)	2019-05-24T14:00:01	0.00	19.008	30.700	0.6031	1.4
316	AB07CD0350	WETLAND SAL01	SALINE (FEN)	56.573903999999998859493643976747989654541015625	-111.277773999999993748133420012891292572021484375	HOBO Rain Gauge Data Logger - RG3	HOBO Temperature/RH Smart Sensor (S-THB-M002)	Soil Moisture Smart Sensor - EC5 (S-SMC-M005)	2019-05-24T15:00:01	0.00	18.390	30.200	0.6031	0.6
317	AB07CD0350	WETLAND SAL01	SALINE (FEN)	56.573903999999998859493643976747989654541015625	-111.277773999999993748133420012891292572021484375	HOBO Rain Gauge Data Logger - RG3	HOBO Temperature/RH Smart Sensor (S-THB-M002)	Soil Moisture Smart Sensor - EC5 (S-SMC-M005)	2019-05-24T16:00:01	0.00	19.436	30.000	0.6031	1.4
318	AB07CD0350	WETLAND SAL01	SALINE (FEN)	56.573903999999998859493643976747989654541015625	-111.277773999999993748133420012891292572021484375	HOBO Rain Gauge Data Logger - RG3	HOBO Temperature/RH Smart Sensor (S-THB-M002)	Soil Moisture Smart Sensor - EC5 (S-SMC-M005)	2019-05-24T17:00:01	0.00	19.555	27.100	0.6031	0.1
319	AB07CD0350	WETLAND SAL01	SALINE (FEN)	56.573903999999998859493643976747989654541015625	-111.277773999999993748133420012891292572021484375	HOBO Rain Gauge Data Logger - RG3	HOBO Temperature/RH Smart Sensor (S-THB-M002)	Soil Moisture Smart Sensor - EC5 (S-SMC-M005)	2019-05-24T18:00:01	0.00	19.746	24.500	0.6031	-1.1
320	AB07CD0350	WETLAND SAL01	SALINE (FEN)	56.573903999999998859493643976747989654541015625	-111.277773999999993748133420012891292572021484375	HOBO Rain Gauge Data Logger - RG3	HOBO Temperature/RH Smart Sensor (S-THB-M002)	Soil Moisture Smart Sensor - EC5 (S-SMC-M005)	2019-05-24T19:00:01	0.00	18.842	21.900	0.6031	-3.4
321	AB07CD0350	WETLAND SAL01	SALINE (FEN)	56.573903999999998859493643976747989654541015625	-111.277773999999993748133420012891292572021484375	HOBO Rain Gauge Data Logger - RG3	HOBO Temperature/RH Smart Sensor (S-THB-M002)	Soil Moisture Smart Sensor - EC5 (S-SMC-M005)	2019-05-24T20:00:01	0.00	17.796	21.200	0.6039	-4.7
322	AB07CD0350	WETLAND SAL01	SALINE (FEN)	56.573903999999998859493643976747989654541015625	-111.277773999999993748133420012891292572021484375	HOBO Rain Gauge Data Logger - RG3	HOBO Temperature/RH Smart Sensor (S-THB-M002)	Soil Moisture Smart Sensor - EC5 (S-SMC-M005)	2019-05-24T21:00:01	0.00	15.796	22.700	0.6031	-5.5
323	AB07CD0350	WETLAND SAL01	SALINE (FEN)	56.573903999999998859493643976747989654541015625	-111.277773999999993748133420012891292572021484375	HOBO Rain Gauge Data Logger - RG3	HOBO Temperature/RH Smart Sensor (S-THB-M002)	Soil Moisture Smart Sensor - EC5 (S-SMC-M005)	2019-05-24T22:00:01	0.00	12.896	26.000	0.6039	-6.1
324	AB07CD0350	WETLAND SAL01	SALINE (FEN)	56.573903999999998859493643976747989654541015625	-111.277773999999993748133420012891292572021484375	HOBO Rain Gauge Data Logger - RG3	HOBO Temperature/RH Smart Sensor (S-THB-M002)	Soil Moisture Smart Sensor - EC5 (S-SMC-M005)	2019-05-24T23:00:01	0.00	4.792	42.200	0.6039	-7.0
325	AB07CD0350	WETLAND SAL01	SALINE (FEN)	56.573903999999998859493643976747989654541015625	-111.277773999999993748133420012891292572021484375	HOBO Rain Gauge Data Logger - RG3	HOBO Temperature/RH Smart Sensor (S-THB-M002)	Soil Moisture Smart Sensor - EC5 (S-SMC-M005)	2019-05-25T00:00:01	0.00	2.584	49.000	0.6039	-7.0
326	AB07CD0350	WETLAND SAL01	SALINE (FEN)	56.573903999999998859493643976747989654541015625	-111.277773999999993748133420012891292572021484375	HOBO Rain Gauge Data Logger - RG3	HOBO Temperature/RH Smart Sensor (S-THB-M002)	Soil Moisture Smart Sensor - EC5 (S-SMC-M005)	2019-05-25T01:00:01	0.00	-0.423	68.700	0.6039	-5.5
327	AB07CD0350	WETLAND SAL01	SALINE (FEN)	56.573903999999998859493643976747989654541015625	-111.277773999999993748133420012891292572021484375	HOBO Rain Gauge Data Logger - RG3	HOBO Temperature/RH Smart Sensor (S-THB-M002)	Soil Moisture Smart Sensor - EC5 (S-SMC-M005)	2019-05-25T02:00:01	0.00	-0.311	75.700	0.6039	-4.1
328	AB07CD0350	WETLAND SAL01	SALINE (FEN)	56.573903999999998859493643976747989654541015625	-111.277773999999993748133420012891292572021484375	HOBO Rain Gauge Data Logger - RG3	HOBO Temperature/RH Smart Sensor (S-THB-M002)	Soil Moisture Smart Sensor - EC5 (S-SMC-M005)	2019-05-25T03:00:01	0.00	-1.356	80.700	0.6039	-4.2
329	AB07CD0350	WETLAND SAL01	SALINE (FEN)	56.573903999999998859493643976747989654541015625	-111.277773999999993748133420012891292572021484375	HOBO Rain Gauge Data Logger - RG3	HOBO Temperature/RH Smart Sensor (S-THB-M002)	Soil Moisture Smart Sensor - EC5 (S-SMC-M005)	2019-05-25T04:00:01	0.00	-1.527	82.300	0.6039	-4.2
330	AB07CD0350	WETLAND SAL01	SALINE (FEN)	56.573903999999998859493643976747989654541015625	-111.277773999999993748133420012891292572021484375	HOBO Rain Gauge Data Logger - RG3	HOBO Temperature/RH Smart Sensor (S-THB-M002)	Soil Moisture Smart Sensor - EC5 (S-SMC-M005)	2019-05-25T05:00:01	0.00	-2.015	84.800	0.6039	-4.2
331	AB07CD0350	WETLAND SAL01	SALINE (FEN)	56.573903999999998859493643976747989654541015625	-111.277773999999993748133420012891292572021484375	HOBO Rain Gauge Data Logger - RG3	HOBO Temperature/RH Smart Sensor (S-THB-M002)	Soil Moisture Smart Sensor - EC5 (S-SMC-M005)	2019-05-25T06:00:01	0.00	-0.817	84.300	0.6039	-3.1
332	AB07CD0350	WETLAND SAL01	SALINE (FEN)	56.573903999999998859493643976747989654541015625	-111.277773999999993748133420012891292572021484375	HOBO Rain Gauge Data Logger - RG3	HOBO Temperature/RH Smart Sensor (S-THB-M002)	Soil Moisture Smart Sensor - EC5 (S-SMC-M005)	2019-05-25T07:00:01	0.00	2.396	81.700	0.6039	-0.4
333	AB07CD0350	WETLAND SAL01	SALINE (FEN)	56.573903999999998859493643976747989654541015625	-111.277773999999993748133420012891292572021484375	HOBO Rain Gauge Data Logger - RG3	HOBO Temperature/RH Smart Sensor (S-THB-M002)	Soil Moisture Smart Sensor - EC5 (S-SMC-M005)	2019-05-25T08:00:01	0.00	5.949	73.500	0.6039	1.6
334	AB07CD0350	WETLAND SAL01	SALINE (FEN)	56.573903999999998859493643976747989654541015625	-111.277773999999993748133420012891292572021484375	HOBO Rain Gauge Data Logger - RG3	HOBO Temperature/RH Smart Sensor (S-THB-M002)	Soil Moisture Smart Sensor - EC5 (S-SMC-M005)	2019-05-25T09:00:01	0.00	9.558	61.700	0.6039	2.6
335	AB07CD0350	WETLAND SAL01	SALINE (FEN)	56.573903999999998859493643976747989654541015625	-111.277773999999993748133420012891292572021484375	HOBO Rain Gauge Data Logger - RG3	HOBO Temperature/RH Smart Sensor (S-THB-M002)	Soil Moisture Smart Sensor - EC5 (S-SMC-M005)	2019-05-25T10:00:01	0.00	14.625	43.500	0.6039	2.4
336	AB07CD0350	WETLAND SAL01	SALINE (FEN)	56.573903999999998859493643976747989654541015625	-111.277773999999993748133420012891292572021484375	HOBO Rain Gauge Data Logger - RG3	HOBO Temperature/RH Smart Sensor (S-THB-M002)	Soil Moisture Smart Sensor - EC5 (S-SMC-M005)	2019-05-25T11:00:01	0.00	15.175	28.000	0.6039	-3.2
337	AB07CD0350	WETLAND SAL01	SALINE (FEN)	56.573903999999998859493643976747989654541015625	-111.277773999999993748133420012891292572021484375	HOBO Rain Gauge Data Logger - RG3	HOBO Temperature/RH Smart Sensor (S-THB-M002)	Soil Moisture Smart Sensor - EC5 (S-SMC-M005)	2019-05-25T12:00:01	0.00	15.127	26.000	0.6031	-4.2
338	AB07CD0350	WETLAND SAL01	SALINE (FEN)	56.573903999999998859493643976747989654541015625	-111.277773999999993748133420012891292572021484375	HOBO Rain Gauge Data Logger - RG3	HOBO Temperature/RH Smart Sensor (S-THB-M002)	Soil Moisture Smart Sensor - EC5 (S-SMC-M005)	2019-05-25T13:00:01	0.00	16.034	26.200	0.6039	-3.3
339	AB07CD0350	WETLAND SAL01	SALINE (FEN)	56.573903999999998859493643976747989654541015625	-111.277773999999993748133420012891292572021484375	HOBO Rain Gauge Data Logger - RG3	HOBO Temperature/RH Smart Sensor (S-THB-M002)	Soil Moisture Smart Sensor - EC5 (S-SMC-M005)	2019-05-25T14:00:01	0.00	15.151	26.500	0.6031	-4.0
340	AB07CD0350	WETLAND SAL01	SALINE (FEN)	56.573903999999998859493643976747989654541015625	-111.277773999999993748133420012891292572021484375	HOBO Rain Gauge Data Logger - RG3	HOBO Temperature/RH Smart Sensor (S-THB-M002)	Soil Moisture Smart Sensor - EC5 (S-SMC-M005)	2019-05-25T15:00:01	0.00	16.368	23.700	0.6031	-4.4
341	AB07CD0350	WETLAND SAL01	SALINE (FEN)	56.573903999999998859493643976747989654541015625	-111.277773999999993748133420012891292572021484375	HOBO Rain Gauge Data Logger - RG3	HOBO Temperature/RH Smart Sensor (S-THB-M002)	Soil Moisture Smart Sensor - EC5 (S-SMC-M005)	2019-05-25T16:00:01	0.00	16.796	22.200	0.6031	-4.9
342	AB07CD0350	WETLAND SAL01	SALINE (FEN)	56.573903999999998859493643976747989654541015625	-111.277773999999993748133420012891292572021484375	HOBO Rain Gauge Data Logger - RG3	HOBO Temperature/RH Smart Sensor (S-THB-M002)	Soil Moisture Smart Sensor - EC5 (S-SMC-M005)	2019-05-25T17:00:01	0.00	16.630	20.900	0.6031	-5.8
343	AB07CD0350	WETLAND SAL01	SALINE (FEN)	56.573903999999998859493643976747989654541015625	-111.277773999999993748133420012891292572021484375	HOBO Rain Gauge Data Logger - RG3	HOBO Temperature/RH Smart Sensor (S-THB-M002)	Soil Moisture Smart Sensor - EC5 (S-SMC-M005)	2019-05-25T18:00:01	0.00	16.010	20.500	0.6031	-6.6
344	AB07CD0350	WETLAND SAL01	SALINE (FEN)	56.573903999999998859493643976747989654541015625	-111.277773999999993748133420012891292572021484375	HOBO Rain Gauge Data Logger - RG3	HOBO Temperature/RH Smart Sensor (S-THB-M002)	Soil Moisture Smart Sensor - EC5 (S-SMC-M005)	2019-05-25T19:00:01	0.00	15.724	22.200	0.6031	-5.8
345	AB07CD0350	WETLAND SAL01	SALINE (FEN)	56.573903999999998859493643976747989654541015625	-111.277773999999993748133420012891292572021484375	HOBO Rain Gauge Data Logger - RG3	HOBO Temperature/RH Smart Sensor (S-THB-M002)	Soil Moisture Smart Sensor - EC5 (S-SMC-M005)	2019-05-25T20:00:01	0.00	14.864	23.500	0.6031	-5.8
346	AB07CD0350	WETLAND SAL01	SALINE (FEN)	56.573903999999998859493643976747989654541015625	-111.277773999999993748133420012891292572021484375	HOBO Rain Gauge Data Logger - RG3	HOBO Temperature/RH Smart Sensor (S-THB-M002)	Soil Moisture Smart Sensor - EC5 (S-SMC-M005)	2019-05-25T21:00:01	0.00	12.727	25.400	0.6031	-6.6
347	AB07CD0350	WETLAND SAL01	SALINE (FEN)	56.573903999999998859493643976747989654541015625	-111.277773999999993748133420012891292572021484375	HOBO Rain Gauge Data Logger - RG3	HOBO Temperature/RH Smart Sensor (S-THB-M002)	Soil Moisture Smart Sensor - EC5 (S-SMC-M005)	2019-05-25T22:00:01	0.00	9.977	29.200	0.6031	-7.1
348	AB07CD0350	WETLAND SAL01	SALINE (FEN)	56.573903999999998859493643976747989654541015625	-111.277773999999993748133420012891292572021484375	HOBO Rain Gauge Data Logger - RG3	HOBO Temperature/RH Smart Sensor (S-THB-M002)	Soil Moisture Smart Sensor - EC5 (S-SMC-M005)	2019-05-25T23:00:01	0.00	8.245	33.600	0.6031	-6.8
349	AB07CD0350	WETLAND SAL01	SALINE (FEN)	56.573903999999998859493643976747989654541015625	-111.277773999999993748133420012891292572021484375	HOBO Rain Gauge Data Logger - RG3	HOBO Temperature/RH Smart Sensor (S-THB-M002)	Soil Moisture Smart Sensor - EC5 (S-SMC-M005)	2019-05-26T00:00:01	0.00	6.179	38.400	0.6031	-6.9
350	AB07CD0350	WETLAND SAL01	SALINE (FEN)	56.573903999999998859493643976747989654541015625	-111.277773999999993748133420012891292572021484375	HOBO Rain Gauge Data Logger - RG3	HOBO Temperature/RH Smart Sensor (S-THB-M002)	Soil Moisture Smart Sensor - EC5 (S-SMC-M005)	2019-05-26T01:00:01	0.00	3.142	46.100	0.6031	-7.3
351	AB07CD0350	WETLAND SAL01	SALINE (FEN)	56.573903999999998859493643976747989654541015625	-111.277773999999993748133420012891292572021484375	HOBO Rain Gauge Data Logger - RG3	HOBO Temperature/RH Smart Sensor (S-THB-M002)	Soil Moisture Smart Sensor - EC5 (S-SMC-M005)	2019-05-26T02:00:01	0.00	-2.160	63.900	0.6031	-8.1
352	AB07CD0350	WETLAND SAL01	SALINE (FEN)	56.573903999999998859493643976747989654541015625	-111.277773999999993748133420012891292572021484375	HOBO Rain Gauge Data Logger - RG3	HOBO Temperature/RH Smart Sensor (S-THB-M002)	Soil Moisture Smart Sensor - EC5 (S-SMC-M005)	2019-05-26T03:00:01	0.00	-3.956	77.200	0.6031	-7.4
353	AB07CD0350	WETLAND SAL01	SALINE (FEN)	56.573903999999998859493643976747989654541015625	-111.277773999999993748133420012891292572021484375	HOBO Rain Gauge Data Logger - RG3	HOBO Temperature/RH Smart Sensor (S-THB-M002)	Soil Moisture Smart Sensor - EC5 (S-SMC-M005)	2019-05-26T04:00:01	0.00	-4.530	83.000	0.6031	-7.0
354	AB07CD0350	WETLAND SAL01	SALINE (FEN)	56.573903999999998859493643976747989654541015625	-111.277773999999993748133420012891292572021484375	HOBO Rain Gauge Data Logger - RG3	HOBO Temperature/RH Smart Sensor (S-THB-M002)	Soil Moisture Smart Sensor - EC5 (S-SMC-M005)	2019-05-26T05:00:01	0.00	-5.079	85.800	0.6031	-7.1
355	AB07CD0350	WETLAND SAL01	SALINE (FEN)	56.573903999999998859493643976747989654541015625	-111.277773999999993748133420012891292572021484375	HOBO Rain Gauge Data Logger - RG3	HOBO Temperature/RH Smart Sensor (S-THB-M002)	Soil Moisture Smart Sensor - EC5 (S-SMC-M005)	2019-05-26T06:00:01	0.00	-2.160	85.300	0.6031	-4.3
356	AB07CD0350	WETLAND SAL01	SALINE (FEN)	56.573903999999998859493643976747989654541015625	-111.277773999999993748133420012891292572021484375	HOBO Rain Gauge Data Logger - RG3	HOBO Temperature/RH Smart Sensor (S-THB-M002)	Soil Moisture Smart Sensor - EC5 (S-SMC-M005)	2019-05-26T07:00:01	0.00	3.406	74.100	0.6031	-0.8
357	AB07CD0350	WETLAND SAL01	SALINE (FEN)	56.573903999999998859493643976747989654541015625	-111.277773999999993748133420012891292572021484375	HOBO Rain Gauge Data Logger - RG3	HOBO Temperature/RH Smart Sensor (S-THB-M002)	Soil Moisture Smart Sensor - EC5 (S-SMC-M005)	2019-05-26T08:00:01	0.00	9.657	54.900	0.6031	1.0
358	AB07CD0350	WETLAND SAL01	SALINE (FEN)	56.573903999999998859493643976747989654541015625	-111.277773999999993748133420012891292572021484375	HOBO Rain Gauge Data Logger - RG3	HOBO Temperature/RH Smart Sensor (S-THB-M002)	Soil Moisture Smart Sensor - EC5 (S-SMC-M005)	2019-05-26T09:00:01	0.00	12.268	33.600	0.6031	-3.3
359	AB07CD0350	WETLAND SAL01	SALINE (FEN)	56.573903999999998859493643976747989654541015625	-111.277773999999993748133420012891292572021484375	HOBO Rain Gauge Data Logger - RG3	HOBO Temperature/RH Smart Sensor (S-THB-M002)	Soil Moisture Smart Sensor - EC5 (S-SMC-M005)	2019-05-26T10:00:01	0.00	14.673	28.400	0.6031	-3.4
360	AB07CD0350	WETLAND SAL01	SALINE (FEN)	56.573903999999998859493643976747989654541015625	-111.277773999999993748133420012891292572021484375	HOBO Rain Gauge Data Logger - RG3	HOBO Temperature/RH Smart Sensor (S-THB-M002)	Soil Moisture Smart Sensor - EC5 (S-SMC-M005)	2019-05-26T11:00:01	0.00	16.392	25.000	0.6031	-3.7
361	AB07CD0350	WETLAND SAL01	SALINE (FEN)	56.573903999999998859493643976747989654541015625	-111.277773999999993748133420012891292572021484375	HOBO Rain Gauge Data Logger - RG3	HOBO Temperature/RH Smart Sensor (S-THB-M002)	Soil Moisture Smart Sensor - EC5 (S-SMC-M005)	2019-05-26T12:00:01	0.00	18.176	22.900	0.6024	-3.3
362	AB07CD0350	WETLAND SAL01	SALINE (FEN)	56.573903999999998859493643976747989654541015625	-111.277773999999993748133420012891292572021484375	HOBO Rain Gauge Data Logger - RG3	HOBO Temperature/RH Smart Sensor (S-THB-M002)	Soil Moisture Smart Sensor - EC5 (S-SMC-M005)	2019-05-26T13:00:01	0.00	19.508	20.800	0.6031	-3.5
363	AB07CD0350	WETLAND SAL01	SALINE (FEN)	56.573903999999998859493643976747989654541015625	-111.277773999999993748133420012891292572021484375	HOBO Rain Gauge Data Logger - RG3	HOBO Temperature/RH Smart Sensor (S-THB-M002)	Soil Moisture Smart Sensor - EC5 (S-SMC-M005)	2019-05-26T14:00:01	0.00	20.198	19.700	0.6024	-3.7
364	AB07CD0350	WETLAND SAL01	SALINE (FEN)	56.573903999999998859493643976747989654541015625	-111.277773999999993748133420012891292572021484375	HOBO Rain Gauge Data Logger - RG3	HOBO Temperature/RH Smart Sensor (S-THB-M002)	Soil Moisture Smart Sensor - EC5 (S-SMC-M005)	2019-05-26T15:00:01	0.00	21.294	18.500	0.6024	-3.6
365	AB07CD0350	WETLAND SAL01	SALINE (FEN)	56.573903999999998859493643976747989654541015625	-111.277773999999993748133420012891292572021484375	HOBO Rain Gauge Data Logger - RG3	HOBO Temperature/RH Smart Sensor (S-THB-M002)	Soil Moisture Smart Sensor - EC5 (S-SMC-M005)	2019-05-26T16:00:01	0.00	22.082	17.900	0.6024	-3.4
366	AB07CD0350	WETLAND SAL01	SALINE (FEN)	56.573903999999998859493643976747989654541015625	-111.277773999999993748133420012891292572021484375	HOBO Rain Gauge Data Logger - RG3	HOBO Temperature/RH Smart Sensor (S-THB-M002)	Soil Moisture Smart Sensor - EC5 (S-SMC-M005)	2019-05-26T17:00:01	0.00	22.513	17.200	0.6024	-3.6
367	AB07CD0350	WETLAND SAL01	SALINE (FEN)	56.573903999999998859493643976747989654541015625	-111.277773999999993748133420012891292572021484375	HOBO Rain Gauge Data Logger - RG3	HOBO Temperature/RH Smart Sensor (S-THB-M002)	Soil Moisture Smart Sensor - EC5 (S-SMC-M005)	2019-05-26T18:00:01	0.00	22.753	16.900	0.6024	-3.6
368	AB07CD0350	WETLAND SAL01	SALINE (FEN)	56.573903999999998859493643976747989654541015625	-111.277773999999993748133420012891292572021484375	HOBO Rain Gauge Data Logger - RG3	HOBO Temperature/RH Smart Sensor (S-THB-M002)	Soil Moisture Smart Sensor - EC5 (S-SMC-M005)	2019-05-26T19:00:01	0.00	22.992	16.400	0.6024	-3.8
369	AB07CD0350	WETLAND SAL01	SALINE (FEN)	56.573903999999998859493643976747989654541015625	-111.277773999999993748133420012891292572021484375	HOBO Rain Gauge Data Logger - RG3	HOBO Temperature/RH Smart Sensor (S-THB-M002)	Soil Moisture Smart Sensor - EC5 (S-SMC-M005)	2019-05-26T20:00:01	0.00	21.533	16.000	0.6024	-5.3
370	AB07CD0350	WETLAND SAL01	SALINE (FEN)	56.573903999999998859493643976747989654541015625	-111.277773999999993748133420012891292572021484375	HOBO Rain Gauge Data Logger - RG3	HOBO Temperature/RH Smart Sensor (S-THB-M002)	Soil Moisture Smart Sensor - EC5 (S-SMC-M005)	2019-05-26T21:00:01	0.00	18.604	18.700	0.6024	-5.7
371	AB07CD0350	WETLAND SAL01	SALINE (FEN)	56.573903999999998859493643976747989654541015625	-111.277773999999993748133420012891292572021484375	HOBO Rain Gauge Data Logger - RG3	HOBO Temperature/RH Smart Sensor (S-THB-M002)	Soil Moisture Smart Sensor - EC5 (S-SMC-M005)	2019-05-26T22:00:01	0.00	15.175	23.800	0.6031	-5.4
372	AB07CD0350	WETLAND SAL01	SALINE (FEN)	56.573903999999998859493643976747989654541015625	-111.277773999999993748133420012891292572021484375	HOBO Rain Gauge Data Logger - RG3	HOBO Temperature/RH Smart Sensor (S-THB-M002)	Soil Moisture Smart Sensor - EC5 (S-SMC-M005)	2019-05-26T23:00:01	0.00	14.314	29.200	0.6024	-3.4
373	AB07CD0350	WETLAND SAL01	SALINE (FEN)	56.573903999999998859493643976747989654541015625	-111.277773999999993748133420012891292572021484375	HOBO Rain Gauge Data Logger - RG3	HOBO Temperature/RH Smart Sensor (S-THB-M002)	Soil Moisture Smart Sensor - EC5 (S-SMC-M005)	2019-05-27T00:00:01	0.00	14.816	29.200	0.6031	-2.9
374	AB07CD0350	WETLAND SAL01	SALINE (FEN)	56.573903999999998859493643976747989654541015625	-111.277773999999993748133420012891292572021484375	HOBO Rain Gauge Data Logger - RG3	HOBO Temperature/RH Smart Sensor (S-THB-M002)	Soil Moisture Smart Sensor - EC5 (S-SMC-M005)	2019-05-27T01:00:01	0.00	13.978	30.100	0.6031	-3.3
375	AB07CD0350	WETLAND SAL01	SALINE (FEN)	56.573903999999998859493643976747989654541015625	-111.277773999999993748133420012891292572021484375	HOBO Rain Gauge Data Logger - RG3	HOBO Temperature/RH Smart Sensor (S-THB-M002)	Soil Moisture Smart Sensor - EC5 (S-SMC-M005)	2019-05-27T02:00:01	0.00	13.786	33.000	0.6031	-2.2
376	AB07CD0350	WETLAND SAL01	SALINE (FEN)	56.573903999999998859493643976747989654541015625	-111.277773999999993748133420012891292572021484375	HOBO Rain Gauge Data Logger - RG3	HOBO Temperature/RH Smart Sensor (S-THB-M002)	Soil Moisture Smart Sensor - EC5 (S-SMC-M005)	2019-05-27T03:00:01	0.00	13.978	34.400	0.6031	-1.5
377	AB07CD0350	WETLAND SAL01	SALINE (FEN)	56.573903999999998859493643976747989654541015625	-111.277773999999993748133420012891292572021484375	HOBO Rain Gauge Data Logger - RG3	HOBO Temperature/RH Smart Sensor (S-THB-M002)	Soil Moisture Smart Sensor - EC5 (S-SMC-M005)	2019-05-27T04:00:01	0.00	11.856	37.500	0.6031	-2.2
378	AB07CD0350	WETLAND SAL01	SALINE (FEN)	56.573903999999998859493643976747989654541015625	-111.277773999999993748133420012891292572021484375	HOBO Rain Gauge Data Logger - RG3	HOBO Temperature/RH Smart Sensor (S-THB-M002)	Soil Moisture Smart Sensor - EC5 (S-SMC-M005)	2019-05-27T05:00:01	0.00	11.151	41.500	0.6039	-1.4
379	AB07CD0350	WETLAND SAL01	SALINE (FEN)	56.573903999999998859493643976747989654541015625	-111.277773999999993748133420012891292572021484375	HOBO Rain Gauge Data Logger - RG3	HOBO Temperature/RH Smart Sensor (S-THB-M002)	Soil Moisture Smart Sensor - EC5 (S-SMC-M005)	2019-05-27T06:00:01	0.00	11.589	43.600	0.6031	-0.4
380	AB07CD0350	WETLAND SAL01	SALINE (FEN)	56.573903999999998859493643976747989654541015625	-111.277773999999993748133420012891292572021484375	HOBO Rain Gauge Data Logger - RG3	HOBO Temperature/RH Smart Sensor (S-THB-M002)	Soil Moisture Smart Sensor - EC5 (S-SMC-M005)	2019-05-27T07:00:01	0.00	13.449	42.800	0.6031	1.1
381	AB07CD0350	WETLAND SAL01	SALINE (FEN)	56.573903999999998859493643976747989654541015625	-111.277773999999993748133420012891292572021484375	HOBO Rain Gauge Data Logger - RG3	HOBO Temperature/RH Smart Sensor (S-THB-M002)	Soil Moisture Smart Sensor - EC5 (S-SMC-M005)	2019-05-27T08:00:01	0.00	12.606	43.800	0.6031	0.6
382	AB07CD0350	WETLAND SAL01	SALINE (FEN)	56.573903999999998859493643976747989654541015625	-111.277773999999993748133420012891292572021484375	HOBO Rain Gauge Data Logger - RG3	HOBO Temperature/RH Smart Sensor (S-THB-M002)	Soil Moisture Smart Sensor - EC5 (S-SMC-M005)	2019-05-27T09:00:01	0.00	13.594	44.700	0.6031	1.8
383	AB07CD0350	WETLAND SAL01	SALINE (FEN)	56.573903999999998859493643976747989654541015625	-111.277773999999993748133420012891292572021484375	HOBO Rain Gauge Data Logger - RG3	HOBO Temperature/RH Smart Sensor (S-THB-M002)	Soil Moisture Smart Sensor - EC5 (S-SMC-M005)	2019-05-27T10:00:01	0.00	13.666	44.900	0.6031	1.9
384	AB07CD0350	WETLAND SAL01	SALINE (FEN)	56.573903999999998859493643976747989654541015625	-111.277773999999993748133420012891292572021484375	HOBO Rain Gauge Data Logger - RG3	HOBO Temperature/RH Smart Sensor (S-THB-M002)	Soil Moisture Smart Sensor - EC5 (S-SMC-M005)	2019-05-27T11:00:01	0.00	13.810	46.100	0.6031	2.4
385	AB07CD0350	WETLAND SAL01	SALINE (FEN)	56.573903999999998859493643976747989654541015625	-111.277773999999993748133420012891292572021484375	HOBO Rain Gauge Data Logger - RG3	HOBO Temperature/RH Smart Sensor (S-THB-M002)	Soil Moisture Smart Sensor - EC5 (S-SMC-M005)	2019-05-27T12:00:01	0.00	16.654	49.600	0.6031	6.1
386	AB07CD0350	WETLAND SAL01	SALINE (FEN)	56.573903999999998859493643976747989654541015625	-111.277773999999993748133420012891292572021484375	HOBO Rain Gauge Data Logger - RG3	HOBO Temperature/RH Smart Sensor (S-THB-M002)	Soil Moisture Smart Sensor - EC5 (S-SMC-M005)	2019-05-27T13:00:01	0.00	19.984	38.600	0.6031	5.5
387	AB07CD0350	WETLAND SAL01	SALINE (FEN)	56.573903999999998859493643976747989654541015625	-111.277773999999993748133420012891292572021484375	HOBO Rain Gauge Data Logger - RG3	HOBO Temperature/RH Smart Sensor (S-THB-M002)	Soil Moisture Smart Sensor - EC5 (S-SMC-M005)	2019-05-27T14:00:01	0.00	22.800	35.100	0.6031	6.6
388	AB07CD0350	WETLAND SAL01	SALINE (FEN)	56.573903999999998859493643976747989654541015625	-111.277773999999993748133420012891292572021484375	HOBO Rain Gauge Data Logger - RG3	HOBO Temperature/RH Smart Sensor (S-THB-M002)	Soil Moisture Smart Sensor - EC5 (S-SMC-M005)	2019-05-27T15:00:01	0.00	23.208	33.600	0.6031	6.3
389	AB07CD0350	WETLAND SAL01	SALINE (FEN)	56.573903999999998859493643976747989654541015625	-111.277773999999993748133420012891292572021484375	HOBO Rain Gauge Data Logger - RG3	HOBO Temperature/RH Smart Sensor (S-THB-M002)	Soil Moisture Smart Sensor - EC5 (S-SMC-M005)	2019-05-27T16:00:01	0.00	23.978	32.100	0.6031	6.3
390	AB07CD0350	WETLAND SAL01	SALINE (FEN)	56.573903999999998859493643976747989654541015625	-111.277773999999993748133420012891292572021484375	HOBO Rain Gauge Data Logger - RG3	HOBO Temperature/RH Smart Sensor (S-THB-M002)	Soil Moisture Smart Sensor - EC5 (S-SMC-M005)	2019-05-27T17:00:01	0.00	24.363	29.400	0.6031	5.4
391	AB07CD0350	WETLAND SAL01	SALINE (FEN)	56.573903999999998859493643976747989654541015625	-111.277773999999993748133420012891292572021484375	HOBO Rain Gauge Data Logger - RG3	HOBO Temperature/RH Smart Sensor (S-THB-M002)	Soil Moisture Smart Sensor - EC5 (S-SMC-M005)	2019-05-27T18:00:01	0.00	24.098	29.700	0.6031	5.3
392	AB07CD0350	WETLAND SAL01	SALINE (FEN)	56.573903999999998859493643976747989654541015625	-111.277773999999993748133420012891292572021484375	HOBO Rain Gauge Data Logger - RG3	HOBO Temperature/RH Smart Sensor (S-THB-M002)	Soil Moisture Smart Sensor - EC5 (S-SMC-M005)	2019-05-27T19:00:01	0.00	23.448	30.500	0.6031	5.1
393	AB07CD0350	WETLAND SAL01	SALINE (FEN)	56.573903999999998859493643976747989654541015625	-111.277773999999993748133420012891292572021484375	HOBO Rain Gauge Data Logger - RG3	HOBO Temperature/RH Smart Sensor (S-THB-M002)	Soil Moisture Smart Sensor - EC5 (S-SMC-M005)	2019-05-27T20:00:01	0.00	21.676	35.000	0.6031	5.6
394	AB07CD0350	WETLAND SAL01	SALINE (FEN)	56.573903999999998859493643976747989654541015625	-111.277773999999993748133420012891292572021484375	HOBO Rain Gauge Data Logger - RG3	HOBO Temperature/RH Smart Sensor (S-THB-M002)	Soil Moisture Smart Sensor - EC5 (S-SMC-M005)	2019-05-27T21:00:01	0.00	20.460	46.300	0.6031	8.6
395	AB07CD0350	WETLAND SAL01	SALINE (FEN)	56.573903999999998859493643976747989654541015625	-111.277773999999993748133420012891292572021484375	HOBO Rain Gauge Data Logger - RG3	HOBO Temperature/RH Smart Sensor (S-THB-M002)	Soil Moisture Smart Sensor - EC5 (S-SMC-M005)	2019-05-27T22:00:01	0.00	14.577	57.100	0.6031	6.2
396	AB07CD0350	WETLAND SAL01	SALINE (FEN)	56.573903999999998859493643976747989654541015625	-111.277773999999993748133420012891292572021484375	HOBO Rain Gauge Data Logger - RG3	HOBO Temperature/RH Smart Sensor (S-THB-M002)	Soil Moisture Smart Sensor - EC5 (S-SMC-M005)	2019-05-27T23:00:01	0.00	12.871	69.800	0.6031	7.5
397	AB07CD0350	WETLAND SAL01	SALINE (FEN)	56.573903999999998859493643976747989654541015625	-111.277773999999993748133420012891292572021484375	HOBO Rain Gauge Data Logger - RG3	HOBO Temperature/RH Smart Sensor (S-THB-M002)	Soil Moisture Smart Sensor - EC5 (S-SMC-M005)	2019-05-28T00:00:01	0.00	13.281	67.800	0.6031	7.5
398	AB07CD0350	WETLAND SAL01	SALINE (FEN)	56.573903999999998859493643976747989654541015625	-111.277773999999993748133420012891292572021484375	HOBO Rain Gauge Data Logger - RG3	HOBO Temperature/RH Smart Sensor (S-THB-M002)	Soil Moisture Smart Sensor - EC5 (S-SMC-M005)	2019-05-28T01:00:01	0.00	9.485	69.900	0.6031	4.3
399	AB07CD0350	WETLAND SAL01	SALINE (FEN)	56.573903999999998859493643976747989654541015625	-111.277773999999993748133420012891292572021484375	HOBO Rain Gauge Data Logger - RG3	HOBO Temperature/RH Smart Sensor (S-THB-M002)	Soil Moisture Smart Sensor - EC5 (S-SMC-M005)	2019-05-28T02:00:01	0.00	7.544	78.900	0.6031	4.1
400	AB07CD0350	WETLAND SAL01	SALINE (FEN)	56.573903999999998859493643976747989654541015625	-111.277773999999993748133420012891292572021484375	HOBO Rain Gauge Data Logger - RG3	HOBO Temperature/RH Smart Sensor (S-THB-M002)	Soil Moisture Smart Sensor - EC5 (S-SMC-M005)	2019-05-28T03:00:01	0.00	6.102	82.700	0.6039	3.4
401	AB07CD0350	WETLAND SAL01	SALINE (FEN)	56.573903999999998859493643976747989654541015625	-111.277773999999993748133420012891292572021484375	HOBO Rain Gauge Data Logger - RG3	HOBO Temperature/RH Smart Sensor (S-THB-M002)	Soil Moisture Smart Sensor - EC5 (S-SMC-M005)	2019-05-28T04:00:01	0.00	6.484	85.200	0.6039	4.2
402	AB07CD0350	WETLAND SAL01	SALINE (FEN)	56.573903999999998859493643976747989654541015625	-111.277773999999993748133420012891292572021484375	HOBO Rain Gauge Data Logger - RG3	HOBO Temperature/RH Smart Sensor (S-THB-M002)	Soil Moisture Smart Sensor - EC5 (S-SMC-M005)	2019-05-28T05:00:01	0.00	14.457	61.100	0.6039	7.1
403	AB07CD0350	WETLAND SAL01	SALINE (FEN)	56.573903999999998859493643976747989654541015625	-111.277773999999993748133420012891292572021484375	HOBO Rain Gauge Data Logger - RG3	HOBO Temperature/RH Smart Sensor (S-THB-M002)	Soil Moisture Smart Sensor - EC5 (S-SMC-M005)	2019-05-28T06:00:01	0.00	12.413	51.400	0.6039	2.7
404	AB07CD0350	WETLAND SAL01	SALINE (FEN)	56.573903999999998859493643976747989654541015625	-111.277773999999993748133420012891292572021484375	HOBO Rain Gauge Data Logger - RG3	HOBO Temperature/RH Smart Sensor (S-THB-M002)	Soil Moisture Smart Sensor - EC5 (S-SMC-M005)	2019-05-28T07:00:01	0.00	14.625	51.900	0.6039	4.9
405	AB07CD0350	WETLAND SAL01	SALINE (FEN)	56.573903999999998859493643976747989654541015625	-111.277773999999993748133420012891292572021484375	HOBO Rain Gauge Data Logger - RG3	HOBO Temperature/RH Smart Sensor (S-THB-M002)	Soil Moisture Smart Sensor - EC5 (S-SMC-M005)	2019-05-28T08:00:01	0.00	18.129	44.300	0.6039	5.8
406	AB07CD0350	WETLAND SAL01	SALINE (FEN)	56.573903999999998859493643976747989654541015625	-111.277773999999993748133420012891292572021484375	HOBO Rain Gauge Data Logger - RG3	HOBO Temperature/RH Smart Sensor (S-THB-M002)	Soil Moisture Smart Sensor - EC5 (S-SMC-M005)	2019-05-28T09:00:01	0.00	21.008	37.100	0.6046	5.8
407	AB07CD0350	WETLAND SAL01	SALINE (FEN)	56.573903999999998859493643976747989654541015625	-111.277773999999993748133420012891292572021484375	HOBO Rain Gauge Data Logger - RG3	HOBO Temperature/RH Smart Sensor (S-THB-M002)	Soil Moisture Smart Sensor - EC5 (S-SMC-M005)	2019-05-28T10:00:01	0.00	22.202	33.000	0.6046	5.2
408	AB07CD0350	WETLAND SAL01	SALINE (FEN)	56.573903999999998859493643976747989654541015625	-111.277773999999993748133420012891292572021484375	HOBO Rain Gauge Data Logger - RG3	HOBO Temperature/RH Smart Sensor (S-THB-M002)	Soil Moisture Smart Sensor - EC5 (S-SMC-M005)	2019-05-28T11:00:01	0.00	25.331	29.700	0.6046	6.4
409	AB07CD0350	WETLAND SAL01	SALINE (FEN)	56.573903999999998859493643976747989654541015625	-111.277773999999993748133420012891292572021484375	HOBO Rain Gauge Data Logger - RG3	HOBO Temperature/RH Smart Sensor (S-THB-M002)	Soil Moisture Smart Sensor - EC5 (S-SMC-M005)	2019-05-28T12:00:01	0.00	28.196	26.200	0.6046	7.0
410	AB07CD0350	WETLAND SAL01	SALINE (FEN)	56.573903999999998859493643976747989654541015625	-111.277773999999993748133420012891292572021484375	HOBO Rain Gauge Data Logger - RG3	HOBO Temperature/RH Smart Sensor (S-THB-M002)	Soil Moisture Smart Sensor - EC5 (S-SMC-M005)	2019-05-28T13:00:01	0.00	30.016	23.200	0.6046	6.8
411	AB07CD0350	WETLAND SAL01	SALINE (FEN)	56.573903999999998859493643976747989654541015625	-111.277773999999993748133420012891292572021484375	HOBO Rain Gauge Data Logger - RG3	HOBO Temperature/RH Smart Sensor (S-THB-M002)	Soil Moisture Smart Sensor - EC5 (S-SMC-M005)	2019-05-28T14:00:01	0.00	31.230	20.500	0.6046	6.0
412	AB07CD0350	WETLAND SAL01	SALINE (FEN)	56.573903999999998859493643976747989654541015625	-111.277773999999993748133420012891292572021484375	HOBO Rain Gauge Data Logger - RG3	HOBO Temperature/RH Smart Sensor (S-THB-M002)	Soil Moisture Smart Sensor - EC5 (S-SMC-M005)	2019-05-28T15:00:01	0.00	31.612	19.200	0.6046	5.3
413	AB07CD0350	WETLAND SAL01	SALINE (FEN)	56.573903999999998859493643976747989654541015625	-111.277773999999993748133420012891292572021484375	HOBO Rain Gauge Data Logger - RG3	HOBO Temperature/RH Smart Sensor (S-THB-M002)	Soil Moisture Smart Sensor - EC5 (S-SMC-M005)	2019-05-28T16:00:01	0.00	31.919	17.800	0.6046	4.5
414	AB07CD0350	WETLAND SAL01	SALINE (FEN)	56.573903999999998859493643976747989654541015625	-111.277773999999993748133420012891292572021484375	HOBO Rain Gauge Data Logger - RG3	HOBO Temperature/RH Smart Sensor (S-THB-M002)	Soil Moisture Smart Sensor - EC5 (S-SMC-M005)	2019-05-28T17:00:01	0.00	32.021	17.900	0.6046	4.7
415	AB07CD0350	WETLAND SAL01	SALINE (FEN)	56.573903999999998859493643976747989654541015625	-111.277773999999993748133420012891292572021484375	HOBO Rain Gauge Data Logger - RG3	HOBO Temperature/RH Smart Sensor (S-THB-M002)	Soil Moisture Smart Sensor - EC5 (S-SMC-M005)	2019-05-28T18:00:01	0.00	32.047	17.700	0.6046	4.5
416	AB07CD0350	WETLAND SAL01	SALINE (FEN)	56.573903999999998859493643976747989654541015625	-111.277773999999993748133420012891292572021484375	HOBO Rain Gauge Data Logger - RG3	HOBO Temperature/RH Smart Sensor (S-THB-M002)	Soil Moisture Smart Sensor - EC5 (S-SMC-M005)	2019-05-28T19:00:01	0.00	31.586	17.400	0.6046	3.9
417	AB07CD0350	WETLAND SAL01	SALINE (FEN)	56.573903999999998859493643976747989654541015625	-111.277773999999993748133420012891292572021484375	HOBO Rain Gauge Data Logger - RG3	HOBO Temperature/RH Smart Sensor (S-THB-M002)	Soil Moisture Smart Sensor - EC5 (S-SMC-M005)	2019-05-28T20:00:01	0.00	30.293	18.100	0.6046	3.4
418	AB07CD0350	WETLAND SAL01	SALINE (FEN)	56.573903999999998859493643976747989654541015625	-111.277773999999993748133420012891292572021484375	HOBO Rain Gauge Data Logger - RG3	HOBO Temperature/RH Smart Sensor (S-THB-M002)	Soil Moisture Smart Sensor - EC5 (S-SMC-M005)	2019-05-28T21:00:01	0.00	26.378	22.200	0.6053	3.1
419	AB07CD0350	WETLAND SAL01	SALINE (FEN)	56.573903999999998859493643976747989654541015625	-111.277773999999993748133420012891292572021484375	HOBO Rain Gauge Data Logger - RG3	HOBO Temperature/RH Smart Sensor (S-THB-M002)	Soil Moisture Smart Sensor - EC5 (S-SMC-M005)	2019-05-28T22:00:01	0.00	22.657	27.100	0.6053	2.8
420	AB07CD0350	WETLAND SAL01	SALINE (FEN)	56.573903999999998859493643976747989654541015625	-111.277773999999993748133420012891292572021484375	HOBO Rain Gauge Data Logger - RG3	HOBO Temperature/RH Smart Sensor (S-THB-M002)	Soil Moisture Smart Sensor - EC5 (S-SMC-M005)	2019-05-28T23:00:01	0.00	19.746	34.500	0.6053	3.7
421	AB07CD0350	WETLAND SAL01	SALINE (FEN)	56.573903999999998859493643976747989654541015625	-111.277773999999993748133420012891292572021484375	HOBO Rain Gauge Data Logger - RG3	HOBO Temperature/RH Smart Sensor (S-THB-M002)	Soil Moisture Smart Sensor - EC5 (S-SMC-M005)	2019-05-29T00:00:01	0.00	19.793	35.700	0.6053	4.2
422	AB07CD0350	WETLAND SAL01	SALINE (FEN)	56.573903999999998859493643976747989654541015625	-111.277773999999993748133420012891292572021484375	HOBO Rain Gauge Data Logger - RG3	HOBO Temperature/RH Smart Sensor (S-THB-M002)	Soil Moisture Smart Sensor - EC5 (S-SMC-M005)	2019-05-29T01:00:01	0.00	18.985	35.100	0.6053	3.2
423	AB07CD0350	WETLAND SAL01	SALINE (FEN)	56.573903999999998859493643976747989654541015625	-111.277773999999993748133420012891292572021484375	HOBO Rain Gauge Data Logger - RG3	HOBO Temperature/RH Smart Sensor (S-THB-M002)	Soil Moisture Smart Sensor - EC5 (S-SMC-M005)	2019-05-29T02:00:01	0.00	19.960	33.900	0.6060	3.6
424	AB07CD0350	WETLAND SAL01	SALINE (FEN)	56.573903999999998859493643976747989654541015625	-111.277773999999993748133420012891292572021484375	HOBO Rain Gauge Data Logger - RG3	HOBO Temperature/RH Smart Sensor (S-THB-M002)	Soil Moisture Smart Sensor - EC5 (S-SMC-M005)	2019-05-29T03:00:01	0.00	19.175	36.500	0.6060	4.0
425	AB07CD0350	WETLAND SAL01	SALINE (FEN)	56.573903999999998859493643976747989654541015625	-111.277773999999993748133420012891292572021484375	HOBO Rain Gauge Data Logger - RG3	HOBO Temperature/RH Smart Sensor (S-THB-M002)	Soil Moisture Smart Sensor - EC5 (S-SMC-M005)	2019-05-29T04:00:01	0.00	18.889	38.300	0.6060	4.4
426	AB07CD0350	WETLAND SAL01	SALINE (FEN)	56.573903999999998859493643976747989654541015625	-111.277773999999993748133420012891292572021484375	HOBO Rain Gauge Data Logger - RG3	HOBO Temperature/RH Smart Sensor (S-THB-M002)	Soil Moisture Smart Sensor - EC5 (S-SMC-M005)	2019-05-29T05:00:01	0.00	18.105	39.900	0.6060	4.3
427	AB07CD0350	WETLAND SAL01	SALINE (FEN)	56.573903999999998859493643976747989654541015625	-111.277773999999993748133420012891292572021484375	HOBO Rain Gauge Data Logger - RG3	HOBO Temperature/RH Smart Sensor (S-THB-M002)	Soil Moisture Smart Sensor - EC5 (S-SMC-M005)	2019-05-29T06:00:01	0.00	17.534	42.900	0.6060	4.8
428	AB07CD0350	WETLAND SAL01	SALINE (FEN)	56.573903999999998859493643976747989654541015625	-111.277773999999993748133420012891292572021484375	HOBO Rain Gauge Data Logger - RG3	HOBO Temperature/RH Smart Sensor (S-THB-M002)	Soil Moisture Smart Sensor - EC5 (S-SMC-M005)	2019-05-29T07:00:01	0.00	18.913	42.300	0.6060	5.8
429	AB07CD0350	WETLAND SAL01	SALINE (FEN)	56.573903999999998859493643976747989654541015625	-111.277773999999993748133420012891292572021484375	HOBO Rain Gauge Data Logger - RG3	HOBO Temperature/RH Smart Sensor (S-THB-M002)	Soil Moisture Smart Sensor - EC5 (S-SMC-M005)	2019-05-29T08:00:01	0.00	18.390	42.800	0.6060	5.5
430	AB07CD0350	WETLAND SAL01	SALINE (FEN)	56.573903999999998859493643976747989654541015625	-111.277773999999993748133420012891292572021484375	HOBO Rain Gauge Data Logger - RG3	HOBO Temperature/RH Smart Sensor (S-THB-M002)	Soil Moisture Smart Sensor - EC5 (S-SMC-M005)	2019-05-29T09:00:01	0.00	20.126	42.100	0.6060	6.9
431	AB07CD0350	WETLAND SAL01	SALINE (FEN)	56.573903999999998859493643976747989654541015625	-111.277773999999993748133420012891292572021484375	HOBO Rain Gauge Data Logger - RG3	HOBO Temperature/RH Smart Sensor (S-THB-M002)	Soil Moisture Smart Sensor - EC5 (S-SMC-M005)	2019-05-29T10:00:01	0.00	22.369	39.400	0.6060	7.9
432	AB07CD0350	WETLAND SAL01	SALINE (FEN)	56.573903999999998859493643976747989654541015625	-111.277773999999993748133420012891292572021484375	HOBO Rain Gauge Data Logger - RG3	HOBO Temperature/RH Smart Sensor (S-THB-M002)	Soil Moisture Smart Sensor - EC5 (S-SMC-M005)	2019-05-29T11:00:01	0.00	24.267	34.900	0.6060	7.8
433	AB07CD0350	WETLAND SAL01	SALINE (FEN)	56.573903999999998859493643976747989654541015625	-111.277773999999993748133420012891292572021484375	HOBO Rain Gauge Data Logger - RG3	HOBO Temperature/RH Smart Sensor (S-THB-M002)	Soil Moisture Smart Sensor - EC5 (S-SMC-M005)	2019-05-29T12:00:01	0.00	26.280	31.000	0.6060	7.8
434	AB07CD0350	WETLAND SAL01	SALINE (FEN)	56.573903999999998859493643976747989654541015625	-111.277773999999993748133420012891292572021484375	HOBO Rain Gauge Data Logger - RG3	HOBO Temperature/RH Smart Sensor (S-THB-M002)	Soil Moisture Smart Sensor - EC5 (S-SMC-M005)	2019-05-29T13:00:01	0.00	27.358	27.500	0.6068	7.0
435	AB07CD0350	WETLAND SAL01	SALINE (FEN)	56.573903999999998859493643976747989654541015625	-111.277773999999993748133420012891292572021484375	HOBO Rain Gauge Data Logger - RG3	HOBO Temperature/RH Smart Sensor (S-THB-M002)	Soil Moisture Smart Sensor - EC5 (S-SMC-M005)	2019-05-29T14:00:01	0.00	28.568	25.900	0.6068	7.2
436	AB07CD0350	WETLAND SAL01	SALINE (FEN)	56.573903999999998859493643976747989654541015625	-111.277773999999993748133420012891292572021484375	HOBO Rain Gauge Data Logger - RG3	HOBO Temperature/RH Smart Sensor (S-THB-M002)	Soil Moisture Smart Sensor - EC5 (S-SMC-M005)	2019-05-29T15:00:01	0.00	28.816	23.800	0.6068	6.1
437	AB07CD0350	WETLAND SAL01	SALINE (FEN)	56.573903999999998859493643976747989654541015625	-111.277773999999993748133420012891292572021484375	HOBO Rain Gauge Data Logger - RG3	HOBO Temperature/RH Smart Sensor (S-THB-M002)	Soil Moisture Smart Sensor - EC5 (S-SMC-M005)	2019-05-29T16:00:01	0.00	29.439	22.300	0.6068	5.7
438	AB07CD0350	WETLAND SAL01	SALINE (FEN)	56.573903999999998859493643976747989654541015625	-111.277773999999993748133420012891292572021484375	HOBO Rain Gauge Data Logger - RG3	HOBO Temperature/RH Smart Sensor (S-THB-M002)	Soil Moisture Smart Sensor - EC5 (S-SMC-M005)	2019-05-29T17:00:01	0.00	29.966	21.600	0.6068	5.7
439	AB07CD0350	WETLAND SAL01	SALINE (FEN)	56.573903999999998859493643976747989654541015625	-111.277773999999993748133420012891292572021484375	HOBO Rain Gauge Data Logger - RG3	HOBO Temperature/RH Smart Sensor (S-THB-M002)	Soil Moisture Smart Sensor - EC5 (S-SMC-M005)	2019-05-29T18:00:01	0.00	28.717	22.700	0.6068	5.4
440	AB07CD0350	WETLAND SAL01	SALINE (FEN)	56.573903999999998859493643976747989654541015625	-111.277773999999993748133420012891292572021484375	HOBO Rain Gauge Data Logger - RG3	HOBO Temperature/RH Smart Sensor (S-THB-M002)	Soil Moisture Smart Sensor - EC5 (S-SMC-M005)	2019-05-29T19:00:01	0.00	25.768	29.900	0.6068	6.9
441	AB07CD0350	WETLAND SAL01	SALINE (FEN)	56.573903999999998859493643976747989654541015625	-111.277773999999993748133420012891292572021484375	HOBO Rain Gauge Data Logger - RG3	HOBO Temperature/RH Smart Sensor (S-THB-M002)	Soil Moisture Smart Sensor - EC5 (S-SMC-M005)	2019-05-29T20:00:01	0.00	22.609	47.700	0.6068	11.0
442	AB07CD0350	WETLAND SAL01	SALINE (FEN)	56.573903999999998859493643976747989654541015625	-111.277773999999993748133420012891292572021484375	HOBO Rain Gauge Data Logger - RG3	HOBO Temperature/RH Smart Sensor (S-THB-M002)	Soil Moisture Smart Sensor - EC5 (S-SMC-M005)	2019-05-29T21:00:01	0.00	20.793	58.500	0.6068	12.4
443	AB07CD0350	WETLAND SAL01	SALINE (FEN)	56.573903999999998859493643976747989654541015625	-111.277773999999993748133420012891292572021484375	HOBO Rain Gauge Data Logger - RG3	HOBO Temperature/RH Smart Sensor (S-THB-M002)	Soil Moisture Smart Sensor - EC5 (S-SMC-M005)	2019-05-29T22:00:01	0.00	20.507	45.800	0.6068	8.4
444	AB07CD0350	WETLAND SAL01	SALINE (FEN)	56.573903999999998859493643976747989654541015625	-111.277773999999993748133420012891292572021484375	HOBO Rain Gauge Data Logger - RG3	HOBO Temperature/RH Smart Sensor (S-THB-M002)	Soil Moisture Smart Sensor - EC5 (S-SMC-M005)	2019-05-29T23:00:01	0.00	21.581	42.700	0.6068	8.4
445	AB07CD0350	WETLAND SAL01	SALINE (FEN)	56.573903999999998859493643976747989654541015625	-111.277773999999993748133420012891292572021484375	HOBO Rain Gauge Data Logger - RG3	HOBO Temperature/RH Smart Sensor (S-THB-M002)	Soil Moisture Smart Sensor - EC5 (S-SMC-M005)	2019-05-30T00:00:01	0.00	19.770	43.600	0.6075	7.1
446	AB07CD0350	WETLAND SAL01	SALINE (FEN)	56.573903999999998859493643976747989654541015625	-111.277773999999993748133420012891292572021484375	HOBO Rain Gauge Data Logger - RG3	HOBO Temperature/RH Smart Sensor (S-THB-M002)	Soil Moisture Smart Sensor - EC5 (S-SMC-M005)	2019-05-30T01:00:01	0.00	17.177	48.700	0.6075	6.3
447	AB07CD0350	WETLAND SAL01	SALINE (FEN)	56.573903999999998859493643976747989654541015625	-111.277773999999993748133420012891292572021484375	HOBO Rain Gauge Data Logger - RG3	HOBO Temperature/RH Smart Sensor (S-THB-M002)	Soil Moisture Smart Sensor - EC5 (S-SMC-M005)	2019-05-30T02:00:01	0.00	15.605	51.700	0.6075	5.7
448	AB07CD0350	WETLAND SAL01	SALINE (FEN)	56.573903999999998859493643976747989654541015625	-111.277773999999993748133420012891292572021484375	HOBO Rain Gauge Data Logger - RG3	HOBO Temperature/RH Smart Sensor (S-THB-M002)	Soil Moisture Smart Sensor - EC5 (S-SMC-M005)	2019-05-30T03:00:01	0.00	14.601	51.900	0.6075	4.8
449	AB07CD0350	WETLAND SAL01	SALINE (FEN)	56.573903999999998859493643976747989654541015625	-111.277773999999993748133420012891292572021484375	HOBO Rain Gauge Data Logger - RG3	HOBO Temperature/RH Smart Sensor (S-THB-M002)	Soil Moisture Smart Sensor - EC5 (S-SMC-M005)	2019-05-30T04:00:01	0.00	13.906	55.000	0.6075	5.0
450	AB07CD0350	WETLAND SAL01	SALINE (FEN)	56.573903999999998859493643976747989654541015625	-111.277773999999993748133420012891292572021484375	HOBO Rain Gauge Data Logger - RG3	HOBO Temperature/RH Smart Sensor (S-THB-M002)	Soil Moisture Smart Sensor - EC5 (S-SMC-M005)	2019-05-30T05:00:01	0.00	12.437	59.500	0.6075	4.8
451	AB07CD0350	WETLAND SAL01	SALINE (FEN)	56.573903999999998859493643976747989654541015625	-111.277773999999993748133420012891292572021484375	HOBO Rain Gauge Data Logger - RG3	HOBO Temperature/RH Smart Sensor (S-THB-M002)	Soil Moisture Smart Sensor - EC5 (S-SMC-M005)	2019-05-30T06:00:01	0.00	11.662	62.500	0.6075	4.8
452	AB07CD0350	WETLAND SAL01	SALINE (FEN)	56.573903999999998859493643976747989654541015625	-111.277773999999993748133420012891292572021484375	HOBO Rain Gauge Data Logger - RG3	HOBO Temperature/RH Smart Sensor (S-THB-M002)	Soil Moisture Smart Sensor - EC5 (S-SMC-M005)	2019-05-30T07:00:01	0.00	11.102	61.900	0.6075	4.1
453	AB07CD0350	WETLAND SAL01	SALINE (FEN)	56.573903999999998859493643976747989654541015625	-111.277773999999993748133420012891292572021484375	HOBO Rain Gauge Data Logger - RG3	HOBO Temperature/RH Smart Sensor (S-THB-M002)	Soil Moisture Smart Sensor - EC5 (S-SMC-M005)	2019-05-30T08:00:01	0.00	12.098	59.200	0.6075	4.4
454	AB07CD0350	WETLAND SAL01	SALINE (FEN)	56.573903999999998859493643976747989654541015625	-111.277773999999993748133420012891292572021484375	HOBO Rain Gauge Data Logger - RG3	HOBO Temperature/RH Smart Sensor (S-THB-M002)	Soil Moisture Smart Sensor - EC5 (S-SMC-M005)	2019-05-30T09:00:01	0.00	11.151	55.400	0.6082	2.6
455	AB07CD0350	WETLAND SAL01	SALINE (FEN)	56.573903999999998859493643976747989654541015625	-111.277773999999993748133420012891292572021484375	HOBO Rain Gauge Data Logger - RG3	HOBO Temperature/RH Smart Sensor (S-THB-M002)	Soil Moisture Smart Sensor - EC5 (S-SMC-M005)	2019-05-30T10:00:01	0.00	12.268	55.000	0.6082	3.5
456	AB07CD0350	WETLAND SAL01	SALINE (FEN)	56.573903999999998859493643976747989654541015625	-111.277773999999993748133420012891292572021484375	HOBO Rain Gauge Data Logger - RG3	HOBO Temperature/RH Smart Sensor (S-THB-M002)	Soil Moisture Smart Sensor - EC5 (S-SMC-M005)	2019-05-30T11:00:01	0.00	11.005	54.300	0.6082	2.1
457	AB07CD0350	WETLAND SAL01	SALINE (FEN)	56.573903999999998859493643976747989654541015625	-111.277773999999993748133420012891292572021484375	HOBO Rain Gauge Data Logger - RG3	HOBO Temperature/RH Smart Sensor (S-THB-M002)	Soil Moisture Smart Sensor - EC5 (S-SMC-M005)	2019-05-30T12:00:01	0.00	11.102	51.900	0.6082	1.6
458	AB07CD0350	WETLAND SAL01	SALINE (FEN)	56.573903999999998859493643976747989654541015625	-111.277773999999993748133420012891292572021484375	HOBO Rain Gauge Data Logger - RG3	HOBO Temperature/RH Smart Sensor (S-THB-M002)	Soil Moisture Smart Sensor - EC5 (S-SMC-M005)	2019-05-30T13:00:01	0.00	11.807	49.700	0.6082	1.6
459	AB07CD0350	WETLAND SAL01	SALINE (FEN)	56.573903999999998859493643976747989654541015625	-111.277773999999993748133420012891292572021484375	HOBO Rain Gauge Data Logger - RG3	HOBO Temperature/RH Smart Sensor (S-THB-M002)	Soil Moisture Smart Sensor - EC5 (S-SMC-M005)	2019-05-30T14:00:01	0.00	12.147	48.300	0.6075	1.6
460	AB07CD0350	WETLAND SAL01	SALINE (FEN)	56.573903999999998859493643976747989654541015625	-111.277773999999993748133420012891292572021484375	HOBO Rain Gauge Data Logger - RG3	HOBO Temperature/RH Smart Sensor (S-THB-M002)	Soil Moisture Smart Sensor - EC5 (S-SMC-M005)	2019-05-30T15:00:01	0.00	12.630	47.000	0.6082	1.6
461	AB07CD0350	WETLAND SAL01	SALINE (FEN)	56.573903999999998859493643976747989654541015625	-111.277773999999993748133420012891292572021484375	HOBO Rain Gauge Data Logger - RG3	HOBO Temperature/RH Smart Sensor (S-THB-M002)	Soil Moisture Smart Sensor - EC5 (S-SMC-M005)	2019-05-30T16:00:01	0.00	12.896	46.100	0.6075	1.6
462	AB07CD0350	WETLAND SAL01	SALINE (FEN)	56.573903999999998859493643976747989654541015625	-111.277773999999993748133420012891292572021484375	HOBO Rain Gauge Data Logger - RG3	HOBO Temperature/RH Smart Sensor (S-THB-M002)	Soil Moisture Smart Sensor - EC5 (S-SMC-M005)	2019-05-30T17:00:01	0.00	13.209	45.500	0.6075	1.7
463	AB07CD0350	WETLAND SAL01	SALINE (FEN)	56.573903999999998859493643976747989654541015625	-111.277773999999993748133420012891292572021484375	HOBO Rain Gauge Data Logger - RG3	HOBO Temperature/RH Smart Sensor (S-THB-M002)	Soil Moisture Smart Sensor - EC5 (S-SMC-M005)	2019-05-30T18:00:01	0.00	13.185	46.300	0.6075	1.9
464	AB07CD0350	WETLAND SAL01	SALINE (FEN)	56.573903999999998859493643976747989654541015625	-111.277773999999993748133420012891292572021484375	HOBO Rain Gauge Data Logger - RG3	HOBO Temperature/RH Smart Sensor (S-THB-M002)	Soil Moisture Smart Sensor - EC5 (S-SMC-M005)	2019-05-30T19:00:01	0.00	12.751	47.000	0.6082	1.7
465	AB07CD0350	WETLAND SAL01	SALINE (FEN)	56.573903999999998859493643976747989654541015625	-111.277773999999993748133420012891292572021484375	HOBO Rain Gauge Data Logger - RG3	HOBO Temperature/RH Smart Sensor (S-THB-M002)	Soil Moisture Smart Sensor - EC5 (S-SMC-M005)	2019-05-30T20:00:01	0.00	12.292	48.200	0.6075	1.7
466	AB07CD0350	WETLAND SAL01	SALINE (FEN)	56.573903999999998859493643976747989654541015625	-111.277773999999993748133420012891292572021484375	HOBO Rain Gauge Data Logger - RG3	HOBO Temperature/RH Smart Sensor (S-THB-M002)	Soil Moisture Smart Sensor - EC5 (S-SMC-M005)	2019-05-30T21:00:01	0.00	11.200	49.500	0.6082	1.0
467	AB07CD0350	WETLAND SAL01	SALINE (FEN)	56.573903999999998859493643976747989654541015625	-111.277773999999993748133420012891292572021484375	HOBO Rain Gauge Data Logger - RG3	HOBO Temperature/RH Smart Sensor (S-THB-M002)	Soil Moisture Smart Sensor - EC5 (S-SMC-M005)	2019-05-30T22:00:01	0.00	7.970	55.100	0.6082	-0.5
468	AB07CD0350	WETLAND SAL01	SALINE (FEN)	56.573903999999998859493643976747989654541015625	-111.277773999999993748133420012891292572021484375	HOBO Rain Gauge Data Logger - RG3	HOBO Temperature/RH Smart Sensor (S-THB-M002)	Soil Moisture Smart Sensor - EC5 (S-SMC-M005)	2019-05-30T23:00:01	0.00	1.317	71.000	0.6075	-3.4
469	AB07CD0350	WETLAND SAL01	SALINE (FEN)	56.573903999999998859493643976747989654541015625	-111.277773999999993748133420012891292572021484375	HOBO Rain Gauge Data Logger - RG3	HOBO Temperature/RH Smart Sensor (S-THB-M002)	Soil Moisture Smart Sensor - EC5 (S-SMC-M005)	2019-05-31T00:00:01	0.00	-0.930	83.400	0.6082	-3.4
470	AB07CD0350	WETLAND SAL01	SALINE (FEN)	56.573903999999998859493643976747989654541015625	-111.277773999999993748133420012891292572021484375	HOBO Rain Gauge Data Logger - RG3	HOBO Temperature/RH Smart Sensor (S-THB-M002)	Soil Moisture Smart Sensor - EC5 (S-SMC-M005)	2019-05-31T01:00:01	0.00	-1.699	87.600	0.6082	-3.5
471	AB07CD0350	WETLAND SAL01	SALINE (FEN)	56.573903999999998859493643976747989654541015625	-111.277773999999993748133420012891292572021484375	HOBO Rain Gauge Data Logger - RG3	HOBO Temperature/RH Smart Sensor (S-THB-M002)	Soil Moisture Smart Sensor - EC5 (S-SMC-M005)	2019-05-31T02:00:01	0.00	-2.421	89.200	0.6082	-4.0
472	AB07CD0350	WETLAND SAL01	SALINE (FEN)	56.573903999999998859493643976747989654541015625	-111.277773999999993748133420012891292572021484375	HOBO Rain Gauge Data Logger - RG3	HOBO Temperature/RH Smart Sensor (S-THB-M002)	Soil Moisture Smart Sensor - EC5 (S-SMC-M005)	2019-05-31T03:00:01	0.00	-2.888	90.300	0.6082	-4.3
473	AB07CD0350	WETLAND SAL01	SALINE (FEN)	56.573903999999998859493643976747989654541015625	-111.277773999999993748133420012891292572021484375	HOBO Rain Gauge Data Logger - RG3	HOBO Temperature/RH Smart Sensor (S-THB-M002)	Soil Moisture Smart Sensor - EC5 (S-SMC-M005)	2019-05-31T04:00:01	0.00	-3.687	91.500	0.6082	-4.9
474	AB07CD0350	WETLAND SAL01	SALINE (FEN)	56.573903999999998859493643976747989654541015625	-111.277773999999993748133420012891292572021484375	HOBO Rain Gauge Data Logger - RG3	HOBO Temperature/RH Smart Sensor (S-THB-M002)	Soil Moisture Smart Sensor - EC5 (S-SMC-M005)	2019-05-31T05:00:01	0.00	-3.956	92.400	0.6075	-5.0
475	AB07CD0350	WETLAND SAL01	SALINE (FEN)	56.573903999999998859493643976747989654541015625	-111.277773999999993748133420012891292572021484375	HOBO Rain Gauge Data Logger - RG3	HOBO Temperature/RH Smart Sensor (S-THB-M002)	Soil Moisture Smart Sensor - EC5 (S-SMC-M005)	2019-05-31T06:00:01	0.00	-1.470	92.000	0.6075	-2.6
476	AB07CD0350	WETLAND SAL01	SALINE (FEN)	56.573903999999998859493643976747989654541015625	-111.277773999999993748133420012891292572021484375	HOBO Rain Gauge Data Logger - RG3	HOBO Temperature/RH Smart Sensor (S-THB-M002)	Soil Moisture Smart Sensor - EC5 (S-SMC-M005)	2019-05-31T07:00:01	0.00	2.450	88.500	0.6075	0.7
477	AB07CD0350	WETLAND SAL01	SALINE (FEN)	56.573903999999998859493643976747989654541015625	-111.277773999999993748133420012891292572021484375	HOBO Rain Gauge Data Logger - RG3	HOBO Temperature/RH Smart Sensor (S-THB-M002)	Soil Moisture Smart Sensor - EC5 (S-SMC-M005)	2019-05-31T08:00:01	0.00	7.569	78.800	0.6075	4.1
478	AB07CD0350	WETLAND SAL01	SALINE (FEN)	56.573903999999998859493643976747989654541015625	-111.277773999999993748133420012891292572021484375	HOBO Rain Gauge Data Logger - RG3	HOBO Temperature/RH Smart Sensor (S-THB-M002)	Soil Moisture Smart Sensor - EC5 (S-SMC-M005)	2019-05-31T09:00:01	0.00	11.516	65.500	0.6075	5.3
479	AB07CD0350	WETLAND SAL01	SALINE (FEN)	56.573903999999998859493643976747989654541015625	-111.277773999999993748133420012891292572021484375	HOBO Rain Gauge Data Logger - RG3	HOBO Temperature/RH Smart Sensor (S-THB-M002)	Soil Moisture Smart Sensor - EC5 (S-SMC-M005)	2019-05-31T10:00:01	0.00	13.618	53.200	0.6075	4.3
480	AB07CD0350	WETLAND SAL01	SALINE (FEN)	56.573903999999998859493643976747989654541015625	-111.277773999999993748133420012891292572021484375	HOBO Rain Gauge Data Logger - RG3	HOBO Temperature/RH Smart Sensor (S-THB-M002)	Soil Moisture Smart Sensor - EC5 (S-SMC-M005)	2019-05-31T11:00:01	0.00	15.008	46.400	0.6075	3.6
481	AB07CD0350	WETLAND SAL01	SALINE (FEN)	56.573903999999998859493643976747989654541015625	-111.277773999999993748133420012891292572021484375	HOBO Rain Gauge Data Logger - RG3	HOBO Temperature/RH Smart Sensor (S-THB-M002)	Soil Moisture Smart Sensor - EC5 (S-SMC-M005)	2019-05-31T12:00:01	0.00	15.605	43.200	0.6068	3.2
482	AB07CD0350	WETLAND SAL01	SALINE (FEN)	56.573903999999998859493643976747989654541015625	-111.277773999999993748133420012891292572021484375	HOBO Rain Gauge Data Logger - RG3	HOBO Temperature/RH Smart Sensor (S-THB-M002)	Soil Moisture Smart Sensor - EC5 (S-SMC-M005)	2019-05-31T13:00:01	0.00	17.391	40.100	0.6068	3.7
483	AB07CD0350	WETLAND SAL01	SALINE (FEN)	56.573903999999998859493643976747989654541015625	-111.277773999999993748133420012891292572021484375	HOBO Rain Gauge Data Logger - RG3	HOBO Temperature/RH Smart Sensor (S-THB-M002)	Soil Moisture Smart Sensor - EC5 (S-SMC-M005)	2019-05-31T14:00:01	0.00	17.486	37.300	0.6068	2.8
484	AB07CD0350	WETLAND SAL01	SALINE (FEN)	56.573903999999998859493643976747989654541015625	-111.277773999999993748133420012891292572021484375	HOBO Rain Gauge Data Logger - RG3	HOBO Temperature/RH Smart Sensor (S-THB-M002)	Soil Moisture Smart Sensor - EC5 (S-SMC-M005)	2019-05-31T15:00:01	0.00	18.818	33.800	0.6068	2.6
485	AB07CD0350	WETLAND SAL01	SALINE (FEN)	56.573903999999998859493643976747989654541015625	-111.277773999999993748133420012891292572021484375	HOBO Rain Gauge Data Logger - RG3	HOBO Temperature/RH Smart Sensor (S-THB-M002)	Soil Moisture Smart Sensor - EC5 (S-SMC-M005)	2019-05-31T16:00:01	0.00	17.320	32.400	0.6068	0.7
486	AB07CD0350	WETLAND SAL01	SALINE (FEN)	56.573903999999998859493643976747989654541015625	-111.277773999999993748133420012891292572021484375	HOBO Rain Gauge Data Logger - RG3	HOBO Temperature/RH Smart Sensor (S-THB-M002)	Soil Moisture Smart Sensor - EC5 (S-SMC-M005)	2019-05-31T17:00:01	0.00	18.747	31.300	0.6068	1.4
487	AB07CD0350	WETLAND SAL01	SALINE (FEN)	56.573903999999998859493643976747989654541015625	-111.277773999999993748133420012891292572021484375	HOBO Rain Gauge Data Logger - RG3	HOBO Temperature/RH Smart Sensor (S-THB-M002)	Soil Moisture Smart Sensor - EC5 (S-SMC-M005)	2019-05-31T18:00:01	0.00	19.389	31.200	0.6068	1.9
488	AB07CD0350	WETLAND SAL01	SALINE (FEN)	56.573903999999998859493643976747989654541015625	-111.277773999999993748133420012891292572021484375	HOBO Rain Gauge Data Logger - RG3	HOBO Temperature/RH Smart Sensor (S-THB-M002)	Soil Moisture Smart Sensor - EC5 (S-SMC-M005)	2019-05-31T19:00:01	0.00	18.937	26.900	0.6068	-0.5
489	AB07CD0350	WETLAND SAL01	SALINE (FEN)	56.573903999999998859493643976747989654541015625	-111.277773999999993748133420012891292572021484375	HOBO Rain Gauge Data Logger - RG3	HOBO Temperature/RH Smart Sensor (S-THB-M002)	Soil Moisture Smart Sensor - EC5 (S-SMC-M005)	2019-05-31T20:00:01	0.00	17.534	28.800	0.6068	-0.8
490	AB07CD0350	WETLAND SAL01	SALINE (FEN)	56.573903999999998859493643976747989654541015625	-111.277773999999993748133420012891292572021484375	HOBO Rain Gauge Data Logger - RG3	HOBO Temperature/RH Smart Sensor (S-THB-M002)	Soil Moisture Smart Sensor - EC5 (S-SMC-M005)	2019-05-31T21:00:01	0.00	15.008	40.300	0.6060	1.6
491	AB07CD0350	WETLAND SAL01	SALINE (FEN)	56.573903999999998859493643976747989654541015625	-111.277773999999993748133420012891292572021484375	HOBO Rain Gauge Data Logger - RG3	HOBO Temperature/RH Smart Sensor (S-THB-M002)	Soil Moisture Smart Sensor - EC5 (S-SMC-M005)	2019-05-31T22:00:01	0.00	10.320	58.500	0.6068	2.5
492	AB07CD0350	WETLAND SAL01	SALINE (FEN)	56.573903999999998859493643976747989654541015625	-111.277773999999993748133420012891292572021484375	HOBO Rain Gauge Data Logger - RG3	HOBO Temperature/RH Smart Sensor (S-THB-M002)	Soil Moisture Smart Sensor - EC5 (S-SMC-M005)	2019-05-31T23:00:01	0.00	7.469	68.600	0.6068	2.1
493	AB07CD0350	WETLAND SAL01	SALINE (FEN)	56.573903999999998859493643976747989654541015625	-111.277773999999993748133420012891292572021484375	HOBO Rain Gauge Data Logger - RG3	HOBO Temperature/RH Smart Sensor (S-THB-M002)	Soil Moisture Smart Sensor - EC5 (S-SMC-M005)	2019-06-01T00:00:01	0.00	8.369	73.400	0.6068	3.9
494	AB07CD0350	WETLAND SAL01	SALINE (FEN)	56.573903999999998859493643976747989654541015625	-111.277773999999993748133420012891292572021484375	HOBO Rain Gauge Data Logger - RG3	HOBO Temperature/RH Smart Sensor (S-THB-M002)	Soil Moisture Smart Sensor - EC5 (S-SMC-M005)	2019-06-01T01:00:01	0.00	12.775	59.900	0.6068	5.2
495	AB07CD0350	WETLAND SAL01	SALINE (FEN)	56.573903999999998859493643976747989654541015625	-111.277773999999993748133420012891292572021484375	HOBO Rain Gauge Data Logger - RG3	HOBO Temperature/RH Smart Sensor (S-THB-M002)	Soil Moisture Smart Sensor - EC5 (S-SMC-M005)	2019-06-01T02:00:01	0.00	12.268	45.900	0.6068	1.0
496	AB07CD0350	WETLAND SAL01	SALINE (FEN)	56.573903999999998859493643976747989654541015625	-111.277773999999993748133420012891292572021484375	HOBO Rain Gauge Data Logger - RG3	HOBO Temperature/RH Smart Sensor (S-THB-M002)	Soil Moisture Smart Sensor - EC5 (S-SMC-M005)	2019-06-01T03:00:01	0.00	11.613	48.800	0.6068	1.2
497	AB07CD0350	WETLAND SAL01	SALINE (FEN)	56.573903999999998859493643976747989654541015625	-111.277773999999993748133420012891292572021484375	HOBO Rain Gauge Data Logger - RG3	HOBO Temperature/RH Smart Sensor (S-THB-M002)	Soil Moisture Smart Sensor - EC5 (S-SMC-M005)	2019-06-01T04:00:01	0.00	11.880	51.400	0.6068	2.2
498	AB07CD0350	WETLAND SAL01	SALINE (FEN)	56.573903999999998859493643976747989654541015625	-111.277773999999993748133420012891292572021484375	HOBO Rain Gauge Data Logger - RG3	HOBO Temperature/RH Smart Sensor (S-THB-M002)	Soil Moisture Smart Sensor - EC5 (S-SMC-M005)	2019-06-01T05:00:01	0.00	10.712	54.900	0.6068	2.0
499	AB07CD0350	WETLAND SAL01	SALINE (FEN)	56.573903999999998859493643976747989654541015625	-111.277773999999993748133420012891292572021484375	HOBO Rain Gauge Data Logger - RG3	HOBO Temperature/RH Smart Sensor (S-THB-M002)	Soil Moisture Smart Sensor - EC5 (S-SMC-M005)	2019-06-01T06:00:01	0.00	10.247	59.100	0.6068	2.6
500	AB07CD0350	WETLAND SAL01	SALINE (FEN)	56.573903999999998859493643976747989654541015625	-111.277773999999993748133420012891292572021484375	HOBO Rain Gauge Data Logger - RG3	HOBO Temperature/RH Smart Sensor (S-THB-M002)	Soil Moisture Smart Sensor - EC5 (S-SMC-M005)	2019-06-01T07:00:01	0.00	10.687	62.200	0.6068	3.8
501	AB07CD0350	WETLAND SAL01	SALINE (FEN)	56.573903999999998859493643976747989654541015625	-111.277773999999993748133420012891292572021484375	HOBO Rain Gauge Data Logger - RG3	HOBO Temperature/RH Smart Sensor (S-THB-M002)	Soil Moisture Smart Sensor - EC5 (S-SMC-M005)	2019-06-01T08:00:01	0.00	10.467	61.900	0.6068	3.5
502	AB07CD0350	WETLAND SAL01	SALINE (FEN)	56.573903999999998859493643976747989654541015625	-111.277773999999993748133420012891292572021484375	HOBO Rain Gauge Data Logger - RG3	HOBO Temperature/RH Smart Sensor (S-THB-M002)	Soil Moisture Smart Sensor - EC5 (S-SMC-M005)	2019-06-01T09:00:01	0.00	10.932	61.200	0.6075	3.8
503	AB07CD0350	WETLAND SAL01	SALINE (FEN)	56.573903999999998859493643976747989654541015625	-111.277773999999993748133420012891292572021484375	HOBO Rain Gauge Data Logger - RG3	HOBO Temperature/RH Smart Sensor (S-THB-M002)	Soil Moisture Smart Sensor - EC5 (S-SMC-M005)	2019-06-01T10:00:01	0.00	12.316	57.100	0.6075	4.1
504	AB07CD0350	WETLAND SAL01	SALINE (FEN)	56.573903999999998859493643976747989654541015625	-111.277773999999993748133420012891292572021484375	HOBO Rain Gauge Data Logger - RG3	HOBO Temperature/RH Smart Sensor (S-THB-M002)	Soil Moisture Smart Sensor - EC5 (S-SMC-M005)	2019-06-01T11:00:01	0.00	13.666	54.200	0.6075	4.6
505	AB07CD0350	WETLAND SAL01	SALINE (FEN)	56.573903999999998859493643976747989654541015625	-111.277773999999993748133420012891292572021484375	HOBO Rain Gauge Data Logger - RG3	HOBO Temperature/RH Smart Sensor (S-THB-M002)	Soil Moisture Smart Sensor - EC5 (S-SMC-M005)	2019-06-01T12:00:01	0.00	13.040	54.800	0.6068	4.2
506	AB07CD0350	WETLAND SAL01	SALINE (FEN)	56.573903999999998859493643976747989654541015625	-111.277773999999993748133420012891292572021484375	HOBO Rain Gauge Data Logger - RG3	HOBO Temperature/RH Smart Sensor (S-THB-M002)	Soil Moisture Smart Sensor - EC5 (S-SMC-M005)	2019-06-01T13:00:01	0.00	14.002	57.100	0.6068	5.7
507	AB07CD0350	WETLAND SAL01	SALINE (FEN)	56.573903999999998859493643976747989654541015625	-111.277773999999993748133420012891292572021484375	HOBO Rain Gauge Data Logger - RG3	HOBO Temperature/RH Smart Sensor (S-THB-M002)	Soil Moisture Smart Sensor - EC5 (S-SMC-M005)	2019-06-01T14:00:01	0.00	15.605	53.400	0.6068	6.2
508	AB07CD0350	WETLAND SAL01	SALINE (FEN)	56.573903999999998859493643976747989654541015625	-111.277773999999993748133420012891292572021484375	HOBO Rain Gauge Data Logger - RG3	HOBO Temperature/RH Smart Sensor (S-THB-M002)	Soil Moisture Smart Sensor - EC5 (S-SMC-M005)	2019-06-01T15:00:01	0.00	18.438	48.800	0.6068	7.5
509	AB07CD0350	WETLAND SAL01	SALINE (FEN)	56.573903999999998859493643976747989654541015625	-111.277773999999993748133420012891292572021484375	HOBO Rain Gauge Data Logger - RG3	HOBO Temperature/RH Smart Sensor (S-THB-M002)	Soil Moisture Smart Sensor - EC5 (S-SMC-M005)	2019-06-01T16:00:01	0.00	17.320	45.700	0.6068	5.5
510	AB07CD0350	WETLAND SAL01	SALINE (FEN)	56.573903999999998859493643976747989654541015625	-111.277773999999993748133420012891292572021484375	HOBO Rain Gauge Data Logger - RG3	HOBO Temperature/RH Smart Sensor (S-THB-M002)	Soil Moisture Smart Sensor - EC5 (S-SMC-M005)	2019-06-01T17:00:01	0.00	16.963	48.100	0.6068	5.9
511	AB07CD0350	WETLAND SAL01	SALINE (FEN)	56.573903999999998859493643976747989654541015625	-111.277773999999993748133420012891292572021484375	HOBO Rain Gauge Data Logger - RG3	HOBO Temperature/RH Smart Sensor (S-THB-M002)	Soil Moisture Smart Sensor - EC5 (S-SMC-M005)	2019-06-01T18:00:01	0.00	17.034	53.800	0.6068	7.6
512	AB07CD0350	WETLAND SAL01	SALINE (FEN)	56.573903999999998859493643976747989654541015625	-111.277773999999993748133420012891292572021484375	HOBO Rain Gauge Data Logger - RG3	HOBO Temperature/RH Smart Sensor (S-THB-M002)	Soil Moisture Smart Sensor - EC5 (S-SMC-M005)	2019-06-01T19:00:01	0.00	17.724	50.500	0.6068	7.3
513	AB07CD0350	WETLAND SAL01	SALINE (FEN)	56.573903999999998859493643976747989654541015625	-111.277773999999993748133420012891292572021484375	HOBO Rain Gauge Data Logger - RG3	HOBO Temperature/RH Smart Sensor (S-THB-M002)	Soil Moisture Smart Sensor - EC5 (S-SMC-M005)	2019-06-01T20:00:01	0.20	13.882	57.600	0.6060	5.7
514	AB07CD0350	WETLAND SAL01	SALINE (FEN)	56.573903999999998859493643976747989654541015625	-111.277773999999993748133420012891292572021484375	HOBO Rain Gauge Data Logger - RG3	HOBO Temperature/RH Smart Sensor (S-THB-M002)	Soil Moisture Smart Sensor - EC5 (S-SMC-M005)	2019-06-01T21:00:01	2.80	12.461	83.900	0.6060	9.8
515	AB07CD0350	WETLAND SAL01	SALINE (FEN)	56.573903999999998859493643976747989654541015625	-111.277773999999993748133420012891292572021484375	HOBO Rain Gauge Data Logger - RG3	HOBO Temperature/RH Smart Sensor (S-THB-M002)	Soil Moisture Smart Sensor - EC5 (S-SMC-M005)	2019-06-01T22:00:01	0.80	13.064	89.400	0.6060	11.4
516	AB07CD0350	WETLAND SAL01	SALINE (FEN)	56.573903999999998859493643976747989654541015625	-111.277773999999993748133420012891292572021484375	HOBO Rain Gauge Data Logger - RG3	HOBO Temperature/RH Smart Sensor (S-THB-M002)	Soil Moisture Smart Sensor - EC5 (S-SMC-M005)	2019-06-01T23:00:01	0.20	12.775	85.500	0.6060	10.4
517	AB07CD0350	WETLAND SAL01	SALINE (FEN)	56.573903999999998859493643976747989654541015625	-111.277773999999993748133420012891292572021484375	HOBO Rain Gauge Data Logger - RG3	HOBO Temperature/RH Smart Sensor (S-THB-M002)	Soil Moisture Smart Sensor - EC5 (S-SMC-M005)	2019-06-02T00:00:01	6.20	13.570	87.500	0.6075	11.5
518	AB07CD0350	WETLAND SAL01	SALINE (FEN)	56.573903999999998859493643976747989654541015625	-111.277773999999993748133420012891292572021484375	HOBO Rain Gauge Data Logger - RG3	HOBO Temperature/RH Smart Sensor (S-THB-M002)	Soil Moisture Smart Sensor - EC5 (S-SMC-M005)	2019-06-02T01:00:01	0.00	11.856	82.100	0.6075	8.9
519	AB07CD0350	WETLAND SAL01	SALINE (FEN)	56.573903999999998859493643976747989654541015625	-111.277773999999993748133420012891292572021484375	HOBO Rain Gauge Data Logger - RG3	HOBO Temperature/RH Smart Sensor (S-THB-M002)	Soil Moisture Smart Sensor - EC5 (S-SMC-M005)	2019-06-02T02:00:01	0.00	11.078	84.400	0.6075	8.6
520	AB07CD0350	WETLAND SAL01	SALINE (FEN)	56.573903999999998859493643976747989654541015625	-111.277773999999993748133420012891292572021484375	HOBO Rain Gauge Data Logger - RG3	HOBO Temperature/RH Smart Sensor (S-THB-M002)	Soil Moisture Smart Sensor - EC5 (S-SMC-M005)	2019-06-02T03:00:01	2.20	10.810	87.500	0.6075	8.8
521	AB07CD0350	WETLAND SAL01	SALINE (FEN)	56.573903999999998859493643976747989654541015625	-111.277773999999993748133420012891292572021484375	HOBO Rain Gauge Data Logger - RG3	HOBO Temperature/RH Smart Sensor (S-THB-M002)	Soil Moisture Smart Sensor - EC5 (S-SMC-M005)	2019-06-02T04:00:01	0.00	11.370	89.900	0.6075	9.8
522	AB07CD0350	WETLAND SAL01	SALINE (FEN)	56.573903999999998859493643976747989654541015625	-111.277773999999993748133420012891292572021484375	HOBO Rain Gauge Data Logger - RG3	HOBO Temperature/RH Smart Sensor (S-THB-M002)	Soil Moisture Smart Sensor - EC5 (S-SMC-M005)	2019-06-02T05:00:01	2.80	11.102	90.600	0.6075	9.6
523	AB07CD0350	WETLAND SAL01	SALINE (FEN)	56.573903999999998859493643976747989654541015625	-111.277773999999993748133420012891292572021484375	HOBO Rain Gauge Data Logger - RG3	HOBO Temperature/RH Smart Sensor (S-THB-M002)	Soil Moisture Smart Sensor - EC5 (S-SMC-M005)	2019-06-02T06:00:01	0.60	11.273	92.900	0.6075	10.2
524	AB07CD0350	WETLAND SAL01	SALINE (FEN)	56.573903999999998859493643976747989654541015625	-111.277773999999993748133420012891292572021484375	HOBO Rain Gauge Data Logger - RG3	HOBO Temperature/RH Smart Sensor (S-THB-M002)	Soil Moisture Smart Sensor - EC5 (S-SMC-M005)	2019-06-02T07:00:01	1.00	12.775	93.300	0.6075	11.7
525	AB07CD0350	WETLAND SAL01	SALINE (FEN)	56.573903999999998859493643976747989654541015625	-111.277773999999993748133420012891292572021484375	HOBO Rain Gauge Data Logger - RG3	HOBO Temperature/RH Smart Sensor (S-THB-M002)	Soil Moisture Smart Sensor - EC5 (S-SMC-M005)	2019-06-02T08:00:01	0.00	14.122	89.400	0.6075	12.4
526	AB07CD0350	WETLAND SAL01	SALINE (FEN)	56.573903999999998859493643976747989654541015625	-111.277773999999993748133420012891292572021484375	HOBO Rain Gauge Data Logger - RG3	HOBO Temperature/RH Smart Sensor (S-THB-M002)	Soil Moisture Smart Sensor - EC5 (S-SMC-M005)	2019-06-02T09:00:01	0.00	15.963	76.600	0.6075	11.9
527	AB07CD0350	WETLAND SAL01	SALINE (FEN)	56.573903999999998859493643976747989654541015625	-111.277773999999993748133420012891292572021484375	HOBO Rain Gauge Data Logger - RG3	HOBO Temperature/RH Smart Sensor (S-THB-M002)	Soil Moisture Smart Sensor - EC5 (S-SMC-M005)	2019-06-02T10:00:01	0.00	16.463	66.900	0.6068	10.3
528	AB07CD0350	WETLAND SAL01	SALINE (FEN)	56.573903999999998859493643976747989654541015625	-111.277773999999993748133420012891292572021484375	HOBO Rain Gauge Data Logger - RG3	HOBO Temperature/RH Smart Sensor (S-THB-M002)	Soil Moisture Smart Sensor - EC5 (S-SMC-M005)	2019-06-02T11:00:01	0.00	16.320	57.500	0.6075	7.9
529	AB07CD0350	WETLAND SAL01	SALINE (FEN)	56.573903999999998859493643976747989654541015625	-111.277773999999993748133420012891292572021484375	HOBO Rain Gauge Data Logger - RG3	HOBO Temperature/RH Smart Sensor (S-THB-M002)	Soil Moisture Smart Sensor - EC5 (S-SMC-M005)	2019-06-02T12:00:01	0.00	17.701	53.200	0.6068	8.1
530	AB07CD0350	WETLAND SAL01	SALINE (FEN)	56.573903999999998859493643976747989654541015625	-111.277773999999993748133420012891292572021484375	HOBO Rain Gauge Data Logger - RG3	HOBO Temperature/RH Smart Sensor (S-THB-M002)	Soil Moisture Smart Sensor - EC5 (S-SMC-M005)	2019-06-02T13:00:01	0.00	18.509	48.300	0.6075	7.4
531	AB07CD0350	WETLAND SAL01	SALINE (FEN)	56.573903999999998859493643976747989654541015625	-111.277773999999993748133420012891292572021484375	HOBO Rain Gauge Data Logger - RG3	HOBO Temperature/RH Smart Sensor (S-THB-M002)	Soil Moisture Smart Sensor - EC5 (S-SMC-M005)	2019-06-02T14:00:01	0.00	19.674	42.900	0.6075	6.7
532	AB07CD0350	WETLAND SAL01	SALINE (FEN)	56.573903999999998859493643976747989654541015625	-111.277773999999993748133420012891292572021484375	HOBO Rain Gauge Data Logger - RG3	HOBO Temperature/RH Smart Sensor (S-THB-M002)	Soil Moisture Smart Sensor - EC5 (S-SMC-M005)	2019-06-02T15:00:01	0.00	21.175	39.200	0.6075	6.8
533	AB07CD0350	WETLAND SAL01	SALINE (FEN)	56.573903999999998859493643976747989654541015625	-111.277773999999993748133420012891292572021484375	HOBO Rain Gauge Data Logger - RG3	HOBO Temperature/RH Smart Sensor (S-THB-M002)	Soil Moisture Smart Sensor - EC5 (S-SMC-M005)	2019-06-02T16:00:01	0.00	21.604	34.300	0.6075	5.2
534	AB07CD0350	WETLAND SAL01	SALINE (FEN)	56.573903999999998859493643976747989654541015625	-111.277773999999993748133420012891292572021484375	HOBO Rain Gauge Data Logger - RG3	HOBO Temperature/RH Smart Sensor (S-THB-M002)	Soil Moisture Smart Sensor - EC5 (S-SMC-M005)	2019-06-02T17:00:01	0.00	21.891	31.900	0.6075	4.4
535	AB07CD0350	WETLAND SAL01	SALINE (FEN)	56.573903999999998859493643976747989654541015625	-111.277773999999993748133420012891292572021484375	HOBO Rain Gauge Data Logger - RG3	HOBO Temperature/RH Smart Sensor (S-THB-M002)	Soil Moisture Smart Sensor - EC5 (S-SMC-M005)	2019-06-02T18:00:01	0.00	22.034	31.200	0.6075	4.2
536	AB07CD0350	WETLAND SAL01	SALINE (FEN)	56.573903999999998859493643976747989654541015625	-111.277773999999993748133420012891292572021484375	HOBO Rain Gauge Data Logger - RG3	HOBO Temperature/RH Smart Sensor (S-THB-M002)	Soil Moisture Smart Sensor - EC5 (S-SMC-M005)	2019-06-02T19:00:01	0.00	21.748	28.400	0.6075	2.7
537	AB07CD0350	WETLAND SAL01	SALINE (FEN)	56.573903999999998859493643976747989654541015625	-111.277773999999993748133420012891292572021484375	HOBO Rain Gauge Data Logger - RG3	HOBO Temperature/RH Smart Sensor (S-THB-M002)	Soil Moisture Smart Sensor - EC5 (S-SMC-M005)	2019-06-02T20:00:01	0.00	20.579	28.300	0.6075	1.6
538	AB07CD0350	WETLAND SAL01	SALINE (FEN)	56.573903999999998859493643976747989654541015625	-111.277773999999993748133420012891292572021484375	HOBO Rain Gauge Data Logger - RG3	HOBO Temperature/RH Smart Sensor (S-THB-M002)	Soil Moisture Smart Sensor - EC5 (S-SMC-M005)	2019-06-02T21:00:01	0.00	16.177	33.200	0.6075	0.0
539	AB07CD0350	WETLAND SAL01	SALINE (FEN)	56.573903999999998859493643976747989654541015625	-111.277773999999993748133420012891292572021484375	HOBO Rain Gauge Data Logger - RG3	HOBO Temperature/RH Smart Sensor (S-THB-M002)	Soil Moisture Smart Sensor - EC5 (S-SMC-M005)	2019-06-02T22:00:01	0.00	9.756	57.800	0.6075	1.9
540	AB07CD0350	WETLAND SAL01	SALINE (FEN)	56.573903999999998859493643976747989654541015625	-111.277773999999993748133420012891292572021484375	HOBO Rain Gauge Data Logger - RG3	HOBO Temperature/RH Smart Sensor (S-THB-M002)	Soil Moisture Smart Sensor - EC5 (S-SMC-M005)	2019-06-02T23:00:01	0.00	7.343	67.200	0.6075	1.7
541	AB07CD0350	WETLAND SAL01	SALINE (FEN)	56.573903999999998859493643976747989654541015625	-111.277773999999993748133420012891292572021484375	HOBO Rain Gauge Data Logger - RG3	HOBO Temperature/RH Smart Sensor (S-THB-M002)	Soil Moisture Smart Sensor - EC5 (S-SMC-M005)	2019-06-03T00:00:01	0.00	6.000	73.400	0.6075	1.6
542	AB07CD0350	WETLAND SAL01	SALINE (FEN)	56.573903999999998859493643976747989654541015625	-111.277773999999993748133420012891292572021484375	HOBO Rain Gauge Data Logger - RG3	HOBO Temperature/RH Smart Sensor (S-THB-M002)	Soil Moisture Smart Sensor - EC5 (S-SMC-M005)	2019-06-03T01:00:01	0.00	4.895	77.900	0.6082	1.4
543	AB07CD0350	WETLAND SAL01	SALINE (FEN)	56.573903999999998859493643976747989654541015625	-111.277773999999993748133420012891292572021484375	HOBO Rain Gauge Data Logger - RG3	HOBO Temperature/RH Smart Sensor (S-THB-M002)	Soil Moisture Smart Sensor - EC5 (S-SMC-M005)	2019-06-03T02:00:01	0.00	5.154	78.500	0.6082	1.7
544	AB07CD0350	WETLAND SAL01	SALINE (FEN)	56.573903999999998859493643976747989654541015625	-111.277773999999993748133420012891292572021484375	HOBO Rain Gauge Data Logger - RG3	HOBO Temperature/RH Smart Sensor (S-THB-M002)	Soil Moisture Smart Sensor - EC5 (S-SMC-M005)	2019-06-03T03:00:01	0.00	7.845	76.800	0.6082	4.0
545	AB07CD0350	WETLAND SAL01	SALINE (FEN)	56.573903999999998859493643976747989654541015625	-111.277773999999993748133420012891292572021484375	HOBO Rain Gauge Data Logger - RG3	HOBO Temperature/RH Smart Sensor (S-THB-M002)	Soil Moisture Smart Sensor - EC5 (S-SMC-M005)	2019-06-03T04:00:01	0.00	6.813	78.600	0.6082	3.4
546	AB07CD0350	WETLAND SAL01	SALINE (FEN)	56.573903999999998859493643976747989654541015625	-111.277773999999993748133420012891292572021484375	HOBO Rain Gauge Data Logger - RG3	HOBO Temperature/RH Smart Sensor (S-THB-M002)	Soil Moisture Smart Sensor - EC5 (S-SMC-M005)	2019-06-03T05:00:01	0.00	7.343	84.500	0.6082	4.9
547	AB07CD0350	WETLAND SAL01	SALINE (FEN)	56.573903999999998859493643976747989654541015625	-111.277773999999993748133420012891292572021484375	HOBO Rain Gauge Data Logger - RG3	HOBO Temperature/RH Smart Sensor (S-THB-M002)	Soil Moisture Smart Sensor - EC5 (S-SMC-M005)	2019-06-03T06:00:01	0.00	7.619	83.300	0.6075	5.0
548	AB07CD0350	WETLAND SAL01	SALINE (FEN)	56.573903999999998859493643976747989654541015625	-111.277773999999993748133420012891292572021484375	HOBO Rain Gauge Data Logger - RG3	HOBO Temperature/RH Smart Sensor (S-THB-M002)	Soil Moisture Smart Sensor - EC5 (S-SMC-M005)	2019-06-03T07:00:01	0.00	9.410	81.100	0.6082	6.3
549	AB07CD0350	WETLAND SAL01	SALINE (FEN)	56.573903999999998859493643976747989654541015625	-111.277773999999993748133420012891292572021484375	HOBO Rain Gauge Data Logger - RG3	HOBO Temperature/RH Smart Sensor (S-THB-M002)	Soil Moisture Smart Sensor - EC5 (S-SMC-M005)	2019-06-03T08:00:01	0.00	10.810	75.700	0.6082	6.7
550	AB07CD0350	WETLAND SAL01	SALINE (FEN)	56.573903999999998859493643976747989654541015625	-111.277773999999993748133420012891292572021484375	HOBO Rain Gauge Data Logger - RG3	HOBO Temperature/RH Smart Sensor (S-THB-M002)	Soil Moisture Smart Sensor - EC5 (S-SMC-M005)	2019-06-03T09:00:01	0.00	13.377	68.500	0.6082	7.7
551	AB07CD0350	WETLAND SAL01	SALINE (FEN)	56.573903999999998859493643976747989654541015625	-111.277773999999993748133420012891292572021484375	HOBO Rain Gauge Data Logger - RG3	HOBO Temperature/RH Smart Sensor (S-THB-M002)	Soil Moisture Smart Sensor - EC5 (S-SMC-M005)	2019-06-03T10:00:01	0.00	14.146	65.400	0.6075	7.8
552	AB07CD0350	WETLAND SAL01	SALINE (FEN)	56.573903999999998859493643976747989654541015625	-111.277773999999993748133420012891292572021484375	HOBO Rain Gauge Data Logger - RG3	HOBO Temperature/RH Smart Sensor (S-THB-M002)	Soil Moisture Smart Sensor - EC5 (S-SMC-M005)	2019-06-03T11:00:01	0.20	12.485	75.200	0.6075	8.2
553	AB07CD0350	WETLAND SAL01	SALINE (FEN)	56.573903999999998859493643976747989654541015625	-111.277773999999993748133420012891292572021484375	HOBO Rain Gauge Data Logger - RG3	HOBO Temperature/RH Smart Sensor (S-THB-M002)	Soil Moisture Smart Sensor - EC5 (S-SMC-M005)	2019-06-03T12:00:01	1.00	12.147	85.400	0.6075	9.8
554	AB07CD0350	WETLAND SAL01	SALINE (FEN)	56.573903999999998859493643976747989654541015625	-111.277773999999993748133420012891292572021484375	HOBO Rain Gauge Data Logger - RG3	HOBO Temperature/RH Smart Sensor (S-THB-M002)	Soil Moisture Smart Sensor - EC5 (S-SMC-M005)	2019-06-03T13:00:01	1.00	12.340	88.000	0.6082	10.4
555	AB07CD0350	WETLAND SAL01	SALINE (FEN)	56.573903999999998859493643976747989654541015625	-111.277773999999993748133420012891292572021484375	HOBO Rain Gauge Data Logger - RG3	HOBO Temperature/RH Smart Sensor (S-THB-M002)	Soil Moisture Smart Sensor - EC5 (S-SMC-M005)	2019-06-03T14:00:01	1.20	12.582	86.300	0.6075	10.4
556	AB07CD0350	WETLAND SAL01	SALINE (FEN)	56.573903999999998859493643976747989654541015625	-111.277773999999993748133420012891292572021484375	HOBO Rain Gauge Data Logger - RG3	HOBO Temperature/RH Smart Sensor (S-THB-M002)	Soil Moisture Smart Sensor - EC5 (S-SMC-M005)	2019-06-03T15:00:01	0.80	12.582	85.400	0.6082	10.2
557	AB07CD0350	WETLAND SAL01	SALINE (FEN)	56.573903999999998859493643976747989654541015625	-111.277773999999993748133420012891292572021484375	HOBO Rain Gauge Data Logger - RG3	HOBO Temperature/RH Smart Sensor (S-THB-M002)	Soil Moisture Smart Sensor - EC5 (S-SMC-M005)	2019-06-03T16:00:01	0.20	12.316	84.600	0.6082	9.8
558	AB07CD0350	WETLAND SAL01	SALINE (FEN)	56.573903999999998859493643976747989654541015625	-111.277773999999993748133420012891292572021484375	HOBO Rain Gauge Data Logger - RG3	HOBO Temperature/RH Smart Sensor (S-THB-M002)	Soil Moisture Smart Sensor - EC5 (S-SMC-M005)	2019-06-03T17:00:01	0.40	12.413	88.900	0.6082	10.6
559	AB07CD0350	WETLAND SAL01	SALINE (FEN)	56.573903999999998859493643976747989654541015625	-111.277773999999993748133420012891292572021484375	HOBO Rain Gauge Data Logger - RG3	HOBO Temperature/RH Smart Sensor (S-THB-M002)	Soil Moisture Smart Sensor - EC5 (S-SMC-M005)	2019-06-03T18:00:01	0.40	11.832	90.600	0.6082	10.4
560	AB07CD0350	WETLAND SAL01	SALINE (FEN)	56.573903999999998859493643976747989654541015625	-111.277773999999993748133420012891292572021484375	HOBO Rain Gauge Data Logger - RG3	HOBO Temperature/RH Smart Sensor (S-THB-M002)	Soil Moisture Smart Sensor - EC5 (S-SMC-M005)	2019-06-03T19:00:01	0.60	11.832	93.500	0.6082	10.8
561	AB07CD0350	WETLAND SAL01	SALINE (FEN)	56.573903999999998859493643976747989654541015625	-111.277773999999993748133420012891292572021484375	HOBO Rain Gauge Data Logger - RG3	HOBO Temperature/RH Smart Sensor (S-THB-M002)	Soil Moisture Smart Sensor - EC5 (S-SMC-M005)	2019-06-03T20:00:01	0.00	11.516	94.300	0.6082	10.6
562	AB07CD0350	WETLAND SAL01	SALINE (FEN)	56.573903999999998859493643976747989654541015625	-111.277773999999993748133420012891292572021484375	HOBO Rain Gauge Data Logger - RG3	HOBO Temperature/RH Smart Sensor (S-THB-M002)	Soil Moisture Smart Sensor - EC5 (S-SMC-M005)	2019-06-03T21:00:01	0.60	11.175	95.000	0.6082	10.4
563	AB07CD0350	WETLAND SAL01	SALINE (FEN)	56.573903999999998859493643976747989654541015625	-111.277773999999993748133420012891292572021484375	HOBO Rain Gauge Data Logger - RG3	HOBO Temperature/RH Smart Sensor (S-THB-M002)	Soil Moisture Smart Sensor - EC5 (S-SMC-M005)	2019-06-03T22:00:01	0.00	9.534	94.800	0.6082	8.8
564	AB07CD0350	WETLAND SAL01	SALINE (FEN)	56.573903999999998859493643976747989654541015625	-111.277773999999993748133420012891292572021484375	HOBO Rain Gauge Data Logger - RG3	HOBO Temperature/RH Smart Sensor (S-THB-M002)	Soil Moisture Smart Sensor - EC5 (S-SMC-M005)	2019-06-03T23:00:01	0.20	11.443	94.400	0.6082	10.6
565	AB07CD0350	WETLAND SAL01	SALINE (FEN)	56.573903999999998859493643976747989654541015625	-111.277773999999993748133420012891292572021484375	HOBO Rain Gauge Data Logger - RG3	HOBO Temperature/RH Smart Sensor (S-THB-M002)	Soil Moisture Smart Sensor - EC5 (S-SMC-M005)	2019-06-04T00:00:01	0.00	9.731	87.600	0.6082	7.8
566	AB07CD0350	WETLAND SAL01	SALINE (FEN)	56.573903999999998859493643976747989654541015625	-111.277773999999993748133420012891292572021484375	HOBO Rain Gauge Data Logger - RG3	HOBO Temperature/RH Smart Sensor (S-THB-M002)	Soil Moisture Smart Sensor - EC5 (S-SMC-M005)	2019-06-04T01:00:01	0.00	6.788	89.000	0.6082	5.1
567	AB07CD0350	WETLAND SAL01	SALINE (FEN)	56.573903999999998859493643976747989654541015625	-111.277773999999993748133420012891292572021484375	HOBO Rain Gauge Data Logger - RG3	HOBO Temperature/RH Smart Sensor (S-THB-M002)	Soil Moisture Smart Sensor - EC5 (S-SMC-M005)	2019-06-04T02:00:01	0.00	6.281	93.300	0.6082	5.3
568	AB07CD0350	WETLAND SAL01	SALINE (FEN)	56.573903999999998859493643976747989654541015625	-111.277773999999993748133420012891292572021484375	HOBO Rain Gauge Data Logger - RG3	HOBO Temperature/RH Smart Sensor (S-THB-M002)	Soil Moisture Smart Sensor - EC5 (S-SMC-M005)	2019-06-04T03:00:01	0.00	6.585	91.700	0.6082	5.3
569	AB07CD0350	WETLAND SAL01	SALINE (FEN)	56.573903999999998859493643976747989654541015625	-111.277773999999993748133420012891292572021484375	HOBO Rain Gauge Data Logger - RG3	HOBO Temperature/RH Smart Sensor (S-THB-M002)	Soil Moisture Smart Sensor - EC5 (S-SMC-M005)	2019-06-04T04:00:01	0.00	5.514	91.000	0.6082	4.2
570	AB07CD0350	WETLAND SAL01	SALINE (FEN)	56.573903999999998859493643976747989654541015625	-111.277773999999993748133420012891292572021484375	HOBO Rain Gauge Data Logger - RG3	HOBO Temperature/RH Smart Sensor (S-THB-M002)	Soil Moisture Smart Sensor - EC5 (S-SMC-M005)	2019-06-04T05:00:01	0.00	5.205	92.500	0.6082	4.1
571	AB07CD0350	WETLAND SAL01	SALINE (FEN)	56.573903999999998859493643976747989654541015625	-111.277773999999993748133420012891292572021484375	HOBO Rain Gauge Data Logger - RG3	HOBO Temperature/RH Smart Sensor (S-THB-M002)	Soil Moisture Smart Sensor - EC5 (S-SMC-M005)	2019-06-04T06:00:01	0.00	6.255	92.800	0.6082	5.2
572	AB07CD0350	WETLAND SAL01	SALINE (FEN)	56.573903999999998859493643976747989654541015625	-111.277773999999993748133420012891292572021484375	HOBO Rain Gauge Data Logger - RG3	HOBO Temperature/RH Smart Sensor (S-THB-M002)	Soil Moisture Smart Sensor - EC5 (S-SMC-M005)	2019-06-04T07:00:01	0.00	7.116	91.100	0.6075	5.8
573	AB07CD0350	WETLAND SAL01	SALINE (FEN)	56.573903999999998859493643976747989654541015625	-111.277773999999993748133420012891292572021484375	HOBO Rain Gauge Data Logger - RG3	HOBO Temperature/RH Smart Sensor (S-THB-M002)	Soil Moisture Smart Sensor - EC5 (S-SMC-M005)	2019-06-04T08:00:01	0.00	8.742	88.700	0.6075	7.0
574	AB07CD0350	WETLAND SAL01	SALINE (FEN)	56.573903999999998859493643976747989654541015625	-111.277773999999993748133420012891292572021484375	HOBO Rain Gauge Data Logger - RG3	HOBO Temperature/RH Smart Sensor (S-THB-M002)	Soil Moisture Smart Sensor - EC5 (S-SMC-M005)	2019-06-04T09:00:01	0.00	9.558	86.900	0.6075	7.5
575	AB07CD0350	WETLAND SAL01	SALINE (FEN)	56.573903999999998859493643976747989654541015625	-111.277773999999993748133420012891292572021484375	HOBO Rain Gauge Data Logger - RG3	HOBO Temperature/RH Smart Sensor (S-THB-M002)	Soil Moisture Smart Sensor - EC5 (S-SMC-M005)	2019-06-04T10:00:01	0.00	11.127	80.100	0.6075	7.8
576	AB07CD0350	WETLAND SAL01	SALINE (FEN)	56.573903999999998859493643976747989654541015625	-111.277773999999993748133420012891292572021484375	HOBO Rain Gauge Data Logger - RG3	HOBO Temperature/RH Smart Sensor (S-THB-M002)	Soil Moisture Smart Sensor - EC5 (S-SMC-M005)	2019-06-04T11:00:01	0.00	11.151	75.700	0.6075	7.0
577	AB07CD0350	WETLAND SAL01	SALINE (FEN)	56.573903999999998859493643976747989654541015625	-111.277773999999993748133420012891292572021484375	HOBO Rain Gauge Data Logger - RG3	HOBO Temperature/RH Smart Sensor (S-THB-M002)	Soil Moisture Smart Sensor - EC5 (S-SMC-M005)	2019-06-04T12:00:01	0.00	11.175	73.800	0.6075	6.7
578	AB07CD0350	WETLAND SAL01	SALINE (FEN)	56.573903999999998859493643976747989654541015625	-111.277773999999993748133420012891292572021484375	HOBO Rain Gauge Data Logger - RG3	HOBO Temperature/RH Smart Sensor (S-THB-M002)	Soil Moisture Smart Sensor - EC5 (S-SMC-M005)	2019-06-04T13:00:01	0.00	12.871	70.100	0.6075	7.6
579	AB07CD0350	WETLAND SAL01	SALINE (FEN)	56.573903999999998859493643976747989654541015625	-111.277773999999993748133420012891292572021484375	HOBO Rain Gauge Data Logger - RG3	HOBO Temperature/RH Smart Sensor (S-THB-M002)	Soil Moisture Smart Sensor - EC5 (S-SMC-M005)	2019-06-04T14:00:01	0.00	14.481	61.900	0.6068	7.3
580	AB07CD0350	WETLAND SAL01	SALINE (FEN)	56.573903999999998859493643976747989654541015625	-111.277773999999993748133420012891292572021484375	HOBO Rain Gauge Data Logger - RG3	HOBO Temperature/RH Smart Sensor (S-THB-M002)	Soil Moisture Smart Sensor - EC5 (S-SMC-M005)	2019-06-04T15:00:01	0.00	16.296	53.500	0.6068	6.9
581	AB07CD0350	WETLAND SAL01	SALINE (FEN)	56.573903999999998859493643976747989654541015625	-111.277773999999993748133420012891292572021484375	HOBO Rain Gauge Data Logger - RG3	HOBO Temperature/RH Smart Sensor (S-THB-M002)	Soil Moisture Smart Sensor - EC5 (S-SMC-M005)	2019-06-04T16:00:01	0.00	17.249	47.700	0.6068	6.1
582	AB07CD0350	WETLAND SAL01	SALINE (FEN)	56.573903999999998859493643976747989654541015625	-111.277773999999993748133420012891292572021484375	HOBO Rain Gauge Data Logger - RG3	HOBO Temperature/RH Smart Sensor (S-THB-M002)	Soil Moisture Smart Sensor - EC5 (S-SMC-M005)	2019-06-04T17:00:01	0.00	17.677	44.100	0.6068	5.3
583	AB07CD0350	WETLAND SAL01	SALINE (FEN)	56.573903999999998859493643976747989654541015625	-111.277773999999993748133420012891292572021484375	HOBO Rain Gauge Data Logger - RG3	HOBO Temperature/RH Smart Sensor (S-THB-M002)	Soil Moisture Smart Sensor - EC5 (S-SMC-M005)	2019-06-04T18:00:01	0.00	16.939	44.900	0.6068	4.9
584	AB07CD0350	WETLAND SAL01	SALINE (FEN)	56.573903999999998859493643976747989654541015625	-111.277773999999993748133420012891292572021484375	HOBO Rain Gauge Data Logger - RG3	HOBO Temperature/RH Smart Sensor (S-THB-M002)	Soil Moisture Smart Sensor - EC5 (S-SMC-M005)	2019-06-04T19:00:01	0.00	14.864	61.400	0.6068	7.5
585	AB07CD0350	WETLAND SAL01	SALINE (FEN)	56.573903999999998859493643976747989654541015625	-111.277773999999993748133420012891292572021484375	HOBO Rain Gauge Data Logger - RG3	HOBO Temperature/RH Smart Sensor (S-THB-M002)	Soil Moisture Smart Sensor - EC5 (S-SMC-M005)	2019-06-04T20:00:01	0.20	11.053	71.100	0.6075	6.0
586	AB07CD0350	WETLAND SAL01	SALINE (FEN)	56.573903999999998859493643976747989654541015625	-111.277773999999993748133420012891292572021484375	HOBO Rain Gauge Data Logger - RG3	HOBO Temperature/RH Smart Sensor (S-THB-M002)	Soil Moisture Smart Sensor - EC5 (S-SMC-M005)	2019-06-04T21:00:01	0.00	10.247	79.700	0.6075	6.9
587	AB07CD0350	WETLAND SAL01	SALINE (FEN)	56.573903999999998859493643976747989654541015625	-111.277773999999993748133420012891292572021484375	HOBO Rain Gauge Data Logger - RG3	HOBO Temperature/RH Smart Sensor (S-THB-M002)	Soil Moisture Smart Sensor - EC5 (S-SMC-M005)	2019-06-04T22:00:01	0.00	9.485	81.400	0.6075	6.5
588	AB07CD0350	WETLAND SAL01	SALINE (FEN)	56.573903999999998859493643976747989654541015625	-111.277773999999993748133420012891292572021484375	HOBO Rain Gauge Data Logger - RG3	HOBO Temperature/RH Smart Sensor (S-THB-M002)	Soil Moisture Smart Sensor - EC5 (S-SMC-M005)	2019-06-04T23:00:01	0.00	8.419	85.100	0.6075	6.1
589	AB07CD0350	WETLAND SAL01	SALINE (FEN)	56.573903999999998859493643976747989654541015625	-111.277773999999993748133420012891292572021484375	HOBO Rain Gauge Data Logger - RG3	HOBO Temperature/RH Smart Sensor (S-THB-M002)	Soil Moisture Smart Sensor - EC5 (S-SMC-M005)	2019-06-05T00:00:01	0.00	7.469	87.700	0.6075	5.6
590	AB07CD0350	WETLAND SAL01	SALINE (FEN)	56.573903999999998859493643976747989654541015625	-111.277773999999993748133420012891292572021484375	HOBO Rain Gauge Data Logger - RG3	HOBO Temperature/RH Smart Sensor (S-THB-M002)	Soil Moisture Smart Sensor - EC5 (S-SMC-M005)	2019-06-05T01:00:01	0.00	7.293	91.300	0.6075	6.0
591	AB07CD0350	WETLAND SAL01	SALINE (FEN)	56.573903999999998859493643976747989654541015625	-111.277773999999993748133420012891292572021484375	HOBO Rain Gauge Data Logger - RG3	HOBO Temperature/RH Smart Sensor (S-THB-M002)	Soil Moisture Smart Sensor - EC5 (S-SMC-M005)	2019-06-05T02:00:01	0.00	7.820	90.700	0.6075	6.4
592	AB07CD0350	WETLAND SAL01	SALINE (FEN)	56.573903999999998859493643976747989654541015625	-111.277773999999993748133420012891292572021484375	HOBO Rain Gauge Data Logger - RG3	HOBO Temperature/RH Smart Sensor (S-THB-M002)	Soil Moisture Smart Sensor - EC5 (S-SMC-M005)	2019-06-05T03:00:01	0.00	5.642	91.200	0.6075	4.3
593	AB07CD0350	WETLAND SAL01	SALINE (FEN)	56.573903999999998859493643976747989654541015625	-111.277773999999993748133420012891292572021484375	HOBO Rain Gauge Data Logger - RG3	HOBO Temperature/RH Smart Sensor (S-THB-M002)	Soil Moisture Smart Sensor - EC5 (S-SMC-M005)	2019-06-05T04:00:01	0.00	5.514	95.100	0.6075	4.8
594	AB07CD0350	WETLAND SAL01	SALINE (FEN)	56.573903999999998859493643976747989654541015625	-111.277773999999993748133420012891292572021484375	HOBO Rain Gauge Data Logger - RG3	HOBO Temperature/RH Smart Sensor (S-THB-M002)	Soil Moisture Smart Sensor - EC5 (S-SMC-M005)	2019-06-05T05:00:01	0.00	6.965	95.400	0.6075	6.3
595	AB07CD0350	WETLAND SAL01	SALINE (FEN)	56.573903999999998859493643976747989654541015625	-111.277773999999993748133420012891292572021484375	HOBO Rain Gauge Data Logger - RG3	HOBO Temperature/RH Smart Sensor (S-THB-M002)	Soil Moisture Smart Sensor - EC5 (S-SMC-M005)	2019-06-05T06:00:01	0.00	7.217	90.800	0.6075	5.8
596	AB07CD0350	WETLAND SAL01	SALINE (FEN)	56.573903999999998859493643976747989654541015625	-111.277773999999993748133420012891292572021484375	HOBO Rain Gauge Data Logger - RG3	HOBO Temperature/RH Smart Sensor (S-THB-M002)	Soil Moisture Smart Sensor - EC5 (S-SMC-M005)	2019-06-05T07:00:01	0.00	9.460	83.400	0.6075	6.8
597	AB07CD0350	WETLAND SAL01	SALINE (FEN)	56.573903999999998859493643976747989654541015625	-111.277773999999993748133420012891292572021484375	HOBO Rain Gauge Data Logger - RG3	HOBO Temperature/RH Smart Sensor (S-THB-M002)	Soil Moisture Smart Sensor - EC5 (S-SMC-M005)	2019-06-05T08:00:01	0.00	10.956	71.900	0.6075	6.1
598	AB07CD0350	WETLAND SAL01	SALINE (FEN)	56.573903999999998859493643976747989654541015625	-111.277773999999993748133420012891292572021484375	HOBO Rain Gauge Data Logger - RG3	HOBO Temperature/RH Smart Sensor (S-THB-M002)	Soil Moisture Smart Sensor - EC5 (S-SMC-M005)	2019-06-05T09:00:01	0.00	11.102	65.100	0.6075	4.8
599	AB07CD0350	WETLAND SAL01	SALINE (FEN)	56.573903999999998859493643976747989654541015625	-111.277773999999993748133420012891292572021484375	HOBO Rain Gauge Data Logger - RG3	HOBO Temperature/RH Smart Sensor (S-THB-M002)	Soil Moisture Smart Sensor - EC5 (S-SMC-M005)	2019-06-05T10:00:01	0.00	12.461	58.300	0.6075	4.5
600	AB07CD0350	WETLAND SAL01	SALINE (FEN)	56.573903999999998859493643976747989654541015625	-111.277773999999993748133420012891292572021484375	HOBO Rain Gauge Data Logger - RG3	HOBO Temperature/RH Smart Sensor (S-THB-M002)	Soil Moisture Smart Sensor - EC5 (S-SMC-M005)	2019-06-05T11:00:01	0.00	14.385	52.200	0.6075	4.7
601	AB07CD0350	WETLAND SAL01	SALINE (FEN)	56.573903999999998859493643976747989654541015625	-111.277773999999993748133420012891292572021484375	HOBO Rain Gauge Data Logger - RG3	HOBO Temperature/RH Smart Sensor (S-THB-M002)	Soil Moisture Smart Sensor - EC5 (S-SMC-M005)	2019-06-05T12:00:01	0.00	13.786	48.500	0.6068	3.1
602	AB07CD0350	WETLAND SAL01	SALINE (FEN)	56.573903999999998859493643976747989654541015625	-111.277773999999993748133420012891292572021484375	HOBO Rain Gauge Data Logger - RG3	HOBO Temperature/RH Smart Sensor (S-THB-M002)	Soil Moisture Smart Sensor - EC5 (S-SMC-M005)	2019-06-05T13:00:01	0.00	15.031	48.500	0.6075	4.3
603	AB07CD0350	WETLAND SAL01	SALINE (FEN)	56.573903999999998859493643976747989654541015625	-111.277773999999993748133420012891292572021484375	HOBO Rain Gauge Data Logger - RG3	HOBO Temperature/RH Smart Sensor (S-THB-M002)	Soil Moisture Smart Sensor - EC5 (S-SMC-M005)	2019-06-05T14:00:01	0.00	15.700	44.200	0.6075	3.6
604	AB07CD0350	WETLAND SAL01	SALINE (FEN)	56.573903999999998859493643976747989654541015625	-111.277773999999993748133420012891292572021484375	HOBO Rain Gauge Data Logger - RG3	HOBO Temperature/RH Smart Sensor (S-THB-M002)	Soil Moisture Smart Sensor - EC5 (S-SMC-M005)	2019-06-05T15:00:01	0.00	15.223	43.000	0.6075	2.7
605	AB07CD0350	WETLAND SAL01	SALINE (FEN)	56.573903999999998859493643976747989654541015625	-111.277773999999993748133420012891292572021484375	HOBO Rain Gauge Data Logger - RG3	HOBO Temperature/RH Smart Sensor (S-THB-M002)	Soil Moisture Smart Sensor - EC5 (S-SMC-M005)	2019-06-05T16:00:01	0.00	17.368	41.900	0.6068	4.3
606	AB07CD0350	WETLAND SAL01	SALINE (FEN)	56.573903999999998859493643976747989654541015625	-111.277773999999993748133420012891292572021484375	HOBO Rain Gauge Data Logger - RG3	HOBO Temperature/RH Smart Sensor (S-THB-M002)	Soil Moisture Smart Sensor - EC5 (S-SMC-M005)	2019-06-05T17:00:01	0.00	16.225	38.700	0.6068	2.2
607	AB07CD0350	WETLAND SAL01	SALINE (FEN)	56.573903999999998859493643976747989654541015625	-111.277773999999993748133420012891292572021484375	HOBO Rain Gauge Data Logger - RG3	HOBO Temperature/RH Smart Sensor (S-THB-M002)	Soil Moisture Smart Sensor - EC5 (S-SMC-M005)	2019-06-05T18:00:01	0.00	17.011	39.300	0.6075	3.1
608	AB07CD0350	WETLAND SAL01	SALINE (FEN)	56.573903999999998859493643976747989654541015625	-111.277773999999993748133420012891292572021484375	HOBO Rain Gauge Data Logger - RG3	HOBO Temperature/RH Smart Sensor (S-THB-M002)	Soil Moisture Smart Sensor - EC5 (S-SMC-M005)	2019-06-05T19:00:01	0.00	15.342	40.500	0.6075	2.0
609	AB07CD0350	WETLAND SAL01	SALINE (FEN)	56.573903999999998859493643976747989654541015625	-111.277773999999993748133420012891292572021484375	HOBO Rain Gauge Data Logger - RG3	HOBO Temperature/RH Smart Sensor (S-THB-M002)	Soil Moisture Smart Sensor - EC5 (S-SMC-M005)	2019-06-05T20:00:01	0.00	14.266	44.000	0.6075	2.2
610	AB07CD0350	WETLAND SAL01	SALINE (FEN)	56.573903999999998859493643976747989654541015625	-111.277773999999993748133420012891292572021484375	HOBO Rain Gauge Data Logger - RG3	HOBO Temperature/RH Smart Sensor (S-THB-M002)	Soil Moisture Smart Sensor - EC5 (S-SMC-M005)	2019-06-05T21:00:01	0.00	13.666	47.600	0.6075	2.8
611	AB07CD0350	WETLAND SAL01	SALINE (FEN)	56.573903999999998859493643976747989654541015625	-111.277773999999993748133420012891292572021484375	HOBO Rain Gauge Data Logger - RG3	HOBO Temperature/RH Smart Sensor (S-THB-M002)	Soil Moisture Smart Sensor - EC5 (S-SMC-M005)	2019-06-05T22:00:01	0.00	11.370	51.800	0.6075	1.8
612	AB07CD0350	WETLAND SAL01	SALINE (FEN)	56.573903999999998859493643976747989654541015625	-111.277773999999993748133420012891292572021484375	HOBO Rain Gauge Data Logger - RG3	HOBO Temperature/RH Smart Sensor (S-THB-M002)	Soil Moisture Smart Sensor - EC5 (S-SMC-M005)	2019-06-05T23:00:01	0.00	8.817	62.500	0.6075	2.1
613	AB07CD0350	WETLAND SAL01	SALINE (FEN)	56.573903999999998859493643976747989654541015625	-111.277773999999993748133420012891292572021484375	HOBO Rain Gauge Data Logger - RG3	HOBO Temperature/RH Smart Sensor (S-THB-M002)	Soil Moisture Smart Sensor - EC5 (S-SMC-M005)	2019-06-06T00:00:01	0.00	2.983	76.800	0.6075	-0.7
614	AB07CD0350	WETLAND SAL01	SALINE (FEN)	56.573903999999998859493643976747989654541015625	-111.277773999999993748133420012891292572021484375	HOBO Rain Gauge Data Logger - RG3	HOBO Temperature/RH Smart Sensor (S-THB-M002)	Soil Moisture Smart Sensor - EC5 (S-SMC-M005)	2019-06-06T01:00:01	0.00	0.079	88.000	0.6075	-1.7
615	AB07CD0350	WETLAND SAL01	SALINE (FEN)	56.573903999999998859493643976747989654541015625	-111.277773999999993748133420012891292572021484375	HOBO Rain Gauge Data Logger - RG3	HOBO Temperature/RH Smart Sensor (S-THB-M002)	Soil Moisture Smart Sensor - EC5 (S-SMC-M005)	2019-06-06T02:00:01	0.00	-1.015	91.000	0.6075	-2.3
616	AB07CD0350	WETLAND SAL01	SALINE (FEN)	56.573903999999998859493643976747989654541015625	-111.277773999999993748133420012891292572021484375	HOBO Rain Gauge Data Logger - RG3	HOBO Temperature/RH Smart Sensor (S-THB-M002)	Soil Moisture Smart Sensor - EC5 (S-SMC-M005)	2019-06-06T03:00:01	0.00	-2.189	92.700	0.6075	-3.2
617	AB07CD0350	WETLAND SAL01	SALINE (FEN)	56.573903999999998859493643976747989654541015625	-111.277773999999993748133420012891292572021484375	HOBO Rain Gauge Data Logger - RG3	HOBO Temperature/RH Smart Sensor (S-THB-M002)	Soil Moisture Smart Sensor - EC5 (S-SMC-M005)	2019-06-06T04:00:01	0.00	-2.479	93.500	0.6075	-3.4
618	AB07CD0350	WETLAND SAL01	SALINE (FEN)	56.573903999999998859493643976747989654541015625	-111.277773999999993748133420012891292572021484375	HOBO Rain Gauge Data Logger - RG3	HOBO Temperature/RH Smart Sensor (S-THB-M002)	Soil Moisture Smart Sensor - EC5 (S-SMC-M005)	2019-06-06T05:00:01	0.00	-2.305	93.900	0.6075	-3.2
619	AB07CD0350	WETLAND SAL01	SALINE (FEN)	56.573903999999998859493643976747989654541015625	-111.277773999999993748133420012891292572021484375	HOBO Rain Gauge Data Logger - RG3	HOBO Temperature/RH Smart Sensor (S-THB-M002)	Soil Moisture Smart Sensor - EC5 (S-SMC-M005)	2019-06-06T06:00:01	0.00	-0.789	93.900	0.6075	-1.7
620	AB07CD0350	WETLAND SAL01	SALINE (FEN)	56.573903999999998859493643976747989654541015625	-111.277773999999993748133420012891292572021484375	HOBO Rain Gauge Data Logger - RG3	HOBO Temperature/RH Smart Sensor (S-THB-M002)	Soil Moisture Smart Sensor - EC5 (S-SMC-M005)	2019-06-06T07:00:01	0.00	5.591	92.300	0.6075	4.4
621	AB07CD0350	WETLAND SAL01	SALINE (FEN)	56.573903999999998859493643976747989654541015625	-111.277773999999993748133420012891292572021484375	HOBO Rain Gauge Data Logger - RG3	HOBO Temperature/RH Smart Sensor (S-THB-M002)	Soil Moisture Smart Sensor - EC5 (S-SMC-M005)	2019-06-06T08:00:01	0.00	7.393	81.000	0.6075	4.4
622	AB07CD0350	WETLAND SAL01	SALINE (FEN)	56.573903999999998859493643976747989654541015625	-111.277773999999993748133420012891292572021484375	HOBO Rain Gauge Data Logger - RG3	HOBO Temperature/RH Smart Sensor (S-THB-M002)	Soil Moisture Smart Sensor - EC5 (S-SMC-M005)	2019-06-06T09:00:01	0.00	7.569	73.600	0.6075	3.2
623	AB07CD0350	WETLAND SAL01	SALINE (FEN)	56.573903999999998859493643976747989654541015625	-111.277773999999993748133420012891292572021484375	HOBO Rain Gauge Data Logger - RG3	HOBO Temperature/RH Smart Sensor (S-THB-M002)	Soil Moisture Smart Sensor - EC5 (S-SMC-M005)	2019-06-06T10:00:01	0.00	9.188	66.300	0.6075	3.2
624	AB07CD0350	WETLAND SAL01	SALINE (FEN)	56.573903999999998859493643976747989654541015625	-111.277773999999993748133420012891292572021484375	HOBO Rain Gauge Data Logger - RG3	HOBO Temperature/RH Smart Sensor (S-THB-M002)	Soil Moisture Smart Sensor - EC5 (S-SMC-M005)	2019-06-06T11:00:01	0.00	10.492	59.800	0.6068	3.0
625	AB07CD0350	WETLAND SAL01	SALINE (FEN)	56.573903999999998859493643976747989654541015625	-111.277773999999993748133420012891292572021484375	HOBO Rain Gauge Data Logger - RG3	HOBO Temperature/RH Smart Sensor (S-THB-M002)	Soil Moisture Smart Sensor - EC5 (S-SMC-M005)	2019-06-06T12:00:01	0.00	11.662	55.300	0.6068	3.0
626	AB07CD0350	WETLAND SAL01	SALINE (FEN)	56.573903999999998859493643976747989654541015625	-111.277773999999993748133420012891292572021484375	HOBO Rain Gauge Data Logger - RG3	HOBO Temperature/RH Smart Sensor (S-THB-M002)	Soil Moisture Smart Sensor - EC5 (S-SMC-M005)	2019-06-06T13:00:01	0.00	13.185	51.800	0.6068	3.5
627	AB07CD0350	WETLAND SAL01	SALINE (FEN)	56.573903999999998859493643976747989654541015625	-111.277773999999993748133420012891292572021484375	HOBO Rain Gauge Data Logger - RG3	HOBO Temperature/RH Smart Sensor (S-THB-M002)	Soil Moisture Smart Sensor - EC5 (S-SMC-M005)	2019-06-06T14:00:01	0.00	12.001	52.400	0.6068	2.6
628	AB07CD0350	WETLAND SAL01	SALINE (FEN)	56.573903999999998859493643976747989654541015625	-111.277773999999993748133420012891292572021484375	HOBO Rain Gauge Data Logger - RG3	HOBO Temperature/RH Smart Sensor (S-THB-M002)	Soil Moisture Smart Sensor - EC5 (S-SMC-M005)	2019-06-06T15:00:01	0.00	12.630	49.600	0.6068	2.4
629	AB07CD0350	WETLAND SAL01	SALINE (FEN)	56.573903999999998859493643976747989654541015625	-111.277773999999993748133420012891292572021484375	HOBO Rain Gauge Data Logger - RG3	HOBO Temperature/RH Smart Sensor (S-THB-M002)	Soil Moisture Smart Sensor - EC5 (S-SMC-M005)	2019-06-06T16:00:01	0.00	12.678	49.300	0.6068	2.3
630	AB07CD0350	WETLAND SAL01	SALINE (FEN)	56.573903999999998859493643976747989654541015625	-111.277773999999993748133420012891292572021484375	HOBO Rain Gauge Data Logger - RG3	HOBO Temperature/RH Smart Sensor (S-THB-M002)	Soil Moisture Smart Sensor - EC5 (S-SMC-M005)	2019-06-06T17:00:01	0.00	12.606	48.600	0.6068	2.1
631	AB07CD0350	WETLAND SAL01	SALINE (FEN)	56.573903999999998859493643976747989654541015625	-111.277773999999993748133420012891292572021484375	HOBO Rain Gauge Data Logger - RG3	HOBO Temperature/RH Smart Sensor (S-THB-M002)	Soil Moisture Smart Sensor - EC5 (S-SMC-M005)	2019-06-06T18:00:01	0.00	12.268	48.600	0.6068	1.8
632	AB07CD0350	WETLAND SAL01	SALINE (FEN)	56.573903999999998859493643976747989654541015625	-111.277773999999993748133420012891292572021484375	HOBO Rain Gauge Data Logger - RG3	HOBO Temperature/RH Smart Sensor (S-THB-M002)	Soil Moisture Smart Sensor - EC5 (S-SMC-M005)	2019-06-06T19:00:01	0.00	11.516	50.100	0.6068	1.5
633	AB07CD0350	WETLAND SAL01	SALINE (FEN)	56.573903999999998859493643976747989654541015625	-111.277773999999993748133420012891292572021484375	HOBO Rain Gauge Data Logger - RG3	HOBO Temperature/RH Smart Sensor (S-THB-M002)	Soil Moisture Smart Sensor - EC5 (S-SMC-M005)	2019-06-06T20:00:01	0.00	11.029	51.700	0.6068	1.5
634	AB07CD0350	WETLAND SAL01	SALINE (FEN)	56.573903999999998859493643976747989654541015625	-111.277773999999993748133420012891292572021484375	HOBO Rain Gauge Data Logger - RG3	HOBO Temperature/RH Smart Sensor (S-THB-M002)	Soil Moisture Smart Sensor - EC5 (S-SMC-M005)	2019-06-06T21:00:01	0.00	10.198	54.100	0.6068	1.3
635	AB07CD0350	WETLAND SAL01	SALINE (FEN)	56.573903999999998859493643976747989654541015625	-111.277773999999993748133420012891292572021484375	HOBO Rain Gauge Data Logger - RG3	HOBO Temperature/RH Smart Sensor (S-THB-M002)	Soil Moisture Smart Sensor - EC5 (S-SMC-M005)	2019-06-06T22:00:01	0.00	9.089	57.600	0.6068	1.2
636	AB07CD0350	WETLAND SAL01	SALINE (FEN)	56.573903999999998859493643976747989654541015625	-111.277773999999993748133420012891292572021484375	HOBO Rain Gauge Data Logger - RG3	HOBO Temperature/RH Smart Sensor (S-THB-M002)	Soil Moisture Smart Sensor - EC5 (S-SMC-M005)	2019-06-06T23:00:01	0.00	8.643	59.400	0.6068	1.2
637	AB07CD0350	WETLAND SAL01	SALINE (FEN)	56.573903999999998859493643976747989654541015625	-111.277773999999993748133420012891292572021484375	HOBO Rain Gauge Data Logger - RG3	HOBO Temperature/RH Smart Sensor (S-THB-M002)	Soil Moisture Smart Sensor - EC5 (S-SMC-M005)	2019-06-07T00:00:01	0.00	8.295	59.900	0.6068	1.0
638	AB07CD0350	WETLAND SAL01	SALINE (FEN)	56.573903999999998859493643976747989654541015625	-111.277773999999993748133420012891292572021484375	HOBO Rain Gauge Data Logger - RG3	HOBO Temperature/RH Smart Sensor (S-THB-M002)	Soil Moisture Smart Sensor - EC5 (S-SMC-M005)	2019-06-07T01:00:01	0.00	7.795	62.000	0.6068	1.0
639	AB07CD0350	WETLAND SAL01	SALINE (FEN)	56.573903999999998859493643976747989654541015625	-111.277773999999993748133420012891292572021484375	HOBO Rain Gauge Data Logger - RG3	HOBO Temperature/RH Smart Sensor (S-THB-M002)	Soil Moisture Smart Sensor - EC5 (S-SMC-M005)	2019-06-07T02:00:01	0.00	7.116	64.200	0.6068	0.8
640	AB07CD0350	WETLAND SAL01	SALINE (FEN)	56.573903999999998859493643976747989654541015625	-111.277773999999993748133420012891292572021484375	HOBO Rain Gauge Data Logger - RG3	HOBO Temperature/RH Smart Sensor (S-THB-M002)	Soil Moisture Smart Sensor - EC5 (S-SMC-M005)	2019-06-07T03:00:01	0.00	6.585	65.300	0.6068	0.5
641	AB07CD0350	WETLAND SAL01	SALINE (FEN)	56.573903999999998859493643976747989654541015625	-111.277773999999993748133420012891292572021484375	HOBO Rain Gauge Data Logger - RG3	HOBO Temperature/RH Smart Sensor (S-THB-M002)	Soil Moisture Smart Sensor - EC5 (S-SMC-M005)	2019-06-07T04:00:01	0.00	5.796	67.500	0.6068	0.3
642	AB07CD0350	WETLAND SAL01	SALINE (FEN)	56.573903999999998859493643976747989654541015625	-111.277773999999993748133420012891292572021484375	HOBO Rain Gauge Data Logger - RG3	HOBO Temperature/RH Smart Sensor (S-THB-M002)	Soil Moisture Smart Sensor - EC5 (S-SMC-M005)	2019-06-07T05:00:01	0.00	5.565	70.500	0.6068	0.6
643	AB07CD0350	WETLAND SAL01	SALINE (FEN)	56.573903999999998859493643976747989654541015625	-111.277773999999993748133420012891292572021484375	HOBO Rain Gauge Data Logger - RG3	HOBO Temperature/RH Smart Sensor (S-THB-M002)	Soil Moisture Smart Sensor - EC5 (S-SMC-M005)	2019-06-07T06:00:01	0.00	5.385	73.400	0.6068	1.0
644	AB07CD0350	WETLAND SAL01	SALINE (FEN)	56.573903999999998859493643976747989654541015625	-111.277773999999993748133420012891292572021484375	HOBO Rain Gauge Data Logger - RG3	HOBO Temperature/RH Smart Sensor (S-THB-M002)	Soil Moisture Smart Sensor - EC5 (S-SMC-M005)	2019-06-07T07:00:01	0.00	5.565	73.700	0.6068	1.2
645	AB07CD0350	WETLAND SAL01	SALINE (FEN)	56.573903999999998859493643976747989654541015625	-111.277773999999993748133420012891292572021484375	HOBO Rain Gauge Data Logger - RG3	HOBO Temperature/RH Smart Sensor (S-THB-M002)	Soil Moisture Smart Sensor - EC5 (S-SMC-M005)	2019-06-07T08:00:01	0.00	5.488	73.600	0.6068	1.2
646	AB07CD0350	WETLAND SAL01	SALINE (FEN)	56.573903999999998859493643976747989654541015625	-111.277773999999993748133420012891292572021484375	HOBO Rain Gauge Data Logger - RG3	HOBO Temperature/RH Smart Sensor (S-THB-M002)	Soil Moisture Smart Sensor - EC5 (S-SMC-M005)	2019-06-07T09:00:01	0.00	5.745	72.900	0.6068	1.3
647	AB07CD0350	WETLAND SAL01	SALINE (FEN)	56.573903999999998859493643976747989654541015625	-111.277773999999993748133420012891292572021484375	HOBO Rain Gauge Data Logger - RG3	HOBO Temperature/RH Smart Sensor (S-THB-M002)	Soil Moisture Smart Sensor - EC5 (S-SMC-M005)	2019-06-07T10:00:01	0.00	5.847	69.300	0.6068	0.7
648	AB07CD0350	WETLAND SAL01	SALINE (FEN)	56.573903999999998859493643976747989654541015625	-111.277773999999993748133420012891292572021484375	HOBO Rain Gauge Data Logger - RG3	HOBO Temperature/RH Smart Sensor (S-THB-M002)	Soil Moisture Smart Sensor - EC5 (S-SMC-M005)	2019-06-07T11:00:01	0.00	7.142	65.900	0.6068	1.2
649	AB07CD0350	WETLAND SAL01	SALINE (FEN)	56.573903999999998859493643976747989654541015625	-111.277773999999993748133420012891292572021484375	HOBO Rain Gauge Data Logger - RG3	HOBO Temperature/RH Smart Sensor (S-THB-M002)	Soil Moisture Smart Sensor - EC5 (S-SMC-M005)	2019-06-07T12:00:01	0.00	7.419	63.800	0.6060	1.0
650	AB07CD0350	WETLAND SAL01	SALINE (FEN)	56.573903999999998859493643976747989654541015625	-111.277773999999993748133420012891292572021484375	HOBO Rain Gauge Data Logger - RG3	HOBO Temperature/RH Smart Sensor (S-THB-M002)	Soil Moisture Smart Sensor - EC5 (S-SMC-M005)	2019-06-07T13:00:01	0.00	7.393	63.200	0.6060	0.9
651	AB07CD0350	WETLAND SAL01	SALINE (FEN)	56.573903999999998859493643976747989654541015625	-111.277773999999993748133420012891292572021484375	HOBO Rain Gauge Data Logger - RG3	HOBO Temperature/RH Smart Sensor (S-THB-M002)	Soil Moisture Smart Sensor - EC5 (S-SMC-M005)	2019-06-07T14:00:01	0.00	7.594	63.200	0.6060	1.1
652	AB07CD0350	WETLAND SAL01	SALINE (FEN)	56.573903999999998859493643976747989654541015625	-111.277773999999993748133420012891292572021484375	HOBO Rain Gauge Data Logger - RG3	HOBO Temperature/RH Smart Sensor (S-THB-M002)	Soil Moisture Smart Sensor - EC5 (S-SMC-M005)	2019-06-07T15:00:01	0.00	7.920	64.000	0.6060	1.5
653	AB07CD0350	WETLAND SAL01	SALINE (FEN)	56.573903999999998859493643976747989654541015625	-111.277773999999993748133420012891292572021484375	HOBO Rain Gauge Data Logger - RG3	HOBO Temperature/RH Smart Sensor (S-THB-M002)	Soil Moisture Smart Sensor - EC5 (S-SMC-M005)	2019-06-07T16:00:01	0.00	7.494	64.600	0.6060	1.3
654	AB07CD0350	WETLAND SAL01	SALINE (FEN)	56.573903999999998859493643976747989654541015625	-111.277773999999993748133420012891292572021484375	HOBO Rain Gauge Data Logger - RG3	HOBO Temperature/RH Smart Sensor (S-THB-M002)	Soil Moisture Smart Sensor - EC5 (S-SMC-M005)	2019-06-07T17:00:01	0.00	7.645	64.100	0.6060	1.3
655	AB07CD0350	WETLAND SAL01	SALINE (FEN)	56.573903999999998859493643976747989654541015625	-111.277773999999993748133420012891292572021484375	HOBO Rain Gauge Data Logger - RG3	HOBO Temperature/RH Smart Sensor (S-THB-M002)	Soil Moisture Smart Sensor - EC5 (S-SMC-M005)	2019-06-07T18:00:01	0.00	7.920	62.700	0.6060	1.3
656	AB07CD0350	WETLAND SAL01	SALINE (FEN)	56.573903999999998859493643976747989654541015625	-111.277773999999993748133420012891292572021484375	HOBO Rain Gauge Data Logger - RG3	HOBO Temperature/RH Smart Sensor (S-THB-M002)	Soil Moisture Smart Sensor - EC5 (S-SMC-M005)	2019-06-07T19:00:01	0.00	8.270	61.200	0.6060	1.2
657	AB07CD0350	WETLAND SAL01	SALINE (FEN)	56.573903999999998859493643976747989654541015625	-111.277773999999993748133420012891292572021484375	HOBO Rain Gauge Data Logger - RG3	HOBO Temperature/RH Smart Sensor (S-THB-M002)	Soil Moisture Smart Sensor - EC5 (S-SMC-M005)	2019-06-07T20:00:01	0.00	8.444	60.700	0.6060	1.3
658	AB07CD0350	WETLAND SAL01	SALINE (FEN)	56.573903999999998859493643976747989654541015625	-111.277773999999993748133420012891292572021484375	HOBO Rain Gauge Data Logger - RG3	HOBO Temperature/RH Smart Sensor (S-THB-M002)	Soil Moisture Smart Sensor - EC5 (S-SMC-M005)	2019-06-07T21:00:01	0.00	8.095	60.100	0.6060	0.8
659	AB07CD0350	WETLAND SAL01	SALINE (FEN)	56.573903999999998859493643976747989654541015625	-111.277773999999993748133420012891292572021484375	HOBO Rain Gauge Data Logger - RG3	HOBO Temperature/RH Smart Sensor (S-THB-M002)	Soil Moisture Smart Sensor - EC5 (S-SMC-M005)	2019-06-07T22:00:01	0.00	7.444	62.400	0.6060	0.7
660	AB07CD0350	WETLAND SAL01	SALINE (FEN)	56.573903999999998859493643976747989654541015625	-111.277773999999993748133420012891292572021484375	HOBO Rain Gauge Data Logger - RG3	HOBO Temperature/RH Smart Sensor (S-THB-M002)	Soil Moisture Smart Sensor - EC5 (S-SMC-M005)	2019-06-07T23:00:01	0.00	6.940	65.400	0.6060	0.9
661	AB07CD0350	WETLAND SAL01	SALINE (FEN)	56.573903999999998859493643976747989654541015625	-111.277773999999993748133420012891292572021484375	HOBO Rain Gauge Data Logger - RG3	HOBO Temperature/RH Smart Sensor (S-THB-M002)	Soil Moisture Smart Sensor - EC5 (S-SMC-M005)	2019-06-08T00:00:01	0.00	6.433	64.900	0.6060	0.3
662	AB07CD0350	WETLAND SAL01	SALINE (FEN)	56.573903999999998859493643976747989654541015625	-111.277773999999993748133420012891292572021484375	HOBO Rain Gauge Data Logger - RG3	HOBO Temperature/RH Smart Sensor (S-THB-M002)	Soil Moisture Smart Sensor - EC5 (S-SMC-M005)	2019-06-08T01:00:01	0.00	4.766	69.500	0.6060	-0.3
663	AB07CD0350	WETLAND SAL01	SALINE (FEN)	56.573903999999998859493643976747989654541015625	-111.277773999999993748133420012891292572021484375	HOBO Rain Gauge Data Logger - RG3	HOBO Temperature/RH Smart Sensor (S-THB-M002)	Soil Moisture Smart Sensor - EC5 (S-SMC-M005)	2019-06-08T02:00:01	0.00	2.850	77.100	0.6053	-0.8
664	AB07CD0350	WETLAND SAL01	SALINE (FEN)	56.573903999999998859493643976747989654541015625	-111.277773999999993748133420012891292572021484375	HOBO Rain Gauge Data Logger - RG3	HOBO Temperature/RH Smart Sensor (S-THB-M002)	Soil Moisture Smart Sensor - EC5 (S-SMC-M005)	2019-06-08T03:00:01	0.00	2.983	82.400	0.6053	0.3
665	AB07CD0350	WETLAND SAL01	SALINE (FEN)	56.573903999999998859493643976747989654541015625	-111.277773999999993748133420012891292572021484375	HOBO Rain Gauge Data Logger - RG3	HOBO Temperature/RH Smart Sensor (S-THB-M002)	Soil Moisture Smart Sensor - EC5 (S-SMC-M005)	2019-06-08T04:00:01	0.00	3.142	82.200	0.6053	0.4
666	AB07CD0350	WETLAND SAL01	SALINE (FEN)	56.573903999999998859493643976747989654541015625	-111.277773999999993748133420012891292572021484375	HOBO Rain Gauge Data Logger - RG3	HOBO Temperature/RH Smart Sensor (S-THB-M002)	Soil Moisture Smart Sensor - EC5 (S-SMC-M005)	2019-06-08T05:00:01	0.00	2.610	83.000	0.6053	0.0
667	AB07CD0350	WETLAND SAL01	SALINE (FEN)	56.573903999999998859493643976747989654541015625	-111.277773999999993748133420012891292572021484375	HOBO Rain Gauge Data Logger - RG3	HOBO Temperature/RH Smart Sensor (S-THB-M002)	Soil Moisture Smart Sensor - EC5 (S-SMC-M005)	2019-06-08T06:00:01	0.00	3.195	83.400	0.6053	0.7
668	AB07CD0350	WETLAND SAL01	SALINE (FEN)	56.573903999999998859493643976747989654541015625	-111.277773999999993748133420012891292572021484375	HOBO Rain Gauge Data Logger - RG3	HOBO Temperature/RH Smart Sensor (S-THB-M002)	Soil Moisture Smart Sensor - EC5 (S-SMC-M005)	2019-06-08T07:00:01	0.00	4.350	80.600	0.6053	1.3
669	AB07CD0350	WETLAND SAL01	SALINE (FEN)	56.573903999999998859493643976747989654541015625	-111.277773999999993748133420012891292572021484375	HOBO Rain Gauge Data Logger - RG3	HOBO Temperature/RH Smart Sensor (S-THB-M002)	Soil Moisture Smart Sensor - EC5 (S-SMC-M005)	2019-06-08T08:00:01	0.00	4.220	77.400	0.6053	0.6
670	AB07CD0350	WETLAND SAL01	SALINE (FEN)	56.573903999999998859493643976747989654541015625	-111.277773999999993748133420012891292572021484375	HOBO Rain Gauge Data Logger - RG3	HOBO Temperature/RH Smart Sensor (S-THB-M002)	Soil Moisture Smart Sensor - EC5 (S-SMC-M005)	2019-06-08T09:00:01	0.00	5.539	75.100	0.6053	1.5
671	AB07CD0350	WETLAND SAL01	SALINE (FEN)	56.573903999999998859493643976747989654541015625	-111.277773999999993748133420012891292572021484375	HOBO Rain Gauge Data Logger - RG3	HOBO Temperature/RH Smart Sensor (S-THB-M002)	Soil Moisture Smart Sensor - EC5 (S-SMC-M005)	2019-06-08T10:00:01	0.00	6.889	69.000	0.6053	1.6
672	AB07CD0350	WETLAND SAL01	SALINE (FEN)	56.573903999999998859493643976747989654541015625	-111.277773999999993748133420012891292572021484375	HOBO Rain Gauge Data Logger - RG3	HOBO Temperature/RH Smart Sensor (S-THB-M002)	Soil Moisture Smart Sensor - EC5 (S-SMC-M005)	2019-06-08T11:00:01	0.00	8.095	65.000	0.6046	1.9
673	AB07CD0350	WETLAND SAL01	SALINE (FEN)	56.573903999999998859493643976747989654541015625	-111.277773999999993748133420012891292572021484375	HOBO Rain Gauge Data Logger - RG3	HOBO Temperature/RH Smart Sensor (S-THB-M002)	Soil Moisture Smart Sensor - EC5 (S-SMC-M005)	2019-06-08T12:00:01	0.00	7.091	63.800	0.6046	0.7
674	AB07CD0350	WETLAND SAL01	SALINE (FEN)	56.573903999999998859493643976747989654541015625	-111.277773999999993748133420012891292572021484375	HOBO Rain Gauge Data Logger - RG3	HOBO Temperature/RH Smart Sensor (S-THB-M002)	Soil Moisture Smart Sensor - EC5 (S-SMC-M005)	2019-06-08T13:00:01	0.00	8.444	65.100	0.6046	2.3
675	AB07CD0350	WETLAND SAL01	SALINE (FEN)	56.573903999999998859493643976747989654541015625	-111.277773999999993748133420012891292572021484375	HOBO Rain Gauge Data Logger - RG3	HOBO Temperature/RH Smart Sensor (S-THB-M002)	Soil Moisture Smart Sensor - EC5 (S-SMC-M005)	2019-06-08T14:00:01	0.00	8.045	66.200	0.6046	2.1
676	AB07CD0350	WETLAND SAL01	SALINE (FEN)	56.573903999999998859493643976747989654541015625	-111.277773999999993748133420012891292572021484375	HOBO Rain Gauge Data Logger - RG3	HOBO Temperature/RH Smart Sensor (S-THB-M002)	Soil Moisture Smart Sensor - EC5 (S-SMC-M005)	2019-06-08T15:00:01	0.00	9.114	58.600	0.6046	1.4
677	AB07CD0350	WETLAND SAL01	SALINE (FEN)	56.573903999999998859493643976747989654541015625	-111.277773999999993748133420012891292572021484375	HOBO Rain Gauge Data Logger - RG3	HOBO Temperature/RH Smart Sensor (S-THB-M002)	Soil Moisture Smart Sensor - EC5 (S-SMC-M005)	2019-06-08T16:00:01	0.00	9.410	53.100	0.6046	0.3
678	AB07CD0350	WETLAND SAL01	SALINE (FEN)	56.573903999999998859493643976747989654541015625	-111.277773999999993748133420012891292572021484375	HOBO Rain Gauge Data Logger - RG3	HOBO Temperature/RH Smart Sensor (S-THB-M002)	Soil Moisture Smart Sensor - EC5 (S-SMC-M005)	2019-06-08T17:00:01	0.00	10.051	51.100	0.6046	0.4
679	AB07CD0350	WETLAND SAL01	SALINE (FEN)	56.573903999999998859493643976747989654541015625	-111.277773999999993748133420012891292572021484375	HOBO Rain Gauge Data Logger - RG3	HOBO Temperature/RH Smart Sensor (S-THB-M002)	Soil Moisture Smart Sensor - EC5 (S-SMC-M005)	2019-06-08T18:00:01	0.00	10.638	50.300	0.6046	0.7
680	AB07CD0350	WETLAND SAL01	SALINE (FEN)	56.573903999999998859493643976747989654541015625	-111.277773999999993748133420012891292572021484375	HOBO Rain Gauge Data Logger - RG3	HOBO Temperature/RH Smart Sensor (S-THB-M002)	Soil Moisture Smart Sensor - EC5 (S-SMC-M005)	2019-06-08T19:00:01	0.00	10.345	48.300	0.6046	-0.1
681	AB07CD0350	WETLAND SAL01	SALINE (FEN)	56.573903999999998859493643976747989654541015625	-111.277773999999993748133420012891292572021484375	HOBO Rain Gauge Data Logger - RG3	HOBO Temperature/RH Smart Sensor (S-THB-M002)	Soil Moisture Smart Sensor - EC5 (S-SMC-M005)	2019-06-08T20:00:01	0.00	10.149	48.600	0.6046	-0.2
682	AB07CD0350	WETLAND SAL01	SALINE (FEN)	56.573903999999998859493643976747989654541015625	-111.277773999999993748133420012891292572021484375	HOBO Rain Gauge Data Logger - RG3	HOBO Temperature/RH Smart Sensor (S-THB-M002)	Soil Moisture Smart Sensor - EC5 (S-SMC-M005)	2019-06-08T21:00:01	0.00	9.805	48.700	0.6046	-0.5
683	AB07CD0350	WETLAND SAL01	SALINE (FEN)	56.573903999999998859493643976747989654541015625	-111.277773999999993748133420012891292572021484375	HOBO Rain Gauge Data Logger - RG3	HOBO Temperature/RH Smart Sensor (S-THB-M002)	Soil Moisture Smart Sensor - EC5 (S-SMC-M005)	2019-06-08T22:00:01	0.00	7.745	50.200	0.6046	-2.0
684	AB07CD0350	WETLAND SAL01	SALINE (FEN)	56.573903999999998859493643976747989654541015625	-111.277773999999993748133420012891292572021484375	HOBO Rain Gauge Data Logger - RG3	HOBO Temperature/RH Smart Sensor (S-THB-M002)	Soil Moisture Smart Sensor - EC5 (S-SMC-M005)	2019-06-08T23:00:01	0.00	7.444	61.700	0.6046	0.6
685	AB07CD0350	WETLAND SAL01	SALINE (FEN)	56.573903999999998859493643976747989654541015625	-111.277773999999993748133420012891292572021484375	HOBO Rain Gauge Data Logger - RG3	HOBO Temperature/RH Smart Sensor (S-THB-M002)	Soil Moisture Smart Sensor - EC5 (S-SMC-M005)	2019-06-09T00:00:01	0.00	7.619	66.100	0.6039	1.7
686	AB07CD0350	WETLAND SAL01	SALINE (FEN)	56.573903999999998859493643976747989654541015625	-111.277773999999993748133420012891292572021484375	HOBO Rain Gauge Data Logger - RG3	HOBO Temperature/RH Smart Sensor (S-THB-M002)	Soil Moisture Smart Sensor - EC5 (S-SMC-M005)	2019-06-09T01:00:01	0.00	7.242	65.100	0.6046	1.1
687	AB07CD0350	WETLAND SAL01	SALINE (FEN)	56.573903999999998859493643976747989654541015625	-111.277773999999993748133420012891292572021484375	HOBO Rain Gauge Data Logger - RG3	HOBO Temperature/RH Smart Sensor (S-THB-M002)	Soil Moisture Smart Sensor - EC5 (S-SMC-M005)	2019-06-09T02:00:01	0.00	6.712	67.500	0.6046	1.1
688	AB07CD0350	WETLAND SAL01	SALINE (FEN)	56.573903999999998859493643976747989654541015625	-111.277773999999993748133420012891292572021484375	HOBO Rain Gauge Data Logger - RG3	HOBO Temperature/RH Smart Sensor (S-THB-M002)	Soil Moisture Smart Sensor - EC5 (S-SMC-M005)	2019-06-09T03:00:01	0.00	4.973	73.000	0.6046	0.5
689	AB07CD0350	WETLAND SAL01	SALINE (FEN)	56.573903999999998859493643976747989654541015625	-111.277773999999993748133420012891292572021484375	HOBO Rain Gauge Data Logger - RG3	HOBO Temperature/RH Smart Sensor (S-THB-M002)	Soil Moisture Smart Sensor - EC5 (S-SMC-M005)	2019-06-09T04:00:01	0.00	3.906	76.600	0.6046	0.2
690	AB07CD0350	WETLAND SAL01	SALINE (FEN)	56.573903999999998859493643976747989654541015625	-111.277773999999993748133420012891292572021484375	HOBO Rain Gauge Data Logger - RG3	HOBO Temperature/RH Smart Sensor (S-THB-M002)	Soil Moisture Smart Sensor - EC5 (S-SMC-M005)	2019-06-09T05:00:01	0.00	3.591	81.200	0.6046	0.7
691	AB07CD0350	WETLAND SAL01	SALINE (FEN)	56.573903999999998859493643976747989654541015625	-111.277773999999993748133420012891292572021484375	HOBO Rain Gauge Data Logger - RG3	HOBO Temperature/RH Smart Sensor (S-THB-M002)	Soil Moisture Smart Sensor - EC5 (S-SMC-M005)	2019-06-09T06:00:01	0.00	5.102	80.300	0.6046	2.0
692	AB07CD0350	WETLAND SAL01	SALINE (FEN)	56.573903999999998859493643976747989654541015625	-111.277773999999993748133420012891292572021484375	HOBO Rain Gauge Data Logger - RG3	HOBO Temperature/RH Smart Sensor (S-THB-M002)	Soil Moisture Smart Sensor - EC5 (S-SMC-M005)	2019-06-09T07:00:01	0.00	7.116	73.300	0.6046	2.7
693	AB07CD0350	WETLAND SAL01	SALINE (FEN)	56.573903999999998859493643976747989654541015625	-111.277773999999993748133420012891292572021484375	HOBO Rain Gauge Data Logger - RG3	HOBO Temperature/RH Smart Sensor (S-THB-M002)	Soil Moisture Smart Sensor - EC5 (S-SMC-M005)	2019-06-09T08:00:01	0.00	9.410	63.900	0.6039	2.9
694	AB07CD0350	WETLAND SAL01	SALINE (FEN)	56.573903999999998859493643976747989654541015625	-111.277773999999993748133420012891292572021484375	HOBO Rain Gauge Data Logger - RG3	HOBO Temperature/RH Smart Sensor (S-THB-M002)	Soil Moisture Smart Sensor - EC5 (S-SMC-M005)	2019-06-09T09:00:01	0.00	10.883	54.100	0.6046	2.0
695	AB07CD0350	WETLAND SAL01	SALINE (FEN)	56.573903999999998859493643976747989654541015625	-111.277773999999993748133420012891292572021484375	HOBO Rain Gauge Data Logger - RG3	HOBO Temperature/RH Smart Sensor (S-THB-M002)	Soil Moisture Smart Sensor - EC5 (S-SMC-M005)	2019-06-09T10:00:01	0.00	10.271	46.800	0.6046	-0.6
696	AB07CD0350	WETLAND SAL01	SALINE (FEN)	56.573903999999998859493643976747989654541015625	-111.277773999999993748133420012891292572021484375	HOBO Rain Gauge Data Logger - RG3	HOBO Temperature/RH Smart Sensor (S-THB-M002)	Soil Moisture Smart Sensor - EC5 (S-SMC-M005)	2019-06-09T11:00:01	0.00	11.346	46.900	0.6046	0.4
697	AB07CD0350	WETLAND SAL01	SALINE (FEN)	56.573903999999998859493643976747989654541015625	-111.277773999999993748133420012891292572021484375	HOBO Rain Gauge Data Logger - RG3	HOBO Temperature/RH Smart Sensor (S-THB-M002)	Soil Moisture Smart Sensor - EC5 (S-SMC-M005)	2019-06-09T12:00:01	0.00	10.541	49.300	0.6039	0.4
698	AB07CD0350	WETLAND SAL01	SALINE (FEN)	56.573903999999998859493643976747989654541015625	-111.277773999999993748133420012891292572021484375	HOBO Rain Gauge Data Logger - RG3	HOBO Temperature/RH Smart Sensor (S-THB-M002)	Soil Moisture Smart Sensor - EC5 (S-SMC-M005)	2019-06-09T13:00:01	0.00	11.127	46.700	0.6039	0.2
699	AB07CD0350	WETLAND SAL01	SALINE (FEN)	56.573903999999998859493643976747989654541015625	-111.277773999999993748133420012891292572021484375	HOBO Rain Gauge Data Logger - RG3	HOBO Temperature/RH Smart Sensor (S-THB-M002)	Soil Moisture Smart Sensor - EC5 (S-SMC-M005)	2019-06-09T14:00:01	0.00	10.712	61.200	0.6039	3.6
700	AB07CD0350	WETLAND SAL01	SALINE (FEN)	56.573903999999998859493643976747989654541015625	-111.277773999999993748133420012891292572021484375	HOBO Rain Gauge Data Logger - RG3	HOBO Temperature/RH Smart Sensor (S-THB-M002)	Soil Moisture Smart Sensor - EC5 (S-SMC-M005)	2019-06-09T15:00:01	0.00	12.292	51.000	0.6039	2.5
701	AB07CD0350	WETLAND SAL01	SALINE (FEN)	56.573903999999998859493643976747989654541015625	-111.277773999999993748133420012891292572021484375	HOBO Rain Gauge Data Logger - RG3	HOBO Temperature/RH Smart Sensor (S-THB-M002)	Soil Moisture Smart Sensor - EC5 (S-SMC-M005)	2019-06-09T16:00:01	0.00	11.977	51.000	0.6039	2.2
702	AB07CD0350	WETLAND SAL01	SALINE (FEN)	56.573903999999998859493643976747989654541015625	-111.277773999999993748133420012891292572021484375	HOBO Rain Gauge Data Logger - RG3	HOBO Temperature/RH Smart Sensor (S-THB-M002)	Soil Moisture Smart Sensor - EC5 (S-SMC-M005)	2019-06-09T17:00:01	0.00	13.570	44.800	0.6039	1.8
703	AB07CD0350	WETLAND SAL01	SALINE (FEN)	56.573903999999998859493643976747989654541015625	-111.277773999999993748133420012891292572021484375	HOBO Rain Gauge Data Logger - RG3	HOBO Temperature/RH Smart Sensor (S-THB-M002)	Soil Moisture Smart Sensor - EC5 (S-SMC-M005)	2019-06-09T18:00:01	0.00	14.864	41.400	0.6039	1.9
704	AB07CD0350	WETLAND SAL01	SALINE (FEN)	56.573903999999998859493643976747989654541015625	-111.277773999999993748133420012891292572021484375	HOBO Rain Gauge Data Logger - RG3	HOBO Temperature/RH Smart Sensor (S-THB-M002)	Soil Moisture Smart Sensor - EC5 (S-SMC-M005)	2019-06-09T19:00:01	0.00	13.762	47.700	0.6039	2.9
705	AB07CD0350	WETLAND SAL01	SALINE (FEN)	56.573903999999998859493643976747989654541015625	-111.277773999999993748133420012891292572021484375	HOBO Rain Gauge Data Logger - RG3	HOBO Temperature/RH Smart Sensor (S-THB-M002)	Soil Moisture Smart Sensor - EC5 (S-SMC-M005)	2019-06-09T20:00:01	0.00	14.433	45.100	0.6039	2.7
706	AB07CD0350	WETLAND SAL01	SALINE (FEN)	56.573903999999998859493643976747989654541015625	-111.277773999999993748133420012891292572021484375	HOBO Rain Gauge Data Logger - RG3	HOBO Temperature/RH Smart Sensor (S-THB-M002)	Soil Moisture Smart Sensor - EC5 (S-SMC-M005)	2019-06-09T21:00:01	0.00	13.690	39.500	0.6039	0.2
707	AB07CD0350	WETLAND SAL01	SALINE (FEN)	56.573903999999998859493643976747989654541015625	-111.277773999999993748133420012891292572021484375	HOBO Rain Gauge Data Logger - RG3	HOBO Temperature/RH Smart Sensor (S-THB-M002)	Soil Moisture Smart Sensor - EC5 (S-SMC-M005)	2019-06-09T22:00:01	0.00	9.410	46.500	0.6039	-1.5
708	AB07CD0350	WETLAND SAL01	SALINE (FEN)	56.573903999999998859493643976747989654541015625	-111.277773999999993748133420012891292572021484375	HOBO Rain Gauge Data Logger - RG3	HOBO Temperature/RH Smart Sensor (S-THB-M002)	Soil Moisture Smart Sensor - EC5 (S-SMC-M005)	2019-06-09T23:00:01	0.00	8.319	59.200	0.6039	0.8
709	AB07CD0350	WETLAND SAL01	SALINE (FEN)	56.573903999999998859493643976747989654541015625	-111.277773999999993748133420012891292572021484375	HOBO Rain Gauge Data Logger - RG3	HOBO Temperature/RH Smart Sensor (S-THB-M002)	Soil Moisture Smart Sensor - EC5 (S-SMC-M005)	2019-06-10T00:00:01	0.00	9.731	53.300	0.6039	0.7
710	AB07CD0350	WETLAND SAL01	SALINE (FEN)	56.573903999999998859493643976747989654541015625	-111.277773999999993748133420012891292572021484375	HOBO Rain Gauge Data Logger - RG3	HOBO Temperature/RH Smart Sensor (S-THB-M002)	Soil Moisture Smart Sensor - EC5 (S-SMC-M005)	2019-06-10T01:00:01	0.00	10.369	46.300	0.6039	-0.7
711	AB07CD0350	WETLAND SAL01	SALINE (FEN)	56.573903999999998859493643976747989654541015625	-111.277773999999993748133420012891292572021484375	HOBO Rain Gauge Data Logger - RG3	HOBO Temperature/RH Smart Sensor (S-THB-M002)	Soil Moisture Smart Sensor - EC5 (S-SMC-M005)	2019-06-10T02:00:01	0.00	10.492	46.200	0.6046	-0.6
712	AB07CD0350	WETLAND SAL01	SALINE (FEN)	56.573903999999998859493643976747989654541015625	-111.277773999999993748133420012891292572021484375	HOBO Rain Gauge Data Logger - RG3	HOBO Temperature/RH Smart Sensor (S-THB-M002)	Soil Moisture Smart Sensor - EC5 (S-SMC-M005)	2019-06-10T03:00:01	0.00	10.394	48.700	0.6046	0.1
713	AB07CD0350	WETLAND SAL01	SALINE (FEN)	56.573903999999998859493643976747989654541015625	-111.277773999999993748133420012891292572021484375	HOBO Rain Gauge Data Logger - RG3	HOBO Temperature/RH Smart Sensor (S-THB-M002)	Soil Moisture Smart Sensor - EC5 (S-SMC-M005)	2019-06-10T04:00:01	0.00	9.064	50.200	0.6046	-0.7
714	AB07CD0350	WETLAND SAL01	SALINE (FEN)	56.573903999999998859493643976747989654541015625	-111.277773999999993748133420012891292572021484375	HOBO Rain Gauge Data Logger - RG3	HOBO Temperature/RH Smart Sensor (S-THB-M002)	Soil Moisture Smart Sensor - EC5 (S-SMC-M005)	2019-06-10T05:00:01	0.00	6.661	56.100	0.6039	-1.5
715	AB07CD0350	WETLAND SAL01	SALINE (FEN)	56.573903999999998859493643976747989654541015625	-111.277773999999993748133420012891292572021484375	HOBO Rain Gauge Data Logger - RG3	HOBO Temperature/RH Smart Sensor (S-THB-M002)	Soil Moisture Smart Sensor - EC5 (S-SMC-M005)	2019-06-10T06:00:01	0.00	8.369	60.300	0.6039	1.1
716	AB07CD0350	WETLAND SAL01	SALINE (FEN)	56.573903999999998859493643976747989654541015625	-111.277773999999993748133420012891292572021484375	HOBO Rain Gauge Data Logger - RG3	HOBO Temperature/RH Smart Sensor (S-THB-M002)	Soil Moisture Smart Sensor - EC5 (S-SMC-M005)	2019-06-10T07:00:01	0.00	9.854	53.600	0.6046	0.9
717	AB07CD0350	WETLAND SAL01	SALINE (FEN)	56.573903999999998859493643976747989654541015625	-111.277773999999993748133420012891292572021484375	HOBO Rain Gauge Data Logger - RG3	HOBO Temperature/RH Smart Sensor (S-THB-M002)	Soil Moisture Smart Sensor - EC5 (S-SMC-M005)	2019-06-10T08:00:01	0.00	10.026	55.500	0.6046	1.5
718	AB07CD0350	WETLAND SAL01	SALINE (FEN)	56.573903999999998859493643976747989654541015625	-111.277773999999993748133420012891292572021484375	HOBO Rain Gauge Data Logger - RG3	HOBO Temperature/RH Smart Sensor (S-THB-M002)	Soil Moisture Smart Sensor - EC5 (S-SMC-M005)	2019-06-10T09:00:01	0.00	10.785	58.200	0.6046	2.9
719	AB07CD0350	WETLAND SAL01	SALINE (FEN)	56.573903999999998859493643976747989654541015625	-111.277773999999993748133420012891292572021484375	HOBO Rain Gauge Data Logger - RG3	HOBO Temperature/RH Smart Sensor (S-THB-M002)	Soil Moisture Smart Sensor - EC5 (S-SMC-M005)	2019-06-10T10:00:01	0.00	11.467	55.500	0.6046	2.9
720	AB07CD0350	WETLAND SAL01	SALINE (FEN)	56.573903999999998859493643976747989654541015625	-111.277773999999993748133420012891292572021484375	HOBO Rain Gauge Data Logger - RG3	HOBO Temperature/RH Smart Sensor (S-THB-M002)	Soil Moisture Smart Sensor - EC5 (S-SMC-M005)	2019-06-10T11:00:01	0.00	13.161	49.300	0.6046	2.8
721	AB07CD0350	WETLAND SAL01	SALINE (FEN)	56.573903999999998859493643976747989654541015625	-111.277773999999993748133420012891292572021484375	HOBO Rain Gauge Data Logger - RG3	HOBO Temperature/RH Smart Sensor (S-THB-M002)	Soil Moisture Smart Sensor - EC5 (S-SMC-M005)	2019-06-10T12:00:01	0.00	12.654	45.600	0.6039	1.2
722	AB07CD0350	WETLAND SAL01	SALINE (FEN)	56.573903999999998859493643976747989654541015625	-111.277773999999993748133420012891292572021484375	HOBO Rain Gauge Data Logger - RG3	HOBO Temperature/RH Smart Sensor (S-THB-M002)	Soil Moisture Smart Sensor - EC5 (S-SMC-M005)	2019-06-10T13:00:01	0.00	14.745	43.700	0.6046	2.5
723	AB07CD0350	WETLAND SAL01	SALINE (FEN)	56.573903999999998859493643976747989654541015625	-111.277773999999993748133420012891292572021484375	HOBO Rain Gauge Data Logger - RG3	HOBO Temperature/RH Smart Sensor (S-THB-M002)	Soil Moisture Smart Sensor - EC5 (S-SMC-M005)	2019-06-10T14:00:01	0.00	16.415	36.600	0.6039	1.5
724	AB07CD0350	WETLAND SAL01	SALINE (FEN)	56.573903999999998859493643976747989654541015625	-111.277773999999993748133420012891292572021484375	HOBO Rain Gauge Data Logger - RG3	HOBO Temperature/RH Smart Sensor (S-THB-M002)	Soil Moisture Smart Sensor - EC5 (S-SMC-M005)	2019-06-10T15:00:01	0.00	16.915	34.800	0.6039	1.3
725	AB07CD0350	WETLAND SAL01	SALINE (FEN)	56.573903999999998859493643976747989654541015625	-111.277773999999993748133420012891292572021484375	HOBO Rain Gauge Data Logger - RG3	HOBO Temperature/RH Smart Sensor (S-THB-M002)	Soil Moisture Smart Sensor - EC5 (S-SMC-M005)	2019-06-10T16:00:01	0.00	17.296	33.500	0.6039	1.1
726	AB07CD0350	WETLAND SAL01	SALINE (FEN)	56.573903999999998859493643976747989654541015625	-111.277773999999993748133420012891292572021484375	HOBO Rain Gauge Data Logger - RG3	HOBO Temperature/RH Smart Sensor (S-THB-M002)	Soil Moisture Smart Sensor - EC5 (S-SMC-M005)	2019-06-10T17:00:01	0.00	18.224	31.200	0.6046	0.9
727	AB07CD0350	WETLAND SAL01	SALINE (FEN)	56.573903999999998859493643976747989654541015625	-111.277773999999993748133420012891292572021484375	HOBO Rain Gauge Data Logger - RG3	HOBO Temperature/RH Smart Sensor (S-THB-M002)	Soil Moisture Smart Sensor - EC5 (S-SMC-M005)	2019-06-10T18:00:01	0.00	18.866	29.900	0.6046	0.9
728	AB07CD0350	WETLAND SAL01	SALINE (FEN)	56.573903999999998859493643976747989654541015625	-111.277773999999993748133420012891292572021484375	HOBO Rain Gauge Data Logger - RG3	HOBO Temperature/RH Smart Sensor (S-THB-M002)	Soil Moisture Smart Sensor - EC5 (S-SMC-M005)	2019-06-10T19:00:01	0.00	18.580	29.000	0.6046	0.2
729	AB07CD0350	WETLAND SAL01	SALINE (FEN)	56.573903999999998859493643976747989654541015625	-111.277773999999993748133420012891292572021484375	HOBO Rain Gauge Data Logger - RG3	HOBO Temperature/RH Smart Sensor (S-THB-M002)	Soil Moisture Smart Sensor - EC5 (S-SMC-M005)	2019-06-10T20:00:01	0.00	17.843	28.500	0.6039	-0.7
730	AB07CD0350	WETLAND SAL01	SALINE (FEN)	56.573903999999998859493643976747989654541015625	-111.277773999999993748133420012891292572021484375	HOBO Rain Gauge Data Logger - RG3	HOBO Temperature/RH Smart Sensor (S-THB-M002)	Soil Moisture Smart Sensor - EC5 (S-SMC-M005)	2019-06-10T21:00:01	0.00	15.796	29.700	0.6046	-1.9
731	AB07CD0350	WETLAND SAL01	SALINE (FEN)	56.573903999999998859493643976747989654541015625	-111.277773999999993748133420012891292572021484375	HOBO Rain Gauge Data Logger - RG3	HOBO Temperature/RH Smart Sensor (S-THB-M002)	Soil Moisture Smart Sensor - EC5 (S-SMC-M005)	2019-06-10T22:00:01	0.00	13.666	31.800	0.6046	-2.8
732	AB07CD0350	WETLAND SAL01	SALINE (FEN)	56.573903999999998859493643976747989654541015625	-111.277773999999993748133420012891292572021484375	HOBO Rain Gauge Data Logger - RG3	HOBO Temperature/RH Smart Sensor (S-THB-M002)	Soil Moisture Smart Sensor - EC5 (S-SMC-M005)	2019-06-10T23:00:01	0.00	12.074	31.300	0.6046	-4.4
733	AB07CD0350	WETLAND SAL01	SALINE (FEN)	56.573903999999998859493643976747989654541015625	-111.277773999999993748133420012891292572021484375	HOBO Rain Gauge Data Logger - RG3	HOBO Temperature/RH Smart Sensor (S-THB-M002)	Soil Moisture Smart Sensor - EC5 (S-SMC-M005)	2019-06-11T00:00:01	0.00	11.053	33.900	0.6053	-4.2
734	AB07CD0350	WETLAND SAL01	SALINE (FEN)	56.573903999999998859493643976747989654541015625	-111.277773999999993748133420012891292572021484375	HOBO Rain Gauge Data Logger - RG3	HOBO Temperature/RH Smart Sensor (S-THB-M002)	Soil Moisture Smart Sensor - EC5 (S-SMC-M005)	2019-06-11T01:00:01	0.00	8.145	42.700	0.6053	-3.8
735	AB07CD0350	WETLAND SAL01	SALINE (FEN)	56.573903999999998859493643976747989654541015625	-111.277773999999993748133420012891292572021484375	HOBO Rain Gauge Data Logger - RG3	HOBO Temperature/RH Smart Sensor (S-THB-M002)	Soil Moisture Smart Sensor - EC5 (S-SMC-M005)	2019-06-11T02:00:01	0.00	7.795	53.200	0.6053	-1.1
736	AB07CD0350	WETLAND SAL01	SALINE (FEN)	56.573903999999998859493643976747989654541015625	-111.277773999999993748133420012891292572021484375	HOBO Rain Gauge Data Logger - RG3	HOBO Temperature/RH Smart Sensor (S-THB-M002)	Soil Moisture Smart Sensor - EC5 (S-SMC-M005)	2019-06-11T03:00:01	0.00	9.386	46.600	0.6053	-1.5
737	AB07CD0350	WETLAND SAL01	SALINE (FEN)	56.573903999999998859493643976747989654541015625	-111.277773999999993748133420012891292572021484375	HOBO Rain Gauge Data Logger - RG3	HOBO Temperature/RH Smart Sensor (S-THB-M002)	Soil Moisture Smart Sensor - EC5 (S-SMC-M005)	2019-06-11T04:00:01	0.00	8.668	46.200	0.6053	-2.2
738	AB07CD0350	WETLAND SAL01	SALINE (FEN)	56.573903999999998859493643976747989654541015625	-111.277773999999993748133420012891292572021484375	HOBO Rain Gauge Data Logger - RG3	HOBO Temperature/RH Smart Sensor (S-THB-M002)	Soil Moisture Smart Sensor - EC5 (S-SMC-M005)	2019-06-11T05:00:01	0.00	9.534	49.400	0.6053	-0.5
739	AB07CD0350	WETLAND SAL01	SALINE (FEN)	56.573903999999998859493643976747989654541015625	-111.277773999999993748133420012891292572021484375	HOBO Rain Gauge Data Logger - RG3	HOBO Temperature/RH Smart Sensor (S-THB-M002)	Soil Moisture Smart Sensor - EC5 (S-SMC-M005)	2019-06-11T06:00:01	0.00	11.224	48.500	0.6053	0.8
740	AB07CD0350	WETLAND SAL01	SALINE (FEN)	56.573903999999998859493643976747989654541015625	-111.277773999999993748133420012891292572021484375	HOBO Rain Gauge Data Logger - RG3	HOBO Temperature/RH Smart Sensor (S-THB-M002)	Soil Moisture Smart Sensor - EC5 (S-SMC-M005)	2019-06-11T07:00:01	0.00	12.703	43.500	0.6053	0.6
741	AB07CD0350	WETLAND SAL01	SALINE (FEN)	56.573903999999998859493643976747989654541015625	-111.277773999999993748133420012891292572021484375	HOBO Rain Gauge Data Logger - RG3	HOBO Temperature/RH Smart Sensor (S-THB-M002)	Soil Moisture Smart Sensor - EC5 (S-SMC-M005)	2019-06-11T08:00:01	0.00	14.505	38.500	0.6060	0.6
742	AB07CD0350	WETLAND SAL01	SALINE (FEN)	56.573903999999998859493643976747989654541015625	-111.277773999999993748133420012891292572021484375	HOBO Rain Gauge Data Logger - RG3	HOBO Temperature/RH Smart Sensor (S-THB-M002)	Soil Moisture Smart Sensor - EC5 (S-SMC-M005)	2019-06-11T09:00:01	0.00	16.368	33.800	0.6060	0.4
743	AB07CD0350	WETLAND SAL01	SALINE (FEN)	56.573903999999998859493643976747989654541015625	-111.277773999999993748133420012891292572021484375	HOBO Rain Gauge Data Logger - RG3	HOBO Temperature/RH Smart Sensor (S-THB-M002)	Soil Moisture Smart Sensor - EC5 (S-SMC-M005)	2019-06-11T10:00:01	0.00	17.415	30.600	0.6060	-0.1
744	AB07CD0350	WETLAND SAL01	SALINE (FEN)	56.573903999999998859493643976747989654541015625	-111.277773999999993748133420012891292572021484375	HOBO Rain Gauge Data Logger - RG3	HOBO Temperature/RH Smart Sensor (S-THB-M002)	Soil Moisture Smart Sensor - EC5 (S-SMC-M005)	2019-06-11T11:00:01	0.00	19.175	27.400	0.6060	-0.1
745	AB07CD0350	WETLAND SAL01	SALINE (FEN)	56.573903999999998859493643976747989654541015625	-111.277773999999993748133420012891292572021484375	HOBO Rain Gauge Data Logger - RG3	HOBO Temperature/RH Smart Sensor (S-THB-M002)	Soil Moisture Smart Sensor - EC5 (S-SMC-M005)	2019-06-11T12:00:01	0.00	20.007	26.300	0.6060	0.1
746	AB07CD0350	WETLAND SAL01	SALINE (FEN)	56.573903999999998859493643976747989654541015625	-111.277773999999993748133420012891292572021484375	HOBO Rain Gauge Data Logger - RG3	HOBO Temperature/RH Smart Sensor (S-THB-M002)	Soil Moisture Smart Sensor - EC5 (S-SMC-M005)	2019-06-11T13:00:01	0.00	20.889	26.500	0.6060	1.0
747	AB07CD0350	WETLAND SAL01	SALINE (FEN)	56.573903999999998859493643976747989654541015625	-111.277773999999993748133420012891292572021484375	HOBO Rain Gauge Data Logger - RG3	HOBO Temperature/RH Smart Sensor (S-THB-M002)	Soil Moisture Smart Sensor - EC5 (S-SMC-M005)	2019-06-11T14:00:01	0.00	21.151	26.300	0.6060	1.1
748	AB07CD0350	WETLAND SAL01	SALINE (FEN)	56.573903999999998859493643976747989654541015625	-111.277773999999993748133420012891292572021484375	HOBO Rain Gauge Data Logger - RG3	HOBO Temperature/RH Smart Sensor (S-THB-M002)	Soil Moisture Smart Sensor - EC5 (S-SMC-M005)	2019-06-11T15:00:01	0.00	21.772	25.700	0.6060	1.3
749	AB07CD0350	WETLAND SAL01	SALINE (FEN)	56.573903999999998859493643976747989654541015625	-111.277773999999993748133420012891292572021484375	HOBO Rain Gauge Data Logger - RG3	HOBO Temperature/RH Smart Sensor (S-THB-M002)	Soil Moisture Smart Sensor - EC5 (S-SMC-M005)	2019-06-11T16:00:01	0.00	23.184	25.600	0.6060	2.4
750	AB07CD0350	WETLAND SAL01	SALINE (FEN)	56.573903999999998859493643976747989654541015625	-111.277773999999993748133420012891292572021484375	HOBO Rain Gauge Data Logger - RG3	HOBO Temperature/RH Smart Sensor (S-THB-M002)	Soil Moisture Smart Sensor - EC5 (S-SMC-M005)	2019-06-11T17:00:01	0.00	21.223	27.300	0.6060	1.7
751	AB07CD0350	WETLAND SAL01	SALINE (FEN)	56.573903999999998859493643976747989654541015625	-111.277773999999993748133420012891292572021484375	HOBO Rain Gauge Data Logger - RG3	HOBO Temperature/RH Smart Sensor (S-THB-M002)	Soil Moisture Smart Sensor - EC5 (S-SMC-M005)	2019-06-11T18:00:01	0.00	21.246	27.700	0.6060	1.9
752	AB07CD0350	WETLAND SAL01	SALINE (FEN)	56.573903999999998859493643976747989654541015625	-111.277773999999993748133420012891292572021484375	HOBO Rain Gauge Data Logger - RG3	HOBO Temperature/RH Smart Sensor (S-THB-M002)	Soil Moisture Smart Sensor - EC5 (S-SMC-M005)	2019-06-11T19:00:01	0.00	20.746	29.500	0.6060	2.3
753	AB07CD0350	WETLAND SAL01	SALINE (FEN)	56.573903999999998859493643976747989654541015625	-111.277773999999993748133420012891292572021484375	HOBO Rain Gauge Data Logger - RG3	HOBO Temperature/RH Smart Sensor (S-THB-M002)	Soil Moisture Smart Sensor - EC5 (S-SMC-M005)	2019-06-11T20:00:01	0.00	20.841	31.300	0.6060	3.2
754	AB07CD0350	WETLAND SAL01	SALINE (FEN)	56.573903999999998859493643976747989654541015625	-111.277773999999993748133420012891292572021484375	HOBO Rain Gauge Data Logger - RG3	HOBO Temperature/RH Smart Sensor (S-THB-M002)	Soil Moisture Smart Sensor - EC5 (S-SMC-M005)	2019-06-11T21:00:01	0.00	18.771	36.400	0.6060	3.6
755	AB07CD0350	WETLAND SAL01	SALINE (FEN)	56.573903999999998859493643976747989654541015625	-111.277773999999993748133420012891292572021484375	HOBO Rain Gauge Data Logger - RG3	HOBO Temperature/RH Smart Sensor (S-THB-M002)	Soil Moisture Smart Sensor - EC5 (S-SMC-M005)	2019-06-11T22:00:01	0.00	16.439	48.900	0.6060	5.7
756	AB07CD0350	WETLAND SAL01	SALINE (FEN)	56.573903999999998859493643976747989654541015625	-111.277773999999993748133420012891292572021484375	HOBO Rain Gauge Data Logger - RG3	HOBO Temperature/RH Smart Sensor (S-THB-M002)	Soil Moisture Smart Sensor - EC5 (S-SMC-M005)	2019-06-11T23:00:01	0.00	15.151	58.400	0.6060	7.1
757	AB07CD0350	WETLAND SAL01	SALINE (FEN)	56.573903999999998859493643976747989654541015625	-111.277773999999993748133420012891292572021484375	HOBO Rain Gauge Data Logger - RG3	HOBO Temperature/RH Smart Sensor (S-THB-M002)	Soil Moisture Smart Sensor - EC5 (S-SMC-M005)	2019-06-12T00:00:01	0.00	13.329	65.300	0.6060	7.0
758	AB07CD0350	WETLAND SAL01	SALINE (FEN)	56.573903999999998859493643976747989654541015625	-111.277773999999993748133420012891292572021484375	HOBO Rain Gauge Data Logger - RG3	HOBO Temperature/RH Smart Sensor (S-THB-M002)	Soil Moisture Smart Sensor - EC5 (S-SMC-M005)	2019-06-12T01:00:01	0.00	13.016	70.700	0.6068	7.8
759	AB07CD0350	WETLAND SAL01	SALINE (FEN)	56.573903999999998859493643976747989654541015625	-111.277773999999993748133420012891292572021484375	HOBO Rain Gauge Data Logger - RG3	HOBO Temperature/RH Smart Sensor (S-THB-M002)	Soil Moisture Smart Sensor - EC5 (S-SMC-M005)	2019-06-12T02:00:01	0.00	12.413	75.200	0.6068	8.2
760	AB07CD0350	WETLAND SAL01	SALINE (FEN)	56.573903999999998859493643976747989654541015625	-111.277773999999993748133420012891292572021484375	HOBO Rain Gauge Data Logger - RG3	HOBO Temperature/RH Smart Sensor (S-THB-M002)	Soil Moisture Smart Sensor - EC5 (S-SMC-M005)	2019-06-12T03:00:01	0.00	12.316	78.000	0.6068	8.6
761	AB07CD0350	WETLAND SAL01	SALINE (FEN)	56.573903999999998859493643976747989654541015625	-111.277773999999993748133420012891292572021484375	HOBO Rain Gauge Data Logger - RG3	HOBO Temperature/RH Smart Sensor (S-THB-M002)	Soil Moisture Smart Sensor - EC5 (S-SMC-M005)	2019-06-12T04:00:01	0.00	12.219	79.300	0.6068	8.8
762	AB07CD0350	WETLAND SAL01	SALINE (FEN)	56.573903999999998859493643976747989654541015625	-111.277773999999993748133420012891292572021484375	HOBO Rain Gauge Data Logger - RG3	HOBO Temperature/RH Smart Sensor (S-THB-M002)	Soil Moisture Smart Sensor - EC5 (S-SMC-M005)	2019-06-12T05:00:01	0.00	11.904	80.700	0.6068	8.7
763	AB07CD0350	WETLAND SAL01	SALINE (FEN)	56.573903999999998859493643976747989654541015625	-111.277773999999993748133420012891292572021484375	HOBO Rain Gauge Data Logger - RG3	HOBO Temperature/RH Smart Sensor (S-THB-M002)	Soil Moisture Smart Sensor - EC5 (S-SMC-M005)	2019-06-12T06:00:01	0.00	11.467	83.500	0.6068	8.8
764	AB07CD0350	WETLAND SAL01	SALINE (FEN)	56.573903999999998859493643976747989654541015625	-111.277773999999993748133420012891292572021484375	HOBO Rain Gauge Data Logger - RG3	HOBO Temperature/RH Smart Sensor (S-THB-M002)	Soil Moisture Smart Sensor - EC5 (S-SMC-M005)	2019-06-12T07:00:01	0.00	11.589	82.600	0.6068	8.7
765	AB07CD0350	WETLAND SAL01	SALINE (FEN)	56.573903999999998859493643976747989654541015625	-111.277773999999993748133420012891292572021484375	HOBO Rain Gauge Data Logger - RG3	HOBO Temperature/RH Smart Sensor (S-THB-M002)	Soil Moisture Smart Sensor - EC5 (S-SMC-M005)	2019-06-12T08:00:01	0.00	15.748	77.500	0.6068	11.8
766	AB07CD0350	WETLAND SAL01	SALINE (FEN)	56.573903999999998859493643976747989654541015625	-111.277773999999993748133420012891292572021484375	HOBO Rain Gauge Data Logger - RG3	HOBO Temperature/RH Smart Sensor (S-THB-M002)	Soil Moisture Smart Sensor - EC5 (S-SMC-M005)	2019-06-12T09:00:01	0.00	18.628	61.600	0.6075	11.1
767	AB07CD0350	WETLAND SAL01	SALINE (FEN)	56.573903999999998859493643976747989654541015625	-111.277773999999993748133420012891292572021484375	HOBO Rain Gauge Data Logger - RG3	HOBO Temperature/RH Smart Sensor (S-THB-M002)	Soil Moisture Smart Sensor - EC5 (S-SMC-M005)	2019-06-12T10:00:01	0.00	21.485	54.500	0.6075	11.9
768	AB07CD0350	WETLAND SAL01	SALINE (FEN)	56.573903999999998859493643976747989654541015625	-111.277773999999993748133420012891292572021484375	HOBO Rain Gauge Data Logger - RG3	HOBO Temperature/RH Smart Sensor (S-THB-M002)	Soil Moisture Smart Sensor - EC5 (S-SMC-M005)	2019-06-12T11:00:01	0.00	23.376	46.600	0.6075	11.3
769	AB07CD0350	WETLAND SAL01	SALINE (FEN)	56.573903999999998859493643976747989654541015625	-111.277773999999993748133420012891292572021484375	HOBO Rain Gauge Data Logger - RG3	HOBO Temperature/RH Smart Sensor (S-THB-M002)	Soil Moisture Smart Sensor - EC5 (S-SMC-M005)	2019-06-12T12:00:01	0.00	24.412	39.600	0.6075	9.8
770	AB07CD0350	WETLAND SAL01	SALINE (FEN)	56.573903999999998859493643976747989654541015625	-111.277773999999993748133420012891292572021484375	HOBO Rain Gauge Data Logger - RG3	HOBO Temperature/RH Smart Sensor (S-THB-M002)	Soil Moisture Smart Sensor - EC5 (S-SMC-M005)	2019-06-12T13:00:01	0.00	23.978	33.700	0.6075	7.0
771	AB07CD0350	WETLAND SAL01	SALINE (FEN)	56.573903999999998859493643976747989654541015625	-111.277773999999993748133420012891292572021484375	HOBO Rain Gauge Data Logger - RG3	HOBO Temperature/RH Smart Sensor (S-THB-M002)	Soil Moisture Smart Sensor - EC5 (S-SMC-M005)	2019-06-12T14:00:01	0.00	26.646	31.500	0.6075	8.4
772	AB07CD0350	WETLAND SAL01	SALINE (FEN)	56.573903999999998859493643976747989654541015625	-111.277773999999993748133420012891292572021484375	HOBO Rain Gauge Data Logger - RG3	HOBO Temperature/RH Smart Sensor (S-THB-M002)	Soil Moisture Smart Sensor - EC5 (S-SMC-M005)	2019-06-12T15:00:01	0.00	26.989	29.900	0.6075	7.9
773	AB07CD0350	WETLAND SAL01	SALINE (FEN)	56.573903999999998859493643976747989654541015625	-111.277773999999993748133420012891292572021484375	HOBO Rain Gauge Data Logger - RG3	HOBO Temperature/RH Smart Sensor (S-THB-M002)	Soil Moisture Smart Sensor - EC5 (S-SMC-M005)	2019-06-12T16:00:01	0.00	27.677	29.100	0.6075	8.1
774	AB07CD0350	WETLAND SAL01	SALINE (FEN)	56.573903999999998859493643976747989654541015625	-111.277773999999993748133420012891292572021484375	HOBO Rain Gauge Data Logger - RG3	HOBO Temperature/RH Smart Sensor (S-THB-M002)	Soil Moisture Smart Sensor - EC5 (S-SMC-M005)	2019-06-12T17:00:01	0.00	26.134	28.200	0.6075	6.3
775	AB07CD0350	WETLAND SAL01	SALINE (FEN)	56.573903999999998859493643976747989654541015625	-111.277773999999993748133420012891292572021484375	HOBO Rain Gauge Data Logger - RG3	HOBO Temperature/RH Smart Sensor (S-THB-M002)	Soil Moisture Smart Sensor - EC5 (S-SMC-M005)	2019-06-12T18:00:01	0.00	26.012	28.900	0.6075	6.6
776	AB07CD0350	WETLAND SAL01	SALINE (FEN)	56.573903999999998859493643976747989654541015625	-111.277773999999993748133420012891292572021484375	HOBO Rain Gauge Data Logger - RG3	HOBO Temperature/RH Smart Sensor (S-THB-M002)	Soil Moisture Smart Sensor - EC5 (S-SMC-M005)	2019-06-12T19:00:01	0.00	26.426	28.800	0.6075	6.9
777	AB07CD0350	WETLAND SAL01	SALINE (FEN)	56.573903999999998859493643976747989654541015625	-111.277773999999993748133420012891292572021484375	HOBO Rain Gauge Data Logger - RG3	HOBO Temperature/RH Smart Sensor (S-THB-M002)	Soil Moisture Smart Sensor - EC5 (S-SMC-M005)	2019-06-12T20:00:01	0.00	25.866	28.500	0.6075	6.2
778	AB07CD0350	WETLAND SAL01	SALINE (FEN)	56.573903999999998859493643976747989654541015625	-111.277773999999993748133420012891292572021484375	HOBO Rain Gauge Data Logger - RG3	HOBO Temperature/RH Smart Sensor (S-THB-M002)	Soil Moisture Smart Sensor - EC5 (S-SMC-M005)	2019-06-12T21:00:01	0.00	23.930	32.600	0.6082	6.5
779	AB07CD0350	WETLAND SAL01	SALINE (FEN)	56.573903999999998859493643976747989654541015625	-111.277773999999993748133420012891292572021484375	HOBO Rain Gauge Data Logger - RG3	HOBO Temperature/RH Smart Sensor (S-THB-M002)	Soil Moisture Smart Sensor - EC5 (S-SMC-M005)	2019-06-12T22:00:01	0.00	19.175	46.600	0.6082	7.5
780	AB07CD0350	WETLAND SAL01	SALINE (FEN)	56.573903999999998859493643976747989654541015625	-111.277773999999993748133420012891292572021484375	HOBO Rain Gauge Data Logger - RG3	HOBO Temperature/RH Smart Sensor (S-THB-M002)	Soil Moisture Smart Sensor - EC5 (S-SMC-M005)	2019-06-12T23:00:01	0.00	18.105	63.700	0.6082	11.1
781	AB07CD0350	WETLAND SAL01	SALINE (FEN)	56.573903999999998859493643976747989654541015625	-111.277773999999993748133420012891292572021484375	HOBO Rain Gauge Data Logger - RG3	HOBO Temperature/RH Smart Sensor (S-THB-M002)	Soil Moisture Smart Sensor - EC5 (S-SMC-M005)	2019-06-13T00:00:01	0.00	17.296	52.600	0.6082	7.5
782	AB07CD0350	WETLAND SAL01	SALINE (FEN)	56.573903999999998859493643976747989654541015625	-111.277773999999993748133420012891292572021484375	HOBO Rain Gauge Data Logger - RG3	HOBO Temperature/RH Smart Sensor (S-THB-M002)	Soil Moisture Smart Sensor - EC5 (S-SMC-M005)	2019-06-13T01:00:01	0.00	15.247	57.200	0.6082	6.8
783	AB07CD0350	WETLAND SAL01	SALINE (FEN)	56.573903999999998859493643976747989654541015625	-111.277773999999993748133420012891292572021484375	HOBO Rain Gauge Data Logger - RG3	HOBO Temperature/RH Smart Sensor (S-THB-M002)	Soil Moisture Smart Sensor - EC5 (S-SMC-M005)	2019-06-13T02:00:01	0.00	15.270	59.600	0.6089	7.5
784	AB07CD0350	WETLAND SAL01	SALINE (FEN)	56.573903999999998859493643976747989654541015625	-111.277773999999993748133420012891292572021484375	HOBO Rain Gauge Data Logger - RG3	HOBO Temperature/RH Smart Sensor (S-THB-M002)	Soil Moisture Smart Sensor - EC5 (S-SMC-M005)	2019-06-13T03:00:01	0.00	14.385	61.900	0.6082	7.2
785	AB07CD0350	WETLAND SAL01	SALINE (FEN)	56.573903999999998859493643976747989654541015625	-111.277773999999993748133420012891292572021484375	HOBO Rain Gauge Data Logger - RG3	HOBO Temperature/RH Smart Sensor (S-THB-M002)	Soil Moisture Smart Sensor - EC5 (S-SMC-M005)	2019-06-13T04:00:01	0.00	13.666	63.900	0.6089	7.0
786	AB07CD0350	WETLAND SAL01	SALINE (FEN)	56.573903999999998859493643976747989654541015625	-111.277773999999993748133420012891292572021484375	HOBO Rain Gauge Data Logger - RG3	HOBO Temperature/RH Smart Sensor (S-THB-M002)	Soil Moisture Smart Sensor - EC5 (S-SMC-M005)	2019-06-13T05:00:01	0.00	16.249	63.200	0.6089	9.3
787	AB07CD0350	WETLAND SAL01	SALINE (FEN)	56.573903999999998859493643976747989654541015625	-111.277773999999993748133420012891292572021484375	HOBO Rain Gauge Data Logger - RG3	HOBO Temperature/RH Smart Sensor (S-THB-M002)	Soil Moisture Smart Sensor - EC5 (S-SMC-M005)	2019-06-13T06:00:01	0.00	14.960	63.900	0.6089	8.2
788	AB07CD0350	WETLAND SAL01	SALINE (FEN)	56.573903999999998859493643976747989654541015625	-111.277773999999993748133420012891292572021484375	HOBO Rain Gauge Data Logger - RG3	HOBO Temperature/RH Smart Sensor (S-THB-M002)	Soil Moisture Smart Sensor - EC5 (S-SMC-M005)	2019-06-13T07:00:01	0.00	16.939	63.900	0.6089	10.1
789	AB07CD0350	WETLAND SAL01	SALINE (FEN)	56.573903999999998859493643976747989654541015625	-111.277773999999993748133420012891292572021484375	HOBO Rain Gauge Data Logger - RG3	HOBO Temperature/RH Smart Sensor (S-THB-M002)	Soil Moisture Smart Sensor - EC5 (S-SMC-M005)	2019-06-13T08:00:01	0.00	18.057	60.100	0.6089	10.2
790	AB07CD0350	WETLAND SAL01	SALINE (FEN)	56.573903999999998859493643976747989654541015625	-111.277773999999993748133420012891292572021484375	HOBO Rain Gauge Data Logger - RG3	HOBO Temperature/RH Smart Sensor (S-THB-M002)	Soil Moisture Smart Sensor - EC5 (S-SMC-M005)	2019-06-13T09:00:01	0.00	18.224	60.400	0.6089	10.4
791	AB07CD0350	WETLAND SAL01	SALINE (FEN)	56.573903999999998859493643976747989654541015625	-111.277773999999993748133420012891292572021484375	HOBO Rain Gauge Data Logger - RG3	HOBO Temperature/RH Smart Sensor (S-THB-M002)	Soil Moisture Smart Sensor - EC5 (S-SMC-M005)	2019-06-13T10:00:01	0.00	20.746	58.100	0.6089	12.2
792	AB07CD0350	WETLAND SAL01	SALINE (FEN)	56.573903999999998859493643976747989654541015625	-111.277773999999993748133420012891292572021484375	HOBO Rain Gauge Data Logger - RG3	HOBO Temperature/RH Smart Sensor (S-THB-M002)	Soil Moisture Smart Sensor - EC5 (S-SMC-M005)	2019-06-13T11:00:01	0.00	21.676	54.600	0.6089	12.2
793	AB07CD0350	WETLAND SAL01	SALINE (FEN)	56.573903999999998859493643976747989654541015625	-111.277773999999993748133420012891292572021484375	HOBO Rain Gauge Data Logger - RG3	HOBO Temperature/RH Smart Sensor (S-THB-M002)	Soil Moisture Smart Sensor - EC5 (S-SMC-M005)	2019-06-13T12:00:01	0.00	20.055	55.200	0.6089	10.8
794	AB07CD0350	WETLAND SAL01	SALINE (FEN)	56.573903999999998859493643976747989654541015625	-111.277773999999993748133420012891292572021484375	HOBO Rain Gauge Data Logger - RG3	HOBO Temperature/RH Smart Sensor (S-THB-M002)	Soil Moisture Smart Sensor - EC5 (S-SMC-M005)	2019-06-13T13:00:01	0.00	16.534	68.300	0.6089	10.7
795	AB07CD0350	WETLAND SAL01	SALINE (FEN)	56.573903999999998859493643976747989654541015625	-111.277773999999993748133420012891292572021484375	HOBO Rain Gauge Data Logger - RG3	HOBO Temperature/RH Smart Sensor (S-THB-M002)	Soil Moisture Smart Sensor - EC5 (S-SMC-M005)	2019-06-13T14:00:01	0.00	17.225	80.600	0.6089	13.9
796	AB07CD0350	WETLAND SAL01	SALINE (FEN)	56.573903999999998859493643976747989654541015625	-111.277773999999993748133420012891292572021484375	HOBO Rain Gauge Data Logger - RG3	HOBO Temperature/RH Smart Sensor (S-THB-M002)	Soil Moisture Smart Sensor - EC5 (S-SMC-M005)	2019-06-13T15:00:01	0.00	21.175	69.600	0.6089	15.4
797	AB07CD0350	WETLAND SAL01	SALINE (FEN)	56.573903999999998859493643976747989654541015625	-111.277773999999993748133420012891292572021484375	HOBO Rain Gauge Data Logger - RG3	HOBO Temperature/RH Smart Sensor (S-THB-M002)	Soil Moisture Smart Sensor - EC5 (S-SMC-M005)	2019-06-13T16:00:01	0.00	20.817	56.600	0.6097	11.9
798	AB07CD0350	WETLAND SAL01	SALINE (FEN)	56.573903999999998859493643976747989654541015625	-111.277773999999993748133420012891292572021484375	HOBO Rain Gauge Data Logger - RG3	HOBO Temperature/RH Smart Sensor (S-THB-M002)	Soil Moisture Smart Sensor - EC5 (S-SMC-M005)	2019-06-13T17:00:01	0.00	20.865	58.400	0.6097	12.4
799	AB07CD0350	WETLAND SAL01	SALINE (FEN)	56.573903999999998859493643976747989654541015625	-111.277773999999993748133420012891292572021484375	HOBO Rain Gauge Data Logger - RG3	HOBO Temperature/RH Smart Sensor (S-THB-M002)	Soil Moisture Smart Sensor - EC5 (S-SMC-M005)	2019-06-13T18:00:01	0.00	20.531	60.400	0.6097	12.6
800	AB07CD0350	WETLAND SAL01	SALINE (FEN)	56.573903999999998859493643976747989654541015625	-111.277773999999993748133420012891292572021484375	HOBO Rain Gauge Data Logger - RG3	HOBO Temperature/RH Smart Sensor (S-THB-M002)	Soil Moisture Smart Sensor - EC5 (S-SMC-M005)	2019-06-13T19:00:01	0.00	20.031	59.500	0.6089	11.9
801	AB07CD0350	WETLAND SAL01	SALINE (FEN)	56.573903999999998859493643976747989654541015625	-111.277773999999993748133420012891292572021484375	HOBO Rain Gauge Data Logger - RG3	HOBO Temperature/RH Smart Sensor (S-THB-M002)	Soil Moisture Smart Sensor - EC5 (S-SMC-M005)	2019-06-13T20:00:01	0.00	19.770	61.100	0.6089	12.1
802	AB07CD0350	WETLAND SAL01	SALINE (FEN)	56.573903999999998859493643976747989654541015625	-111.277773999999993748133420012891292572021484375	HOBO Rain Gauge Data Logger - RG3	HOBO Temperature/RH Smart Sensor (S-THB-M002)	Soil Moisture Smart Sensor - EC5 (S-SMC-M005)	2019-06-13T21:00:01	0.00	17.391	66.400	0.6089	11.1
803	AB07CD0350	WETLAND SAL01	SALINE (FEN)	56.573903999999998859493643976747989654541015625	-111.277773999999993748133420012891292572021484375	HOBO Rain Gauge Data Logger - RG3	HOBO Temperature/RH Smart Sensor (S-THB-M002)	Soil Moisture Smart Sensor - EC5 (S-SMC-M005)	2019-06-13T22:00:01	0.00	15.199	80.000	0.6089	11.8
804	AB07CD0350	WETLAND SAL01	SALINE (FEN)	56.573903999999998859493643976747989654541015625	-111.277773999999993748133420012891292572021484375	HOBO Rain Gauge Data Logger - RG3	HOBO Temperature/RH Smart Sensor (S-THB-M002)	Soil Moisture Smart Sensor - EC5 (S-SMC-M005)	2019-06-13T23:00:01	0.00	14.505	82.700	0.6089	11.6
805	AB07CD0350	WETLAND SAL01	SALINE (FEN)	56.573903999999998859493643976747989654541015625	-111.277773999999993748133420012891292572021484375	HOBO Rain Gauge Data Logger - RG3	HOBO Temperature/RH Smart Sensor (S-THB-M002)	Soil Moisture Smart Sensor - EC5 (S-SMC-M005)	2019-06-14T00:00:01	0.00	13.858	87.600	0.6089	11.9
806	AB07CD0350	WETLAND SAL01	SALINE (FEN)	56.573903999999998859493643976747989654541015625	-111.277773999999993748133420012891292572021484375	HOBO Rain Gauge Data Logger - RG3	HOBO Temperature/RH Smart Sensor (S-THB-M002)	Soil Moisture Smart Sensor - EC5 (S-SMC-M005)	2019-06-14T01:00:01	0.00	14.002	89.000	0.6097	12.2
807	AB07CD0350	WETLAND SAL01	SALINE (FEN)	56.573903999999998859493643976747989654541015625	-111.277773999999993748133420012891292572021484375	HOBO Rain Gauge Data Logger - RG3	HOBO Temperature/RH Smart Sensor (S-THB-M002)	Soil Moisture Smart Sensor - EC5 (S-SMC-M005)	2019-06-14T02:00:01	7.20	13.570	91.100	0.6097	12.2
808	AB07CD0350	WETLAND SAL01	SALINE (FEN)	56.573903999999998859493643976747989654541015625	-111.277773999999993748133420012891292572021484375	HOBO Rain Gauge Data Logger - RG3	HOBO Temperature/RH Smart Sensor (S-THB-M002)	Soil Moisture Smart Sensor - EC5 (S-SMC-M005)	2019-06-14T03:00:01	3.20	13.257	94.700	0.6104	12.4
809	AB07CD0350	WETLAND SAL01	SALINE (FEN)	56.573903999999998859493643976747989654541015625	-111.277773999999993748133420012891292572021484375	HOBO Rain Gauge Data Logger - RG3	HOBO Temperature/RH Smart Sensor (S-THB-M002)	Soil Moisture Smart Sensor - EC5 (S-SMC-M005)	2019-06-14T04:00:01	0.80	12.630	95.500	0.6097	11.9
810	AB07CD0350	WETLAND SAL01	SALINE (FEN)	56.573903999999998859493643976747989654541015625	-111.277773999999993748133420012891292572021484375	HOBO Rain Gauge Data Logger - RG3	HOBO Temperature/RH Smart Sensor (S-THB-M002)	Soil Moisture Smart Sensor - EC5 (S-SMC-M005)	2019-06-14T05:00:01	0.60	12.292	97.000	0.6104	11.8
811	AB07CD0350	WETLAND SAL01	SALINE (FEN)	56.573903999999998859493643976747989654541015625	-111.277773999999993748133420012891292572021484375	HOBO Rain Gauge Data Logger - RG3	HOBO Temperature/RH Smart Sensor (S-THB-M002)	Soil Moisture Smart Sensor - EC5 (S-SMC-M005)	2019-06-14T06:00:01	0.00	12.606	97.100	0.6104	12.2
812	AB07CD0350	WETLAND SAL01	SALINE (FEN)	56.573903999999998859493643976747989654541015625	-111.277773999999993748133420012891292572021484375	HOBO Rain Gauge Data Logger - RG3	HOBO Temperature/RH Smart Sensor (S-THB-M002)	Soil Moisture Smart Sensor - EC5 (S-SMC-M005)	2019-06-14T07:00:01	0.00	12.799	96.500	0.6104	12.3
813	AB07CD0350	WETLAND SAL01	SALINE (FEN)	56.573903999999998859493643976747989654541015625	-111.277773999999993748133420012891292572021484375	HOBO Rain Gauge Data Logger - RG3	HOBO Temperature/RH Smart Sensor (S-THB-M002)	Soil Moisture Smart Sensor - EC5 (S-SMC-M005)	2019-06-14T08:00:01	0.00	13.425	96.200	0.6097	12.8
814	AB07CD0350	WETLAND SAL01	SALINE (FEN)	56.573903999999998859493643976747989654541015625	-111.277773999999993748133420012891292572021484375	HOBO Rain Gauge Data Logger - RG3	HOBO Temperature/RH Smart Sensor (S-THB-M002)	Soil Moisture Smart Sensor - EC5 (S-SMC-M005)	2019-06-14T09:00:01	0.00	13.978	94.600	0.6104	13.1
815	AB07CD0350	WETLAND SAL01	SALINE (FEN)	56.573903999999998859493643976747989654541015625	-111.277773999999993748133420012891292572021484375	HOBO Rain Gauge Data Logger - RG3	HOBO Temperature/RH Smart Sensor (S-THB-M002)	Soil Moisture Smart Sensor - EC5 (S-SMC-M005)	2019-06-14T10:00:01	0.00	15.963	90.500	0.6097	14.4
816	AB07CD0350	WETLAND SAL01	SALINE (FEN)	56.573903999999998859493643976747989654541015625	-111.277773999999993748133420012891292572021484375	HOBO Rain Gauge Data Logger - RG3	HOBO Temperature/RH Smart Sensor (S-THB-M002)	Soil Moisture Smart Sensor - EC5 (S-SMC-M005)	2019-06-14T11:00:01	0.00	19.103	81.500	0.6097	15.9
817	AB07CD0350	WETLAND SAL01	SALINE (FEN)	56.573903999999998859493643976747989654541015625	-111.277773999999993748133420012891292572021484375	HOBO Rain Gauge Data Logger - RG3	HOBO Temperature/RH Smart Sensor (S-THB-M002)	Soil Moisture Smart Sensor - EC5 (S-SMC-M005)	2019-06-14T12:00:01	0.00	20.460	73.800	0.6097	15.6
818	AB07CD0350	WETLAND SAL01	SALINE (FEN)	56.573903999999998859493643976747989654541015625	-111.277773999999993748133420012891292572021484375	HOBO Rain Gauge Data Logger - RG3	HOBO Temperature/RH Smart Sensor (S-THB-M002)	Soil Moisture Smart Sensor - EC5 (S-SMC-M005)	2019-06-14T13:00:01	0.00	21.987	63.000	0.6097	14.6
819	AB07CD0350	WETLAND SAL01	SALINE (FEN)	56.573903999999998859493643976747989654541015625	-111.277773999999993748133420012891292572021484375	HOBO Rain Gauge Data Logger - RG3	HOBO Temperature/RH Smart Sensor (S-THB-M002)	Soil Moisture Smart Sensor - EC5 (S-SMC-M005)	2019-06-14T14:00:01	0.00	22.872	56.000	0.6097	13.7
820	AB07CD0350	WETLAND SAL01	SALINE (FEN)	56.573903999999998859493643976747989654541015625	-111.277773999999993748133420012891292572021484375	HOBO Rain Gauge Data Logger - RG3	HOBO Temperature/RH Smart Sensor (S-THB-M002)	Soil Moisture Smart Sensor - EC5 (S-SMC-M005)	2019-06-14T15:00:01	0.20	16.511	66.100	0.6097	10.2
821	AB07CD0350	WETLAND SAL01	SALINE (FEN)	56.573903999999998859493643976747989654541015625	-111.277773999999993748133420012891292572021484375	HOBO Rain Gauge Data Logger - RG3	HOBO Temperature/RH Smart Sensor (S-THB-M002)	Soil Moisture Smart Sensor - EC5 (S-SMC-M005)	2019-06-14T16:00:01	0.00	16.915	76.100	0.6097	12.7
822	AB07CD0350	WETLAND SAL01	SALINE (FEN)	56.573903999999998859493643976747989654541015625	-111.277773999999993748133420012891292572021484375	HOBO Rain Gauge Data Logger - RG3	HOBO Temperature/RH Smart Sensor (S-THB-M002)	Soil Moisture Smart Sensor - EC5 (S-SMC-M005)	2019-06-14T17:00:01	0.00	19.056	70.100	0.6097	13.5
823	AB07CD0350	WETLAND SAL01	SALINE (FEN)	56.573903999999998859493643976747989654541015625	-111.277773999999993748133420012891292572021484375	HOBO Rain Gauge Data Logger - RG3	HOBO Temperature/RH Smart Sensor (S-THB-M002)	Soil Moisture Smart Sensor - EC5 (S-SMC-M005)	2019-06-14T18:00:01	0.00	17.867	69.200	0.6097	12.2
824	AB07CD0350	WETLAND SAL01	SALINE (FEN)	56.573903999999998859493643976747989654541015625	-111.277773999999993748133420012891292572021484375	HOBO Rain Gauge Data Logger - RG3	HOBO Temperature/RH Smart Sensor (S-THB-M002)	Soil Moisture Smart Sensor - EC5 (S-SMC-M005)	2019-06-14T19:00:01	0.00	20.007	61.700	0.6104	12.5
825	AB07CD0350	WETLAND SAL01	SALINE (FEN)	56.573903999999998859493643976747989654541015625	-111.277773999999993748133420012891292572021484375	HOBO Rain Gauge Data Logger - RG3	HOBO Temperature/RH Smart Sensor (S-THB-M002)	Soil Moisture Smart Sensor - EC5 (S-SMC-M005)	2019-06-14T20:00:01	0.00	18.747	60.200	0.6097	10.9
826	AB07CD0350	WETLAND SAL01	SALINE (FEN)	56.573903999999998859493643976747989654541015625	-111.277773999999993748133420012891292572021484375	HOBO Rain Gauge Data Logger - RG3	HOBO Temperature/RH Smart Sensor (S-THB-M002)	Soil Moisture Smart Sensor - EC5 (S-SMC-M005)	2019-06-14T21:00:01	1.20	13.738	75.200	0.6104	9.4
827	AB07CD0350	WETLAND SAL01	SALINE (FEN)	56.573903999999998859493643976747989654541015625	-111.277773999999993748133420012891292572021484375	HOBO Rain Gauge Data Logger - RG3	HOBO Temperature/RH Smart Sensor (S-THB-M002)	Soil Moisture Smart Sensor - EC5 (S-SMC-M005)	2019-06-14T22:00:01	2.00	13.257	93.600	0.6104	12.3
828	AB07CD0350	WETLAND SAL01	SALINE (FEN)	56.573903999999998859493643976747989654541015625	-111.277773999999993748133420012891292572021484375	HOBO Rain Gauge Data Logger - RG3	HOBO Temperature/RH Smart Sensor (S-THB-M002)	Soil Moisture Smart Sensor - EC5 (S-SMC-M005)	2019-06-14T23:00:01	0.20	12.582	95.400	0.6104	11.9
829	AB07CD0350	WETLAND SAL01	SALINE (FEN)	56.573903999999998859493643976747989654541015625	-111.277773999999993748133420012891292572021484375	HOBO Rain Gauge Data Logger - RG3	HOBO Temperature/RH Smart Sensor (S-THB-M002)	Soil Moisture Smart Sensor - EC5 (S-SMC-M005)	2019-06-15T00:00:01	0.00	11.346	94.800	0.6104	10.6
830	AB07CD0350	WETLAND SAL01	SALINE (FEN)	56.573903999999998859493643976747989654541015625	-111.277773999999993748133420012891292572021484375	HOBO Rain Gauge Data Logger - RG3	HOBO Temperature/RH Smart Sensor (S-THB-M002)	Soil Moisture Smart Sensor - EC5 (S-SMC-M005)	2019-06-15T01:00:01	0.00	10.883	95.600	0.6104	10.2
831	AB07CD0350	WETLAND SAL01	SALINE (FEN)	56.573903999999998859493643976747989654541015625	-111.277773999999993748133420012891292572021484375	HOBO Rain Gauge Data Logger - RG3	HOBO Temperature/RH Smart Sensor (S-THB-M002)	Soil Moisture Smart Sensor - EC5 (S-SMC-M005)	2019-06-15T02:00:01	0.00	11.224	96.400	0.6104	10.7
832	AB07CD0350	WETLAND SAL01	SALINE (FEN)	56.573903999999998859493643976747989654541015625	-111.277773999999993748133420012891292572021484375	HOBO Rain Gauge Data Logger - RG3	HOBO Temperature/RH Smart Sensor (S-THB-M002)	Soil Moisture Smart Sensor - EC5 (S-SMC-M005)	2019-06-15T03:00:01	0.00	12.025	95.500	0.6111	11.3
833	AB07CD0350	WETLAND SAL01	SALINE (FEN)	56.573903999999998859493643976747989654541015625	-111.277773999999993748133420012891292572021484375	HOBO Rain Gauge Data Logger - RG3	HOBO Temperature/RH Smart Sensor (S-THB-M002)	Soil Moisture Smart Sensor - EC5 (S-SMC-M005)	2019-06-15T04:00:01	0.00	11.565	95.400	0.6111	10.9
834	AB07CD0350	WETLAND SAL01	SALINE (FEN)	56.573903999999998859493643976747989654541015625	-111.277773999999993748133420012891292572021484375	HOBO Rain Gauge Data Logger - RG3	HOBO Temperature/RH Smart Sensor (S-THB-M002)	Soil Moisture Smart Sensor - EC5 (S-SMC-M005)	2019-06-15T05:00:01	0.00	11.686	95.900	0.6111	11.1
835	AB07CD0350	WETLAND SAL01	SALINE (FEN)	56.573903999999998859493643976747989654541015625	-111.277773999999993748133420012891292572021484375	HOBO Rain Gauge Data Logger - RG3	HOBO Temperature/RH Smart Sensor (S-THB-M002)	Soil Moisture Smart Sensor - EC5 (S-SMC-M005)	2019-06-15T06:00:01	0.00	11.734	95.800	0.6104	11.1
836	AB07CD0350	WETLAND SAL01	SALINE (FEN)	56.573903999999998859493643976747989654541015625	-111.277773999999993748133420012891292572021484375	HOBO Rain Gauge Data Logger - RG3	HOBO Temperature/RH Smart Sensor (S-THB-M002)	Soil Moisture Smart Sensor - EC5 (S-SMC-M005)	2019-06-15T07:00:01	0.00	12.606	95.300	0.6104	11.9
837	AB07CD0350	WETLAND SAL01	SALINE (FEN)	56.573903999999998859493643976747989654541015625	-111.277773999999993748133420012891292572021484375	HOBO Rain Gauge Data Logger - RG3	HOBO Temperature/RH Smart Sensor (S-THB-M002)	Soil Moisture Smart Sensor - EC5 (S-SMC-M005)	2019-06-15T08:00:01	0.00	14.385	93.300	0.6104	13.3
838	AB07CD0350	WETLAND SAL01	SALINE (FEN)	56.573903999999998859493643976747989654541015625	-111.277773999999993748133420012891292572021484375	HOBO Rain Gauge Data Logger - RG3	HOBO Temperature/RH Smart Sensor (S-THB-M002)	Soil Moisture Smart Sensor - EC5 (S-SMC-M005)	2019-06-15T09:00:01	0.00	17.320	86.200	0.6104	15.0
839	AB07CD0350	WETLAND SAL01	SALINE (FEN)	56.573903999999998859493643976747989654541015625	-111.277773999999993748133420012891292572021484375	HOBO Rain Gauge Data Logger - RG3	HOBO Temperature/RH Smart Sensor (S-THB-M002)	Soil Moisture Smart Sensor - EC5 (S-SMC-M005)	2019-06-15T10:00:01	0.00	19.270	74.700	0.6104	14.7
840	AB07CD0350	WETLAND SAL01	SALINE (FEN)	56.573903999999998859493643976747989654541015625	-111.277773999999993748133420012891292572021484375	HOBO Rain Gauge Data Logger - RG3	HOBO Temperature/RH Smart Sensor (S-THB-M002)	Soil Moisture Smart Sensor - EC5 (S-SMC-M005)	2019-06-15T11:00:01	0.00	18.557	70.200	0.6104	13.0
841	AB07CD0350	WETLAND SAL01	SALINE (FEN)	56.573903999999998859493643976747989654541015625	-111.277773999999993748133420012891292572021484375	HOBO Rain Gauge Data Logger - RG3	HOBO Temperature/RH Smart Sensor (S-THB-M002)	Soil Moisture Smart Sensor - EC5 (S-SMC-M005)	2019-06-15T12:00:01	0.00	20.817	64.400	0.6104	13.9
842	AB07CD0350	WETLAND SAL01	SALINE (FEN)	56.573903999999998859493643976747989654541015625	-111.277773999999993748133420012891292572021484375	HOBO Rain Gauge Data Logger - RG3	HOBO Temperature/RH Smart Sensor (S-THB-M002)	Soil Moisture Smart Sensor - EC5 (S-SMC-M005)	2019-06-15T13:00:01	0.00	20.388	58.400	0.6104	12.0
843	AB07CD0350	WETLAND SAL01	SALINE (FEN)	56.573903999999998859493643976747989654541015625	-111.277773999999993748133420012891292572021484375	HOBO Rain Gauge Data Logger - RG3	HOBO Temperature/RH Smart Sensor (S-THB-M002)	Soil Moisture Smart Sensor - EC5 (S-SMC-M005)	2019-06-15T14:00:01	0.40	15.438	73.400	0.6104	10.7
844	AB07CD0350	WETLAND SAL01	SALINE (FEN)	56.573903999999998859493643976747989654541015625	-111.277773999999993748133420012891292572021484375	HOBO Rain Gauge Data Logger - RG3	HOBO Temperature/RH Smart Sensor (S-THB-M002)	Soil Moisture Smart Sensor - EC5 (S-SMC-M005)	2019-06-15T15:00:01	0.00	15.485	79.000	0.6104	11.9
845	AB07CD0350	WETLAND SAL01	SALINE (FEN)	56.573903999999998859493643976747989654541015625	-111.277773999999993748133420012891292572021484375	HOBO Rain Gauge Data Logger - RG3	HOBO Temperature/RH Smart Sensor (S-THB-M002)	Soil Moisture Smart Sensor - EC5 (S-SMC-M005)	2019-06-15T16:00:01	0.00	17.582	79.200	0.6104	14.0
846	AB07CD0350	WETLAND SAL01	SALINE (FEN)	56.573903999999998859493643976747989654541015625	-111.277773999999993748133420012891292572021484375	HOBO Rain Gauge Data Logger - RG3	HOBO Temperature/RH Smart Sensor (S-THB-M002)	Soil Moisture Smart Sensor - EC5 (S-SMC-M005)	2019-06-15T17:00:01	0.00	16.963	78.000	0.6104	13.1
847	AB07CD0350	WETLAND SAL01	SALINE (FEN)	56.573903999999998859493643976747989654541015625	-111.277773999999993748133420012891292572021484375	HOBO Rain Gauge Data Logger - RG3	HOBO Temperature/RH Smart Sensor (S-THB-M002)	Soil Moisture Smart Sensor - EC5 (S-SMC-M005)	2019-06-15T18:00:01	0.00	17.724	77.600	0.6104	13.8
848	AB07CD0350	WETLAND SAL01	SALINE (FEN)	56.573903999999998859493643976747989654541015625	-111.277773999999993748133420012891292572021484375	HOBO Rain Gauge Data Logger - RG3	HOBO Temperature/RH Smart Sensor (S-THB-M002)	Soil Moisture Smart Sensor - EC5 (S-SMC-M005)	2019-06-15T19:00:01	0.00	20.126	71.400	0.6104	14.8
849	AB07CD0350	WETLAND SAL01	SALINE (FEN)	56.573903999999998859493643976747989654541015625	-111.277773999999993748133420012891292572021484375	HOBO Rain Gauge Data Logger - RG3	HOBO Temperature/RH Smart Sensor (S-THB-M002)	Soil Moisture Smart Sensor - EC5 (S-SMC-M005)	2019-06-15T20:00:01	0.00	20.746	58.900	0.6104	12.4
850	AB07CD0350	WETLAND SAL01	SALINE (FEN)	56.573903999999998859493643976747989654541015625	-111.277773999999993748133420012891292572021484375	HOBO Rain Gauge Data Logger - RG3	HOBO Temperature/RH Smart Sensor (S-THB-M002)	Soil Moisture Smart Sensor - EC5 (S-SMC-M005)	2019-06-15T21:00:01	0.00	18.010	59.700	0.6104	10.1
851	AB07CD0350	WETLAND SAL01	SALINE (FEN)	56.573903999999998859493643976747989654541015625	-111.277773999999993748133420012891292572021484375	HOBO Rain Gauge Data Logger - RG3	HOBO Temperature/RH Smart Sensor (S-THB-M002)	Soil Moisture Smart Sensor - EC5 (S-SMC-M005)	2019-06-15T22:00:01	0.00	15.031	70.600	0.6104	9.7
852	AB07CD0350	WETLAND SAL01	SALINE (FEN)	56.573903999999998859493643976747989654541015625	-111.277773999999993748133420012891292572021484375	HOBO Rain Gauge Data Logger - RG3	HOBO Temperature/RH Smart Sensor (S-THB-M002)	Soil Moisture Smart Sensor - EC5 (S-SMC-M005)	2019-06-15T23:00:01	0.00	10.736	85.300	0.6104	8.4
853	AB07CD0350	WETLAND SAL01	SALINE (FEN)	56.573903999999998859493643976747989654541015625	-111.277773999999993748133420012891292572021484375	HOBO Rain Gauge Data Logger - RG3	HOBO Temperature/RH Smart Sensor (S-THB-M002)	Soil Moisture Smart Sensor - EC5 (S-SMC-M005)	2019-06-16T00:00:01	0.00	11.248	89.500	0.6104	9.6
854	AB07CD0350	WETLAND SAL01	SALINE (FEN)	56.573903999999998859493643976747989654541015625	-111.277773999999993748133420012891292572021484375	HOBO Rain Gauge Data Logger - RG3	HOBO Temperature/RH Smart Sensor (S-THB-M002)	Soil Moisture Smart Sensor - EC5 (S-SMC-M005)	2019-06-16T01:00:01	0.00	12.050	90.800	0.6104	10.6
855	AB07CD0350	WETLAND SAL01	SALINE (FEN)	56.573903999999998859493643976747989654541015625	-111.277773999999993748133420012891292572021484375	HOBO Rain Gauge Data Logger - RG3	HOBO Temperature/RH Smart Sensor (S-THB-M002)	Soil Moisture Smart Sensor - EC5 (S-SMC-M005)	2019-06-16T02:00:01	0.00	7.995	92.200	0.6104	6.8
856	AB07CD0350	WETLAND SAL01	SALINE (FEN)	56.573903999999998859493643976747989654541015625	-111.277773999999993748133420012891292572021484375	HOBO Rain Gauge Data Logger - RG3	HOBO Temperature/RH Smart Sensor (S-THB-M002)	Soil Moisture Smart Sensor - EC5 (S-SMC-M005)	2019-06-16T03:00:01	0.00	7.544	95.600	0.6104	6.9
857	AB07CD0350	WETLAND SAL01	SALINE (FEN)	56.573903999999998859493643976747989654541015625	-111.277773999999993748133420012891292572021484375	HOBO Rain Gauge Data Logger - RG3	HOBO Temperature/RH Smart Sensor (S-THB-M002)	Soil Moisture Smart Sensor - EC5 (S-SMC-M005)	2019-06-16T04:00:01	0.00	5.385	96.600	0.6104	4.9
858	AB07CD0350	WETLAND SAL01	SALINE (FEN)	56.573903999999998859493643976747989654541015625	-111.277773999999993748133420012891292572021484375	HOBO Rain Gauge Data Logger - RG3	HOBO Temperature/RH Smart Sensor (S-THB-M002)	Soil Moisture Smart Sensor - EC5 (S-SMC-M005)	2019-06-16T05:00:01	0.00	5.128	97.200	0.6104	4.7
859	AB07CD0350	WETLAND SAL01	SALINE (FEN)	56.573903999999998859493643976747989654541015625	-111.277773999999993748133420012891292572021484375	HOBO Rain Gauge Data Logger - RG3	HOBO Temperature/RH Smart Sensor (S-THB-M002)	Soil Moisture Smart Sensor - EC5 (S-SMC-M005)	2019-06-16T06:00:01	0.00	9.361	97.100	0.6104	8.9
860	AB07CD0350	WETLAND SAL01	SALINE (FEN)	56.573903999999998859493643976747989654541015625	-111.277773999999993748133420012891292572021484375	HOBO Rain Gauge Data Logger - RG3	HOBO Temperature/RH Smart Sensor (S-THB-M002)	Soil Moisture Smart Sensor - EC5 (S-SMC-M005)	2019-06-16T07:00:01	0.00	12.534	90.400	0.6104	11.0
861	AB07CD0350	WETLAND SAL01	SALINE (FEN)	56.573903999999998859493643976747989654541015625	-111.277773999999993748133420012891292572021484375	HOBO Rain Gauge Data Logger - RG3	HOBO Temperature/RH Smart Sensor (S-THB-M002)	Soil Moisture Smart Sensor - EC5 (S-SMC-M005)	2019-06-16T08:00:01	0.00	14.912	82.400	0.6104	12.0
862	AB07CD0350	WETLAND SAL01	SALINE (FEN)	56.573903999999998859493643976747989654541015625	-111.277773999999993748133420012891292572021484375	HOBO Rain Gauge Data Logger - RG3	HOBO Temperature/RH Smart Sensor (S-THB-M002)	Soil Moisture Smart Sensor - EC5 (S-SMC-M005)	2019-06-16T09:00:01	0.00	17.772	73.900	0.6104	13.1
863	AB07CD0350	WETLAND SAL01	SALINE (FEN)	56.573903999999998859493643976747989654541015625	-111.277773999999993748133420012891292572021484375	HOBO Rain Gauge Data Logger - RG3	HOBO Temperature/RH Smart Sensor (S-THB-M002)	Soil Moisture Smart Sensor - EC5 (S-SMC-M005)	2019-06-16T10:00:01	0.00	19.460	62.100	0.6104	12.0
864	AB07CD0350	WETLAND SAL01	SALINE (FEN)	56.573903999999998859493643976747989654541015625	-111.277773999999993748133420012891292572021484375	HOBO Rain Gauge Data Logger - RG3	HOBO Temperature/RH Smart Sensor (S-THB-M002)	Soil Moisture Smart Sensor - EC5 (S-SMC-M005)	2019-06-16T11:00:01	0.00	20.746	58.100	0.6104	12.2
865	AB07CD0350	WETLAND SAL01	SALINE (FEN)	56.573903999999998859493643976747989654541015625	-111.277773999999993748133420012891292572021484375	HOBO Rain Gauge Data Logger - RG3	HOBO Temperature/RH Smart Sensor (S-THB-M002)	Soil Moisture Smart Sensor - EC5 (S-SMC-M005)	2019-06-16T12:00:01	0.00	21.390	55.600	0.6104	12.2
866	AB07CD0350	WETLAND SAL01	SALINE (FEN)	56.573903999999998859493643976747989654541015625	-111.277773999999993748133420012891292572021484375	HOBO Rain Gauge Data Logger - RG3	HOBO Temperature/RH Smart Sensor (S-THB-M002)	Soil Moisture Smart Sensor - EC5 (S-SMC-M005)	2019-06-16T13:00:01	0.00	22.705	50.800	0.6104	12.0
867	AB07CD0350	WETLAND SAL01	SALINE (FEN)	56.573903999999998859493643976747989654541015625	-111.277773999999993748133420012891292572021484375	HOBO Rain Gauge Data Logger - RG3	HOBO Temperature/RH Smart Sensor (S-THB-M002)	Soil Moisture Smart Sensor - EC5 (S-SMC-M005)	2019-06-16T14:00:01	0.00	23.280	45.000	0.6104	10.7
868	AB07CD0350	WETLAND SAL01	SALINE (FEN)	56.573903999999998859493643976747989654541015625	-111.277773999999993748133420012891292572021484375	HOBO Rain Gauge Data Logger - RG3	HOBO Temperature/RH Smart Sensor (S-THB-M002)	Soil Moisture Smart Sensor - EC5 (S-SMC-M005)	2019-06-16T15:00:01	0.00	24.098	44.000	0.6104	11.1
869	AB07CD0350	WETLAND SAL01	SALINE (FEN)	56.573903999999998859493643976747989654541015625	-111.277773999999993748133420012891292572021484375	HOBO Rain Gauge Data Logger - RG3	HOBO Temperature/RH Smart Sensor (S-THB-M002)	Soil Moisture Smart Sensor - EC5 (S-SMC-M005)	2019-06-16T16:00:01	0.00	24.774	41.400	0.6097	10.8
870	AB07CD0350	WETLAND SAL01	SALINE (FEN)	56.573903999999998859493643976747989654541015625	-111.277773999999993748133420012891292572021484375	HOBO Rain Gauge Data Logger - RG3	HOBO Temperature/RH Smart Sensor (S-THB-M002)	Soil Moisture Smart Sensor - EC5 (S-SMC-M005)	2019-06-16T17:00:01	0.00	25.137	38.300	0.6097	10.0
871	AB07CD0350	WETLAND SAL01	SALINE (FEN)	56.573903999999998859493643976747989654541015625	-111.277773999999993748133420012891292572021484375	HOBO Rain Gauge Data Logger - RG3	HOBO Temperature/RH Smart Sensor (S-THB-M002)	Soil Moisture Smart Sensor - EC5 (S-SMC-M005)	2019-06-16T18:00:01	0.00	25.331	33.900	0.6104	8.3
872	AB07CD0350	WETLAND SAL01	SALINE (FEN)	56.573903999999998859493643976747989654541015625	-111.277773999999993748133420012891292572021484375	HOBO Rain Gauge Data Logger - RG3	HOBO Temperature/RH Smart Sensor (S-THB-M002)	Soil Moisture Smart Sensor - EC5 (S-SMC-M005)	2019-06-16T19:00:01	0.00	25.890	31.000	0.6104	7.5
873	AB07CD0350	WETLAND SAL01	SALINE (FEN)	56.573903999999998859493643976747989654541015625	-111.277773999999993748133420012891292572021484375	HOBO Rain Gauge Data Logger - RG3	HOBO Temperature/RH Smart Sensor (S-THB-M002)	Soil Moisture Smart Sensor - EC5 (S-SMC-M005)	2019-06-16T20:00:01	0.00	25.453	29.500	0.6104	6.4
874	AB07CD0350	WETLAND SAL01	SALINE (FEN)	56.573903999999998859493643976747989654541015625	-111.277773999999993748133420012891292572021484375	HOBO Rain Gauge Data Logger - RG3	HOBO Temperature/RH Smart Sensor (S-THB-M002)	Soil Moisture Smart Sensor - EC5 (S-SMC-M005)	2019-06-16T21:00:01	0.00	23.497	28.300	0.6104	4.1
875	AB07CD0350	WETLAND SAL01	SALINE (FEN)	56.573903999999998859493643976747989654541015625	-111.277773999999993748133420012891292572021484375	HOBO Rain Gauge Data Logger - RG3	HOBO Temperature/RH Smart Sensor (S-THB-M002)	Soil Moisture Smart Sensor - EC5 (S-SMC-M005)	2019-06-16T22:00:01	0.00	15.438	47.600	0.6104	4.4
876	AB07CD0350	WETLAND SAL01	SALINE (FEN)	56.573903999999998859493643976747989654541015625	-111.277773999999993748133420012891292572021484375	HOBO Rain Gauge Data Logger - RG3	HOBO Temperature/RH Smart Sensor (S-THB-M002)	Soil Moisture Smart Sensor - EC5 (S-SMC-M005)	2019-06-16T23:00:01	0.00	17.106	66.400	0.6104	10.8
877	AB07CD0350	WETLAND SAL01	SALINE (FEN)	56.573903999999998859493643976747989654541015625	-111.277773999999993748133420012891292572021484375	HOBO Rain Gauge Data Logger - RG3	HOBO Temperature/RH Smart Sensor (S-THB-M002)	Soil Moisture Smart Sensor - EC5 (S-SMC-M005)	2019-06-17T00:00:01	0.00	15.700	64.800	0.6111	9.1
878	AB07CD0350	WETLAND SAL01	SALINE (FEN)	56.573903999999998859493643976747989654541015625	-111.277773999999993748133420012891292572021484375	HOBO Rain Gauge Data Logger - RG3	HOBO Temperature/RH Smart Sensor (S-THB-M002)	Soil Moisture Smart Sensor - EC5 (S-SMC-M005)	2019-06-17T01:00:01	0.00	15.151	74.800	0.6111	10.7
879	AB07CD0350	WETLAND SAL01	SALINE (FEN)	56.573903999999998859493643976747989654541015625	-111.277773999999993748133420012891292572021484375	HOBO Rain Gauge Data Logger - RG3	HOBO Temperature/RH Smart Sensor (S-THB-M002)	Soil Moisture Smart Sensor - EC5 (S-SMC-M005)	2019-06-17T02:00:01	0.00	9.952	83.000	0.6111	7.2
880	AB07CD0350	WETLAND SAL01	SALINE (FEN)	56.573903999999998859493643976747989654541015625	-111.277773999999993748133420012891292572021484375	HOBO Rain Gauge Data Logger - RG3	HOBO Temperature/RH Smart Sensor (S-THB-M002)	Soil Moisture Smart Sensor - EC5 (S-SMC-M005)	2019-06-17T03:00:01	0.00	7.167	92.200	0.6111	6.0
881	AB07CD0350	WETLAND SAL01	SALINE (FEN)	56.573903999999998859493643976747989654541015625	-111.277773999999993748133420012891292572021484375	HOBO Rain Gauge Data Logger - RG3	HOBO Temperature/RH Smart Sensor (S-THB-M002)	Soil Moisture Smart Sensor - EC5 (S-SMC-M005)	2019-06-17T04:00:01	0.00	5.179	94.400	0.6111	4.4
882	AB07CD0350	WETLAND SAL01	SALINE (FEN)	56.573903999999998859493643976747989654541015625	-111.277773999999993748133420012891292572021484375	HOBO Rain Gauge Data Logger - RG3	HOBO Temperature/RH Smart Sensor (S-THB-M002)	Soil Moisture Smart Sensor - EC5 (S-SMC-M005)	2019-06-17T05:00:01	0.00	4.089	95.600	0.6111	3.5
883	AB07CD0350	WETLAND SAL01	SALINE (FEN)	56.573903999999998859493643976747989654541015625	-111.277773999999993748133420012891292572021484375	HOBO Rain Gauge Data Logger - RG3	HOBO Temperature/RH Smart Sensor (S-THB-M002)	Soil Moisture Smart Sensor - EC5 (S-SMC-M005)	2019-06-17T06:00:01	0.00	7.368	96.400	0.6111	6.8
884	AB07CD0350	WETLAND SAL01	SALINE (FEN)	56.573903999999998859493643976747989654541015625	-111.277773999999993748133420012891292572021484375	HOBO Rain Gauge Data Logger - RG3	HOBO Temperature/RH Smart Sensor (S-THB-M002)	Soil Moisture Smart Sensor - EC5 (S-SMC-M005)	2019-06-17T07:00:01	0.00	14.074	92.200	0.6111	12.8
885	AB07CD0350	WETLAND SAL01	SALINE (FEN)	56.573903999999998859493643976747989654541015625	-111.277773999999993748133420012891292572021484375	HOBO Rain Gauge Data Logger - RG3	HOBO Temperature/RH Smart Sensor (S-THB-M002)	Soil Moisture Smart Sensor - EC5 (S-SMC-M005)	2019-06-17T08:00:01	0.00	18.652	76.200	0.6111	14.4
886	AB07CD0350	WETLAND SAL01	SALINE (FEN)	56.573903999999998859493643976747989654541015625	-111.277773999999993748133420012891292572021484375	HOBO Rain Gauge Data Logger - RG3	HOBO Temperature/RH Smart Sensor (S-THB-M002)	Soil Moisture Smart Sensor - EC5 (S-SMC-M005)	2019-06-17T09:00:01	0.00	21.032	63.800	0.6119	13.9
887	AB07CD0350	WETLAND SAL01	SALINE (FEN)	56.573903999999998859493643976747989654541015625	-111.277773999999993748133420012891292572021484375	HOBO Rain Gauge Data Logger - RG3	HOBO Temperature/RH Smart Sensor (S-THB-M002)	Soil Moisture Smart Sensor - EC5 (S-SMC-M005)	2019-06-17T10:00:01	0.00	23.472	56.000	0.6119	14.2
888	AB07CD0350	WETLAND SAL01	SALINE (FEN)	56.573903999999998859493643976747989654541015625	-111.277773999999993748133420012891292572021484375	HOBO Rain Gauge Data Logger - RG3	HOBO Temperature/RH Smart Sensor (S-THB-M002)	Soil Moisture Smart Sensor - EC5 (S-SMC-M005)	2019-06-17T11:00:01	0.00	25.137	43.800	0.6111	12.0
889	AB07CD0350	WETLAND SAL01	SALINE (FEN)	56.573903999999998859493643976747989654541015625	-111.277773999999993748133420012891292572021484375	HOBO Rain Gauge Data Logger - RG3	HOBO Temperature/RH Smart Sensor (S-THB-M002)	Soil Moisture Smart Sensor - EC5 (S-SMC-M005)	2019-06-17T12:00:01	0.00	26.378	42.300	0.6119	12.6
890	AB07CD0350	WETLAND SAL01	SALINE (FEN)	56.573903999999998859493643976747989654541015625	-111.277773999999993748133420012891292572021484375	HOBO Rain Gauge Data Logger - RG3	HOBO Temperature/RH Smart Sensor (S-THB-M002)	Soil Moisture Smart Sensor - EC5 (S-SMC-M005)	2019-06-17T13:00:01	0.00	27.112	38.600	0.6111	11.8
891	AB07CD0350	WETLAND SAL01	SALINE (FEN)	56.573903999999998859493643976747989654541015625	-111.277773999999993748133420012891292572021484375	HOBO Rain Gauge Data Logger - RG3	HOBO Temperature/RH Smart Sensor (S-THB-M002)	Soil Moisture Smart Sensor - EC5 (S-SMC-M005)	2019-06-17T14:00:01	0.00	29.240	31.000	0.6111	10.4
892	AB07CD0350	WETLAND SAL01	SALINE (FEN)	56.573903999999998859493643976747989654541015625	-111.277773999999993748133420012891292572021484375	HOBO Rain Gauge Data Logger - RG3	HOBO Temperature/RH Smart Sensor (S-THB-M002)	Soil Moisture Smart Sensor - EC5 (S-SMC-M005)	2019-06-17T15:00:01	0.00	27.284	28.700	0.6111	7.6
893	AB07CD0350	WETLAND SAL01	SALINE (FEN)	56.573903999999998859493643976747989654541015625	-111.277773999999993748133420012891292572021484375	HOBO Rain Gauge Data Logger - RG3	HOBO Temperature/RH Smart Sensor (S-THB-M002)	Soil Moisture Smart Sensor - EC5 (S-SMC-M005)	2019-06-17T16:00:01	0.00	30.369	26.700	0.6111	9.1
894	AB07CD0350	WETLAND SAL01	SALINE (FEN)	56.573903999999998859493643976747989654541015625	-111.277773999999993748133420012891292572021484375	HOBO Rain Gauge Data Logger - RG3	HOBO Temperature/RH Smart Sensor (S-THB-M002)	Soil Moisture Smart Sensor - EC5 (S-SMC-M005)	2019-06-17T17:00:01	0.00	29.464	24.600	0.6111	7.2
895	AB07CD0350	WETLAND SAL01	SALINE (FEN)	56.573903999999998859493643976747989654541015625	-111.277773999999993748133420012891292572021484375	HOBO Rain Gauge Data Logger - RG3	HOBO Temperature/RH Smart Sensor (S-THB-M002)	Soil Moisture Smart Sensor - EC5 (S-SMC-M005)	2019-06-17T18:00:01	0.00	29.290	26.800	0.6119	8.3
896	AB07CD0350	WETLAND SAL01	SALINE (FEN)	56.573903999999998859493643976747989654541015625	-111.277773999999993748133420012891292572021484375	HOBO Rain Gauge Data Logger - RG3	HOBO Temperature/RH Smart Sensor (S-THB-M002)	Soil Moisture Smart Sensor - EC5 (S-SMC-M005)	2019-06-17T19:00:01	0.00	28.568	27.700	0.6111	8.1
897	AB07CD0350	WETLAND SAL01	SALINE (FEN)	56.573903999999998859493643976747989654541015625	-111.277773999999993748133420012891292572021484375	HOBO Rain Gauge Data Logger - RG3	HOBO Temperature/RH Smart Sensor (S-THB-M002)	Soil Moisture Smart Sensor - EC5 (S-SMC-M005)	2019-06-17T20:00:01	0.00	27.063	30.100	0.6119	8.1
898	AB07CD0350	WETLAND SAL01	SALINE (FEN)	56.573903999999998859493643976747989654541015625	-111.277773999999993748133420012891292572021484375	HOBO Rain Gauge Data Logger - RG3	HOBO Temperature/RH Smart Sensor (S-THB-M002)	Soil Moisture Smart Sensor - EC5 (S-SMC-M005)	2019-06-17T21:00:01	0.00	24.388	33.800	0.6119	7.4
899	AB07CD0350	WETLAND SAL01	SALINE (FEN)	56.573903999999998859493643976747989654541015625	-111.277773999999993748133420012891292572021484375	HOBO Rain Gauge Data Logger - RG3	HOBO Temperature/RH Smart Sensor (S-THB-M002)	Soil Moisture Smart Sensor - EC5 (S-SMC-M005)	2019-06-17T22:00:01	0.00	21.294	42.400	0.6119	8.0
900	AB07CD0350	WETLAND SAL01	SALINE (FEN)	56.573903999999998859493643976747989654541015625	-111.277773999999993748133420012891292572021484375	HOBO Rain Gauge Data Logger - RG3	HOBO Temperature/RH Smart Sensor (S-THB-M002)	Soil Moisture Smart Sensor - EC5 (S-SMC-M005)	2019-06-17T23:00:01	0.00	19.222	52.700	0.6119	9.3
901	AB07CD0350	WETLAND SAL01	SALINE (FEN)	56.573903999999998859493643976747989654541015625	-111.277773999999993748133420012891292572021484375	HOBO Rain Gauge Data Logger - RG3	HOBO Temperature/RH Smart Sensor (S-THB-M002)	Soil Moisture Smart Sensor - EC5 (S-SMC-M005)	2019-06-18T00:00:01	0.00	18.961	57.400	0.6126	10.4
902	AB07CD0350	WETLAND SAL01	SALINE (FEN)	56.573903999999998859493643976747989654541015625	-111.277773999999993748133420012891292572021484375	HOBO Rain Gauge Data Logger - RG3	HOBO Temperature/RH Smart Sensor (S-THB-M002)	Soil Moisture Smart Sensor - EC5 (S-SMC-M005)	2019-06-18T01:00:01	0.00	19.984	45.100	0.6126	7.7
903	AB07CD0350	WETLAND SAL01	SALINE (FEN)	56.573903999999998859493643976747989654541015625	-111.277773999999993748133420012891292572021484375	HOBO Rain Gauge Data Logger - RG3	HOBO Temperature/RH Smart Sensor (S-THB-M002)	Soil Moisture Smart Sensor - EC5 (S-SMC-M005)	2019-06-18T02:00:01	0.00	19.770	46.400	0.6126	8.0
904	AB07CD0350	WETLAND SAL01	SALINE (FEN)	56.573903999999998859493643976747989654541015625	-111.277773999999993748133420012891292572021484375	HOBO Rain Gauge Data Logger - RG3	HOBO Temperature/RH Smart Sensor (S-THB-M002)	Soil Moisture Smart Sensor - EC5 (S-SMC-M005)	2019-06-18T03:00:01	0.00	19.603	48.900	0.6126	8.6
905	AB07CD0350	WETLAND SAL01	SALINE (FEN)	56.573903999999998859493643976747989654541015625	-111.277773999999993748133420012891292572021484375	HOBO Rain Gauge Data Logger - RG3	HOBO Temperature/RH Smart Sensor (S-THB-M002)	Soil Moisture Smart Sensor - EC5 (S-SMC-M005)	2019-06-18T04:00:01	0.00	18.985	50.400	0.6126	8.5
906	AB07CD0350	WETLAND SAL01	SALINE (FEN)	56.573903999999998859493643976747989654541015625	-111.277773999999993748133420012891292572021484375	HOBO Rain Gauge Data Logger - RG3	HOBO Temperature/RH Smart Sensor (S-THB-M002)	Soil Moisture Smart Sensor - EC5 (S-SMC-M005)	2019-06-18T05:00:01	0.00	18.675	51.600	0.6126	8.5
907	AB07CD0350	WETLAND SAL01	SALINE (FEN)	56.573903999999998859493643976747989654541015625	-111.277773999999993748133420012891292572021484375	HOBO Rain Gauge Data Logger - RG3	HOBO Temperature/RH Smart Sensor (S-THB-M002)	Soil Moisture Smart Sensor - EC5 (S-SMC-M005)	2019-06-18T06:00:01	0.00	19.484	49.500	0.6133	8.7
908	AB07CD0350	WETLAND SAL01	SALINE (FEN)	56.573903999999998859493643976747989654541015625	-111.277773999999993748133420012891292572021484375	HOBO Rain Gauge Data Logger - RG3	HOBO Temperature/RH Smart Sensor (S-THB-M002)	Soil Moisture Smart Sensor - EC5 (S-SMC-M005)	2019-06-18T07:00:01	0.00	19.627	49.300	0.6133	8.7
909	AB07CD0350	WETLAND SAL01	SALINE (FEN)	56.573903999999998859493643976747989654541015625	-111.277773999999993748133420012891292572021484375	HOBO Rain Gauge Data Logger - RG3	HOBO Temperature/RH Smart Sensor (S-THB-M002)	Soil Moisture Smart Sensor - EC5 (S-SMC-M005)	2019-06-18T08:00:01	0.00	21.652	46.500	0.6133	9.7
910	AB07CD0350	WETLAND SAL01	SALINE (FEN)	56.573903999999998859493643976747989654541015625	-111.277773999999993748133420012891292572021484375	HOBO Rain Gauge Data Logger - RG3	HOBO Temperature/RH Smart Sensor (S-THB-M002)	Soil Moisture Smart Sensor - EC5 (S-SMC-M005)	2019-06-18T09:00:01	0.00	22.298	44.100	0.6133	9.5
911	AB07CD0350	WETLAND SAL01	SALINE (FEN)	56.573903999999998859493643976747989654541015625	-111.277773999999993748133420012891292572021484375	HOBO Rain Gauge Data Logger - RG3	HOBO Temperature/RH Smart Sensor (S-THB-M002)	Soil Moisture Smart Sensor - EC5 (S-SMC-M005)	2019-06-18T10:00:01	0.00	25.428	39.900	0.6133	10.8
912	AB07CD0350	WETLAND SAL01	SALINE (FEN)	56.573903999999998859493643976747989654541015625	-111.277773999999993748133420012891292572021484375	HOBO Rain Gauge Data Logger - RG3	HOBO Temperature/RH Smart Sensor (S-THB-M002)	Soil Moisture Smart Sensor - EC5 (S-SMC-M005)	2019-06-18T11:00:01	0.00	26.158	33.800	0.6133	9.0
913	AB07CD0350	WETLAND SAL01	SALINE (FEN)	56.573903999999998859493643976747989654541015625	-111.277773999999993748133420012891292572021484375	HOBO Rain Gauge Data Logger - RG3	HOBO Temperature/RH Smart Sensor (S-THB-M002)	Soil Moisture Smart Sensor - EC5 (S-SMC-M005)	2019-06-18T12:00:01	0.00	26.867	29.500	0.6133	7.6
914	AB07CD0350	WETLAND SAL01	SALINE (FEN)	56.573903999999998859493643976747989654541015625	-111.277773999999993748133420012891292572021484375	HOBO Rain Gauge Data Logger - RG3	HOBO Temperature/RH Smart Sensor (S-THB-M002)	Soil Moisture Smart Sensor - EC5 (S-SMC-M005)	2019-06-18T13:00:01	0.00	25.963	28.800	0.6133	6.5
915	AB07CD0350	WETLAND SAL01	SALINE (FEN)	56.573903999999998859493643976747989654541015625	-111.277773999999993748133420012891292572021484375	HOBO Rain Gauge Data Logger - RG3	HOBO Temperature/RH Smart Sensor (S-THB-M002)	Soil Moisture Smart Sensor - EC5 (S-SMC-M005)	2019-06-18T14:00:01	0.00	24.919	30.100	0.6126	6.2
916	AB07CD0350	WETLAND SAL01	SALINE (FEN)	56.573903999999998859493643976747989654541015625	-111.277773999999993748133420012891292572021484375	HOBO Rain Gauge Data Logger - RG3	HOBO Temperature/RH Smart Sensor (S-THB-M002)	Soil Moisture Smart Sensor - EC5 (S-SMC-M005)	2019-06-18T15:00:01	0.00	23.833	36.100	0.6126	7.9
917	AB07CD0350	WETLAND SAL01	SALINE (FEN)	56.573903999999998859493643976747989654541015625	-111.277773999999993748133420012891292572021484375	HOBO Rain Gauge Data Logger - RG3	HOBO Temperature/RH Smart Sensor (S-THB-M002)	Soil Moisture Smart Sensor - EC5 (S-SMC-M005)	2019-06-18T16:00:01	0.00	20.817	47.300	0.6126	9.2
918	AB07CD0350	WETLAND SAL01	SALINE (FEN)	56.573903999999998859493643976747989654541015625	-111.277773999999993748133420012891292572021484375	HOBO Rain Gauge Data Logger - RG3	HOBO Temperature/RH Smart Sensor (S-THB-M002)	Soil Moisture Smart Sensor - EC5 (S-SMC-M005)	2019-06-18T17:00:01	0.00	17.510	55.500	0.6126	8.5
919	AB07CD0350	WETLAND SAL01	SALINE (FEN)	56.573903999999998859493643976747989654541015625	-111.277773999999993748133420012891292572021484375	HOBO Rain Gauge Data Logger - RG3	HOBO Temperature/RH Smart Sensor (S-THB-M002)	Soil Moisture Smart Sensor - EC5 (S-SMC-M005)	2019-06-18T18:00:01	0.00	16.630	57.100	0.6126	8.1
920	AB07CD0350	WETLAND SAL01	SALINE (FEN)	56.573903999999998859493643976747989654541015625	-111.277773999999993748133420012891292572021484375	HOBO Rain Gauge Data Logger - RG3	HOBO Temperature/RH Smart Sensor (S-THB-M002)	Soil Moisture Smart Sensor - EC5 (S-SMC-M005)	2019-06-18T19:00:01	0.00	14.792	67.200	0.6126	8.8
921	AB07CD0350	WETLAND SAL01	SALINE (FEN)	56.573903999999998859493643976747989654541015625	-111.277773999999993748133420012891292572021484375	HOBO Rain Gauge Data Logger - RG3	HOBO Temperature/RH Smart Sensor (S-THB-M002)	Soil Moisture Smart Sensor - EC5 (S-SMC-M005)	2019-06-18T20:00:01	0.00	16.654	72.800	0.6126	11.8
922	AB07CD0350	WETLAND SAL01	SALINE (FEN)	56.573903999999998859493643976747989654541015625	-111.277773999999993748133420012891292572021484375	HOBO Rain Gauge Data Logger - RG3	HOBO Temperature/RH Smart Sensor (S-THB-M002)	Soil Moisture Smart Sensor - EC5 (S-SMC-M005)	2019-06-18T21:00:01	0.00	15.342	72.000	0.6126	10.3
923	AB07CD0350	WETLAND SAL01	SALINE (FEN)	56.573903999999998859493643976747989654541015625	-111.277773999999993748133420012891292572021484375	HOBO Rain Gauge Data Logger - RG3	HOBO Temperature/RH Smart Sensor (S-THB-M002)	Soil Moisture Smart Sensor - EC5 (S-SMC-M005)	2019-06-18T22:00:01	0.00	14.337	75.000	0.6126	10.0
924	AB07CD0350	WETLAND SAL01	SALINE (FEN)	56.573903999999998859493643976747989654541015625	-111.277773999999993748133420012891292572021484375	HOBO Rain Gauge Data Logger - RG3	HOBO Temperature/RH Smart Sensor (S-THB-M002)	Soil Moisture Smart Sensor - EC5 (S-SMC-M005)	2019-06-18T23:00:01	0.00	13.473	80.700	0.6126	10.2
925	AB07CD0350	WETLAND SAL01	SALINE (FEN)	56.573903999999998859493643976747989654541015625	-111.277773999999993748133420012891292572021484375	HOBO Rain Gauge Data Logger - RG3	HOBO Temperature/RH Smart Sensor (S-THB-M002)	Soil Moisture Smart Sensor - EC5 (S-SMC-M005)	2019-06-19T00:00:01	0.00	11.734	84.100	0.6126	9.2
926	AB07CD0350	WETLAND SAL01	SALINE (FEN)	56.573903999999998859493643976747989654541015625	-111.277773999999993748133420012891292572021484375	HOBO Rain Gauge Data Logger - RG3	HOBO Temperature/RH Smart Sensor (S-THB-M002)	Soil Moisture Smart Sensor - EC5 (S-SMC-M005)	2019-06-19T01:00:01	0.00	13.497	85.200	0.6126	11.1
927	AB07CD0350	WETLAND SAL01	SALINE (FEN)	56.573903999999998859493643976747989654541015625	-111.277773999999993748133420012891292572021484375	HOBO Rain Gauge Data Logger - RG3	HOBO Temperature/RH Smart Sensor (S-THB-M002)	Soil Moisture Smart Sensor - EC5 (S-SMC-M005)	2019-06-19T02:00:01	0.00	12.413	81.200	0.6126	9.3
928	AB07CD0350	WETLAND SAL01	SALINE (FEN)	56.573903999999998859493643976747989654541015625	-111.277773999999993748133420012891292572021484375	HOBO Rain Gauge Data Logger - RG3	HOBO Temperature/RH Smart Sensor (S-THB-M002)	Soil Moisture Smart Sensor - EC5 (S-SMC-M005)	2019-06-19T03:00:01	0.00	8.344	83.200	0.6126	5.7
929	AB07CD0350	WETLAND SAL01	SALINE (FEN)	56.573903999999998859493643976747989654541015625	-111.277773999999993748133420012891292572021484375	HOBO Rain Gauge Data Logger - RG3	HOBO Temperature/RH Smart Sensor (S-THB-M002)	Soil Moisture Smart Sensor - EC5 (S-SMC-M005)	2019-06-19T04:00:01	0.00	9.262	90.800	0.6126	7.8
930	AB07CD0350	WETLAND SAL01	SALINE (FEN)	56.573903999999998859493643976747989654541015625	-111.277773999999993748133420012891292572021484375	HOBO Rain Gauge Data Logger - RG3	HOBO Temperature/RH Smart Sensor (S-THB-M002)	Soil Moisture Smart Sensor - EC5 (S-SMC-M005)	2019-06-19T05:00:01	0.00	9.977	76.400	0.6126	6.0
931	AB07CD0350	WETLAND SAL01	SALINE (FEN)	56.573903999999998859493643976747989654541015625	-111.277773999999993748133420012891292572021484375	HOBO Rain Gauge Data Logger - RG3	HOBO Temperature/RH Smart Sensor (S-THB-M002)	Soil Moisture Smart Sensor - EC5 (S-SMC-M005)	2019-06-19T06:00:01	0.00	11.248	72.200	0.6126	6.4
932	AB07CD0350	WETLAND SAL01	SALINE (FEN)	56.573903999999998859493643976747989654541015625	-111.277773999999993748133420012891292572021484375	HOBO Rain Gauge Data Logger - RG3	HOBO Temperature/RH Smart Sensor (S-THB-M002)	Soil Moisture Smart Sensor - EC5 (S-SMC-M005)	2019-06-19T07:00:01	0.00	11.710	69.600	0.6126	6.3
933	AB07CD0350	WETLAND SAL01	SALINE (FEN)	56.573903999999998859493643976747989654541015625	-111.277773999999993748133420012891292572021484375	HOBO Rain Gauge Data Logger - RG3	HOBO Temperature/RH Smart Sensor (S-THB-M002)	Soil Moisture Smart Sensor - EC5 (S-SMC-M005)	2019-06-19T08:00:01	0.00	14.816	60.500	0.6126	7.3
934	AB07CD0350	WETLAND SAL01	SALINE (FEN)	56.573903999999998859493643976747989654541015625	-111.277773999999993748133420012891292572021484375	HOBO Rain Gauge Data Logger - RG3	HOBO Temperature/RH Smart Sensor (S-THB-M002)	Soil Moisture Smart Sensor - EC5 (S-SMC-M005)	2019-06-19T09:00:01	0.00	17.891	49.700	0.6126	7.3
935	AB07CD0350	WETLAND SAL01	SALINE (FEN)	56.573903999999998859493643976747989654541015625	-111.277773999999993748133420012891292572021484375	HOBO Rain Gauge Data Logger - RG3	HOBO Temperature/RH Smart Sensor (S-THB-M002)	Soil Moisture Smart Sensor - EC5 (S-SMC-M005)	2019-06-19T10:00:01	0.00	19.841	43.800	0.6126	7.2
936	AB07CD0350	WETLAND SAL01	SALINE (FEN)	56.573903999999998859493643976747989654541015625	-111.277773999999993748133420012891292572021484375	HOBO Rain Gauge Data Logger - RG3	HOBO Temperature/RH Smart Sensor (S-THB-M002)	Soil Moisture Smart Sensor - EC5 (S-SMC-M005)	2019-06-19T11:00:01	0.00	20.865	36.900	0.6126	5.6
937	AB07CD0350	WETLAND SAL01	SALINE (FEN)	56.573903999999998859493643976747989654541015625	-111.277773999999993748133420012891292572021484375	HOBO Rain Gauge Data Logger - RG3	HOBO Temperature/RH Smart Sensor (S-THB-M002)	Soil Moisture Smart Sensor - EC5 (S-SMC-M005)	2019-06-19T12:00:01	0.00	21.223	35.300	0.6119	5.3
938	AB07CD0350	WETLAND SAL01	SALINE (FEN)	56.573903999999998859493643976747989654541015625	-111.277773999999993748133420012891292572021484375	HOBO Rain Gauge Data Logger - RG3	HOBO Temperature/RH Smart Sensor (S-THB-M002)	Soil Moisture Smart Sensor - EC5 (S-SMC-M005)	2019-06-19T13:00:01	0.00	21.604	31.300	0.6126	3.9
939	AB07CD0350	WETLAND SAL01	SALINE (FEN)	56.573903999999998859493643976747989654541015625	-111.277773999999993748133420012891292572021484375	HOBO Rain Gauge Data Logger - RG3	HOBO Temperature/RH Smart Sensor (S-THB-M002)	Soil Moisture Smart Sensor - EC5 (S-SMC-M005)	2019-06-19T14:00:01	0.00	19.579	30.500	0.6119	1.8
940	AB07CD0350	WETLAND SAL01	SALINE (FEN)	56.573903999999998859493643976747989654541015625	-111.277773999999993748133420012891292572021484375	HOBO Rain Gauge Data Logger - RG3	HOBO Temperature/RH Smart Sensor (S-THB-M002)	Soil Moisture Smart Sensor - EC5 (S-SMC-M005)	2019-06-19T15:00:01	0.00	19.056	41.000	0.6119	5.5
941	AB07CD0350	WETLAND SAL01	SALINE (FEN)	56.573903999999998859493643976747989654541015625	-111.277773999999993748133420012891292572021484375	HOBO Rain Gauge Data Logger - RG3	HOBO Temperature/RH Smart Sensor (S-THB-M002)	Soil Moisture Smart Sensor - EC5 (S-SMC-M005)	2019-06-19T16:00:01	0.00	21.987	41.900	0.6119	8.5
942	AB07CD0350	WETLAND SAL01	SALINE (FEN)	56.573903999999998859493643976747989654541015625	-111.277773999999993748133420012891292572021484375	HOBO Rain Gauge Data Logger - RG3	HOBO Temperature/RH Smart Sensor (S-THB-M002)	Soil Moisture Smart Sensor - EC5 (S-SMC-M005)	2019-06-19T17:00:01	0.00	23.376	36.100	0.6119	7.5
943	AB07CD0350	WETLAND SAL01	SALINE (FEN)	56.573903999999998859493643976747989654541015625	-111.277773999999993748133420012891292572021484375	HOBO Rain Gauge Data Logger - RG3	HOBO Temperature/RH Smart Sensor (S-THB-M002)	Soil Moisture Smart Sensor - EC5 (S-SMC-M005)	2019-06-19T18:00:01	0.00	22.130	38.600	0.6119	7.4
944	AB07CD0350	WETLAND SAL01	SALINE (FEN)	56.573903999999998859493643976747989654541015625	-111.277773999999993748133420012891292572021484375	HOBO Rain Gauge Data Logger - RG3	HOBO Temperature/RH Smart Sensor (S-THB-M002)	Soil Moisture Smart Sensor - EC5 (S-SMC-M005)	2019-06-19T19:00:01	10.80	12.944	61.600	0.6119	5.8
945	AB07CD0350	WETLAND SAL01	SALINE (FEN)	56.573903999999998859493643976747989654541015625	-111.277773999999993748133420012891292572021484375	HOBO Rain Gauge Data Logger - RG3	HOBO Temperature/RH Smart Sensor (S-THB-M002)	Soil Moisture Smart Sensor - EC5 (S-SMC-M005)	2019-06-19T20:00:01	0.20	13.618	92.200	0.6119	12.4
946	AB07CD0350	WETLAND SAL01	SALINE (FEN)	56.573903999999998859493643976747989654541015625	-111.277773999999993748133420012891292572021484375	HOBO Rain Gauge Data Logger - RG3	HOBO Temperature/RH Smart Sensor (S-THB-M002)	Soil Moisture Smart Sensor - EC5 (S-SMC-M005)	2019-06-19T21:00:01	4.00	12.871	94.800	0.6119	12.1
947	AB07CD0350	WETLAND SAL01	SALINE (FEN)	56.573903999999998859493643976747989654541015625	-111.277773999999993748133420012891292572021484375	HOBO Rain Gauge Data Logger - RG3	HOBO Temperature/RH Smart Sensor (S-THB-M002)	Soil Moisture Smart Sensor - EC5 (S-SMC-M005)	2019-06-19T22:00:01	0.00	11.467	96.300	0.6126	10.9
948	AB07CD0350	WETLAND SAL01	SALINE (FEN)	56.573903999999998859493643976747989654541015625	-111.277773999999993748133420012891292572021484375	HOBO Rain Gauge Data Logger - RG3	HOBO Temperature/RH Smart Sensor (S-THB-M002)	Soil Moisture Smart Sensor - EC5 (S-SMC-M005)	2019-06-19T23:00:01	0.00	8.891	97.500	0.6126	8.5
949	AB07CD0350	WETLAND SAL01	SALINE (FEN)	56.573903999999998859493643976747989654541015625	-111.277773999999993748133420012891292572021484375	HOBO Rain Gauge Data Logger - RG3	HOBO Temperature/RH Smart Sensor (S-THB-M002)	Soil Moisture Smart Sensor - EC5 (S-SMC-M005)	2019-06-20T00:00:01	0.00	8.394	98.300	0.6126	8.1
950	AB07CD0350	WETLAND SAL01	SALINE (FEN)	56.573903999999998859493643976747989654541015625	-111.277773999999993748133420012891292572021484375	HOBO Rain Gauge Data Logger - RG3	HOBO Temperature/RH Smart Sensor (S-THB-M002)	Soil Moisture Smart Sensor - EC5 (S-SMC-M005)	2019-06-20T01:00:01	0.00	5.462	98.600	0.6126	5.3
951	AB07CD0350	WETLAND SAL01	SALINE (FEN)	56.573903999999998859493643976747989654541015625	-111.277773999999993748133420012891292572021484375	HOBO Rain Gauge Data Logger - RG3	HOBO Temperature/RH Smart Sensor (S-THB-M002)	Soil Moisture Smart Sensor - EC5 (S-SMC-M005)	2019-06-20T02:00:01	0.00	4.194	98.900	0.6126	4.0
952	AB07CD0350	WETLAND SAL01	SALINE (FEN)	56.573903999999998859493643976747989654541015625	-111.277773999999993748133420012891292572021484375	HOBO Rain Gauge Data Logger - RG3	HOBO Temperature/RH Smart Sensor (S-THB-M002)	Soil Moisture Smart Sensor - EC5 (S-SMC-M005)	2019-06-20T03:00:01	0.20	3.906	99.100	0.6119	3.8
953	AB07CD0350	WETLAND SAL01	SALINE (FEN)	56.573903999999998859493643976747989654541015625	-111.277773999999993748133420012891292572021484375	HOBO Rain Gauge Data Logger - RG3	HOBO Temperature/RH Smart Sensor (S-THB-M002)	Soil Moisture Smart Sensor - EC5 (S-SMC-M005)	2019-06-20T04:00:01	0.00	4.376	99.200	0.6126	4.3
954	AB07CD0350	WETLAND SAL01	SALINE (FEN)	56.573903999999998859493643976747989654541015625	-111.277773999999993748133420012891292572021484375	HOBO Rain Gauge Data Logger - RG3	HOBO Temperature/RH Smart Sensor (S-THB-M002)	Soil Moisture Smart Sensor - EC5 (S-SMC-M005)	2019-06-20T05:00:01	0.00	5.488	99.400	0.6126	5.4
955	AB07CD0350	WETLAND SAL01	SALINE (FEN)	56.573903999999998859493643976747989654541015625	-111.277773999999993748133420012891292572021484375	HOBO Rain Gauge Data Logger - RG3	HOBO Temperature/RH Smart Sensor (S-THB-M002)	Soil Moisture Smart Sensor - EC5 (S-SMC-M005)	2019-06-20T06:00:01	0.00	7.645	99.400	0.6119	7.6
956	AB07CD0350	WETLAND SAL01	SALINE (FEN)	56.573903999999998859493643976747989654541015625	-111.277773999999993748133420012891292572021484375	HOBO Rain Gauge Data Logger - RG3	HOBO Temperature/RH Smart Sensor (S-THB-M002)	Soil Moisture Smart Sensor - EC5 (S-SMC-M005)	2019-06-20T07:00:01	0.00	10.736	99.200	0.6119	10.6
957	AB07CD0350	WETLAND SAL01	SALINE (FEN)	56.573903999999998859493643976747989654541015625	-111.277773999999993748133420012891292572021484375	HOBO Rain Gauge Data Logger - RG3	HOBO Temperature/RH Smart Sensor (S-THB-M002)	Soil Moisture Smart Sensor - EC5 (S-SMC-M005)	2019-06-20T08:00:01	0.00	14.218	97.900	0.6119	13.9
958	AB07CD0350	WETLAND SAL01	SALINE (FEN)	56.573903999999998859493643976747989654541015625	-111.277773999999993748133420012891292572021484375	HOBO Rain Gauge Data Logger - RG3	HOBO Temperature/RH Smart Sensor (S-THB-M002)	Soil Moisture Smart Sensor - EC5 (S-SMC-M005)	2019-06-20T09:00:01	0.00	16.296	89.600	0.6119	14.6
959	AB07CD0350	WETLAND SAL01	SALINE (FEN)	56.573903999999998859493643976747989654541015625	-111.277773999999993748133420012891292572021484375	HOBO Rain Gauge Data Logger - RG3	HOBO Temperature/RH Smart Sensor (S-THB-M002)	Soil Moisture Smart Sensor - EC5 (S-SMC-M005)	2019-06-20T10:00:01	0.00	19.888	73.500	0.6119	15.0
960	AB07CD0350	WETLAND SAL01	SALINE (FEN)	56.573903999999998859493643976747989654541015625	-111.277773999999993748133420012891292572021484375	HOBO Rain Gauge Data Logger - RG3	HOBO Temperature/RH Smart Sensor (S-THB-M002)	Soil Moisture Smart Sensor - EC5 (S-SMC-M005)	2019-06-20T11:00:01	0.00	22.800	54.900	0.6111	13.3
961	AB07CD0350	WETLAND SAL01	SALINE (FEN)	56.573903999999998859493643976747989654541015625	-111.277773999999993748133420012891292572021484375	HOBO Rain Gauge Data Logger - RG3	HOBO Temperature/RH Smart Sensor (S-THB-M002)	Soil Moisture Smart Sensor - EC5 (S-SMC-M005)	2019-06-20T12:00:01	0.00	25.283	45.500	0.6111	12.7
962	AB07CD0350	WETLAND SAL01	SALINE (FEN)	56.573903999999998859493643976747989654541015625	-111.277773999999993748133420012891292572021484375	HOBO Rain Gauge Data Logger - RG3	HOBO Temperature/RH Smart Sensor (S-THB-M002)	Soil Moisture Smart Sensor - EC5 (S-SMC-M005)	2019-06-20T13:00:01	0.00	25.162	34.900	0.6111	8.6
963	AB07CD0350	WETLAND SAL01	SALINE (FEN)	56.573903999999998859493643976747989654541015625	-111.277773999999993748133420012891292572021484375	HOBO Rain Gauge Data Logger - RG3	HOBO Temperature/RH Smart Sensor (S-THB-M002)	Soil Moisture Smart Sensor - EC5 (S-SMC-M005)	2019-06-20T14:00:01	0.00	25.404	34.700	0.6111	8.7
964	AB07CD0350	WETLAND SAL01	SALINE (FEN)	56.573903999999998859493643976747989654541015625	-111.277773999999993748133420012891292572021484375	HOBO Rain Gauge Data Logger - RG3	HOBO Temperature/RH Smart Sensor (S-THB-M002)	Soil Moisture Smart Sensor - EC5 (S-SMC-M005)	2019-06-20T15:00:01	0.00	25.623	33.400	0.6111	8.3
965	AB07CD0350	WETLAND SAL01	SALINE (FEN)	56.573903999999998859493643976747989654541015625	-111.277773999999993748133420012891292572021484375	HOBO Rain Gauge Data Logger - RG3	HOBO Temperature/RH Smart Sensor (S-THB-M002)	Soil Moisture Smart Sensor - EC5 (S-SMC-M005)	2019-06-20T16:00:01	0.00	24.968	33.800	0.6111	8.0
966	AB07CD0350	WETLAND SAL01	SALINE (FEN)	56.573903999999998859493643976747989654541015625	-111.277773999999993748133420012891292572021484375	HOBO Rain Gauge Data Logger - RG3	HOBO Temperature/RH Smart Sensor (S-THB-M002)	Soil Moisture Smart Sensor - EC5 (S-SMC-M005)	2019-06-20T17:00:01	0.00	24.871	31.400	0.6111	6.8
967	AB07CD0350	WETLAND SAL01	SALINE (FEN)	56.573903999999998859493643976747989654541015625	-111.277773999999993748133420012891292572021484375	HOBO Rain Gauge Data Logger - RG3	HOBO Temperature/RH Smart Sensor (S-THB-M002)	Soil Moisture Smart Sensor - EC5 (S-SMC-M005)	2019-06-20T18:00:01	0.00	24.436	33.600	0.6111	7.4
968	AB07CD0350	WETLAND SAL01	SALINE (FEN)	56.573903999999998859493643976747989654541015625	-111.277773999999993748133420012891292572021484375	HOBO Rain Gauge Data Logger - RG3	HOBO Temperature/RH Smart Sensor (S-THB-M002)	Soil Moisture Smart Sensor - EC5 (S-SMC-M005)	2019-06-20T19:00:01	0.00	22.393	38.000	0.6111	7.4
969	AB07CD0350	WETLAND SAL01	SALINE (FEN)	56.573903999999998859493643976747989654541015625	-111.277773999999993748133420012891292572021484375	HOBO Rain Gauge Data Logger - RG3	HOBO Temperature/RH Smart Sensor (S-THB-M002)	Soil Moisture Smart Sensor - EC5 (S-SMC-M005)	2019-06-20T20:00:01	1.00	15.414	50.600	0.6111	5.2
970	AB07CD0350	WETLAND SAL01	SALINE (FEN)	56.573903999999998859493643976747989654541015625	-111.277773999999993748133420012891292572021484375	HOBO Rain Gauge Data Logger - RG3	HOBO Temperature/RH Smart Sensor (S-THB-M002)	Soil Moisture Smart Sensor - EC5 (S-SMC-M005)	2019-06-20T21:00:01	0.00	15.915	69.500	0.6111	10.4
971	AB07CD0350	WETLAND SAL01	SALINE (FEN)	56.573903999999998859493643976747989654541015625	-111.277773999999993748133420012891292572021484375	HOBO Rain Gauge Data Logger - RG3	HOBO Temperature/RH Smart Sensor (S-THB-M002)	Soil Moisture Smart Sensor - EC5 (S-SMC-M005)	2019-06-20T22:00:01	0.00	15.390	60.500	0.6111	7.8
972	AB07CD0350	WETLAND SAL01	SALINE (FEN)	56.573903999999998859493643976747989654541015625	-111.277773999999993748133420012891292572021484375	HOBO Rain Gauge Data Logger - RG3	HOBO Temperature/RH Smart Sensor (S-THB-M002)	Soil Moisture Smart Sensor - EC5 (S-SMC-M005)	2019-06-20T23:00:01	0.00	13.329	70.700	0.6119	8.1
973	AB07CD0350	WETLAND SAL01	SALINE (FEN)	56.573903999999998859493643976747989654541015625	-111.277773999999993748133420012891292572021484375	HOBO Rain Gauge Data Logger - RG3	HOBO Temperature/RH Smart Sensor (S-THB-M002)	Soil Moisture Smart Sensor - EC5 (S-SMC-M005)	2019-06-21T00:00:01	0.00	11.589	78.100	0.6119	7.9
974	AB07CD0350	WETLAND SAL01	SALINE (FEN)	56.573903999999998859493643976747989654541015625	-111.277773999999993748133420012891292572021484375	HOBO Rain Gauge Data Logger - RG3	HOBO Temperature/RH Smart Sensor (S-THB-M002)	Soil Moisture Smart Sensor - EC5 (S-SMC-M005)	2019-06-21T01:00:01	0.00	13.064	78.200	0.6119	9.4
975	AB07CD0350	WETLAND SAL01	SALINE (FEN)	56.573903999999998859493643976747989654541015625	-111.277773999999993748133420012891292572021484375	HOBO Rain Gauge Data Logger - RG3	HOBO Temperature/RH Smart Sensor (S-THB-M002)	Soil Moisture Smart Sensor - EC5 (S-SMC-M005)	2019-06-21T02:00:01	0.00	12.703	77.200	0.6119	8.8
976	AB07CD0350	WETLAND SAL01	SALINE (FEN)	56.573903999999998859493643976747989654541015625	-111.277773999999993748133420012891292572021484375	HOBO Rain Gauge Data Logger - RG3	HOBO Temperature/RH Smart Sensor (S-THB-M002)	Soil Moisture Smart Sensor - EC5 (S-SMC-M005)	2019-06-21T03:00:01	0.40	14.960	77.400	0.6119	11.1
977	AB07CD0350	WETLAND SAL01	SALINE (FEN)	56.573903999999998859493643976747989654541015625	-111.277773999999993748133420012891292572021484375	HOBO Rain Gauge Data Logger - RG3	HOBO Temperature/RH Smart Sensor (S-THB-M002)	Soil Moisture Smart Sensor - EC5 (S-SMC-M005)	2019-06-21T04:00:01	0.00	14.122	81.100	0.6119	10.9
978	AB07CD0350	WETLAND SAL01	SALINE (FEN)	56.573903999999998859493643976747989654541015625	-111.277773999999993748133420012891292572021484375	HOBO Rain Gauge Data Logger - RG3	HOBO Temperature/RH Smart Sensor (S-THB-M002)	Soil Moisture Smart Sensor - EC5 (S-SMC-M005)	2019-06-21T05:00:01	0.00	13.546	82.700	0.6119	10.7
979	AB07CD0350	WETLAND SAL01	SALINE (FEN)	56.573903999999998859493643976747989654541015625	-111.277773999999993748133420012891292572021484375	HOBO Rain Gauge Data Logger - RG3	HOBO Temperature/RH Smart Sensor (S-THB-M002)	Soil Moisture Smart Sensor - EC5 (S-SMC-M005)	2019-06-21T06:00:01	0.00	13.497	83.600	0.6119	10.8
980	AB07CD0350	WETLAND SAL01	SALINE (FEN)	56.573903999999998859493643976747989654541015625	-111.277773999999993748133420012891292572021484375	HOBO Rain Gauge Data Logger - RG3	HOBO Temperature/RH Smart Sensor (S-THB-M002)	Soil Moisture Smart Sensor - EC5 (S-SMC-M005)	2019-06-21T07:00:01	0.00	14.433	80.200	0.6119	11.1
981	AB07CD0350	WETLAND SAL01	SALINE (FEN)	56.573903999999998859493643976747989654541015625	-111.277773999999993748133420012891292572021484375	HOBO Rain Gauge Data Logger - RG3	HOBO Temperature/RH Smart Sensor (S-THB-M002)	Soil Moisture Smart Sensor - EC5 (S-SMC-M005)	2019-06-21T08:00:01	0.00	13.882	80.700	0.6119	10.6
982	AB07CD0350	WETLAND SAL01	SALINE (FEN)	56.573903999999998859493643976747989654541015625	-111.277773999999993748133420012891292572021484375	HOBO Rain Gauge Data Logger - RG3	HOBO Temperature/RH Smart Sensor (S-THB-M002)	Soil Moisture Smart Sensor - EC5 (S-SMC-M005)	2019-06-21T09:00:01	0.00	15.748	79.300	0.6119	12.2
983	AB07CD0350	WETLAND SAL01	SALINE (FEN)	56.573903999999998859493643976747989654541015625	-111.277773999999993748133420012891292572021484375	HOBO Rain Gauge Data Logger - RG3	HOBO Temperature/RH Smart Sensor (S-THB-M002)	Soil Moisture Smart Sensor - EC5 (S-SMC-M005)	2019-06-21T10:00:01	0.00	16.725	76.100	0.6119	12.5
984	AB07CD0350	WETLAND SAL01	SALINE (FEN)	56.573903999999998859493643976747989654541015625	-111.277773999999993748133420012891292572021484375	HOBO Rain Gauge Data Logger - RG3	HOBO Temperature/RH Smart Sensor (S-THB-M002)	Soil Moisture Smart Sensor - EC5 (S-SMC-M005)	2019-06-21T11:00:01	0.00	17.867	72.400	0.6119	12.9
985	AB07CD0350	WETLAND SAL01	SALINE (FEN)	56.573903999999998859493643976747989654541015625	-111.277773999999993748133420012891292572021484375	HOBO Rain Gauge Data Logger - RG3	HOBO Temperature/RH Smart Sensor (S-THB-M002)	Soil Moisture Smart Sensor - EC5 (S-SMC-M005)	2019-06-21T12:00:01	0.00	19.484	65.700	0.6119	12.9
986	AB07CD0350	WETLAND SAL01	SALINE (FEN)	56.573903999999998859493643976747989654541015625	-111.277773999999993748133420012891292572021484375	HOBO Rain Gauge Data Logger - RG3	HOBO Temperature/RH Smart Sensor (S-THB-M002)	Soil Moisture Smart Sensor - EC5 (S-SMC-M005)	2019-06-21T13:00:01	0.00	19.436	63.400	0.6119	12.3
987	AB07CD0350	WETLAND SAL01	SALINE (FEN)	56.573903999999998859493643976747989654541015625	-111.277773999999993748133420012891292572021484375	HOBO Rain Gauge Data Logger - RG3	HOBO Temperature/RH Smart Sensor (S-THB-M002)	Soil Moisture Smart Sensor - EC5 (S-SMC-M005)	2019-06-21T14:00:01	0.00	19.888	62.400	0.6111	12.5
988	AB07CD0350	WETLAND SAL01	SALINE (FEN)	56.573903999999998859493643976747989654541015625	-111.277773999999993748133420012891292572021484375	HOBO Rain Gauge Data Logger - RG3	HOBO Temperature/RH Smart Sensor (S-THB-M002)	Soil Moisture Smart Sensor - EC5 (S-SMC-M005)	2019-06-21T15:00:01	0.00	22.753	56.300	0.6119	13.6
989	AB07CD0350	WETLAND SAL01	SALINE (FEN)	56.573903999999998859493643976747989654541015625	-111.277773999999993748133420012891292572021484375	HOBO Rain Gauge Data Logger - RG3	HOBO Temperature/RH Smart Sensor (S-THB-M002)	Soil Moisture Smart Sensor - EC5 (S-SMC-M005)	2019-06-21T16:00:01	0.00	22.561	47.400	0.6119	10.8
990	AB07CD0350	WETLAND SAL01	SALINE (FEN)	56.573903999999998859493643976747989654541015625	-111.277773999999993748133420012891292572021484375	HOBO Rain Gauge Data Logger - RG3	HOBO Temperature/RH Smart Sensor (S-THB-M002)	Soil Moisture Smart Sensor - EC5 (S-SMC-M005)	2019-06-21T17:00:01	0.00	20.198	50.500	0.6111	9.6
991	AB07CD0350	WETLAND SAL01	SALINE (FEN)	56.573903999999998859493643976747989654541015625	-111.277773999999993748133420012891292572021484375	HOBO Rain Gauge Data Logger - RG3	HOBO Temperature/RH Smart Sensor (S-THB-M002)	Soil Moisture Smart Sensor - EC5 (S-SMC-M005)	2019-06-21T18:00:01	0.00	20.865	48.500	0.6119	9.6
992	AB07CD0350	WETLAND SAL01	SALINE (FEN)	56.573903999999998859493643976747989654541015625	-111.277773999999993748133420012891292572021484375	HOBO Rain Gauge Data Logger - RG3	HOBO Temperature/RH Smart Sensor (S-THB-M002)	Soil Moisture Smart Sensor - EC5 (S-SMC-M005)	2019-06-21T19:00:01	0.00	21.604	50.700	0.6119	11.0
993	AB07CD0350	WETLAND SAL01	SALINE (FEN)	56.573903999999998859493643976747989654541015625	-111.277773999999993748133420012891292572021484375	HOBO Rain Gauge Data Logger - RG3	HOBO Temperature/RH Smart Sensor (S-THB-M002)	Soil Moisture Smart Sensor - EC5 (S-SMC-M005)	2019-06-21T20:00:01	0.00	19.698	53.400	0.6119	10.0
994	AB07CD0350	WETLAND SAL01	SALINE (FEN)	56.573903999999998859493643976747989654541015625	-111.277773999999993748133420012891292572021484375	HOBO Rain Gauge Data Logger - RG3	HOBO Temperature/RH Smart Sensor (S-THB-M002)	Soil Moisture Smart Sensor - EC5 (S-SMC-M005)	2019-06-21T21:00:01	0.00	17.938	56.800	0.6119	9.3
995	AB07CD0350	WETLAND SAL01	SALINE (FEN)	56.573903999999998859493643976747989654541015625	-111.277773999999993748133420012891292572021484375	HOBO Rain Gauge Data Logger - RG3	HOBO Temperature/RH Smart Sensor (S-THB-M002)	Soil Moisture Smart Sensor - EC5 (S-SMC-M005)	2019-06-21T22:00:01	0.00	15.294	64.400	0.6119	8.6
996	AB07CD0350	WETLAND SAL01	SALINE (FEN)	56.573903999999998859493643976747989654541015625	-111.277773999999993748133420012891292572021484375	HOBO Rain Gauge Data Logger - RG3	HOBO Temperature/RH Smart Sensor (S-THB-M002)	Soil Moisture Smart Sensor - EC5 (S-SMC-M005)	2019-06-21T23:00:01	0.00	14.002	75.500	0.6119	9.8
997	AB07CD0350	WETLAND SAL01	SALINE (FEN)	56.573903999999998859493643976747989654541015625	-111.277773999999993748133420012891292572021484375	HOBO Rain Gauge Data Logger - RG3	HOBO Temperature/RH Smart Sensor (S-THB-M002)	Soil Moisture Smart Sensor - EC5 (S-SMC-M005)	2019-06-22T00:00:01	0.00	12.171	85.900	0.6119	9.9
998	AB07CD0350	WETLAND SAL01	SALINE (FEN)	56.573903999999998859493643976747989654541015625	-111.277773999999993748133420012891292572021484375	HOBO Rain Gauge Data Logger - RG3	HOBO Temperature/RH Smart Sensor (S-THB-M002)	Soil Moisture Smart Sensor - EC5 (S-SMC-M005)	2019-06-22T01:00:01	0.00	10.394	91.900	0.6119	9.1
999	AB07CD0350	WETLAND SAL01	SALINE (FEN)	56.573903999999998859493643976747989654541015625	-111.277773999999993748133420012891292572021484375	HOBO Rain Gauge Data Logger - RG3	HOBO Temperature/RH Smart Sensor (S-THB-M002)	Soil Moisture Smart Sensor - EC5 (S-SMC-M005)	2019-06-22T02:00:01	0.00	9.040	95.400	0.6119	8.4
1000	AB07CD0350	WETLAND SAL01	SALINE (FEN)	56.573903999999998859493643976747989654541015625	-111.277773999999993748133420012891292572021484375	HOBO Rain Gauge Data Logger - RG3	HOBO Temperature/RH Smart Sensor (S-THB-M002)	Soil Moisture Smart Sensor - EC5 (S-SMC-M005)	2019-06-22T03:00:01	0.00	7.041	96.900	0.6119	6.6
1001	AB07CD0350	WETLAND SAL01	SALINE (FEN)	56.573903999999998859493643976747989654541015625	-111.277773999999993748133420012891292572021484375	HOBO Rain Gauge Data Logger - RG3	HOBO Temperature/RH Smart Sensor (S-THB-M002)	Soil Moisture Smart Sensor - EC5 (S-SMC-M005)	2019-06-22T04:00:01	0.00	10.051	98.200	0.6119	9.8
1002	AB07CD0350	WETLAND SAL01	SALINE (FEN)	56.573903999999998859493643976747989654541015625	-111.277773999999993748133420012891292572021484375	HOBO Rain Gauge Data Logger - RG3	HOBO Temperature/RH Smart Sensor (S-THB-M002)	Soil Moisture Smart Sensor - EC5 (S-SMC-M005)	2019-06-22T05:00:01	0.00	11.224	98.400	0.6119	11.0
1003	AB07CD0350	WETLAND SAL01	SALINE (FEN)	56.573903999999998859493643976747989654541015625	-111.277773999999993748133420012891292572021484375	HOBO Rain Gauge Data Logger - RG3	HOBO Temperature/RH Smart Sensor (S-THB-M002)	Soil Moisture Smart Sensor - EC5 (S-SMC-M005)	2019-06-22T06:00:01	0.00	11.467	98.400	0.6119	11.2
1004	AB07CD0350	WETLAND SAL01	SALINE (FEN)	56.573903999999998859493643976747989654541015625	-111.277773999999993748133420012891292572021484375	HOBO Rain Gauge Data Logger - RG3	HOBO Temperature/RH Smart Sensor (S-THB-M002)	Soil Moisture Smart Sensor - EC5 (S-SMC-M005)	2019-06-22T07:00:01	0.00	11.662	98.600	0.6119	11.5
1005	AB07CD0350	WETLAND SAL01	SALINE (FEN)	56.573903999999998859493643976747989654541015625	-111.277773999999993748133420012891292572021484375	HOBO Rain Gauge Data Logger - RG3	HOBO Temperature/RH Smart Sensor (S-THB-M002)	Soil Moisture Smart Sensor - EC5 (S-SMC-M005)	2019-06-22T08:00:01	0.00	12.098	98.800	0.6119	11.9
1006	AB07CD0350	WETLAND SAL01	SALINE (FEN)	56.573903999999998859493643976747989654541015625	-111.277773999999993748133420012891292572021484375	HOBO Rain Gauge Data Logger - RG3	HOBO Temperature/RH Smart Sensor (S-THB-M002)	Soil Moisture Smart Sensor - EC5 (S-SMC-M005)	2019-06-22T09:00:01	0.00	12.654	98.600	0.6119	12.5
1007	AB07CD0350	WETLAND SAL01	SALINE (FEN)	56.573903999999998859493643976747989654541015625	-111.277773999999993748133420012891292572021484375	HOBO Rain Gauge Data Logger - RG3	HOBO Temperature/RH Smart Sensor (S-THB-M002)	Soil Moisture Smart Sensor - EC5 (S-SMC-M005)	2019-06-22T10:00:01	0.00	13.305	97.000	0.6119	12.9
1008	AB07CD0350	WETLAND SAL01	SALINE (FEN)	56.573903999999998859493643976747989654541015625	-111.277773999999993748133420012891292572021484375	HOBO Rain Gauge Data Logger - RG3	HOBO Temperature/RH Smart Sensor (S-THB-M002)	Soil Moisture Smart Sensor - EC5 (S-SMC-M005)	2019-06-22T11:00:01	0.00	14.816	90.300	0.6119	13.3
1009	AB07CD0350	WETLAND SAL01	SALINE (FEN)	56.573903999999998859493643976747989654541015625	-111.277773999999993748133420012891292572021484375	HOBO Rain Gauge Data Logger - RG3	HOBO Temperature/RH Smart Sensor (S-THB-M002)	Soil Moisture Smart Sensor - EC5 (S-SMC-M005)	2019-06-22T12:00:01	0.00	19.413	79.200	0.6119	15.7
1010	AB07CD0350	WETLAND SAL01	SALINE (FEN)	56.573903999999998859493643976747989654541015625	-111.277773999999993748133420012891292572021484375	HOBO Rain Gauge Data Logger - RG3	HOBO Temperature/RH Smart Sensor (S-THB-M002)	Soil Moisture Smart Sensor - EC5 (S-SMC-M005)	2019-06-22T13:00:01	0.00	19.199	67.000	0.6119	12.9
1011	AB07CD0350	WETLAND SAL01	SALINE (FEN)	56.573903999999998859493643976747989654541015625	-111.277773999999993748133420012891292572021484375	HOBO Rain Gauge Data Logger - RG3	HOBO Temperature/RH Smart Sensor (S-THB-M002)	Soil Moisture Smart Sensor - EC5 (S-SMC-M005)	2019-06-22T14:00:01	0.00	21.963	63.700	0.6119	14.8
1012	AB07CD0350	WETLAND SAL01	SALINE (FEN)	56.573903999999998859493643976747989654541015625	-111.277773999999993748133420012891292572021484375	HOBO Rain Gauge Data Logger - RG3	HOBO Temperature/RH Smart Sensor (S-THB-M002)	Soil Moisture Smart Sensor - EC5 (S-SMC-M005)	2019-06-22T15:00:01	0.00	21.700	57.900	0.6119	13.1
1013	AB07CD0350	WETLAND SAL01	SALINE (FEN)	56.573903999999998859493643976747989654541015625	-111.277773999999993748133420012891292572021484375	HOBO Rain Gauge Data Logger - RG3	HOBO Temperature/RH Smart Sensor (S-THB-M002)	Soil Moisture Smart Sensor - EC5 (S-SMC-M005)	2019-06-22T16:00:01	2.20	14.170	71.900	0.6111	9.2
1014	AB07CD0350	WETLAND SAL01	SALINE (FEN)	56.573903999999998859493643976747989654541015625	-111.277773999999993748133420012891292572021484375	HOBO Rain Gauge Data Logger - RG3	HOBO Temperature/RH Smart Sensor (S-THB-M002)	Soil Moisture Smart Sensor - EC5 (S-SMC-M005)	2019-06-22T17:00:01	2.60	16.153	83.500	0.6119	13.4
1015	AB07CD0350	WETLAND SAL01	SALINE (FEN)	56.573903999999998859493643976747989654541015625	-111.277773999999993748133420012891292572021484375	HOBO Rain Gauge Data Logger - RG3	HOBO Temperature/RH Smart Sensor (S-THB-M002)	Soil Moisture Smart Sensor - EC5 (S-SMC-M005)	2019-06-22T18:00:01	0.00	17.772	80.900	0.6119	14.5
1016	AB07CD0350	WETLAND SAL01	SALINE (FEN)	56.573903999999998859493643976747989654541015625	-111.277773999999993748133420012891292572021484375	HOBO Rain Gauge Data Logger - RG3	HOBO Temperature/RH Smart Sensor (S-THB-M002)	Soil Moisture Smart Sensor - EC5 (S-SMC-M005)	2019-06-22T19:00:01	0.00	19.579	67.300	0.6119	13.4
1017	AB07CD0350	WETLAND SAL01	SALINE (FEN)	56.573903999999998859493643976747989654541015625	-111.277773999999993748133420012891292572021484375	HOBO Rain Gauge Data Logger - RG3	HOBO Temperature/RH Smart Sensor (S-THB-M002)	Soil Moisture Smart Sensor - EC5 (S-SMC-M005)	2019-06-22T20:00:01	0.00	16.939	69.400	0.6111	11.3
1018	AB07CD0350	WETLAND SAL01	SALINE (FEN)	56.573903999999998859493643976747989654541015625	-111.277773999999993748133420012891292572021484375	HOBO Rain Gauge Data Logger - RG3	HOBO Temperature/RH Smart Sensor (S-THB-M002)	Soil Moisture Smart Sensor - EC5 (S-SMC-M005)	2019-06-22T21:00:01	0.00	14.960	79.700	0.6119	11.5
1019	AB07CD0350	WETLAND SAL01	SALINE (FEN)	56.573903999999998859493643976747989654541015625	-111.277773999999993748133420012891292572021484375	HOBO Rain Gauge Data Logger - RG3	HOBO Temperature/RH Smart Sensor (S-THB-M002)	Soil Moisture Smart Sensor - EC5 (S-SMC-M005)	2019-06-22T22:00:01	0.40	13.762	89.300	0.6119	12.0
1020	AB07CD0350	WETLAND SAL01	SALINE (FEN)	56.573903999999998859493643976747989654541015625	-111.277773999999993748133420012891292572021484375	HOBO Rain Gauge Data Logger - RG3	HOBO Temperature/RH Smart Sensor (S-THB-M002)	Soil Moisture Smart Sensor - EC5 (S-SMC-M005)	2019-06-22T23:00:01	0.00	12.243	94.200	0.6119	11.4
1021	AB07CD0350	WETLAND SAL01	SALINE (FEN)	56.573903999999998859493643976747989654541015625	-111.277773999999993748133420012891292572021484375	HOBO Rain Gauge Data Logger - RG3	HOBO Temperature/RH Smart Sensor (S-THB-M002)	Soil Moisture Smart Sensor - EC5 (S-SMC-M005)	2019-06-23T00:00:01	0.00	10.565	96.300	0.6119	10.0
1022	AB07CD0350	WETLAND SAL01	SALINE (FEN)	56.573903999999998859493643976747989654541015625	-111.277773999999993748133420012891292572021484375	HOBO Rain Gauge Data Logger - RG3	HOBO Temperature/RH Smart Sensor (S-THB-M002)	Soil Moisture Smart Sensor - EC5 (S-SMC-M005)	2019-06-23T01:00:01	0.00	9.583	97.400	0.6119	9.2
1023	AB07CD0350	WETLAND SAL01	SALINE (FEN)	56.573903999999998859493643976747989654541015625	-111.277773999999993748133420012891292572021484375	HOBO Rain Gauge Data Logger - RG3	HOBO Temperature/RH Smart Sensor (S-THB-M002)	Soil Moisture Smart Sensor - EC5 (S-SMC-M005)	2019-06-23T02:00:01	0.00	9.163	98.000	0.6119	8.9
1024	AB07CD0350	WETLAND SAL01	SALINE (FEN)	56.573903999999998859493643976747989654541015625	-111.277773999999993748133420012891292572021484375	HOBO Rain Gauge Data Logger - RG3	HOBO Temperature/RH Smart Sensor (S-THB-M002)	Soil Moisture Smart Sensor - EC5 (S-SMC-M005)	2019-06-23T03:00:01	0.00	11.662	98.400	0.6119	11.4
1025	AB07CD0350	WETLAND SAL01	SALINE (FEN)	56.573903999999998859493643976747989654541015625	-111.277773999999993748133420012891292572021484375	HOBO Rain Gauge Data Logger - RG3	HOBO Temperature/RH Smart Sensor (S-THB-M002)	Soil Moisture Smart Sensor - EC5 (S-SMC-M005)	2019-06-23T04:00:01	0.00	12.437	98.600	0.6126	12.2
1026	AB07CD0350	WETLAND SAL01	SALINE (FEN)	56.573903999999998859493643976747989654541015625	-111.277773999999993748133420012891292572021484375	HOBO Rain Gauge Data Logger - RG3	HOBO Temperature/RH Smart Sensor (S-THB-M002)	Soil Moisture Smart Sensor - EC5 (S-SMC-M005)	2019-06-23T05:00:01	0.00	11.759	98.900	0.6119	11.6
1027	AB07CD0350	WETLAND SAL01	SALINE (FEN)	56.573903999999998859493643976747989654541015625	-111.277773999999993748133420012891292572021484375	HOBO Rain Gauge Data Logger - RG3	HOBO Temperature/RH Smart Sensor (S-THB-M002)	Soil Moisture Smart Sensor - EC5 (S-SMC-M005)	2019-06-23T06:00:01	0.20	12.147	99.300	0.6119	12.1
1028	AB07CD0350	WETLAND SAL01	SALINE (FEN)	56.573903999999998859493643976747989654541015625	-111.277773999999993748133420012891292572021484375	HOBO Rain Gauge Data Logger - RG3	HOBO Temperature/RH Smart Sensor (S-THB-M002)	Soil Moisture Smart Sensor - EC5 (S-SMC-M005)	2019-06-23T07:00:01	0.00	12.630	99.300	0.6119	12.5
1029	AB07CD0350	WETLAND SAL01	SALINE (FEN)	56.573903999999998859493643976747989654541015625	-111.277773999999993748133420012891292572021484375	HOBO Rain Gauge Data Logger - RG3	HOBO Temperature/RH Smart Sensor (S-THB-M002)	Soil Moisture Smart Sensor - EC5 (S-SMC-M005)	2019-06-23T08:00:01	0.00	13.329	99.200	0.6119	13.2
1030	AB07CD0350	WETLAND SAL01	SALINE (FEN)	56.573903999999998859493643976747989654541015625	-111.277773999999993748133420012891292572021484375	HOBO Rain Gauge Data Logger - RG3	HOBO Temperature/RH Smart Sensor (S-THB-M002)	Soil Moisture Smart Sensor - EC5 (S-SMC-M005)	2019-06-23T09:00:01	0.00	13.137	99.100	0.6119	13.0
1031	AB07CD0350	WETLAND SAL01	SALINE (FEN)	56.573903999999998859493643976747989654541015625	-111.277773999999993748133420012891292572021484375	HOBO Rain Gauge Data Logger - RG3	HOBO Temperature/RH Smart Sensor (S-THB-M002)	Soil Moisture Smart Sensor - EC5 (S-SMC-M005)	2019-06-23T10:00:01	0.00	13.642	98.400	0.6119	13.4
1032	AB07CD0350	WETLAND SAL01	SALINE (FEN)	56.573903999999998859493643976747989654541015625	-111.277773999999993748133420012891292572021484375	HOBO Rain Gauge Data Logger - RG3	HOBO Temperature/RH Smart Sensor (S-THB-M002)	Soil Moisture Smart Sensor - EC5 (S-SMC-M005)	2019-06-23T11:00:01	0.00	14.361	92.700	0.6119	13.2
1033	AB07CD0350	WETLAND SAL01	SALINE (FEN)	56.573903999999998859493643976747989654541015625	-111.277773999999993748133420012891292572021484375	HOBO Rain Gauge Data Logger - RG3	HOBO Temperature/RH Smart Sensor (S-THB-M002)	Soil Moisture Smart Sensor - EC5 (S-SMC-M005)	2019-06-23T12:00:01	0.00	14.266	92.000	0.6119	13.0
1034	AB07CD0350	WETLAND SAL01	SALINE (FEN)	56.573903999999998859493643976747989654541015625	-111.277773999999993748133420012891292572021484375	HOBO Rain Gauge Data Logger - RG3	HOBO Temperature/RH Smart Sensor (S-THB-M002)	Soil Moisture Smart Sensor - EC5 (S-SMC-M005)	2019-06-23T13:00:01	0.00	15.963	87.500	0.6111	13.9
1035	AB07CD0350	WETLAND SAL01	SALINE (FEN)	56.573903999999998859493643976747989654541015625	-111.277773999999993748133420012891292572021484375	HOBO Rain Gauge Data Logger - RG3	HOBO Temperature/RH Smart Sensor (S-THB-M002)	Soil Moisture Smart Sensor - EC5 (S-SMC-M005)	2019-06-23T14:00:01	1.20	14.553	92.300	0.6119	13.3
1036	AB07CD0350	WETLAND SAL01	SALINE (FEN)	56.573903999999998859493643976747989654541015625	-111.277773999999993748133420012891292572021484375	HOBO Rain Gauge Data Logger - RG3	HOBO Temperature/RH Smart Sensor (S-THB-M002)	Soil Moisture Smart Sensor - EC5 (S-SMC-M005)	2019-06-23T15:00:01	0.00	15.461	90.100	0.6111	13.9
1037	AB07CD0350	WETLAND SAL01	SALINE (FEN)	56.573903999999998859493643976747989654541015625	-111.277773999999993748133420012891292572021484375	HOBO Rain Gauge Data Logger - RG3	HOBO Temperature/RH Smart Sensor (S-THB-M002)	Soil Moisture Smart Sensor - EC5 (S-SMC-M005)	2019-06-23T16:00:01	0.00	15.223	90.100	0.6111	13.6
1038	AB07CD0350	WETLAND SAL01	SALINE (FEN)	56.573903999999998859493643976747989654541015625	-111.277773999999993748133420012891292572021484375	HOBO Rain Gauge Data Logger - RG3	HOBO Temperature/RH Smart Sensor (S-THB-M002)	Soil Moisture Smart Sensor - EC5 (S-SMC-M005)	2019-06-23T17:00:01	0.00	15.103	89.200	0.6111	13.4
1039	AB07CD0350	WETLAND SAL01	SALINE (FEN)	56.573903999999998859493643976747989654541015625	-111.277773999999993748133420012891292572021484375	HOBO Rain Gauge Data Logger - RG3	HOBO Temperature/RH Smart Sensor (S-THB-M002)	Soil Moisture Smart Sensor - EC5 (S-SMC-M005)	2019-06-23T18:00:01	0.00	15.772	86.300	0.6111	13.5
1040	AB07CD0350	WETLAND SAL01	SALINE (FEN)	56.573903999999998859493643976747989654541015625	-111.277773999999993748133420012891292572021484375	HOBO Rain Gauge Data Logger - RG3	HOBO Temperature/RH Smart Sensor (S-THB-M002)	Soil Moisture Smart Sensor - EC5 (S-SMC-M005)	2019-06-23T19:00:01	0.00	15.390	86.000	0.6111	13.1
1041	AB07CD0350	WETLAND SAL01	SALINE (FEN)	56.573903999999998859493643976747989654541015625	-111.277773999999993748133420012891292572021484375	HOBO Rain Gauge Data Logger - RG3	HOBO Temperature/RH Smart Sensor (S-THB-M002)	Soil Moisture Smart Sensor - EC5 (S-SMC-M005)	2019-06-23T20:00:01	0.40	12.558	88.000	0.6111	10.6
1042	AB07CD0350	WETLAND SAL01	SALINE (FEN)	56.573903999999998859493643976747989654541015625	-111.277773999999993748133420012891292572021484375	HOBO Rain Gauge Data Logger - RG3	HOBO Temperature/RH Smart Sensor (S-THB-M002)	Soil Moisture Smart Sensor - EC5 (S-SMC-M005)	2019-06-23T21:00:01	2.20	12.534	95.200	0.6111	11.8
1043	AB07CD0350	WETLAND SAL01	SALINE (FEN)	56.573903999999998859493643976747989654541015625	-111.277773999999993748133420012891292572021484375	HOBO Rain Gauge Data Logger - RG3	HOBO Temperature/RH Smart Sensor (S-THB-M002)	Soil Moisture Smart Sensor - EC5 (S-SMC-M005)	2019-06-23T22:00:01	0.00	12.606	97.100	0.6119	12.2
1044	AB07CD0350	WETLAND SAL01	SALINE (FEN)	56.573903999999998859493643976747989654541015625	-111.277773999999993748133420012891292572021484375	HOBO Rain Gauge Data Logger - RG3	HOBO Temperature/RH Smart Sensor (S-THB-M002)	Soil Moisture Smart Sensor - EC5 (S-SMC-M005)	2019-06-23T23:00:01	0.00	12.992	96.900	0.6119	12.5
1045	AB07CD0350	WETLAND SAL01	SALINE (FEN)	56.573903999999998859493643976747989654541015625	-111.277773999999993748133420012891292572021484375	HOBO Rain Gauge Data Logger - RG3	HOBO Temperature/RH Smart Sensor (S-THB-M002)	Soil Moisture Smart Sensor - EC5 (S-SMC-M005)	2019-06-24T00:00:01	0.00	12.751	97.200	0.6111	12.3
1046	AB07CD0350	WETLAND SAL01	SALINE (FEN)	56.573903999999998859493643976747989654541015625	-111.277773999999993748133420012891292572021484375	HOBO Rain Gauge Data Logger - RG3	HOBO Temperature/RH Smart Sensor (S-THB-M002)	Soil Moisture Smart Sensor - EC5 (S-SMC-M005)	2019-06-24T01:00:01	0.40	12.558	97.600	0.6111	12.2
1047	AB07CD0350	WETLAND SAL01	SALINE (FEN)	56.573903999999998859493643976747989654541015625	-111.277773999999993748133420012891292572021484375	HOBO Rain Gauge Data Logger - RG3	HOBO Temperature/RH Smart Sensor (S-THB-M002)	Soil Moisture Smart Sensor - EC5 (S-SMC-M005)	2019-06-24T02:00:01	0.20	12.364	98.100	0.6119	12.1
1048	AB07CD0350	WETLAND SAL01	SALINE (FEN)	56.573903999999998859493643976747989654541015625	-111.277773999999993748133420012891292572021484375	HOBO Rain Gauge Data Logger - RG3	HOBO Temperature/RH Smart Sensor (S-THB-M002)	Soil Moisture Smart Sensor - EC5 (S-SMC-M005)	2019-06-24T03:00:01	0.20	11.977	98.300	0.6119	11.7
1049	AB07CD0350	WETLAND SAL01	SALINE (FEN)	56.573903999999998859493643976747989654541015625	-111.277773999999993748133420012891292572021484375	HOBO Rain Gauge Data Logger - RG3	HOBO Temperature/RH Smart Sensor (S-THB-M002)	Soil Moisture Smart Sensor - EC5 (S-SMC-M005)	2019-06-24T04:00:01	0.00	11.783	98.300	0.6111	11.5
1050	AB07CD0350	WETLAND SAL01	SALINE (FEN)	56.573903999999998859493643976747989654541015625	-111.277773999999993748133420012891292572021484375	HOBO Rain Gauge Data Logger - RG3	HOBO Temperature/RH Smart Sensor (S-THB-M002)	Soil Moisture Smart Sensor - EC5 (S-SMC-M005)	2019-06-24T05:00:01	0.20	11.637	98.700	0.6111	11.5
1051	AB07CD0350	WETLAND SAL01	SALINE (FEN)	56.573903999999998859493643976747989654541015625	-111.277773999999993748133420012891292572021484375	HOBO Rain Gauge Data Logger - RG3	HOBO Temperature/RH Smart Sensor (S-THB-M002)	Soil Moisture Smart Sensor - EC5 (S-SMC-M005)	2019-06-24T06:00:01	1.00	11.710	99.000	0.6119	11.6
1052	AB07CD0350	WETLAND SAL01	SALINE (FEN)	56.573903999999998859493643976747989654541015625	-111.277773999999993748133420012891292572021484375	HOBO Rain Gauge Data Logger - RG3	HOBO Temperature/RH Smart Sensor (S-THB-M002)	Soil Moisture Smart Sensor - EC5 (S-SMC-M005)	2019-06-24T07:00:01	0.20	11.880	99.000	0.6119	11.7
1053	AB07CD0350	WETLAND SAL01	SALINE (FEN)	56.573903999999998859493643976747989654541015625	-111.277773999999993748133420012891292572021484375	HOBO Rain Gauge Data Logger - RG3	HOBO Temperature/RH Smart Sensor (S-THB-M002)	Soil Moisture Smart Sensor - EC5 (S-SMC-M005)	2019-06-24T08:00:01	1.00	11.856	98.900	0.6111	11.7
1054	AB07CD0350	WETLAND SAL01	SALINE (FEN)	56.573903999999998859493643976747989654541015625	-111.277773999999993748133420012891292572021484375	HOBO Rain Gauge Data Logger - RG3	HOBO Temperature/RH Smart Sensor (S-THB-M002)	Soil Moisture Smart Sensor - EC5 (S-SMC-M005)	2019-06-24T09:00:01	2.20	12.025	99.200	0.6119	11.9
1055	AB07CD0350	WETLAND SAL01	SALINE (FEN)	56.573903999999998859493643976747989654541015625	-111.277773999999993748133420012891292572021484375	HOBO Rain Gauge Data Logger - RG3	HOBO Temperature/RH Smart Sensor (S-THB-M002)	Soil Moisture Smart Sensor - EC5 (S-SMC-M005)	2019-06-24T10:00:01	0.80	12.364	99.100	0.6111	12.2
1056	AB07CD0350	WETLAND SAL01	SALINE (FEN)	56.573903999999998859493643976747989654541015625	-111.277773999999993748133420012891292572021484375	HOBO Rain Gauge Data Logger - RG3	HOBO Temperature/RH Smart Sensor (S-THB-M002)	Soil Moisture Smart Sensor - EC5 (S-SMC-M005)	2019-06-24T11:00:01	0.00	13.954	96.800	0.6111	13.5
1057	AB07CD0350	WETLAND SAL01	SALINE (FEN)	56.573903999999998859493643976747989654541015625	-111.277773999999993748133420012891292572021484375	HOBO Rain Gauge Data Logger - RG3	HOBO Temperature/RH Smart Sensor (S-THB-M002)	Soil Moisture Smart Sensor - EC5 (S-SMC-M005)	2019-06-24T12:00:01	0.00	13.762	92.300	0.6111	12.6
1058	AB07CD0350	WETLAND SAL01	SALINE (FEN)	56.573903999999998859493643976747989654541015625	-111.277773999999993748133420012891292572021484375	HOBO Rain Gauge Data Logger - RG3	HOBO Temperature/RH Smart Sensor (S-THB-M002)	Soil Moisture Smart Sensor - EC5 (S-SMC-M005)	2019-06-24T13:00:01	0.00	15.986	88.800	0.6111	14.2
1059	AB07CD0350	WETLAND SAL01	SALINE (FEN)	56.573903999999998859493643976747989654541015625	-111.277773999999993748133420012891292572021484375	HOBO Rain Gauge Data Logger - RG3	HOBO Temperature/RH Smart Sensor (S-THB-M002)	Soil Moisture Smart Sensor - EC5 (S-SMC-M005)	2019-06-24T14:00:01	0.00	15.891	84.200	0.6104	13.2
1060	AB07CD0350	WETLAND SAL01	SALINE (FEN)	56.573903999999998859493643976747989654541015625	-111.277773999999993748133420012891292572021484375	HOBO Rain Gauge Data Logger - RG3	HOBO Temperature/RH Smart Sensor (S-THB-M002)	Soil Moisture Smart Sensor - EC5 (S-SMC-M005)	2019-06-24T15:00:01	0.00	15.557	82.600	0.6104	12.6
1061	AB07CD0350	WETLAND SAL01	SALINE (FEN)	56.573903999999998859493643976747989654541015625	-111.277773999999993748133420012891292572021484375	HOBO Rain Gauge Data Logger - RG3	HOBO Temperature/RH Smart Sensor (S-THB-M002)	Soil Moisture Smart Sensor - EC5 (S-SMC-M005)	2019-06-24T16:00:01	0.00	15.533	80.500	0.6104	12.2
1062	AB07CD0350	WETLAND SAL01	SALINE (FEN)	56.573903999999998859493643976747989654541015625	-111.277773999999993748133420012891292572021484375	HOBO Rain Gauge Data Logger - RG3	HOBO Temperature/RH Smart Sensor (S-THB-M002)	Soil Moisture Smart Sensor - EC5 (S-SMC-M005)	2019-06-24T17:00:01	0.00	15.772	77.700	0.6104	11.9
1063	AB07CD0350	WETLAND SAL01	SALINE (FEN)	56.573903999999998859493643976747989654541015625	-111.277773999999993748133420012891292572021484375	HOBO Rain Gauge Data Logger - RG3	HOBO Temperature/RH Smart Sensor (S-THB-M002)	Soil Moisture Smart Sensor - EC5 (S-SMC-M005)	2019-06-24T18:00:01	0.00	16.344	73.200	0.6104	11.6
1064	AB07CD0350	WETLAND SAL01	SALINE (FEN)	56.573903999999998859493643976747989654541015625	-111.277773999999993748133420012891292572021484375	HOBO Rain Gauge Data Logger - RG3	HOBO Temperature/RH Smart Sensor (S-THB-M002)	Soil Moisture Smart Sensor - EC5 (S-SMC-M005)	2019-06-24T19:00:01	0.00	16.225	73.100	0.6104	11.4
1065	AB07CD0350	WETLAND SAL01	SALINE (FEN)	56.573903999999998859493643976747989654541015625	-111.277773999999993748133420012891292572021484375	HOBO Rain Gauge Data Logger - RG3	HOBO Temperature/RH Smart Sensor (S-THB-M002)	Soil Moisture Smart Sensor - EC5 (S-SMC-M005)	2019-06-24T20:00:01	0.00	17.415	68.500	0.6104	11.6
1066	AB07CD0350	WETLAND SAL01	SALINE (FEN)	56.573903999999998859493643976747989654541015625	-111.277773999999993748133420012891292572021484375	HOBO Rain Gauge Data Logger - RG3	HOBO Temperature/RH Smart Sensor (S-THB-M002)	Soil Moisture Smart Sensor - EC5 (S-SMC-M005)	2019-06-24T21:00:01	0.00	16.415	69.900	0.6104	10.9
1067	AB07CD0350	WETLAND SAL01	SALINE (FEN)	56.573903999999998859493643976747989654541015625	-111.277773999999993748133420012891292572021484375	HOBO Rain Gauge Data Logger - RG3	HOBO Temperature/RH Smart Sensor (S-THB-M002)	Soil Moisture Smart Sensor - EC5 (S-SMC-M005)	2019-06-24T22:00:01	0.00	14.314	74.900	0.6104	9.9
1068	AB07CD0350	WETLAND SAL01	SALINE (FEN)	56.573903999999998859493643976747989654541015625	-111.277773999999993748133420012891292572021484375	HOBO Rain Gauge Data Logger - RG3	HOBO Temperature/RH Smart Sensor (S-THB-M002)	Soil Moisture Smart Sensor - EC5 (S-SMC-M005)	2019-06-24T23:00:01	0.00	10.932	82.400	0.6104	8.1
1069	AB07CD0350	WETLAND SAL01	SALINE (FEN)	56.573903999999998859493643976747989654541015625	-111.277773999999993748133420012891292572021484375	HOBO Rain Gauge Data Logger - RG3	HOBO Temperature/RH Smart Sensor (S-THB-M002)	Soil Moisture Smart Sensor - EC5 (S-SMC-M005)	2019-06-25T00:00:01	0.00	7.343	91.300	0.6104	6.0
1070	AB07CD0350	WETLAND SAL01	SALINE (FEN)	56.573903999999998859493643976747989654541015625	-111.277773999999993748133420012891292572021484375	HOBO Rain Gauge Data Logger - RG3	HOBO Temperature/RH Smart Sensor (S-THB-M002)	Soil Moisture Smart Sensor - EC5 (S-SMC-M005)	2019-06-25T01:00:01	0.00	5.411	95.100	0.6111	4.7
1071	AB07CD0350	WETLAND SAL01	SALINE (FEN)	56.573903999999998859493643976747989654541015625	-111.277773999999993748133420012891292572021484375	HOBO Rain Gauge Data Logger - RG3	HOBO Temperature/RH Smart Sensor (S-THB-M002)	Soil Moisture Smart Sensor - EC5 (S-SMC-M005)	2019-06-25T02:00:01	0.00	7.268	96.300	0.6111	6.7
1072	AB07CD0350	WETLAND SAL01	SALINE (FEN)	56.573903999999998859493643976747989654541015625	-111.277773999999993748133420012891292572021484375	HOBO Rain Gauge Data Logger - RG3	HOBO Temperature/RH Smart Sensor (S-THB-M002)	Soil Moisture Smart Sensor - EC5 (S-SMC-M005)	2019-06-25T03:00:01	0.00	8.095	96.700	0.6111	7.6
1073	AB07CD0350	WETLAND SAL01	SALINE (FEN)	56.573903999999998859493643976747989654541015625	-111.277773999999993748133420012891292572021484375	HOBO Rain Gauge Data Logger - RG3	HOBO Temperature/RH Smart Sensor (S-THB-M002)	Soil Moisture Smart Sensor - EC5 (S-SMC-M005)	2019-06-25T04:00:01	0.00	7.945	97.400	0.6111	7.6
1074	AB07CD0350	WETLAND SAL01	SALINE (FEN)	56.573903999999998859493643976747989654541015625	-111.277773999999993748133420012891292572021484375	HOBO Rain Gauge Data Logger - RG3	HOBO Temperature/RH Smart Sensor (S-THB-M002)	Soil Moisture Smart Sensor - EC5 (S-SMC-M005)	2019-06-25T05:00:01	0.00	8.668	97.900	0.6111	8.4
1075	AB07CD0350	WETLAND SAL01	SALINE (FEN)	56.573903999999998859493643976747989654541015625	-111.277773999999993748133420012891292572021484375	HOBO Rain Gauge Data Logger - RG3	HOBO Temperature/RH Smart Sensor (S-THB-M002)	Soil Moisture Smart Sensor - EC5 (S-SMC-M005)	2019-06-25T06:00:01	0.00	10.687	97.100	0.6104	10.3
1076	AB07CD0350	WETLAND SAL01	SALINE (FEN)	56.573903999999998859493643976747989654541015625	-111.277773999999993748133420012891292572021484375	HOBO Rain Gauge Data Logger - RG3	HOBO Temperature/RH Smart Sensor (S-THB-M002)	Soil Moisture Smart Sensor - EC5 (S-SMC-M005)	2019-06-25T07:00:01	0.00	13.329	91.200	0.6111	11.9
1077	AB07CD0350	WETLAND SAL01	SALINE (FEN)	56.573903999999998859493643976747989654541015625	-111.277773999999993748133420012891292572021484375	HOBO Rain Gauge Data Logger - RG3	HOBO Temperature/RH Smart Sensor (S-THB-M002)	Soil Moisture Smart Sensor - EC5 (S-SMC-M005)	2019-06-25T08:00:01	0.00	14.577	87.500	0.6104	12.5
1078	AB07CD0350	WETLAND SAL01	SALINE (FEN)	56.573903999999998859493643976747989654541015625	-111.277773999999993748133420012891292572021484375	HOBO Rain Gauge Data Logger - RG3	HOBO Temperature/RH Smart Sensor (S-THB-M002)	Soil Moisture Smart Sensor - EC5 (S-SMC-M005)	2019-06-25T09:00:01	0.00	15.819	81.100	0.6104	12.6
1079	AB07CD0350	WETLAND SAL01	SALINE (FEN)	56.573903999999998859493643976747989654541015625	-111.277773999999993748133420012891292572021484375	HOBO Rain Gauge Data Logger - RG3	HOBO Temperature/RH Smart Sensor (S-THB-M002)	Soil Moisture Smart Sensor - EC5 (S-SMC-M005)	2019-06-25T10:00:01	0.00	17.748	73.900	0.6104	13.1
1080	AB07CD0350	WETLAND SAL01	SALINE (FEN)	56.573903999999998859493643976747989654541015625	-111.277773999999993748133420012891292572021484375	HOBO Rain Gauge Data Logger - RG3	HOBO Temperature/RH Smart Sensor (S-THB-M002)	Soil Moisture Smart Sensor - EC5 (S-SMC-M005)	2019-06-25T11:00:01	0.00	18.485	67.600	0.6104	12.4
1081	AB07CD0350	WETLAND SAL01	SALINE (FEN)	56.573903999999998859493643976747989654541015625	-111.277773999999993748133420012891292572021484375	HOBO Rain Gauge Data Logger - RG3	HOBO Temperature/RH Smart Sensor (S-THB-M002)	Soil Moisture Smart Sensor - EC5 (S-SMC-M005)	2019-06-25T12:00:01	0.00	19.341	63.900	0.6104	12.4
1082	AB07CD0350	WETLAND SAL01	SALINE (FEN)	56.573903999999998859493643976747989654541015625	-111.277773999999993748133420012891292572021484375	HOBO Rain Gauge Data Logger - RG3	HOBO Temperature/RH Smart Sensor (S-THB-M002)	Soil Moisture Smart Sensor - EC5 (S-SMC-M005)	2019-06-25T13:00:01	0.00	20.603	55.800	0.6104	11.5
1083	AB07CD0350	WETLAND SAL01	SALINE (FEN)	56.573903999999998859493643976747989654541015625	-111.277773999999993748133420012891292572021484375	HOBO Rain Gauge Data Logger - RG3	HOBO Temperature/RH Smart Sensor (S-THB-M002)	Soil Moisture Smart Sensor - EC5 (S-SMC-M005)	2019-06-25T14:00:01	0.00	21.652	50.700	0.6104	11.0
1084	AB07CD0350	WETLAND SAL01	SALINE (FEN)	56.573903999999998859493643976747989654541015625	-111.277773999999993748133420012891292572021484375	HOBO Rain Gauge Data Logger - RG3	HOBO Temperature/RH Smart Sensor (S-THB-M002)	Soil Moisture Smart Sensor - EC5 (S-SMC-M005)	2019-06-25T15:00:01	0.00	20.698	46.200	0.6104	8.7
1085	AB07CD0350	WETLAND SAL01	SALINE (FEN)	56.573903999999998859493643976747989654541015625	-111.277773999999993748133420012891292572021484375	HOBO Rain Gauge Data Logger - RG3	HOBO Temperature/RH Smart Sensor (S-THB-M002)	Soil Moisture Smart Sensor - EC5 (S-SMC-M005)	2019-06-25T16:00:01	0.00	22.369	43.900	0.6097	9.5
1086	AB07CD0350	WETLAND SAL01	SALINE (FEN)	56.573903999999998859493643976747989654541015625	-111.277773999999993748133420012891292572021484375	HOBO Rain Gauge Data Logger - RG3	HOBO Temperature/RH Smart Sensor (S-THB-M002)	Soil Moisture Smart Sensor - EC5 (S-SMC-M005)	2019-06-25T17:00:01	0.00	22.872	42.200	0.6097	9.4
1087	AB07CD0350	WETLAND SAL01	SALINE (FEN)	56.573903999999998859493643976747989654541015625	-111.277773999999993748133420012891292572021484375	HOBO Rain Gauge Data Logger - RG3	HOBO Temperature/RH Smart Sensor (S-THB-M002)	Soil Moisture Smart Sensor - EC5 (S-SMC-M005)	2019-06-25T18:00:01	0.00	21.795	40.200	0.6104	7.7
1088	AB07CD0350	WETLAND SAL01	SALINE (FEN)	56.573903999999998859493643976747989654541015625	-111.277773999999993748133420012891292572021484375	HOBO Rain Gauge Data Logger - RG3	HOBO Temperature/RH Smart Sensor (S-THB-M002)	Soil Moisture Smart Sensor - EC5 (S-SMC-M005)	2019-06-25T19:00:01	0.00	22.058	37.900	0.6104	7.1
1089	AB07CD0350	WETLAND SAL01	SALINE (FEN)	56.573903999999998859493643976747989654541015625	-111.277773999999993748133420012891292572021484375	HOBO Rain Gauge Data Logger - RG3	HOBO Temperature/RH Smart Sensor (S-THB-M002)	Soil Moisture Smart Sensor - EC5 (S-SMC-M005)	2019-06-25T20:00:01	0.00	21.390	37.400	0.6104	6.3
1090	AB07CD0350	WETLAND SAL01	SALINE (FEN)	56.573903999999998859493643976747989654541015625	-111.277773999999993748133420012891292572021484375	HOBO Rain Gauge Data Logger - RG3	HOBO Temperature/RH Smart Sensor (S-THB-M002)	Soil Moisture Smart Sensor - EC5 (S-SMC-M005)	2019-06-25T21:00:01	0.00	19.318	38.400	0.6104	4.8
1091	AB07CD0350	WETLAND SAL01	SALINE (FEN)	56.573903999999998859493643976747989654541015625	-111.277773999999993748133420012891292572021484375	HOBO Rain Gauge Data Logger - RG3	HOBO Temperature/RH Smart Sensor (S-THB-M002)	Soil Moisture Smart Sensor - EC5 (S-SMC-M005)	2019-06-25T22:00:01	0.00	14.290	49.800	0.6104	4.0
1092	AB07CD0350	WETLAND SAL01	SALINE (FEN)	56.573903999999998859493643976747989654541015625	-111.277773999999993748133420012891292572021484375	HOBO Rain Gauge Data Logger - RG3	HOBO Temperature/RH Smart Sensor (S-THB-M002)	Soil Moisture Smart Sensor - EC5 (S-SMC-M005)	2019-06-25T23:00:01	0.00	9.952	70.600	0.6104	4.9
1093	AB07CD0350	WETLAND SAL01	SALINE (FEN)	56.573903999999998859493643976747989654541015625	-111.277773999999993748133420012891292572021484375	HOBO Rain Gauge Data Logger - RG3	HOBO Temperature/RH Smart Sensor (S-THB-M002)	Soil Moisture Smart Sensor - EC5 (S-SMC-M005)	2019-06-26T00:00:01	0.00	10.663	77.600	0.6104	6.9
1094	AB07CD0350	WETLAND SAL01	SALINE (FEN)	56.573903999999998859493643976747989654541015625	-111.277773999999993748133420012891292572021484375	HOBO Rain Gauge Data Logger - RG3	HOBO Temperature/RH Smart Sensor (S-THB-M002)	Soil Moisture Smart Sensor - EC5 (S-SMC-M005)	2019-06-26T01:00:01	0.00	8.394	84.500	0.6111	5.9
1095	AB07CD0350	WETLAND SAL01	SALINE (FEN)	56.573903999999998859493643976747989654541015625	-111.277773999999993748133420012891292572021484375	HOBO Rain Gauge Data Logger - RG3	HOBO Temperature/RH Smart Sensor (S-THB-M002)	Soil Moisture Smart Sensor - EC5 (S-SMC-M005)	2019-06-26T02:00:01	0.00	5.924	89.300	0.6104	4.3
1096	AB07CD0350	WETLAND SAL01	SALINE (FEN)	56.573903999999998859493643976747989654541015625	-111.277773999999993748133420012891292572021484375	HOBO Rain Gauge Data Logger - RG3	HOBO Temperature/RH Smart Sensor (S-THB-M002)	Soil Moisture Smart Sensor - EC5 (S-SMC-M005)	2019-06-26T03:00:01	0.00	4.895	92.200	0.6104	3.7
1097	AB07CD0350	WETLAND SAL01	SALINE (FEN)	56.573903999999998859493643976747989654541015625	-111.277773999999993748133420012891292572021484375	HOBO Rain Gauge Data Logger - RG3	HOBO Temperature/RH Smart Sensor (S-THB-M002)	Soil Moisture Smart Sensor - EC5 (S-SMC-M005)	2019-06-26T04:00:01	0.00	3.168	94.000	0.6111	2.3
1098	AB07CD0350	WETLAND SAL01	SALINE (FEN)	56.573903999999998859493643976747989654541015625	-111.277773999999993748133420012891292572021484375	HOBO Rain Gauge Data Logger - RG3	HOBO Temperature/RH Smart Sensor (S-THB-M002)	Soil Moisture Smart Sensor - EC5 (S-SMC-M005)	2019-06-26T05:00:01	0.40	4.324	95.500	0.6104	3.7
1099	AB07CD0350	WETLAND SAL01	SALINE (FEN)	56.573903999999998859493643976747989654541015625	-111.277773999999993748133420012891292572021484375	HOBO Rain Gauge Data Logger - RG3	HOBO Temperature/RH Smart Sensor (S-THB-M002)	Soil Moisture Smart Sensor - EC5 (S-SMC-M005)	2019-06-26T06:00:01	0.00	7.066	95.900	0.6111	6.5
1100	AB07CD0350	WETLAND SAL01	SALINE (FEN)	56.573903999999998859493643976747989654541015625	-111.277773999999993748133420012891292572021484375	HOBO Rain Gauge Data Logger - RG3	HOBO Temperature/RH Smart Sensor (S-THB-M002)	Soil Moisture Smart Sensor - EC5 (S-SMC-M005)	2019-06-26T07:00:01	0.00	12.582	89.000	0.6111	10.8
1101	AB07CD0350	WETLAND SAL01	SALINE (FEN)	56.573903999999998859493643976747989654541015625	-111.277773999999993748133420012891292572021484375	HOBO Rain Gauge Data Logger - RG3	HOBO Temperature/RH Smart Sensor (S-THB-M002)	Soil Moisture Smart Sensor - EC5 (S-SMC-M005)	2019-06-26T08:00:01	0.00	14.721	78.100	0.6111	11.0
1102	AB07CD0350	WETLAND SAL01	SALINE (FEN)	56.573903999999998859493643976747989654541015625	-111.277773999999993748133420012891292572021484375	HOBO Rain Gauge Data Logger - RG3	HOBO Temperature/RH Smart Sensor (S-THB-M002)	Soil Moisture Smart Sensor - EC5 (S-SMC-M005)	2019-06-26T09:00:01	0.00	16.225	71.500	0.6104	11.1
1103	AB07CD0350	WETLAND SAL01	SALINE (FEN)	56.573903999999998859493643976747989654541015625	-111.277773999999993748133420012891292572021484375	HOBO Rain Gauge Data Logger - RG3	HOBO Temperature/RH Smart Sensor (S-THB-M002)	Soil Moisture Smart Sensor - EC5 (S-SMC-M005)	2019-06-26T10:00:01	0.00	17.034	67.300	0.6111	10.9
1104	AB07CD0350	WETLAND SAL01	SALINE (FEN)	56.573903999999998859493643976747989654541015625	-111.277773999999993748133420012891292572021484375	HOBO Rain Gauge Data Logger - RG3	HOBO Temperature/RH Smart Sensor (S-THB-M002)	Soil Moisture Smart Sensor - EC5 (S-SMC-M005)	2019-06-26T11:00:01	0.00	18.699	63.500	0.6104	11.7
1105	AB07CD0350	WETLAND SAL01	SALINE (FEN)	56.573903999999998859493643976747989654541015625	-111.277773999999993748133420012891292572021484375	HOBO Rain Gauge Data Logger - RG3	HOBO Temperature/RH Smart Sensor (S-THB-M002)	Soil Moisture Smart Sensor - EC5 (S-SMC-M005)	2019-06-26T12:00:01	0.00	20.365	59.400	0.6104	12.2
1106	AB07CD0350	WETLAND SAL01	SALINE (FEN)	56.573903999999998859493643976747989654541015625	-111.277773999999993748133420012891292572021484375	HOBO Rain Gauge Data Logger - RG3	HOBO Temperature/RH Smart Sensor (S-THB-M002)	Soil Moisture Smart Sensor - EC5 (S-SMC-M005)	2019-06-26T13:00:01	0.00	20.388	53.400	0.6104	10.6
1107	AB07CD0350	WETLAND SAL01	SALINE (FEN)	56.573903999999998859493643976747989654541015625	-111.277773999999993748133420012891292572021484375	HOBO Rain Gauge Data Logger - RG3	HOBO Temperature/RH Smart Sensor (S-THB-M002)	Soil Moisture Smart Sensor - EC5 (S-SMC-M005)	2019-06-26T14:00:01	0.00	21.557	48.600	0.6104	10.3
1108	AB07CD0350	WETLAND SAL01	SALINE (FEN)	56.573903999999998859493643976747989654541015625	-111.277773999999993748133420012891292572021484375	HOBO Rain Gauge Data Logger - RG3	HOBO Temperature/RH Smart Sensor (S-THB-M002)	Soil Moisture Smart Sensor - EC5 (S-SMC-M005)	2019-06-26T15:00:01	0.00	21.891	42.800	0.6104	8.7
1109	AB07CD0350	WETLAND SAL01	SALINE (FEN)	56.573903999999998859493643976747989654541015625	-111.277773999999993748133420012891292572021484375	HOBO Rain Gauge Data Logger - RG3	HOBO Temperature/RH Smart Sensor (S-THB-M002)	Soil Moisture Smart Sensor - EC5 (S-SMC-M005)	2019-06-26T16:00:01	0.00	22.178	37.100	0.6104	6.9
1110	AB07CD0350	WETLAND SAL01	SALINE (FEN)	56.573903999999998859493643976747989654541015625	-111.277773999999993748133420012891292572021484375	HOBO Rain Gauge Data Logger - RG3	HOBO Temperature/RH Smart Sensor (S-THB-M002)	Soil Moisture Smart Sensor - EC5 (S-SMC-M005)	2019-06-26T17:00:01	0.00	22.369	38.200	0.6104	7.5
1111	AB07CD0350	WETLAND SAL01	SALINE (FEN)	56.573903999999998859493643976747989654541015625	-111.277773999999993748133420012891292572021484375	HOBO Rain Gauge Data Logger - RG3	HOBO Temperature/RH Smart Sensor (S-THB-M002)	Soil Moisture Smart Sensor - EC5 (S-SMC-M005)	2019-06-26T18:00:01	0.00	22.130	39.000	0.6104	7.5
1112	AB07CD0350	WETLAND SAL01	SALINE (FEN)	56.573903999999998859493643976747989654541015625	-111.277773999999993748133420012891292572021484375	HOBO Rain Gauge Data Logger - RG3	HOBO Temperature/RH Smart Sensor (S-THB-M002)	Soil Moisture Smart Sensor - EC5 (S-SMC-M005)	2019-06-26T19:00:01	0.00	22.058	40.500	0.6104	8.0
1113	AB07CD0350	WETLAND SAL01	SALINE (FEN)	56.573903999999998859493643976747989654541015625	-111.277773999999993748133420012891292572021484375	HOBO Rain Gauge Data Logger - RG3	HOBO Temperature/RH Smart Sensor (S-THB-M002)	Soil Moisture Smart Sensor - EC5 (S-SMC-M005)	2019-06-26T20:00:01	0.00	20.984	42.600	0.6104	7.8
1114	AB07CD0350	WETLAND SAL01	SALINE (FEN)	56.573903999999998859493643976747989654541015625	-111.277773999999993748133420012891292572021484375	HOBO Rain Gauge Data Logger - RG3	HOBO Temperature/RH Smart Sensor (S-THB-M002)	Soil Moisture Smart Sensor - EC5 (S-SMC-M005)	2019-06-26T21:00:01	0.00	19.341	46.600	0.6104	7.6
1115	AB07CD0350	WETLAND SAL01	SALINE (FEN)	56.573903999999998859493643976747989654541015625	-111.277773999999993748133420012891292572021484375	HOBO Rain Gauge Data Logger - RG3	HOBO Temperature/RH Smart Sensor (S-THB-M002)	Soil Moisture Smart Sensor - EC5 (S-SMC-M005)	2019-06-26T22:00:01	0.00	16.249	52.600	0.6104	6.6
1116	AB07CD0350	WETLAND SAL01	SALINE (FEN)	56.573903999999998859493643976747989654541015625	-111.277773999999993748133420012891292572021484375	HOBO Rain Gauge Data Logger - RG3	HOBO Temperature/RH Smart Sensor (S-THB-M002)	Soil Moisture Smart Sensor - EC5 (S-SMC-M005)	2019-06-26T23:00:01	0.00	13.834	61.700	0.6111	6.6
1117	AB07CD0350	WETLAND SAL01	SALINE (FEN)	56.573903999999998859493643976747989654541015625	-111.277773999999993748133420012891292572021484375	HOBO Rain Gauge Data Logger - RG3	HOBO Temperature/RH Smart Sensor (S-THB-M002)	Soil Moisture Smart Sensor - EC5 (S-SMC-M005)	2019-06-27T00:00:01	0.00	8.045	75.800	0.6111	4.0
1118	AB07CD0350	WETLAND SAL01	SALINE (FEN)	56.573903999999998859493643976747989654541015625	-111.277773999999993748133420012891292572021484375	HOBO Rain Gauge Data Logger - RG3	HOBO Temperature/RH Smart Sensor (S-THB-M002)	Soil Moisture Smart Sensor - EC5 (S-SMC-M005)	2019-06-27T01:00:01	0.00	5.975	85.600	0.6111	3.8
1119	AB07CD0350	WETLAND SAL01	SALINE (FEN)	56.573903999999998859493643976747989654541015625	-111.277773999999993748133420012891292572021484375	HOBO Rain Gauge Data Logger - RG3	HOBO Temperature/RH Smart Sensor (S-THB-M002)	Soil Moisture Smart Sensor - EC5 (S-SMC-M005)	2019-06-27T02:00:01	0.00	4.999	89.800	0.6111	3.5
1120	AB07CD0350	WETLAND SAL01	SALINE (FEN)	56.573903999999998859493643976747989654541015625	-111.277773999999993748133420012891292572021484375	HOBO Rain Gauge Data Logger - RG3	HOBO Temperature/RH Smart Sensor (S-THB-M002)	Soil Moisture Smart Sensor - EC5 (S-SMC-M005)	2019-06-27T03:00:01	0.00	4.766	93.100	0.6111	3.7
1121	AB07CD0350	WETLAND SAL01	SALINE (FEN)	56.573903999999998859493643976747989654541015625	-111.277773999999993748133420012891292572021484375	HOBO Rain Gauge Data Logger - RG3	HOBO Temperature/RH Smart Sensor (S-THB-M002)	Soil Moisture Smart Sensor - EC5 (S-SMC-M005)	2019-06-27T04:00:01	0.00	3.089	93.900	0.6111	2.2
1122	AB07CD0350	WETLAND SAL01	SALINE (FEN)	56.573903999999998859493643976747989654541015625	-111.277773999999993748133420012891292572021484375	HOBO Rain Gauge Data Logger - RG3	HOBO Temperature/RH Smart Sensor (S-THB-M002)	Soil Moisture Smart Sensor - EC5 (S-SMC-M005)	2019-06-27T05:00:01	0.00	3.696	94.800	0.6111	2.9
1123	AB07CD0350	WETLAND SAL01	SALINE (FEN)	56.573903999999998859493643976747989654541015625	-111.277773999999993748133420012891292572021484375	HOBO Rain Gauge Data Logger - RG3	HOBO Temperature/RH Smart Sensor (S-THB-M002)	Soil Moisture Smart Sensor - EC5 (S-SMC-M005)	2019-06-27T06:00:01	0.00	7.469	95.000	0.6111	6.7
1124	AB07CD0350	WETLAND SAL01	SALINE (FEN)	56.573903999999998859493643976747989654541015625	-111.277773999999993748133420012891292572021484375	HOBO Rain Gauge Data Logger - RG3	HOBO Temperature/RH Smart Sensor (S-THB-M002)	Soil Moisture Smart Sensor - EC5 (S-SMC-M005)	2019-06-27T07:00:01	0.00	12.775	87.700	0.6111	10.8
1125	AB07CD0350	WETLAND SAL01	SALINE (FEN)	56.573903999999998859493643976747989654541015625	-111.277773999999993748133420012891292572021484375	HOBO Rain Gauge Data Logger - RG3	HOBO Temperature/RH Smart Sensor (S-THB-M002)	Soil Moisture Smart Sensor - EC5 (S-SMC-M005)	2019-06-27T08:00:01	0.00	16.439	75.800	0.6111	12.2
1126	AB07CD0350	WETLAND SAL01	SALINE (FEN)	56.573903999999998859493643976747989654541015625	-111.277773999999993748133420012891292572021484375	HOBO Rain Gauge Data Logger - RG3	HOBO Temperature/RH Smart Sensor (S-THB-M002)	Soil Moisture Smart Sensor - EC5 (S-SMC-M005)	2019-06-27T09:00:01	0.00	18.152	65.000	0.6111	11.5
1127	AB07CD0350	WETLAND SAL01	SALINE (FEN)	56.573903999999998859493643976747989654541015625	-111.277773999999993748133420012891292572021484375	HOBO Rain Gauge Data Logger - RG3	HOBO Temperature/RH Smart Sensor (S-THB-M002)	Soil Moisture Smart Sensor - EC5 (S-SMC-M005)	2019-06-27T10:00:01	0.00	20.246	60.300	0.6111	12.3
1128	AB07CD0350	WETLAND SAL01	SALINE (FEN)	56.573903999999998859493643976747989654541015625	-111.277773999999993748133420012891292572021484375	HOBO Rain Gauge Data Logger - RG3	HOBO Temperature/RH Smart Sensor (S-THB-M002)	Soil Moisture Smart Sensor - EC5 (S-SMC-M005)	2019-06-27T11:00:01	0.00	20.865	53.300	0.6111	11.0
1129	AB07CD0350	WETLAND SAL01	SALINE (FEN)	56.573903999999998859493643976747989654541015625	-111.277773999999993748133420012891292572021484375	HOBO Rain Gauge Data Logger - RG3	HOBO Temperature/RH Smart Sensor (S-THB-M002)	Soil Moisture Smart Sensor - EC5 (S-SMC-M005)	2019-06-27T12:00:01	0.00	21.676	52.100	0.6111	11.4
1130	AB07CD0350	WETLAND SAL01	SALINE (FEN)	56.573903999999998859493643976747989654541015625	-111.277773999999993748133420012891292572021484375	HOBO Rain Gauge Data Logger - RG3	HOBO Temperature/RH Smart Sensor (S-THB-M002)	Soil Moisture Smart Sensor - EC5 (S-SMC-M005)	2019-06-27T13:00:01	0.00	22.657	50.500	0.6111	11.9
1131	AB07CD0350	WETLAND SAL01	SALINE (FEN)	56.573903999999998859493643976747989654541015625	-111.277773999999993748133420012891292572021484375	HOBO Rain Gauge Data Logger - RG3	HOBO Temperature/RH Smart Sensor (S-THB-M002)	Soil Moisture Smart Sensor - EC5 (S-SMC-M005)	2019-06-27T14:00:01	0.00	23.905	46.900	0.6104	11.9
1132	AB07CD0350	WETLAND SAL01	SALINE (FEN)	56.573903999999998859493643976747989654541015625	-111.277773999999993748133420012891292572021484375	HOBO Rain Gauge Data Logger - RG3	HOBO Temperature/RH Smart Sensor (S-THB-M002)	Soil Moisture Smart Sensor - EC5 (S-SMC-M005)	2019-06-27T15:00:01	0.00	24.508	42.500	0.6104	11.0
1133	AB07CD0350	WETLAND SAL01	SALINE (FEN)	56.573903999999998859493643976747989654541015625	-111.277773999999993748133420012891292572021484375	HOBO Rain Gauge Data Logger - RG3	HOBO Temperature/RH Smart Sensor (S-THB-M002)	Soil Moisture Smart Sensor - EC5 (S-SMC-M005)	2019-06-27T16:00:01	0.00	23.737	40.700	0.6104	9.6
1134	AB07CD0350	WETLAND SAL01	SALINE (FEN)	56.573903999999998859493643976747989654541015625	-111.277773999999993748133420012891292572021484375	HOBO Rain Gauge Data Logger - RG3	HOBO Temperature/RH Smart Sensor (S-THB-M002)	Soil Moisture Smart Sensor - EC5 (S-SMC-M005)	2019-06-27T17:00:01	0.00	24.944	39.300	0.6104	10.2
1135	AB07CD0350	WETLAND SAL01	SALINE (FEN)	56.573903999999998859493643976747989654541015625	-111.277773999999993748133420012891292572021484375	HOBO Rain Gauge Data Logger - RG3	HOBO Temperature/RH Smart Sensor (S-THB-M002)	Soil Moisture Smart Sensor - EC5 (S-SMC-M005)	2019-06-27T18:00:01	0.00	22.298	40.300	0.6111	8.2
1136	AB07CD0350	WETLAND SAL01	SALINE (FEN)	56.573903999999998859493643976747989654541015625	-111.277773999999993748133420012891292572021484375	HOBO Rain Gauge Data Logger - RG3	HOBO Temperature/RH Smart Sensor (S-THB-M002)	Soil Moisture Smart Sensor - EC5 (S-SMC-M005)	2019-06-27T19:00:01	0.00	22.393	42.200	0.6104	8.9
1137	AB07CD0350	WETLAND SAL01	SALINE (FEN)	56.573903999999998859493643976747989654541015625	-111.277773999999993748133420012891292572021484375	HOBO Rain Gauge Data Logger - RG3	HOBO Temperature/RH Smart Sensor (S-THB-M002)	Soil Moisture Smart Sensor - EC5 (S-SMC-M005)	2019-06-27T20:00:01	0.00	20.770	50.200	0.6111	10.0
1138	AB07CD0350	WETLAND SAL01	SALINE (FEN)	56.573903999999998859493643976747989654541015625	-111.277773999999993748133420012891292572021484375	HOBO Rain Gauge Data Logger - RG3	HOBO Temperature/RH Smart Sensor (S-THB-M002)	Soil Moisture Smart Sensor - EC5 (S-SMC-M005)	2019-06-27T21:00:01	0.00	17.486	63.000	0.6111	10.4
1139	AB07CD0350	WETLAND SAL01	SALINE (FEN)	56.573903999999998859493643976747989654541015625	-111.277773999999993748133420012891292572021484375	HOBO Rain Gauge Data Logger - RG3	HOBO Temperature/RH Smart Sensor (S-THB-M002)	Soil Moisture Smart Sensor - EC5 (S-SMC-M005)	2019-06-27T22:00:01	0.00	15.652	64.700	0.6111	9.0
1140	AB07CD0350	WETLAND SAL01	SALINE (FEN)	56.573903999999998859493643976747989654541015625	-111.277773999999993748133420012891292572021484375	HOBO Rain Gauge Data Logger - RG3	HOBO Temperature/RH Smart Sensor (S-THB-M002)	Soil Moisture Smart Sensor - EC5 (S-SMC-M005)	2019-06-27T23:00:01	0.00	13.257	73.800	0.6111	8.7
1141	AB07CD0350	WETLAND SAL01	SALINE (FEN)	56.573903999999998859493643976747989654541015625	-111.277773999999993748133420012891292572021484375	HOBO Rain Gauge Data Logger - RG3	HOBO Temperature/RH Smart Sensor (S-THB-M002)	Soil Moisture Smart Sensor - EC5 (S-SMC-M005)	2019-06-28T00:00:01	0.00	11.589	83.500	0.6111	8.9
1142	AB07CD0350	WETLAND SAL01	SALINE (FEN)	56.573903999999998859493643976747989654541015625	-111.277773999999993748133420012891292572021484375	HOBO Rain Gauge Data Logger - RG3	HOBO Temperature/RH Smart Sensor (S-THB-M002)	Soil Moisture Smart Sensor - EC5 (S-SMC-M005)	2019-06-28T01:00:01	0.00	14.050	81.200	0.6111	10.9
1143	AB07CD0350	WETLAND SAL01	SALINE (FEN)	56.573903999999998859493643976747989654541015625	-111.277773999999993748133420012891292572021484375	HOBO Rain Gauge Data Logger - RG3	HOBO Temperature/RH Smart Sensor (S-THB-M002)	Soil Moisture Smart Sensor - EC5 (S-SMC-M005)	2019-06-28T02:00:01	0.00	10.565	80.300	0.6111	7.3
1144	AB07CD0350	WETLAND SAL01	SALINE (FEN)	56.573903999999998859493643976747989654541015625	-111.277773999999993748133420012891292572021484375	HOBO Rain Gauge Data Logger - RG3	HOBO Temperature/RH Smart Sensor (S-THB-M002)	Soil Moisture Smart Sensor - EC5 (S-SMC-M005)	2019-06-28T03:00:01	0.00	7.970	89.500	0.6119	6.4
1145	AB07CD0350	WETLAND SAL01	SALINE (FEN)	56.573903999999998859493643976747989654541015625	-111.277773999999993748133420012891292572021484375	HOBO Rain Gauge Data Logger - RG3	HOBO Temperature/RH Smart Sensor (S-THB-M002)	Soil Moisture Smart Sensor - EC5 (S-SMC-M005)	2019-06-28T04:00:01	0.00	6.535	93.300	0.6119	5.5
1146	AB07CD0350	WETLAND SAL01	SALINE (FEN)	56.573903999999998859493643976747989654541015625	-111.277773999999993748133420012891292572021484375	HOBO Rain Gauge Data Logger - RG3	HOBO Temperature/RH Smart Sensor (S-THB-M002)	Soil Moisture Smart Sensor - EC5 (S-SMC-M005)	2019-06-28T05:00:01	0.00	10.492	93.700	0.6119	9.5
1147	AB07CD0350	WETLAND SAL01	SALINE (FEN)	56.573903999999998859493643976747989654541015625	-111.277773999999993748133420012891292572021484375	HOBO Rain Gauge Data Logger - RG3	HOBO Temperature/RH Smart Sensor (S-THB-M002)	Soil Moisture Smart Sensor - EC5 (S-SMC-M005)	2019-06-28T06:00:01	0.00	12.025	85.800	0.6119	9.7
1148	AB07CD0350	WETLAND SAL01	SALINE (FEN)	56.573903999999998859493643976747989654541015625	-111.277773999999993748133420012891292572021484375	HOBO Rain Gauge Data Logger - RG3	HOBO Temperature/RH Smart Sensor (S-THB-M002)	Soil Moisture Smart Sensor - EC5 (S-SMC-M005)	2019-06-28T07:00:01	0.00	12.944	83.300	0.6111	10.2
1149	AB07CD0350	WETLAND SAL01	SALINE (FEN)	56.573903999999998859493643976747989654541015625	-111.277773999999993748133420012891292572021484375	HOBO Rain Gauge Data Logger - RG3	HOBO Temperature/RH Smart Sensor (S-THB-M002)	Soil Moisture Smart Sensor - EC5 (S-SMC-M005)	2019-06-28T08:00:01	0.00	14.074	80.000	0.6119	10.7
1150	AB07CD0350	WETLAND SAL01	SALINE (FEN)	56.573903999999998859493643976747989654541015625	-111.277773999999993748133420012891292572021484375	HOBO Rain Gauge Data Logger - RG3	HOBO Temperature/RH Smart Sensor (S-THB-M002)	Soil Moisture Smart Sensor - EC5 (S-SMC-M005)	2019-06-28T09:00:01	0.00	15.533	79.700	0.6111	12.1
1151	AB07CD0350	WETLAND SAL01	SALINE (FEN)	56.573903999999998859493643976747989654541015625	-111.277773999999993748133420012891292572021484375	HOBO Rain Gauge Data Logger - RG3	HOBO Temperature/RH Smart Sensor (S-THB-M002)	Soil Moisture Smart Sensor - EC5 (S-SMC-M005)	2019-06-28T10:00:01	0.00	16.987	75.500	0.6111	12.6
1152	AB07CD0350	WETLAND SAL01	SALINE (FEN)	56.573903999999998859493643976747989654541015625	-111.277773999999993748133420012891292572021484375	HOBO Rain Gauge Data Logger - RG3	HOBO Temperature/RH Smart Sensor (S-THB-M002)	Soil Moisture Smart Sensor - EC5 (S-SMC-M005)	2019-06-28T11:00:01	0.00	18.010	73.700	0.6111	13.3
1153	AB07CD0350	WETLAND SAL01	SALINE (FEN)	56.573903999999998859493643976747989654541015625	-111.277773999999993748133420012891292572021484375	HOBO Rain Gauge Data Logger - RG3	HOBO Temperature/RH Smart Sensor (S-THB-M002)	Soil Moisture Smart Sensor - EC5 (S-SMC-M005)	2019-06-28T12:00:01	0.00	18.937	68.000	0.6111	12.9
1154	AB07CD0350	WETLAND SAL01	SALINE (FEN)	56.573903999999998859493643976747989654541015625	-111.277773999999993748133420012891292572021484375	HOBO Rain Gauge Data Logger - RG3	HOBO Temperature/RH Smart Sensor (S-THB-M002)	Soil Moisture Smart Sensor - EC5 (S-SMC-M005)	2019-06-28T13:00:01	0.00	19.056	62.700	0.6111	11.8
1155	AB07CD0350	WETLAND SAL01	SALINE (FEN)	56.573903999999998859493643976747989654541015625	-111.277773999999993748133420012891292572021484375	HOBO Rain Gauge Data Logger - RG3	HOBO Temperature/RH Smart Sensor (S-THB-M002)	Soil Moisture Smart Sensor - EC5 (S-SMC-M005)	2019-06-28T14:00:01	0.00	19.436	62.000	0.6111	12.0
1156	AB07CD0350	WETLAND SAL01	SALINE (FEN)	56.573903999999998859493643976747989654541015625	-111.277773999999993748133420012891292572021484375	HOBO Rain Gauge Data Logger - RG3	HOBO Temperature/RH Smart Sensor (S-THB-M002)	Soil Moisture Smart Sensor - EC5 (S-SMC-M005)	2019-06-28T15:00:01	0.00	19.151	58.500	0.6111	10.8
1157	AB07CD0350	WETLAND SAL01	SALINE (FEN)	56.573903999999998859493643976747989654541015625	-111.277773999999993748133420012891292572021484375	HOBO Rain Gauge Data Logger - RG3	HOBO Temperature/RH Smart Sensor (S-THB-M002)	Soil Moisture Smart Sensor - EC5 (S-SMC-M005)	2019-06-28T16:00:01	0.60	15.557	80.100	0.6111	12.2
1158	AB07CD0350	WETLAND SAL01	SALINE (FEN)	56.573903999999998859493643976747989654541015625	-111.277773999999993748133420012891292572021484375	HOBO Rain Gauge Data Logger - RG3	HOBO Temperature/RH Smart Sensor (S-THB-M002)	Soil Moisture Smart Sensor - EC5 (S-SMC-M005)	2019-06-28T17:00:01	0.40	15.461	87.400	0.6111	13.4
1159	AB07CD0350	WETLAND SAL01	SALINE (FEN)	56.573903999999998859493643976747989654541015625	-111.277773999999993748133420012891292572021484375	HOBO Rain Gauge Data Logger - RG3	HOBO Temperature/RH Smart Sensor (S-THB-M002)	Soil Moisture Smart Sensor - EC5 (S-SMC-M005)	2019-06-28T18:00:01	7.00	13.618	91.400	0.6111	12.3
1160	AB07CD0350	WETLAND SAL01	SALINE (FEN)	56.573903999999998859493643976747989654541015625	-111.277773999999993748133420012891292572021484375	HOBO Rain Gauge Data Logger - RG3	HOBO Temperature/RH Smart Sensor (S-THB-M002)	Soil Moisture Smart Sensor - EC5 (S-SMC-M005)	2019-06-28T19:00:01	1.00	13.834	94.100	0.6111	12.9
1161	AB07CD0350	WETLAND SAL01	SALINE (FEN)	56.573903999999998859493643976747989654541015625	-111.277773999999993748133420012891292572021484375	HOBO Rain Gauge Data Logger - RG3	HOBO Temperature/RH Smart Sensor (S-THB-M002)	Soil Moisture Smart Sensor - EC5 (S-SMC-M005)	2019-06-28T20:00:01	1.40	14.242	95.700	0.6111	13.6
1162	AB07CD0350	WETLAND SAL01	SALINE (FEN)	56.573903999999998859493643976747989654541015625	-111.277773999999993748133420012891292572021484375	HOBO Rain Gauge Data Logger - RG3	HOBO Temperature/RH Smart Sensor (S-THB-M002)	Soil Moisture Smart Sensor - EC5 (S-SMC-M005)	2019-06-28T21:00:01	1.40	14.266	96.500	0.6111	13.7
1163	AB07CD0350	WETLAND SAL01	SALINE (FEN)	56.573903999999998859493643976747989654541015625	-111.277773999999993748133420012891292572021484375	HOBO Rain Gauge Data Logger - RG3	HOBO Temperature/RH Smart Sensor (S-THB-M002)	Soil Moisture Smart Sensor - EC5 (S-SMC-M005)	2019-06-28T22:00:01	0.00	13.690	97.200	0.6111	13.3
1164	AB07CD0350	WETLAND SAL01	SALINE (FEN)	56.573903999999998859493643976747989654541015625	-111.277773999999993748133420012891292572021484375	HOBO Rain Gauge Data Logger - RG3	HOBO Temperature/RH Smart Sensor (S-THB-M002)	Soil Moisture Smart Sensor - EC5 (S-SMC-M005)	2019-06-28T23:00:01	0.00	13.425	97.800	0.6111	13.1
1165	AB07CD0350	WETLAND SAL01	SALINE (FEN)	56.573903999999998859493643976747989654541015625	-111.277773999999993748133420012891292572021484375	HOBO Rain Gauge Data Logger - RG3	HOBO Temperature/RH Smart Sensor (S-THB-M002)	Soil Moisture Smart Sensor - EC5 (S-SMC-M005)	2019-06-29T00:00:01	0.00	12.678	97.900	0.6111	12.4
1166	AB07CD0350	WETLAND SAL01	SALINE (FEN)	56.573903999999998859493643976747989654541015625	-111.277773999999993748133420012891292572021484375	HOBO Rain Gauge Data Logger - RG3	HOBO Temperature/RH Smart Sensor (S-THB-M002)	Soil Moisture Smart Sensor - EC5 (S-SMC-M005)	2019-06-29T01:00:01	0.00	11.759	98.600	0.6111	11.6
1167	AB07CD0350	WETLAND SAL01	SALINE (FEN)	56.573903999999998859493643976747989654541015625	-111.277773999999993748133420012891292572021484375	HOBO Rain Gauge Data Logger - RG3	HOBO Temperature/RH Smart Sensor (S-THB-M002)	Soil Moisture Smart Sensor - EC5 (S-SMC-M005)	2019-06-29T02:00:01	0.00	11.419	99.100	0.6111	11.3
1168	AB07CD0350	WETLAND SAL01	SALINE (FEN)	56.573903999999998859493643976747989654541015625	-111.277773999999993748133420012891292572021484375	HOBO Rain Gauge Data Logger - RG3	HOBO Temperature/RH Smart Sensor (S-THB-M002)	Soil Moisture Smart Sensor - EC5 (S-SMC-M005)	2019-06-29T03:00:01	0.00	11.492	99.300	0.6111	11.4
1169	AB07CD0350	WETLAND SAL01	SALINE (FEN)	56.573903999999998859493643976747989654541015625	-111.277773999999993748133420012891292572021484375	HOBO Rain Gauge Data Logger - RG3	HOBO Temperature/RH Smart Sensor (S-THB-M002)	Soil Moisture Smart Sensor - EC5 (S-SMC-M005)	2019-06-29T04:00:01	0.20	10.418	99.400	0.6111	10.3
1170	AB07CD0350	WETLAND SAL01	SALINE (FEN)	56.573903999999998859493643976747989654541015625	-111.277773999999993748133420012891292572021484375	HOBO Rain Gauge Data Logger - RG3	HOBO Temperature/RH Smart Sensor (S-THB-M002)	Soil Moisture Smart Sensor - EC5 (S-SMC-M005)	2019-06-29T05:00:01	0.00	9.903	99.600	0.6111	9.9
1171	AB07CD0350	WETLAND SAL01	SALINE (FEN)	56.573903999999998859493643976747989654541015625	-111.277773999999993748133420012891292572021484375	HOBO Rain Gauge Data Logger - RG3	HOBO Temperature/RH Smart Sensor (S-THB-M002)	Soil Moisture Smart Sensor - EC5 (S-SMC-M005)	2019-06-29T06:00:01	0.00	11.953	99.400	0.6111	11.9
1172	AB07CD0350	WETLAND SAL01	SALINE (FEN)	56.573903999999998859493643976747989654541015625	-111.277773999999993748133420012891292572021484375	HOBO Rain Gauge Data Logger - RG3	HOBO Temperature/RH Smart Sensor (S-THB-M002)	Soil Moisture Smart Sensor - EC5 (S-SMC-M005)	2019-06-29T07:00:01	0.00	12.944	97.000	0.6111	12.5
1173	AB07CD0350	WETLAND SAL01	SALINE (FEN)	56.573903999999998859493643976747989654541015625	-111.277773999999993748133420012891292572021484375	HOBO Rain Gauge Data Logger - RG3	HOBO Temperature/RH Smart Sensor (S-THB-M002)	Soil Moisture Smart Sensor - EC5 (S-SMC-M005)	2019-06-29T08:00:01	0.00	13.690	87.200	0.6111	11.6
1174	AB07CD0350	WETLAND SAL01	SALINE (FEN)	56.573903999999998859493643976747989654541015625	-111.277773999999993748133420012891292572021484375	HOBO Rain Gauge Data Logger - RG3	HOBO Temperature/RH Smart Sensor (S-THB-M002)	Soil Moisture Smart Sensor - EC5 (S-SMC-M005)	2019-06-29T09:00:01	0.00	14.936	84.700	0.6111	12.4
1175	AB07CD0350	WETLAND SAL01	SALINE (FEN)	56.573903999999998859493643976747989654541015625	-111.277773999999993748133420012891292572021484375	HOBO Rain Gauge Data Logger - RG3	HOBO Temperature/RH Smart Sensor (S-THB-M002)	Soil Moisture Smart Sensor - EC5 (S-SMC-M005)	2019-06-29T10:00:01	0.00	16.296	80.900	0.6104	13.0
1176	AB07CD0350	WETLAND SAL01	SALINE (FEN)	56.573903999999998859493643976747989654541015625	-111.277773999999993748133420012891292572021484375	HOBO Rain Gauge Data Logger - RG3	HOBO Temperature/RH Smart Sensor (S-THB-M002)	Soil Moisture Smart Sensor - EC5 (S-SMC-M005)	2019-06-29T11:00:01	0.00	18.129	73.700	0.6104	13.4
1177	AB07CD0350	WETLAND SAL01	SALINE (FEN)	56.573903999999998859493643976747989654541015625	-111.277773999999993748133420012891292572021484375	HOBO Rain Gauge Data Logger - RG3	HOBO Temperature/RH Smart Sensor (S-THB-M002)	Soil Moisture Smart Sensor - EC5 (S-SMC-M005)	2019-06-29T12:00:01	0.00	18.343	71.200	0.6104	13.1
1178	AB07CD0350	WETLAND SAL01	SALINE (FEN)	56.573903999999998859493643976747989654541015625	-111.277773999999993748133420012891292572021484375	HOBO Rain Gauge Data Logger - RG3	HOBO Temperature/RH Smart Sensor (S-THB-M002)	Soil Moisture Smart Sensor - EC5 (S-SMC-M005)	2019-06-29T13:00:01	0.00	19.722	69.000	0.6104	13.9
1179	AB07CD0350	WETLAND SAL01	SALINE (FEN)	56.573903999999998859493643976747989654541015625	-111.277773999999993748133420012891292572021484375	HOBO Rain Gauge Data Logger - RG3	HOBO Temperature/RH Smart Sensor (S-THB-M002)	Soil Moisture Smart Sensor - EC5 (S-SMC-M005)	2019-06-29T14:00:01	0.00	21.151	61.300	0.6104	13.4
1180	AB07CD0350	WETLAND SAL01	SALINE (FEN)	56.573903999999998859493643976747989654541015625	-111.277773999999993748133420012891292572021484375	HOBO Rain Gauge Data Logger - RG3	HOBO Temperature/RH Smart Sensor (S-THB-M002)	Soil Moisture Smart Sensor - EC5 (S-SMC-M005)	2019-06-29T15:00:01	0.00	21.843	55.400	0.6104	12.5
1181	AB07CD0350	WETLAND SAL01	SALINE (FEN)	56.573903999999998859493643976747989654541015625	-111.277773999999993748133420012891292572021484375	HOBO Rain Gauge Data Logger - RG3	HOBO Temperature/RH Smart Sensor (S-THB-M002)	Soil Moisture Smart Sensor - EC5 (S-SMC-M005)	2019-06-29T16:00:01	0.00	22.633	51.400	0.6104	12.1
1182	AB07CD0350	WETLAND SAL01	SALINE (FEN)	56.573903999999998859493643976747989654541015625	-111.277773999999993748133420012891292572021484375	HOBO Rain Gauge Data Logger - RG3	HOBO Temperature/RH Smart Sensor (S-THB-M002)	Soil Moisture Smart Sensor - EC5 (S-SMC-M005)	2019-06-29T17:00:01	0.00	19.912	55.100	0.6104	10.6
1183	AB07CD0350	WETLAND SAL01	SALINE (FEN)	56.573903999999998859493643976747989654541015625	-111.277773999999993748133420012891292572021484375	HOBO Rain Gauge Data Logger - RG3	HOBO Temperature/RH Smart Sensor (S-THB-M002)	Soil Moisture Smart Sensor - EC5 (S-SMC-M005)	2019-06-29T18:00:01	0.00	13.882	77.200	0.6104	10.0
1184	AB07CD0350	WETLAND SAL01	SALINE (FEN)	56.573903999999998859493643976747989654541015625	-111.277773999999993748133420012891292572021484375	HOBO Rain Gauge Data Logger - RG3	HOBO Temperature/RH Smart Sensor (S-THB-M002)	Soil Moisture Smart Sensor - EC5 (S-SMC-M005)	2019-06-29T19:00:01	0.00	16.963	78.500	0.6104	13.2
1185	AB07CD0350	WETLAND SAL01	SALINE (FEN)	56.573903999999998859493643976747989654541015625	-111.277773999999993748133420012891292572021484375	HOBO Rain Gauge Data Logger - RG3	HOBO Temperature/RH Smart Sensor (S-THB-M002)	Soil Moisture Smart Sensor - EC5 (S-SMC-M005)	2019-06-29T20:00:01	0.20	14.457	78.200	0.6104	10.7
1186	AB07CD0350	WETLAND SAL01	SALINE (FEN)	56.573903999999998859493643976747989654541015625	-111.277773999999993748133420012891292572021484375	HOBO Rain Gauge Data Logger - RG3	HOBO Temperature/RH Smart Sensor (S-THB-M002)	Soil Moisture Smart Sensor - EC5 (S-SMC-M005)	2019-06-29T21:00:01	0.00	15.247	85.700	0.6104	12.9
1187	AB07CD0350	WETLAND SAL01	SALINE (FEN)	56.573903999999998859493643976747989654541015625	-111.277773999999993748133420012891292572021484375	HOBO Rain Gauge Data Logger - RG3	HOBO Temperature/RH Smart Sensor (S-THB-M002)	Soil Moisture Smart Sensor - EC5 (S-SMC-M005)	2019-06-29T22:00:01	0.00	14.409	86.400	0.6111	12.2
1188	AB07CD0350	WETLAND SAL01	SALINE (FEN)	56.573903999999998859493643976747989654541015625	-111.277773999999993748133420012891292572021484375	HOBO Rain Gauge Data Logger - RG3	HOBO Temperature/RH Smart Sensor (S-THB-M002)	Soil Moisture Smart Sensor - EC5 (S-SMC-M005)	2019-06-29T23:00:01	0.00	14.146	86.200	0.6111	11.9
1189	AB07CD0350	WETLAND SAL01	SALINE (FEN)	56.573903999999998859493643976747989654541015625	-111.277773999999993748133420012891292572021484375	HOBO Rain Gauge Data Logger - RG3	HOBO Temperature/RH Smart Sensor (S-THB-M002)	Soil Moisture Smart Sensor - EC5 (S-SMC-M005)	2019-06-30T00:00:01	0.00	13.954	85.200	0.6111	11.5
1190	AB07CD0350	WETLAND SAL01	SALINE (FEN)	56.573903999999998859493643976747989654541015625	-111.277773999999993748133420012891292572021484375	HOBO Rain Gauge Data Logger - RG3	HOBO Temperature/RH Smart Sensor (S-THB-M002)	Soil Moisture Smart Sensor - EC5 (S-SMC-M005)	2019-06-30T01:00:01	0.00	12.485	87.000	0.6104	10.4
1191	AB07CD0350	WETLAND SAL01	SALINE (FEN)	56.573903999999998859493643976747989654541015625	-111.277773999999993748133420012891292572021484375	HOBO Rain Gauge Data Logger - RG3	HOBO Temperature/RH Smart Sensor (S-THB-M002)	Soil Moisture Smart Sensor - EC5 (S-SMC-M005)	2019-06-30T02:00:01	0.00	12.195	87.700	0.6111	10.2
1192	AB07CD0350	WETLAND SAL01	SALINE (FEN)	56.573903999999998859493643976747989654541015625	-111.277773999999993748133420012891292572021484375	HOBO Rain Gauge Data Logger - RG3	HOBO Temperature/RH Smart Sensor (S-THB-M002)	Soil Moisture Smart Sensor - EC5 (S-SMC-M005)	2019-06-30T03:00:01	0.00	11.370	89.600	0.6111	9.7
1193	AB07CD0350	WETLAND SAL01	SALINE (FEN)	56.573903999999998859493643976747989654541015625	-111.277773999999993748133420012891292572021484375	HOBO Rain Gauge Data Logger - RG3	HOBO Temperature/RH Smart Sensor (S-THB-M002)	Soil Moisture Smart Sensor - EC5 (S-SMC-M005)	2019-06-30T04:00:01	0.00	10.810	91.800	0.6111	9.5
1194	AB07CD0350	WETLAND SAL01	SALINE (FEN)	56.573903999999998859493643976747989654541015625	-111.277773999999993748133420012891292572021484375	HOBO Rain Gauge Data Logger - RG3	HOBO Temperature/RH Smart Sensor (S-THB-M002)	Soil Moisture Smart Sensor - EC5 (S-SMC-M005)	2019-06-30T05:00:01	0.00	11.005	91.200	0.6111	9.6
1195	AB07CD0350	WETLAND SAL01	SALINE (FEN)	56.573903999999998859493643976747989654541015625	-111.277773999999993748133420012891292572021484375	HOBO Rain Gauge Data Logger - RG3	HOBO Temperature/RH Smart Sensor (S-THB-M002)	Soil Moisture Smart Sensor - EC5 (S-SMC-M005)	2019-06-30T06:00:01	0.00	11.540	89.500	0.6111	9.9
1196	AB07CD0350	WETLAND SAL01	SALINE (FEN)	56.573903999999998859493643976747989654541015625	-111.277773999999993748133420012891292572021484375	HOBO Rain Gauge Data Logger - RG3	HOBO Temperature/RH Smart Sensor (S-THB-M002)	Soil Moisture Smart Sensor - EC5 (S-SMC-M005)	2019-06-30T07:00:01	0.00	13.906	83.400	0.6111	11.2
1197	AB07CD0350	WETLAND SAL01	SALINE (FEN)	56.573903999999998859493643976747989654541015625	-111.277773999999993748133420012891292572021484375	HOBO Rain Gauge Data Logger - RG3	HOBO Temperature/RH Smart Sensor (S-THB-M002)	Soil Moisture Smart Sensor - EC5 (S-SMC-M005)	2019-06-30T08:00:01	0.00	16.153	72.900	0.6111	11.3
1198	AB07CD0350	WETLAND SAL01	SALINE (FEN)	56.573903999999998859493643976747989654541015625	-111.277773999999993748133420012891292572021484375	HOBO Rain Gauge Data Logger - RG3	HOBO Temperature/RH Smart Sensor (S-THB-M002)	Soil Moisture Smart Sensor - EC5 (S-SMC-M005)	2019-06-30T09:00:01	0.00	17.677	63.400	0.6111	10.7
1199	AB07CD0350	WETLAND SAL01	SALINE (FEN)	56.573903999999998859493643976747989654541015625	-111.277773999999993748133420012891292572021484375	HOBO Rain Gauge Data Logger - RG3	HOBO Temperature/RH Smart Sensor (S-THB-M002)	Soil Moisture Smart Sensor - EC5 (S-SMC-M005)	2019-06-30T10:00:01	0.00	19.603	53.600	0.6111	9.9
1200	AB07CD0350	WETLAND SAL01	SALINE (FEN)	56.573903999999998859493643976747989654541015625	-111.277773999999993748133420012891292572021484375	HOBO Rain Gauge Data Logger - RG3	HOBO Temperature/RH Smart Sensor (S-THB-M002)	Soil Moisture Smart Sensor - EC5 (S-SMC-M005)	2019-06-30T11:00:01	0.00	20.555	43.700	0.6111	7.8
1201	AB07CD0350	WETLAND SAL01	SALINE (FEN)	56.573903999999998859493643976747989654541015625	-111.277773999999993748133420012891292572021484375	HOBO Rain Gauge Data Logger - RG3	HOBO Temperature/RH Smart Sensor (S-THB-M002)	Soil Moisture Smart Sensor - EC5 (S-SMC-M005)	2019-06-30T12:00:01	0.00	21.795	40.300	0.6111	7.7
1202	AB07CD0350	WETLAND SAL01	SALINE (FEN)	56.573903999999998859493643976747989654541015625	-111.277773999999993748133420012891292572021484375	HOBO Rain Gauge Data Logger - RG3	HOBO Temperature/RH Smart Sensor (S-THB-M002)	Soil Moisture Smart Sensor - EC5 (S-SMC-M005)	2019-06-30T13:00:01	0.00	20.865	38.500	0.6111	6.2
1203	AB07CD0350	WETLAND SAL01	SALINE (FEN)	56.573903999999998859493643976747989654541015625	-111.277773999999993748133420012891292572021484375	HOBO Rain Gauge Data Logger - RG3	HOBO Temperature/RH Smart Sensor (S-THB-M002)	Soil Moisture Smart Sensor - EC5 (S-SMC-M005)	2019-06-30T14:00:01	0.00	22.848	38.100	0.6111	7.8
1204	AB07CD0350	WETLAND SAL01	SALINE (FEN)	56.573903999999998859493643976747989654541015625	-111.277773999999993748133420012891292572021484375	HOBO Rain Gauge Data Logger - RG3	HOBO Temperature/RH Smart Sensor (S-THB-M002)	Soil Moisture Smart Sensor - EC5 (S-SMC-M005)	2019-06-30T15:00:01	0.00	22.106	37.000	0.6104	6.8
1205	AB07CD0350	WETLAND SAL01	SALINE (FEN)	56.573903999999998859493643976747989654541015625	-111.277773999999993748133420012891292572021484375	HOBO Rain Gauge Data Logger - RG3	HOBO Temperature/RH Smart Sensor (S-THB-M002)	Soil Moisture Smart Sensor - EC5 (S-SMC-M005)	2019-06-30T16:00:01	0.00	23.328	41.700	0.6104	9.6
1206	AB07CD0350	WETLAND SAL01	SALINE (FEN)	56.573903999999998859493643976747989654541015625	-111.277773999999993748133420012891292572021484375	HOBO Rain Gauge Data Logger - RG3	HOBO Temperature/RH Smart Sensor (S-THB-M002)	Soil Moisture Smart Sensor - EC5 (S-SMC-M005)	2019-06-30T17:00:01	0.00	22.369	44.700	0.6104	9.8
1207	AB07CD0350	WETLAND SAL01	SALINE (FEN)	56.573903999999998859493643976747989654541015625	-111.277773999999993748133420012891292572021484375	HOBO Rain Gauge Data Logger - RG3	HOBO Temperature/RH Smart Sensor (S-THB-M002)	Soil Moisture Smart Sensor - EC5 (S-SMC-M005)	2019-06-30T18:00:01	0.00	21.246	50.400	0.6104	10.5
1208	AB07CD0350	WETLAND SAL01	SALINE (FEN)	56.573903999999998859493643976747989654541015625	-111.277773999999993748133420012891292572021484375	HOBO Rain Gauge Data Logger - RG3	HOBO Temperature/RH Smart Sensor (S-THB-M002)	Soil Moisture Smart Sensor - EC5 (S-SMC-M005)	2019-06-30T19:00:01	0.00	22.011	53.300	0.6104	12.1
1209	AB07CD0350	WETLAND SAL01	SALINE (FEN)	56.573903999999998859493643976747989654541015625	-111.277773999999993748133420012891292572021484375	HOBO Rain Gauge Data Logger - RG3	HOBO Temperature/RH Smart Sensor (S-THB-M002)	Soil Moisture Smart Sensor - EC5 (S-SMC-M005)	2019-06-30T20:00:01	0.00	21.700	50.600	0.6111	11.0
1210	AB07CD0350	WETLAND SAL01	SALINE (FEN)	56.573903999999998859493643976747989654541015625	-111.277773999999993748133420012891292572021484375	HOBO Rain Gauge Data Logger - RG3	HOBO Temperature/RH Smart Sensor (S-THB-M002)	Soil Moisture Smart Sensor - EC5 (S-SMC-M005)	2019-06-30T21:00:01	0.00	20.793	48.700	0.6104	9.6
1211	AB07CD0350	WETLAND SAL01	SALINE (FEN)	56.573903999999998859493643976747989654541015625	-111.277773999999993748133420012891292572021484375	HOBO Rain Gauge Data Logger - RG3	HOBO Temperature/RH Smart Sensor (S-THB-M002)	Soil Moisture Smart Sensor - EC5 (S-SMC-M005)	2019-06-30T22:00:01	0.00	17.249	53.400	0.6111	7.7
1212	AB07CD0350	WETLAND SAL01	SALINE (FEN)	56.573903999999998859493643976747989654541015625	-111.277773999999993748133420012891292572021484375	HOBO Rain Gauge Data Logger - RG3	HOBO Temperature/RH Smart Sensor (S-THB-M002)	Soil Moisture Smart Sensor - EC5 (S-SMC-M005)	2019-06-30T23:00:01	0.00	15.819	64.500	0.6111	9.2
1213	AB07CD0350	WETLAND SAL01	SALINE (FEN)	56.573903999999998859493643976747989654541015625	-111.277773999999993748133420012891292572021484375	HOBO Rain Gauge Data Logger - RG3	HOBO Temperature/RH Smart Sensor (S-THB-M002)	Soil Moisture Smart Sensor - EC5 (S-SMC-M005)	2019-07-01T00:00:01	0.00	15.915	72.000	0.6111	10.9
1214	AB07CD0350	WETLAND SAL01	SALINE (FEN)	56.573903999999998859493643976747989654541015625	-111.277773999999993748133420012891292572021484375	HOBO Rain Gauge Data Logger - RG3	HOBO Temperature/RH Smart Sensor (S-THB-M002)	Soil Moisture Smart Sensor - EC5 (S-SMC-M005)	2019-07-01T01:00:01	9.80	9.854	90.200	0.6111	8.3
1215	AB07CD0350	WETLAND SAL01	SALINE (FEN)	56.573903999999998859493643976747989654541015625	-111.277773999999993748133420012891292572021484375	HOBO Rain Gauge Data Logger - RG3	HOBO Temperature/RH Smart Sensor (S-THB-M002)	Soil Moisture Smart Sensor - EC5 (S-SMC-M005)	2019-07-01T02:00:01	4.00	8.618	94.700	0.6119	7.8
1216	AB07CD0350	WETLAND SAL01	SALINE (FEN)	56.573903999999998859493643976747989654541015625	-111.277773999999993748133420012891292572021484375	HOBO Rain Gauge Data Logger - RG3	HOBO Temperature/RH Smart Sensor (S-THB-M002)	Soil Moisture Smart Sensor - EC5 (S-SMC-M005)	2019-07-01T03:00:01	1.20	7.745	94.700	0.6119	7.0
1217	AB07CD0350	WETLAND SAL01	SALINE (FEN)	56.573903999999998859493643976747989654541015625	-111.277773999999993748133420012891292572021484375	HOBO Rain Gauge Data Logger - RG3	HOBO Temperature/RH Smart Sensor (S-THB-M002)	Soil Moisture Smart Sensor - EC5 (S-SMC-M005)	2019-07-01T04:00:01	1.20	7.116	94.300	0.6119	6.3
1218	AB07CD0350	WETLAND SAL01	SALINE (FEN)	56.573903999999998859493643976747989654541015625	-111.277773999999993748133420012891292572021484375	HOBO Rain Gauge Data Logger - RG3	HOBO Temperature/RH Smart Sensor (S-THB-M002)	Soil Moisture Smart Sensor - EC5 (S-SMC-M005)	2019-07-01T05:00:01	1.40	6.204	93.100	0.6119	5.2
1219	AB07CD0350	WETLAND SAL01	SALINE (FEN)	56.573903999999998859493643976747989654541015625	-111.277773999999993748133420012891292572021484375	HOBO Rain Gauge Data Logger - RG3	HOBO Temperature/RH Smart Sensor (S-THB-M002)	Soil Moisture Smart Sensor - EC5 (S-SMC-M005)	2019-07-01T06:00:01	0.00	6.128	92.700	0.6119	5.0
1220	AB07CD0350	WETLAND SAL01	SALINE (FEN)	56.573903999999998859493643976747989654541015625	-111.277773999999993748133420012891292572021484375	HOBO Rain Gauge Data Logger - RG3	HOBO Temperature/RH Smart Sensor (S-THB-M002)	Soil Moisture Smart Sensor - EC5 (S-SMC-M005)	2019-07-01T07:00:01	0.00	6.458	94.800	0.6119	5.7
1221	AB07CD0350	WETLAND SAL01	SALINE (FEN)	56.573903999999998859493643976747989654541015625	-111.277773999999993748133420012891292572021484375	HOBO Rain Gauge Data Logger - RG3	HOBO Temperature/RH Smart Sensor (S-THB-M002)	Soil Moisture Smart Sensor - EC5 (S-SMC-M005)	2019-07-01T08:00:01	0.00	6.839	95.300	0.6111	6.1
1222	AB07CD0350	WETLAND SAL01	SALINE (FEN)	56.573903999999998859493643976747989654541015625	-111.277773999999993748133420012891292572021484375	HOBO Rain Gauge Data Logger - RG3	HOBO Temperature/RH Smart Sensor (S-THB-M002)	Soil Moisture Smart Sensor - EC5 (S-SMC-M005)	2019-07-01T09:00:01	0.00	7.594	93.100	0.6119	6.6
1223	AB07CD0350	WETLAND SAL01	SALINE (FEN)	56.573903999999998859493643976747989654541015625	-111.277773999999993748133420012891292572021484375	HOBO Rain Gauge Data Logger - RG3	HOBO Temperature/RH Smart Sensor (S-THB-M002)	Soil Moisture Smart Sensor - EC5 (S-SMC-M005)	2019-07-01T10:00:01	0.00	8.369	90.600	0.6111	6.9
1224	AB07CD0350	WETLAND SAL01	SALINE (FEN)	56.573903999999998859493643976747989654541015625	-111.277773999999993748133420012891292572021484375	HOBO Rain Gauge Data Logger - RG3	HOBO Temperature/RH Smart Sensor (S-THB-M002)	Soil Moisture Smart Sensor - EC5 (S-SMC-M005)	2019-07-01T11:00:01	0.00	9.336	85.600	0.6111	7.1
1225	AB07CD0350	WETLAND SAL01	SALINE (FEN)	56.573903999999998859493643976747989654541015625	-111.277773999999993748133420012891292572021484375	HOBO Rain Gauge Data Logger - RG3	HOBO Temperature/RH Smart Sensor (S-THB-M002)	Soil Moisture Smart Sensor - EC5 (S-SMC-M005)	2019-07-01T12:00:01	0.00	10.369	78.100	0.6104	6.7
1226	AB07CD0350	WETLAND SAL01	SALINE (FEN)	56.573903999999998859493643976747989654541015625	-111.277773999999993748133420012891292572021484375	HOBO Rain Gauge Data Logger - RG3	HOBO Temperature/RH Smart Sensor (S-THB-M002)	Soil Moisture Smart Sensor - EC5 (S-SMC-M005)	2019-07-01T13:00:01	0.00	12.243	67.700	0.6104	6.5
1227	AB07CD0350	WETLAND SAL01	SALINE (FEN)	56.573903999999998859493643976747989654541015625	-111.277773999999993748133420012891292572021484375	HOBO Rain Gauge Data Logger - RG3	HOBO Temperature/RH Smart Sensor (S-THB-M002)	Soil Moisture Smart Sensor - EC5 (S-SMC-M005)	2019-07-01T14:00:01	0.00	12.509	58.400	0.6104	4.6
1228	AB07CD0350	WETLAND SAL01	SALINE (FEN)	56.573903999999998859493643976747989654541015625	-111.277773999999993748133420012891292572021484375	HOBO Rain Gauge Data Logger - RG3	HOBO Temperature/RH Smart Sensor (S-THB-M002)	Soil Moisture Smart Sensor - EC5 (S-SMC-M005)	2019-07-01T15:00:01	0.00	14.314	58.300	0.6104	6.3
1229	AB07CD0350	WETLAND SAL01	SALINE (FEN)	56.573903999999998859493643976747989654541015625	-111.277773999999993748133420012891292572021484375	HOBO Rain Gauge Data Logger - RG3	HOBO Temperature/RH Smart Sensor (S-THB-M002)	Soil Moisture Smart Sensor - EC5 (S-SMC-M005)	2019-07-01T16:00:01	0.00	12.534	52.800	0.6097	3.2
1230	AB07CD0350	WETLAND SAL01	SALINE (FEN)	56.573903999999998859493643976747989654541015625	-111.277773999999993748133420012891292572021484375	HOBO Rain Gauge Data Logger - RG3	HOBO Temperature/RH Smart Sensor (S-THB-M002)	Soil Moisture Smart Sensor - EC5 (S-SMC-M005)	2019-07-01T17:00:01	0.00	12.389	57.100	0.6097	4.1
1231	AB07CD0350	WETLAND SAL01	SALINE (FEN)	56.573903999999998859493643976747989654541015625	-111.277773999999993748133420012891292572021484375	HOBO Rain Gauge Data Logger - RG3	HOBO Temperature/RH Smart Sensor (S-THB-M002)	Soil Moisture Smart Sensor - EC5 (S-SMC-M005)	2019-07-01T18:00:01	0.00	11.443	63.300	0.6097	4.7
1232	AB07CD0350	WETLAND SAL01	SALINE (FEN)	56.573903999999998859493643976747989654541015625	-111.277773999999993748133420012891292572021484375	HOBO Rain Gauge Data Logger - RG3	HOBO Temperature/RH Smart Sensor (S-THB-M002)	Soil Moisture Smart Sensor - EC5 (S-SMC-M005)	2019-07-01T19:00:01	0.00	11.346	65.700	0.6097	5.2
1233	AB07CD0350	WETLAND SAL01	SALINE (FEN)	56.573903999999998859493643976747989654541015625	-111.277773999999993748133420012891292572021484375	HOBO Rain Gauge Data Logger - RG3	HOBO Temperature/RH Smart Sensor (S-THB-M002)	Soil Moisture Smart Sensor - EC5 (S-SMC-M005)	2019-07-01T20:00:01	0.00	11.832	68.400	0.6097	6.2
1234	AB07CD0350	WETLAND SAL01	SALINE (FEN)	56.573903999999998859493643976747989654541015625	-111.277773999999993748133420012891292572021484375	HOBO Rain Gauge Data Logger - RG3	HOBO Temperature/RH Smart Sensor (S-THB-M002)	Soil Moisture Smart Sensor - EC5 (S-SMC-M005)	2019-07-01T21:00:01	0.00	11.467	66.000	0.6097	5.4
1235	AB07CD0350	WETLAND SAL01	SALINE (FEN)	56.573903999999998859493643976747989654541015625	-111.277773999999993748133420012891292572021484375	HOBO Rain Gauge Data Logger - RG3	HOBO Temperature/RH Smart Sensor (S-THB-M002)	Soil Moisture Smart Sensor - EC5 (S-SMC-M005)	2019-07-01T22:00:01	0.00	9.977	72.600	0.6097	5.3
1236	AB07CD0350	WETLAND SAL01	SALINE (FEN)	56.573903999999998859493643976747989654541015625	-111.277773999999993748133420012891292572021484375	HOBO Rain Gauge Data Logger - RG3	HOBO Temperature/RH Smart Sensor (S-THB-M002)	Soil Moisture Smart Sensor - EC5 (S-SMC-M005)	2019-07-01T23:00:01	0.00	10.247	79.200	0.6097	6.8
1237	AB07CD0350	WETLAND SAL01	SALINE (FEN)	56.573903999999998859493643976747989654541015625	-111.277773999999993748133420012891292572021484375	HOBO Rain Gauge Data Logger - RG3	HOBO Temperature/RH Smart Sensor (S-THB-M002)	Soil Moisture Smart Sensor - EC5 (S-SMC-M005)	2019-07-02T00:00:01	0.00	10.541	78.100	0.6097	6.9
1238	AB07CD0350	WETLAND SAL01	SALINE (FEN)	56.573903999999998859493643976747989654541015625	-111.277773999999993748133420012891292572021484375	HOBO Rain Gauge Data Logger - RG3	HOBO Temperature/RH Smart Sensor (S-THB-M002)	Soil Moisture Smart Sensor - EC5 (S-SMC-M005)	2019-07-02T01:00:01	0.00	10.492	78.700	0.6097	7.0
1239	AB07CD0350	WETLAND SAL01	SALINE (FEN)	56.573903999999998859493643976747989654541015625	-111.277773999999993748133420012891292572021484375	HOBO Rain Gauge Data Logger - RG3	HOBO Temperature/RH Smart Sensor (S-THB-M002)	Soil Moisture Smart Sensor - EC5 (S-SMC-M005)	2019-07-02T02:00:01	0.00	10.541	76.800	0.6097	6.7
1240	AB07CD0350	WETLAND SAL01	SALINE (FEN)	56.573903999999998859493643976747989654541015625	-111.277773999999993748133420012891292572021484375	HOBO Rain Gauge Data Logger - RG3	HOBO Temperature/RH Smart Sensor (S-THB-M002)	Soil Moisture Smart Sensor - EC5 (S-SMC-M005)	2019-07-02T03:00:01	0.00	9.829	79.400	0.6097	6.4
1241	AB07CD0350	WETLAND SAL01	SALINE (FEN)	56.573903999999998859493643976747989654541015625	-111.277773999999993748133420012891292572021484375	HOBO Rain Gauge Data Logger - RG3	HOBO Temperature/RH Smart Sensor (S-THB-M002)	Soil Moisture Smart Sensor - EC5 (S-SMC-M005)	2019-07-02T04:00:01	0.00	10.001	80.100	0.6097	6.7
1242	AB07CD0350	WETLAND SAL01	SALINE (FEN)	56.573903999999998859493643976747989654541015625	-111.277773999999993748133420012891292572021484375	HOBO Rain Gauge Data Logger - RG3	HOBO Temperature/RH Smart Sensor (S-THB-M002)	Soil Moisture Smart Sensor - EC5 (S-SMC-M005)	2019-07-02T05:00:01	0.00	9.977	78.800	0.6089	6.5
1243	AB07CD0350	WETLAND SAL01	SALINE (FEN)	56.573903999999998859493643976747989654541015625	-111.277773999999993748133420012891292572021484375	HOBO Rain Gauge Data Logger - RG3	HOBO Temperature/RH Smart Sensor (S-THB-M002)	Soil Moisture Smart Sensor - EC5 (S-SMC-M005)	2019-07-02T06:00:01	0.40	8.965	85.300	0.6097	6.6
1244	AB07CD0350	WETLAND SAL01	SALINE (FEN)	56.573903999999998859493643976747989654541015625	-111.277773999999993748133420012891292572021484375	HOBO Rain Gauge Data Logger - RG3	HOBO Temperature/RH Smart Sensor (S-THB-M002)	Soil Moisture Smart Sensor - EC5 (S-SMC-M005)	2019-07-02T07:00:01	0.20	9.435	88.200	0.6097	7.6
1245	AB07CD0350	WETLAND SAL01	SALINE (FEN)	56.573903999999998859493643976747989654541015625	-111.277773999999993748133420012891292572021484375	HOBO Rain Gauge Data Logger - RG3	HOBO Temperature/RH Smart Sensor (S-THB-M002)	Soil Moisture Smart Sensor - EC5 (S-SMC-M005)	2019-07-02T08:00:01	0.00	10.394	86.700	0.6089	8.3
1246	AB07CD0350	WETLAND SAL01	SALINE (FEN)	56.573903999999998859493643976747989654541015625	-111.277773999999993748133420012891292572021484375	HOBO Rain Gauge Data Logger - RG3	HOBO Temperature/RH Smart Sensor (S-THB-M002)	Soil Moisture Smart Sensor - EC5 (S-SMC-M005)	2019-07-02T09:00:01	0.00	11.200	81.300	0.6089	8.1
1247	AB07CD0350	WETLAND SAL01	SALINE (FEN)	56.573903999999998859493643976747989654541015625	-111.277773999999993748133420012891292572021484375	HOBO Rain Gauge Data Logger - RG3	HOBO Temperature/RH Smart Sensor (S-THB-M002)	Soil Moisture Smart Sensor - EC5 (S-SMC-M005)	2019-07-02T10:00:01	0.00	12.025	75.700	0.6089	7.9
1248	AB07CD0350	WETLAND SAL01	SALINE (FEN)	56.573903999999998859493643976747989654541015625	-111.277773999999993748133420012891292572021484375	HOBO Rain Gauge Data Logger - RG3	HOBO Temperature/RH Smart Sensor (S-THB-M002)	Soil Moisture Smart Sensor - EC5 (S-SMC-M005)	2019-07-02T11:00:01	0.00	12.437	71.800	0.6089	7.5
1249	AB07CD0350	WETLAND SAL01	SALINE (FEN)	56.573903999999998859493643976747989654541015625	-111.277773999999993748133420012891292572021484375	HOBO Rain Gauge Data Logger - RG3	HOBO Temperature/RH Smart Sensor (S-THB-M002)	Soil Moisture Smart Sensor - EC5 (S-SMC-M005)	2019-07-02T12:00:01	0.00	13.522	70.200	0.6082	8.2
1250	AB07CD0350	WETLAND SAL01	SALINE (FEN)	56.573903999999998859493643976747989654541015625	-111.277773999999993748133420012891292572021484375	HOBO Rain Gauge Data Logger - RG3	HOBO Temperature/RH Smart Sensor (S-THB-M002)	Soil Moisture Smart Sensor - EC5 (S-SMC-M005)	2019-07-02T13:00:01	0.00	14.577	65.600	0.6082	8.2
1251	AB07CD0350	WETLAND SAL01	SALINE (FEN)	56.573903999999998859493643976747989654541015625	-111.277773999999993748133420012891292572021484375	HOBO Rain Gauge Data Logger - RG3	HOBO Temperature/RH Smart Sensor (S-THB-M002)	Soil Moisture Smart Sensor - EC5 (S-SMC-M005)	2019-07-02T14:00:01	0.00	14.314	64.200	0.6082	7.7
1252	AB07CD0350	WETLAND SAL01	SALINE (FEN)	56.573903999999998859493643976747989654541015625	-111.277773999999993748133420012891292572021484375	HOBO Rain Gauge Data Logger - RG3	HOBO Temperature/RH Smart Sensor (S-THB-M002)	Soil Moisture Smart Sensor - EC5 (S-SMC-M005)	2019-07-02T15:00:01	0.00	14.553	67.000	0.6082	8.5
1253	AB07CD0350	WETLAND SAL01	SALINE (FEN)	56.573903999999998859493643976747989654541015625	-111.277773999999993748133420012891292572021484375	HOBO Rain Gauge Data Logger - RG3	HOBO Temperature/RH Smart Sensor (S-THB-M002)	Soil Moisture Smart Sensor - EC5 (S-SMC-M005)	2019-07-02T16:00:01	0.20	10.443	66.300	0.6082	4.4
1254	AB07CD0350	WETLAND SAL01	SALINE (FEN)	56.573903999999998859493643976747989654541015625	-111.277773999999993748133420012891292572021484375	HOBO Rain Gauge Data Logger - RG3	HOBO Temperature/RH Smart Sensor (S-THB-M002)	Soil Moisture Smart Sensor - EC5 (S-SMC-M005)	2019-07-02T17:00:01	0.80	9.682	90.800	0.6082	8.3
1255	AB07CD0350	WETLAND SAL01	SALINE (FEN)	56.573903999999998859493643976747989654541015625	-111.277773999999993748133420012891292572021484375	HOBO Rain Gauge Data Logger - RG3	HOBO Temperature/RH Smart Sensor (S-THB-M002)	Soil Moisture Smart Sensor - EC5 (S-SMC-M005)	2019-07-02T18:00:01	0.20	10.687	89.600	0.6082	9.1
1256	AB07CD0350	WETLAND SAL01	SALINE (FEN)	56.573903999999998859493643976747989654541015625	-111.277773999999993748133420012891292572021484375	HOBO Rain Gauge Data Logger - RG3	HOBO Temperature/RH Smart Sensor (S-THB-M002)	Soil Moisture Smart Sensor - EC5 (S-SMC-M005)	2019-07-02T19:00:01	0.00	12.413	88.300	0.6082	10.5
1257	AB07CD0350	WETLAND SAL01	SALINE (FEN)	56.573903999999998859493643976747989654541015625	-111.277773999999993748133420012891292572021484375	HOBO Rain Gauge Data Logger - RG3	HOBO Temperature/RH Smart Sensor (S-THB-M002)	Soil Moisture Smart Sensor - EC5 (S-SMC-M005)	2019-07-02T20:00:01	0.00	12.147	82.100	0.6082	9.2
1258	AB07CD0350	WETLAND SAL01	SALINE (FEN)	56.573903999999998859493643976747989654541015625	-111.277773999999993748133420012891292572021484375	HOBO Rain Gauge Data Logger - RG3	HOBO Temperature/RH Smart Sensor (S-THB-M002)	Soil Moisture Smart Sensor - EC5 (S-SMC-M005)	2019-07-02T21:00:01	0.00	11.516	80.400	0.6075	8.3
1259	AB07CD0350	WETLAND SAL01	SALINE (FEN)	56.573903999999998859493643976747989654541015625	-111.277773999999993748133420012891292572021484375	HOBO Rain Gauge Data Logger - RG3	HOBO Temperature/RH Smart Sensor (S-THB-M002)	Soil Moisture Smart Sensor - EC5 (S-SMC-M005)	2019-07-02T22:00:01	0.00	10.883	83.600	0.6075	8.2
1260	AB07CD0350	WETLAND SAL01	SALINE (FEN)	56.573903999999998859493643976747989654541015625	-111.277773999999993748133420012891292572021484375	HOBO Rain Gauge Data Logger - RG3	HOBO Temperature/RH Smart Sensor (S-THB-M002)	Soil Moisture Smart Sensor - EC5 (S-SMC-M005)	2019-07-02T23:00:01	0.00	11.029	83.500	0.6075	8.4
1261	AB07CD0350	WETLAND SAL01	SALINE (FEN)	56.573903999999998859493643976747989654541015625	-111.277773999999993748133420012891292572021484375	HOBO Rain Gauge Data Logger - RG3	HOBO Temperature/RH Smart Sensor (S-THB-M002)	Soil Moisture Smart Sensor - EC5 (S-SMC-M005)	2019-07-03T00:00:01	0.00	10.932	81.700	0.6075	7.9
1262	AB07CD0350	WETLAND SAL01	SALINE (FEN)	56.573903999999998859493643976747989654541015625	-111.277773999999993748133420012891292572021484375	HOBO Rain Gauge Data Logger - RG3	HOBO Temperature/RH Smart Sensor (S-THB-M002)	Soil Moisture Smart Sensor - EC5 (S-SMC-M005)	2019-07-03T01:00:01	0.00	10.907	81.600	0.6075	7.9
1263	AB07CD0350	WETLAND SAL01	SALINE (FEN)	56.573903999999998859493643976747989654541015625	-111.277773999999993748133420012891292572021484375	HOBO Rain Gauge Data Logger - RG3	HOBO Temperature/RH Smart Sensor (S-THB-M002)	Soil Moisture Smart Sensor - EC5 (S-SMC-M005)	2019-07-03T02:00:01	0.00	10.467	83.100	0.6075	7.7
1264	AB07CD0350	WETLAND SAL01	SALINE (FEN)	56.573903999999998859493643976747989654541015625	-111.277773999999993748133420012891292572021484375	HOBO Rain Gauge Data Logger - RG3	HOBO Temperature/RH Smart Sensor (S-THB-M002)	Soil Moisture Smart Sensor - EC5 (S-SMC-M005)	2019-07-03T03:00:01	0.00	8.593	85.500	0.6082	6.3
1265	AB07CD0350	WETLAND SAL01	SALINE (FEN)	56.573903999999998859493643976747989654541015625	-111.277773999999993748133420012891292572021484375	HOBO Rain Gauge Data Logger - RG3	HOBO Temperature/RH Smart Sensor (S-THB-M002)	Soil Moisture Smart Sensor - EC5 (S-SMC-M005)	2019-07-03T04:00:01	0.00	7.920	87.600	0.6075	6.0
1266	AB07CD0350	WETLAND SAL01	SALINE (FEN)	56.573903999999998859493643976747989654541015625	-111.277773999999993748133420012891292572021484375	HOBO Rain Gauge Data Logger - RG3	HOBO Temperature/RH Smart Sensor (S-THB-M002)	Soil Moisture Smart Sensor - EC5 (S-SMC-M005)	2019-07-03T05:00:01	0.00	7.343	92.800	0.6075	6.3
1267	AB07CD0350	WETLAND SAL01	SALINE (FEN)	56.573903999999998859493643976747989654541015625	-111.277773999999993748133420012891292572021484375	HOBO Rain Gauge Data Logger - RG3	HOBO Temperature/RH Smart Sensor (S-THB-M002)	Soil Moisture Smart Sensor - EC5 (S-SMC-M005)	2019-07-03T06:00:01	0.20	7.845	94.900	0.6075	7.1
1268	AB07CD0350	WETLAND SAL01	SALINE (FEN)	56.573903999999998859493643976747989654541015625	-111.277773999999993748133420012891292572021484375	HOBO Rain Gauge Data Logger - RG3	HOBO Temperature/RH Smart Sensor (S-THB-M002)	Soil Moisture Smart Sensor - EC5 (S-SMC-M005)	2019-07-03T07:00:01	0.00	8.543	94.600	0.6075	7.7
1269	AB07CD0350	WETLAND SAL01	SALINE (FEN)	56.573903999999998859493643976747989654541015625	-111.277773999999993748133420012891292572021484375	HOBO Rain Gauge Data Logger - RG3	HOBO Temperature/RH Smart Sensor (S-THB-M002)	Soil Moisture Smart Sensor - EC5 (S-SMC-M005)	2019-07-03T08:00:01	0.00	8.891	92.200	0.6075	7.7
1270	AB07CD0350	WETLAND SAL01	SALINE (FEN)	56.573903999999998859493643976747989654541015625	-111.277773999999993748133420012891292572021484375	HOBO Rain Gauge Data Logger - RG3	HOBO Temperature/RH Smart Sensor (S-THB-M002)	Soil Moisture Smart Sensor - EC5 (S-SMC-M005)	2019-07-03T09:00:01	0.00	10.932	88.000	0.6075	9.0
1271	AB07CD0350	WETLAND SAL01	SALINE (FEN)	56.573903999999998859493643976747989654541015625	-111.277773999999993748133420012891292572021484375	HOBO Rain Gauge Data Logger - RG3	HOBO Temperature/RH Smart Sensor (S-THB-M002)	Soil Moisture Smart Sensor - EC5 (S-SMC-M005)	2019-07-03T10:00:01	0.00	12.292	78.600	0.6075	8.7
1272	AB07CD0350	WETLAND SAL01	SALINE (FEN)	56.573903999999998859493643976747989654541015625	-111.277773999999993748133420012891292572021484375	HOBO Rain Gauge Data Logger - RG3	HOBO Temperature/RH Smart Sensor (S-THB-M002)	Soil Moisture Smart Sensor - EC5 (S-SMC-M005)	2019-07-03T11:00:01	0.00	12.678	73.300	0.6075	8.0
1273	AB07CD0350	WETLAND SAL01	SALINE (FEN)	56.573903999999998859493643976747989654541015625	-111.277773999999993748133420012891292572021484375	HOBO Rain Gauge Data Logger - RG3	HOBO Temperature/RH Smart Sensor (S-THB-M002)	Soil Moisture Smart Sensor - EC5 (S-SMC-M005)	2019-07-03T12:00:01	0.00	14.337	66.900	0.6068	8.3
1274	AB07CD0350	WETLAND SAL01	SALINE (FEN)	56.573903999999998859493643976747989654541015625	-111.277773999999993748133420012891292572021484375	HOBO Rain Gauge Data Logger - RG3	HOBO Temperature/RH Smart Sensor (S-THB-M002)	Soil Moisture Smart Sensor - EC5 (S-SMC-M005)	2019-07-03T13:00:01	0.00	16.249	62.700	0.6068	9.1
1275	AB07CD0350	WETLAND SAL01	SALINE (FEN)	56.573903999999998859493643976747989654541015625	-111.277773999999993748133420012891292572021484375	HOBO Rain Gauge Data Logger - RG3	HOBO Temperature/RH Smart Sensor (S-THB-M002)	Soil Moisture Smart Sensor - EC5 (S-SMC-M005)	2019-07-03T14:00:01	0.20	13.497	63.500	0.6068	6.7
1276	AB07CD0350	WETLAND SAL01	SALINE (FEN)	56.573903999999998859493643976747989654541015625	-111.277773999999993748133420012891292572021484375	HOBO Rain Gauge Data Logger - RG3	HOBO Temperature/RH Smart Sensor (S-THB-M002)	Soil Moisture Smart Sensor - EC5 (S-SMC-M005)	2019-07-03T15:00:01	1.40	13.064	76.500	0.6075	9.0
1277	AB07CD0350	WETLAND SAL01	SALINE (FEN)	56.573903999999998859493643976747989654541015625	-111.277773999999993748133420012891292572021484375	HOBO Rain Gauge Data Logger - RG3	HOBO Temperature/RH Smart Sensor (S-THB-M002)	Soil Moisture Smart Sensor - EC5 (S-SMC-M005)	2019-07-03T16:00:01	0.40	13.522	78.200	0.6068	9.8
1278	AB07CD0350	WETLAND SAL01	SALINE (FEN)	56.573903999999998859493643976747989654541015625	-111.277773999999993748133420012891292572021484375	HOBO Rain Gauge Data Logger - RG3	HOBO Temperature/RH Smart Sensor (S-THB-M002)	Soil Moisture Smart Sensor - EC5 (S-SMC-M005)	2019-07-03T17:00:01	0.20	15.366	77.800	0.6068	11.5
1279	AB07CD0350	WETLAND SAL01	SALINE (FEN)	56.573903999999998859493643976747989654541015625	-111.277773999999993748133420012891292572021484375	HOBO Rain Gauge Data Logger - RG3	HOBO Temperature/RH Smart Sensor (S-THB-M002)	Soil Moisture Smart Sensor - EC5 (S-SMC-M005)	2019-07-03T18:00:01	0.00	14.361	74.200	0.6075	9.8
1280	AB07CD0350	WETLAND SAL01	SALINE (FEN)	56.573903999999998859493643976747989654541015625	-111.277773999999993748133420012891292572021484375	HOBO Rain Gauge Data Logger - RG3	HOBO Temperature/RH Smart Sensor (S-THB-M002)	Soil Moisture Smart Sensor - EC5 (S-SMC-M005)	2019-07-03T19:00:01	0.00	15.414	71.800	0.6068	10.4
1281	AB07CD0350	WETLAND SAL01	SALINE (FEN)	56.573903999999998859493643976747989654541015625	-111.277773999999993748133420012891292572021484375	HOBO Rain Gauge Data Logger - RG3	HOBO Temperature/RH Smart Sensor (S-THB-M002)	Soil Moisture Smart Sensor - EC5 (S-SMC-M005)	2019-07-03T20:00:01	0.00	15.438	64.800	0.6075	8.9
1282	AB07CD0350	WETLAND SAL01	SALINE (FEN)	56.573903999999998859493643976747989654541015625	-111.277773999999993748133420012891292572021484375	HOBO Rain Gauge Data Logger - RG3	HOBO Temperature/RH Smart Sensor (S-THB-M002)	Soil Moisture Smart Sensor - EC5 (S-SMC-M005)	2019-07-03T21:00:01	0.00	14.266	61.800	0.6075	7.1
1283	AB07CD0350	WETLAND SAL01	SALINE (FEN)	56.573903999999998859493643976747989654541015625	-111.277773999999993748133420012891292572021484375	HOBO Rain Gauge Data Logger - RG3	HOBO Temperature/RH Smart Sensor (S-THB-M002)	Soil Moisture Smart Sensor - EC5 (S-SMC-M005)	2019-07-03T22:00:01	0.00	10.736	67.500	0.6075	5.0
1284	AB07CD0350	WETLAND SAL01	SALINE (FEN)	56.573903999999998859493643976747989654541015625	-111.277773999999993748133420012891292572021484375	HOBO Rain Gauge Data Logger - RG3	HOBO Temperature/RH Smart Sensor (S-THB-M002)	Soil Moisture Smart Sensor - EC5 (S-SMC-M005)	2019-07-03T23:00:01	0.00	7.895	85.900	0.6075	5.7
1285	AB07CD0350	WETLAND SAL01	SALINE (FEN)	56.573903999999998859493643976747989654541015625	-111.277773999999993748133420012891292572021484375	HOBO Rain Gauge Data Logger - RG3	HOBO Temperature/RH Smart Sensor (S-THB-M002)	Soil Moisture Smart Sensor - EC5 (S-SMC-M005)	2019-07-04T00:00:01	0.00	7.770	91.700	0.6075	6.5
1286	AB07CD0350	WETLAND SAL01	SALINE (FEN)	56.573903999999998859493643976747989654541015625	-111.277773999999993748133420012891292572021484375	HOBO Rain Gauge Data Logger - RG3	HOBO Temperature/RH Smart Sensor (S-THB-M002)	Soil Moisture Smart Sensor - EC5 (S-SMC-M005)	2019-07-04T01:00:01	0.00	8.916	92.600	0.6075	7.8
1287	AB07CD0350	WETLAND SAL01	SALINE (FEN)	56.573903999999998859493643976747989654541015625	-111.277773999999993748133420012891292572021484375	HOBO Rain Gauge Data Logger - RG3	HOBO Temperature/RH Smart Sensor (S-THB-M002)	Soil Moisture Smart Sensor - EC5 (S-SMC-M005)	2019-07-04T02:00:01	0.00	8.020	93.600	0.6075	7.1
1288	AB07CD0350	WETLAND SAL01	SALINE (FEN)	56.573903999999998859493643976747989654541015625	-111.277773999999993748133420012891292572021484375	HOBO Rain Gauge Data Logger - RG3	HOBO Temperature/RH Smart Sensor (S-THB-M002)	Soil Moisture Smart Sensor - EC5 (S-SMC-M005)	2019-07-04T03:00:01	0.00	7.268	94.800	0.6082	6.5
1289	AB07CD0350	WETLAND SAL01	SALINE (FEN)	56.573903999999998859493643976747989654541015625	-111.277773999999993748133420012891292572021484375	HOBO Rain Gauge Data Logger - RG3	HOBO Temperature/RH Smart Sensor (S-THB-M002)	Soil Moisture Smart Sensor - EC5 (S-SMC-M005)	2019-07-04T04:00:01	0.00	8.270	95.600	0.6082	7.6
1290	AB07CD0350	WETLAND SAL01	SALINE (FEN)	56.573903999999998859493643976747989654541015625	-111.277773999999993748133420012891292572021484375	HOBO Rain Gauge Data Logger - RG3	HOBO Temperature/RH Smart Sensor (S-THB-M002)	Soil Moisture Smart Sensor - EC5 (S-SMC-M005)	2019-07-04T05:00:01	0.00	8.394	95.300	0.6075	7.7
1291	AB07CD0350	WETLAND SAL01	SALINE (FEN)	56.573903999999998859493643976747989654541015625	-111.277773999999993748133420012891292572021484375	HOBO Rain Gauge Data Logger - RG3	HOBO Temperature/RH Smart Sensor (S-THB-M002)	Soil Moisture Smart Sensor - EC5 (S-SMC-M005)	2019-07-04T06:00:01	0.00	9.460	94.500	0.6082	8.6
1292	AB07CD0350	WETLAND SAL01	SALINE (FEN)	56.573903999999998859493643976747989654541015625	-111.277773999999993748133420012891292572021484375	HOBO Rain Gauge Data Logger - RG3	HOBO Temperature/RH Smart Sensor (S-THB-M002)	Soil Moisture Smart Sensor - EC5 (S-SMC-M005)	2019-07-04T07:00:01	0.00	10.858	91.800	0.6082	9.6
1293	AB07CD0350	WETLAND SAL01	SALINE (FEN)	56.573903999999998859493643976747989654541015625	-111.277773999999993748133420012891292572021484375	HOBO Rain Gauge Data Logger - RG3	HOBO Temperature/RH Smart Sensor (S-THB-M002)	Soil Moisture Smart Sensor - EC5 (S-SMC-M005)	2019-07-04T08:00:01	0.00	12.122	86.200	0.6075	9.9
1294	AB07CD0350	WETLAND SAL01	SALINE (FEN)	56.573903999999998859493643976747989654541015625	-111.277773999999993748133420012891292572021484375	HOBO Rain Gauge Data Logger - RG3	HOBO Temperature/RH Smart Sensor (S-THB-M002)	Soil Moisture Smart Sensor - EC5 (S-SMC-M005)	2019-07-04T09:00:01	0.00	13.858	80.100	0.6075	10.5
1295	AB07CD0350	WETLAND SAL01	SALINE (FEN)	56.573903999999998859493643976747989654541015625	-111.277773999999993748133420012891292572021484375	HOBO Rain Gauge Data Logger - RG3	HOBO Temperature/RH Smart Sensor (S-THB-M002)	Soil Moisture Smart Sensor - EC5 (S-SMC-M005)	2019-07-04T10:00:01	0.00	13.353	74.000	0.6075	8.8
1296	AB07CD0350	WETLAND SAL01	SALINE (FEN)	56.573903999999998859493643976747989654541015625	-111.277773999999993748133420012891292572021484375	HOBO Rain Gauge Data Logger - RG3	HOBO Temperature/RH Smart Sensor (S-THB-M002)	Soil Moisture Smart Sensor - EC5 (S-SMC-M005)	2019-07-04T11:00:01	0.00	13.666	74.300	0.6075	9.2
1297	AB07CD0350	WETLAND SAL01	SALINE (FEN)	56.573903999999998859493643976747989654541015625	-111.277773999999993748133420012891292572021484375	HOBO Rain Gauge Data Logger - RG3	HOBO Temperature/RH Smart Sensor (S-THB-M002)	Soil Moisture Smart Sensor - EC5 (S-SMC-M005)	2019-07-04T12:00:01	0.00	13.522	72.400	0.6075	8.7
1298	AB07CD0350	WETLAND SAL01	SALINE (FEN)	56.573903999999998859493643976747989654541015625	-111.277773999999993748133420012891292572021484375	HOBO Rain Gauge Data Logger - RG3	HOBO Temperature/RH Smart Sensor (S-THB-M002)	Soil Moisture Smart Sensor - EC5 (S-SMC-M005)	2019-07-04T13:00:01	0.00	13.690	70.700	0.6075	8.5
1299	AB07CD0350	WETLAND SAL01	SALINE (FEN)	56.573903999999998859493643976747989654541015625	-111.277773999999993748133420012891292572021484375	HOBO Rain Gauge Data Logger - RG3	HOBO Temperature/RH Smart Sensor (S-THB-M002)	Soil Moisture Smart Sensor - EC5 (S-SMC-M005)	2019-07-04T14:00:01	0.00	14.074	69.600	0.6075	8.6
1300	AB07CD0350	WETLAND SAL01	SALINE (FEN)	56.573903999999998859493643976747989654541015625	-111.277773999999993748133420012891292572021484375	HOBO Rain Gauge Data Logger - RG3	HOBO Temperature/RH Smart Sensor (S-THB-M002)	Soil Moisture Smart Sensor - EC5 (S-SMC-M005)	2019-07-04T15:00:01	0.00	14.122	69.100	0.6075	8.6
1301	AB07CD0350	WETLAND SAL01	SALINE (FEN)	56.573903999999998859493643976747989654541015625	-111.277773999999993748133420012891292572021484375	HOBO Rain Gauge Data Logger - RG3	HOBO Temperature/RH Smart Sensor (S-THB-M002)	Soil Moisture Smart Sensor - EC5 (S-SMC-M005)	2019-07-04T16:00:01	0.00	15.605	71.000	0.6075	10.4
1302	AB07CD0350	WETLAND SAL01	SALINE (FEN)	56.573903999999998859493643976747989654541015625	-111.277773999999993748133420012891292572021484375	HOBO Rain Gauge Data Logger - RG3	HOBO Temperature/RH Smart Sensor (S-THB-M002)	Soil Moisture Smart Sensor - EC5 (S-SMC-M005)	2019-07-04T17:00:01	0.00	15.652	71.200	0.6068	10.5
1303	AB07CD0350	WETLAND SAL01	SALINE (FEN)	56.573903999999998859493643976747989654541015625	-111.277773999999993748133420012891292572021484375	HOBO Rain Gauge Data Logger - RG3	HOBO Temperature/RH Smart Sensor (S-THB-M002)	Soil Moisture Smart Sensor - EC5 (S-SMC-M005)	2019-07-04T18:00:01	0.00	15.963	73.600	0.6075	11.3
1304	AB07CD0350	WETLAND SAL01	SALINE (FEN)	56.573903999999998859493643976747989654541015625	-111.277773999999993748133420012891292572021484375	HOBO Rain Gauge Data Logger - RG3	HOBO Temperature/RH Smart Sensor (S-THB-M002)	Soil Moisture Smart Sensor - EC5 (S-SMC-M005)	2019-07-04T19:00:01	0.00	17.748	69.000	0.6068	12.0
1305	AB07CD0350	WETLAND SAL01	SALINE (FEN)	56.573903999999998859493643976747989654541015625	-111.277773999999993748133420012891292572021484375	HOBO Rain Gauge Data Logger - RG3	HOBO Temperature/RH Smart Sensor (S-THB-M002)	Soil Moisture Smart Sensor - EC5 (S-SMC-M005)	2019-07-04T20:00:01	0.00	16.773	62.400	0.6068	9.6
1306	AB07CD0350	WETLAND SAL01	SALINE (FEN)	56.573903999999998859493643976747989654541015625	-111.277773999999993748133420012891292572021484375	HOBO Rain Gauge Data Logger - RG3	HOBO Temperature/RH Smart Sensor (S-THB-M002)	Soil Moisture Smart Sensor - EC5 (S-SMC-M005)	2019-07-04T21:00:01	0.00	15.724	67.700	0.6075	9.8
1307	AB07CD0350	WETLAND SAL01	SALINE (FEN)	56.573903999999998859493643976747989654541015625	-111.277773999999993748133420012891292572021484375	HOBO Rain Gauge Data Logger - RG3	HOBO Temperature/RH Smart Sensor (S-THB-M002)	Soil Moisture Smart Sensor - EC5 (S-SMC-M005)	2019-07-04T22:00:01	0.00	12.340	76.100	0.6075	8.3
1308	AB07CD0350	WETLAND SAL01	SALINE (FEN)	56.573903999999998859493643976747989654541015625	-111.277773999999993748133420012891292572021484375	HOBO Rain Gauge Data Logger - RG3	HOBO Temperature/RH Smart Sensor (S-THB-M002)	Soil Moisture Smart Sensor - EC5 (S-SMC-M005)	2019-07-04T23:00:01	0.00	10.614	87.600	0.6075	8.7
1309	AB07CD0350	WETLAND SAL01	SALINE (FEN)	56.573903999999998859493643976747989654541015625	-111.277773999999993748133420012891292572021484375	HOBO Rain Gauge Data Logger - RG3	HOBO Temperature/RH Smart Sensor (S-THB-M002)	Soil Moisture Smart Sensor - EC5 (S-SMC-M005)	2019-07-05T00:00:01	0.00	10.932	89.700	0.6068	9.3
1310	AB07CD0350	WETLAND SAL01	SALINE (FEN)	56.573903999999998859493643976747989654541015625	-111.277773999999993748133420012891292572021484375	HOBO Rain Gauge Data Logger - RG3	HOBO Temperature/RH Smart Sensor (S-THB-M002)	Soil Moisture Smart Sensor - EC5 (S-SMC-M005)	2019-07-05T01:00:01	0.00	11.492	88.000	0.6075	9.6
1311	AB07CD0350	WETLAND SAL01	SALINE (FEN)	56.573903999999998859493643976747989654541015625	-111.277773999999993748133420012891292572021484375	HOBO Rain Gauge Data Logger - RG3	HOBO Temperature/RH Smart Sensor (S-THB-M002)	Soil Moisture Smart Sensor - EC5 (S-SMC-M005)	2019-07-05T02:00:01	0.00	11.151	87.700	0.6075	9.2
1312	AB07CD0350	WETLAND SAL01	SALINE (FEN)	56.573903999999998859493643976747989654541015625	-111.277773999999993748133420012891292572021484375	HOBO Rain Gauge Data Logger - RG3	HOBO Temperature/RH Smart Sensor (S-THB-M002)	Soil Moisture Smart Sensor - EC5 (S-SMC-M005)	2019-07-05T03:00:01	0.00	11.200	88.800	0.6075	9.4
1313	AB07CD0350	WETLAND SAL01	SALINE (FEN)	56.573903999999998859493643976747989654541015625	-111.277773999999993748133420012891292572021484375	HOBO Rain Gauge Data Logger - RG3	HOBO Temperature/RH Smart Sensor (S-THB-M002)	Soil Moisture Smart Sensor - EC5 (S-SMC-M005)	2019-07-05T04:00:01	0.00	10.712	89.100	0.6075	9.0
1314	AB07CD0350	WETLAND SAL01	SALINE (FEN)	56.573903999999998859493643976747989654541015625	-111.277773999999993748133420012891292572021484375	HOBO Rain Gauge Data Logger - RG3	HOBO Temperature/RH Smart Sensor (S-THB-M002)	Soil Moisture Smart Sensor - EC5 (S-SMC-M005)	2019-07-05T05:00:01	0.00	10.124	90.400	0.6068	8.6
1315	AB07CD0350	WETLAND SAL01	SALINE (FEN)	56.573903999999998859493643976747989654541015625	-111.277773999999993748133420012891292572021484375	HOBO Rain Gauge Data Logger - RG3	HOBO Temperature/RH Smart Sensor (S-THB-M002)	Soil Moisture Smart Sensor - EC5 (S-SMC-M005)	2019-07-05T06:00:01	0.00	12.219	88.500	0.6075	10.4
1316	AB07CD0350	WETLAND SAL01	SALINE (FEN)	56.573903999999998859493643976747989654541015625	-111.277773999999993748133420012891292572021484375	HOBO Rain Gauge Data Logger - RG3	HOBO Temperature/RH Smart Sensor (S-THB-M002)	Soil Moisture Smart Sensor - EC5 (S-SMC-M005)	2019-07-05T07:00:01	0.00	14.481	80.800	0.6075	11.2
1317	AB07CD0350	WETLAND SAL01	SALINE (FEN)	56.573903999999998859493643976747989654541015625	-111.277773999999993748133420012891292572021484375	HOBO Rain Gauge Data Logger - RG3	HOBO Temperature/RH Smart Sensor (S-THB-M002)	Soil Moisture Smart Sensor - EC5 (S-SMC-M005)	2019-07-05T08:00:01	0.00	16.796	72.400	0.6075	11.8
1318	AB07CD0350	WETLAND SAL01	SALINE (FEN)	56.573903999999998859493643976747989654541015625	-111.277773999999993748133420012891292572021484375	HOBO Rain Gauge Data Logger - RG3	HOBO Temperature/RH Smart Sensor (S-THB-M002)	Soil Moisture Smart Sensor - EC5 (S-SMC-M005)	2019-07-05T09:00:01	0.00	18.961	64.500	0.6075	12.1
1319	AB07CD0350	WETLAND SAL01	SALINE (FEN)	56.573903999999998859493643976747989654541015625	-111.277773999999993748133420012891292572021484375	HOBO Rain Gauge Data Logger - RG3	HOBO Temperature/RH Smart Sensor (S-THB-M002)	Soil Moisture Smart Sensor - EC5 (S-SMC-M005)	2019-07-05T10:00:01	0.00	20.031	55.400	0.6075	10.8
1320	AB07CD0350	WETLAND SAL01	SALINE (FEN)	56.573903999999998859493643976747989654541015625	-111.277773999999993748133420012891292572021484375	HOBO Rain Gauge Data Logger - RG3	HOBO Temperature/RH Smart Sensor (S-THB-M002)	Soil Moisture Smart Sensor - EC5 (S-SMC-M005)	2019-07-05T11:00:01	0.00	20.246	49.300	0.6068	9.3
1321	AB07CD0350	WETLAND SAL01	SALINE (FEN)	56.573903999999998859493643976747989654541015625	-111.277773999999993748133420012891292572021484375	HOBO Rain Gauge Data Logger - RG3	HOBO Temperature/RH Smart Sensor (S-THB-M002)	Soil Moisture Smart Sensor - EC5 (S-SMC-M005)	2019-07-05T12:00:01	0.00	22.465	44.400	0.6068	9.8
1322	AB07CD0350	WETLAND SAL01	SALINE (FEN)	56.573903999999998859493643976747989654541015625	-111.277773999999993748133420012891292572021484375	HOBO Rain Gauge Data Logger - RG3	HOBO Temperature/RH Smart Sensor (S-THB-M002)	Soil Moisture Smart Sensor - EC5 (S-SMC-M005)	2019-07-05T13:00:01	0.00	21.294	39.600	0.6068	7.0
1323	AB07CD0350	WETLAND SAL01	SALINE (FEN)	56.573903999999998859493643976747989654541015625	-111.277773999999993748133420012891292572021484375	HOBO Rain Gauge Data Logger - RG3	HOBO Temperature/RH Smart Sensor (S-THB-M002)	Soil Moisture Smart Sensor - EC5 (S-SMC-M005)	2019-07-05T14:00:01	0.00	22.896	37.300	0.6068	7.6
1324	AB07CD0350	WETLAND SAL01	SALINE (FEN)	56.573903999999998859493643976747989654541015625	-111.277773999999993748133420012891292572021484375	HOBO Rain Gauge Data Logger - RG3	HOBO Temperature/RH Smart Sensor (S-THB-M002)	Soil Moisture Smart Sensor - EC5 (S-SMC-M005)	2019-07-05T15:00:01	0.00	23.978	34.900	0.6068	7.6
1325	AB07CD0350	WETLAND SAL01	SALINE (FEN)	56.573903999999998859493643976747989654541015625	-111.277773999999993748133420012891292572021484375	HOBO Rain Gauge Data Logger - RG3	HOBO Temperature/RH Smart Sensor (S-THB-M002)	Soil Moisture Smart Sensor - EC5 (S-SMC-M005)	2019-07-05T16:00:01	0.00	24.291	32.400	0.6068	6.7
1326	AB07CD0350	WETLAND SAL01	SALINE (FEN)	56.573903999999998859493643976747989654541015625	-111.277773999999993748133420012891292572021484375	HOBO Rain Gauge Data Logger - RG3	HOBO Temperature/RH Smart Sensor (S-THB-M002)	Soil Moisture Smart Sensor - EC5 (S-SMC-M005)	2019-07-05T17:00:01	0.00	24.291	32.400	0.6068	6.7
1327	AB07CD0350	WETLAND SAL01	SALINE (FEN)	56.573903999999998859493643976747989654541015625	-111.277773999999993748133420012891292572021484375	HOBO Rain Gauge Data Logger - RG3	HOBO Temperature/RH Smart Sensor (S-THB-M002)	Soil Moisture Smart Sensor - EC5 (S-SMC-M005)	2019-07-05T18:00:01	0.00	23.472	33.500	0.6068	6.5
1328	AB07CD0350	WETLAND SAL01	SALINE (FEN)	56.573903999999998859493643976747989654541015625	-111.277773999999993748133420012891292572021484375	HOBO Rain Gauge Data Logger - RG3	HOBO Temperature/RH Smart Sensor (S-THB-M002)	Soil Moisture Smart Sensor - EC5 (S-SMC-M005)	2019-07-05T19:00:01	0.00	21.533	37.900	0.6075	6.6
1329	AB07CD0350	WETLAND SAL01	SALINE (FEN)	56.573903999999998859493643976747989654541015625	-111.277773999999993748133420012891292572021484375	HOBO Rain Gauge Data Logger - RG3	HOBO Temperature/RH Smart Sensor (S-THB-M002)	Soil Moisture Smart Sensor - EC5 (S-SMC-M005)	2019-07-05T20:00:01	0.00	19.912	44.700	0.6068	7.5
1330	AB07CD0350	WETLAND SAL01	SALINE (FEN)	56.573903999999998859493643976747989654541015625	-111.277773999999993748133420012891292572021484375	HOBO Rain Gauge Data Logger - RG3	HOBO Temperature/RH Smart Sensor (S-THB-M002)	Soil Moisture Smart Sensor - EC5 (S-SMC-M005)	2019-07-05T21:00:01	0.00	20.793	44.800	0.6075	8.4
1331	AB07CD0350	WETLAND SAL01	SALINE (FEN)	56.573903999999998859493643976747989654541015625	-111.277773999999993748133420012891292572021484375	HOBO Rain Gauge Data Logger - RG3	HOBO Temperature/RH Smart Sensor (S-THB-M002)	Soil Moisture Smart Sensor - EC5 (S-SMC-M005)	2019-07-05T22:00:01	0.00	15.867	48.200	0.6075	4.9
1332	AB07CD0350	WETLAND SAL01	SALINE (FEN)	56.573903999999998859493643976747989654541015625	-111.277773999999993748133420012891292572021484375	HOBO Rain Gauge Data Logger - RG3	HOBO Temperature/RH Smart Sensor (S-THB-M002)	Soil Moisture Smart Sensor - EC5 (S-SMC-M005)	2019-07-05T23:00:01	0.00	11.321	76.000	0.6075	7.3
1333	AB07CD0350	WETLAND SAL01	SALINE (FEN)	56.573903999999998859493643976747989654541015625	-111.277773999999993748133420012891292572021484375	HOBO Rain Gauge Data Logger - RG3	HOBO Temperature/RH Smart Sensor (S-THB-M002)	Soil Moisture Smart Sensor - EC5 (S-SMC-M005)	2019-07-06T00:00:01	0.00	8.643	83.000	0.6082	5.9
1334	AB07CD0350	WETLAND SAL01	SALINE (FEN)	56.573903999999998859493643976747989654541015625	-111.277773999999993748133420012891292572021484375	HOBO Rain Gauge Data Logger - RG3	HOBO Temperature/RH Smart Sensor (S-THB-M002)	Soil Moisture Smart Sensor - EC5 (S-SMC-M005)	2019-07-06T01:00:01	0.00	8.568	89.100	0.6082	6.9
1335	AB07CD0350	WETLAND SAL01	SALINE (FEN)	56.573903999999998859493643976747989654541015625	-111.277773999999993748133420012891292572021484375	HOBO Rain Gauge Data Logger - RG3	HOBO Temperature/RH Smart Sensor (S-THB-M002)	Soil Moisture Smart Sensor - EC5 (S-SMC-M005)	2019-07-06T02:00:01	0.00	10.467	87.700	0.6082	8.5
1336	AB07CD0350	WETLAND SAL01	SALINE (FEN)	56.573903999999998859493643976747989654541015625	-111.277773999999993748133420012891292572021484375	HOBO Rain Gauge Data Logger - RG3	HOBO Temperature/RH Smart Sensor (S-THB-M002)	Soil Moisture Smart Sensor - EC5 (S-SMC-M005)	2019-07-06T03:00:01	0.00	11.127	74.900	0.6082	6.9
1337	AB07CD0350	WETLAND SAL01	SALINE (FEN)	56.573903999999998859493643976747989654541015625	-111.277773999999993748133420012891292572021484375	HOBO Rain Gauge Data Logger - RG3	HOBO Temperature/RH Smart Sensor (S-THB-M002)	Soil Moisture Smart Sensor - EC5 (S-SMC-M005)	2019-07-06T04:00:01	0.00	9.386	78.800	0.6082	5.9
1338	AB07CD0350	WETLAND SAL01	SALINE (FEN)	56.573903999999998859493643976747989654541015625	-111.277773999999993748133420012891292572021484375	HOBO Rain Gauge Data Logger - RG3	HOBO Temperature/RH Smart Sensor (S-THB-M002)	Soil Moisture Smart Sensor - EC5 (S-SMC-M005)	2019-07-06T05:00:01	0.00	6.128	85.200	0.6082	3.8
1339	AB07CD0350	WETLAND SAL01	SALINE (FEN)	56.573903999999998859493643976747989654541015625	-111.277773999999993748133420012891292572021484375	HOBO Rain Gauge Data Logger - RG3	HOBO Temperature/RH Smart Sensor (S-THB-M002)	Soil Moisture Smart Sensor - EC5 (S-SMC-M005)	2019-07-06T06:00:01	0.00	11.370	85.900	0.6089	9.1
1340	AB07CD0350	WETLAND SAL01	SALINE (FEN)	56.573903999999998859493643976747989654541015625	-111.277773999999993748133420012891292572021484375	HOBO Rain Gauge Data Logger - RG3	HOBO Temperature/RH Smart Sensor (S-THB-M002)	Soil Moisture Smart Sensor - EC5 (S-SMC-M005)	2019-07-06T07:00:01	0.00	14.409	72.200	0.6089	9.5
1341	AB07CD0350	WETLAND SAL01	SALINE (FEN)	56.573903999999998859493643976747989654541015625	-111.277773999999993748133420012891292572021484375	HOBO Rain Gauge Data Logger - RG3	HOBO Temperature/RH Smart Sensor (S-THB-M002)	Soil Moisture Smart Sensor - EC5 (S-SMC-M005)	2019-07-06T08:00:01	0.00	16.844	63.600	0.6082	9.9
1342	AB07CD0350	WETLAND SAL01	SALINE (FEN)	56.573903999999998859493643976747989654541015625	-111.277773999999993748133420012891292572021484375	HOBO Rain Gauge Data Logger - RG3	HOBO Temperature/RH Smart Sensor (S-THB-M002)	Soil Moisture Smart Sensor - EC5 (S-SMC-M005)	2019-07-06T09:00:01	0.00	18.604	57.500	0.6082	10.1
1343	AB07CD0350	WETLAND SAL01	SALINE (FEN)	56.573903999999998859493643976747989654541015625	-111.277773999999993748133420012891292572021484375	HOBO Rain Gauge Data Logger - RG3	HOBO Temperature/RH Smart Sensor (S-THB-M002)	Soil Moisture Smart Sensor - EC5 (S-SMC-M005)	2019-07-06T10:00:01	0.00	20.936	52.100	0.6089	10.8
1344	AB07CD0350	WETLAND SAL01	SALINE (FEN)	56.573903999999998859493643976747989654541015625	-111.277773999999993748133420012891292572021484375	HOBO Rain Gauge Data Logger - RG3	HOBO Temperature/RH Smart Sensor (S-THB-M002)	Soil Moisture Smart Sensor - EC5 (S-SMC-M005)	2019-07-06T11:00:01	0.00	22.800	44.600	0.6082	10.1
1345	AB07CD0350	WETLAND SAL01	SALINE (FEN)	56.573903999999998859493643976747989654541015625	-111.277773999999993748133420012891292572021484375	HOBO Rain Gauge Data Logger - RG3	HOBO Temperature/RH Smart Sensor (S-THB-M002)	Soil Moisture Smart Sensor - EC5 (S-SMC-M005)	2019-07-06T12:00:01	0.00	21.700	39.400	0.6082	7.3
1346	AB07CD0350	WETLAND SAL01	SALINE (FEN)	56.573903999999998859493643976747989654541015625	-111.277773999999993748133420012891292572021484375	HOBO Rain Gauge Data Logger - RG3	HOBO Temperature/RH Smart Sensor (S-THB-M002)	Soil Moisture Smart Sensor - EC5 (S-SMC-M005)	2019-07-06T13:00:01	0.00	24.171	37.700	0.6082	8.9
1347	AB07CD0350	WETLAND SAL01	SALINE (FEN)	56.573903999999998859493643976747989654541015625	-111.277773999999993748133420012891292572021484375	HOBO Rain Gauge Data Logger - RG3	HOBO Temperature/RH Smart Sensor (S-THB-M002)	Soil Moisture Smart Sensor - EC5 (S-SMC-M005)	2019-07-06T14:00:01	0.00	22.896	34.900	0.6089	6.6
1348	AB07CD0350	WETLAND SAL01	SALINE (FEN)	56.573903999999998859493643976747989654541015625	-111.277773999999993748133420012891292572021484375	HOBO Rain Gauge Data Logger - RG3	HOBO Temperature/RH Smart Sensor (S-THB-M002)	Soil Moisture Smart Sensor - EC5 (S-SMC-M005)	2019-07-06T15:00:01	0.00	23.232	36.400	0.6089	7.5
1349	AB07CD0350	WETLAND SAL01	SALINE (FEN)	56.573903999999998859493643976747989654541015625	-111.277773999999993748133420012891292572021484375	HOBO Rain Gauge Data Logger - RG3	HOBO Temperature/RH Smart Sensor (S-THB-M002)	Soil Moisture Smart Sensor - EC5 (S-SMC-M005)	2019-07-06T16:00:01	0.00	23.521	35.700	0.6082	7.5
1350	AB07CD0350	WETLAND SAL01	SALINE (FEN)	56.573903999999998859493643976747989654541015625	-111.277773999999993748133420012891292572021484375	HOBO Rain Gauge Data Logger - RG3	HOBO Temperature/RH Smart Sensor (S-THB-M002)	Soil Moisture Smart Sensor - EC5 (S-SMC-M005)	2019-07-06T17:00:01	0.00	24.919	34.300	0.6089	8.1
1351	AB07CD0350	WETLAND SAL01	SALINE (FEN)	56.573903999999998859493643976747989654541015625	-111.277773999999993748133420012891292572021484375	HOBO Rain Gauge Data Logger - RG3	HOBO Temperature/RH Smart Sensor (S-THB-M002)	Soil Moisture Smart Sensor - EC5 (S-SMC-M005)	2019-07-06T18:00:01	0.00	22.920	37.100	0.6089	7.5
1352	AB07CD0350	WETLAND SAL01	SALINE (FEN)	56.573903999999998859493643976747989654541015625	-111.277773999999993748133420012891292572021484375	HOBO Rain Gauge Data Logger - RG3	HOBO Temperature/RH Smart Sensor (S-THB-M002)	Soil Moisture Smart Sensor - EC5 (S-SMC-M005)	2019-07-06T19:00:01	0.00	22.561	40.700	0.6082	8.6
1353	AB07CD0350	WETLAND SAL01	SALINE (FEN)	56.573903999999998859493643976747989654541015625	-111.277773999999993748133420012891292572021484375	HOBO Rain Gauge Data Logger - RG3	HOBO Temperature/RH Smart Sensor (S-THB-M002)	Soil Moisture Smart Sensor - EC5 (S-SMC-M005)	2019-07-06T20:00:01	0.00	22.848	42.500	0.6089	9.5
1354	AB07CD0350	WETLAND SAL01	SALINE (FEN)	56.573903999999998859493643976747989654541015625	-111.277773999999993748133420012891292572021484375	HOBO Rain Gauge Data Logger - RG3	HOBO Temperature/RH Smart Sensor (S-THB-M002)	Soil Moisture Smart Sensor - EC5 (S-SMC-M005)	2019-07-06T21:00:01	0.00	21.294	46.100	0.6082	9.3
1355	AB07CD0350	WETLAND SAL01	SALINE (FEN)	56.573903999999998859493643976747989654541015625	-111.277773999999993748133420012891292572021484375	HOBO Rain Gauge Data Logger - RG3	HOBO Temperature/RH Smart Sensor (S-THB-M002)	Soil Moisture Smart Sensor - EC5 (S-SMC-M005)	2019-07-06T22:00:01	0.00	18.913	54.100	0.6082	9.4
1356	AB07CD0350	WETLAND SAL01	SALINE (FEN)	56.573903999999998859493643976747989654541015625	-111.277773999999993748133420012891292572021484375	HOBO Rain Gauge Data Logger - RG3	HOBO Temperature/RH Smart Sensor (S-THB-M002)	Soil Moisture Smart Sensor - EC5 (S-SMC-M005)	2019-07-06T23:00:01	0.00	17.344	60.500	0.6089	9.6
1357	AB07CD0350	WETLAND SAL01	SALINE (FEN)	56.573903999999998859493643976747989654541015625	-111.277773999999993748133420012891292572021484375	HOBO Rain Gauge Data Logger - RG3	HOBO Temperature/RH Smart Sensor (S-THB-M002)	Soil Moisture Smart Sensor - EC5 (S-SMC-M005)	2019-07-07T00:00:01	0.00	17.082	63.400	0.6089	10.1
1358	AB07CD0350	WETLAND SAL01	SALINE (FEN)	56.573903999999998859493643976747989654541015625	-111.277773999999993748133420012891292572021484375	HOBO Rain Gauge Data Logger - RG3	HOBO Temperature/RH Smart Sensor (S-THB-M002)	Soil Moisture Smart Sensor - EC5 (S-SMC-M005)	2019-07-07T01:00:01	0.00	16.368	66.100	0.6089	10.0
1359	AB07CD0350	WETLAND SAL01	SALINE (FEN)	56.573903999999998859493643976747989654541015625	-111.277773999999993748133420012891292572021484375	HOBO Rain Gauge Data Logger - RG3	HOBO Temperature/RH Smart Sensor (S-THB-M002)	Soil Moisture Smart Sensor - EC5 (S-SMC-M005)	2019-07-07T02:00:01	0.00	15.796	71.600	0.6089	10.7
1360	AB07CD0350	WETLAND SAL01	SALINE (FEN)	56.573903999999998859493643976747989654541015625	-111.277773999999993748133420012891292572021484375	HOBO Rain Gauge Data Logger - RG3	HOBO Temperature/RH Smart Sensor (S-THB-M002)	Soil Moisture Smart Sensor - EC5 (S-SMC-M005)	2019-07-07T03:00:01	0.00	15.008	74.200	0.6089	10.5
1361	AB07CD0350	WETLAND SAL01	SALINE (FEN)	56.573903999999998859493643976747989654541015625	-111.277773999999993748133420012891292572021484375	HOBO Rain Gauge Data Logger - RG3	HOBO Temperature/RH Smart Sensor (S-THB-M002)	Soil Moisture Smart Sensor - EC5 (S-SMC-M005)	2019-07-07T04:00:01	0.00	14.433	78.500	0.6089	10.8
1362	AB07CD0350	WETLAND SAL01	SALINE (FEN)	56.573903999999998859493643976747989654541015625	-111.277773999999993748133420012891292572021484375	HOBO Rain Gauge Data Logger - RG3	HOBO Temperature/RH Smart Sensor (S-THB-M002)	Soil Moisture Smart Sensor - EC5 (S-SMC-M005)	2019-07-07T05:00:01	0.00	14.457	79.700	0.6089	11.0
1363	AB07CD0350	WETLAND SAL01	SALINE (FEN)	56.573903999999998859493643976747989654541015625	-111.277773999999993748133420012891292572021484375	HOBO Rain Gauge Data Logger - RG3	HOBO Temperature/RH Smart Sensor (S-THB-M002)	Soil Moisture Smart Sensor - EC5 (S-SMC-M005)	2019-07-07T06:00:01	0.00	14.505	81.700	0.6089	11.4
1364	AB07CD0350	WETLAND SAL01	SALINE (FEN)	56.573903999999998859493643976747989654541015625	-111.277773999999993748133420012891292572021484375	HOBO Rain Gauge Data Logger - RG3	HOBO Temperature/RH Smart Sensor (S-THB-M002)	Soil Moisture Smart Sensor - EC5 (S-SMC-M005)	2019-07-07T07:00:01	0.00	16.129	80.900	0.6097	12.9
1365	AB07CD0350	WETLAND SAL01	SALINE (FEN)	56.573903999999998859493643976747989654541015625	-111.277773999999993748133420012891292572021484375	HOBO Rain Gauge Data Logger - RG3	HOBO Temperature/RH Smart Sensor (S-THB-M002)	Soil Moisture Smart Sensor - EC5 (S-SMC-M005)	2019-07-07T08:00:01	0.00	17.320	75.200	0.6089	12.9
1366	AB07CD0350	WETLAND SAL01	SALINE (FEN)	56.573903999999998859493643976747989654541015625	-111.277773999999993748133420012891292572021484375	HOBO Rain Gauge Data Logger - RG3	HOBO Temperature/RH Smart Sensor (S-THB-M002)	Soil Moisture Smart Sensor - EC5 (S-SMC-M005)	2019-07-07T09:00:01	0.00	17.915	70.200	0.6089	12.4
1367	AB07CD0350	WETLAND SAL01	SALINE (FEN)	56.573903999999998859493643976747989654541015625	-111.277773999999993748133420012891292572021484375	HOBO Rain Gauge Data Logger - RG3	HOBO Temperature/RH Smart Sensor (S-THB-M002)	Soil Moisture Smart Sensor - EC5 (S-SMC-M005)	2019-07-07T10:00:01	0.00	19.127	65.100	0.6089	12.4
1368	AB07CD0350	WETLAND SAL01	SALINE (FEN)	56.573903999999998859493643976747989654541015625	-111.277773999999993748133420012891292572021484375	HOBO Rain Gauge Data Logger - RG3	HOBO Temperature/RH Smart Sensor (S-THB-M002)	Soil Moisture Smart Sensor - EC5 (S-SMC-M005)	2019-07-07T11:00:01	0.00	21.008	59.900	0.6097	12.9
1369	AB07CD0350	WETLAND SAL01	SALINE (FEN)	56.573903999999998859493643976747989654541015625	-111.277773999999993748133420012891292572021484375	HOBO Rain Gauge Data Logger - RG3	HOBO Temperature/RH Smart Sensor (S-THB-M002)	Soil Moisture Smart Sensor - EC5 (S-SMC-M005)	2019-07-07T12:00:01	0.00	21.390	54.800	0.6097	11.9
1370	AB07CD0350	WETLAND SAL01	SALINE (FEN)	56.573903999999998859493643976747989654541015625	-111.277773999999993748133420012891292572021484375	HOBO Rain Gauge Data Logger - RG3	HOBO Temperature/RH Smart Sensor (S-THB-M002)	Soil Moisture Smart Sensor - EC5 (S-SMC-M005)	2019-07-07T13:00:01	0.00	23.472	54.700	0.6097	13.8
1371	AB07CD0350	WETLAND SAL01	SALINE (FEN)	56.573903999999998859493643976747989654541015625	-111.277773999999993748133420012891292572021484375	HOBO Rain Gauge Data Logger - RG3	HOBO Temperature/RH Smart Sensor (S-THB-M002)	Soil Moisture Smart Sensor - EC5 (S-SMC-M005)	2019-07-07T14:00:01	0.00	22.250	58.400	0.6097	13.7
1372	AB07CD0350	WETLAND SAL01	SALINE (FEN)	56.573903999999998859493643976747989654541015625	-111.277773999999993748133420012891292572021484375	HOBO Rain Gauge Data Logger - RG3	HOBO Temperature/RH Smart Sensor (S-THB-M002)	Soil Moisture Smart Sensor - EC5 (S-SMC-M005)	2019-07-07T15:00:01	0.00	20.507	59.000	0.6097	12.2
1373	AB07CD0350	WETLAND SAL01	SALINE (FEN)	56.573903999999998859493643976747989654541015625	-111.277773999999993748133420012891292572021484375	HOBO Rain Gauge Data Logger - RG3	HOBO Temperature/RH Smart Sensor (S-THB-M002)	Soil Moisture Smart Sensor - EC5 (S-SMC-M005)	2019-07-07T16:00:01	0.00	21.008	61.200	0.6097	13.3
1374	AB07CD0350	WETLAND SAL01	SALINE (FEN)	56.573903999999998859493643976747989654541015625	-111.277773999999993748133420012891292572021484375	HOBO Rain Gauge Data Logger - RG3	HOBO Temperature/RH Smart Sensor (S-THB-M002)	Soil Moisture Smart Sensor - EC5 (S-SMC-M005)	2019-07-07T17:00:01	0.00	20.222	58.400	0.6097	11.8
1375	AB07CD0350	WETLAND SAL01	SALINE (FEN)	56.573903999999998859493643976747989654541015625	-111.277773999999993748133420012891292572021484375	HOBO Rain Gauge Data Logger - RG3	HOBO Temperature/RH Smart Sensor (S-THB-M002)	Soil Moisture Smart Sensor - EC5 (S-SMC-M005)	2019-07-07T18:00:01	0.00	17.701	62.700	0.6104	10.5
1376	AB07CD0350	WETLAND SAL01	SALINE (FEN)	56.573903999999998859493643976747989654541015625	-111.277773999999993748133420012891292572021484375	HOBO Rain Gauge Data Logger - RG3	HOBO Temperature/RH Smart Sensor (S-THB-M002)	Soil Moisture Smart Sensor - EC5 (S-SMC-M005)	2019-07-07T19:00:01	0.00	17.558	60.600	0.6104	9.9
1377	AB07CD0350	WETLAND SAL01	SALINE (FEN)	56.573903999999998859493643976747989654541015625	-111.277773999999993748133420012891292572021484375	HOBO Rain Gauge Data Logger - RG3	HOBO Temperature/RH Smart Sensor (S-THB-M002)	Soil Moisture Smart Sensor - EC5 (S-SMC-M005)	2019-07-07T20:00:01	0.00	17.677	57.900	0.6104	9.3
1378	AB07CD0350	WETLAND SAL01	SALINE (FEN)	56.573903999999998859493643976747989654541015625	-111.277773999999993748133420012891292572021484375	HOBO Rain Gauge Data Logger - RG3	HOBO Temperature/RH Smart Sensor (S-THB-M002)	Soil Moisture Smart Sensor - EC5 (S-SMC-M005)	2019-07-07T21:00:01	0.00	16.892	54.600	0.6104	7.7
1379	AB07CD0350	WETLAND SAL01	SALINE (FEN)	56.573903999999998859493643976747989654541015625	-111.277773999999993748133420012891292572021484375	HOBO Rain Gauge Data Logger - RG3	HOBO Temperature/RH Smart Sensor (S-THB-M002)	Soil Moisture Smart Sensor - EC5 (S-SMC-M005)	2019-07-07T22:00:01	0.00	13.858	54.300	0.6104	4.8
1380	AB07CD0350	WETLAND SAL01	SALINE (FEN)	56.573903999999998859493643976747989654541015625	-111.277773999999993748133420012891292572021484375	HOBO Rain Gauge Data Logger - RG3	HOBO Temperature/RH Smart Sensor (S-THB-M002)	Soil Moisture Smart Sensor - EC5 (S-SMC-M005)	2019-07-07T23:00:01	0.00	8.916	62.700	0.6104	2.2
1381	AB07CD0350	WETLAND SAL01	SALINE (FEN)	56.573903999999998859493643976747989654541015625	-111.277773999999993748133420012891292572021484375	HOBO Rain Gauge Data Logger - RG3	HOBO Temperature/RH Smart Sensor (S-THB-M002)	Soil Moisture Smart Sensor - EC5 (S-SMC-M005)	2019-07-08T00:00:01	0.00	6.712	83.900	0.6104	4.2
1382	AB07CD0350	WETLAND SAL01	SALINE (FEN)	56.573903999999998859493643976747989654541015625	-111.277773999999993748133420012891292572021484375	HOBO Rain Gauge Data Logger - RG3	HOBO Temperature/RH Smart Sensor (S-THB-M002)	Soil Moisture Smart Sensor - EC5 (S-SMC-M005)	2019-07-08T01:00:01	0.00	4.324	89.600	0.6104	2.8
1383	AB07CD0350	WETLAND SAL01	SALINE (FEN)	56.573903999999998859493643976747989654541015625	-111.277773999999993748133420012891292572021484375	HOBO Rain Gauge Data Logger - RG3	HOBO Temperature/RH Smart Sensor (S-THB-M002)	Soil Moisture Smart Sensor - EC5 (S-SMC-M005)	2019-07-08T02:00:01	0.00	3.063	92.000	0.6104	1.9
1384	AB07CD0350	WETLAND SAL01	SALINE (FEN)	56.573903999999998859493643976747989654541015625	-111.277773999999993748133420012891292572021484375	HOBO Rain Gauge Data Logger - RG3	HOBO Temperature/RH Smart Sensor (S-THB-M002)	Soil Moisture Smart Sensor - EC5 (S-SMC-M005)	2019-07-08T03:00:01	0.00	2.182	92.800	0.6104	1.1
1385	AB07CD0350	WETLAND SAL01	SALINE (FEN)	56.573903999999998859493643976747989654541015625	-111.277773999999993748133420012891292572021484375	HOBO Rain Gauge Data Logger - RG3	HOBO Temperature/RH Smart Sensor (S-THB-M002)	Soil Moisture Smart Sensor - EC5 (S-SMC-M005)	2019-07-08T04:00:01	0.00	2.289	93.800	0.6104	1.4
1386	AB07CD0350	WETLAND SAL01	SALINE (FEN)	56.573903999999998859493643976747989654541015625	-111.277773999999993748133420012891292572021484375	HOBO Rain Gauge Data Logger - RG3	HOBO Temperature/RH Smart Sensor (S-THB-M002)	Soil Moisture Smart Sensor - EC5 (S-SMC-M005)	2019-07-08T05:00:01	0.00	2.182	94.300	0.6104	1.4
1387	AB07CD0350	WETLAND SAL01	SALINE (FEN)	56.573903999999998859493643976747989654541015625	-111.277773999999993748133420012891292572021484375	HOBO Rain Gauge Data Logger - RG3	HOBO Temperature/RH Smart Sensor (S-THB-M002)	Soil Moisture Smart Sensor - EC5 (S-SMC-M005)	2019-07-08T06:00:01	0.00	5.231	94.200	0.6104	4.4
1388	AB07CD0350	WETLAND SAL01	SALINE (FEN)	56.573903999999998859493643976747989654541015625	-111.277773999999993748133420012891292572021484375	HOBO Rain Gauge Data Logger - RG3	HOBO Temperature/RH Smart Sensor (S-THB-M002)	Soil Moisture Smart Sensor - EC5 (S-SMC-M005)	2019-07-08T07:00:01	0.00	7.594	91.200	0.6104	6.3
1389	AB07CD0350	WETLAND SAL01	SALINE (FEN)	56.573903999999998859493643976747989654541015625	-111.277773999999993748133420012891292572021484375	HOBO Rain Gauge Data Logger - RG3	HOBO Temperature/RH Smart Sensor (S-THB-M002)	Soil Moisture Smart Sensor - EC5 (S-SMC-M005)	2019-07-08T08:00:01	0.00	10.638	85.300	0.6104	8.3
1390	AB07CD0350	WETLAND SAL01	SALINE (FEN)	56.573903999999998859493643976747989654541015625	-111.277773999999993748133420012891292572021484375	HOBO Rain Gauge Data Logger - RG3	HOBO Temperature/RH Smart Sensor (S-THB-M002)	Soil Moisture Smart Sensor - EC5 (S-SMC-M005)	2019-07-08T09:00:01	0.00	14.385	71.900	0.6104	9.4
1391	AB07CD0350	WETLAND SAL01	SALINE (FEN)	56.573903999999998859493643976747989654541015625	-111.277773999999993748133420012891292572021484375	HOBO Rain Gauge Data Logger - RG3	HOBO Temperature/RH Smart Sensor (S-THB-M002)	Soil Moisture Smart Sensor - EC5 (S-SMC-M005)	2019-07-08T10:00:01	0.00	16.201	59.700	0.6104	8.4
1392	AB07CD0350	WETLAND SAL01	SALINE (FEN)	56.573903999999998859493643976747989654541015625	-111.277773999999993748133420012891292572021484375	HOBO Rain Gauge Data Logger - RG3	HOBO Temperature/RH Smart Sensor (S-THB-M002)	Soil Moisture Smart Sensor - EC5 (S-SMC-M005)	2019-07-08T11:00:01	0.00	16.868	52.800	0.6104	7.2
1393	AB07CD0350	WETLAND SAL01	SALINE (FEN)	56.573903999999998859493643976747989654541015625	-111.277773999999993748133420012891292572021484375	HOBO Rain Gauge Data Logger - RG3	HOBO Temperature/RH Smart Sensor (S-THB-M002)	Soil Moisture Smart Sensor - EC5 (S-SMC-M005)	2019-07-08T12:00:01	0.00	18.176	49.100	0.6104	7.3
1394	AB07CD0350	WETLAND SAL01	SALINE (FEN)	56.573903999999998859493643976747989654541015625	-111.277773999999993748133420012891292572021484375	HOBO Rain Gauge Data Logger - RG3	HOBO Temperature/RH Smart Sensor (S-THB-M002)	Soil Moisture Smart Sensor - EC5 (S-SMC-M005)	2019-07-08T13:00:01	0.00	18.010	47.700	0.6104	6.8
1395	AB07CD0350	WETLAND SAL01	SALINE (FEN)	56.573903999999998859493643976747989654541015625	-111.277773999999993748133420012891292572021484375	HOBO Rain Gauge Data Logger - RG3	HOBO Temperature/RH Smart Sensor (S-THB-M002)	Soil Moisture Smart Sensor - EC5 (S-SMC-M005)	2019-07-08T14:00:01	0.00	17.677	50.200	0.6104	7.2
1396	AB07CD0350	WETLAND SAL01	SALINE (FEN)	56.573903999999998859493643976747989654541015625	-111.277773999999993748133420012891292572021484375	HOBO Rain Gauge Data Logger - RG3	HOBO Temperature/RH Smart Sensor (S-THB-M002)	Soil Moisture Smart Sensor - EC5 (S-SMC-M005)	2019-07-08T15:00:01	0.00	18.652	51.200	0.6097	8.4
1397	AB07CD0350	WETLAND SAL01	SALINE (FEN)	56.573903999999998859493643976747989654541015625	-111.277773999999993748133420012891292572021484375	HOBO Rain Gauge Data Logger - RG3	HOBO Temperature/RH Smart Sensor (S-THB-M002)	Soil Moisture Smart Sensor - EC5 (S-SMC-M005)	2019-07-08T16:00:01	0.00	17.534	51.900	0.6097	7.6
1398	AB07CD0350	WETLAND SAL01	SALINE (FEN)	56.573903999999998859493643976747989654541015625	-111.277773999999993748133420012891292572021484375	HOBO Rain Gauge Data Logger - RG3	HOBO Temperature/RH Smart Sensor (S-THB-M002)	Soil Moisture Smart Sensor - EC5 (S-SMC-M005)	2019-07-08T17:00:01	0.00	15.557	56.600	0.6097	7.0
1399	AB07CD0350	WETLAND SAL01	SALINE (FEN)	56.573903999999998859493643976747989654541015625	-111.277773999999993748133420012891292572021484375	HOBO Rain Gauge Data Logger - RG3	HOBO Temperature/RH Smart Sensor (S-THB-M002)	Soil Moisture Smart Sensor - EC5 (S-SMC-M005)	2019-07-08T18:00:01	0.40	12.485	74.700	0.6089	8.1
1400	AB07CD0350	WETLAND SAL01	SALINE (FEN)	56.573903999999998859493643976747989654541015625	-111.277773999999993748133420012891292572021484375	HOBO Rain Gauge Data Logger - RG3	HOBO Temperature/RH Smart Sensor (S-THB-M002)	Soil Moisture Smart Sensor - EC5 (S-SMC-M005)	2019-07-08T19:00:01	0.20	12.413	85.200	0.6089	10.0
1401	AB07CD0350	WETLAND SAL01	SALINE (FEN)	56.573903999999998859493643976747989654541015625	-111.277773999999993748133420012891292572021484375	HOBO Rain Gauge Data Logger - RG3	HOBO Temperature/RH Smart Sensor (S-THB-M002)	Soil Moisture Smart Sensor - EC5 (S-SMC-M005)	2019-07-08T20:00:01	0.80	10.736	88.600	0.6089	8.9
1402	AB07CD0350	WETLAND SAL01	SALINE (FEN)	56.573903999999998859493643976747989654541015625	-111.277773999999993748133420012891292572021484375	HOBO Rain Gauge Data Logger - RG3	HOBO Temperature/RH Smart Sensor (S-THB-M002)	Soil Moisture Smart Sensor - EC5 (S-SMC-M005)	2019-07-08T21:00:01	2.20	10.100	92.400	0.6097	8.9
1403	AB07CD0350	WETLAND SAL01	SALINE (FEN)	56.573903999999998859493643976747989654541015625	-111.277773999999993748133420012891292572021484375	HOBO Rain Gauge Data Logger - RG3	HOBO Temperature/RH Smart Sensor (S-THB-M002)	Soil Moisture Smart Sensor - EC5 (S-SMC-M005)	2019-07-08T22:00:01	1.80	9.632	94.400	0.6097	8.8
1404	AB07CD0350	WETLAND SAL01	SALINE (FEN)	56.573903999999998859493643976747989654541015625	-111.277773999999993748133420012891292572021484375	HOBO Rain Gauge Data Logger - RG3	HOBO Temperature/RH Smart Sensor (S-THB-M002)	Soil Moisture Smart Sensor - EC5 (S-SMC-M005)	2019-07-08T23:00:01	0.60	9.534	96.100	0.6097	9.0
1405	AB07CD0350	WETLAND SAL01	SALINE (FEN)	56.573903999999998859493643976747989654541015625	-111.277773999999993748133420012891292572021484375	HOBO Rain Gauge Data Logger - RG3	HOBO Temperature/RH Smart Sensor (S-THB-M002)	Soil Moisture Smart Sensor - EC5 (S-SMC-M005)	2019-07-09T00:00:01	0.00	9.485	96.800	0.6097	9.0
1406	AB07CD0350	WETLAND SAL01	SALINE (FEN)	56.573903999999998859493643976747989654541015625	-111.277773999999993748133420012891292572021484375	HOBO Rain Gauge Data Logger - RG3	HOBO Temperature/RH Smart Sensor (S-THB-M002)	Soil Moisture Smart Sensor - EC5 (S-SMC-M005)	2019-07-09T01:00:01	0.20	9.163	96.900	0.6097	8.7
1407	AB07CD0350	WETLAND SAL01	SALINE (FEN)	56.573903999999998859493643976747989654541015625	-111.277773999999993748133420012891292572021484375	HOBO Rain Gauge Data Logger - RG3	HOBO Temperature/RH Smart Sensor (S-THB-M002)	Soil Moisture Smart Sensor - EC5 (S-SMC-M005)	2019-07-09T02:00:01	0.20	9.336	96.500	0.6097	8.8
1408	AB07CD0350	WETLAND SAL01	SALINE (FEN)	56.573903999999998859493643976747989654541015625	-111.277773999999993748133420012891292572021484375	HOBO Rain Gauge Data Logger - RG3	HOBO Temperature/RH Smart Sensor (S-THB-M002)	Soil Moisture Smart Sensor - EC5 (S-SMC-M005)	2019-07-09T03:00:01	0.00	8.494	96.200	0.6097	7.9
1409	AB07CD0350	WETLAND SAL01	SALINE (FEN)	56.573903999999998859493643976747989654541015625	-111.277773999999993748133420012891292572021484375	HOBO Rain Gauge Data Logger - RG3	HOBO Temperature/RH Smart Sensor (S-THB-M002)	Soil Moisture Smart Sensor - EC5 (S-SMC-M005)	2019-07-09T04:00:01	0.00	6.179	97.100	0.6104	5.8
1410	AB07CD0350	WETLAND SAL01	SALINE (FEN)	56.573903999999998859493643976747989654541015625	-111.277773999999993748133420012891292572021484375	HOBO Rain Gauge Data Logger - RG3	HOBO Temperature/RH Smart Sensor (S-THB-M002)	Soil Moisture Smart Sensor - EC5 (S-SMC-M005)	2019-07-09T05:00:01	0.00	4.947	97.700	0.6097	4.6
1411	AB07CD0350	WETLAND SAL01	SALINE (FEN)	56.573903999999998859493643976747989654541015625	-111.277773999999993748133420012891292572021484375	HOBO Rain Gauge Data Logger - RG3	HOBO Temperature/RH Smart Sensor (S-THB-M002)	Soil Moisture Smart Sensor - EC5 (S-SMC-M005)	2019-07-09T06:00:01	0.00	6.788	98.000	0.6097	6.5
1412	AB07CD0350	WETLAND SAL01	SALINE (FEN)	56.573903999999998859493643976747989654541015625	-111.277773999999993748133420012891292572021484375	HOBO Rain Gauge Data Logger - RG3	HOBO Temperature/RH Smart Sensor (S-THB-M002)	Soil Moisture Smart Sensor - EC5 (S-SMC-M005)	2019-07-09T07:00:01	0.00	7.494	98.600	0.6097	7.3
1413	AB07CD0350	WETLAND SAL01	SALINE (FEN)	56.573903999999998859493643976747989654541015625	-111.277773999999993748133420012891292572021484375	HOBO Rain Gauge Data Logger - RG3	HOBO Temperature/RH Smart Sensor (S-THB-M002)	Soil Moisture Smart Sensor - EC5 (S-SMC-M005)	2019-07-09T08:00:01	0.00	8.593	98.900	0.6097	8.4
1414	AB07CD0350	WETLAND SAL01	SALINE (FEN)	56.573903999999998859493643976747989654541015625	-111.277773999999993748133420012891292572021484375	HOBO Rain Gauge Data Logger - RG3	HOBO Temperature/RH Smart Sensor (S-THB-M002)	Soil Moisture Smart Sensor - EC5 (S-SMC-M005)	2019-07-09T09:00:01	0.00	9.361	98.700	0.6097	9.2
1415	AB07CD0350	WETLAND SAL01	SALINE (FEN)	56.573903999999998859493643976747989654541015625	-111.277773999999993748133420012891292572021484375	HOBO Rain Gauge Data Logger - RG3	HOBO Temperature/RH Smart Sensor (S-THB-M002)	Soil Moisture Smart Sensor - EC5 (S-SMC-M005)	2019-07-09T10:00:01	0.00	10.736	95.800	0.6097	10.1
1416	AB07CD0350	WETLAND SAL01	SALINE (FEN)	56.573903999999998859493643976747989654541015625	-111.277773999999993748133420012891292572021484375	HOBO Rain Gauge Data Logger - RG3	HOBO Temperature/RH Smart Sensor (S-THB-M002)	Soil Moisture Smart Sensor - EC5 (S-SMC-M005)	2019-07-09T11:00:01	0.00	13.064	85.300	0.6089	10.7
1417	AB07CD0350	WETLAND SAL01	SALINE (FEN)	56.573903999999998859493643976747989654541015625	-111.277773999999993748133420012891292572021484375	HOBO Rain Gauge Data Logger - RG3	HOBO Temperature/RH Smart Sensor (S-THB-M002)	Soil Moisture Smart Sensor - EC5 (S-SMC-M005)	2019-07-09T12:00:01	0.00	15.175	68.500	0.6089	9.4
1418	AB07CD0350	WETLAND SAL01	SALINE (FEN)	56.573903999999998859493643976747989654541015625	-111.277773999999993748133420012891292572021484375	HOBO Rain Gauge Data Logger - RG3	HOBO Temperature/RH Smart Sensor (S-THB-M002)	Soil Moisture Smart Sensor - EC5 (S-SMC-M005)	2019-07-09T13:00:01	0.00	16.749	56.700	0.6089	8.1
1419	AB07CD0350	WETLAND SAL01	SALINE (FEN)	56.573903999999998859493643976747989654541015625	-111.277773999999993748133420012891292572021484375	HOBO Rain Gauge Data Logger - RG3	HOBO Temperature/RH Smart Sensor (S-THB-M002)	Soil Moisture Smart Sensor - EC5 (S-SMC-M005)	2019-07-09T14:00:01	0.00	18.295	51.300	0.6097	8.1
1420	AB07CD0350	WETLAND SAL01	SALINE (FEN)	56.573903999999998859493643976747989654541015625	-111.277773999999993748133420012891292572021484375	HOBO Rain Gauge Data Logger - RG3	HOBO Temperature/RH Smart Sensor (S-THB-M002)	Soil Moisture Smart Sensor - EC5 (S-SMC-M005)	2019-07-09T15:00:01	0.20	18.747	45.500	0.6089	6.7
1421	AB07CD0350	WETLAND SAL01	SALINE (FEN)	56.573903999999998859493643976747989654541015625	-111.277773999999993748133420012891292572021484375	HOBO Rain Gauge Data Logger - RG3	HOBO Temperature/RH Smart Sensor (S-THB-M002)	Soil Moisture Smart Sensor - EC5 (S-SMC-M005)	2019-07-09T16:00:01	0.00	19.841	41.000	0.6089	6.2
1422	AB07CD0350	WETLAND SAL01	SALINE (FEN)	56.573903999999998859493643976747989654541015625	-111.277773999999993748133420012891292572021484375	HOBO Rain Gauge Data Logger - RG3	HOBO Temperature/RH Smart Sensor (S-THB-M002)	Soil Moisture Smart Sensor - EC5 (S-SMC-M005)	2019-07-09T17:00:01	0.00	18.461	40.400	0.6089	4.8
1423	AB07CD0350	WETLAND SAL01	SALINE (FEN)	56.573903999999998859493643976747989654541015625	-111.277773999999993748133420012891292572021484375	HOBO Rain Gauge Data Logger - RG3	HOBO Temperature/RH Smart Sensor (S-THB-M002)	Soil Moisture Smart Sensor - EC5 (S-SMC-M005)	2019-07-09T18:00:01	0.00	19.008	42.900	0.6089	6.1
1424	AB07CD0350	WETLAND SAL01	SALINE (FEN)	56.573903999999998859493643976747989654541015625	-111.277773999999993748133420012891292572021484375	HOBO Rain Gauge Data Logger - RG3	HOBO Temperature/RH Smart Sensor (S-THB-M002)	Soil Moisture Smart Sensor - EC5 (S-SMC-M005)	2019-07-09T19:00:01	0.00	19.579	40.000	0.6089	5.6
1425	AB07CD0350	WETLAND SAL01	SALINE (FEN)	56.573903999999998859493643976747989654541015625	-111.277773999999993748133420012891292572021484375	HOBO Rain Gauge Data Logger - RG3	HOBO Temperature/RH Smart Sensor (S-THB-M002)	Soil Moisture Smart Sensor - EC5 (S-SMC-M005)	2019-07-09T20:00:01	0.00	18.010	38.300	0.6097	3.6
1426	AB07CD0350	WETLAND SAL01	SALINE (FEN)	56.573903999999998859493643976747989654541015625	-111.277773999999993748133420012891292572021484375	HOBO Rain Gauge Data Logger - RG3	HOBO Temperature/RH Smart Sensor (S-THB-M002)	Soil Moisture Smart Sensor - EC5 (S-SMC-M005)	2019-07-09T21:00:01	0.00	15.676	52.600	0.6089	6.0
1427	AB07CD0350	WETLAND SAL01	SALINE (FEN)	56.573903999999998859493643976747989654541015625	-111.277773999999993748133420012891292572021484375	HOBO Rain Gauge Data Logger - RG3	HOBO Temperature/RH Smart Sensor (S-THB-M002)	Soil Moisture Smart Sensor - EC5 (S-SMC-M005)	2019-07-09T22:00:01	0.00	11.419	70.100	0.6089	6.2
1428	AB07CD0350	WETLAND SAL01	SALINE (FEN)	56.573903999999998859493643976747989654541015625	-111.277773999999993748133420012891292572021484375	HOBO Rain Gauge Data Logger - RG3	HOBO Temperature/RH Smart Sensor (S-THB-M002)	Soil Moisture Smart Sensor - EC5 (S-SMC-M005)	2019-07-09T23:00:01	0.00	7.945	82.300	0.6097	5.1
1429	AB07CD0350	WETLAND SAL01	SALINE (FEN)	56.573903999999998859493643976747989654541015625	-111.277773999999993748133420012891292572021484375	HOBO Rain Gauge Data Logger - RG3	HOBO Temperature/RH Smart Sensor (S-THB-M002)	Soil Moisture Smart Sensor - EC5 (S-SMC-M005)	2019-07-10T00:00:01	0.00	6.940	87.600	0.6097	5.0
1430	AB07CD0350	WETLAND SAL01	SALINE (FEN)	56.573903999999998859493643976747989654541015625	-111.277773999999993748133420012891292572021484375	HOBO Rain Gauge Data Logger - RG3	HOBO Temperature/RH Smart Sensor (S-THB-M002)	Soil Moisture Smart Sensor - EC5 (S-SMC-M005)	2019-07-10T01:00:01	0.00	5.719	87.700	0.6097	3.8
1431	AB07CD0350	WETLAND SAL01	SALINE (FEN)	56.573903999999998859493643976747989654541015625	-111.277773999999993748133420012891292572021484375	HOBO Rain Gauge Data Logger - RG3	HOBO Temperature/RH Smart Sensor (S-THB-M002)	Soil Moisture Smart Sensor - EC5 (S-SMC-M005)	2019-07-10T02:00:01	0.00	6.102	90.800	0.6097	4.7
1432	AB07CD0350	WETLAND SAL01	SALINE (FEN)	56.573903999999998859493643976747989654541015625	-111.277773999999993748133420012891292572021484375	HOBO Rain Gauge Data Logger - RG3	HOBO Temperature/RH Smart Sensor (S-THB-M002)	Soil Moisture Smart Sensor - EC5 (S-SMC-M005)	2019-07-10T03:00:01	0.00	4.480	92.700	0.6097	3.4
1433	AB07CD0350	WETLAND SAL01	SALINE (FEN)	56.573903999999998859493643976747989654541015625	-111.277773999999993748133420012891292572021484375	HOBO Rain Gauge Data Logger - RG3	HOBO Temperature/RH Smart Sensor (S-THB-M002)	Soil Moisture Smart Sensor - EC5 (S-SMC-M005)	2019-07-10T04:00:01	0.00	6.636	93.800	0.6097	5.7
1434	AB07CD0350	WETLAND SAL01	SALINE (FEN)	56.573903999999998859493643976747989654541015625	-111.277773999999993748133420012891292572021484375	HOBO Rain Gauge Data Logger - RG3	HOBO Temperature/RH Smart Sensor (S-THB-M002)	Soil Moisture Smart Sensor - EC5 (S-SMC-M005)	2019-07-10T05:00:01	0.00	7.519	94.300	0.6097	6.7
1435	AB07CD0350	WETLAND SAL01	SALINE (FEN)	56.573903999999998859493643976747989654541015625	-111.277773999999993748133420012891292572021484375	HOBO Rain Gauge Data Logger - RG3	HOBO Temperature/RH Smart Sensor (S-THB-M002)	Soil Moisture Smart Sensor - EC5 (S-SMC-M005)	2019-07-10T06:00:01	0.00	8.045	94.200	0.6097	7.2
1436	AB07CD0350	WETLAND SAL01	SALINE (FEN)	56.573903999999998859493643976747989654541015625	-111.277773999999993748133420012891292572021484375	HOBO Rain Gauge Data Logger - RG3	HOBO Temperature/RH Smart Sensor (S-THB-M002)	Soil Moisture Smart Sensor - EC5 (S-SMC-M005)	2019-07-10T07:00:01	0.00	9.485	93.400	0.6097	8.5
1437	AB07CD0350	WETLAND SAL01	SALINE (FEN)	56.573903999999998859493643976747989654541015625	-111.277773999999993748133420012891292572021484375	HOBO Rain Gauge Data Logger - RG3	HOBO Temperature/RH Smart Sensor (S-THB-M002)	Soil Moisture Smart Sensor - EC5 (S-SMC-M005)	2019-07-10T08:00:01	0.00	10.541	92.100	0.6097	9.3
1438	AB07CD0350	WETLAND SAL01	SALINE (FEN)	56.573903999999998859493643976747989654541015625	-111.277773999999993748133420012891292572021484375	HOBO Rain Gauge Data Logger - RG3	HOBO Temperature/RH Smart Sensor (S-THB-M002)	Soil Moisture Smart Sensor - EC5 (S-SMC-M005)	2019-07-10T09:00:01	0.20	10.565	93.000	0.6097	9.5
1439	AB07CD0350	WETLAND SAL01	SALINE (FEN)	56.573903999999998859493643976747989654541015625	-111.277773999999993748133420012891292572021484375	HOBO Rain Gauge Data Logger - RG3	HOBO Temperature/RH Smart Sensor (S-THB-M002)	Soil Moisture Smart Sensor - EC5 (S-SMC-M005)	2019-07-10T10:00:01	0.00	12.968	89.400	0.6097	11.3
1440	AB07CD0350	WETLAND SAL01	SALINE (FEN)	56.573903999999998859493643976747989654541015625	-111.277773999999993748133420012891292572021484375	HOBO Rain Gauge Data Logger - RG3	HOBO Temperature/RH Smart Sensor (S-THB-M002)	Soil Moisture Smart Sensor - EC5 (S-SMC-M005)	2019-07-10T11:00:01	0.00	14.721	85.100	0.6089	12.3
1441	AB07CD0350	WETLAND SAL01	SALINE (FEN)	56.573903999999998859493643976747989654541015625	-111.277773999999993748133420012891292572021484375	HOBO Rain Gauge Data Logger - RG3	HOBO Temperature/RH Smart Sensor (S-THB-M002)	Soil Moisture Smart Sensor - EC5 (S-SMC-M005)	2019-07-10T12:00:01	0.00	16.129	82.100	0.6089	13.1
1442	AB07CD0350	WETLAND SAL01	SALINE (FEN)	56.573903999999998859493643976747989654541015625	-111.277773999999993748133420012891292572021484375	HOBO Rain Gauge Data Logger - RG3	HOBO Temperature/RH Smart Sensor (S-THB-M002)	Soil Moisture Smart Sensor - EC5 (S-SMC-M005)	2019-07-10T13:00:01	0.00	17.201	70.900	0.6089	11.9
1443	AB07CD0350	WETLAND SAL01	SALINE (FEN)	56.573903999999998859493643976747989654541015625	-111.277773999999993748133420012891292572021484375	HOBO Rain Gauge Data Logger - RG3	HOBO Temperature/RH Smart Sensor (S-THB-M002)	Soil Moisture Smart Sensor - EC5 (S-SMC-M005)	2019-07-10T14:00:01	0.00	16.201	67.200	0.6089	10.1
1444	AB07CD0350	WETLAND SAL01	SALINE (FEN)	56.573903999999998859493643976747989654541015625	-111.277773999999993748133420012891292572021484375	HOBO Rain Gauge Data Logger - RG3	HOBO Temperature/RH Smart Sensor (S-THB-M002)	Soil Moisture Smart Sensor - EC5 (S-SMC-M005)	2019-07-10T15:00:01	0.20	16.201	72.900	0.6089	11.4
1445	AB07CD0350	WETLAND SAL01	SALINE (FEN)	56.573903999999998859493643976747989654541015625	-111.277773999999993748133420012891292572021484375	HOBO Rain Gauge Data Logger - RG3	HOBO Temperature/RH Smart Sensor (S-THB-M002)	Soil Moisture Smart Sensor - EC5 (S-SMC-M005)	2019-07-10T16:00:01	0.20	16.225	71.600	0.6089	11.1
1446	AB07CD0350	WETLAND SAL01	SALINE (FEN)	56.573903999999998859493643976747989654541015625	-111.277773999999993748133420012891292572021484375	HOBO Rain Gauge Data Logger - RG3	HOBO Temperature/RH Smart Sensor (S-THB-M002)	Soil Moisture Smart Sensor - EC5 (S-SMC-M005)	2019-07-10T17:00:01	0.00	16.487	68.200	0.6082	10.6
1447	AB07CD0350	WETLAND SAL01	SALINE (FEN)	56.573903999999998859493643976747989654541015625	-111.277773999999993748133420012891292572021484375	HOBO Rain Gauge Data Logger - RG3	HOBO Temperature/RH Smart Sensor (S-THB-M002)	Soil Moisture Smart Sensor - EC5 (S-SMC-M005)	2019-07-10T18:00:01	0.00	16.106	67.500	0.6082	10.1
1448	AB07CD0350	WETLAND SAL01	SALINE (FEN)	56.573903999999998859493643976747989654541015625	-111.277773999999993748133420012891292572021484375	HOBO Rain Gauge Data Logger - RG3	HOBO Temperature/RH Smart Sensor (S-THB-M002)	Soil Moisture Smart Sensor - EC5 (S-SMC-M005)	2019-07-10T19:00:01	0.00	15.867	68.300	0.6082	10.1
1449	AB07CD0350	WETLAND SAL01	SALINE (FEN)	56.573903999999998859493643976747989654541015625	-111.277773999999993748133420012891292572021484375	HOBO Rain Gauge Data Logger - RG3	HOBO Temperature/RH Smart Sensor (S-THB-M002)	Soil Moisture Smart Sensor - EC5 (S-SMC-M005)	2019-07-10T20:00:01	0.00	15.676	68.500	0.6082	9.9
1450	AB07CD0350	WETLAND SAL01	SALINE (FEN)	56.573903999999998859493643976747989654541015625	-111.277773999999993748133420012891292572021484375	HOBO Rain Gauge Data Logger - RG3	HOBO Temperature/RH Smart Sensor (S-THB-M002)	Soil Moisture Smart Sensor - EC5 (S-SMC-M005)	2019-07-10T21:00:01	0.00	15.079	70.100	0.6089	9.7
1451	AB07CD0350	WETLAND SAL01	SALINE (FEN)	56.573903999999998859493643976747989654541015625	-111.277773999999993748133420012891292572021484375	HOBO Rain Gauge Data Logger - RG3	HOBO Temperature/RH Smart Sensor (S-THB-M002)	Soil Moisture Smart Sensor - EC5 (S-SMC-M005)	2019-07-10T22:00:01	0.00	14.433	76.100	0.6089	10.3
1452	AB07CD0350	WETLAND SAL01	SALINE (FEN)	56.573903999999998859493643976747989654541015625	-111.277773999999993748133420012891292572021484375	HOBO Rain Gauge Data Logger - RG3	HOBO Temperature/RH Smart Sensor (S-THB-M002)	Soil Moisture Smart Sensor - EC5 (S-SMC-M005)	2019-07-10T23:00:01	0.00	13.233	82.100	0.6082	10.3
1453	AB07CD0350	WETLAND SAL01	SALINE (FEN)	56.573903999999998859493643976747989654541015625	-111.277773999999993748133420012891292572021484375	HOBO Rain Gauge Data Logger - RG3	HOBO Temperature/RH Smart Sensor (S-THB-M002)	Soil Moisture Smart Sensor - EC5 (S-SMC-M005)	2019-07-11T00:00:01	0.00	12.340	88.000	0.6089	10.4
1454	AB07CD0350	WETLAND SAL01	SALINE (FEN)	56.573903999999998859493643976747989654541015625	-111.277773999999993748133420012891292572021484375	HOBO Rain Gauge Data Logger - RG3	HOBO Temperature/RH Smart Sensor (S-THB-M002)	Soil Moisture Smart Sensor - EC5 (S-SMC-M005)	2019-07-11T01:00:01	0.00	12.727	90.100	0.6082	11.2
1455	AB07CD0350	WETLAND SAL01	SALINE (FEN)	56.573903999999998859493643976747989654541015625	-111.277773999999993748133420012891292572021484375	HOBO Rain Gauge Data Logger - RG3	HOBO Temperature/RH Smart Sensor (S-THB-M002)	Soil Moisture Smart Sensor - EC5 (S-SMC-M005)	2019-07-11T02:00:01	0.00	12.558	90.200	0.6089	11.0
1456	AB07CD0350	WETLAND SAL01	SALINE (FEN)	56.573903999999998859493643976747989654541015625	-111.277773999999993748133420012891292572021484375	HOBO Rain Gauge Data Logger - RG3	HOBO Temperature/RH Smart Sensor (S-THB-M002)	Soil Moisture Smart Sensor - EC5 (S-SMC-M005)	2019-07-11T03:00:01	0.00	11.759	92.500	0.6089	10.6
1457	AB07CD0350	WETLAND SAL01	SALINE (FEN)	56.573903999999998859493643976747989654541015625	-111.277773999999993748133420012891292572021484375	HOBO Rain Gauge Data Logger - RG3	HOBO Temperature/RH Smart Sensor (S-THB-M002)	Soil Moisture Smart Sensor - EC5 (S-SMC-M005)	2019-07-11T04:00:01	0.00	11.637	93.200	0.6089	10.6
1458	AB07CD0350	WETLAND SAL01	SALINE (FEN)	56.573903999999998859493643976747989654541015625	-111.277773999999993748133420012891292572021484375	HOBO Rain Gauge Data Logger - RG3	HOBO Temperature/RH Smart Sensor (S-THB-M002)	Soil Moisture Smart Sensor - EC5 (S-SMC-M005)	2019-07-11T05:00:01	0.00	7.519	93.500	0.6089	6.5
1459	AB07CD0350	WETLAND SAL01	SALINE (FEN)	56.573903999999998859493643976747989654541015625	-111.277773999999993748133420012891292572021484375	HOBO Rain Gauge Data Logger - RG3	HOBO Temperature/RH Smart Sensor (S-THB-M002)	Soil Moisture Smart Sensor - EC5 (S-SMC-M005)	2019-07-11T06:00:01	0.00	9.731	95.100	0.6089	9.0
1460	AB07CD0350	WETLAND SAL01	SALINE (FEN)	56.573903999999998859493643976747989654541015625	-111.277773999999993748133420012891292572021484375	HOBO Rain Gauge Data Logger - RG3	HOBO Temperature/RH Smart Sensor (S-THB-M002)	Soil Moisture Smart Sensor - EC5 (S-SMC-M005)	2019-07-11T07:00:01	0.00	12.025	93.500	0.6082	11.0
1461	AB07CD0350	WETLAND SAL01	SALINE (FEN)	56.573903999999998859493643976747989654541015625	-111.277773999999993748133420012891292572021484375	HOBO Rain Gauge Data Logger - RG3	HOBO Temperature/RH Smart Sensor (S-THB-M002)	Soil Moisture Smart Sensor - EC5 (S-SMC-M005)	2019-07-11T08:00:01	0.00	14.218	87.200	0.6082	12.1
1462	AB07CD0350	WETLAND SAL01	SALINE (FEN)	56.573903999999998859493643976747989654541015625	-111.277773999999993748133420012891292572021484375	HOBO Rain Gauge Data Logger - RG3	HOBO Temperature/RH Smart Sensor (S-THB-M002)	Soil Moisture Smart Sensor - EC5 (S-SMC-M005)	2019-07-11T09:00:01	0.00	16.606	78.500	0.6082	12.9
1463	AB07CD0350	WETLAND SAL01	SALINE (FEN)	56.573903999999998859493643976747989654541015625	-111.277773999999993748133420012891292572021484375	HOBO Rain Gauge Data Logger - RG3	HOBO Temperature/RH Smart Sensor (S-THB-M002)	Soil Moisture Smart Sensor - EC5 (S-SMC-M005)	2019-07-11T10:00:01	0.00	18.343	70.000	0.6089	12.8
1464	AB07CD0350	WETLAND SAL01	SALINE (FEN)	56.573903999999998859493643976747989654541015625	-111.277773999999993748133420012891292572021484375	HOBO Rain Gauge Data Logger - RG3	HOBO Temperature/RH Smart Sensor (S-THB-M002)	Soil Moisture Smart Sensor - EC5 (S-SMC-M005)	2019-07-11T11:00:01	0.00	19.365	62.300	0.6089	12.0
1465	AB07CD0350	WETLAND SAL01	SALINE (FEN)	56.573903999999998859493643976747989654541015625	-111.277773999999993748133420012891292572021484375	HOBO Rain Gauge Data Logger - RG3	HOBO Temperature/RH Smart Sensor (S-THB-M002)	Soil Moisture Smart Sensor - EC5 (S-SMC-M005)	2019-07-11T12:00:01	0.00	20.484	54.500	0.6089	11.0
1466	AB07CD0350	WETLAND SAL01	SALINE (FEN)	56.573903999999998859493643976747989654541015625	-111.277773999999993748133420012891292572021484375	HOBO Rain Gauge Data Logger - RG3	HOBO Temperature/RH Smart Sensor (S-THB-M002)	Soil Moisture Smart Sensor - EC5 (S-SMC-M005)	2019-07-11T13:00:01	0.00	21.581	46.200	0.6089	9.6
1467	AB07CD0350	WETLAND SAL01	SALINE (FEN)	56.573903999999998859493643976747989654541015625	-111.277773999999993748133420012891292572021484375	HOBO Rain Gauge Data Logger - RG3	HOBO Temperature/RH Smart Sensor (S-THB-M002)	Soil Moisture Smart Sensor - EC5 (S-SMC-M005)	2019-07-11T14:00:01	0.00	23.040	40.200	0.6089	8.8
1468	AB07CD0350	WETLAND SAL01	SALINE (FEN)	56.573903999999998859493643976747989654541015625	-111.277773999999993748133420012891292572021484375	HOBO Rain Gauge Data Logger - RG3	HOBO Temperature/RH Smart Sensor (S-THB-M002)	Soil Moisture Smart Sensor - EC5 (S-SMC-M005)	2019-07-11T15:00:01	0.20	23.136	37.500	0.6089	7.9
1469	AB07CD0350	WETLAND SAL01	SALINE (FEN)	56.573903999999998859493643976747989654541015625	-111.277773999999993748133420012891292572021484375	HOBO Rain Gauge Data Logger - RG3	HOBO Temperature/RH Smart Sensor (S-THB-M002)	Soil Moisture Smart Sensor - EC5 (S-SMC-M005)	2019-07-11T16:00:01	0.00	22.920	35.900	0.6089	7.0
1470	AB07CD0350	WETLAND SAL01	SALINE (FEN)	56.573903999999998859493643976747989654541015625	-111.277773999999993748133420012891292572021484375	HOBO Rain Gauge Data Logger - RG3	HOBO Temperature/RH Smart Sensor (S-THB-M002)	Soil Moisture Smart Sensor - EC5 (S-SMC-M005)	2019-07-11T17:00:01	0.00	21.318	39.500	0.6089	7.0
1471	AB07CD0350	WETLAND SAL01	SALINE (FEN)	56.573903999999998859493643976747989654541015625	-111.277773999999993748133420012891292572021484375	HOBO Rain Gauge Data Logger - RG3	HOBO Temperature/RH Smart Sensor (S-THB-M002)	Soil Moisture Smart Sensor - EC5 (S-SMC-M005)	2019-07-11T18:00:01	0.00	21.772	42.100	0.6089	8.3
1472	AB07CD0350	WETLAND SAL01	SALINE (FEN)	56.573903999999998859493643976747989654541015625	-111.277773999999993748133420012891292572021484375	HOBO Rain Gauge Data Logger - RG3	HOBO Temperature/RH Smart Sensor (S-THB-M002)	Soil Moisture Smart Sensor - EC5 (S-SMC-M005)	2019-07-11T19:00:01	0.00	22.872	41.700	0.6089	9.2
1473	AB07CD0350	WETLAND SAL01	SALINE (FEN)	56.573903999999998859493643976747989654541015625	-111.277773999999993748133420012891292572021484375	HOBO Rain Gauge Data Logger - RG3	HOBO Temperature/RH Smart Sensor (S-THB-M002)	Soil Moisture Smart Sensor - EC5 (S-SMC-M005)	2019-07-11T20:00:01	0.00	22.753	36.900	0.6089	7.3
1474	AB07CD0350	WETLAND SAL01	SALINE (FEN)	56.573903999999998859493643976747989654541015625	-111.277773999999993748133420012891292572021484375	HOBO Rain Gauge Data Logger - RG3	HOBO Temperature/RH Smart Sensor (S-THB-M002)	Soil Moisture Smart Sensor - EC5 (S-SMC-M005)	2019-07-11T21:00:01	0.00	19.413	46.600	0.6089	7.7
1475	AB07CD0350	WETLAND SAL01	SALINE (FEN)	56.573903999999998859493643976747989654541015625	-111.277773999999993748133420012891292572021484375	HOBO Rain Gauge Data Logger - RG3	HOBO Temperature/RH Smart Sensor (S-THB-M002)	Soil Moisture Smart Sensor - EC5 (S-SMC-M005)	2019-07-11T22:00:01	0.00	16.677	54.500	0.6089	7.5
1476	AB07CD0350	WETLAND SAL01	SALINE (FEN)	56.573903999999998859493643976747989654541015625	-111.277773999999993748133420012891292572021484375	HOBO Rain Gauge Data Logger - RG3	HOBO Temperature/RH Smart Sensor (S-THB-M002)	Soil Moisture Smart Sensor - EC5 (S-SMC-M005)	2019-07-11T23:00:01	0.00	14.816	65.000	0.6089	8.3
1477	AB07CD0350	WETLAND SAL01	SALINE (FEN)	56.573903999999998859493643976747989654541015625	-111.277773999999993748133420012891292572021484375	HOBO Rain Gauge Data Logger - RG3	HOBO Temperature/RH Smart Sensor (S-THB-M002)	Soil Moisture Smart Sensor - EC5 (S-SMC-M005)	2019-07-12T00:00:01	0.00	14.577	70.500	0.6089	9.3
1478	AB07CD0350	WETLAND SAL01	SALINE (FEN)	56.573903999999998859493643976747989654541015625	-111.277773999999993748133420012891292572021484375	HOBO Rain Gauge Data Logger - RG3	HOBO Temperature/RH Smart Sensor (S-THB-M002)	Soil Moisture Smart Sensor - EC5 (S-SMC-M005)	2019-07-12T01:00:01	0.00	14.314	71.100	0.6089	9.2
1479	AB07CD0350	WETLAND SAL01	SALINE (FEN)	56.573903999999998859493643976747989654541015625	-111.277773999999993748133420012891292572021484375	HOBO Rain Gauge Data Logger - RG3	HOBO Temperature/RH Smart Sensor (S-THB-M002)	Soil Moisture Smart Sensor - EC5 (S-SMC-M005)	2019-07-12T02:00:01	0.00	14.601	71.500	0.6089	9.5
1480	AB07CD0350	WETLAND SAL01	SALINE (FEN)	56.573903999999998859493643976747989654541015625	-111.277773999999993748133420012891292572021484375	HOBO Rain Gauge Data Logger - RG3	HOBO Temperature/RH Smart Sensor (S-THB-M002)	Soil Moisture Smart Sensor - EC5 (S-SMC-M005)	2019-07-12T03:00:01	0.00	13.858	75.400	0.6097	9.6
1481	AB07CD0350	WETLAND SAL01	SALINE (FEN)	56.573903999999998859493643976747989654541015625	-111.277773999999993748133420012891292572021484375	HOBO Rain Gauge Data Logger - RG3	HOBO Temperature/RH Smart Sensor (S-THB-M002)	Soil Moisture Smart Sensor - EC5 (S-SMC-M005)	2019-07-12T04:00:01	0.00	12.920	78.700	0.6097	9.3
1482	AB07CD0350	WETLAND SAL01	SALINE (FEN)	56.573903999999998859493643976747989654541015625	-111.277773999999993748133420012891292572021484375	HOBO Rain Gauge Data Logger - RG3	HOBO Temperature/RH Smart Sensor (S-THB-M002)	Soil Moisture Smart Sensor - EC5 (S-SMC-M005)	2019-07-12T05:00:01	0.00	12.292	82.500	0.6097	9.4
1483	AB07CD0350	WETLAND SAL01	SALINE (FEN)	56.573903999999998859493643976747989654541015625	-111.277773999999993748133420012891292572021484375	HOBO Rain Gauge Data Logger - RG3	HOBO Temperature/RH Smart Sensor (S-THB-M002)	Soil Moisture Smart Sensor - EC5 (S-SMC-M005)	2019-07-12T06:00:01	0.00	14.026	82.700	0.6097	11.1
1484	AB07CD0350	WETLAND SAL01	SALINE (FEN)	56.573903999999998859493643976747989654541015625	-111.277773999999993748133420012891292572021484375	HOBO Rain Gauge Data Logger - RG3	HOBO Temperature/RH Smart Sensor (S-THB-M002)	Soil Moisture Smart Sensor - EC5 (S-SMC-M005)	2019-07-12T07:00:01	0.00	16.320	77.100	0.6097	12.3
1485	AB07CD0350	WETLAND SAL01	SALINE (FEN)	56.573903999999998859493643976747989654541015625	-111.277773999999993748133420012891292572021484375	HOBO Rain Gauge Data Logger - RG3	HOBO Temperature/RH Smart Sensor (S-THB-M002)	Soil Moisture Smart Sensor - EC5 (S-SMC-M005)	2019-07-12T08:00:01	0.00	17.605	71.000	0.6097	12.3
1486	AB07CD0350	WETLAND SAL01	SALINE (FEN)	56.573903999999998859493643976747989654541015625	-111.277773999999993748133420012891292572021484375	HOBO Rain Gauge Data Logger - RG3	HOBO Temperature/RH Smart Sensor (S-THB-M002)	Soil Moisture Smart Sensor - EC5 (S-SMC-M005)	2019-07-12T09:00:01	0.00	19.151	67.800	0.6097	13.1
1487	AB07CD0350	WETLAND SAL01	SALINE (FEN)	56.573903999999998859493643976747989654541015625	-111.277773999999993748133420012891292572021484375	HOBO Rain Gauge Data Logger - RG3	HOBO Temperature/RH Smart Sensor (S-THB-M002)	Soil Moisture Smart Sensor - EC5 (S-SMC-M005)	2019-07-12T10:00:01	0.00	20.674	63.600	0.6097	13.5
1488	AB07CD0350	WETLAND SAL01	SALINE (FEN)	56.573903999999998859493643976747989654541015625	-111.277773999999993748133420012891292572021484375	HOBO Rain Gauge Data Logger - RG3	HOBO Temperature/RH Smart Sensor (S-THB-M002)	Soil Moisture Smart Sensor - EC5 (S-SMC-M005)	2019-07-12T11:00:01	0.00	22.776	58.400	0.6097	14.2
1489	AB07CD0350	WETLAND SAL01	SALINE (FEN)	56.573903999999998859493643976747989654541015625	-111.277773999999993748133420012891292572021484375	HOBO Rain Gauge Data Logger - RG3	HOBO Temperature/RH Smart Sensor (S-THB-M002)	Soil Moisture Smart Sensor - EC5 (S-SMC-M005)	2019-07-12T12:00:01	0.00	24.508	51.700	0.6097	13.9
1490	AB07CD0350	WETLAND SAL01	SALINE (FEN)	56.573903999999998859493643976747989654541015625	-111.277773999999993748133420012891292572021484375	HOBO Rain Gauge Data Logger - RG3	HOBO Temperature/RH Smart Sensor (S-THB-M002)	Soil Moisture Smart Sensor - EC5 (S-SMC-M005)	2019-07-12T13:00:01	0.00	25.380	44.400	0.6097	12.4
1491	AB07CD0350	WETLAND SAL01	SALINE (FEN)	56.573903999999998859493643976747989654541015625	-111.277773999999993748133420012891292572021484375	HOBO Rain Gauge Data Logger - RG3	HOBO Temperature/RH Smart Sensor (S-THB-M002)	Soil Moisture Smart Sensor - EC5 (S-SMC-M005)	2019-07-12T14:00:01	0.00	26.329	41.800	0.6097	12.3
1492	AB07CD0350	WETLAND SAL01	SALINE (FEN)	56.573903999999998859493643976747989654541015625	-111.277773999999993748133420012891292572021484375	HOBO Rain Gauge Data Logger - RG3	HOBO Temperature/RH Smart Sensor (S-THB-M002)	Soil Moisture Smart Sensor - EC5 (S-SMC-M005)	2019-07-12T15:00:01	0.00	27.112	38.100	0.6097	11.6
1493	AB07CD0350	WETLAND SAL01	SALINE (FEN)	56.573903999999998859493643976747989654541015625	-111.277773999999993748133420012891292572021484375	HOBO Rain Gauge Data Logger - RG3	HOBO Temperature/RH Smart Sensor (S-THB-M002)	Soil Moisture Smart Sensor - EC5 (S-SMC-M005)	2019-07-12T16:00:01	0.00	27.505	32.600	0.6097	9.6
1494	AB07CD0350	WETLAND SAL01	SALINE (FEN)	56.573903999999998859493643976747989654541015625	-111.277773999999993748133420012891292572021484375	HOBO Rain Gauge Data Logger - RG3	HOBO Temperature/RH Smart Sensor (S-THB-M002)	Soil Moisture Smart Sensor - EC5 (S-SMC-M005)	2019-07-12T17:00:01	0.00	23.713	32.700	0.6097	6.4
1495	AB07CD0350	WETLAND SAL01	SALINE (FEN)	56.573903999999998859493643976747989654541015625	-111.277773999999993748133420012891292572021484375	HOBO Rain Gauge Data Logger - RG3	HOBO Temperature/RH Smart Sensor (S-THB-M002)	Soil Moisture Smart Sensor - EC5 (S-SMC-M005)	2019-07-12T18:00:01	0.00	19.532	60.400	0.6097	11.7
1496	AB07CD0350	WETLAND SAL01	SALINE (FEN)	56.573903999999998859493643976747989654541015625	-111.277773999999993748133420012891292572021484375	HOBO Rain Gauge Data Logger - RG3	HOBO Temperature/RH Smart Sensor (S-THB-M002)	Soil Moisture Smart Sensor - EC5 (S-SMC-M005)	2019-07-12T19:00:01	0.00	17.819	77.900	0.6089	13.9
1497	AB07CD0350	WETLAND SAL01	SALINE (FEN)	56.573903999999998859493643976747989654541015625	-111.277773999999993748133420012891292572021484375	HOBO Rain Gauge Data Logger - RG3	HOBO Temperature/RH Smart Sensor (S-THB-M002)	Soil Moisture Smart Sensor - EC5 (S-SMC-M005)	2019-07-12T20:00:01	0.60	16.582	85.900	0.6097	14.2
1498	AB07CD0350	WETLAND SAL01	SALINE (FEN)	56.573903999999998859493643976747989654541015625	-111.277773999999993748133420012891292572021484375	HOBO Rain Gauge Data Logger - RG3	HOBO Temperature/RH Smart Sensor (S-THB-M002)	Soil Moisture Smart Sensor - EC5 (S-SMC-M005)	2019-07-12T21:00:01	0.00	16.034	89.800	0.6097	14.4
1499	AB07CD0350	WETLAND SAL01	SALINE (FEN)	56.573903999999998859493643976747989654541015625	-111.277773999999993748133420012891292572021484375	HOBO Rain Gauge Data Logger - RG3	HOBO Temperature/RH Smart Sensor (S-THB-M002)	Soil Moisture Smart Sensor - EC5 (S-SMC-M005)	2019-07-12T22:00:01	0.20	15.629	91.700	0.6097	14.3
1500	AB07CD0350	WETLAND SAL01	SALINE (FEN)	56.573903999999998859493643976747989654541015625	-111.277773999999993748133420012891292572021484375	HOBO Rain Gauge Data Logger - RG3	HOBO Temperature/RH Smart Sensor (S-THB-M002)	Soil Moisture Smart Sensor - EC5 (S-SMC-M005)	2019-07-12T23:00:01	0.00	14.314	93.600	0.6097	13.3
1501	AB07CD0350	WETLAND SAL01	SALINE (FEN)	56.573903999999998859493643976747989654541015625	-111.277773999999993748133420012891292572021484375	HOBO Rain Gauge Data Logger - RG3	HOBO Temperature/RH Smart Sensor (S-THB-M002)	Soil Moisture Smart Sensor - EC5 (S-SMC-M005)	2019-07-13T00:00:01	0.00	14.888	92.700	0.6097	13.7
1502	AB07CD0350	WETLAND SAL01	SALINE (FEN)	56.573903999999998859493643976747989654541015625	-111.277773999999993748133420012891292572021484375	HOBO Rain Gauge Data Logger - RG3	HOBO Temperature/RH Smart Sensor (S-THB-M002)	Soil Moisture Smart Sensor - EC5 (S-SMC-M005)	2019-07-13T01:00:01	0.00	13.834	90.200	0.6097	12.3
1503	AB07CD0350	WETLAND SAL01	SALINE (FEN)	56.573903999999998859493643976747989654541015625	-111.277773999999993748133420012891292572021484375	HOBO Rain Gauge Data Logger - RG3	HOBO Temperature/RH Smart Sensor (S-THB-M002)	Soil Moisture Smart Sensor - EC5 (S-SMC-M005)	2019-07-13T02:00:01	0.00	12.678	93.500	0.6097	11.7
1504	AB07CD0350	WETLAND SAL01	SALINE (FEN)	56.573903999999998859493643976747989654541015625	-111.277773999999993748133420012891292572021484375	HOBO Rain Gauge Data Logger - RG3	HOBO Temperature/RH Smart Sensor (S-THB-M002)	Soil Moisture Smart Sensor - EC5 (S-SMC-M005)	2019-07-13T03:00:01	0.20	11.904	94.700	0.6104	11.1
1505	AB07CD0350	WETLAND SAL01	SALINE (FEN)	56.573903999999998859493643976747989654541015625	-111.277773999999993748133420012891292572021484375	HOBO Rain Gauge Data Logger - RG3	HOBO Temperature/RH Smart Sensor (S-THB-M002)	Soil Moisture Smart Sensor - EC5 (S-SMC-M005)	2019-07-13T04:00:01	0.00	11.443	95.600	0.6097	10.8
1506	AB07CD0350	WETLAND SAL01	SALINE (FEN)	56.573903999999998859493643976747989654541015625	-111.277773999999993748133420012891292572021484375	HOBO Rain Gauge Data Logger - RG3	HOBO Temperature/RH Smart Sensor (S-THB-M002)	Soil Moisture Smart Sensor - EC5 (S-SMC-M005)	2019-07-13T05:00:01	0.00	11.248	96.300	0.6097	10.7
1507	AB07CD0350	WETLAND SAL01	SALINE (FEN)	56.573903999999998859493643976747989654541015625	-111.277773999999993748133420012891292572021484375	HOBO Rain Gauge Data Logger - RG3	HOBO Temperature/RH Smart Sensor (S-THB-M002)	Soil Moisture Smart Sensor - EC5 (S-SMC-M005)	2019-07-13T06:00:01	0.00	11.200	96.800	0.6097	10.7
1508	AB07CD0350	WETLAND SAL01	SALINE (FEN)	56.573903999999998859493643976747989654541015625	-111.277773999999993748133420012891292572021484375	HOBO Rain Gauge Data Logger - RG3	HOBO Temperature/RH Smart Sensor (S-THB-M002)	Soil Moisture Smart Sensor - EC5 (S-SMC-M005)	2019-07-13T07:00:01	0.60	11.200	96.900	0.6104	10.7
1509	AB07CD0350	WETLAND SAL01	SALINE (FEN)	56.573903999999998859493643976747989654541015625	-111.277773999999993748133420012891292572021484375	HOBO Rain Gauge Data Logger - RG3	HOBO Temperature/RH Smart Sensor (S-THB-M002)	Soil Moisture Smart Sensor - EC5 (S-SMC-M005)	2019-07-13T08:00:01	0.00	11.880	96.800	0.6104	11.4
1510	AB07CD0350	WETLAND SAL01	SALINE (FEN)	56.573903999999998859493643976747989654541015625	-111.277773999999993748133420012891292572021484375	HOBO Rain Gauge Data Logger - RG3	HOBO Temperature/RH Smart Sensor (S-THB-M002)	Soil Moisture Smart Sensor - EC5 (S-SMC-M005)	2019-07-13T09:00:01	0.00	13.088	94.100	0.6104	12.2
1511	AB07CD0350	WETLAND SAL01	SALINE (FEN)	56.573903999999998859493643976747989654541015625	-111.277773999999993748133420012891292572021484375	HOBO Rain Gauge Data Logger - RG3	HOBO Temperature/RH Smart Sensor (S-THB-M002)	Soil Moisture Smart Sensor - EC5 (S-SMC-M005)	2019-07-13T10:00:01	0.00	13.930	92.200	0.6097	12.7
1512	AB07CD0350	WETLAND SAL01	SALINE (FEN)	56.573903999999998859493643976747989654541015625	-111.277773999999993748133420012891292572021484375	HOBO Rain Gauge Data Logger - RG3	HOBO Temperature/RH Smart Sensor (S-THB-M002)	Soil Moisture Smart Sensor - EC5 (S-SMC-M005)	2019-07-13T11:00:01	0.00	14.050	88.400	0.6104	12.2
1513	AB07CD0350	WETLAND SAL01	SALINE (FEN)	56.573903999999998859493643976747989654541015625	-111.277773999999993748133420012891292572021484375	HOBO Rain Gauge Data Logger - RG3	HOBO Temperature/RH Smart Sensor (S-THB-M002)	Soil Moisture Smart Sensor - EC5 (S-SMC-M005)	2019-07-13T12:00:01	0.00	14.050	87.500	0.6097	12.0
1514	AB07CD0350	WETLAND SAL01	SALINE (FEN)	56.573903999999998859493643976747989654541015625	-111.277773999999993748133420012891292572021484375	HOBO Rain Gauge Data Logger - RG3	HOBO Temperature/RH Smart Sensor (S-THB-M002)	Soil Moisture Smart Sensor - EC5 (S-SMC-M005)	2019-07-13T13:00:01	0.00	14.098	87.500	0.6097	12.1
1515	AB07CD0350	WETLAND SAL01	SALINE (FEN)	56.573903999999998859493643976747989654541015625	-111.277773999999993748133420012891292572021484375	HOBO Rain Gauge Data Logger - RG3	HOBO Temperature/RH Smart Sensor (S-THB-M002)	Soil Moisture Smart Sensor - EC5 (S-SMC-M005)	2019-07-13T14:00:01	0.00	14.840	87.900	0.6097	12.9
1516	AB07CD0350	WETLAND SAL01	SALINE (FEN)	56.573903999999998859493643976747989654541015625	-111.277773999999993748133420012891292572021484375	HOBO Rain Gauge Data Logger - RG3	HOBO Temperature/RH Smart Sensor (S-THB-M002)	Soil Moisture Smart Sensor - EC5 (S-SMC-M005)	2019-07-13T15:00:01	0.00	15.915	84.800	0.6097	13.4
1517	AB07CD0350	WETLAND SAL01	SALINE (FEN)	56.573903999999998859493643976747989654541015625	-111.277773999999993748133420012891292572021484375	HOBO Rain Gauge Data Logger - RG3	HOBO Temperature/RH Smart Sensor (S-THB-M002)	Soil Moisture Smart Sensor - EC5 (S-SMC-M005)	2019-07-13T16:00:01	0.00	16.082	81.300	0.6097	12.9
1518	AB07CD0350	WETLAND SAL01	SALINE (FEN)	56.573903999999998859493643976747989654541015625	-111.277773999999993748133420012891292572021484375	HOBO Rain Gauge Data Logger - RG3	HOBO Temperature/RH Smart Sensor (S-THB-M002)	Soil Moisture Smart Sensor - EC5 (S-SMC-M005)	2019-07-13T17:00:01	0.00	16.439	80.200	0.6097	13.0
1519	AB07CD0350	WETLAND SAL01	SALINE (FEN)	56.573903999999998859493643976747989654541015625	-111.277773999999993748133420012891292572021484375	HOBO Rain Gauge Data Logger - RG3	HOBO Temperature/RH Smart Sensor (S-THB-M002)	Soil Moisture Smart Sensor - EC5 (S-SMC-M005)	2019-07-13T18:00:01	0.00	16.606	78.600	0.6097	12.9
1520	AB07CD0350	WETLAND SAL01	SALINE (FEN)	56.573903999999998859493643976747989654541015625	-111.277773999999993748133420012891292572021484375	HOBO Rain Gauge Data Logger - RG3	HOBO Temperature/RH Smart Sensor (S-THB-M002)	Soil Moisture Smart Sensor - EC5 (S-SMC-M005)	2019-07-13T19:00:01	0.00	16.010	78.600	0.6097	12.3
1521	AB07CD0350	WETLAND SAL01	SALINE (FEN)	56.573903999999998859493643976747989654541015625	-111.277773999999993748133420012891292572021484375	HOBO Rain Gauge Data Logger - RG3	HOBO Temperature/RH Smart Sensor (S-THB-M002)	Soil Moisture Smart Sensor - EC5 (S-SMC-M005)	2019-07-13T20:00:01	0.00	15.509	80.000	0.6097	12.1
1522	AB07CD0350	WETLAND SAL01	SALINE (FEN)	56.573903999999998859493643976747989654541015625	-111.277773999999993748133420012891292572021484375	HOBO Rain Gauge Data Logger - RG3	HOBO Temperature/RH Smart Sensor (S-THB-M002)	Soil Moisture Smart Sensor - EC5 (S-SMC-M005)	2019-07-13T21:00:01	0.00	14.768	81.500	0.6097	11.6
1523	AB07CD0350	WETLAND SAL01	SALINE (FEN)	56.573903999999998859493643976747989654541015625	-111.277773999999993748133420012891292572021484375	HOBO Rain Gauge Data Logger - RG3	HOBO Temperature/RH Smart Sensor (S-THB-M002)	Soil Moisture Smart Sensor - EC5 (S-SMC-M005)	2019-07-13T22:00:01	0.00	14.170	85.000	0.6097	11.7
1524	AB07CD0350	WETLAND SAL01	SALINE (FEN)	56.573903999999998859493643976747989654541015625	-111.277773999999993748133420012891292572021484375	HOBO Rain Gauge Data Logger - RG3	HOBO Temperature/RH Smart Sensor (S-THB-M002)	Soil Moisture Smart Sensor - EC5 (S-SMC-M005)	2019-07-13T23:00:01	0.00	11.686	88.700	0.6097	9.9
1525	AB07CD0350	WETLAND SAL01	SALINE (FEN)	56.573903999999998859493643976747989654541015625	-111.277773999999993748133420012891292572021484375	HOBO Rain Gauge Data Logger - RG3	HOBO Temperature/RH Smart Sensor (S-THB-M002)	Soil Moisture Smart Sensor - EC5 (S-SMC-M005)	2019-07-14T00:00:01	0.00	9.312	93.600	0.6097	8.3
1526	AB07CD0350	WETLAND SAL01	SALINE (FEN)	56.573903999999998859493643976747989654541015625	-111.277773999999993748133420012891292572021484375	HOBO Rain Gauge Data Logger - RG3	HOBO Temperature/RH Smart Sensor (S-THB-M002)	Soil Moisture Smart Sensor - EC5 (S-SMC-M005)	2019-07-14T01:00:01	0.00	7.519	96.200	0.6097	7.0
1527	AB07CD0350	WETLAND SAL01	SALINE (FEN)	56.573903999999998859493643976747989654541015625	-111.277773999999993748133420012891292572021484375	HOBO Rain Gauge Data Logger - RG3	HOBO Temperature/RH Smart Sensor (S-THB-M002)	Soil Moisture Smart Sensor - EC5 (S-SMC-M005)	2019-07-14T02:00:01	0.00	6.788	96.700	0.6097	6.3
1528	AB07CD0350	WETLAND SAL01	SALINE (FEN)	56.573903999999998859493643976747989654541015625	-111.277773999999993748133420012891292572021484375	HOBO Rain Gauge Data Logger - RG3	HOBO Temperature/RH Smart Sensor (S-THB-M002)	Soil Moisture Smart Sensor - EC5 (S-SMC-M005)	2019-07-14T03:00:01	0.00	6.661	97.100	0.6097	6.2
1529	AB07CD0350	WETLAND SAL01	SALINE (FEN)	56.573903999999998859493643976747989654541015625	-111.277773999999993748133420012891292572021484375	HOBO Rain Gauge Data Logger - RG3	HOBO Temperature/RH Smart Sensor (S-THB-M002)	Soil Moisture Smart Sensor - EC5 (S-SMC-M005)	2019-07-14T04:00:01	0.00	6.788	97.500	0.6097	6.4
1530	AB07CD0350	WETLAND SAL01	SALINE (FEN)	56.573903999999998859493643976747989654541015625	-111.277773999999993748133420012891292572021484375	HOBO Rain Gauge Data Logger - RG3	HOBO Temperature/RH Smart Sensor (S-THB-M002)	Soil Moisture Smart Sensor - EC5 (S-SMC-M005)	2019-07-14T05:00:01	0.00	6.611	97.900	0.6097	6.3
1531	AB07CD0350	WETLAND SAL01	SALINE (FEN)	56.573903999999998859493643976747989654541015625	-111.277773999999993748133420012891292572021484375	HOBO Rain Gauge Data Logger - RG3	HOBO Temperature/RH Smart Sensor (S-THB-M002)	Soil Moisture Smart Sensor - EC5 (S-SMC-M005)	2019-07-14T06:00:01	0.00	7.015	98.300	0.6097	6.8
1532	AB07CD0350	WETLAND SAL01	SALINE (FEN)	56.573903999999998859493643976747989654541015625	-111.277773999999993748133420012891292572021484375	HOBO Rain Gauge Data Logger - RG3	HOBO Temperature/RH Smart Sensor (S-THB-M002)	Soil Moisture Smart Sensor - EC5 (S-SMC-M005)	2019-07-14T07:00:01	0.00	8.693	98.300	0.6097	8.4
1533	AB07CD0350	WETLAND SAL01	SALINE (FEN)	56.573903999999998859493643976747989654541015625	-111.277773999999993748133420012891292572021484375	HOBO Rain Gauge Data Logger - RG3	HOBO Temperature/RH Smart Sensor (S-THB-M002)	Soil Moisture Smart Sensor - EC5 (S-SMC-M005)	2019-07-14T08:00:01	0.00	12.944	97.200	0.6097	12.5
1534	AB07CD0350	WETLAND SAL01	SALINE (FEN)	56.573903999999998859493643976747989654541015625	-111.277773999999993748133420012891292572021484375	HOBO Rain Gauge Data Logger - RG3	HOBO Temperature/RH Smart Sensor (S-THB-M002)	Soil Moisture Smart Sensor - EC5 (S-SMC-M005)	2019-07-14T09:00:01	0.00	17.320	91.400	0.6097	15.9
1535	AB07CD0350	WETLAND SAL01	SALINE (FEN)	56.573903999999998859493643976747989654541015625	-111.277773999999993748133420012891292572021484375	HOBO Rain Gauge Data Logger - RG3	HOBO Temperature/RH Smart Sensor (S-THB-M002)	Soil Moisture Smart Sensor - EC5 (S-SMC-M005)	2019-07-14T10:00:01	0.00	20.293	78.400	0.6097	16.4
1536	AB07CD0350	WETLAND SAL01	SALINE (FEN)	56.573903999999998859493643976747989654541015625	-111.277773999999993748133420012891292572021484375	HOBO Rain Gauge Data Logger - RG3	HOBO Temperature/RH Smart Sensor (S-THB-M002)	Soil Moisture Smart Sensor - EC5 (S-SMC-M005)	2019-07-14T11:00:01	0.00	23.112	67.300	0.6097	16.7
1537	AB07CD0350	WETLAND SAL01	SALINE (FEN)	56.573903999999998859493643976747989654541015625	-111.277773999999993748133420012891292572021484375	HOBO Rain Gauge Data Logger - RG3	HOBO Temperature/RH Smart Sensor (S-THB-M002)	Soil Moisture Smart Sensor - EC5 (S-SMC-M005)	2019-07-14T12:00:01	0.00	23.400	58.700	0.6097	14.9
1538	AB07CD0350	WETLAND SAL01	SALINE (FEN)	56.573903999999998859493643976747989654541015625	-111.277773999999993748133420012891292572021484375	HOBO Rain Gauge Data Logger - RG3	HOBO Temperature/RH Smart Sensor (S-THB-M002)	Soil Moisture Smart Sensor - EC5 (S-SMC-M005)	2019-07-14T13:00:01	0.00	23.809	53.400	0.6097	13.8
1539	AB07CD0350	WETLAND SAL01	SALINE (FEN)	56.573903999999998859493643976747989654541015625	-111.277773999999993748133420012891292572021484375	HOBO Rain Gauge Data Logger - RG3	HOBO Temperature/RH Smart Sensor (S-THB-M002)	Soil Moisture Smart Sensor - EC5 (S-SMC-M005)	2019-07-14T14:00:01	0.00	25.695	46.000	0.6097	13.2
1540	AB07CD0350	WETLAND SAL01	SALINE (FEN)	56.573903999999998859493643976747989654541015625	-111.277773999999993748133420012891292572021484375	HOBO Rain Gauge Data Logger - RG3	HOBO Temperature/RH Smart Sensor (S-THB-M002)	Soil Moisture Smart Sensor - EC5 (S-SMC-M005)	2019-07-14T15:00:01	0.00	25.355	43.300	0.6097	12.0
1541	AB07CD0350	WETLAND SAL01	SALINE (FEN)	56.573903999999998859493643976747989654541015625	-111.277773999999993748133420012891292572021484375	HOBO Rain Gauge Data Logger - RG3	HOBO Temperature/RH Smart Sensor (S-THB-M002)	Soil Moisture Smart Sensor - EC5 (S-SMC-M005)	2019-07-14T16:00:01	0.20	19.270	49.600	0.6097	8.5
1542	AB07CD0350	WETLAND SAL01	SALINE (FEN)	56.573903999999998859493643976747989654541015625	-111.277773999999993748133420012891292572021484375	HOBO Rain Gauge Data Logger - RG3	HOBO Temperature/RH Smart Sensor (S-THB-M002)	Soil Moisture Smart Sensor - EC5 (S-SMC-M005)	2019-07-14T17:00:01	0.20	23.809	68.300	0.6097	17.6
1543	AB07CD0350	WETLAND SAL01	SALINE (FEN)	56.573903999999998859493643976747989654541015625	-111.277773999999993748133420012891292572021484375	HOBO Rain Gauge Data Logger - RG3	HOBO Temperature/RH Smart Sensor (S-THB-M002)	Soil Moisture Smart Sensor - EC5 (S-SMC-M005)	2019-07-14T18:00:01	0.60	15.342	66.400	0.6089	9.1
1544	AB07CD0350	WETLAND SAL01	SALINE (FEN)	56.573903999999998859493643976747989654541015625	-111.277773999999993748133420012891292572021484375	HOBO Rain Gauge Data Logger - RG3	HOBO Temperature/RH Smart Sensor (S-THB-M002)	Soil Moisture Smart Sensor - EC5 (S-SMC-M005)	2019-07-14T19:00:01	0.40	15.891	86.600	0.6089	13.7
1545	AB07CD0350	WETLAND SAL01	SALINE (FEN)	56.573903999999998859493643976747989654541015625	-111.277773999999993748133420012891292572021484375	HOBO Rain Gauge Data Logger - RG3	HOBO Temperature/RH Smart Sensor (S-THB-M002)	Soil Moisture Smart Sensor - EC5 (S-SMC-M005)	2019-07-14T20:00:01	0.00	16.249	86.800	0.6097	14.1
1546	AB07CD0350	WETLAND SAL01	SALINE (FEN)	56.573903999999998859493643976747989654541015625	-111.277773999999993748133420012891292572021484375	HOBO Rain Gauge Data Logger - RG3	HOBO Temperature/RH Smart Sensor (S-THB-M002)	Soil Moisture Smart Sensor - EC5 (S-SMC-M005)	2019-07-14T21:00:01	0.00	16.392	85.800	0.6097	14.0
1547	AB07CD0350	WETLAND SAL01	SALINE (FEN)	56.573903999999998859493643976747989654541015625	-111.277773999999993748133420012891292572021484375	HOBO Rain Gauge Data Logger - RG3	HOBO Temperature/RH Smart Sensor (S-THB-M002)	Soil Moisture Smart Sensor - EC5 (S-SMC-M005)	2019-07-14T22:00:01	0.00	16.368	88.300	0.6097	14.4
1548	AB07CD0350	WETLAND SAL01	SALINE (FEN)	56.573903999999998859493643976747989654541015625	-111.277773999999993748133420012891292572021484375	HOBO Rain Gauge Data Logger - RG3	HOBO Temperature/RH Smart Sensor (S-THB-M002)	Soil Moisture Smart Sensor - EC5 (S-SMC-M005)	2019-07-14T23:00:01	0.00	15.342	82.900	0.6097	12.5
1549	AB07CD0350	WETLAND SAL01	SALINE (FEN)	56.573903999999998859493643976747989654541015625	-111.277773999999993748133420012891292572021484375	HOBO Rain Gauge Data Logger - RG3	HOBO Temperature/RH Smart Sensor (S-THB-M002)	Soil Moisture Smart Sensor - EC5 (S-SMC-M005)	2019-07-15T00:00:01	0.20	13.377	81.600	0.6104	10.3
1550	AB07CD0350	WETLAND SAL01	SALINE (FEN)	56.573903999999998859493643976747989654541015625	-111.277773999999993748133420012891292572021484375	HOBO Rain Gauge Data Logger - RG3	HOBO Temperature/RH Smart Sensor (S-THB-M002)	Soil Moisture Smart Sensor - EC5 (S-SMC-M005)	2019-07-15T01:00:01	0.00	12.630	89.000	0.6097	10.9
1551	AB07CD0350	WETLAND SAL01	SALINE (FEN)	56.573903999999998859493643976747989654541015625	-111.277773999999993748133420012891292572021484375	HOBO Rain Gauge Data Logger - RG3	HOBO Temperature/RH Smart Sensor (S-THB-M002)	Soil Moisture Smart Sensor - EC5 (S-SMC-M005)	2019-07-15T02:00:01	0.00	11.492	89.700	0.6104	9.9
1552	AB07CD0350	WETLAND SAL01	SALINE (FEN)	56.573903999999998859493643976747989654541015625	-111.277773999999993748133420012891292572021484375	HOBO Rain Gauge Data Logger - RG3	HOBO Temperature/RH Smart Sensor (S-THB-M002)	Soil Moisture Smart Sensor - EC5 (S-SMC-M005)	2019-07-15T03:00:01	0.00	12.219	91.000	0.6104	10.8
1553	AB07CD0350	WETLAND SAL01	SALINE (FEN)	56.573903999999998859493643976747989654541015625	-111.277773999999993748133420012891292572021484375	HOBO Rain Gauge Data Logger - RG3	HOBO Temperature/RH Smart Sensor (S-THB-M002)	Soil Moisture Smart Sensor - EC5 (S-SMC-M005)	2019-07-15T04:00:01	0.00	12.340	91.600	0.6104	11.0
1554	AB07CD0350	WETLAND SAL01	SALINE (FEN)	56.573903999999998859493643976747989654541015625	-111.277773999999993748133420012891292572021484375	HOBO Rain Gauge Data Logger - RG3	HOBO Temperature/RH Smart Sensor (S-THB-M002)	Soil Moisture Smart Sensor - EC5 (S-SMC-M005)	2019-07-15T05:00:01	0.00	11.832	92.500	0.6104	10.7
1555	AB07CD0350	WETLAND SAL01	SALINE (FEN)	56.573903999999998859493643976747989654541015625	-111.277773999999993748133420012891292572021484375	HOBO Rain Gauge Data Logger - RG3	HOBO Temperature/RH Smart Sensor (S-THB-M002)	Soil Moisture Smart Sensor - EC5 (S-SMC-M005)	2019-07-15T06:00:01	0.00	12.001	92.100	0.6104	10.8
1556	AB07CD0350	WETLAND SAL01	SALINE (FEN)	56.573903999999998859493643976747989654541015625	-111.277773999999993748133420012891292572021484375	HOBO Rain Gauge Data Logger - RG3	HOBO Temperature/RH Smart Sensor (S-THB-M002)	Soil Moisture Smart Sensor - EC5 (S-SMC-M005)	2019-07-15T07:00:01	0.00	12.799	89.000	0.6104	11.0
1557	AB07CD0350	WETLAND SAL01	SALINE (FEN)	56.573903999999998859493643976747989654541015625	-111.277773999999993748133420012891292572021484375	HOBO Rain Gauge Data Logger - RG3	HOBO Temperature/RH Smart Sensor (S-THB-M002)	Soil Moisture Smart Sensor - EC5 (S-SMC-M005)	2019-07-15T08:00:01	0.00	13.112	88.700	0.6104	11.3
1558	AB07CD0350	WETLAND SAL01	SALINE (FEN)	56.573903999999998859493643976747989654541015625	-111.277773999999993748133420012891292572021484375	HOBO Rain Gauge Data Logger - RG3	HOBO Temperature/RH Smart Sensor (S-THB-M002)	Soil Moisture Smart Sensor - EC5 (S-SMC-M005)	2019-07-15T09:00:01	0.00	13.618	85.600	0.6104	11.3
1559	AB07CD0350	WETLAND SAL01	SALINE (FEN)	56.573903999999998859493643976747989654541015625	-111.277773999999993748133420012891292572021484375	HOBO Rain Gauge Data Logger - RG3	HOBO Temperature/RH Smart Sensor (S-THB-M002)	Soil Moisture Smart Sensor - EC5 (S-SMC-M005)	2019-07-15T10:00:01	0.00	15.557	80.100	0.6104	12.2
1560	AB07CD0350	WETLAND SAL01	SALINE (FEN)	56.573903999999998859493643976747989654541015625	-111.277773999999993748133420012891292572021484375	HOBO Rain Gauge Data Logger - RG3	HOBO Temperature/RH Smart Sensor (S-THB-M002)	Soil Moisture Smart Sensor - EC5 (S-SMC-M005)	2019-07-15T11:00:01	0.00	16.534	71.400	0.6104	11.4
1561	AB07CD0350	WETLAND SAL01	SALINE (FEN)	56.573903999999998859493643976747989654541015625	-111.277773999999993748133420012891292572021484375	HOBO Rain Gauge Data Logger - RG3	HOBO Temperature/RH Smart Sensor (S-THB-M002)	Soil Moisture Smart Sensor - EC5 (S-SMC-M005)	2019-07-15T12:00:01	0.00	18.390	65.800	0.6104	11.9
1562	AB07CD0350	WETLAND SAL01	SALINE (FEN)	56.573903999999998859493643976747989654541015625	-111.277773999999993748133420012891292572021484375	HOBO Rain Gauge Data Logger - RG3	HOBO Temperature/RH Smart Sensor (S-THB-M002)	Soil Moisture Smart Sensor - EC5 (S-SMC-M005)	2019-07-15T13:00:01	0.00	19.318	59.700	0.6104	11.3
1563	AB07CD0350	WETLAND SAL01	SALINE (FEN)	56.573903999999998859493643976747989654541015625	-111.277773999999993748133420012891292572021484375	HOBO Rain Gauge Data Logger - RG3	HOBO Temperature/RH Smart Sensor (S-THB-M002)	Soil Moisture Smart Sensor - EC5 (S-SMC-M005)	2019-07-15T14:00:01	0.00	20.841	54.600	0.6104	11.4
1564	AB07CD0350	WETLAND SAL01	SALINE (FEN)	56.573903999999998859493643976747989654541015625	-111.277773999999993748133420012891292572021484375	HOBO Rain Gauge Data Logger - RG3	HOBO Temperature/RH Smart Sensor (S-THB-M002)	Soil Moisture Smart Sensor - EC5 (S-SMC-M005)	2019-07-15T15:00:01	0.00	21.772	48.800	0.6104	10.5
1565	AB07CD0350	WETLAND SAL01	SALINE (FEN)	56.573903999999998859493643976747989654541015625	-111.277773999999993748133420012891292572021484375	HOBO Rain Gauge Data Logger - RG3	HOBO Temperature/RH Smart Sensor (S-THB-M002)	Soil Moisture Smart Sensor - EC5 (S-SMC-M005)	2019-07-15T16:00:01	0.00	22.345	43.700	0.6104	9.4
1566	AB07CD0350	WETLAND SAL01	SALINE (FEN)	56.573903999999998859493643976747989654541015625	-111.277773999999993748133420012891292572021484375	HOBO Rain Gauge Data Logger - RG3	HOBO Temperature/RH Smart Sensor (S-THB-M002)	Soil Moisture Smart Sensor - EC5 (S-SMC-M005)	2019-07-15T17:00:01	0.00	22.441	39.900	0.6104	8.2
1567	AB07CD0350	WETLAND SAL01	SALINE (FEN)	56.573903999999998859493643976747989654541015625	-111.277773999999993748133420012891292572021484375	HOBO Rain Gauge Data Logger - RG3	HOBO Temperature/RH Smart Sensor (S-THB-M002)	Soil Moisture Smart Sensor - EC5 (S-SMC-M005)	2019-07-15T18:00:01	0.00	22.920	36.300	0.6104	7.2
1568	AB07CD0350	WETLAND SAL01	SALINE (FEN)	56.573903999999998859493643976747989654541015625	-111.277773999999993748133420012891292572021484375	HOBO Rain Gauge Data Logger - RG3	HOBO Temperature/RH Smart Sensor (S-THB-M002)	Soil Moisture Smart Sensor - EC5 (S-SMC-M005)	2019-07-15T19:00:01	0.00	22.944	32.500	0.6104	5.6
1569	AB07CD0350	WETLAND SAL01	SALINE (FEN)	56.573903999999998859493643976747989654541015625	-111.277773999999993748133420012891292572021484375	HOBO Rain Gauge Data Logger - RG3	HOBO Temperature/RH Smart Sensor (S-THB-M002)	Soil Moisture Smart Sensor - EC5 (S-SMC-M005)	2019-07-15T20:00:01	0.00	22.178	35.000	0.6104	6.0
1570	AB07CD0350	WETLAND SAL01	SALINE (FEN)	56.573903999999998859493643976747989654541015625	-111.277773999999993748133420012891292572021484375	HOBO Rain Gauge Data Logger - RG3	HOBO Temperature/RH Smart Sensor (S-THB-M002)	Soil Moisture Smart Sensor - EC5 (S-SMC-M005)	2019-07-15T21:00:01	0.00	21.151	37.300	0.6104	6.0
1571	AB07CD0350	WETLAND SAL01	SALINE (FEN)	56.573903999999998859493643976747989654541015625	-111.277773999999993748133420012891292572021484375	HOBO Rain Gauge Data Logger - RG3	HOBO Temperature/RH Smart Sensor (S-THB-M002)	Soil Moisture Smart Sensor - EC5 (S-SMC-M005)	2019-07-15T22:00:01	0.00	13.594	60.800	0.6111	6.2
1572	AB07CD0350	WETLAND SAL01	SALINE (FEN)	56.573903999999998859493643976747989654541015625	-111.277773999999993748133420012891292572021484375	HOBO Rain Gauge Data Logger - RG3	HOBO Temperature/RH Smart Sensor (S-THB-M002)	Soil Moisture Smart Sensor - EC5 (S-SMC-M005)	2019-07-15T23:00:01	0.00	9.977	78.400	0.6111	6.4
1573	AB07CD0350	WETLAND SAL01	SALINE (FEN)	56.573903999999998859493643976747989654541015625	-111.277773999999993748133420012891292572021484375	HOBO Rain Gauge Data Logger - RG3	HOBO Temperature/RH Smart Sensor (S-THB-M002)	Soil Moisture Smart Sensor - EC5 (S-SMC-M005)	2019-07-16T00:00:01	0.00	8.319	84.300	0.6111	5.8
1574	AB07CD0350	WETLAND SAL01	SALINE (FEN)	56.573903999999998859493643976747989654541015625	-111.277773999999993748133420012891292572021484375	HOBO Rain Gauge Data Logger - RG3	HOBO Temperature/RH Smart Sensor (S-THB-M002)	Soil Moisture Smart Sensor - EC5 (S-SMC-M005)	2019-07-16T01:00:01	0.00	6.940	86.800	0.6111	4.9
1575	AB07CD0350	WETLAND SAL01	SALINE (FEN)	56.573903999999998859493643976747989654541015625	-111.277773999999993748133420012891292572021484375	HOBO Rain Gauge Data Logger - RG3	HOBO Temperature/RH Smart Sensor (S-THB-M002)	Soil Moisture Smart Sensor - EC5 (S-SMC-M005)	2019-07-16T02:00:01	0.00	6.077	89.900	0.6111	4.6
1576	AB07CD0350	WETLAND SAL01	SALINE (FEN)	56.573903999999998859493643976747989654541015625	-111.277773999999993748133420012891292572021484375	HOBO Rain Gauge Data Logger - RG3	HOBO Temperature/RH Smart Sensor (S-THB-M002)	Soil Moisture Smart Sensor - EC5 (S-SMC-M005)	2019-07-16T03:00:01	0.00	4.947	92.000	0.6111	3.8
1577	AB07CD0350	WETLAND SAL01	SALINE (FEN)	56.573903999999998859493643976747989654541015625	-111.277773999999993748133420012891292572021484375	HOBO Rain Gauge Data Logger - RG3	HOBO Temperature/RH Smart Sensor (S-THB-M002)	Soil Moisture Smart Sensor - EC5 (S-SMC-M005)	2019-07-16T04:00:01	0.00	4.376	93.500	0.6111	3.4
1578	AB07CD0350	WETLAND SAL01	SALINE (FEN)	56.573903999999998859493643976747989654541015625	-111.277773999999993748133420012891292572021484375	HOBO Rain Gauge Data Logger - RG3	HOBO Temperature/RH Smart Sensor (S-THB-M002)	Soil Moisture Smart Sensor - EC5 (S-SMC-M005)	2019-07-16T05:00:01	0.00	4.115	94.400	0.6111	3.3
1579	AB07CD0350	WETLAND SAL01	SALINE (FEN)	56.573903999999998859493643976747989654541015625	-111.277773999999993748133420012891292572021484375	HOBO Rain Gauge Data Logger - RG3	HOBO Temperature/RH Smart Sensor (S-THB-M002)	Soil Moisture Smart Sensor - EC5 (S-SMC-M005)	2019-07-16T06:00:01	0.00	6.153	94.400	0.6111	5.3
1580	AB07CD0350	WETLAND SAL01	SALINE (FEN)	56.573903999999998859493643976747989654541015625	-111.277773999999993748133420012891292572021484375	HOBO Rain Gauge Data Logger - RG3	HOBO Temperature/RH Smart Sensor (S-THB-M002)	Soil Moisture Smart Sensor - EC5 (S-SMC-M005)	2019-07-16T07:00:01	0.00	12.485	89.900	0.6111	10.9
1581	AB07CD0350	WETLAND SAL01	SALINE (FEN)	56.573903999999998859493643976747989654541015625	-111.277773999999993748133420012891292572021484375	HOBO Rain Gauge Data Logger - RG3	HOBO Temperature/RH Smart Sensor (S-THB-M002)	Soil Moisture Smart Sensor - EC5 (S-SMC-M005)	2019-07-16T08:00:01	0.00	17.082	74.700	0.6111	12.6
1582	AB07CD0350	WETLAND SAL01	SALINE (FEN)	56.573903999999998859493643976747989654541015625	-111.277773999999993748133420012891292572021484375	HOBO Rain Gauge Data Logger - RG3	HOBO Temperature/RH Smart Sensor (S-THB-M002)	Soil Moisture Smart Sensor - EC5 (S-SMC-M005)	2019-07-16T09:00:01	0.00	19.936	65.600	0.6111	13.3
1583	AB07CD0350	WETLAND SAL01	SALINE (FEN)	56.573903999999998859493643976747989654541015625	-111.277773999999993748133420012891292572021484375	HOBO Rain Gauge Data Logger - RG3	HOBO Temperature/RH Smart Sensor (S-THB-M002)	Soil Moisture Smart Sensor - EC5 (S-SMC-M005)	2019-07-16T10:00:01	0.00	22.585	57.900	0.6111	13.9
1584	AB07CD0350	WETLAND SAL01	SALINE (FEN)	56.573903999999998859493643976747989654541015625	-111.277773999999993748133420012891292572021484375	HOBO Rain Gauge Data Logger - RG3	HOBO Temperature/RH Smart Sensor (S-THB-M002)	Soil Moisture Smart Sensor - EC5 (S-SMC-M005)	2019-07-16T11:00:01	0.00	23.569	46.300	0.6111	11.4
1585	AB07CD0350	WETLAND SAL01	SALINE (FEN)	56.573903999999998859493643976747989654541015625	-111.277773999999993748133420012891292572021484375	HOBO Rain Gauge Data Logger - RG3	HOBO Temperature/RH Smart Sensor (S-THB-M002)	Soil Moisture Smart Sensor - EC5 (S-SMC-M005)	2019-07-16T12:00:01	0.00	22.872	40.500	0.6111	8.8
1586	AB07CD0350	WETLAND SAL01	SALINE (FEN)	56.573903999999998859493643976747989654541015625	-111.277773999999993748133420012891292572021484375	HOBO Rain Gauge Data Logger - RG3	HOBO Temperature/RH Smart Sensor (S-THB-M002)	Soil Moisture Smart Sensor - EC5 (S-SMC-M005)	2019-07-16T13:00:01	0.00	23.112	43.000	0.6111	9.9
1587	AB07CD0350	WETLAND SAL01	SALINE (FEN)	56.573903999999998859493643976747989654541015625	-111.277773999999993748133420012891292572021484375	HOBO Rain Gauge Data Logger - RG3	HOBO Temperature/RH Smart Sensor (S-THB-M002)	Soil Moisture Smart Sensor - EC5 (S-SMC-M005)	2019-07-16T14:00:01	0.00	25.355	38.300	0.6111	10.1
1588	AB07CD0350	WETLAND SAL01	SALINE (FEN)	56.573903999999998859493643976747989654541015625	-111.277773999999993748133420012891292572021484375	HOBO Rain Gauge Data Logger - RG3	HOBO Temperature/RH Smart Sensor (S-THB-M002)	Soil Moisture Smart Sensor - EC5 (S-SMC-M005)	2019-07-16T15:00:01	0.00	24.581	35.400	0.6111	8.3
1589	AB07CD0350	WETLAND SAL01	SALINE (FEN)	56.573903999999998859493643976747989654541015625	-111.277773999999993748133420012891292572021484375	HOBO Rain Gauge Data Logger - RG3	HOBO Temperature/RH Smart Sensor (S-THB-M002)	Soil Moisture Smart Sensor - EC5 (S-SMC-M005)	2019-07-16T16:00:01	0.00	24.557	34.900	0.6111	8.1
1590	AB07CD0350	WETLAND SAL01	SALINE (FEN)	56.573903999999998859493643976747989654541015625	-111.277773999999993748133420012891292572021484375	HOBO Rain Gauge Data Logger - RG3	HOBO Temperature/RH Smart Sensor (S-THB-M002)	Soil Moisture Smart Sensor - EC5 (S-SMC-M005)	2019-07-16T17:00:01	0.00	26.867	34.100	0.6111	9.7
1591	AB07CD0350	WETLAND SAL01	SALINE (FEN)	56.573903999999998859493643976747989654541015625	-111.277773999999993748133420012891292572021484375	HOBO Rain Gauge Data Logger - RG3	HOBO Temperature/RH Smart Sensor (S-THB-M002)	Soil Moisture Smart Sensor - EC5 (S-SMC-M005)	2019-07-16T18:00:01	0.00	25.089	33.100	0.6111	7.7
1592	AB07CD0350	WETLAND SAL01	SALINE (FEN)	56.573903999999998859493643976747989654541015625	-111.277773999999993748133420012891292572021484375	HOBO Rain Gauge Data Logger - RG3	HOBO Temperature/RH Smart Sensor (S-THB-M002)	Soil Moisture Smart Sensor - EC5 (S-SMC-M005)	2019-07-16T19:00:01	0.00	23.448	38.900	0.6111	8.7
1593	AB07CD0350	WETLAND SAL01	SALINE (FEN)	56.573903999999998859493643976747989654541015625	-111.277773999999993748133420012891292572021484375	HOBO Rain Gauge Data Logger - RG3	HOBO Temperature/RH Smart Sensor (S-THB-M002)	Soil Moisture Smart Sensor - EC5 (S-SMC-M005)	2019-07-16T20:00:01	0.00	23.064	43.000	0.6111	9.8
1594	AB07CD0350	WETLAND SAL01	SALINE (FEN)	56.573903999999998859493643976747989654541015625	-111.277773999999993748133420012891292572021484375	HOBO Rain Gauge Data Logger - RG3	HOBO Temperature/RH Smart Sensor (S-THB-M002)	Soil Moisture Smart Sensor - EC5 (S-SMC-M005)	2019-07-16T21:00:01	0.00	20.341	53.400	0.6111	10.6
1595	AB07CD0350	WETLAND SAL01	SALINE (FEN)	56.573903999999998859493643976747989654541015625	-111.277773999999993748133420012891292572021484375	HOBO Rain Gauge Data Logger - RG3	HOBO Temperature/RH Smart Sensor (S-THB-M002)	Soil Moisture Smart Sensor - EC5 (S-SMC-M005)	2019-07-16T22:00:01	0.00	17.677	59.000	0.6111	9.6
1596	AB07CD0350	WETLAND SAL01	SALINE (FEN)	56.573903999999998859493643976747989654541015625	-111.277773999999993748133420012891292572021484375	HOBO Rain Gauge Data Logger - RG3	HOBO Temperature/RH Smart Sensor (S-THB-M002)	Soil Moisture Smart Sensor - EC5 (S-SMC-M005)	2019-07-16T23:00:01	0.00	15.796	66.300	0.6111	9.5
1597	AB07CD0350	WETLAND SAL01	SALINE (FEN)	56.573903999999998859493643976747989654541015625	-111.277773999999993748133420012891292572021484375	HOBO Rain Gauge Data Logger - RG3	HOBO Temperature/RH Smart Sensor (S-THB-M002)	Soil Moisture Smart Sensor - EC5 (S-SMC-M005)	2019-07-17T00:00:01	0.00	10.320	78.100	0.6111	6.7
1598	AB07CD0350	WETLAND SAL01	SALINE (FEN)	56.573903999999998859493643976747989654541015625	-111.277773999999993748133420012891292572021484375	HOBO Rain Gauge Data Logger - RG3	HOBO Temperature/RH Smart Sensor (S-THB-M002)	Soil Moisture Smart Sensor - EC5 (S-SMC-M005)	2019-07-17T01:00:01	0.00	9.188	87.500	0.6111	7.2
1599	AB07CD0350	WETLAND SAL01	SALINE (FEN)	56.573903999999998859493643976747989654541015625	-111.277773999999993748133420012891292572021484375	HOBO Rain Gauge Data Logger - RG3	HOBO Temperature/RH Smart Sensor (S-THB-M002)	Soil Moisture Smart Sensor - EC5 (S-SMC-M005)	2019-07-17T02:00:01	0.00	8.916	90.100	0.6111	7.4
1600	AB07CD0350	WETLAND SAL01	SALINE (FEN)	56.573903999999998859493643976747989654541015625	-111.277773999999993748133420012891292572021484375	HOBO Rain Gauge Data Logger - RG3	HOBO Temperature/RH Smart Sensor (S-THB-M002)	Soil Moisture Smart Sensor - EC5 (S-SMC-M005)	2019-07-17T03:00:01	0.00	10.956	91.800	0.6111	9.7
1601	AB07CD0350	WETLAND SAL01	SALINE (FEN)	56.573903999999998859493643976747989654541015625	-111.277773999999993748133420012891292572021484375	HOBO Rain Gauge Data Logger - RG3	HOBO Temperature/RH Smart Sensor (S-THB-M002)	Soil Moisture Smart Sensor - EC5 (S-SMC-M005)	2019-07-17T04:00:01	0.00	11.565	91.600	0.6111	10.3
1602	AB07CD0350	WETLAND SAL01	SALINE (FEN)	56.573903999999998859493643976747989654541015625	-111.277773999999993748133420012891292572021484375	HOBO Rain Gauge Data Logger - RG3	HOBO Temperature/RH Smart Sensor (S-THB-M002)	Soil Moisture Smart Sensor - EC5 (S-SMC-M005)	2019-07-17T05:00:01	0.00	11.686	91.200	0.6111	10.3
1603	AB07CD0350	WETLAND SAL01	SALINE (FEN)	56.573903999999998859493643976747989654541015625	-111.277773999999993748133420012891292572021484375	HOBO Rain Gauge Data Logger - RG3	HOBO Temperature/RH Smart Sensor (S-THB-M002)	Soil Moisture Smart Sensor - EC5 (S-SMC-M005)	2019-07-17T06:00:01	0.00	11.321	91.600	0.6111	10.0
1604	AB07CD0350	WETLAND SAL01	SALINE (FEN)	56.573903999999998859493643976747989654541015625	-111.277773999999993748133420012891292572021484375	HOBO Rain Gauge Data Logger - RG3	HOBO Temperature/RH Smart Sensor (S-THB-M002)	Soil Moisture Smart Sensor - EC5 (S-SMC-M005)	2019-07-17T07:00:01	0.00	15.843	90.000	0.6111	14.2
1605	AB07CD0350	WETLAND SAL01	SALINE (FEN)	56.573903999999998859493643976747989654541015625	-111.277773999999993748133420012891292572021484375	HOBO Rain Gauge Data Logger - RG3	HOBO Temperature/RH Smart Sensor (S-THB-M002)	Soil Moisture Smart Sensor - EC5 (S-SMC-M005)	2019-07-17T08:00:01	0.00	19.651	76.800	0.6111	15.5
1606	AB07CD0350	WETLAND SAL01	SALINE (FEN)	56.573903999999998859493643976747989654541015625	-111.277773999999993748133420012891292572021484375	HOBO Rain Gauge Data Logger - RG3	HOBO Temperature/RH Smart Sensor (S-THB-M002)	Soil Moisture Smart Sensor - EC5 (S-SMC-M005)	2019-07-17T09:00:01	0.00	21.413	65.000	0.6119	14.6
1607	AB07CD0350	WETLAND SAL01	SALINE (FEN)	56.573903999999998859493643976747989654541015625	-111.277773999999993748133420012891292572021484375	HOBO Rain Gauge Data Logger - RG3	HOBO Temperature/RH Smart Sensor (S-THB-M002)	Soil Moisture Smart Sensor - EC5 (S-SMC-M005)	2019-07-17T10:00:01	0.00	23.040	56.500	0.6119	13.9
1608	AB07CD0350	WETLAND SAL01	SALINE (FEN)	56.573903999999998859493643976747989654541015625	-111.277773999999993748133420012891292572021484375	HOBO Rain Gauge Data Logger - RG3	HOBO Temperature/RH Smart Sensor (S-THB-M002)	Soil Moisture Smart Sensor - EC5 (S-SMC-M005)	2019-07-17T11:00:01	0.00	23.569	53.100	0.6119	13.5
1609	AB07CD0350	WETLAND SAL01	SALINE (FEN)	56.573903999999998859493643976747989654541015625	-111.277773999999993748133420012891292572021484375	HOBO Rain Gauge Data Logger - RG3	HOBO Temperature/RH Smart Sensor (S-THB-M002)	Soil Moisture Smart Sensor - EC5 (S-SMC-M005)	2019-07-17T12:00:01	0.00	22.729	51.000	0.6119	12.1
1610	AB07CD0350	WETLAND SAL01	SALINE (FEN)	56.573903999999998859493643976747989654541015625	-111.277773999999993748133420012891292572021484375	HOBO Rain Gauge Data Logger - RG3	HOBO Temperature/RH Smart Sensor (S-THB-M002)	Soil Moisture Smart Sensor - EC5 (S-SMC-M005)	2019-07-17T13:00:01	0.00	23.905	46.300	0.6119	11.7
1611	AB07CD0350	WETLAND SAL01	SALINE (FEN)	56.573903999999998859493643976747989654541015625	-111.277773999999993748133420012891292572021484375	HOBO Rain Gauge Data Logger - RG3	HOBO Temperature/RH Smart Sensor (S-THB-M002)	Soil Moisture Smart Sensor - EC5 (S-SMC-M005)	2019-07-17T14:00:01	0.00	23.328	48.800	0.6111	12.0
1612	AB07CD0350	WETLAND SAL01	SALINE (FEN)	56.573903999999998859493643976747989654541015625	-111.277773999999993748133420012891292572021484375	HOBO Rain Gauge Data Logger - RG3	HOBO Temperature/RH Smart Sensor (S-THB-M002)	Soil Moisture Smart Sensor - EC5 (S-SMC-M005)	2019-07-17T15:00:01	0.00	24.919	46.800	0.6111	12.8
1613	AB07CD0350	WETLAND SAL01	SALINE (FEN)	56.573903999999998859493643976747989654541015625	-111.277773999999993748133420012891292572021484375	HOBO Rain Gauge Data Logger - RG3	HOBO Temperature/RH Smart Sensor (S-THB-M002)	Soil Moisture Smart Sensor - EC5 (S-SMC-M005)	2019-07-17T16:00:01	0.00	25.089	43.600	0.6119	11.9
1614	AB07CD0350	WETLAND SAL01	SALINE (FEN)	56.573903999999998859493643976747989654541015625	-111.277773999999993748133420012891292572021484375	HOBO Rain Gauge Data Logger - RG3	HOBO Temperature/RH Smart Sensor (S-THB-M002)	Soil Moisture Smart Sensor - EC5 (S-SMC-M005)	2019-07-17T17:00:01	0.00	25.234	41.200	0.6111	11.1
1615	AB07CD0350	WETLAND SAL01	SALINE (FEN)	56.573903999999998859493643976747989654541015625	-111.277773999999993748133420012891292572021484375	HOBO Rain Gauge Data Logger - RG3	HOBO Temperature/RH Smart Sensor (S-THB-M002)	Soil Moisture Smart Sensor - EC5 (S-SMC-M005)	2019-07-17T18:00:01	0.00	25.939	38.800	0.6119	10.9
1616	AB07CD0350	WETLAND SAL01	SALINE (FEN)	56.573903999999998859493643976747989654541015625	-111.277773999999993748133420012891292572021484375	HOBO Rain Gauge Data Logger - RG3	HOBO Temperature/RH Smart Sensor (S-THB-M002)	Soil Moisture Smart Sensor - EC5 (S-SMC-M005)	2019-07-17T19:00:01	0.00	25.380	39.900	0.6119	10.8
1617	AB07CD0350	WETLAND SAL01	SALINE (FEN)	56.573903999999998859493643976747989654541015625	-111.277773999999993748133420012891292572021484375	HOBO Rain Gauge Data Logger - RG3	HOBO Temperature/RH Smart Sensor (S-THB-M002)	Soil Moisture Smart Sensor - EC5 (S-SMC-M005)	2019-07-17T20:00:01	0.00	24.195	43.800	0.6119	11.1
1618	AB07CD0350	WETLAND SAL01	SALINE (FEN)	56.573903999999998859493643976747989654541015625	-111.277773999999993748133420012891292572021484375	HOBO Rain Gauge Data Logger - RG3	HOBO Temperature/RH Smart Sensor (S-THB-M002)	Soil Moisture Smart Sensor - EC5 (S-SMC-M005)	2019-07-17T21:00:01	0.00	21.795	48.300	0.6119	10.4
1619	AB07CD0350	WETLAND SAL01	SALINE (FEN)	56.573903999999998859493643976747989654541015625	-111.277773999999993748133420012891292572021484375	HOBO Rain Gauge Data Logger - RG3	HOBO Temperature/RH Smart Sensor (S-THB-M002)	Soil Moisture Smart Sensor - EC5 (S-SMC-M005)	2019-07-17T22:00:01	0.00	20.150	56.800	0.6119	11.3
1620	AB07CD0350	WETLAND SAL01	SALINE (FEN)	56.573903999999998859493643976747989654541015625	-111.277773999999993748133420012891292572021484375	HOBO Rain Gauge Data Logger - RG3	HOBO Temperature/RH Smart Sensor (S-THB-M002)	Soil Moisture Smart Sensor - EC5 (S-SMC-M005)	2019-07-17T23:00:01	0.00	18.675	63.200	0.6119	11.6
1621	AB07CD0350	WETLAND SAL01	SALINE (FEN)	56.573903999999998859493643976747989654541015625	-111.277773999999993748133420012891292572021484375	HOBO Rain Gauge Data Logger - RG3	HOBO Temperature/RH Smart Sensor (S-THB-M002)	Soil Moisture Smart Sensor - EC5 (S-SMC-M005)	2019-07-18T00:00:01	0.00	15.963	68.800	0.6119	10.3
1622	AB07CD0350	WETLAND SAL01	SALINE (FEN)	56.573903999999998859493643976747989654541015625	-111.277773999999993748133420012891292572021484375	HOBO Rain Gauge Data Logger - RG3	HOBO Temperature/RH Smart Sensor (S-THB-M002)	Soil Moisture Smart Sensor - EC5 (S-SMC-M005)	2019-07-18T01:00:01	0.00	13.522	77.600	0.6119	9.7
1623	AB07CD0350	WETLAND SAL01	SALINE (FEN)	56.573903999999998859493643976747989654541015625	-111.277773999999993748133420012891292572021484375	HOBO Rain Gauge Data Logger - RG3	HOBO Temperature/RH Smart Sensor (S-THB-M002)	Soil Moisture Smart Sensor - EC5 (S-SMC-M005)	2019-07-18T02:00:01	0.00	10.001	87.700	0.6119	8.1
1624	AB07CD0350	WETLAND SAL01	SALINE (FEN)	56.573903999999998859493643976747989654541015625	-111.277773999999993748133420012891292572021484375	HOBO Rain Gauge Data Logger - RG3	HOBO Temperature/RH Smart Sensor (S-THB-M002)	Soil Moisture Smart Sensor - EC5 (S-SMC-M005)	2019-07-18T03:00:01	0.00	8.668	91.300	0.6126	7.3
1625	AB07CD0350	WETLAND SAL01	SALINE (FEN)	56.573903999999998859493643976747989654541015625	-111.277773999999993748133420012891292572021484375	HOBO Rain Gauge Data Logger - RG3	HOBO Temperature/RH Smart Sensor (S-THB-M002)	Soil Moisture Smart Sensor - EC5 (S-SMC-M005)	2019-07-18T04:00:01	0.00	9.657	94.500	0.6119	8.8
1626	AB07CD0350	WETLAND SAL01	SALINE (FEN)	56.573903999999998859493643976747989654541015625	-111.277773999999993748133420012891292572021484375	HOBO Rain Gauge Data Logger - RG3	HOBO Temperature/RH Smart Sensor (S-THB-M002)	Soil Moisture Smart Sensor - EC5 (S-SMC-M005)	2019-07-18T05:00:01	0.00	8.295	95.600	0.6119	7.6
1627	AB07CD0350	WETLAND SAL01	SALINE (FEN)	56.573903999999998859493643976747989654541015625	-111.277773999999993748133420012891292572021484375	HOBO Rain Gauge Data Logger - RG3	HOBO Temperature/RH Smart Sensor (S-THB-M002)	Soil Moisture Smart Sensor - EC5 (S-SMC-M005)	2019-07-18T06:00:01	0.00	8.394	96.000	0.6126	7.8
1628	AB07CD0350	WETLAND SAL01	SALINE (FEN)	56.573903999999998859493643976747989654541015625	-111.277773999999993748133420012891292572021484375	HOBO Rain Gauge Data Logger - RG3	HOBO Temperature/RH Smart Sensor (S-THB-M002)	Soil Moisture Smart Sensor - EC5 (S-SMC-M005)	2019-07-18T07:00:01	0.00	13.978	94.700	0.6126	13.2
1629	AB07CD0350	WETLAND SAL01	SALINE (FEN)	56.573903999999998859493643976747989654541015625	-111.277773999999993748133420012891292572021484375	HOBO Rain Gauge Data Logger - RG3	HOBO Temperature/RH Smart Sensor (S-THB-M002)	Soil Moisture Smart Sensor - EC5 (S-SMC-M005)	2019-07-18T08:00:01	0.00	17.915	80.500	0.6119	14.5
1630	AB07CD0350	WETLAND SAL01	SALINE (FEN)	56.573903999999998859493643976747989654541015625	-111.277773999999993748133420012891292572021484375	HOBO Rain Gauge Data Logger - RG3	HOBO Temperature/RH Smart Sensor (S-THB-M002)	Soil Moisture Smart Sensor - EC5 (S-SMC-M005)	2019-07-18T09:00:01	0.00	21.246	68.300	0.6126	15.2
1631	AB07CD0350	WETLAND SAL01	SALINE (FEN)	56.573903999999998859493643976747989654541015625	-111.277773999999993748133420012891292572021484375	HOBO Rain Gauge Data Logger - RG3	HOBO Temperature/RH Smart Sensor (S-THB-M002)	Soil Moisture Smart Sensor - EC5 (S-SMC-M005)	2019-07-18T10:00:01	0.00	21.795	63.200	0.6126	14.5
1632	AB07CD0350	WETLAND SAL01	SALINE (FEN)	56.573903999999998859493643976747989654541015625	-111.277773999999993748133420012891292572021484375	HOBO Rain Gauge Data Logger - RG3	HOBO Temperature/RH Smart Sensor (S-THB-M002)	Soil Moisture Smart Sensor - EC5 (S-SMC-M005)	2019-07-18T11:00:01	0.00	22.657	54.500	0.6126	13.0
1633	AB07CD0350	WETLAND SAL01	SALINE (FEN)	56.573903999999998859493643976747989654541015625	-111.277773999999993748133420012891292572021484375	HOBO Rain Gauge Data Logger - RG3	HOBO Temperature/RH Smart Sensor (S-THB-M002)	Soil Moisture Smart Sensor - EC5 (S-SMC-M005)	2019-07-18T12:00:01	0.00	23.954	51.700	0.6126	13.4
1634	AB07CD0350	WETLAND SAL01	SALINE (FEN)	56.573903999999998859493643976747989654541015625	-111.277773999999993748133420012891292572021484375	HOBO Rain Gauge Data Logger - RG3	HOBO Temperature/RH Smart Sensor (S-THB-M002)	Soil Moisture Smart Sensor - EC5 (S-SMC-M005)	2019-07-18T13:00:01	0.00	24.002	51.000	0.6126	13.3
1635	AB07CD0350	WETLAND SAL01	SALINE (FEN)	56.573903999999998859493643976747989654541015625	-111.277773999999993748133420012891292572021484375	HOBO Rain Gauge Data Logger - RG3	HOBO Temperature/RH Smart Sensor (S-THB-M002)	Soil Moisture Smart Sensor - EC5 (S-SMC-M005)	2019-07-18T14:00:01	0.00	23.280	46.500	0.6119	11.2
1636	AB07CD0350	WETLAND SAL01	SALINE (FEN)	56.573903999999998859493643976747989654541015625	-111.277773999999993748133420012891292572021484375	HOBO Rain Gauge Data Logger - RG3	HOBO Temperature/RH Smart Sensor (S-THB-M002)	Soil Moisture Smart Sensor - EC5 (S-SMC-M005)	2019-07-18T15:00:01	0.60	18.842	51.400	0.6111	8.6
1637	AB07CD0350	WETLAND SAL01	SALINE (FEN)	56.573903999999998859493643976747989654541015625	-111.277773999999993748133420012891292572021484375	HOBO Rain Gauge Data Logger - RG3	HOBO Temperature/RH Smart Sensor (S-THB-M002)	Soil Moisture Smart Sensor - EC5 (S-SMC-M005)	2019-07-18T16:00:01	0.20	19.413	65.000	0.6119	12.7
1638	AB07CD0350	WETLAND SAL01	SALINE (FEN)	56.573903999999998859493643976747989654541015625	-111.277773999999993748133420012891292572021484375	HOBO Rain Gauge Data Logger - RG3	HOBO Temperature/RH Smart Sensor (S-THB-M002)	Soil Moisture Smart Sensor - EC5 (S-SMC-M005)	2019-07-18T17:00:01	0.00	16.844	69.100	0.6119	11.2
1639	AB07CD0350	WETLAND SAL01	SALINE (FEN)	56.573903999999998859493643976747989654541015625	-111.277773999999993748133420012891292572021484375	HOBO Rain Gauge Data Logger - RG3	HOBO Temperature/RH Smart Sensor (S-THB-M002)	Soil Moisture Smart Sensor - EC5 (S-SMC-M005)	2019-07-18T18:00:01	0.40	20.174	82.200	0.6119	17.1
1640	AB07CD0350	WETLAND SAL01	SALINE (FEN)	56.573903999999998859493643976747989654541015625	-111.277773999999993748133420012891292572021484375	HOBO Rain Gauge Data Logger - RG3	HOBO Temperature/RH Smart Sensor (S-THB-M002)	Soil Moisture Smart Sensor - EC5 (S-SMC-M005)	2019-07-18T19:00:01	0.00	17.368	78.900	0.6119	13.7
1641	AB07CD0350	WETLAND SAL01	SALINE (FEN)	56.573903999999998859493643976747989654541015625	-111.277773999999993748133420012891292572021484375	HOBO Rain Gauge Data Logger - RG3	HOBO Temperature/RH Smart Sensor (S-THB-M002)	Soil Moisture Smart Sensor - EC5 (S-SMC-M005)	2019-07-18T20:00:01	0.80	15.509	88.900	0.6119	13.7
1642	AB07CD0350	WETLAND SAL01	SALINE (FEN)	56.573903999999998859493643976747989654541015625	-111.277773999999993748133420012891292572021484375	HOBO Rain Gauge Data Logger - RG3	HOBO Temperature/RH Smart Sensor (S-THB-M002)	Soil Moisture Smart Sensor - EC5 (S-SMC-M005)	2019-07-18T21:00:01	0.00	16.511	90.000	0.6119	14.9
1643	AB07CD0350	WETLAND SAL01	SALINE (FEN)	56.573903999999998859493643976747989654541015625	-111.277773999999993748133420012891292572021484375	HOBO Rain Gauge Data Logger - RG3	HOBO Temperature/RH Smart Sensor (S-THB-M002)	Soil Moisture Smart Sensor - EC5 (S-SMC-M005)	2019-07-18T22:00:01	0.20	15.318	91.000	0.6119	13.9
1644	AB07CD0350	WETLAND SAL01	SALINE (FEN)	56.573903999999998859493643976747989654541015625	-111.277773999999993748133420012891292572021484375	HOBO Rain Gauge Data Logger - RG3	HOBO Temperature/RH Smart Sensor (S-THB-M002)	Soil Moisture Smart Sensor - EC5 (S-SMC-M005)	2019-07-18T23:00:01	0.00	13.161	92.600	0.6126	12.0
1645	AB07CD0350	WETLAND SAL01	SALINE (FEN)	56.573903999999998859493643976747989654541015625	-111.277773999999993748133420012891292572021484375	HOBO Rain Gauge Data Logger - RG3	HOBO Temperature/RH Smart Sensor (S-THB-M002)	Soil Moisture Smart Sensor - EC5 (S-SMC-M005)	2019-07-19T00:00:01	0.00	13.185	95.600	0.6126	12.5
1646	AB07CD0350	WETLAND SAL01	SALINE (FEN)	56.573903999999998859493643976747989654541015625	-111.277773999999993748133420012891292572021484375	HOBO Rain Gauge Data Logger - RG3	HOBO Temperature/RH Smart Sensor (S-THB-M002)	Soil Moisture Smart Sensor - EC5 (S-SMC-M005)	2019-07-19T01:00:01	0.20	12.678	96.700	0.6126	12.2
1647	AB07CD0350	WETLAND SAL01	SALINE (FEN)	56.573903999999998859493643976747989654541015625	-111.277773999999993748133420012891292572021484375	HOBO Rain Gauge Data Logger - RG3	HOBO Temperature/RH Smart Sensor (S-THB-M002)	Soil Moisture Smart Sensor - EC5 (S-SMC-M005)	2019-07-19T02:00:01	0.00	11.273	97.100	0.6126	10.8
1648	AB07CD0350	WETLAND SAL01	SALINE (FEN)	56.573903999999998859493643976747989654541015625	-111.277773999999993748133420012891292572021484375	HOBO Rain Gauge Data Logger - RG3	HOBO Temperature/RH Smart Sensor (S-THB-M002)	Soil Moisture Smart Sensor - EC5 (S-SMC-M005)	2019-07-19T03:00:01	0.00	11.565	97.600	0.6126	11.2
1649	AB07CD0350	WETLAND SAL01	SALINE (FEN)	56.573903999999998859493643976747989654541015625	-111.277773999999993748133420012891292572021484375	HOBO Rain Gauge Data Logger - RG3	HOBO Temperature/RH Smart Sensor (S-THB-M002)	Soil Moisture Smart Sensor - EC5 (S-SMC-M005)	2019-07-19T04:00:01	0.00	11.005	98.100	0.6126	10.7
1650	AB07CD0350	WETLAND SAL01	SALINE (FEN)	56.573903999999998859493643976747989654541015625	-111.277773999999993748133420012891292572021484375	HOBO Rain Gauge Data Logger - RG3	HOBO Temperature/RH Smart Sensor (S-THB-M002)	Soil Moisture Smart Sensor - EC5 (S-SMC-M005)	2019-07-19T05:00:01	0.00	8.344	98.400	0.6126	8.1
1651	AB07CD0350	WETLAND SAL01	SALINE (FEN)	56.573903999999998859493643976747989654541015625	-111.277773999999993748133420012891292572021484375	HOBO Rain Gauge Data Logger - RG3	HOBO Temperature/RH Smart Sensor (S-THB-M002)	Soil Moisture Smart Sensor - EC5 (S-SMC-M005)	2019-07-19T06:00:01	0.00	9.460	98.800	0.6126	9.3
1652	AB07CD0350	WETLAND SAL01	SALINE (FEN)	56.573903999999998859493643976747989654541015625	-111.277773999999993748133420012891292572021484375	HOBO Rain Gauge Data Logger - RG3	HOBO Temperature/RH Smart Sensor (S-THB-M002)	Soil Moisture Smart Sensor - EC5 (S-SMC-M005)	2019-07-19T07:00:01	0.00	13.161	98.100	0.6126	12.9
1653	AB07CD0350	WETLAND SAL01	SALINE (FEN)	56.573903999999998859493643976747989654541015625	-111.277773999999993748133420012891292572021484375	HOBO Rain Gauge Data Logger - RG3	HOBO Temperature/RH Smart Sensor (S-THB-M002)	Soil Moisture Smart Sensor - EC5 (S-SMC-M005)	2019-07-19T08:00:01	0.00	15.485	95.300	0.6126	14.8
1654	AB07CD0350	WETLAND SAL01	SALINE (FEN)	56.573903999999998859493643976747989654541015625	-111.277773999999993748133420012891292572021484375	HOBO Rain Gauge Data Logger - RG3	HOBO Temperature/RH Smart Sensor (S-THB-M002)	Soil Moisture Smart Sensor - EC5 (S-SMC-M005)	2019-07-19T09:00:01	0.00	15.772	91.900	0.6119	14.5
1655	AB07CD0350	WETLAND SAL01	SALINE (FEN)	56.573903999999998859493643976747989654541015625	-111.277773999999993748133420012891292572021484375	HOBO Rain Gauge Data Logger - RG3	HOBO Temperature/RH Smart Sensor (S-THB-M002)	Soil Moisture Smart Sensor - EC5 (S-SMC-M005)	2019-07-19T10:00:01	0.00	19.246	85.600	0.6126	16.8
1656	AB07CD0350	WETLAND SAL01	SALINE (FEN)	56.573903999999998859493643976747989654541015625	-111.277773999999993748133420012891292572021484375	HOBO Rain Gauge Data Logger - RG3	HOBO Temperature/RH Smart Sensor (S-THB-M002)	Soil Moisture Smart Sensor - EC5 (S-SMC-M005)	2019-07-19T11:00:01	0.00	20.913	75.100	0.6126	16.4
1657	AB07CD0350	WETLAND SAL01	SALINE (FEN)	56.573903999999998859493643976747989654541015625	-111.277773999999993748133420012891292572021484375	HOBO Rain Gauge Data Logger - RG3	HOBO Temperature/RH Smart Sensor (S-THB-M002)	Soil Moisture Smart Sensor - EC5 (S-SMC-M005)	2019-07-19T12:00:01	0.00	23.016	70.700	0.6126	17.4
1658	AB07CD0350	WETLAND SAL01	SALINE (FEN)	56.573903999999998859493643976747989654541015625	-111.277773999999993748133420012891292572021484375	HOBO Rain Gauge Data Logger - RG3	HOBO Temperature/RH Smart Sensor (S-THB-M002)	Soil Moisture Smart Sensor - EC5 (S-SMC-M005)	2019-07-19T13:00:01	0.00	24.508	63.400	0.6126	17.1
1659	AB07CD0350	WETLAND SAL01	SALINE (FEN)	56.573903999999998859493643976747989654541015625	-111.277773999999993748133420012891292572021484375	HOBO Rain Gauge Data Logger - RG3	HOBO Temperature/RH Smart Sensor (S-THB-M002)	Soil Moisture Smart Sensor - EC5 (S-SMC-M005)	2019-07-19T14:00:01	0.00	24.919	56.400	0.6126	15.7
1660	AB07CD0350	WETLAND SAL01	SALINE (FEN)	56.573903999999998859493643976747989654541015625	-111.277773999999993748133420012891292572021484375	HOBO Rain Gauge Data Logger - RG3	HOBO Temperature/RH Smart Sensor (S-THB-M002)	Soil Moisture Smart Sensor - EC5 (S-SMC-M005)	2019-07-19T15:00:01	0.00	24.605	53.100	0.6126	14.4
1661	AB07CD0350	WETLAND SAL01	SALINE (FEN)	56.573903999999998859493643976747989654541015625	-111.277773999999993748133420012891292572021484375	HOBO Rain Gauge Data Logger - RG3	HOBO Temperature/RH Smart Sensor (S-THB-M002)	Soil Moisture Smart Sensor - EC5 (S-SMC-M005)	2019-07-19T16:00:01	0.00	24.895	50.400	0.6126	13.9
1662	AB07CD0350	WETLAND SAL01	SALINE (FEN)	56.573903999999998859493643976747989654541015625	-111.277773999999993748133420012891292572021484375	HOBO Rain Gauge Data Logger - RG3	HOBO Temperature/RH Smart Sensor (S-THB-M002)	Soil Moisture Smart Sensor - EC5 (S-SMC-M005)	2019-07-19T17:00:01	0.00	24.774	47.300	0.6126	12.8
1663	AB07CD0350	WETLAND SAL01	SALINE (FEN)	56.573903999999998859493643976747989654541015625	-111.277773999999993748133420012891292572021484375	HOBO Rain Gauge Data Logger - RG3	HOBO Temperature/RH Smart Sensor (S-THB-M002)	Soil Moisture Smart Sensor - EC5 (S-SMC-M005)	2019-07-19T18:00:01	0.00	24.460	41.900	0.6126	10.7
1664	AB07CD0350	WETLAND SAL01	SALINE (FEN)	56.573903999999998859493643976747989654541015625	-111.277773999999993748133420012891292572021484375	HOBO Rain Gauge Data Logger - RG3	HOBO Temperature/RH Smart Sensor (S-THB-M002)	Soil Moisture Smart Sensor - EC5 (S-SMC-M005)	2019-07-19T19:00:01	0.00	23.689	38.400	0.6126	8.7
1665	AB07CD0350	WETLAND SAL01	SALINE (FEN)	56.573903999999998859493643976747989654541015625	-111.277773999999993748133420012891292572021484375	HOBO Rain Gauge Data Logger - RG3	HOBO Temperature/RH Smart Sensor (S-THB-M002)	Soil Moisture Smart Sensor - EC5 (S-SMC-M005)	2019-07-19T20:00:01	0.00	22.465	39.200	0.6126	7.9
1666	AB07CD0350	WETLAND SAL01	SALINE (FEN)	56.573903999999998859493643976747989654541015625	-111.277773999999993748133420012891292572021484375	HOBO Rain Gauge Data Logger - RG3	HOBO Temperature/RH Smart Sensor (S-THB-M002)	Soil Moisture Smart Sensor - EC5 (S-SMC-M005)	2019-07-19T21:00:01	0.00	20.198	42.000	0.6126	6.9
1667	AB07CD0350	WETLAND SAL01	SALINE (FEN)	56.573903999999998859493643976747989654541015625	-111.277773999999993748133420012891292572021484375	HOBO Rain Gauge Data Logger - RG3	HOBO Temperature/RH Smart Sensor (S-THB-M002)	Soil Moisture Smart Sensor - EC5 (S-SMC-M005)	2019-07-19T22:00:01	0.00	17.724	53.000	0.6126	8.0
1668	AB07CD0350	WETLAND SAL01	SALINE (FEN)	56.573903999999998859493643976747989654541015625	-111.277773999999993748133420012891292572021484375	HOBO Rain Gauge Data Logger - RG3	HOBO Temperature/RH Smart Sensor (S-THB-M002)	Soil Moisture Smart Sensor - EC5 (S-SMC-M005)	2019-07-19T23:00:01	0.00	15.294	58.700	0.6133	7.3
1669	AB07CD0350	WETLAND SAL01	SALINE (FEN)	56.573903999999998859493643976747989654541015625	-111.277773999999993748133420012891292572021484375	HOBO Rain Gauge Data Logger - RG3	HOBO Temperature/RH Smart Sensor (S-THB-M002)	Soil Moisture Smart Sensor - EC5 (S-SMC-M005)	2019-07-20T00:00:01	0.00	12.944	63.600	0.6126	6.2
1670	AB07CD0350	WETLAND SAL01	SALINE (FEN)	56.573903999999998859493643976747989654541015625	-111.277773999999993748133420012891292572021484375	HOBO Rain Gauge Data Logger - RG3	HOBO Temperature/RH Smart Sensor (S-THB-M002)	Soil Moisture Smart Sensor - EC5 (S-SMC-M005)	2019-07-20T01:00:01	0.00	10.590	69.900	0.6133	5.3
1671	AB07CD0350	WETLAND SAL01	SALINE (FEN)	56.573903999999998859493643976747989654541015625	-111.277773999999993748133420012891292572021484375	HOBO Rain Gauge Data Logger - RG3	HOBO Temperature/RH Smart Sensor (S-THB-M002)	Soil Moisture Smart Sensor - EC5 (S-SMC-M005)	2019-07-20T02:00:01	0.00	5.642	83.000	0.6133	3.0
1672	AB07CD0350	WETLAND SAL01	SALINE (FEN)	56.573903999999998859493643976747989654541015625	-111.277773999999993748133420012891292572021484375	HOBO Rain Gauge Data Logger - RG3	HOBO Temperature/RH Smart Sensor (S-THB-M002)	Soil Moisture Smart Sensor - EC5 (S-SMC-M005)	2019-07-20T03:00:01	0.00	5.745	88.900	0.6133	4.1
1673	AB07CD0350	WETLAND SAL01	SALINE (FEN)	56.573903999999998859493643976747989654541015625	-111.277773999999993748133420012891292572021484375	HOBO Rain Gauge Data Logger - RG3	HOBO Temperature/RH Smart Sensor (S-THB-M002)	Soil Moisture Smart Sensor - EC5 (S-SMC-M005)	2019-07-20T04:00:01	0.00	5.539	91.000	0.6133	4.2
1674	AB07CD0350	WETLAND SAL01	SALINE (FEN)	56.573903999999998859493643976747989654541015625	-111.277773999999993748133420012891292572021484375	HOBO Rain Gauge Data Logger - RG3	HOBO Temperature/RH Smart Sensor (S-THB-M002)	Soil Moisture Smart Sensor - EC5 (S-SMC-M005)	2019-07-20T05:00:01	0.00	4.402	92.200	0.6133	3.3
1675	AB07CD0350	WETLAND SAL01	SALINE (FEN)	56.573903999999998859493643976747989654541015625	-111.277773999999993748133420012891292572021484375	HOBO Rain Gauge Data Logger - RG3	HOBO Temperature/RH Smart Sensor (S-THB-M002)	Soil Moisture Smart Sensor - EC5 (S-SMC-M005)	2019-07-20T06:00:01	0.00	5.719	93.200	0.6133	4.7
1676	AB07CD0350	WETLAND SAL01	SALINE (FEN)	56.573903999999998859493643976747989654541015625	-111.277773999999993748133420012891292572021484375	HOBO Rain Gauge Data Logger - RG3	HOBO Temperature/RH Smart Sensor (S-THB-M002)	Soil Moisture Smart Sensor - EC5 (S-SMC-M005)	2019-07-20T07:00:01	0.00	9.534	90.200	0.6133	8.0
1677	AB07CD0350	WETLAND SAL01	SALINE (FEN)	56.573903999999998859493643976747989654541015625	-111.277773999999993748133420012891292572021484375	HOBO Rain Gauge Data Logger - RG3	HOBO Temperature/RH Smart Sensor (S-THB-M002)	Soil Moisture Smart Sensor - EC5 (S-SMC-M005)	2019-07-20T08:00:01	0.00	12.413	81.000	0.6133	9.3
1678	AB07CD0350	WETLAND SAL01	SALINE (FEN)	56.573903999999998859493643976747989654541015625	-111.277773999999993748133420012891292572021484375	HOBO Rain Gauge Data Logger - RG3	HOBO Temperature/RH Smart Sensor (S-THB-M002)	Soil Moisture Smart Sensor - EC5 (S-SMC-M005)	2019-07-20T09:00:01	0.00	15.963	70.300	0.6133	10.6
1679	AB07CD0350	WETLAND SAL01	SALINE (FEN)	56.573903999999998859493643976747989654541015625	-111.277773999999993748133420012891292572021484375	HOBO Rain Gauge Data Logger - RG3	HOBO Temperature/RH Smart Sensor (S-THB-M002)	Soil Moisture Smart Sensor - EC5 (S-SMC-M005)	2019-07-20T10:00:01	0.00	18.057	60.700	0.6126	10.4
1680	AB07CD0350	WETLAND SAL01	SALINE (FEN)	56.573903999999998859493643976747989654541015625	-111.277773999999993748133420012891292572021484375	HOBO Rain Gauge Data Logger - RG3	HOBO Temperature/RH Smart Sensor (S-THB-M002)	Soil Moisture Smart Sensor - EC5 (S-SMC-M005)	2019-07-20T11:00:01	0.00	19.674	55.100	0.6133	10.4
1681	AB07CD0350	WETLAND SAL01	SALINE (FEN)	56.573903999999998859493643976747989654541015625	-111.277773999999993748133420012891292572021484375	HOBO Rain Gauge Data Logger - RG3	HOBO Temperature/RH Smart Sensor (S-THB-M002)	Soil Moisture Smart Sensor - EC5 (S-SMC-M005)	2019-07-20T12:00:01	0.00	21.103	49.400	0.6126	10.1
1682	AB07CD0350	WETLAND SAL01	SALINE (FEN)	56.573903999999998859493643976747989654541015625	-111.277773999999993748133420012891292572021484375	HOBO Rain Gauge Data Logger - RG3	HOBO Temperature/RH Smart Sensor (S-THB-M002)	Soil Moisture Smart Sensor - EC5 (S-SMC-M005)	2019-07-20T13:00:01	0.00	22.872	46.200	0.6126	10.7
1683	AB07CD0350	WETLAND SAL01	SALINE (FEN)	56.573903999999998859493643976747989654541015625	-111.277773999999993748133420012891292572021484375	HOBO Rain Gauge Data Logger - RG3	HOBO Temperature/RH Smart Sensor (S-THB-M002)	Soil Moisture Smart Sensor - EC5 (S-SMC-M005)	2019-07-20T14:00:01	0.00	23.545	43.300	0.6126	10.4
1684	AB07CD0350	WETLAND SAL01	SALINE (FEN)	56.573903999999998859493643976747989654541015625	-111.277773999999993748133420012891292572021484375	HOBO Rain Gauge Data Logger - RG3	HOBO Temperature/RH Smart Sensor (S-THB-M002)	Soil Moisture Smart Sensor - EC5 (S-SMC-M005)	2019-07-20T15:00:01	0.00	24.629	39.200	0.6126	9.8
1685	AB07CD0350	WETLAND SAL01	SALINE (FEN)	56.573903999999998859493643976747989654541015625	-111.277773999999993748133420012891292572021484375	HOBO Rain Gauge Data Logger - RG3	HOBO Temperature/RH Smart Sensor (S-THB-M002)	Soil Moisture Smart Sensor - EC5 (S-SMC-M005)	2019-07-20T16:00:01	0.00	25.258	36.700	0.6126	9.4
1686	AB07CD0350	WETLAND SAL01	SALINE (FEN)	56.573903999999998859493643976747989654541015625	-111.277773999999993748133420012891292572021484375	HOBO Rain Gauge Data Logger - RG3	HOBO Temperature/RH Smart Sensor (S-THB-M002)	Soil Moisture Smart Sensor - EC5 (S-SMC-M005)	2019-07-20T17:00:01	0.00	26.036	35.700	0.6126	9.7
1687	AB07CD0350	WETLAND SAL01	SALINE (FEN)	56.573903999999998859493643976747989654541015625	-111.277773999999993748133420012891292572021484375	HOBO Rain Gauge Data Logger - RG3	HOBO Temperature/RH Smart Sensor (S-THB-M002)	Soil Moisture Smart Sensor - EC5 (S-SMC-M005)	2019-07-20T18:00:01	0.00	25.501	35.400	0.6126	9.1
1688	AB07CD0350	WETLAND SAL01	SALINE (FEN)	56.573903999999998859493643976747989654541015625	-111.277773999999993748133420012891292572021484375	HOBO Rain Gauge Data Logger - RG3	HOBO Temperature/RH Smart Sensor (S-THB-M002)	Soil Moisture Smart Sensor - EC5 (S-SMC-M005)	2019-07-20T19:00:01	0.00	25.113	37.100	0.6126	9.5
1689	AB07CD0350	WETLAND SAL01	SALINE (FEN)	56.573903999999998859493643976747989654541015625	-111.277773999999993748133420012891292572021484375	HOBO Rain Gauge Data Logger - RG3	HOBO Temperature/RH Smart Sensor (S-THB-M002)	Soil Moisture Smart Sensor - EC5 (S-SMC-M005)	2019-07-20T20:00:01	0.00	23.833	39.200	0.6126	9.1
1690	AB07CD0350	WETLAND SAL01	SALINE (FEN)	56.573903999999998859493643976747989654541015625	-111.277773999999993748133420012891292572021484375	HOBO Rain Gauge Data Logger - RG3	HOBO Temperature/RH Smart Sensor (S-THB-M002)	Soil Moisture Smart Sensor - EC5 (S-SMC-M005)	2019-07-20T21:00:01	0.00	21.557	45.800	0.6126	9.4
1691	AB07CD0350	WETLAND SAL01	SALINE (FEN)	56.573903999999998859493643976747989654541015625	-111.277773999999993748133420012891292572021484375	HOBO Rain Gauge Data Logger - RG3	HOBO Temperature/RH Smart Sensor (S-THB-M002)	Soil Moisture Smart Sensor - EC5 (S-SMC-M005)	2019-07-20T22:00:01	0.00	18.033	59.100	0.6126	9.9
1692	AB07CD0350	WETLAND SAL01	SALINE (FEN)	56.573903999999998859493643976747989654541015625	-111.277773999999993748133420012891292572021484375	HOBO Rain Gauge Data Logger - RG3	HOBO Temperature/RH Smart Sensor (S-THB-M002)	Soil Moisture Smart Sensor - EC5 (S-SMC-M005)	2019-07-20T23:00:01	0.00	15.270	71.300	0.6126	10.1
1693	AB07CD0350	WETLAND SAL01	SALINE (FEN)	56.573903999999998859493643976747989654541015625	-111.277773999999993748133420012891292572021484375	HOBO Rain Gauge Data Logger - RG3	HOBO Temperature/RH Smart Sensor (S-THB-M002)	Soil Moisture Smart Sensor - EC5 (S-SMC-M005)	2019-07-21T00:00:01	0.00	13.473	71.700	0.6133	8.5
1694	AB07CD0350	WETLAND SAL01	SALINE (FEN)	56.573903999999998859493643976747989654541015625	-111.277773999999993748133420012891292572021484375	HOBO Rain Gauge Data Logger - RG3	HOBO Temperature/RH Smart Sensor (S-THB-M002)	Soil Moisture Smart Sensor - EC5 (S-SMC-M005)	2019-07-21T01:00:01	0.00	11.200	78.900	0.6133	7.7
1695	AB07CD0350	WETLAND SAL01	SALINE (FEN)	56.573903999999998859493643976747989654541015625	-111.277773999999993748133420012891292572021484375	HOBO Rain Gauge Data Logger - RG3	HOBO Temperature/RH Smart Sensor (S-THB-M002)	Soil Moisture Smart Sensor - EC5 (S-SMC-M005)	2019-07-21T02:00:01	0.00	8.295	85.200	0.6133	6.0
1696	AB07CD0350	WETLAND SAL01	SALINE (FEN)	56.573903999999998859493643976747989654541015625	-111.277773999999993748133420012891292572021484375	HOBO Rain Gauge Data Logger - RG3	HOBO Temperature/RH Smart Sensor (S-THB-M002)	Soil Moisture Smart Sensor - EC5 (S-SMC-M005)	2019-07-21T03:00:01	0.00	6.433	89.800	0.6133	4.9
1697	AB07CD0350	WETLAND SAL01	SALINE (FEN)	56.573903999999998859493643976747989654541015625	-111.277773999999993748133420012891292572021484375	HOBO Rain Gauge Data Logger - RG3	HOBO Temperature/RH Smart Sensor (S-THB-M002)	Soil Moisture Smart Sensor - EC5 (S-SMC-M005)	2019-07-21T04:00:01	0.00	6.000	92.100	0.6133	4.8
1698	AB07CD0350	WETLAND SAL01	SALINE (FEN)	56.573903999999998859493643976747989654541015625	-111.277773999999993748133420012891292572021484375	HOBO Rain Gauge Data Logger - RG3	HOBO Temperature/RH Smart Sensor (S-THB-M002)	Soil Moisture Smart Sensor - EC5 (S-SMC-M005)	2019-07-21T05:00:01	0.00	4.506	93.800	0.6133	3.6
1699	AB07CD0350	WETLAND SAL01	SALINE (FEN)	56.573903999999998859493643976747989654541015625	-111.277773999999993748133420012891292572021484375	HOBO Rain Gauge Data Logger - RG3	HOBO Temperature/RH Smart Sensor (S-THB-M002)	Soil Moisture Smart Sensor - EC5 (S-SMC-M005)	2019-07-21T06:00:01	0.00	6.000	94.400	0.6133	5.2
1700	AB07CD0350	WETLAND SAL01	SALINE (FEN)	56.573903999999998859493643976747989654541015625	-111.277773999999993748133420012891292572021484375	HOBO Rain Gauge Data Logger - RG3	HOBO Temperature/RH Smart Sensor (S-THB-M002)	Soil Moisture Smart Sensor - EC5 (S-SMC-M005)	2019-07-21T07:00:01	0.00	12.654	92.100	0.6133	11.4
1701	AB07CD0350	WETLAND SAL01	SALINE (FEN)	56.573903999999998859493643976747989654541015625	-111.277773999999993748133420012891292572021484375	HOBO Rain Gauge Data Logger - RG3	HOBO Temperature/RH Smart Sensor (S-THB-M002)	Soil Moisture Smart Sensor - EC5 (S-SMC-M005)	2019-07-21T08:00:01	0.00	17.463	81.500	0.6133	14.3
1702	AB07CD0350	WETLAND SAL01	SALINE (FEN)	56.573903999999998859493643976747989654541015625	-111.277773999999993748133420012891292572021484375	HOBO Rain Gauge Data Logger - RG3	HOBO Temperature/RH Smart Sensor (S-THB-M002)	Soil Moisture Smart Sensor - EC5 (S-SMC-M005)	2019-07-21T09:00:01	0.00	20.913	70.800	0.6133	15.4
1703	AB07CD0350	WETLAND SAL01	SALINE (FEN)	56.573903999999998859493643976747989654541015625	-111.277773999999993748133420012891292572021484375	HOBO Rain Gauge Data Logger - RG3	HOBO Temperature/RH Smart Sensor (S-THB-M002)	Soil Moisture Smart Sensor - EC5 (S-SMC-M005)	2019-07-21T10:00:01	0.00	23.521	63.700	0.6133	16.3
1704	AB07CD0350	WETLAND SAL01	SALINE (FEN)	56.573903999999998859493643976747989654541015625	-111.277773999999993748133420012891292572021484375	HOBO Rain Gauge Data Logger - RG3	HOBO Temperature/RH Smart Sensor (S-THB-M002)	Soil Moisture Smart Sensor - EC5 (S-SMC-M005)	2019-07-21T11:00:01	0.00	25.113	56.500	0.6133	15.9
1705	AB07CD0350	WETLAND SAL01	SALINE (FEN)	56.573903999999998859493643976747989654541015625	-111.277773999999993748133420012891292572021484375	HOBO Rain Gauge Data Logger - RG3	HOBO Temperature/RH Smart Sensor (S-THB-M002)	Soil Moisture Smart Sensor - EC5 (S-SMC-M005)	2019-07-21T12:00:01	0.00	26.426	49.400	0.6133	15.0
1706	AB07CD0350	WETLAND SAL01	SALINE (FEN)	56.573903999999998859493643976747989654541015625	-111.277773999999993748133420012891292572021484375	HOBO Rain Gauge Data Logger - RG3	HOBO Temperature/RH Smart Sensor (S-THB-M002)	Soil Moisture Smart Sensor - EC5 (S-SMC-M005)	2019-07-21T13:00:01	0.00	28.048	42.900	0.6133	14.3
1707	AB07CD0350	WETLAND SAL01	SALINE (FEN)	56.573903999999998859493643976747989654541015625	-111.277773999999993748133420012891292572021484375	HOBO Rain Gauge Data Logger - RG3	HOBO Temperature/RH Smart Sensor (S-THB-M002)	Soil Moisture Smart Sensor - EC5 (S-SMC-M005)	2019-07-21T14:00:01	0.00	28.320	38.100	0.6133	12.7
1708	AB07CD0350	WETLAND SAL01	SALINE (FEN)	56.573903999999998859493643976747989654541015625	-111.277773999999993748133420012891292572021484375	HOBO Rain Gauge Data Logger - RG3	HOBO Temperature/RH Smart Sensor (S-THB-M002)	Soil Moisture Smart Sensor - EC5 (S-SMC-M005)	2019-07-21T15:00:01	0.00	27.998	34.900	0.6133	11.1
1709	AB07CD0350	WETLAND SAL01	SALINE (FEN)	56.573903999999998859493643976747989654541015625	-111.277773999999993748133420012891292572021484375	HOBO Rain Gauge Data Logger - RG3	HOBO Temperature/RH Smart Sensor (S-THB-M002)	Soil Moisture Smart Sensor - EC5 (S-SMC-M005)	2019-07-21T16:00:01	0.00	27.579	33.400	0.6133	10.1
1710	AB07CD0350	WETLAND SAL01	SALINE (FEN)	56.573903999999998859493643976747989654541015625	-111.277773999999993748133420012891292572021484375	HOBO Rain Gauge Data Logger - RG3	HOBO Temperature/RH Smart Sensor (S-THB-M002)	Soil Moisture Smart Sensor - EC5 (S-SMC-M005)	2019-07-21T17:00:01	0.00	29.540	33.800	0.6133	12.0
1711	AB07CD0350	WETLAND SAL01	SALINE (FEN)	56.573903999999998859493643976747989654541015625	-111.277773999999993748133420012891292572021484375	HOBO Rain Gauge Data Logger - RG3	HOBO Temperature/RH Smart Sensor (S-THB-M002)	Soil Moisture Smart Sensor - EC5 (S-SMC-M005)	2019-07-21T18:00:01	0.00	29.815	31.500	0.6133	11.1
1712	AB07CD0350	WETLAND SAL01	SALINE (FEN)	56.573903999999998859493643976747989654541015625	-111.277773999999993748133420012891292572021484375	HOBO Rain Gauge Data Logger - RG3	HOBO Temperature/RH Smart Sensor (S-THB-M002)	Soil Moisture Smart Sensor - EC5 (S-SMC-M005)	2019-07-21T19:00:01	0.00	28.866	30.800	0.6133	10.0
1713	AB07CD0350	WETLAND SAL01	SALINE (FEN)	56.573903999999998859493643976747989654541015625	-111.277773999999993748133420012891292572021484375	HOBO Rain Gauge Data Logger - RG3	HOBO Temperature/RH Smart Sensor (S-THB-M002)	Soil Moisture Smart Sensor - EC5 (S-SMC-M005)	2019-07-21T20:00:01	0.00	27.481	30.300	0.6133	8.5
1714	AB07CD0350	WETLAND SAL01	SALINE (FEN)	56.573903999999998859493643976747989654541015625	-111.277773999999993748133420012891292572021484375	HOBO Rain Gauge Data Logger - RG3	HOBO Temperature/RH Smart Sensor (S-THB-M002)	Soil Moisture Smart Sensor - EC5 (S-SMC-M005)	2019-07-21T21:00:01	0.00	24.774	33.900	0.6133	7.8
1715	AB07CD0350	WETLAND SAL01	SALINE (FEN)	56.573903999999998859493643976747989654541015625	-111.277773999999993748133420012891292572021484375	HOBO Rain Gauge Data Logger - RG3	HOBO Temperature/RH Smart Sensor (S-THB-M002)	Soil Moisture Smart Sensor - EC5 (S-SMC-M005)	2019-07-21T22:00:01	0.00	21.246	40.200	0.6133	7.2
1716	AB07CD0350	WETLAND SAL01	SALINE (FEN)	56.573903999999998859493643976747989654541015625	-111.277773999999993748133420012891292572021484375	HOBO Rain Gauge Data Logger - RG3	HOBO Temperature/RH Smart Sensor (S-THB-M002)	Soil Moisture Smart Sensor - EC5 (S-SMC-M005)	2019-07-21T23:00:01	0.00	17.843	48.900	0.6133	7.0
1717	AB07CD0350	WETLAND SAL01	SALINE (FEN)	56.573903999999998859493643976747989654541015625	-111.277773999999993748133420012891292572021484375	HOBO Rain Gauge Data Logger - RG3	HOBO Temperature/RH Smart Sensor (S-THB-M002)	Soil Moisture Smart Sensor - EC5 (S-SMC-M005)	2019-07-22T00:00:01	0.00	18.485	61.800	0.6133	11.0
1718	AB07CD0350	WETLAND SAL01	SALINE (FEN)	56.573903999999998859493643976747989654541015625	-111.277773999999993748133420012891292572021484375	HOBO Rain Gauge Data Logger - RG3	HOBO Temperature/RH Smart Sensor (S-THB-M002)	Soil Moisture Smart Sensor - EC5 (S-SMC-M005)	2019-07-22T01:00:01	0.00	18.580	61.700	0.6133	11.1
1719	AB07CD0350	WETLAND SAL01	SALINE (FEN)	56.573903999999998859493643976747989654541015625	-111.277773999999993748133420012891292572021484375	HOBO Rain Gauge Data Logger - RG3	HOBO Temperature/RH Smart Sensor (S-THB-M002)	Soil Moisture Smart Sensor - EC5 (S-SMC-M005)	2019-07-22T02:00:01	0.00	17.368	65.800	0.6140	10.9
1720	AB07CD0350	WETLAND SAL01	SALINE (FEN)	56.573903999999998859493643976747989654541015625	-111.277773999999993748133420012891292572021484375	HOBO Rain Gauge Data Logger - RG3	HOBO Temperature/RH Smart Sensor (S-THB-M002)	Soil Moisture Smart Sensor - EC5 (S-SMC-M005)	2019-07-22T03:00:01	0.00	17.011	69.000	0.6140	11.3
1721	AB07CD0350	WETLAND SAL01	SALINE (FEN)	56.573903999999998859493643976747989654541015625	-111.277773999999993748133420012891292572021484375	HOBO Rain Gauge Data Logger - RG3	HOBO Temperature/RH Smart Sensor (S-THB-M002)	Soil Moisture Smart Sensor - EC5 (S-SMC-M005)	2019-07-22T04:00:01	0.00	13.738	73.300	0.6140	9.1
1722	AB07CD0350	WETLAND SAL01	SALINE (FEN)	56.573903999999998859493643976747989654541015625	-111.277773999999993748133420012891292572021484375	HOBO Rain Gauge Data Logger - RG3	HOBO Temperature/RH Smart Sensor (S-THB-M002)	Soil Moisture Smart Sensor - EC5 (S-SMC-M005)	2019-07-22T05:00:01	0.00	11.565	84.500	0.6140	9.1
1723	AB07CD0350	WETLAND SAL01	SALINE (FEN)	56.573903999999998859493643976747989654541015625	-111.277773999999993748133420012891292572021484375	HOBO Rain Gauge Data Logger - RG3	HOBO Temperature/RH Smart Sensor (S-THB-M002)	Soil Moisture Smart Sensor - EC5 (S-SMC-M005)	2019-07-22T06:00:01	0.00	11.151	88.800	0.6140	9.4
1724	AB07CD0350	WETLAND SAL01	SALINE (FEN)	56.573903999999998859493643976747989654541015625	-111.277773999999993748133420012891292572021484375	HOBO Rain Gauge Data Logger - RG3	HOBO Temperature/RH Smart Sensor (S-THB-M002)	Soil Moisture Smart Sensor - EC5 (S-SMC-M005)	2019-07-22T07:00:01	0.00	13.642	88.800	0.6140	11.8
1725	AB07CD0350	WETLAND SAL01	SALINE (FEN)	56.573903999999998859493643976747989654541015625	-111.277773999999993748133420012891292572021484375	HOBO Rain Gauge Data Logger - RG3	HOBO Temperature/RH Smart Sensor (S-THB-M002)	Soil Moisture Smart Sensor - EC5 (S-SMC-M005)	2019-07-22T08:00:01	0.00	21.581	80.600	0.6148	18.1
1726	AB07CD0350	WETLAND SAL01	SALINE (FEN)	56.573903999999998859493643976747989654541015625	-111.277773999999993748133420012891292572021484375	HOBO Rain Gauge Data Logger - RG3	HOBO Temperature/RH Smart Sensor (S-THB-M002)	Soil Moisture Smart Sensor - EC5 (S-SMC-M005)	2019-07-22T09:00:01	0.00	24.823	60.200	0.6140	16.6
1727	AB07CD0350	WETLAND SAL01	SALINE (FEN)	56.573903999999998859493643976747989654541015625	-111.277773999999993748133420012891292572021484375	HOBO Rain Gauge Data Logger - RG3	HOBO Temperature/RH Smart Sensor (S-THB-M002)	Soil Moisture Smart Sensor - EC5 (S-SMC-M005)	2019-07-22T10:00:01	0.00	27.186	45.700	0.6148	14.5
1728	AB07CD0350	WETLAND SAL01	SALINE (FEN)	56.573903999999998859493643976747989654541015625	-111.277773999999993748133420012891292572021484375	HOBO Rain Gauge Data Logger - RG3	HOBO Temperature/RH Smart Sensor (S-THB-M002)	Soil Moisture Smart Sensor - EC5 (S-SMC-M005)	2019-07-22T11:00:01	0.00	27.727	36.800	0.6148	11.6
1729	AB07CD0350	WETLAND SAL01	SALINE (FEN)	56.573903999999998859493643976747989654541015625	-111.277773999999993748133420012891292572021484375	HOBO Rain Gauge Data Logger - RG3	HOBO Temperature/RH Smart Sensor (S-THB-M002)	Soil Moisture Smart Sensor - EC5 (S-SMC-M005)	2019-07-22T12:00:01	0.00	27.850	34.700	0.6148	10.9
1730	AB07CD0350	WETLAND SAL01	SALINE (FEN)	56.573903999999998859493643976747989654541015625	-111.277773999999993748133420012891292572021484375	HOBO Rain Gauge Data Logger - RG3	HOBO Temperature/RH Smart Sensor (S-THB-M002)	Soil Moisture Smart Sensor - EC5 (S-SMC-M005)	2019-07-22T13:00:01	0.00	29.439	32.700	0.6140	11.4
1731	AB07CD0350	WETLAND SAL01	SALINE (FEN)	56.573903999999998859493643976747989654541015625	-111.277773999999993748133420012891292572021484375	HOBO Rain Gauge Data Logger - RG3	HOBO Temperature/RH Smart Sensor (S-THB-M002)	Soil Moisture Smart Sensor - EC5 (S-SMC-M005)	2019-07-22T14:00:01	0.00	29.215	32.300	0.6148	11.0
1732	AB07CD0350	WETLAND SAL01	SALINE (FEN)	56.573903999999998859493643976747989654541015625	-111.277773999999993748133420012891292572021484375	HOBO Rain Gauge Data Logger - RG3	HOBO Temperature/RH Smart Sensor (S-THB-M002)	Soil Moisture Smart Sensor - EC5 (S-SMC-M005)	2019-07-22T15:00:01	0.00	30.293	31.200	0.6140	11.4
1733	AB07CD0350	WETLAND SAL01	SALINE (FEN)	56.573903999999998859493643976747989654541015625	-111.277773999999993748133420012891292572021484375	HOBO Rain Gauge Data Logger - RG3	HOBO Temperature/RH Smart Sensor (S-THB-M002)	Soil Moisture Smart Sensor - EC5 (S-SMC-M005)	2019-07-22T16:00:01	0.00	30.824	30.200	0.6140	11.4
1734	AB07CD0350	WETLAND SAL01	SALINE (FEN)	56.573903999999998859493643976747989654541015625	-111.277773999999993748133420012891292572021484375	HOBO Rain Gauge Data Logger - RG3	HOBO Temperature/RH Smart Sensor (S-THB-M002)	Soil Moisture Smart Sensor - EC5 (S-SMC-M005)	2019-07-22T17:00:01	0.00	30.925	28.100	0.6148	10.4
1735	AB07CD0350	WETLAND SAL01	SALINE (FEN)	56.573903999999998859493643976747989654541015625	-111.277773999999993748133420012891292572021484375	HOBO Rain Gauge Data Logger - RG3	HOBO Temperature/RH Smart Sensor (S-THB-M002)	Soil Moisture Smart Sensor - EC5 (S-SMC-M005)	2019-07-22T18:00:01	0.00	29.665	27.600	0.6148	9.0
1736	AB07CD0350	WETLAND SAL01	SALINE (FEN)	56.573903999999998859493643976747989654541015625	-111.277773999999993748133420012891292572021484375	HOBO Rain Gauge Data Logger - RG3	HOBO Temperature/RH Smart Sensor (S-THB-M002)	Soil Moisture Smart Sensor - EC5 (S-SMC-M005)	2019-07-22T19:00:01	0.00	29.490	28.900	0.6148	9.6
1737	AB07CD0350	WETLAND SAL01	SALINE (FEN)	56.573903999999998859493643976747989654541015625	-111.277773999999993748133420012891292572021484375	HOBO Rain Gauge Data Logger - RG3	HOBO Temperature/RH Smart Sensor (S-THB-M002)	Soil Moisture Smart Sensor - EC5 (S-SMC-M005)	2019-07-22T20:00:01	0.00	28.171	36.200	0.6148	11.8
1738	AB07CD0350	WETLAND SAL01	SALINE (FEN)	56.573903999999998859493643976747989654541015625	-111.277773999999993748133420012891292572021484375	HOBO Rain Gauge Data Logger - RG3	HOBO Temperature/RH Smart Sensor (S-THB-M002)	Soil Moisture Smart Sensor - EC5 (S-SMC-M005)	2019-07-22T21:00:01	0.00	24.677	38.900	0.6148	9.8
1739	AB07CD0350	WETLAND SAL01	SALINE (FEN)	56.573903999999998859493643976747989654541015625	-111.277773999999993748133420012891292572021484375	HOBO Rain Gauge Data Logger - RG3	HOBO Temperature/RH Smart Sensor (S-THB-M002)	Soil Moisture Smart Sensor - EC5 (S-SMC-M005)	2019-07-22T22:00:01	0.00	21.533	47.500	0.6148	9.9
1740	AB07CD0350	WETLAND SAL01	SALINE (FEN)	56.573903999999998859493643976747989654541015625	-111.277773999999993748133420012891292572021484375	HOBO Rain Gauge Data Logger - RG3	HOBO Temperature/RH Smart Sensor (S-THB-M002)	Soil Moisture Smart Sensor - EC5 (S-SMC-M005)	2019-07-22T23:00:01	0.00	19.746	56.200	0.6148	10.8
1741	AB07CD0350	WETLAND SAL01	SALINE (FEN)	56.573903999999998859493643976747989654541015625	-111.277773999999993748133420012891292572021484375	HOBO Rain Gauge Data Logger - RG3	HOBO Temperature/RH Smart Sensor (S-THB-M002)	Soil Moisture Smart Sensor - EC5 (S-SMC-M005)	2019-07-23T00:00:01	0.00	18.390	57.600	0.6148	9.9
1742	AB07CD0350	WETLAND SAL01	SALINE (FEN)	56.573903999999998859493643976747989654541015625	-111.277773999999993748133420012891292572021484375	HOBO Rain Gauge Data Logger - RG3	HOBO Temperature/RH Smart Sensor (S-THB-M002)	Soil Moisture Smart Sensor - EC5 (S-SMC-M005)	2019-07-23T01:00:01	0.00	12.920	66.100	0.6148	6.8
1743	AB07CD0350	WETLAND SAL01	SALINE (FEN)	56.573903999999998859493643976747989654541015625	-111.277773999999993748133420012891292572021484375	HOBO Rain Gauge Data Logger - RG3	HOBO Temperature/RH Smart Sensor (S-THB-M002)	Soil Moisture Smart Sensor - EC5 (S-SMC-M005)	2019-07-23T02:00:01	0.00	13.161	82.400	0.6155	10.2
1744	AB07CD0350	WETLAND SAL01	SALINE (FEN)	56.573903999999998859493643976747989654541015625	-111.277773999999993748133420012891292572021484375	HOBO Rain Gauge Data Logger - RG3	HOBO Temperature/RH Smart Sensor (S-THB-M002)	Soil Moisture Smart Sensor - EC5 (S-SMC-M005)	2019-07-23T03:00:01	0.00	11.637	85.100	0.6155	9.2
1745	AB07CD0350	WETLAND SAL01	SALINE (FEN)	56.573903999999998859493643976747989654541015625	-111.277773999999993748133420012891292572021484375	HOBO Rain Gauge Data Logger - RG3	HOBO Temperature/RH Smart Sensor (S-THB-M002)	Soil Moisture Smart Sensor - EC5 (S-SMC-M005)	2019-07-23T04:00:01	0.00	10.907	89.100	0.6155	9.2
1746	AB07CD0350	WETLAND SAL01	SALINE (FEN)	56.573903999999998859493643976747989654541015625	-111.277773999999993748133420012891292572021484375	HOBO Rain Gauge Data Logger - RG3	HOBO Temperature/RH Smart Sensor (S-THB-M002)	Soil Moisture Smart Sensor - EC5 (S-SMC-M005)	2019-07-23T05:00:01	0.00	9.632	91.300	0.6155	8.3
1747	AB07CD0350	WETLAND SAL01	SALINE (FEN)	56.573903999999998859493643976747989654541015625	-111.277773999999993748133420012891292572021484375	HOBO Rain Gauge Data Logger - RG3	HOBO Temperature/RH Smart Sensor (S-THB-M002)	Soil Moisture Smart Sensor - EC5 (S-SMC-M005)	2019-07-23T06:00:01	0.00	11.078	91.700	0.6155	9.8
1748	AB07CD0350	WETLAND SAL01	SALINE (FEN)	56.573903999999998859493643976747989654541015625	-111.277773999999993748133420012891292572021484375	HOBO Rain Gauge Data Logger - RG3	HOBO Temperature/RH Smart Sensor (S-THB-M002)	Soil Moisture Smart Sensor - EC5 (S-SMC-M005)	2019-07-23T07:00:01	0.00	16.511	85.000	0.6155	14.0
1749	AB07CD0350	WETLAND SAL01	SALINE (FEN)	56.573903999999998859493643976747989654541015625	-111.277773999999993748133420012891292572021484375	HOBO Rain Gauge Data Logger - RG3	HOBO Temperature/RH Smart Sensor (S-THB-M002)	Soil Moisture Smart Sensor - EC5 (S-SMC-M005)	2019-07-23T08:00:01	0.00	21.581	72.200	0.6155	16.4
1750	AB07CD0350	WETLAND SAL01	SALINE (FEN)	56.573903999999998859493643976747989654541015625	-111.277773999999993748133420012891292572021484375	HOBO Rain Gauge Data Logger - RG3	HOBO Temperature/RH Smart Sensor (S-THB-M002)	Soil Moisture Smart Sensor - EC5 (S-SMC-M005)	2019-07-23T09:00:01	0.00	24.605	59.000	0.6155	16.1
1751	AB07CD0350	WETLAND SAL01	SALINE (FEN)	56.573903999999998859493643976747989654541015625	-111.277773999999993748133420012891292572021484375	HOBO Rain Gauge Data Logger - RG3	HOBO Temperature/RH Smart Sensor (S-THB-M002)	Soil Moisture Smart Sensor - EC5 (S-SMC-M005)	2019-07-23T10:00:01	0.00	26.842	51.100	0.6155	15.9
1752	AB07CD0350	WETLAND SAL01	SALINE (FEN)	56.573903999999998859493643976747989654541015625	-111.277773999999993748133420012891292572021484375	HOBO Rain Gauge Data Logger - RG3	HOBO Temperature/RH Smart Sensor (S-THB-M002)	Soil Moisture Smart Sensor - EC5 (S-SMC-M005)	2019-07-23T11:00:01	0.00	27.949	46.100	0.6155	15.3
1753	AB07CD0350	WETLAND SAL01	SALINE (FEN)	56.573903999999998859493643976747989654541015625	-111.277773999999993748133420012891292572021484375	HOBO Rain Gauge Data Logger - RG3	HOBO Temperature/RH Smart Sensor (S-THB-M002)	Soil Moisture Smart Sensor - EC5 (S-SMC-M005)	2019-07-23T12:00:01	0.00	29.140	40.200	0.6155	14.3
1754	AB07CD0350	WETLAND SAL01	SALINE (FEN)	56.573903999999998859493643976747989654541015625	-111.277773999999993748133420012891292572021484375	HOBO Rain Gauge Data Logger - RG3	HOBO Temperature/RH Smart Sensor (S-THB-M002)	Soil Moisture Smart Sensor - EC5 (S-SMC-M005)	2019-07-23T13:00:01	0.00	29.890	38.200	0.6155	14.1
1755	AB07CD0350	WETLAND SAL01	SALINE (FEN)	56.573903999999998859493643976747989654541015625	-111.277773999999993748133420012891292572021484375	HOBO Rain Gauge Data Logger - RG3	HOBO Temperature/RH Smart Sensor (S-THB-M002)	Soil Moisture Smart Sensor - EC5 (S-SMC-M005)	2019-07-23T14:00:01	0.00	30.469	35.000	0.6155	13.3
1756	AB07CD0350	WETLAND SAL01	SALINE (FEN)	56.573903999999998859493643976747989654541015625	-111.277773999999993748133420012891292572021484375	HOBO Rain Gauge Data Logger - RG3	HOBO Temperature/RH Smart Sensor (S-THB-M002)	Soil Moisture Smart Sensor - EC5 (S-SMC-M005)	2019-07-23T15:00:01	0.00	30.824	33.400	0.6155	12.9
1757	AB07CD0350	WETLAND SAL01	SALINE (FEN)	56.573903999999998859493643976747989654541015625	-111.277773999999993748133420012891292572021484375	HOBO Rain Gauge Data Logger - RG3	HOBO Temperature/RH Smart Sensor (S-THB-M002)	Soil Moisture Smart Sensor - EC5 (S-SMC-M005)	2019-07-23T16:00:01	0.00	30.672	31.600	0.6155	11.9
1758	AB07CD0350	WETLAND SAL01	SALINE (FEN)	56.573903999999998859493643976747989654541015625	-111.277773999999993748133420012891292572021484375	HOBO Rain Gauge Data Logger - RG3	HOBO Temperature/RH Smart Sensor (S-THB-M002)	Soil Moisture Smart Sensor - EC5 (S-SMC-M005)	2019-07-23T17:00:01	0.00	31.663	30.100	0.6155	12.0
1759	AB07CD0350	WETLAND SAL01	SALINE (FEN)	56.573903999999998859493643976747989654541015625	-111.277773999999993748133420012891292572021484375	HOBO Rain Gauge Data Logger - RG3	HOBO Temperature/RH Smart Sensor (S-THB-M002)	Soil Moisture Smart Sensor - EC5 (S-SMC-M005)	2019-07-23T18:00:01	0.00	31.052	30.500	0.6155	11.7
1760	AB07CD0350	WETLAND SAL01	SALINE (FEN)	56.573903999999998859493643976747989654541015625	-111.277773999999993748133420012891292572021484375	HOBO Rain Gauge Data Logger - RG3	HOBO Temperature/RH Smart Sensor (S-THB-M002)	Soil Moisture Smart Sensor - EC5 (S-SMC-M005)	2019-07-23T19:00:01	0.00	30.117	32.500	0.6155	11.9
1761	AB07CD0350	WETLAND SAL01	SALINE (FEN)	56.573903999999998859493643976747989654541015625	-111.277773999999993748133420012891292572021484375	HOBO Rain Gauge Data Logger - RG3	HOBO Temperature/RH Smart Sensor (S-THB-M002)	Soil Moisture Smart Sensor - EC5 (S-SMC-M005)	2019-07-23T20:00:01	0.00	29.815	34.700	0.6162	12.6
1762	AB07CD0350	WETLAND SAL01	SALINE (FEN)	56.573903999999998859493643976747989654541015625	-111.277773999999993748133420012891292572021484375	HOBO Rain Gauge Data Logger - RG3	HOBO Temperature/RH Smart Sensor (S-THB-M002)	Soil Moisture Smart Sensor - EC5 (S-SMC-M005)	2019-07-23T21:00:01	0.00	24.557	45.600	0.6155	12.1
1763	AB07CD0350	WETLAND SAL01	SALINE (FEN)	56.573903999999998859493643976747989654541015625	-111.277773999999993748133420012891292572021484375	HOBO Rain Gauge Data Logger - RG3	HOBO Temperature/RH Smart Sensor (S-THB-M002)	Soil Moisture Smart Sensor - EC5 (S-SMC-M005)	2019-07-23T22:00:01	0.00	19.912	61.300	0.6155	12.3
1764	AB07CD0350	WETLAND SAL01	SALINE (FEN)	56.573903999999998859493643976747989654541015625	-111.277773999999993748133420012891292572021484375	HOBO Rain Gauge Data Logger - RG3	HOBO Temperature/RH Smart Sensor (S-THB-M002)	Soil Moisture Smart Sensor - EC5 (S-SMC-M005)	2019-07-23T23:00:01	0.00	17.986	75.200	0.6162	13.5
1765	AB07CD0350	WETLAND SAL01	SALINE (FEN)	56.573903999999998859493643976747989654541015625	-111.277773999999993748133420012891292572021484375	HOBO Rain Gauge Data Logger - RG3	HOBO Temperature/RH Smart Sensor (S-THB-M002)	Soil Moisture Smart Sensor - EC5 (S-SMC-M005)	2019-07-24T00:00:01	0.00	17.867	74.200	0.6162	13.2
1766	AB07CD0350	WETLAND SAL01	SALINE (FEN)	56.573903999999998859493643976747989654541015625	-111.277773999999993748133420012891292572021484375	HOBO Rain Gauge Data Logger - RG3	HOBO Temperature/RH Smart Sensor (S-THB-M002)	Soil Moisture Smart Sensor - EC5 (S-SMC-M005)	2019-07-24T01:00:01	0.00	20.317	60.500	0.6162	12.4
1767	AB07CD0350	WETLAND SAL01	SALINE (FEN)	56.573903999999998859493643976747989654541015625	-111.277773999999993748133420012891292572021484375	HOBO Rain Gauge Data Logger - RG3	HOBO Temperature/RH Smart Sensor (S-THB-M002)	Soil Moisture Smart Sensor - EC5 (S-SMC-M005)	2019-07-24T02:00:01	0.00	14.721	71.100	0.6169	9.6
1768	AB07CD0350	WETLAND SAL01	SALINE (FEN)	56.573903999999998859493643976747989654541015625	-111.277773999999993748133420012891292572021484375	HOBO Rain Gauge Data Logger - RG3	HOBO Temperature/RH Smart Sensor (S-THB-M002)	Soil Moisture Smart Sensor - EC5 (S-SMC-M005)	2019-07-24T03:00:01	0.00	13.570	83.400	0.6169	10.8
1769	AB07CD0350	WETLAND SAL01	SALINE (FEN)	56.573903999999998859493643976747989654541015625	-111.277773999999993748133420012891292572021484375	HOBO Rain Gauge Data Logger - RG3	HOBO Temperature/RH Smart Sensor (S-THB-M002)	Soil Moisture Smart Sensor - EC5 (S-SMC-M005)	2019-07-24T04:00:01	0.00	12.461	86.900	0.6169	10.4
1770	AB07CD0350	WETLAND SAL01	SALINE (FEN)	56.573903999999998859493643976747989654541015625	-111.277773999999993748133420012891292572021484375	HOBO Rain Gauge Data Logger - RG3	HOBO Temperature/RH Smart Sensor (S-THB-M002)	Soil Moisture Smart Sensor - EC5 (S-SMC-M005)	2019-07-24T05:00:01	0.00	11.492	90.700	0.6169	10.0
1771	AB07CD0350	WETLAND SAL01	SALINE (FEN)	56.573903999999998859493643976747989654541015625	-111.277773999999993748133420012891292572021484375	HOBO Rain Gauge Data Logger - RG3	HOBO Temperature/RH Smart Sensor (S-THB-M002)	Soil Moisture Smart Sensor - EC5 (S-SMC-M005)	2019-07-24T06:00:01	0.00	15.414	89.700	0.6169	13.7
1772	AB07CD0350	WETLAND SAL01	SALINE (FEN)	56.573903999999998859493643976747989654541015625	-111.277773999999993748133420012891292572021484375	HOBO Rain Gauge Data Logger - RG3	HOBO Temperature/RH Smart Sensor (S-THB-M002)	Soil Moisture Smart Sensor - EC5 (S-SMC-M005)	2019-07-24T07:00:01	0.00	16.487	85.200	0.6169	14.0
1773	AB07CD0350	WETLAND SAL01	SALINE (FEN)	56.573903999999998859493643976747989654541015625	-111.277773999999993748133420012891292572021484375	HOBO Rain Gauge Data Logger - RG3	HOBO Temperature/RH Smart Sensor (S-THB-M002)	Soil Moisture Smart Sensor - EC5 (S-SMC-M005)	2019-07-24T08:00:01	0.00	20.841	77.500	0.6169	16.8
1774	AB07CD0350	WETLAND SAL01	SALINE (FEN)	56.573903999999998859493643976747989654541015625	-111.277773999999993748133420012891292572021484375	HOBO Rain Gauge Data Logger - RG3	HOBO Temperature/RH Smart Sensor (S-THB-M002)	Soil Moisture Smart Sensor - EC5 (S-SMC-M005)	2019-07-24T09:00:01	0.00	21.939	64.700	0.6169	15.0
1775	AB07CD0350	WETLAND SAL01	SALINE (FEN)	56.573903999999998859493643976747989654541015625	-111.277773999999993748133420012891292572021484375	HOBO Rain Gauge Data Logger - RG3	HOBO Temperature/RH Smart Sensor (S-THB-M002)	Soil Moisture Smart Sensor - EC5 (S-SMC-M005)	2019-07-24T10:00:01	0.00	23.088	61.300	0.6177	15.3
1776	AB07CD0350	WETLAND SAL01	SALINE (FEN)	56.573903999999998859493643976747989654541015625	-111.277773999999993748133420012891292572021484375	HOBO Rain Gauge Data Logger - RG3	HOBO Temperature/RH Smart Sensor (S-THB-M002)	Soil Moisture Smart Sensor - EC5 (S-SMC-M005)	2019-07-24T11:00:01	0.00	22.920	63.300	0.6169	15.6
1777	AB07CD0350	WETLAND SAL01	SALINE (FEN)	56.573903999999998859493643976747989654541015625	-111.277773999999993748133420012891292572021484375	HOBO Rain Gauge Data Logger - RG3	HOBO Temperature/RH Smart Sensor (S-THB-M002)	Soil Moisture Smart Sensor - EC5 (S-SMC-M005)	2019-07-24T12:00:01	0.00	26.085	60.900	0.6177	18.0
1778	AB07CD0350	WETLAND SAL01	SALINE (FEN)	56.573903999999998859493643976747989654541015625	-111.277773999999993748133420012891292572021484375	HOBO Rain Gauge Data Logger - RG3	HOBO Temperature/RH Smart Sensor (S-THB-M002)	Soil Moisture Smart Sensor - EC5 (S-SMC-M005)	2019-07-24T13:00:01	0.00	25.210	54.200	0.6169	15.3
1779	AB07CD0350	WETLAND SAL01	SALINE (FEN)	56.573903999999998859493643976747989654541015625	-111.277773999999993748133420012891292572021484375	HOBO Rain Gauge Data Logger - RG3	HOBO Temperature/RH Smart Sensor (S-THB-M002)	Soil Moisture Smart Sensor - EC5 (S-SMC-M005)	2019-07-24T14:00:01	0.00	24.508	56.700	0.6169	15.4
1780	AB07CD0350	WETLAND SAL01	SALINE (FEN)	56.573903999999998859493643976747989654541015625	-111.277773999999993748133420012891292572021484375	HOBO Rain Gauge Data Logger - RG3	HOBO Temperature/RH Smart Sensor (S-THB-M002)	Soil Moisture Smart Sensor - EC5 (S-SMC-M005)	2019-07-24T15:00:01	0.00	21.246	63.700	0.6169	14.1
1781	AB07CD0350	WETLAND SAL01	SALINE (FEN)	56.573903999999998859493643976747989654541015625	-111.277773999999993748133420012891292572021484375	HOBO Rain Gauge Data Logger - RG3	HOBO Temperature/RH Smart Sensor (S-THB-M002)	Soil Moisture Smart Sensor - EC5 (S-SMC-M005)	2019-07-24T16:00:01	15.20	16.749	85.300	0.6169	14.3
1782	AB07CD0350	WETLAND SAL01	SALINE (FEN)	56.573903999999998859493643976747989654541015625	-111.277773999999993748133420012891292572021484375	HOBO Rain Gauge Data Logger - RG3	HOBO Temperature/RH Smart Sensor (S-THB-M002)	Soil Moisture Smart Sensor - EC5 (S-SMC-M005)	2019-07-24T17:00:01	0.20	16.915	90.500	0.6169	15.4
1783	AB07CD0350	WETLAND SAL01	SALINE (FEN)	56.573903999999998859493643976747989654541015625	-111.277773999999993748133420012891292572021484375	HOBO Rain Gauge Data Logger - RG3	HOBO Temperature/RH Smart Sensor (S-THB-M002)	Soil Moisture Smart Sensor - EC5 (S-SMC-M005)	2019-07-24T18:00:01	0.60	17.772	92.400	0.6177	16.5
1784	AB07CD0350	WETLAND SAL01	SALINE (FEN)	56.573903999999998859493643976747989654541015625	-111.277773999999993748133420012891292572021484375	HOBO Rain Gauge Data Logger - RG3	HOBO Temperature/RH Smart Sensor (S-THB-M002)	Soil Moisture Smart Sensor - EC5 (S-SMC-M005)	2019-07-24T19:00:01	0.00	18.105	92.900	0.6177	17.0
1785	AB07CD0350	WETLAND SAL01	SALINE (FEN)	56.573903999999998859493643976747989654541015625	-111.277773999999993748133420012891292572021484375	HOBO Rain Gauge Data Logger - RG3	HOBO Temperature/RH Smart Sensor (S-THB-M002)	Soil Moisture Smart Sensor - EC5 (S-SMC-M005)	2019-07-24T20:00:01	0.00	18.366	94.900	0.6177	17.6
1786	AB07CD0350	WETLAND SAL01	SALINE (FEN)	56.573903999999998859493643976747989654541015625	-111.277773999999993748133420012891292572021484375	HOBO Rain Gauge Data Logger - RG3	HOBO Temperature/RH Smart Sensor (S-THB-M002)	Soil Moisture Smart Sensor - EC5 (S-SMC-M005)	2019-07-24T21:00:01	0.00	18.057	95.000	0.6177	17.3
1787	AB07CD0350	WETLAND SAL01	SALINE (FEN)	56.573903999999998859493643976747989654541015625	-111.277773999999993748133420012891292572021484375	HOBO Rain Gauge Data Logger - RG3	HOBO Temperature/RH Smart Sensor (S-THB-M002)	Soil Moisture Smart Sensor - EC5 (S-SMC-M005)	2019-07-24T22:00:01	3.40	17.772	95.900	0.6177	17.1
1788	AB07CD0350	WETLAND SAL01	SALINE (FEN)	56.573903999999998859493643976747989654541015625	-111.277773999999993748133420012891292572021484375	HOBO Rain Gauge Data Logger - RG3	HOBO Temperature/RH Smart Sensor (S-THB-M002)	Soil Moisture Smart Sensor - EC5 (S-SMC-M005)	2019-07-24T23:00:01	1.00	17.439	96.800	0.6177	16.9
1789	AB07CD0350	WETLAND SAL01	SALINE (FEN)	56.573903999999998859493643976747989654541015625	-111.277773999999993748133420012891292572021484375	HOBO Rain Gauge Data Logger - RG3	HOBO Temperature/RH Smart Sensor (S-THB-M002)	Soil Moisture Smart Sensor - EC5 (S-SMC-M005)	2019-07-25T00:00:01	0.20	17.177	97.400	0.6177	16.8
1790	AB07CD0350	WETLAND SAL01	SALINE (FEN)	56.573903999999998859493643976747989654541015625	-111.277773999999993748133420012891292572021484375	HOBO Rain Gauge Data Logger - RG3	HOBO Temperature/RH Smart Sensor (S-THB-M002)	Soil Moisture Smart Sensor - EC5 (S-SMC-M005)	2019-07-25T01:00:01	0.60	17.058	98.200	0.6177	16.8
1791	AB07CD0350	WETLAND SAL01	SALINE (FEN)	56.573903999999998859493643976747989654541015625	-111.277773999999993748133420012891292572021484375	HOBO Rain Gauge Data Logger - RG3	HOBO Temperature/RH Smart Sensor (S-THB-M002)	Soil Moisture Smart Sensor - EC5 (S-SMC-M005)	2019-07-25T02:00:01	0.20	16.511	98.500	0.6177	16.3
1792	AB07CD0350	WETLAND SAL01	SALINE (FEN)	56.573903999999998859493643976747989654541015625	-111.277773999999993748133420012891292572021484375	HOBO Rain Gauge Data Logger - RG3	HOBO Temperature/RH Smart Sensor (S-THB-M002)	Soil Moisture Smart Sensor - EC5 (S-SMC-M005)	2019-07-25T03:00:01	0.00	16.344	98.500	0.6177	16.1
1793	AB07CD0350	WETLAND SAL01	SALINE (FEN)	56.573903999999998859493643976747989654541015625	-111.277773999999993748133420012891292572021484375	HOBO Rain Gauge Data Logger - RG3	HOBO Temperature/RH Smart Sensor (S-THB-M002)	Soil Moisture Smart Sensor - EC5 (S-SMC-M005)	2019-07-25T04:00:01	0.00	15.986	98.600	0.6177	15.8
1794	AB07CD0350	WETLAND SAL01	SALINE (FEN)	56.573903999999998859493643976747989654541015625	-111.277773999999993748133420012891292572021484375	HOBO Rain Gauge Data Logger - RG3	HOBO Temperature/RH Smart Sensor (S-THB-M002)	Soil Moisture Smart Sensor - EC5 (S-SMC-M005)	2019-07-25T05:00:01	0.00	16.034	98.800	0.6177	15.9
1795	AB07CD0350	WETLAND SAL01	SALINE (FEN)	56.573903999999998859493643976747989654541015625	-111.277773999999993748133420012891292572021484375	HOBO Rain Gauge Data Logger - RG3	HOBO Temperature/RH Smart Sensor (S-THB-M002)	Soil Moisture Smart Sensor - EC5 (S-SMC-M005)	2019-07-25T06:00:01	0.00	15.581	99.000	0.6177	15.4
1796	AB07CD0350	WETLAND SAL01	SALINE (FEN)	56.573903999999998859493643976747989654541015625	-111.277773999999993748133420012891292572021484375	HOBO Rain Gauge Data Logger - RG3	HOBO Temperature/RH Smart Sensor (S-THB-M002)	Soil Moisture Smart Sensor - EC5 (S-SMC-M005)	2019-07-25T07:00:01	0.00	16.010	99.100	0.6177	15.9
1797	AB07CD0350	WETLAND SAL01	SALINE (FEN)	56.573903999999998859493643976747989654541015625	-111.277773999999993748133420012891292572021484375	HOBO Rain Gauge Data Logger - RG3	HOBO Temperature/RH Smart Sensor (S-THB-M002)	Soil Moisture Smart Sensor - EC5 (S-SMC-M005)	2019-07-25T08:00:01	0.00	16.487	98.900	0.6177	16.3
1798	AB07CD0350	WETLAND SAL01	SALINE (FEN)	56.573903999999998859493643976747989654541015625	-111.277773999999993748133420012891292572021484375	HOBO Rain Gauge Data Logger - RG3	HOBO Temperature/RH Smart Sensor (S-THB-M002)	Soil Moisture Smart Sensor - EC5 (S-SMC-M005)	2019-07-25T09:00:01	0.00	17.605	97.400	0.6177	17.2
1799	AB07CD0350	WETLAND SAL01	SALINE (FEN)	56.573903999999998859493643976747989654541015625	-111.277773999999993748133420012891292572021484375	HOBO Rain Gauge Data Logger - RG3	HOBO Temperature/RH Smart Sensor (S-THB-M002)	Soil Moisture Smart Sensor - EC5 (S-SMC-M005)	2019-07-25T10:00:01	1.00	17.582	96.600	0.6177	17.1
1800	AB07CD0350	WETLAND SAL01	SALINE (FEN)	56.573903999999998859493643976747989654541015625	-111.277773999999993748133420012891292572021484375	HOBO Rain Gauge Data Logger - RG3	HOBO Temperature/RH Smart Sensor (S-THB-M002)	Soil Moisture Smart Sensor - EC5 (S-SMC-M005)	2019-07-25T11:00:01	1.80	18.152	97.600	0.6177	17.8
1801	AB07CD0350	WETLAND SAL01	SALINE (FEN)	56.573903999999998859493643976747989654541015625	-111.277773999999993748133420012891292572021484375	HOBO Rain Gauge Data Logger - RG3	HOBO Temperature/RH Smart Sensor (S-THB-M002)	Soil Moisture Smart Sensor - EC5 (S-SMC-M005)	2019-07-25T12:00:01	0.00	18.461	95.300	0.6177	17.7
1802	AB07CD0350	WETLAND SAL01	SALINE (FEN)	56.573903999999998859493643976747989654541015625	-111.277773999999993748133420012891292572021484375	HOBO Rain Gauge Data Logger - RG3	HOBO Temperature/RH Smart Sensor (S-THB-M002)	Soil Moisture Smart Sensor - EC5 (S-SMC-M005)	2019-07-25T13:00:01	0.00	19.698	91.800	0.6177	18.4
1803	AB07CD0350	WETLAND SAL01	SALINE (FEN)	56.573903999999998859493643976747989654541015625	-111.277773999999993748133420012891292572021484375	HOBO Rain Gauge Data Logger - RG3	HOBO Temperature/RH Smart Sensor (S-THB-M002)	Soil Moisture Smart Sensor - EC5 (S-SMC-M005)	2019-07-25T14:00:01	0.00	18.985	94.000	0.6177	18.0
1804	AB07CD0350	WETLAND SAL01	SALINE (FEN)	56.573903999999998859493643976747989654541015625	-111.277773999999993748133420012891292572021484375	HOBO Rain Gauge Data Logger - RG3	HOBO Temperature/RH Smart Sensor (S-THB-M002)	Soil Moisture Smart Sensor - EC5 (S-SMC-M005)	2019-07-25T15:00:01	0.00	20.484	93.600	0.6177	19.4
1805	AB07CD0350	WETLAND SAL01	SALINE (FEN)	56.573903999999998859493643976747989654541015625	-111.277773999999993748133420012891292572021484375	HOBO Rain Gauge Data Logger - RG3	HOBO Temperature/RH Smart Sensor (S-THB-M002)	Soil Moisture Smart Sensor - EC5 (S-SMC-M005)	2019-07-25T16:00:01	0.00	20.698	87.500	0.6169	18.6
1806	AB07CD0350	WETLAND SAL01	SALINE (FEN)	56.573903999999998859493643976747989654541015625	-111.277773999999993748133420012891292572021484375	HOBO Rain Gauge Data Logger - RG3	HOBO Temperature/RH Smart Sensor (S-THB-M002)	Soil Moisture Smart Sensor - EC5 (S-SMC-M005)	2019-07-25T17:00:01	0.00	22.130	84.700	0.6177	19.5
1807	AB07CD0350	WETLAND SAL01	SALINE (FEN)	56.573903999999998859493643976747989654541015625	-111.277773999999993748133420012891292572021484375	HOBO Rain Gauge Data Logger - RG3	HOBO Temperature/RH Smart Sensor (S-THB-M002)	Soil Moisture Smart Sensor - EC5 (S-SMC-M005)	2019-07-25T18:00:01	0.00	21.867	78.000	0.6177	17.9
1808	AB07CD0350	WETLAND SAL01	SALINE (FEN)	56.573903999999998859493643976747989654541015625	-111.277773999999993748133420012891292572021484375	HOBO Rain Gauge Data Logger - RG3	HOBO Temperature/RH Smart Sensor (S-THB-M002)	Soil Moisture Smart Sensor - EC5 (S-SMC-M005)	2019-07-25T19:00:01	0.00	22.034	75.900	0.6169	17.6
1809	AB07CD0350	WETLAND SAL01	SALINE (FEN)	56.573903999999998859493643976747989654541015625	-111.277773999999993748133420012891292572021484375	HOBO Rain Gauge Data Logger - RG3	HOBO Temperature/RH Smart Sensor (S-THB-M002)	Soil Moisture Smart Sensor - EC5 (S-SMC-M005)	2019-07-25T20:00:01	0.00	21.103	75.700	0.6177	16.7
1810	AB07CD0350	WETLAND SAL01	SALINE (FEN)	56.573903999999998859493643976747989654541015625	-111.277773999999993748133420012891292572021484375	HOBO Rain Gauge Data Logger - RG3	HOBO Temperature/RH Smart Sensor (S-THB-M002)	Soil Moisture Smart Sensor - EC5 (S-SMC-M005)	2019-07-25T21:00:01	0.00	19.627	80.800	0.6177	16.3
1811	AB07CD0350	WETLAND SAL01	SALINE (FEN)	56.573903999999998859493643976747989654541015625	-111.277773999999993748133420012891292572021484375	HOBO Rain Gauge Data Logger - RG3	HOBO Temperature/RH Smart Sensor (S-THB-M002)	Soil Moisture Smart Sensor - EC5 (S-SMC-M005)	2019-07-25T22:00:01	0.00	17.677	89.900	0.6177	16.0
1812	AB07CD0350	WETLAND SAL01	SALINE (FEN)	56.573903999999998859493643976747989654541015625	-111.277773999999993748133420012891292572021484375	HOBO Rain Gauge Data Logger - RG3	HOBO Temperature/RH Smart Sensor (S-THB-M002)	Soil Moisture Smart Sensor - EC5 (S-SMC-M005)	2019-07-25T23:00:01	0.20	16.654	92.100	0.6177	15.4
1813	AB07CD0350	WETLAND SAL01	SALINE (FEN)	56.573903999999998859493643976747989654541015625	-111.277773999999993748133420012891292572021484375	HOBO Rain Gauge Data Logger - RG3	HOBO Temperature/RH Smart Sensor (S-THB-M002)	Soil Moisture Smart Sensor - EC5 (S-SMC-M005)	2019-07-26T00:00:01	0.60	16.010	95.000	0.6177	15.2
1814	AB07CD0350	WETLAND SAL01	SALINE (FEN)	56.573903999999998859493643976747989654541015625	-111.277773999999993748133420012891292572021484375	HOBO Rain Gauge Data Logger - RG3	HOBO Temperature/RH Smart Sensor (S-THB-M002)	Soil Moisture Smart Sensor - EC5 (S-SMC-M005)	2019-07-26T01:00:01	0.40	15.270	95.700	0.6177	14.6
1815	AB07CD0350	WETLAND SAL01	SALINE (FEN)	56.573903999999998859493643976747989654541015625	-111.277773999999993748133420012891292572021484375	HOBO Rain Gauge Data Logger - RG3	HOBO Temperature/RH Smart Sensor (S-THB-M002)	Soil Moisture Smart Sensor - EC5 (S-SMC-M005)	2019-07-26T02:00:01	1.60	15.055	97.500	0.6177	14.7
1816	AB07CD0350	WETLAND SAL01	SALINE (FEN)	56.573903999999998859493643976747989654541015625	-111.277773999999993748133420012891292572021484375	HOBO Rain Gauge Data Logger - RG3	HOBO Temperature/RH Smart Sensor (S-THB-M002)	Soil Moisture Smart Sensor - EC5 (S-SMC-M005)	2019-07-26T03:00:01	0.60	15.031	96.700	0.6177	14.5
1817	AB07CD0350	WETLAND SAL01	SALINE (FEN)	56.573903999999998859493643976747989654541015625	-111.277773999999993748133420012891292572021484375	HOBO Rain Gauge Data Logger - RG3	HOBO Temperature/RH Smart Sensor (S-THB-M002)	Soil Moisture Smart Sensor - EC5 (S-SMC-M005)	2019-07-26T04:00:01	0.00	14.577	95.900	0.6177	13.9
1818	AB07CD0350	WETLAND SAL01	SALINE (FEN)	56.573903999999998859493643976747989654541015625	-111.277773999999993748133420012891292572021484375	HOBO Rain Gauge Data Logger - RG3	HOBO Temperature/RH Smart Sensor (S-THB-M002)	Soil Moisture Smart Sensor - EC5 (S-SMC-M005)	2019-07-26T05:00:01	0.00	13.954	96.000	0.6184	13.3
1819	AB07CD0350	WETLAND SAL01	SALINE (FEN)	56.573903999999998859493643976747989654541015625	-111.277773999999993748133420012891292572021484375	HOBO Rain Gauge Data Logger - RG3	HOBO Temperature/RH Smart Sensor (S-THB-M002)	Soil Moisture Smart Sensor - EC5 (S-SMC-M005)	2019-07-26T06:00:01	0.00	13.353	96.400	0.6184	12.8
1820	AB07CD0350	WETLAND SAL01	SALINE (FEN)	56.573903999999998859493643976747989654541015625	-111.277773999999993748133420012891292572021484375	HOBO Rain Gauge Data Logger - RG3	HOBO Temperature/RH Smart Sensor (S-THB-M002)	Soil Moisture Smart Sensor - EC5 (S-SMC-M005)	2019-07-26T07:00:01	0.00	13.978	94.600	0.6184	13.1
1821	AB07CD0350	WETLAND SAL01	SALINE (FEN)	56.573903999999998859493643976747989654541015625	-111.277773999999993748133420012891292572021484375	HOBO Rain Gauge Data Logger - RG3	HOBO Temperature/RH Smart Sensor (S-THB-M002)	Soil Moisture Smart Sensor - EC5 (S-SMC-M005)	2019-07-26T08:00:01	0.00	15.438	89.400	0.6177	13.7
1822	AB07CD0350	WETLAND SAL01	SALINE (FEN)	56.573903999999998859493643976747989654541015625	-111.277773999999993748133420012891292572021484375	HOBO Rain Gauge Data Logger - RG3	HOBO Temperature/RH Smart Sensor (S-THB-M002)	Soil Moisture Smart Sensor - EC5 (S-SMC-M005)	2019-07-26T09:00:01	0.00	17.391	82.300	0.6177	14.4
1823	AB07CD0350	WETLAND SAL01	SALINE (FEN)	56.573903999999998859493643976747989654541015625	-111.277773999999993748133420012891292572021484375	HOBO Rain Gauge Data Logger - RG3	HOBO Temperature/RH Smart Sensor (S-THB-M002)	Soil Moisture Smart Sensor - EC5 (S-SMC-M005)	2019-07-26T10:00:01	0.00	19.413	74.100	0.6177	14.7
1824	AB07CD0350	WETLAND SAL01	SALINE (FEN)	56.573903999999998859493643976747989654541015625	-111.277773999999993748133420012891292572021484375	HOBO Rain Gauge Data Logger - RG3	HOBO Temperature/RH Smart Sensor (S-THB-M002)	Soil Moisture Smart Sensor - EC5 (S-SMC-M005)	2019-07-26T11:00:01	0.00	20.817	65.100	0.6184	14.0
1825	AB07CD0350	WETLAND SAL01	SALINE (FEN)	56.573903999999998859493643976747989654541015625	-111.277773999999993748133420012891292572021484375	HOBO Rain Gauge Data Logger - RG3	HOBO Temperature/RH Smart Sensor (S-THB-M002)	Soil Moisture Smart Sensor - EC5 (S-SMC-M005)	2019-07-26T12:00:01	0.00	22.345	56.400	0.6177	13.3
1826	AB07CD0350	WETLAND SAL01	SALINE (FEN)	56.573903999999998859493643976747989654541015625	-111.277773999999993748133420012891292572021484375	HOBO Rain Gauge Data Logger - RG3	HOBO Temperature/RH Smart Sensor (S-THB-M002)	Soil Moisture Smart Sensor - EC5 (S-SMC-M005)	2019-07-26T13:00:01	0.00	23.905	54.200	0.6177	14.1
1827	AB07CD0350	WETLAND SAL01	SALINE (FEN)	56.573903999999998859493643976747989654541015625	-111.277773999999993748133420012891292572021484375	HOBO Rain Gauge Data Logger - RG3	HOBO Temperature/RH Smart Sensor (S-THB-M002)	Soil Moisture Smart Sensor - EC5 (S-SMC-M005)	2019-07-26T14:00:01	0.00	24.653	50.400	0.6177	13.7
1828	AB07CD0350	WETLAND SAL01	SALINE (FEN)	56.573903999999998859493643976747989654541015625	-111.277773999999993748133420012891292572021484375	HOBO Rain Gauge Data Logger - RG3	HOBO Temperature/RH Smart Sensor (S-THB-M002)	Soil Moisture Smart Sensor - EC5 (S-SMC-M005)	2019-07-26T15:00:01	0.00	25.963	45.900	0.6177	13.4
1829	AB07CD0350	WETLAND SAL01	SALINE (FEN)	56.573903999999998859493643976747989654541015625	-111.277773999999993748133420012891292572021484375	HOBO Rain Gauge Data Logger - RG3	HOBO Temperature/RH Smart Sensor (S-THB-M002)	Soil Moisture Smart Sensor - EC5 (S-SMC-M005)	2019-07-26T16:00:01	0.00	25.234	43.800	0.6177	12.1
1830	AB07CD0350	WETLAND SAL01	SALINE (FEN)	56.573903999999998859493643976747989654541015625	-111.277773999999993748133420012891292572021484375	HOBO Rain Gauge Data Logger - RG3	HOBO Temperature/RH Smart Sensor (S-THB-M002)	Soil Moisture Smart Sensor - EC5 (S-SMC-M005)	2019-07-26T17:00:01	0.00	26.475	40.400	0.6177	11.9
1831	AB07CD0350	WETLAND SAL01	SALINE (FEN)	56.573903999999998859493643976747989654541015625	-111.277773999999993748133420012891292572021484375	HOBO Rain Gauge Data Logger - RG3	HOBO Temperature/RH Smart Sensor (S-THB-M002)	Soil Moisture Smart Sensor - EC5 (S-SMC-M005)	2019-07-26T18:00:01	0.00	24.992	39.400	0.6177	10.2
1832	AB07CD0350	WETLAND SAL01	SALINE (FEN)	56.573903999999998859493643976747989654541015625	-111.277773999999993748133420012891292572021484375	HOBO Rain Gauge Data Logger - RG3	HOBO Temperature/RH Smart Sensor (S-THB-M002)	Soil Moisture Smart Sensor - EC5 (S-SMC-M005)	2019-07-26T19:00:01	0.00	25.501	40.900	0.6177	11.3
1833	AB07CD0350	WETLAND SAL01	SALINE (FEN)	56.573903999999998859493643976747989654541015625	-111.277773999999993748133420012891292572021484375	HOBO Rain Gauge Data Logger - RG3	HOBO Temperature/RH Smart Sensor (S-THB-M002)	Soil Moisture Smart Sensor - EC5 (S-SMC-M005)	2019-07-26T20:00:01	0.00	24.050	40.700	0.6177	9.9
1834	AB07CD0350	WETLAND SAL01	SALINE (FEN)	56.573903999999998859493643976747989654541015625	-111.277773999999993748133420012891292572021484375	HOBO Rain Gauge Data Logger - RG3	HOBO Temperature/RH Smart Sensor (S-THB-M002)	Soil Moisture Smart Sensor - EC5 (S-SMC-M005)	2019-07-26T21:00:01	0.00	20.817	48.400	0.6177	9.5
1835	AB07CD0350	WETLAND SAL01	SALINE (FEN)	56.573903999999998859493643976747989654541015625	-111.277773999999993748133420012891292572021484375	HOBO Rain Gauge Data Logger - RG3	HOBO Temperature/RH Smart Sensor (S-THB-M002)	Soil Moisture Smart Sensor - EC5 (S-SMC-M005)	2019-07-26T22:00:01	0.00	17.558	60.800	0.6177	9.9
1836	AB07CD0350	WETLAND SAL01	SALINE (FEN)	56.573903999999998859493643976747989654541015625	-111.277773999999993748133420012891292572021484375	HOBO Rain Gauge Data Logger - RG3	HOBO Temperature/RH Smart Sensor (S-THB-M002)	Soil Moisture Smart Sensor - EC5 (S-SMC-M005)	2019-07-26T23:00:01	0.00	16.272	68.500	0.6177	10.5
1837	AB07CD0350	WETLAND SAL01	SALINE (FEN)	56.573903999999998859493643976747989654541015625	-111.277773999999993748133420012891292572021484375	HOBO Rain Gauge Data Logger - RG3	HOBO Temperature/RH Smart Sensor (S-THB-M002)	Soil Moisture Smart Sensor - EC5 (S-SMC-M005)	2019-07-27T00:00:01	0.00	12.920	74.900	0.6177	8.6
1838	AB07CD0350	WETLAND SAL01	SALINE (FEN)	56.573903999999998859493643976747989654541015625	-111.277773999999993748133420012891292572021484375	HOBO Rain Gauge Data Logger - RG3	HOBO Temperature/RH Smart Sensor (S-THB-M002)	Soil Moisture Smart Sensor - EC5 (S-SMC-M005)	2019-07-27T01:00:01	0.00	14.601	76.600	0.6177	10.6
1839	AB07CD0350	WETLAND SAL01	SALINE (FEN)	56.573903999999998859493643976747989654541015625	-111.277773999999993748133420012891292572021484375	HOBO Rain Gauge Data Logger - RG3	HOBO Temperature/RH Smart Sensor (S-THB-M002)	Soil Moisture Smart Sensor - EC5 (S-SMC-M005)	2019-07-27T02:00:01	0.00	12.025	78.100	0.6177	8.3
1840	AB07CD0350	WETLAND SAL01	SALINE (FEN)	56.573903999999998859493643976747989654541015625	-111.277773999999993748133420012891292572021484375	HOBO Rain Gauge Data Logger - RG3	HOBO Temperature/RH Smart Sensor (S-THB-M002)	Soil Moisture Smart Sensor - EC5 (S-SMC-M005)	2019-07-27T03:00:01	0.00	10.712	84.700	0.6177	8.3
1841	AB07CD0350	WETLAND SAL01	SALINE (FEN)	56.573903999999998859493643976747989654541015625	-111.277773999999993748133420012891292572021484375	HOBO Rain Gauge Data Logger - RG3	HOBO Temperature/RH Smart Sensor (S-THB-M002)	Soil Moisture Smart Sensor - EC5 (S-SMC-M005)	2019-07-27T04:00:01	0.00	12.268	86.600	0.6177	10.1
1842	AB07CD0350	WETLAND SAL01	SALINE (FEN)	56.573903999999998859493643976747989654541015625	-111.277773999999993748133420012891292572021484375	HOBO Rain Gauge Data Logger - RG3	HOBO Temperature/RH Smart Sensor (S-THB-M002)	Soil Moisture Smart Sensor - EC5 (S-SMC-M005)	2019-07-27T05:00:01	0.00	9.040	90.200	0.6177	7.5
1843	AB07CD0350	WETLAND SAL01	SALINE (FEN)	56.573903999999998859493643976747989654541015625	-111.277773999999993748133420012891292572021484375	HOBO Rain Gauge Data Logger - RG3	HOBO Temperature/RH Smart Sensor (S-THB-M002)	Soil Moisture Smart Sensor - EC5 (S-SMC-M005)	2019-07-27T06:00:01	0.00	9.485	93.400	0.6177	8.5
1844	AB07CD0350	WETLAND SAL01	SALINE (FEN)	56.573903999999998859493643976747989654541015625	-111.277773999999993748133420012891292572021484375	HOBO Rain Gauge Data Logger - RG3	HOBO Temperature/RH Smart Sensor (S-THB-M002)	Soil Moisture Smart Sensor - EC5 (S-SMC-M005)	2019-07-27T07:00:01	0.00	13.690	91.700	0.6177	12.4
1845	AB07CD0350	WETLAND SAL01	SALINE (FEN)	56.573903999999998859493643976747989654541015625	-111.277773999999993748133420012891292572021484375	HOBO Rain Gauge Data Logger - RG3	HOBO Temperature/RH Smart Sensor (S-THB-M002)	Soil Moisture Smart Sensor - EC5 (S-SMC-M005)	2019-07-27T08:00:01	0.00	16.368	86.800	0.6177	14.2
1846	AB07CD0350	WETLAND SAL01	SALINE (FEN)	56.573903999999998859493643976747989654541015625	-111.277773999999993748133420012891292572021484375	HOBO Rain Gauge Data Logger - RG3	HOBO Temperature/RH Smart Sensor (S-THB-M002)	Soil Moisture Smart Sensor - EC5 (S-SMC-M005)	2019-07-27T09:00:01	0.00	19.222	77.800	0.6177	15.3
1847	AB07CD0350	WETLAND SAL01	SALINE (FEN)	56.573903999999998859493643976747989654541015625	-111.277773999999993748133420012891292572021484375	HOBO Rain Gauge Data Logger - RG3	HOBO Temperature/RH Smart Sensor (S-THB-M002)	Soil Moisture Smart Sensor - EC5 (S-SMC-M005)	2019-07-27T10:00:01	0.00	21.175	66.800	0.6177	14.8
1848	AB07CD0350	WETLAND SAL01	SALINE (FEN)	56.573903999999998859493643976747989654541015625	-111.277773999999993748133420012891292572021484375	HOBO Rain Gauge Data Logger - RG3	HOBO Temperature/RH Smart Sensor (S-THB-M002)	Soil Moisture Smart Sensor - EC5 (S-SMC-M005)	2019-07-27T11:00:01	0.00	20.817	64.100	0.6177	13.8
1849	AB07CD0350	WETLAND SAL01	SALINE (FEN)	56.573903999999998859493643976747989654541015625	-111.277773999999993748133420012891292572021484375	HOBO Rain Gauge Data Logger - RG3	HOBO Temperature/RH Smart Sensor (S-THB-M002)	Soil Moisture Smart Sensor - EC5 (S-SMC-M005)	2019-07-27T12:00:01	0.00	20.079	72.700	0.6177	15.0
1850	AB07CD0350	WETLAND SAL01	SALINE (FEN)	56.573903999999998859493643976747989654541015625	-111.277773999999993748133420012891292572021484375	HOBO Rain Gauge Data Logger - RG3	HOBO Temperature/RH Smart Sensor (S-THB-M002)	Soil Moisture Smart Sensor - EC5 (S-SMC-M005)	2019-07-27T13:00:01	0.40	16.463	80.200	0.6169	13.1
1851	AB07CD0350	WETLAND SAL01	SALINE (FEN)	56.573903999999998859493643976747989654541015625	-111.277773999999993748133420012891292572021484375	HOBO Rain Gauge Data Logger - RG3	HOBO Temperature/RH Smart Sensor (S-THB-M002)	Soil Moisture Smart Sensor - EC5 (S-SMC-M005)	2019-07-27T14:00:01	0.40	16.582	87.900	0.6169	14.6
1852	AB07CD0350	WETLAND SAL01	SALINE (FEN)	56.573903999999998859493643976747989654541015625	-111.277773999999993748133420012891292572021484375	HOBO Rain Gauge Data Logger - RG3	HOBO Temperature/RH Smart Sensor (S-THB-M002)	Soil Moisture Smart Sensor - EC5 (S-SMC-M005)	2019-07-27T15:00:01	0.00	18.699	83.900	0.6169	15.9
1853	AB07CD0350	WETLAND SAL01	SALINE (FEN)	56.573903999999998859493643976747989654541015625	-111.277773999999993748133420012891292572021484375	HOBO Rain Gauge Data Logger - RG3	HOBO Temperature/RH Smart Sensor (S-THB-M002)	Soil Moisture Smart Sensor - EC5 (S-SMC-M005)	2019-07-27T16:00:01	0.00	18.985	77.200	0.6169	14.9
1854	AB07CD0350	WETLAND SAL01	SALINE (FEN)	56.573903999999998859493643976747989654541015625	-111.277773999999993748133420012891292572021484375	HOBO Rain Gauge Data Logger - RG3	HOBO Temperature/RH Smart Sensor (S-THB-M002)	Soil Moisture Smart Sensor - EC5 (S-SMC-M005)	2019-07-27T17:00:01	0.00	17.938	77.700	0.6169	14.0
1855	AB07CD0350	WETLAND SAL01	SALINE (FEN)	56.573903999999998859493643976747989654541015625	-111.277773999999993748133420012891292572021484375	HOBO Rain Gauge Data Logger - RG3	HOBO Temperature/RH Smart Sensor (S-THB-M002)	Soil Moisture Smart Sensor - EC5 (S-SMC-M005)	2019-07-27T18:00:01	1.00	15.485	86.700	0.6169	13.3
1856	AB07CD0350	WETLAND SAL01	SALINE (FEN)	56.573903999999998859493643976747989654541015625	-111.277773999999993748133420012891292572021484375	HOBO Rain Gauge Data Logger - RG3	HOBO Temperature/RH Smart Sensor (S-THB-M002)	Soil Moisture Smart Sensor - EC5 (S-SMC-M005)	2019-07-27T19:00:01	4.00	14.984	93.800	0.6177	14.0
1857	AB07CD0350	WETLAND SAL01	SALINE (FEN)	56.573903999999998859493643976747989654541015625	-111.277773999999993748133420012891292572021484375	HOBO Rain Gauge Data Logger - RG3	HOBO Temperature/RH Smart Sensor (S-THB-M002)	Soil Moisture Smart Sensor - EC5 (S-SMC-M005)	2019-07-27T20:00:01	1.20	15.485	94.900	0.6177	14.7
1858	AB07CD0350	WETLAND SAL01	SALINE (FEN)	56.573903999999998859493643976747989654541015625	-111.277773999999993748133420012891292572021484375	HOBO Rain Gauge Data Logger - RG3	HOBO Temperature/RH Smart Sensor (S-THB-M002)	Soil Moisture Smart Sensor - EC5 (S-SMC-M005)	2019-07-27T21:00:01	0.00	15.247	95.600	0.6177	14.6
1859	AB07CD0350	WETLAND SAL01	SALINE (FEN)	56.573903999999998859493643976747989654541015625	-111.277773999999993748133420012891292572021484375	HOBO Rain Gauge Data Logger - RG3	HOBO Temperature/RH Smart Sensor (S-THB-M002)	Soil Moisture Smart Sensor - EC5 (S-SMC-M005)	2019-07-27T22:00:01	0.00	15.055	96.400	0.6177	14.5
1860	AB07CD0350	WETLAND SAL01	SALINE (FEN)	56.573903999999998859493643976747989654541015625	-111.277773999999993748133420012891292572021484375	HOBO Rain Gauge Data Logger - RG3	HOBO Temperature/RH Smart Sensor (S-THB-M002)	Soil Moisture Smart Sensor - EC5 (S-SMC-M005)	2019-07-27T23:00:01	0.00	15.270	97.100	0.6177	14.8
1861	AB07CD0350	WETLAND SAL01	SALINE (FEN)	56.573903999999998859493643976747989654541015625	-111.277773999999993748133420012891292572021484375	HOBO Rain Gauge Data Logger - RG3	HOBO Temperature/RH Smart Sensor (S-THB-M002)	Soil Moisture Smart Sensor - EC5 (S-SMC-M005)	2019-07-28T00:00:01	0.40	14.960	96.500	0.6177	14.4
1862	AB07CD0350	WETLAND SAL01	SALINE (FEN)	56.573903999999998859493643976747989654541015625	-111.277773999999993748133420012891292572021484375	HOBO Rain Gauge Data Logger - RG3	HOBO Temperature/RH Smart Sensor (S-THB-M002)	Soil Moisture Smart Sensor - EC5 (S-SMC-M005)	2019-07-28T01:00:01	0.20	14.697	96.300	0.6177	14.1
1863	AB07CD0350	WETLAND SAL01	SALINE (FEN)	56.573903999999998859493643976747989654541015625	-111.277773999999993748133420012891292572021484375	HOBO Rain Gauge Data Logger - RG3	HOBO Temperature/RH Smart Sensor (S-THB-M002)	Soil Moisture Smart Sensor - EC5 (S-SMC-M005)	2019-07-28T02:00:01	0.00	14.266	96.600	0.6177	13.7
1864	AB07CD0350	WETLAND SAL01	SALINE (FEN)	56.573903999999998859493643976747989654541015625	-111.277773999999993748133420012891292572021484375	HOBO Rain Gauge Data Logger - RG3	HOBO Temperature/RH Smart Sensor (S-THB-M002)	Soil Moisture Smart Sensor - EC5 (S-SMC-M005)	2019-07-28T03:00:01	0.00	13.594	94.600	0.6177	12.8
1865	AB07CD0350	WETLAND SAL01	SALINE (FEN)	56.573903999999998859493643976747989654541015625	-111.277773999999993748133420012891292572021484375	HOBO Rain Gauge Data Logger - RG3	HOBO Temperature/RH Smart Sensor (S-THB-M002)	Soil Moisture Smart Sensor - EC5 (S-SMC-M005)	2019-07-28T04:00:01	0.00	13.329	92.600	0.6177	12.2
1866	AB07CD0350	WETLAND SAL01	SALINE (FEN)	56.573903999999998859493643976747989654541015625	-111.277773999999993748133420012891292572021484375	HOBO Rain Gauge Data Logger - RG3	HOBO Temperature/RH Smart Sensor (S-THB-M002)	Soil Moisture Smart Sensor - EC5 (S-SMC-M005)	2019-07-28T05:00:01	0.00	12.871	93.200	0.6177	11.8
1867	AB07CD0350	WETLAND SAL01	SALINE (FEN)	56.573903999999998859493643976747989654541015625	-111.277773999999993748133420012891292572021484375	HOBO Rain Gauge Data Logger - RG3	HOBO Temperature/RH Smart Sensor (S-THB-M002)	Soil Moisture Smart Sensor - EC5 (S-SMC-M005)	2019-07-28T06:00:01	0.00	12.509	88.800	0.6177	10.7
1868	AB07CD0350	WETLAND SAL01	SALINE (FEN)	56.573903999999998859493643976747989654541015625	-111.277773999999993748133420012891292572021484375	HOBO Rain Gauge Data Logger - RG3	HOBO Temperature/RH Smart Sensor (S-THB-M002)	Soil Moisture Smart Sensor - EC5 (S-SMC-M005)	2019-07-28T07:00:01	0.00	12.799	82.700	0.6177	9.9
1869	AB07CD0350	WETLAND SAL01	SALINE (FEN)	56.573903999999998859493643976747989654541015625	-111.277773999999993748133420012891292572021484375	HOBO Rain Gauge Data Logger - RG3	HOBO Temperature/RH Smart Sensor (S-THB-M002)	Soil Moisture Smart Sensor - EC5 (S-SMC-M005)	2019-07-28T08:00:01	0.00	13.257	75.700	0.6169	9.1
1870	AB07CD0350	WETLAND SAL01	SALINE (FEN)	56.573903999999998859493643976747989654541015625	-111.277773999999993748133420012891292572021484375	HOBO Rain Gauge Data Logger - RG3	HOBO Temperature/RH Smart Sensor (S-THB-M002)	Soil Moisture Smart Sensor - EC5 (S-SMC-M005)	2019-07-28T09:00:01	0.00	13.978	75.100	0.6177	9.7
1871	AB07CD0350	WETLAND SAL01	SALINE (FEN)	56.573903999999998859493643976747989654541015625	-111.277773999999993748133420012891292572021484375	HOBO Rain Gauge Data Logger - RG3	HOBO Temperature/RH Smart Sensor (S-THB-M002)	Soil Moisture Smart Sensor - EC5 (S-SMC-M005)	2019-07-28T10:00:01	0.00	13.425	72.500	0.6169	8.6
1872	AB07CD0350	WETLAND SAL01	SALINE (FEN)	56.573903999999998859493643976747989654541015625	-111.277773999999993748133420012891292572021484375	HOBO Rain Gauge Data Logger - RG3	HOBO Temperature/RH Smart Sensor (S-THB-M002)	Soil Moisture Smart Sensor - EC5 (S-SMC-M005)	2019-07-28T11:00:01	0.00	14.960	68.000	0.6169	9.1
1873	AB07CD0350	WETLAND SAL01	SALINE (FEN)	56.573903999999998859493643976747989654541015625	-111.277773999999993748133420012891292572021484375	HOBO Rain Gauge Data Logger - RG3	HOBO Temperature/RH Smart Sensor (S-THB-M002)	Soil Moisture Smart Sensor - EC5 (S-SMC-M005)	2019-07-28T12:00:01	0.00	15.414	60.500	0.6169	7.8
1874	AB07CD0350	WETLAND SAL01	SALINE (FEN)	56.573903999999998859493643976747989654541015625	-111.277773999999993748133420012891292572021484375	HOBO Rain Gauge Data Logger - RG3	HOBO Temperature/RH Smart Sensor (S-THB-M002)	Soil Moisture Smart Sensor - EC5 (S-SMC-M005)	2019-07-28T13:00:01	0.00	16.606	56.400	0.6169	7.9
1875	AB07CD0350	WETLAND SAL01	SALINE (FEN)	56.573903999999998859493643976747989654541015625	-111.277773999999993748133420012891292572021484375	HOBO Rain Gauge Data Logger - RG3	HOBO Temperature/RH Smart Sensor (S-THB-M002)	Soil Moisture Smart Sensor - EC5 (S-SMC-M005)	2019-07-28T14:00:01	0.00	17.891	52.400	0.6169	8.0
1876	AB07CD0350	WETLAND SAL01	SALINE (FEN)	56.573903999999998859493643976747989654541015625	-111.277773999999993748133420012891292572021484375	HOBO Rain Gauge Data Logger - RG3	HOBO Temperature/RH Smart Sensor (S-THB-M002)	Soil Moisture Smart Sensor - EC5 (S-SMC-M005)	2019-07-28T15:00:01	0.00	18.247	48.200	0.6169	7.1
1877	AB07CD0350	WETLAND SAL01	SALINE (FEN)	56.573903999999998859493643976747989654541015625	-111.277773999999993748133420012891292572021484375	HOBO Rain Gauge Data Logger - RG3	HOBO Temperature/RH Smart Sensor (S-THB-M002)	Soil Moisture Smart Sensor - EC5 (S-SMC-M005)	2019-07-28T16:00:01	0.00	19.175	45.000	0.6169	7.0
1878	AB07CD0350	WETLAND SAL01	SALINE (FEN)	56.573903999999998859493643976747989654541015625	-111.277773999999993748133420012891292572021484375	HOBO Rain Gauge Data Logger - RG3	HOBO Temperature/RH Smart Sensor (S-THB-M002)	Soil Moisture Smart Sensor - EC5 (S-SMC-M005)	2019-07-28T17:00:01	0.00	20.388	43.700	0.6169	7.6
1879	AB07CD0350	WETLAND SAL01	SALINE (FEN)	56.573903999999998859493643976747989654541015625	-111.277773999999993748133420012891292572021484375	HOBO Rain Gauge Data Logger - RG3	HOBO Temperature/RH Smart Sensor (S-THB-M002)	Soil Moisture Smart Sensor - EC5 (S-SMC-M005)	2019-07-28T18:00:01	0.00	20.627	43.000	0.6169	7.6
1880	AB07CD0350	WETLAND SAL01	SALINE (FEN)	56.573903999999998859493643976747989654541015625	-111.277773999999993748133420012891292572021484375	HOBO Rain Gauge Data Logger - RG3	HOBO Temperature/RH Smart Sensor (S-THB-M002)	Soil Moisture Smart Sensor - EC5 (S-SMC-M005)	2019-07-28T19:00:01	0.00	21.342	42.200	0.6169	8.0
1881	AB07CD0350	WETLAND SAL01	SALINE (FEN)	56.573903999999998859493643976747989654541015625	-111.277773999999993748133420012891292572021484375	HOBO Rain Gauge Data Logger - RG3	HOBO Temperature/RH Smart Sensor (S-THB-M002)	Soil Moisture Smart Sensor - EC5 (S-SMC-M005)	2019-07-28T20:00:01	0.00	20.293	41.700	0.6169	6.9
1882	AB07CD0350	WETLAND SAL01	SALINE (FEN)	56.573903999999998859493643976747989654541015625	-111.277773999999993748133420012891292572021484375	HOBO Rain Gauge Data Logger - RG3	HOBO Temperature/RH Smart Sensor (S-THB-M002)	Soil Moisture Smart Sensor - EC5 (S-SMC-M005)	2019-07-28T21:00:01	0.00	18.580	49.800	0.6169	7.9
1883	AB07CD0350	WETLAND SAL01	SALINE (FEN)	56.573903999999998859493643976747989654541015625	-111.277773999999993748133420012891292572021484375	HOBO Rain Gauge Data Logger - RG3	HOBO Temperature/RH Smart Sensor (S-THB-M002)	Soil Moisture Smart Sensor - EC5 (S-SMC-M005)	2019-07-28T22:00:01	0.00	14.170	61.100	0.6169	6.8
1884	AB07CD0350	WETLAND SAL01	SALINE (FEN)	56.573903999999998859493643976747989654541015625	-111.277773999999993748133420012891292572021484375	HOBO Rain Gauge Data Logger - RG3	HOBO Temperature/RH Smart Sensor (S-THB-M002)	Soil Moisture Smart Sensor - EC5 (S-SMC-M005)	2019-07-28T23:00:01	0.00	13.353	77.900	0.6169	9.6
1885	AB07CD0350	WETLAND SAL01	SALINE (FEN)	56.573903999999998859493643976747989654541015625	-111.277773999999993748133420012891292572021484375	HOBO Rain Gauge Data Logger - RG3	HOBO Temperature/RH Smart Sensor (S-THB-M002)	Soil Moisture Smart Sensor - EC5 (S-SMC-M005)	2019-07-29T00:00:01	0.00	9.756	78.900	0.6169	6.3
1886	AB07CD0350	WETLAND SAL01	SALINE (FEN)	56.573903999999998859493643976747989654541015625	-111.277773999999993748133420012891292572021484375	HOBO Rain Gauge Data Logger - RG3	HOBO Temperature/RH Smart Sensor (S-THB-M002)	Soil Moisture Smart Sensor - EC5 (S-SMC-M005)	2019-07-29T01:00:01	0.00	8.245	88.500	0.6177	6.5
1887	AB07CD0350	WETLAND SAL01	SALINE (FEN)	56.573903999999998859493643976747989654541015625	-111.277773999999993748133420012891292572021484375	HOBO Rain Gauge Data Logger - RG3	HOBO Temperature/RH Smart Sensor (S-THB-M002)	Soil Moisture Smart Sensor - EC5 (S-SMC-M005)	2019-07-29T02:00:01	0.00	7.795	91.800	0.6177	6.6
1888	AB07CD0350	WETLAND SAL01	SALINE (FEN)	56.573903999999998859493643976747989654541015625	-111.277773999999993748133420012891292572021484375	HOBO Rain Gauge Data Logger - RG3	HOBO Temperature/RH Smart Sensor (S-THB-M002)	Soil Moisture Smart Sensor - EC5 (S-SMC-M005)	2019-07-29T03:00:01	0.00	7.895	92.900	0.6169	6.8
1889	AB07CD0350	WETLAND SAL01	SALINE (FEN)	56.573903999999998859493643976747989654541015625	-111.277773999999993748133420012891292572021484375	HOBO Rain Gauge Data Logger - RG3	HOBO Temperature/RH Smart Sensor (S-THB-M002)	Soil Moisture Smart Sensor - EC5 (S-SMC-M005)	2019-07-29T04:00:01	0.00	8.469	93.400	0.6169	7.5
1890	AB07CD0350	WETLAND SAL01	SALINE (FEN)	56.573903999999998859493643976747989654541015625	-111.277773999999993748133420012891292572021484375	HOBO Rain Gauge Data Logger - RG3	HOBO Temperature/RH Smart Sensor (S-THB-M002)	Soil Moisture Smart Sensor - EC5 (S-SMC-M005)	2019-07-29T05:00:01	0.00	7.995	94.400	0.6169	7.2
1891	AB07CD0350	WETLAND SAL01	SALINE (FEN)	56.573903999999998859493643976747989654541015625	-111.277773999999993748133420012891292572021484375	HOBO Rain Gauge Data Logger - RG3	HOBO Temperature/RH Smart Sensor (S-THB-M002)	Soil Moisture Smart Sensor - EC5 (S-SMC-M005)	2019-07-29T06:00:01	0.00	9.435	95.000	0.6177	8.7
1892	AB07CD0350	WETLAND SAL01	SALINE (FEN)	56.573903999999998859493643976747989654541015625	-111.277773999999993748133420012891292572021484375	HOBO Rain Gauge Data Logger - RG3	HOBO Temperature/RH Smart Sensor (S-THB-M002)	Soil Moisture Smart Sensor - EC5 (S-SMC-M005)	2019-07-29T07:00:01	0.00	13.329	95.100	0.6169	12.6
1893	AB07CD0350	WETLAND SAL01	SALINE (FEN)	56.573903999999998859493643976747989654541015625	-111.277773999999993748133420012891292572021484375	HOBO Rain Gauge Data Logger - RG3	HOBO Temperature/RH Smart Sensor (S-THB-M002)	Soil Moisture Smart Sensor - EC5 (S-SMC-M005)	2019-07-29T08:00:01	0.00	17.130	83.900	0.6169	14.4
1894	AB07CD0350	WETLAND SAL01	SALINE (FEN)	56.573903999999998859493643976747989654541015625	-111.277773999999993748133420012891292572021484375	HOBO Rain Gauge Data Logger - RG3	HOBO Temperature/RH Smart Sensor (S-THB-M002)	Soil Moisture Smart Sensor - EC5 (S-SMC-M005)	2019-07-29T09:00:01	0.00	18.961	73.800	0.6169	14.2
1895	AB07CD0350	WETLAND SAL01	SALINE (FEN)	56.573903999999998859493643976747989654541015625	-111.277773999999993748133420012891292572021484375	HOBO Rain Gauge Data Logger - RG3	HOBO Temperature/RH Smart Sensor (S-THB-M002)	Soil Moisture Smart Sensor - EC5 (S-SMC-M005)	2019-07-29T10:00:01	0.00	20.222	66.400	0.6169	13.8
1896	AB07CD0350	WETLAND SAL01	SALINE (FEN)	56.573903999999998859493643976747989654541015625	-111.277773999999993748133420012891292572021484375	HOBO Rain Gauge Data Logger - RG3	HOBO Temperature/RH Smart Sensor (S-THB-M002)	Soil Moisture Smart Sensor - EC5 (S-SMC-M005)	2019-07-29T11:00:01	0.00	20.960	58.900	0.6169	12.6
1897	AB07CD0350	WETLAND SAL01	SALINE (FEN)	56.573903999999998859493643976747989654541015625	-111.277773999999993748133420012891292572021484375	HOBO Rain Gauge Data Logger - RG3	HOBO Temperature/RH Smart Sensor (S-THB-M002)	Soil Moisture Smart Sensor - EC5 (S-SMC-M005)	2019-07-29T12:00:01	0.00	21.557	53.500	0.6169	11.7
1898	AB07CD0350	WETLAND SAL01	SALINE (FEN)	56.573903999999998859493643976747989654541015625	-111.277773999999993748133420012891292572021484375	HOBO Rain Gauge Data Logger - RG3	HOBO Temperature/RH Smart Sensor (S-THB-M002)	Soil Moisture Smart Sensor - EC5 (S-SMC-M005)	2019-07-29T13:00:01	0.00	22.154	50.400	0.6169	11.4
1899	AB07CD0350	WETLAND SAL01	SALINE (FEN)	56.573903999999998859493643976747989654541015625	-111.277773999999993748133420012891292572021484375	HOBO Rain Gauge Data Logger - RG3	HOBO Temperature/RH Smart Sensor (S-THB-M002)	Soil Moisture Smart Sensor - EC5 (S-SMC-M005)	2019-07-29T14:00:01	0.00	22.800	48.800	0.6169	11.5
1900	AB07CD0350	WETLAND SAL01	SALINE (FEN)	56.573903999999998859493643976747989654541015625	-111.277773999999993748133420012891292572021484375	HOBO Rain Gauge Data Logger - RG3	HOBO Temperature/RH Smart Sensor (S-THB-M002)	Soil Moisture Smart Sensor - EC5 (S-SMC-M005)	2019-07-29T15:00:01	0.00	22.896	45.700	0.6169	10.6
1901	AB07CD0350	WETLAND SAL01	SALINE (FEN)	56.573903999999998859493643976747989654541015625	-111.277773999999993748133420012891292572021484375	HOBO Rain Gauge Data Logger - RG3	HOBO Temperature/RH Smart Sensor (S-THB-M002)	Soil Moisture Smart Sensor - EC5 (S-SMC-M005)	2019-07-29T16:00:01	0.00	24.195	41.700	0.6169	10.4
1902	AB07CD0350	WETLAND SAL01	SALINE (FEN)	56.573903999999998859493643976747989654541015625	-111.277773999999993748133420012891292572021484375	HOBO Rain Gauge Data Logger - RG3	HOBO Temperature/RH Smart Sensor (S-THB-M002)	Soil Moisture Smart Sensor - EC5 (S-SMC-M005)	2019-07-29T17:00:01	0.00	24.315	38.000	0.6169	9.1
1903	AB07CD0350	WETLAND SAL01	SALINE (FEN)	56.573903999999998859493643976747989654541015625	-111.277773999999993748133420012891292572021484375	HOBO Rain Gauge Data Logger - RG3	HOBO Temperature/RH Smart Sensor (S-THB-M002)	Soil Moisture Smart Sensor - EC5 (S-SMC-M005)	2019-07-29T18:00:01	0.00	24.243	36.200	0.6169	8.3
1904	AB07CD0350	WETLAND SAL01	SALINE (FEN)	56.573903999999998859493643976747989654541015625	-111.277773999999993748133420012891292572021484375	HOBO Rain Gauge Data Logger - RG3	HOBO Temperature/RH Smart Sensor (S-THB-M002)	Soil Moisture Smart Sensor - EC5 (S-SMC-M005)	2019-07-29T19:00:01	0.00	23.448	33.900	0.6169	6.7
1905	AB07CD0350	WETLAND SAL01	SALINE (FEN)	56.573903999999998859493643976747989654541015625	-111.277773999999993748133420012891292572021484375	HOBO Rain Gauge Data Logger - RG3	HOBO Temperature/RH Smart Sensor (S-THB-M002)	Soil Moisture Smart Sensor - EC5 (S-SMC-M005)	2019-07-29T20:00:01	0.00	22.082	35.200	0.6169	6.0
1906	AB07CD0350	WETLAND SAL01	SALINE (FEN)	56.573903999999998859493643976747989654541015625	-111.277773999999993748133420012891292572021484375	HOBO Rain Gauge Data Logger - RG3	HOBO Temperature/RH Smart Sensor (S-THB-M002)	Soil Moisture Smart Sensor - EC5 (S-SMC-M005)	2019-07-29T21:00:01	0.00	19.627	40.300	0.6169	5.8
1907	AB07CD0350	WETLAND SAL01	SALINE (FEN)	56.573903999999998859493643976747989654541015625	-111.277773999999993748133420012891292572021484375	HOBO Rain Gauge Data Logger - RG3	HOBO Temperature/RH Smart Sensor (S-THB-M002)	Soil Moisture Smart Sensor - EC5 (S-SMC-M005)	2019-07-29T22:00:01	0.00	16.534	49.300	0.6169	5.9
1908	AB07CD0350	WETLAND SAL01	SALINE (FEN)	56.573903999999998859493643976747989654541015625	-111.277773999999993748133420012891292572021484375	HOBO Rain Gauge Data Logger - RG3	HOBO Temperature/RH Smart Sensor (S-THB-M002)	Soil Moisture Smart Sensor - EC5 (S-SMC-M005)	2019-07-29T23:00:01	0.00	11.078	68.900	0.6162	5.6
1909	AB07CD0350	WETLAND SAL01	SALINE (FEN)	56.573903999999998859493643976747989654541015625	-111.277773999999993748133420012891292572021484375	HOBO Rain Gauge Data Logger - RG3	HOBO Temperature/RH Smart Sensor (S-THB-M002)	Soil Moisture Smart Sensor - EC5 (S-SMC-M005)	2019-07-30T00:00:01	0.00	9.163	79.600	0.6169	5.8
1910	AB07CD0350	WETLAND SAL01	SALINE (FEN)	56.573903999999998859493643976747989654541015625	-111.277773999999993748133420012891292572021484375	HOBO Rain Gauge Data Logger - RG3	HOBO Temperature/RH Smart Sensor (S-THB-M002)	Soil Moisture Smart Sensor - EC5 (S-SMC-M005)	2019-07-30T01:00:01	0.00	8.120	86.100	0.6169	5.9
1911	AB07CD0350	WETLAND SAL01	SALINE (FEN)	56.573903999999998859493643976747989654541015625	-111.277773999999993748133420012891292572021484375	HOBO Rain Gauge Data Logger - RG3	HOBO Temperature/RH Smart Sensor (S-THB-M002)	Soil Moisture Smart Sensor - EC5 (S-SMC-M005)	2019-07-30T02:00:01	0.00	6.813	89.300	0.6169	5.2
1912	AB07CD0350	WETLAND SAL01	SALINE (FEN)	56.573903999999998859493643976747989654541015625	-111.277773999999993748133420012891292572021484375	HOBO Rain Gauge Data Logger - RG3	HOBO Temperature/RH Smart Sensor (S-THB-M002)	Soil Moisture Smart Sensor - EC5 (S-SMC-M005)	2019-07-30T03:00:01	0.00	9.509	91.300	0.6169	8.2
1913	AB07CD0350	WETLAND SAL01	SALINE (FEN)	56.573903999999998859493643976747989654541015625	-111.277773999999993748133420012891292572021484375	HOBO Rain Gauge Data Logger - RG3	HOBO Temperature/RH Smart Sensor (S-THB-M002)	Soil Moisture Smart Sensor - EC5 (S-SMC-M005)	2019-07-30T04:00:01	0.00	9.657	87.600	0.6169	7.7
1914	AB07CD0350	WETLAND SAL01	SALINE (FEN)	56.573903999999998859493643976747989654541015625	-111.277773999999993748133420012891292572021484375	HOBO Rain Gauge Data Logger - RG3	HOBO Temperature/RH Smart Sensor (S-THB-M002)	Soil Moisture Smart Sensor - EC5 (S-SMC-M005)	2019-07-30T05:00:01	0.00	9.262	88.300	0.6169	7.4
1915	AB07CD0350	WETLAND SAL01	SALINE (FEN)	56.573903999999998859493643976747989654541015625	-111.277773999999993748133420012891292572021484375	HOBO Rain Gauge Data Logger - RG3	HOBO Temperature/RH Smart Sensor (S-THB-M002)	Soil Moisture Smart Sensor - EC5 (S-SMC-M005)	2019-07-30T06:00:01	0.00	7.670	90.000	0.6169	6.1
1916	AB07CD0350	WETLAND SAL01	SALINE (FEN)	56.573903999999998859493643976747989654541015625	-111.277773999999993748133420012891292572021484375	HOBO Rain Gauge Data Logger - RG3	HOBO Temperature/RH Smart Sensor (S-THB-M002)	Soil Moisture Smart Sensor - EC5 (S-SMC-M005)	2019-07-30T07:00:01	0.00	12.268	90.100	0.6169	10.7
1917	AB07CD0350	WETLAND SAL01	SALINE (FEN)	56.573903999999998859493643976747989654541015625	-111.277773999999993748133420012891292572021484375	HOBO Rain Gauge Data Logger - RG3	HOBO Temperature/RH Smart Sensor (S-THB-M002)	Soil Moisture Smart Sensor - EC5 (S-SMC-M005)	2019-07-30T08:00:01	0.00	13.353	84.700	0.6169	10.8
1918	AB07CD0350	WETLAND SAL01	SALINE (FEN)	56.573903999999998859493643976747989654541015625	-111.277773999999993748133420012891292572021484375	HOBO Rain Gauge Data Logger - RG3	HOBO Temperature/RH Smart Sensor (S-THB-M002)	Soil Moisture Smart Sensor - EC5 (S-SMC-M005)	2019-07-30T09:00:01	0.00	14.745	80.500	0.6169	11.4
1919	AB07CD0350	WETLAND SAL01	SALINE (FEN)	56.573903999999998859493643976747989654541015625	-111.277773999999993748133420012891292572021484375	HOBO Rain Gauge Data Logger - RG3	HOBO Temperature/RH Smart Sensor (S-THB-M002)	Soil Moisture Smart Sensor - EC5 (S-SMC-M005)	2019-07-30T10:00:01	0.00	16.392	75.200	0.6169	12.0
1920	AB07CD0350	WETLAND SAL01	SALINE (FEN)	56.573903999999998859493643976747989654541015625	-111.277773999999993748133420012891292572021484375	HOBO Rain Gauge Data Logger - RG3	HOBO Temperature/RH Smart Sensor (S-THB-M002)	Soil Moisture Smart Sensor - EC5 (S-SMC-M005)	2019-07-30T11:00:01	0.00	15.390	72.500	0.6162	10.5
1921	AB07CD0350	WETLAND SAL01	SALINE (FEN)	56.573903999999998859493643976747989654541015625	-111.277773999999993748133420012891292572021484375	HOBO Rain Gauge Data Logger - RG3	HOBO Temperature/RH Smart Sensor (S-THB-M002)	Soil Moisture Smart Sensor - EC5 (S-SMC-M005)	2019-07-30T12:00:01	1.40	14.074	87.100	0.6162	12.0
1922	AB07CD0350	WETLAND SAL01	SALINE (FEN)	56.573903999999998859493643976747989654541015625	-111.277773999999993748133420012891292572021484375	HOBO Rain Gauge Data Logger - RG3	HOBO Temperature/RH Smart Sensor (S-THB-M002)	Soil Moisture Smart Sensor - EC5 (S-SMC-M005)	2019-07-30T13:00:01	0.00	15.366	89.200	0.6162	13.6
1923	AB07CD0350	WETLAND SAL01	SALINE (FEN)	56.573903999999998859493643976747989654541015625	-111.277773999999993748133420012891292572021484375	HOBO Rain Gauge Data Logger - RG3	HOBO Temperature/RH Smart Sensor (S-THB-M002)	Soil Moisture Smart Sensor - EC5 (S-SMC-M005)	2019-07-30T14:00:01	0.00	16.368	84.200	0.6162	13.7
1924	AB07CD0350	WETLAND SAL01	SALINE (FEN)	56.573903999999998859493643976747989654541015625	-111.277773999999993748133420012891292572021484375	HOBO Rain Gauge Data Logger - RG3	HOBO Temperature/RH Smart Sensor (S-THB-M002)	Soil Moisture Smart Sensor - EC5 (S-SMC-M005)	2019-07-30T15:00:01	0.20	16.153	82.400	0.6162	13.2
1925	AB07CD0350	WETLAND SAL01	SALINE (FEN)	56.573903999999998859493643976747989654541015625	-111.277773999999993748133420012891292572021484375	HOBO Rain Gauge Data Logger - RG3	HOBO Temperature/RH Smart Sensor (S-THB-M002)	Soil Moisture Smart Sensor - EC5 (S-SMC-M005)	2019-07-30T16:00:01	0.20	16.582	83.200	0.6162	13.7
1926	AB07CD0350	WETLAND SAL01	SALINE (FEN)	56.573903999999998859493643976747989654541015625	-111.277773999999993748133420012891292572021484375	HOBO Rain Gauge Data Logger - RG3	HOBO Temperature/RH Smart Sensor (S-THB-M002)	Soil Moisture Smart Sensor - EC5 (S-SMC-M005)	2019-07-30T17:00:01	0.00	17.130	81.200	0.6162	13.9
1927	AB07CD0350	WETLAND SAL01	SALINE (FEN)	56.573903999999998859493643976747989654541015625	-111.277773999999993748133420012891292572021484375	HOBO Rain Gauge Data Logger - RG3	HOBO Temperature/RH Smart Sensor (S-THB-M002)	Soil Moisture Smart Sensor - EC5 (S-SMC-M005)	2019-07-30T18:00:01	0.00	17.962	80.400	0.6162	14.6
1928	AB07CD0350	WETLAND SAL01	SALINE (FEN)	56.573903999999998859493643976747989654541015625	-111.277773999999993748133420012891292572021484375	HOBO Rain Gauge Data Logger - RG3	HOBO Temperature/RH Smart Sensor (S-THB-M002)	Soil Moisture Smart Sensor - EC5 (S-SMC-M005)	2019-07-30T19:00:01	0.00	18.580	75.600	0.6155	14.2
1929	AB07CD0350	WETLAND SAL01	SALINE (FEN)	56.573903999999998859493643976747989654541015625	-111.277773999999993748133420012891292572021484375	HOBO Rain Gauge Data Logger - RG3	HOBO Temperature/RH Smart Sensor (S-THB-M002)	Soil Moisture Smart Sensor - EC5 (S-SMC-M005)	2019-07-30T20:00:01	0.00	18.913	65.500	0.6162	12.3
1930	AB07CD0350	WETLAND SAL01	SALINE (FEN)	56.573903999999998859493643976747989654541015625	-111.277773999999993748133420012891292572021484375	HOBO Rain Gauge Data Logger - RG3	HOBO Temperature/RH Smart Sensor (S-THB-M002)	Soil Moisture Smart Sensor - EC5 (S-SMC-M005)	2019-07-30T21:00:01	0.00	16.915	71.400	0.6162	11.7
1931	AB07CD0350	WETLAND SAL01	SALINE (FEN)	56.573903999999998859493643976747989654541015625	-111.277773999999993748133420012891292572021484375	HOBO Rain Gauge Data Logger - RG3	HOBO Temperature/RH Smart Sensor (S-THB-M002)	Soil Moisture Smart Sensor - EC5 (S-SMC-M005)	2019-07-30T22:00:01	0.00	11.540	83.500	0.6162	8.9
1932	AB07CD0350	WETLAND SAL01	SALINE (FEN)	56.573903999999998859493643976747989654541015625	-111.277773999999993748133420012891292572021484375	HOBO Rain Gauge Data Logger - RG3	HOBO Temperature/RH Smart Sensor (S-THB-M002)	Soil Moisture Smart Sensor - EC5 (S-SMC-M005)	2019-07-30T23:00:01	0.00	9.583	91.800	0.6162	8.3
1933	AB07CD0350	WETLAND SAL01	SALINE (FEN)	56.573903999999998859493643976747989654541015625	-111.277773999999993748133420012891292572021484375	HOBO Rain Gauge Data Logger - RG3	HOBO Temperature/RH Smart Sensor (S-THB-M002)	Soil Moisture Smart Sensor - EC5 (S-SMC-M005)	2019-07-31T00:00:01	0.00	8.344	94.000	0.6162	7.4
1934	AB07CD0350	WETLAND SAL01	SALINE (FEN)	56.573903999999998859493643976747989654541015625	-111.277773999999993748133420012891292572021484375	HOBO Rain Gauge Data Logger - RG3	HOBO Temperature/RH Smart Sensor (S-THB-M002)	Soil Moisture Smart Sensor - EC5 (S-SMC-M005)	2019-07-31T01:00:01	0.00	6.712	95.400	0.6162	6.0
1935	AB07CD0350	WETLAND SAL01	SALINE (FEN)	56.573903999999998859493643976747989654541015625	-111.277773999999993748133420012891292572021484375	HOBO Rain Gauge Data Logger - RG3	HOBO Temperature/RH Smart Sensor (S-THB-M002)	Soil Moisture Smart Sensor - EC5 (S-SMC-M005)	2019-07-31T02:00:01	0.00	6.026	96.100	0.6162	5.5
1936	AB07CD0350	WETLAND SAL01	SALINE (FEN)	56.573903999999998859493643976747989654541015625	-111.277773999999993748133420012891292572021484375	HOBO Rain Gauge Data Logger - RG3	HOBO Temperature/RH Smart Sensor (S-THB-M002)	Soil Moisture Smart Sensor - EC5 (S-SMC-M005)	2019-07-31T03:00:01	0.00	7.569	96.700	0.6162	7.1
1937	AB07CD0350	WETLAND SAL01	SALINE (FEN)	56.573903999999998859493643976747989654541015625	-111.277773999999993748133420012891292572021484375	HOBO Rain Gauge Data Logger - RG3	HOBO Temperature/RH Smart Sensor (S-THB-M002)	Soil Moisture Smart Sensor - EC5 (S-SMC-M005)	2019-07-31T04:00:01	0.00	7.594	97.300	0.6162	7.2
1938	AB07CD0350	WETLAND SAL01	SALINE (FEN)	56.573903999999998859493643976747989654541015625	-111.277773999999993748133420012891292572021484375	HOBO Rain Gauge Data Logger - RG3	HOBO Temperature/RH Smart Sensor (S-THB-M002)	Soil Moisture Smart Sensor - EC5 (S-SMC-M005)	2019-07-31T05:00:01	0.00	8.070	97.900	0.6162	7.8
1939	AB07CD0350	WETLAND SAL01	SALINE (FEN)	56.573903999999998859493643976747989654541015625	-111.277773999999993748133420012891292572021484375	HOBO Rain Gauge Data Logger - RG3	HOBO Temperature/RH Smart Sensor (S-THB-M002)	Soil Moisture Smart Sensor - EC5 (S-SMC-M005)	2019-07-31T06:00:01	0.00	8.270	98.300	0.6162	8.0
1940	AB07CD0350	WETLAND SAL01	SALINE (FEN)	56.573903999999998859493643976747989654541015625	-111.277773999999993748133420012891292572021484375	HOBO Rain Gauge Data Logger - RG3	HOBO Temperature/RH Smart Sensor (S-THB-M002)	Soil Moisture Smart Sensor - EC5 (S-SMC-M005)	2019-07-31T07:00:01	0.00	10.394	98.100	0.6162	10.1
1941	AB07CD0350	WETLAND SAL01	SALINE (FEN)	56.573903999999998859493643976747989654541015625	-111.277773999999993748133420012891292572021484375	HOBO Rain Gauge Data Logger - RG3	HOBO Temperature/RH Smart Sensor (S-THB-M002)	Soil Moisture Smart Sensor - EC5 (S-SMC-M005)	2019-07-31T08:00:01	0.00	12.847	94.700	0.6155	12.0
1942	AB07CD0350	WETLAND SAL01	SALINE (FEN)	56.573903999999998859493643976747989654541015625	-111.277773999999993748133420012891292572021484375	HOBO Rain Gauge Data Logger - RG3	HOBO Temperature/RH Smart Sensor (S-THB-M002)	Soil Moisture Smart Sensor - EC5 (S-SMC-M005)	2019-07-31T09:00:01	0.00	15.055	87.000	0.6155	12.9
1943	AB07CD0350	WETLAND SAL01	SALINE (FEN)	56.573903999999998859493643976747989654541015625	-111.277773999999993748133420012891292572021484375	HOBO Rain Gauge Data Logger - RG3	HOBO Temperature/RH Smart Sensor (S-THB-M002)	Soil Moisture Smart Sensor - EC5 (S-SMC-M005)	2019-07-31T10:00:01	0.00	18.105	77.600	0.6155	14.1
1944	AB07CD0350	WETLAND SAL01	SALINE (FEN)	56.573903999999998859493643976747989654541015625	-111.277773999999993748133420012891292572021484375	HOBO Rain Gauge Data Logger - RG3	HOBO Temperature/RH Smart Sensor (S-THB-M002)	Soil Moisture Smart Sensor - EC5 (S-SMC-M005)	2019-07-31T11:00:01	0.00	19.627	68.100	0.6155	13.6
1945	AB07CD0350	WETLAND SAL01	SALINE (FEN)	56.573903999999998859493643976747989654541015625	-111.277773999999993748133420012891292572021484375	HOBO Rain Gauge Data Logger - RG3	HOBO Temperature/RH Smart Sensor (S-THB-M002)	Soil Moisture Smart Sensor - EC5 (S-SMC-M005)	2019-07-31T12:00:01	0.00	20.770	60.000	0.6155	12.7
1946	AB07CD0350	WETLAND SAL01	SALINE (FEN)	56.573903999999998859493643976747989654541015625	-111.277773999999993748133420012891292572021484375	HOBO Rain Gauge Data Logger - RG3	HOBO Temperature/RH Smart Sensor (S-THB-M002)	Soil Moisture Smart Sensor - EC5 (S-SMC-M005)	2019-07-31T13:00:01	0.00	21.151	49.500	0.6155	10.2
1947	AB07CD0350	WETLAND SAL01	SALINE (FEN)	56.573903999999998859493643976747989654541015625	-111.277773999999993748133420012891292572021484375	HOBO Rain Gauge Data Logger - RG3	HOBO Temperature/RH Smart Sensor (S-THB-M002)	Soil Moisture Smart Sensor - EC5 (S-SMC-M005)	2019-07-31T14:00:01	0.00	23.064	45.900	0.6155	10.8
1948	AB07CD0350	WETLAND SAL01	SALINE (FEN)	56.573903999999998859493643976747989654541015625	-111.277773999999993748133420012891292572021484375	HOBO Rain Gauge Data Logger - RG3	HOBO Temperature/RH Smart Sensor (S-THB-M002)	Soil Moisture Smart Sensor - EC5 (S-SMC-M005)	2019-07-31T15:00:01	0.00	23.424	42.600	0.6155	10.0
1949	AB07CD0350	WETLAND SAL01	SALINE (FEN)	56.573903999999998859493643976747989654541015625	-111.277773999999993748133420012891292572021484375	HOBO Rain Gauge Data Logger - RG3	HOBO Temperature/RH Smart Sensor (S-THB-M002)	Soil Moisture Smart Sensor - EC5 (S-SMC-M005)	2019-07-31T16:00:01	0.00	22.274	41.200	0.6155	8.5
1950	AB07CD0350	WETLAND SAL01	SALINE (FEN)	56.573903999999998859493643976747989654541015625	-111.277773999999993748133420012891292572021484375	HOBO Rain Gauge Data Logger - RG3	HOBO Temperature/RH Smart Sensor (S-THB-M002)	Soil Moisture Smart Sensor - EC5 (S-SMC-M005)	2019-07-31T17:00:01	0.00	22.753	40.900	0.6155	8.8
1951	AB07CD0350	WETLAND SAL01	SALINE (FEN)	56.573903999999998859493643976747989654541015625	-111.277773999999993748133420012891292572021484375	HOBO Rain Gauge Data Logger - RG3	HOBO Temperature/RH Smart Sensor (S-THB-M002)	Soil Moisture Smart Sensor - EC5 (S-SMC-M005)	2019-07-31T18:00:01	0.00	22.633	42.000	0.6155	9.1
1952	AB07CD0350	WETLAND SAL01	SALINE (FEN)	56.573903999999998859493643976747989654541015625	-111.277773999999993748133420012891292572021484375	HOBO Rain Gauge Data Logger - RG3	HOBO Temperature/RH Smart Sensor (S-THB-M002)	Soil Moisture Smart Sensor - EC5 (S-SMC-M005)	2019-07-31T19:00:01	0.00	22.657	41.700	0.6155	9.0
1953	AB07CD0350	WETLAND SAL01	SALINE (FEN)	56.573903999999998859493643976747989654541015625	-111.277773999999993748133420012891292572021484375	HOBO Rain Gauge Data Logger - RG3	HOBO Temperature/RH Smart Sensor (S-THB-M002)	Soil Moisture Smart Sensor - EC5 (S-SMC-M005)	2019-07-31T20:00:01	0.00	20.079	49.000	0.6155	9.1
1954	AB07CD0350	WETLAND SAL01	SALINE (FEN)	56.573903999999998859493643976747989654541015625	-111.277773999999993748133420012891292572021484375	HOBO Rain Gauge Data Logger - RG3	HOBO Temperature/RH Smart Sensor (S-THB-M002)	Soil Moisture Smart Sensor - EC5 (S-SMC-M005)	2019-07-31T21:00:01	0.00	18.390	61.100	0.6155	10.8
1955	AB07CD0350	WETLAND SAL01	SALINE (FEN)	56.573903999999998859493643976747989654541015625	-111.277773999999993748133420012891292572021484375	HOBO Rain Gauge Data Logger - RG3	HOBO Temperature/RH Smart Sensor (S-THB-M002)	Soil Moisture Smart Sensor - EC5 (S-SMC-M005)	2019-07-31T22:00:01	0.00	13.834	76.400	0.6155	9.8
1956	AB07CD0350	WETLAND SAL01	SALINE (FEN)	56.573903999999998859493643976747989654541015625	-111.277773999999993748133420012891292572021484375	HOBO Rain Gauge Data Logger - RG3	HOBO Temperature/RH Smart Sensor (S-THB-M002)	Soil Moisture Smart Sensor - EC5 (S-SMC-M005)	2019-07-31T23:00:01	0.00	14.529	82.500	0.6155	11.6
1957	AB07CD0350	WETLAND SAL01	SALINE (FEN)	56.573903999999998859493643976747989654541015625	-111.277773999999993748133420012891292572021484375	HOBO Rain Gauge Data Logger - RG3	HOBO Temperature/RH Smart Sensor (S-THB-M002)	Soil Moisture Smart Sensor - EC5 (S-SMC-M005)	2019-08-01T00:00:01	0.00	13.329	85.900	0.6155	11.0
1958	AB07CD0350	WETLAND SAL01	SALINE (FEN)	56.573903999999998859493643976747989654541015625	-111.277773999999993748133420012891292572021484375	HOBO Rain Gauge Data Logger - RG3	HOBO Temperature/RH Smart Sensor (S-THB-M002)	Soil Moisture Smart Sensor - EC5 (S-SMC-M005)	2019-08-01T01:00:01	0.00	12.582	87.900	0.6162	10.6
1959	AB07CD0350	WETLAND SAL01	SALINE (FEN)	56.573903999999998859493643976747989654541015625	-111.277773999999993748133420012891292572021484375	HOBO Rain Gauge Data Logger - RG3	HOBO Temperature/RH Smart Sensor (S-THB-M002)	Soil Moisture Smart Sensor - EC5 (S-SMC-M005)	2019-08-01T02:00:01	0.00	13.930	85.700	0.6162	11.6
1960	AB07CD0350	WETLAND SAL01	SALINE (FEN)	56.573903999999998859493643976747989654541015625	-111.277773999999993748133420012891292572021484375	HOBO Rain Gauge Data Logger - RG3	HOBO Temperature/RH Smart Sensor (S-THB-M002)	Soil Moisture Smart Sensor - EC5 (S-SMC-M005)	2019-08-01T03:00:01	0.00	14.792	84.400	0.6162	12.2
1961	AB07CD0350	WETLAND SAL01	SALINE (FEN)	56.573903999999998859493643976747989654541015625	-111.277773999999993748133420012891292572021484375	HOBO Rain Gauge Data Logger - RG3	HOBO Temperature/RH Smart Sensor (S-THB-M002)	Soil Moisture Smart Sensor - EC5 (S-SMC-M005)	2019-08-01T04:00:01	0.00	14.529	77.700	0.6162	10.7
1962	AB07CD0350	WETLAND SAL01	SALINE (FEN)	56.573903999999998859493643976747989654541015625	-111.277773999999993748133420012891292572021484375	HOBO Rain Gauge Data Logger - RG3	HOBO Temperature/RH Smart Sensor (S-THB-M002)	Soil Moisture Smart Sensor - EC5 (S-SMC-M005)	2019-08-01T05:00:01	0.00	14.170	79.900	0.6162	10.8
1963	AB07CD0350	WETLAND SAL01	SALINE (FEN)	56.573903999999998859493643976747989654541015625	-111.277773999999993748133420012891292572021484375	HOBO Rain Gauge Data Logger - RG3	HOBO Temperature/RH Smart Sensor (S-THB-M002)	Soil Moisture Smart Sensor - EC5 (S-SMC-M005)	2019-08-01T06:00:01	0.00	13.882	83.600	0.6162	11.2
1964	AB07CD0350	WETLAND SAL01	SALINE (FEN)	56.573903999999998859493643976747989654541015625	-111.277773999999993748133420012891292572021484375	HOBO Rain Gauge Data Logger - RG3	HOBO Temperature/RH Smart Sensor (S-THB-M002)	Soil Moisture Smart Sensor - EC5 (S-SMC-M005)	2019-08-01T07:00:01	0.00	13.762	84.800	0.6162	11.3
1965	AB07CD0350	WETLAND SAL01	SALINE (FEN)	56.573903999999998859493643976747989654541015625	-111.277773999999993748133420012891292572021484375	HOBO Rain Gauge Data Logger - RG3	HOBO Temperature/RH Smart Sensor (S-THB-M002)	Soil Moisture Smart Sensor - EC5 (S-SMC-M005)	2019-08-01T08:00:01	0.00	15.438	85.500	0.6162	13.0
1966	AB07CD0350	WETLAND SAL01	SALINE (FEN)	56.573903999999998859493643976747989654541015625	-111.277773999999993748133420012891292572021484375	HOBO Rain Gauge Data Logger - RG3	HOBO Temperature/RH Smart Sensor (S-THB-M002)	Soil Moisture Smart Sensor - EC5 (S-SMC-M005)	2019-08-01T09:00:01	0.00	16.868	82.700	0.6162	13.9
1967	AB07CD0350	WETLAND SAL01	SALINE (FEN)	56.573903999999998859493643976747989654541015625	-111.277773999999993748133420012891292572021484375	HOBO Rain Gauge Data Logger - RG3	HOBO Temperature/RH Smart Sensor (S-THB-M002)	Soil Moisture Smart Sensor - EC5 (S-SMC-M005)	2019-08-01T10:00:01	0.00	17.605	79.400	0.6162	14.0
1968	AB07CD0350	WETLAND SAL01	SALINE (FEN)	56.573903999999998859493643976747989654541015625	-111.277773999999993748133420012891292572021484375	HOBO Rain Gauge Data Logger - RG3	HOBO Temperature/RH Smart Sensor (S-THB-M002)	Soil Moisture Smart Sensor - EC5 (S-SMC-M005)	2019-08-01T11:00:01	0.00	18.889	76.700	0.6162	14.7
1969	AB07CD0350	WETLAND SAL01	SALINE (FEN)	56.573903999999998859493643976747989654541015625	-111.277773999999993748133420012891292572021484375	HOBO Rain Gauge Data Logger - RG3	HOBO Temperature/RH Smart Sensor (S-THB-M002)	Soil Moisture Smart Sensor - EC5 (S-SMC-M005)	2019-08-01T12:00:01	0.00	21.199	71.900	0.6162	15.9
1970	AB07CD0350	WETLAND SAL01	SALINE (FEN)	56.573903999999998859493643976747989654541015625	-111.277773999999993748133420012891292572021484375	HOBO Rain Gauge Data Logger - RG3	HOBO Temperature/RH Smart Sensor (S-THB-M002)	Soil Moisture Smart Sensor - EC5 (S-SMC-M005)	2019-08-01T13:00:01	0.00	22.393	67.100	0.6162	16.0
1971	AB07CD0350	WETLAND SAL01	SALINE (FEN)	56.573903999999998859493643976747989654541015625	-111.277773999999993748133420012891292572021484375	HOBO Rain Gauge Data Logger - RG3	HOBO Temperature/RH Smart Sensor (S-THB-M002)	Soil Moisture Smart Sensor - EC5 (S-SMC-M005)	2019-08-01T14:00:01	0.00	22.393	60.500	0.6162	14.4
1972	AB07CD0350	WETLAND SAL01	SALINE (FEN)	56.573903999999998859493643976747989654541015625	-111.277773999999993748133420012891292572021484375	HOBO Rain Gauge Data Logger - RG3	HOBO Temperature/RH Smart Sensor (S-THB-M002)	Soil Moisture Smart Sensor - EC5 (S-SMC-M005)	2019-08-01T15:00:01	0.00	23.424	57.100	0.6162	14.5
1973	AB07CD0350	WETLAND SAL01	SALINE (FEN)	56.573903999999998859493643976747989654541015625	-111.277773999999993748133420012891292572021484375	HOBO Rain Gauge Data Logger - RG3	HOBO Temperature/RH Smart Sensor (S-THB-M002)	Soil Moisture Smart Sensor - EC5 (S-SMC-M005)	2019-08-01T16:00:01	0.00	23.954	55.500	0.6162	14.5
1974	AB07CD0350	WETLAND SAL01	SALINE (FEN)	56.573903999999998859493643976747989654541015625	-111.277773999999993748133420012891292572021484375	HOBO Rain Gauge Data Logger - RG3	HOBO Temperature/RH Smart Sensor (S-THB-M002)	Soil Moisture Smart Sensor - EC5 (S-SMC-M005)	2019-08-01T17:00:01	0.00	25.283	54.100	0.6162	15.4
1975	AB07CD0350	WETLAND SAL01	SALINE (FEN)	56.573903999999998859493643976747989654541015625	-111.277773999999993748133420012891292572021484375	HOBO Rain Gauge Data Logger - RG3	HOBO Temperature/RH Smart Sensor (S-THB-M002)	Soil Moisture Smart Sensor - EC5 (S-SMC-M005)	2019-08-01T18:00:01	0.00	25.355	52.300	0.6162	14.9
1976	AB07CD0350	WETLAND SAL01	SALINE (FEN)	56.573903999999998859493643976747989654541015625	-111.277773999999993748133420012891292572021484375	HOBO Rain Gauge Data Logger - RG3	HOBO Temperature/RH Smart Sensor (S-THB-M002)	Soil Moisture Smart Sensor - EC5 (S-SMC-M005)	2019-08-01T19:00:01	0.00	24.847	53.200	0.6169	14.7
1977	AB07CD0350	WETLAND SAL01	SALINE (FEN)	56.573903999999998859493643976747989654541015625	-111.277773999999993748133420012891292572021484375	HOBO Rain Gauge Data Logger - RG3	HOBO Temperature/RH Smart Sensor (S-THB-M002)	Soil Moisture Smart Sensor - EC5 (S-SMC-M005)	2019-08-01T20:00:01	0.00	23.304	55.500	0.6162	13.9
1978	AB07CD0350	WETLAND SAL01	SALINE (FEN)	56.573903999999998859493643976747989654541015625	-111.277773999999993748133420012891292572021484375	HOBO Rain Gauge Data Logger - RG3	HOBO Temperature/RH Smart Sensor (S-THB-M002)	Soil Moisture Smart Sensor - EC5 (S-SMC-M005)	2019-08-01T21:00:01	0.00	20.722	62.500	0.6162	13.3
1979	AB07CD0350	WETLAND SAL01	SALINE (FEN)	56.573903999999998859493643976747989654541015625	-111.277773999999993748133420012891292572021484375	HOBO Rain Gauge Data Logger - RG3	HOBO Temperature/RH Smart Sensor (S-THB-M002)	Soil Moisture Smart Sensor - EC5 (S-SMC-M005)	2019-08-01T22:00:01	0.00	15.772	77.800	0.6162	11.9
1980	AB07CD0350	WETLAND SAL01	SALINE (FEN)	56.573903999999998859493643976747989654541015625	-111.277773999999993748133420012891292572021484375	HOBO Rain Gauge Data Logger - RG3	HOBO Temperature/RH Smart Sensor (S-THB-M002)	Soil Moisture Smart Sensor - EC5 (S-SMC-M005)	2019-08-01T23:00:01	0.00	14.481	86.500	0.6169	12.3
1981	AB07CD0350	WETLAND SAL01	SALINE (FEN)	56.573903999999998859493643976747989654541015625	-111.277773999999993748133420012891292572021484375	HOBO Rain Gauge Data Logger - RG3	HOBO Temperature/RH Smart Sensor (S-THB-M002)	Soil Moisture Smart Sensor - EC5 (S-SMC-M005)	2019-08-02T00:00:01	0.00	13.185	89.500	0.6169	11.5
1982	AB07CD0350	WETLAND SAL01	SALINE (FEN)	56.573903999999998859493643976747989654541015625	-111.277773999999993748133420012891292572021484375	HOBO Rain Gauge Data Logger - RG3	HOBO Temperature/RH Smart Sensor (S-THB-M002)	Soil Moisture Smart Sensor - EC5 (S-SMC-M005)	2019-08-02T01:00:01	0.00	13.016	91.300	0.6169	11.6
1983	AB07CD0350	WETLAND SAL01	SALINE (FEN)	56.573903999999998859493643976747989654541015625	-111.277773999999993748133420012891292572021484375	HOBO Rain Gauge Data Logger - RG3	HOBO Temperature/RH Smart Sensor (S-THB-M002)	Soil Moisture Smart Sensor - EC5 (S-SMC-M005)	2019-08-02T02:00:01	0.00	11.078	91.900	0.6169	9.8
1984	AB07CD0350	WETLAND SAL01	SALINE (FEN)	56.573903999999998859493643976747989654541015625	-111.277773999999993748133420012891292572021484375	HOBO Rain Gauge Data Logger - RG3	HOBO Temperature/RH Smart Sensor (S-THB-M002)	Soil Moisture Smart Sensor - EC5 (S-SMC-M005)	2019-08-02T03:00:01	0.00	14.385	93.500	0.6169	13.4
1985	AB07CD0350	WETLAND SAL01	SALINE (FEN)	56.573903999999998859493643976747989654541015625	-111.277773999999993748133420012891292572021484375	HOBO Rain Gauge Data Logger - RG3	HOBO Temperature/RH Smart Sensor (S-THB-M002)	Soil Moisture Smart Sensor - EC5 (S-SMC-M005)	2019-08-02T04:00:01	0.00	12.340	93.100	0.6177	11.3
1986	AB07CD0350	WETLAND SAL01	SALINE (FEN)	56.573903999999998859493643976747989654541015625	-111.277773999999993748133420012891292572021484375	HOBO Rain Gauge Data Logger - RG3	HOBO Temperature/RH Smart Sensor (S-THB-M002)	Soil Moisture Smart Sensor - EC5 (S-SMC-M005)	2019-08-02T05:00:01	0.00	12.823	95.100	0.6177	12.1
1987	AB07CD0350	WETLAND SAL01	SALINE (FEN)	56.573903999999998859493643976747989654541015625	-111.277773999999993748133420012891292572021484375	HOBO Rain Gauge Data Logger - RG3	HOBO Temperature/RH Smart Sensor (S-THB-M002)	Soil Moisture Smart Sensor - EC5 (S-SMC-M005)	2019-08-02T06:00:01	0.00	12.485	95.100	0.6177	11.7
1988	AB07CD0350	WETLAND SAL01	SALINE (FEN)	56.573903999999998859493643976747989654541015625	-111.277773999999993748133420012891292572021484375	HOBO Rain Gauge Data Logger - RG3	HOBO Temperature/RH Smart Sensor (S-THB-M002)	Soil Moisture Smart Sensor - EC5 (S-SMC-M005)	2019-08-02T07:00:01	0.00	13.738	95.900	0.6177	13.1
1989	AB07CD0350	WETLAND SAL01	SALINE (FEN)	56.573903999999998859493643976747989654541015625	-111.277773999999993748133420012891292572021484375	HOBO Rain Gauge Data Logger - RG3	HOBO Temperature/RH Smart Sensor (S-THB-M002)	Soil Moisture Smart Sensor - EC5 (S-SMC-M005)	2019-08-02T08:00:01	1.80	15.103	96.000	0.6177	14.5
1990	AB07CD0350	WETLAND SAL01	SALINE (FEN)	56.573903999999998859493643976747989654541015625	-111.277773999999993748133420012891292572021484375	HOBO Rain Gauge Data Logger - RG3	HOBO Temperature/RH Smart Sensor (S-THB-M002)	Soil Moisture Smart Sensor - EC5 (S-SMC-M005)	2019-08-02T09:00:01	0.40	16.701	96.100	0.6177	16.1
1991	AB07CD0350	WETLAND SAL01	SALINE (FEN)	56.573903999999998859493643976747989654541015625	-111.277773999999993748133420012891292572021484375	HOBO Rain Gauge Data Logger - RG3	HOBO Temperature/RH Smart Sensor (S-THB-M002)	Soil Moisture Smart Sensor - EC5 (S-SMC-M005)	2019-08-02T10:00:01	0.00	20.198	91.400	0.6177	18.8
1992	AB07CD0350	WETLAND SAL01	SALINE (FEN)	56.573903999999998859493643976747989654541015625	-111.277773999999993748133420012891292572021484375	HOBO Rain Gauge Data Logger - RG3	HOBO Temperature/RH Smart Sensor (S-THB-M002)	Soil Moisture Smart Sensor - EC5 (S-SMC-M005)	2019-08-02T11:00:01	0.00	22.465	83.500	0.6169	19.6
1993	AB07CD0350	WETLAND SAL01	SALINE (FEN)	56.573903999999998859493643976747989654541015625	-111.277773999999993748133420012891292572021484375	HOBO Rain Gauge Data Logger - RG3	HOBO Temperature/RH Smart Sensor (S-THB-M002)	Soil Moisture Smart Sensor - EC5 (S-SMC-M005)	2019-08-02T12:00:01	0.00	23.280	74.500	0.6177	18.5
1994	AB07CD0350	WETLAND SAL01	SALINE (FEN)	56.573903999999998859493643976747989654541015625	-111.277773999999993748133420012891292572021484375	HOBO Rain Gauge Data Logger - RG3	HOBO Temperature/RH Smart Sensor (S-THB-M002)	Soil Moisture Smart Sensor - EC5 (S-SMC-M005)	2019-08-02T13:00:01	0.00	24.774	67.800	0.6177	18.4
1995	AB07CD0350	WETLAND SAL01	SALINE (FEN)	56.573903999999998859493643976747989654541015625	-111.277773999999993748133420012891292572021484375	HOBO Rain Gauge Data Logger - RG3	HOBO Temperature/RH Smart Sensor (S-THB-M002)	Soil Moisture Smart Sensor - EC5 (S-SMC-M005)	2019-08-02T14:00:01	0.00	25.647	60.800	0.6177	17.5
1996	AB07CD0350	WETLAND SAL01	SALINE (FEN)	56.573903999999998859493643976747989654541015625	-111.277773999999993748133420012891292572021484375	HOBO Rain Gauge Data Logger - RG3	HOBO Temperature/RH Smart Sensor (S-THB-M002)	Soil Moisture Smart Sensor - EC5 (S-SMC-M005)	2019-08-02T15:00:01	0.00	26.378	57.500	0.6177	17.3
1997	AB07CD0350	WETLAND SAL01	SALINE (FEN)	56.573903999999998859493643976747989654541015625	-111.277773999999993748133420012891292572021484375	HOBO Rain Gauge Data Logger - RG3	HOBO Temperature/RH Smart Sensor (S-THB-M002)	Soil Moisture Smart Sensor - EC5 (S-SMC-M005)	2019-08-02T16:00:01	0.00	27.358	56.300	0.6177	17.9
1998	AB07CD0350	WETLAND SAL01	SALINE (FEN)	56.573903999999998859493643976747989654541015625	-111.277773999999993748133420012891292572021484375	HOBO Rain Gauge Data Logger - RG3	HOBO Temperature/RH Smart Sensor (S-THB-M002)	Soil Moisture Smart Sensor - EC5 (S-SMC-M005)	2019-08-02T17:00:01	0.00	27.407	53.900	0.6177	17.3
1999	AB07CD0350	WETLAND SAL01	SALINE (FEN)	56.573903999999998859493643976747989654541015625	-111.277773999999993748133420012891292572021484375	HOBO Rain Gauge Data Logger - RG3	HOBO Temperature/RH Smart Sensor (S-THB-M002)	Soil Moisture Smart Sensor - EC5 (S-SMC-M005)	2019-08-02T18:00:01	0.00	26.524	54.600	0.6177	16.7
2000	AB07CD0350	WETLAND SAL01	SALINE (FEN)	56.573903999999998859493643976747989654541015625	-111.277773999999993748133420012891292572021484375	HOBO Rain Gauge Data Logger - RG3	HOBO Temperature/RH Smart Sensor (S-THB-M002)	Soil Moisture Smart Sensor - EC5 (S-SMC-M005)	2019-08-02T19:00:01	0.00	22.202	56.800	0.6177	13.2
2001	AB07CD0350	WETLAND SAL01	SALINE (FEN)	56.573903999999998859493643976747989654541015625	-111.277773999999993748133420012891292572021484375	HOBO Rain Gauge Data Logger - RG3	HOBO Temperature/RH Smart Sensor (S-THB-M002)	Soil Moisture Smart Sensor - EC5 (S-SMC-M005)	2019-08-02T20:00:01	2.00	18.271	78.300	0.6177	14.4
2002	AB07CD0350	WETLAND SAL01	SALINE (FEN)	56.573903999999998859493643976747989654541015625	-111.277773999999993748133420012891292572021484375	HOBO Rain Gauge Data Logger - RG3	HOBO Temperature/RH Smart Sensor (S-THB-M002)	Soil Moisture Smart Sensor - EC5 (S-SMC-M005)	2019-08-02T21:00:01	4.80	17.320	91.000	0.6177	15.9
2003	AB07CD0350	WETLAND SAL01	SALINE (FEN)	56.573903999999998859493643976747989654541015625	-111.277773999999993748133420012891292572021484375	HOBO Rain Gauge Data Logger - RG3	HOBO Temperature/RH Smart Sensor (S-THB-M002)	Soil Moisture Smart Sensor - EC5 (S-SMC-M005)	2019-08-02T22:00:01	0.40	17.011	93.400	0.6184	16.0
2004	AB07CD0350	WETLAND SAL01	SALINE (FEN)	56.573903999999998859493643976747989654541015625	-111.277773999999993748133420012891292572021484375	HOBO Rain Gauge Data Logger - RG3	HOBO Temperature/RH Smart Sensor (S-THB-M002)	Soil Moisture Smart Sensor - EC5 (S-SMC-M005)	2019-08-02T23:00:01	2.40	16.296	95.000	0.6184	15.5
2005	AB07CD0350	WETLAND SAL01	SALINE (FEN)	56.573903999999998859493643976747989654541015625	-111.277773999999993748133420012891292572021484375	HOBO Rain Gauge Data Logger - RG3	HOBO Temperature/RH Smart Sensor (S-THB-M002)	Soil Moisture Smart Sensor - EC5 (S-SMC-M005)	2019-08-03T00:00:01	0.00	15.796	94.100	0.6184	14.9
2006	AB07CD0350	WETLAND SAL01	SALINE (FEN)	56.573903999999998859493643976747989654541015625	-111.277773999999993748133420012891292572021484375	HOBO Rain Gauge Data Logger - RG3	HOBO Temperature/RH Smart Sensor (S-THB-M002)	Soil Moisture Smart Sensor - EC5 (S-SMC-M005)	2019-08-03T01:00:01	0.00	14.673	95.600	0.6191	14.0
2007	AB07CD0350	WETLAND SAL01	SALINE (FEN)	56.573903999999998859493643976747989654541015625	-111.277773999999993748133420012891292572021484375	HOBO Rain Gauge Data Logger - RG3	HOBO Temperature/RH Smart Sensor (S-THB-M002)	Soil Moisture Smart Sensor - EC5 (S-SMC-M005)	2019-08-03T02:00:01	0.20	13.906	97.500	0.6191	13.5
2008	AB07CD0350	WETLAND SAL01	SALINE (FEN)	56.573903999999998859493643976747989654541015625	-111.277773999999993748133420012891292572021484375	HOBO Rain Gauge Data Logger - RG3	HOBO Temperature/RH Smart Sensor (S-THB-M002)	Soil Moisture Smart Sensor - EC5 (S-SMC-M005)	2019-08-03T03:00:01	0.00	13.329	97.800	0.6191	13.0
2009	AB07CD0350	WETLAND SAL01	SALINE (FEN)	56.573903999999998859493643976747989654541015625	-111.277773999999993748133420012891292572021484375	HOBO Rain Gauge Data Logger - RG3	HOBO Temperature/RH Smart Sensor (S-THB-M002)	Soil Moisture Smart Sensor - EC5 (S-SMC-M005)	2019-08-03T04:00:01	0.00	12.340	98.300	0.6191	12.1
2010	AB07CD0350	WETLAND SAL01	SALINE (FEN)	56.573903999999998859493643976747989654541015625	-111.277773999999993748133420012891292572021484375	HOBO Rain Gauge Data Logger - RG3	HOBO Temperature/RH Smart Sensor (S-THB-M002)	Soil Moisture Smart Sensor - EC5 (S-SMC-M005)	2019-08-03T05:00:01	0.00	12.799	99.100	0.6191	12.7
2011	AB07CD0350	WETLAND SAL01	SALINE (FEN)	56.573903999999998859493643976747989654541015625	-111.277773999999993748133420012891292572021484375	HOBO Rain Gauge Data Logger - RG3	HOBO Temperature/RH Smart Sensor (S-THB-M002)	Soil Moisture Smart Sensor - EC5 (S-SMC-M005)	2019-08-03T06:00:01	0.00	13.353	99.400	0.6191	13.3
2012	AB07CD0350	WETLAND SAL01	SALINE (FEN)	56.573903999999998859493643976747989654541015625	-111.277773999999993748133420012891292572021484375	HOBO Rain Gauge Data Logger - RG3	HOBO Temperature/RH Smart Sensor (S-THB-M002)	Soil Moisture Smart Sensor - EC5 (S-SMC-M005)	2019-08-03T07:00:01	0.00	13.594	99.500	0.6191	13.5
2013	AB07CD0350	WETLAND SAL01	SALINE (FEN)	56.573903999999998859493643976747989654541015625	-111.277773999999993748133420012891292572021484375	HOBO Rain Gauge Data Logger - RG3	HOBO Temperature/RH Smart Sensor (S-THB-M002)	Soil Moisture Smart Sensor - EC5 (S-SMC-M005)	2019-08-03T08:00:01	0.00	14.314	99.200	0.6191	14.2
2014	AB07CD0350	WETLAND SAL01	SALINE (FEN)	56.573903999999998859493643976747989654541015625	-111.277773999999993748133420012891292572021484375	HOBO Rain Gauge Data Logger - RG3	HOBO Temperature/RH Smart Sensor (S-THB-M002)	Soil Moisture Smart Sensor - EC5 (S-SMC-M005)	2019-08-03T09:00:01	0.00	16.368	94.500	0.6191	15.5
2015	AB07CD0350	WETLAND SAL01	SALINE (FEN)	56.573903999999998859493643976747989654541015625	-111.277773999999993748133420012891292572021484375	HOBO Rain Gauge Data Logger - RG3	HOBO Temperature/RH Smart Sensor (S-THB-M002)	Soil Moisture Smart Sensor - EC5 (S-SMC-M005)	2019-08-03T10:00:01	0.00	17.391	87.600	0.6191	15.3
2016	AB07CD0350	WETLAND SAL01	SALINE (FEN)	56.573903999999998859493643976747989654541015625	-111.277773999999993748133420012891292572021484375	HOBO Rain Gauge Data Logger - RG3	HOBO Temperature/RH Smart Sensor (S-THB-M002)	Soil Moisture Smart Sensor - EC5 (S-SMC-M005)	2019-08-03T11:00:01	0.00	17.225	86.100	0.6191	14.9
2017	AB07CD0350	WETLAND SAL01	SALINE (FEN)	56.573903999999998859493643976747989654541015625	-111.277773999999993748133420012891292572021484375	HOBO Rain Gauge Data Logger - RG3	HOBO Temperature/RH Smart Sensor (S-THB-M002)	Soil Moisture Smart Sensor - EC5 (S-SMC-M005)	2019-08-03T12:00:01	0.00	17.368	85.400	0.6191	14.9
2018	AB07CD0350	WETLAND SAL01	SALINE (FEN)	56.573903999999998859493643976747989654541015625	-111.277773999999993748133420012891292572021484375	HOBO Rain Gauge Data Logger - RG3	HOBO Temperature/RH Smart Sensor (S-THB-M002)	Soil Moisture Smart Sensor - EC5 (S-SMC-M005)	2019-08-03T13:00:01	0.00	17.653	86.100	0.6191	15.3
2019	AB07CD0350	WETLAND SAL01	SALINE (FEN)	56.573903999999998859493643976747989654541015625	-111.277773999999993748133420012891292572021484375	HOBO Rain Gauge Data Logger - RG3	HOBO Temperature/RH Smart Sensor (S-THB-M002)	Soil Moisture Smart Sensor - EC5 (S-SMC-M005)	2019-08-03T14:00:01	0.00	19.865	80.900	0.6191	16.5
2020	AB07CD0350	WETLAND SAL01	SALINE (FEN)	56.573903999999998859493643976747989654541015625	-111.277773999999993748133420012891292572021484375	HOBO Rain Gauge Data Logger - RG3	HOBO Temperature/RH Smart Sensor (S-THB-M002)	Soil Moisture Smart Sensor - EC5 (S-SMC-M005)	2019-08-03T15:00:01	0.00	20.460	74.600	0.6191	15.8
2021	AB07CD0350	WETLAND SAL01	SALINE (FEN)	56.573903999999998859493643976747989654541015625	-111.277773999999993748133420012891292572021484375	HOBO Rain Gauge Data Logger - RG3	HOBO Temperature/RH Smart Sensor (S-THB-M002)	Soil Moisture Smart Sensor - EC5 (S-SMC-M005)	2019-08-03T16:00:01	0.00	15.796	83.500	0.6191	13.0
2022	AB07CD0350	WETLAND SAL01	SALINE (FEN)	56.573903999999998859493643976747989654541015625	-111.277773999999993748133420012891292572021484375	HOBO Rain Gauge Data Logger - RG3	HOBO Temperature/RH Smart Sensor (S-THB-M002)	Soil Moisture Smart Sensor - EC5 (S-SMC-M005)	2019-08-03T17:00:01	0.00	15.199	87.000	0.6191	13.1
2023	AB07CD0350	WETLAND SAL01	SALINE (FEN)	56.573903999999998859493643976747989654541015625	-111.277773999999993748133420012891292572021484375	HOBO Rain Gauge Data Logger - RG3	HOBO Temperature/RH Smart Sensor (S-THB-M002)	Soil Moisture Smart Sensor - EC5 (S-SMC-M005)	2019-08-03T18:00:01	1.00	16.010	89.200	0.6191	14.3
2024	AB07CD0350	WETLAND SAL01	SALINE (FEN)	56.573903999999998859493643976747989654541015625	-111.277773999999993748133420012891292572021484375	HOBO Rain Gauge Data Logger - RG3	HOBO Temperature/RH Smart Sensor (S-THB-M002)	Soil Moisture Smart Sensor - EC5 (S-SMC-M005)	2019-08-03T19:00:01	0.00	18.366	77.000	0.6191	14.3
2025	AB07CD0350	WETLAND SAL01	SALINE (FEN)	56.573903999999998859493643976747989654541015625	-111.277773999999993748133420012891292572021484375	HOBO Rain Gauge Data Logger - RG3	HOBO Temperature/RH Smart Sensor (S-THB-M002)	Soil Moisture Smart Sensor - EC5 (S-SMC-M005)	2019-08-03T20:00:01	0.00	16.582	74.200	0.6191	12.0
2026	AB07CD0350	WETLAND SAL01	SALINE (FEN)	56.573903999999998859493643976747989654541015625	-111.277773999999993748133420012891292572021484375	HOBO Rain Gauge Data Logger - RG3	HOBO Temperature/RH Smart Sensor (S-THB-M002)	Soil Moisture Smart Sensor - EC5 (S-SMC-M005)	2019-08-03T21:00:01	0.00	14.816	85.000	0.6191	12.3
2027	AB07CD0350	WETLAND SAL01	SALINE (FEN)	56.573903999999998859493643976747989654541015625	-111.277773999999993748133420012891292572021484375	HOBO Rain Gauge Data Logger - RG3	HOBO Temperature/RH Smart Sensor (S-THB-M002)	Soil Moisture Smart Sensor - EC5 (S-SMC-M005)	2019-08-03T22:00:01	0.00	13.882	92.700	0.6191	12.7
2028	AB07CD0350	WETLAND SAL01	SALINE (FEN)	56.573903999999998859493643976747989654541015625	-111.277773999999993748133420012891292572021484375	HOBO Rain Gauge Data Logger - RG3	HOBO Temperature/RH Smart Sensor (S-THB-M002)	Soil Moisture Smart Sensor - EC5 (S-SMC-M005)	2019-08-03T23:00:01	0.00	12.509	93.700	0.6191	11.5
2029	AB07CD0350	WETLAND SAL01	SALINE (FEN)	56.573903999999998859493643976747989654541015625	-111.277773999999993748133420012891292572021484375	HOBO Rain Gauge Data Logger - RG3	HOBO Temperature/RH Smart Sensor (S-THB-M002)	Soil Moisture Smart Sensor - EC5 (S-SMC-M005)	2019-08-04T00:00:01	0.00	11.832	95.400	0.6191	11.1
2030	AB07CD0350	WETLAND SAL01	SALINE (FEN)	56.573903999999998859493643976747989654541015625	-111.277773999999993748133420012891292572021484375	HOBO Rain Gauge Data Logger - RG3	HOBO Temperature/RH Smart Sensor (S-THB-M002)	Soil Moisture Smart Sensor - EC5 (S-SMC-M005)	2019-08-04T01:00:01	0.00	11.807	96.100	0.6191	11.2
2031	AB07CD0350	WETLAND SAL01	SALINE (FEN)	56.573903999999998859493643976747989654541015625	-111.277773999999993748133420012891292572021484375	HOBO Rain Gauge Data Logger - RG3	HOBO Temperature/RH Smart Sensor (S-THB-M002)	Soil Moisture Smart Sensor - EC5 (S-SMC-M005)	2019-08-04T02:00:01	0.00	11.467	96.400	0.6191	10.9
2032	AB07CD0350	WETLAND SAL01	SALINE (FEN)	56.573903999999998859493643976747989654541015625	-111.277773999999993748133420012891292572021484375	HOBO Rain Gauge Data Logger - RG3	HOBO Temperature/RH Smart Sensor (S-THB-M002)	Soil Moisture Smart Sensor - EC5 (S-SMC-M005)	2019-08-04T03:00:01	0.00	11.346	96.700	0.6191	10.9
2033	AB07CD0350	WETLAND SAL01	SALINE (FEN)	56.573903999999998859493643976747989654541015625	-111.277773999999993748133420012891292572021484375	HOBO Rain Gauge Data Logger - RG3	HOBO Temperature/RH Smart Sensor (S-THB-M002)	Soil Moisture Smart Sensor - EC5 (S-SMC-M005)	2019-08-04T04:00:01	0.00	11.953	95.500	0.6191	11.3
2034	AB07CD0350	WETLAND SAL01	SALINE (FEN)	56.573903999999998859493643976747989654541015625	-111.277773999999993748133420012891292572021484375	HOBO Rain Gauge Data Logger - RG3	HOBO Temperature/RH Smart Sensor (S-THB-M002)	Soil Moisture Smart Sensor - EC5 (S-SMC-M005)	2019-08-04T05:00:01	0.00	11.880	94.300	0.6191	11.0
2035	AB07CD0350	WETLAND SAL01	SALINE (FEN)	56.573903999999998859493643976747989654541015625	-111.277773999999993748133420012891292572021484375	HOBO Rain Gauge Data Logger - RG3	HOBO Temperature/RH Smart Sensor (S-THB-M002)	Soil Moisture Smart Sensor - EC5 (S-SMC-M005)	2019-08-04T06:00:01	0.00	11.929	93.900	0.6191	11.0
2036	AB07CD0350	WETLAND SAL01	SALINE (FEN)	56.573903999999998859493643976747989654541015625	-111.277773999999993748133420012891292572021484375	HOBO Rain Gauge Data Logger - RG3	HOBO Temperature/RH Smart Sensor (S-THB-M002)	Soil Moisture Smart Sensor - EC5 (S-SMC-M005)	2019-08-04T07:00:01	0.00	12.268	93.600	0.6191	11.3
2037	AB07CD0350	WETLAND SAL01	SALINE (FEN)	56.573903999999998859493643976747989654541015625	-111.277773999999993748133420012891292572021484375	HOBO Rain Gauge Data Logger - RG3	HOBO Temperature/RH Smart Sensor (S-THB-M002)	Soil Moisture Smart Sensor - EC5 (S-SMC-M005)	2019-08-04T08:00:01	0.00	13.185	92.400	0.6184	12.0
2038	AB07CD0350	WETLAND SAL01	SALINE (FEN)	56.573903999999998859493643976747989654541015625	-111.277773999999993748133420012891292572021484375	HOBO Rain Gauge Data Logger - RG3	HOBO Temperature/RH Smart Sensor (S-THB-M002)	Soil Moisture Smart Sensor - EC5 (S-SMC-M005)	2019-08-04T09:00:01	0.00	12.968	91.500	0.6191	11.6
2039	AB07CD0350	WETLAND SAL01	SALINE (FEN)	56.573903999999998859493643976747989654541015625	-111.277773999999993748133420012891292572021484375	HOBO Rain Gauge Data Logger - RG3	HOBO Temperature/RH Smart Sensor (S-THB-M002)	Soil Moisture Smart Sensor - EC5 (S-SMC-M005)	2019-08-04T10:00:01	0.00	15.366	92.500	0.6184	14.2
2040	AB07CD0350	WETLAND SAL01	SALINE (FEN)	56.573903999999998859493643976747989654541015625	-111.277773999999993748133420012891292572021484375	HOBO Rain Gauge Data Logger - RG3	HOBO Temperature/RH Smart Sensor (S-THB-M002)	Soil Moisture Smart Sensor - EC5 (S-SMC-M005)	2019-08-04T11:00:01	0.00	18.224	82.200	0.6184	15.2
2041	AB07CD0350	WETLAND SAL01	SALINE (FEN)	56.573903999999998859493643976747989654541015625	-111.277773999999993748133420012891292572021484375	HOBO Rain Gauge Data Logger - RG3	HOBO Temperature/RH Smart Sensor (S-THB-M002)	Soil Moisture Smart Sensor - EC5 (S-SMC-M005)	2019-08-04T12:00:01	0.00	20.674	72.700	0.6184	15.6
2042	AB07CD0350	WETLAND SAL01	SALINE (FEN)	56.573903999999998859493643976747989654541015625	-111.277773999999993748133420012891292572021484375	HOBO Rain Gauge Data Logger - RG3	HOBO Temperature/RH Smart Sensor (S-THB-M002)	Soil Moisture Smart Sensor - EC5 (S-SMC-M005)	2019-08-04T13:00:01	0.00	21.032	64.600	0.6184	14.1
2043	AB07CD0350	WETLAND SAL01	SALINE (FEN)	56.573903999999998859493643976747989654541015625	-111.277773999999993748133420012891292572021484375	HOBO Rain Gauge Data Logger - RG3	HOBO Temperature/RH Smart Sensor (S-THB-M002)	Soil Moisture Smart Sensor - EC5 (S-SMC-M005)	2019-08-04T14:00:01	0.00	20.650	64.600	0.6184	13.8
2044	AB07CD0350	WETLAND SAL01	SALINE (FEN)	56.573903999999998859493643976747989654541015625	-111.277773999999993748133420012891292572021484375	HOBO Rain Gauge Data Logger - RG3	HOBO Temperature/RH Smart Sensor (S-THB-M002)	Soil Moisture Smart Sensor - EC5 (S-SMC-M005)	2019-08-04T15:00:01	0.00	20.722	61.900	0.6184	13.2
2045	AB07CD0350	WETLAND SAL01	SALINE (FEN)	56.573903999999998859493643976747989654541015625	-111.277773999999993748133420012891292572021484375	HOBO Rain Gauge Data Logger - RG3	HOBO Temperature/RH Smart Sensor (S-THB-M002)	Soil Moisture Smart Sensor - EC5 (S-SMC-M005)	2019-08-04T16:00:01	0.00	22.609	62.000	0.6184	15.0
2046	AB07CD0350	WETLAND SAL01	SALINE (FEN)	56.573903999999998859493643976747989654541015625	-111.277773999999993748133420012891292572021484375	HOBO Rain Gauge Data Logger - RG3	HOBO Temperature/RH Smart Sensor (S-THB-M002)	Soil Moisture Smart Sensor - EC5 (S-SMC-M005)	2019-08-04T17:00:01	0.00	22.154	56.300	0.6184	13.1
2047	AB07CD0350	WETLAND SAL01	SALINE (FEN)	56.573903999999998859493643976747989654541015625	-111.277773999999993748133420012891292572021484375	HOBO Rain Gauge Data Logger - RG3	HOBO Temperature/RH Smart Sensor (S-THB-M002)	Soil Moisture Smart Sensor - EC5 (S-SMC-M005)	2019-08-04T18:00:01	0.00	21.413	56.300	0.6184	12.4
2048	AB07CD0350	WETLAND SAL01	SALINE (FEN)	56.573903999999998859493643976747989654541015625	-111.277773999999993748133420012891292572021484375	HOBO Rain Gauge Data Logger - RG3	HOBO Temperature/RH Smart Sensor (S-THB-M002)	Soil Moisture Smart Sensor - EC5 (S-SMC-M005)	2019-08-04T19:00:01	0.00	21.628	65.600	0.6184	14.9
2049	AB07CD0350	WETLAND SAL01	SALINE (FEN)	56.573903999999998859493643976747989654541015625	-111.277773999999993748133420012891292572021484375	HOBO Rain Gauge Data Logger - RG3	HOBO Temperature/RH Smart Sensor (S-THB-M002)	Soil Moisture Smart Sensor - EC5 (S-SMC-M005)	2019-08-04T20:00:01	0.00	20.770	61.300	0.6184	13.1
2050	AB07CD0350	WETLAND SAL01	SALINE (FEN)	56.573903999999998859493643976747989654541015625	-111.277773999999993748133420012891292572021484375	HOBO Rain Gauge Data Logger - RG3	HOBO Temperature/RH Smart Sensor (S-THB-M002)	Soil Moisture Smart Sensor - EC5 (S-SMC-M005)	2019-08-04T21:00:01	0.00	18.675	70.300	0.6184	13.2
2051	AB07CD0350	WETLAND SAL01	SALINE (FEN)	56.573903999999998859493643976747989654541015625	-111.277773999999993748133420012891292572021484375	HOBO Rain Gauge Data Logger - RG3	HOBO Temperature/RH Smart Sensor (S-THB-M002)	Soil Moisture Smart Sensor - EC5 (S-SMC-M005)	2019-08-04T22:00:01	0.00	17.796	79.400	0.6184	14.2
2052	AB07CD0350	WETLAND SAL01	SALINE (FEN)	56.573903999999998859493643976747989654541015625	-111.277773999999993748133420012891292572021484375	HOBO Rain Gauge Data Logger - RG3	HOBO Temperature/RH Smart Sensor (S-THB-M002)	Soil Moisture Smart Sensor - EC5 (S-SMC-M005)	2019-08-04T23:00:01	0.00	17.629	79.900	0.6184	14.1
2053	AB07CD0350	WETLAND SAL01	SALINE (FEN)	56.573903999999998859493643976747989654541015625	-111.277773999999993748133420012891292572021484375	HOBO Rain Gauge Data Logger - RG3	HOBO Temperature/RH Smart Sensor (S-THB-M002)	Soil Moisture Smart Sensor - EC5 (S-SMC-M005)	2019-08-05T00:00:01	0.00	16.606	85.400	0.6184	14.2
2054	AB07CD0350	WETLAND SAL01	SALINE (FEN)	56.573903999999998859493643976747989654541015625	-111.277773999999993748133420012891292572021484375	HOBO Rain Gauge Data Logger - RG3	HOBO Temperature/RH Smart Sensor (S-THB-M002)	Soil Moisture Smart Sensor - EC5 (S-SMC-M005)	2019-08-05T01:00:01	0.00	14.098	89.100	0.6184	12.3
2055	AB07CD0350	WETLAND SAL01	SALINE (FEN)	56.573903999999998859493643976747989654541015625	-111.277773999999993748133420012891292572021484375	HOBO Rain Gauge Data Logger - RG3	HOBO Temperature/RH Smart Sensor (S-THB-M002)	Soil Moisture Smart Sensor - EC5 (S-SMC-M005)	2019-08-05T02:00:01	0.00	14.026	92.600	0.6184	12.9
2056	AB07CD0350	WETLAND SAL01	SALINE (FEN)	56.573903999999998859493643976747989654541015625	-111.277773999999993748133420012891292572021484375	HOBO Rain Gauge Data Logger - RG3	HOBO Temperature/RH Smart Sensor (S-THB-M002)	Soil Moisture Smart Sensor - EC5 (S-SMC-M005)	2019-08-05T03:00:01	0.00	10.858	94.400	0.6184	10.0
2057	AB07CD0350	WETLAND SAL01	SALINE (FEN)	56.573903999999998859493643976747989654541015625	-111.277773999999993748133420012891292572021484375	HOBO Rain Gauge Data Logger - RG3	HOBO Temperature/RH Smart Sensor (S-THB-M002)	Soil Moisture Smart Sensor - EC5 (S-SMC-M005)	2019-08-05T04:00:01	0.00	10.956	95.700	0.6184	10.3
2058	AB07CD0350	WETLAND SAL01	SALINE (FEN)	56.573903999999998859493643976747989654541015625	-111.277773999999993748133420012891292572021484375	HOBO Rain Gauge Data Logger - RG3	HOBO Temperature/RH Smart Sensor (S-THB-M002)	Soil Moisture Smart Sensor - EC5 (S-SMC-M005)	2019-08-05T05:00:01	0.00	11.370	96.600	0.6184	10.9
2059	AB07CD0350	WETLAND SAL01	SALINE (FEN)	56.573903999999998859493643976747989654541015625	-111.277773999999993748133420012891292572021484375	HOBO Rain Gauge Data Logger - RG3	HOBO Temperature/RH Smart Sensor (S-THB-M002)	Soil Moisture Smart Sensor - EC5 (S-SMC-M005)	2019-08-05T06:00:01	0.00	11.589	96.100	0.6184	11.0
2060	AB07CD0350	WETLAND SAL01	SALINE (FEN)	56.573903999999998859493643976747989654541015625	-111.277773999999993748133420012891292572021484375	HOBO Rain Gauge Data Logger - RG3	HOBO Temperature/RH Smart Sensor (S-THB-M002)	Soil Moisture Smart Sensor - EC5 (S-SMC-M005)	2019-08-05T07:00:01	0.00	15.533	93.400	0.6184	14.5
2061	AB07CD0350	WETLAND SAL01	SALINE (FEN)	56.573903999999998859493643976747989654541015625	-111.277773999999993748133420012891292572021484375	HOBO Rain Gauge Data Logger - RG3	HOBO Temperature/RH Smart Sensor (S-THB-M002)	Soil Moisture Smart Sensor - EC5 (S-SMC-M005)	2019-08-05T08:00:01	0.00	18.913	82.700	0.6184	15.9
2062	AB07CD0350	WETLAND SAL01	SALINE (FEN)	56.573903999999998859493643976747989654541015625	-111.277773999999993748133420012891292572021484375	HOBO Rain Gauge Data Logger - RG3	HOBO Temperature/RH Smart Sensor (S-THB-M002)	Soil Moisture Smart Sensor - EC5 (S-SMC-M005)	2019-08-05T09:00:01	0.00	18.652	79.500	0.6184	15.1
2063	AB07CD0350	WETLAND SAL01	SALINE (FEN)	56.573903999999998859493643976747989654541015625	-111.277773999999993748133420012891292572021484375	HOBO Rain Gauge Data Logger - RG3	HOBO Temperature/RH Smart Sensor (S-THB-M002)	Soil Moisture Smart Sensor - EC5 (S-SMC-M005)	2019-08-05T10:00:01	0.00	18.604	79.600	0.6184	15.0
2064	AB07CD0350	WETLAND SAL01	SALINE (FEN)	56.573903999999998859493643976747989654541015625	-111.277773999999993748133420012891292572021484375	HOBO Rain Gauge Data Logger - RG3	HOBO Temperature/RH Smart Sensor (S-THB-M002)	Soil Moisture Smart Sensor - EC5 (S-SMC-M005)	2019-08-05T11:00:01	4.20	15.605	88.500	0.6184	13.7
2065	AB07CD0350	WETLAND SAL01	SALINE (FEN)	56.573903999999998859493643976747989654541015625	-111.277773999999993748133420012891292572021484375	HOBO Rain Gauge Data Logger - RG3	HOBO Temperature/RH Smart Sensor (S-THB-M002)	Soil Moisture Smart Sensor - EC5 (S-SMC-M005)	2019-08-05T12:00:01	0.00	17.772	92.700	0.6184	16.6
2066	AB07CD0350	WETLAND SAL01	SALINE (FEN)	56.573903999999998859493643976747989654541015625	-111.277773999999993748133420012891292572021484375	HOBO Rain Gauge Data Logger - RG3	HOBO Temperature/RH Smart Sensor (S-THB-M002)	Soil Moisture Smart Sensor - EC5 (S-SMC-M005)	2019-08-05T13:00:01	0.00	17.843	89.100	0.6184	16.0
2067	AB07CD0350	WETLAND SAL01	SALINE (FEN)	56.573903999999998859493643976747989654541015625	-111.277773999999993748133420012891292572021484375	HOBO Rain Gauge Data Logger - RG3	HOBO Temperature/RH Smart Sensor (S-THB-M002)	Soil Moisture Smart Sensor - EC5 (S-SMC-M005)	2019-08-05T14:00:01	0.00	17.058	90.000	0.6184	15.4
2068	AB07CD0350	WETLAND SAL01	SALINE (FEN)	56.573903999999998859493643976747989654541015625	-111.277773999999993748133420012891292572021484375	HOBO Rain Gauge Data Logger - RG3	HOBO Temperature/RH Smart Sensor (S-THB-M002)	Soil Moisture Smart Sensor - EC5 (S-SMC-M005)	2019-08-05T15:00:01	0.00	18.319	89.300	0.6184	16.5
2069	AB07CD0350	WETLAND SAL01	SALINE (FEN)	56.573903999999998859493643976747989654541015625	-111.277773999999993748133420012891292572021484375	HOBO Rain Gauge Data Logger - RG3	HOBO Temperature/RH Smart Sensor (S-THB-M002)	Soil Moisture Smart Sensor - EC5 (S-SMC-M005)	2019-08-05T16:00:01	0.00	17.867	84.600	0.6184	15.3
2070	AB07CD0350	WETLAND SAL01	SALINE (FEN)	56.573903999999998859493643976747989654541015625	-111.277773999999993748133420012891292572021484375	HOBO Rain Gauge Data Logger - RG3	HOBO Temperature/RH Smart Sensor (S-THB-M002)	Soil Moisture Smart Sensor - EC5 (S-SMC-M005)	2019-08-05T17:00:01	0.00	18.604	85.300	0.6184	16.1
2071	AB07CD0350	WETLAND SAL01	SALINE (FEN)	56.573903999999998859493643976747989654541015625	-111.277773999999993748133420012891292572021484375	HOBO Rain Gauge Data Logger - RG3	HOBO Temperature/RH Smart Sensor (S-THB-M002)	Soil Moisture Smart Sensor - EC5 (S-SMC-M005)	2019-08-05T18:00:01	0.00	18.675	82.200	0.6184	15.6
2072	AB07CD0350	WETLAND SAL01	SALINE (FEN)	56.573903999999998859493643976747989654541015625	-111.277773999999993748133420012891292572021484375	HOBO Rain Gauge Data Logger - RG3	HOBO Temperature/RH Smart Sensor (S-THB-M002)	Soil Moisture Smart Sensor - EC5 (S-SMC-M005)	2019-08-05T19:00:01	0.00	16.177	83.600	0.6184	13.4
2073	AB07CD0350	WETLAND SAL01	SALINE (FEN)	56.573903999999998859493643976747989654541015625	-111.277773999999993748133420012891292572021484375	HOBO Rain Gauge Data Logger - RG3	HOBO Temperature/RH Smart Sensor (S-THB-M002)	Soil Moisture Smart Sensor - EC5 (S-SMC-M005)	2019-08-05T20:00:01	0.00	15.342	81.800	0.6184	12.3
2074	AB07CD0350	WETLAND SAL01	SALINE (FEN)	56.573903999999998859493643976747989654541015625	-111.277773999999993748133420012891292572021484375	HOBO Rain Gauge Data Logger - RG3	HOBO Temperature/RH Smart Sensor (S-THB-M002)	Soil Moisture Smart Sensor - EC5 (S-SMC-M005)	2019-08-05T21:00:01	0.20	11.977	81.400	0.6184	8.9
2075	AB07CD0350	WETLAND SAL01	SALINE (FEN)	56.573903999999998859493643976747989654541015625	-111.277773999999993748133420012891292572021484375	HOBO Rain Gauge Data Logger - RG3	HOBO Temperature/RH Smart Sensor (S-THB-M002)	Soil Moisture Smart Sensor - EC5 (S-SMC-M005)	2019-08-05T22:00:01	0.00	11.102	92.200	0.6184	9.9
2076	AB07CD0350	WETLAND SAL01	SALINE (FEN)	56.573903999999998859493643976747989654541015625	-111.277773999999993748133420012891292572021484375	HOBO Rain Gauge Data Logger - RG3	HOBO Temperature/RH Smart Sensor (S-THB-M002)	Soil Moisture Smart Sensor - EC5 (S-SMC-M005)	2019-08-05T23:00:01	0.00	10.712	92.800	0.6184	9.6
2077	AB07CD0350	WETLAND SAL01	SALINE (FEN)	56.573903999999998859493643976747989654541015625	-111.277773999999993748133420012891292572021484375	HOBO Rain Gauge Data Logger - RG3	HOBO Temperature/RH Smart Sensor (S-THB-M002)	Soil Moisture Smart Sensor - EC5 (S-SMC-M005)	2019-08-06T00:00:01	0.00	9.903	93.800	0.6184	9.0
2078	AB07CD0350	WETLAND SAL01	SALINE (FEN)	56.573903999999998859493643976747989654541015625	-111.277773999999993748133420012891292572021484375	HOBO Rain Gauge Data Logger - RG3	HOBO Temperature/RH Smart Sensor (S-THB-M002)	Soil Moisture Smart Sensor - EC5 (S-SMC-M005)	2019-08-06T01:00:01	0.00	8.295	95.400	0.6184	7.6
2079	AB07CD0350	WETLAND SAL01	SALINE (FEN)	56.573903999999998859493643976747989654541015625	-111.277773999999993748133420012891292572021484375	HOBO Rain Gauge Data Logger - RG3	HOBO Temperature/RH Smart Sensor (S-THB-M002)	Soil Moisture Smart Sensor - EC5 (S-SMC-M005)	2019-08-06T02:00:01	0.00	7.419	97.000	0.6184	7.0
2080	AB07CD0350	WETLAND SAL01	SALINE (FEN)	56.573903999999998859493643976747989654541015625	-111.277773999999993748133420012891292572021484375	HOBO Rain Gauge Data Logger - RG3	HOBO Temperature/RH Smart Sensor (S-THB-M002)	Soil Moisture Smart Sensor - EC5 (S-SMC-M005)	2019-08-06T03:00:01	0.00	7.142	97.900	0.6184	6.8
2081	AB07CD0350	WETLAND SAL01	SALINE (FEN)	56.573903999999998859493643976747989654541015625	-111.277773999999993748133420012891292572021484375	HOBO Rain Gauge Data Logger - RG3	HOBO Temperature/RH Smart Sensor (S-THB-M002)	Soil Moisture Smart Sensor - EC5 (S-SMC-M005)	2019-08-06T04:00:01	0.00	8.344	98.200	0.6184	8.1
2082	AB07CD0350	WETLAND SAL01	SALINE (FEN)	56.573903999999998859493643976747989654541015625	-111.277773999999993748133420012891292572021484375	HOBO Rain Gauge Data Logger - RG3	HOBO Temperature/RH Smart Sensor (S-THB-M002)	Soil Moisture Smart Sensor - EC5 (S-SMC-M005)	2019-08-06T05:00:01	0.20	9.262	97.900	0.6184	9.0
2083	AB07CD0350	WETLAND SAL01	SALINE (FEN)	56.573903999999998859493643976747989654541015625	-111.277773999999993748133420012891292572021484375	HOBO Rain Gauge Data Logger - RG3	HOBO Temperature/RH Smart Sensor (S-THB-M002)	Soil Moisture Smart Sensor - EC5 (S-SMC-M005)	2019-08-06T06:00:01	0.00	9.064	97.400	0.6184	8.7
2084	AB07CD0350	WETLAND SAL01	SALINE (FEN)	56.573903999999998859493643976747989654541015625	-111.277773999999993748133420012891292572021484375	HOBO Rain Gauge Data Logger - RG3	HOBO Temperature/RH Smart Sensor (S-THB-M002)	Soil Moisture Smart Sensor - EC5 (S-SMC-M005)	2019-08-06T07:00:01	0.00	9.089	96.700	0.6184	8.6
2085	AB07CD0350	WETLAND SAL01	SALINE (FEN)	56.573903999999998859493643976747989654541015625	-111.277773999999993748133420012891292572021484375	HOBO Rain Gauge Data Logger - RG3	HOBO Temperature/RH Smart Sensor (S-THB-M002)	Soil Moisture Smart Sensor - EC5 (S-SMC-M005)	2019-08-06T08:00:01	0.00	9.879	96.400	0.6184	9.3
2086	AB07CD0350	WETLAND SAL01	SALINE (FEN)	56.573903999999998859493643976747989654541015625	-111.277773999999993748133420012891292572021484375	HOBO Rain Gauge Data Logger - RG3	HOBO Temperature/RH Smart Sensor (S-THB-M002)	Soil Moisture Smart Sensor - EC5 (S-SMC-M005)	2019-08-06T09:00:01	0.00	10.761	91.200	0.6184	9.4
2087	AB07CD0350	WETLAND SAL01	SALINE (FEN)	56.573903999999998859493643976747989654541015625	-111.277773999999993748133420012891292572021484375	HOBO Rain Gauge Data Logger - RG3	HOBO Temperature/RH Smart Sensor (S-THB-M002)	Soil Moisture Smart Sensor - EC5 (S-SMC-M005)	2019-08-06T10:00:01	0.00	8.916	90.500	0.6184	7.5
2088	AB07CD0350	WETLAND SAL01	SALINE (FEN)	56.573903999999998859493643976747989654541015625	-111.277773999999993748133420012891292572021484375	HOBO Rain Gauge Data Logger - RG3	HOBO Temperature/RH Smart Sensor (S-THB-M002)	Soil Moisture Smart Sensor - EC5 (S-SMC-M005)	2019-08-06T11:00:01	0.00	11.832	85.100	0.6177	9.4
2089	AB07CD0350	WETLAND SAL01	SALINE (FEN)	56.573903999999998859493643976747989654541015625	-111.277773999999993748133420012891292572021484375	HOBO Rain Gauge Data Logger - RG3	HOBO Temperature/RH Smart Sensor (S-THB-M002)	Soil Moisture Smart Sensor - EC5 (S-SMC-M005)	2019-08-06T12:00:01	0.00	12.485	75.600	0.6177	8.3
2090	AB07CD0350	WETLAND SAL01	SALINE (FEN)	56.573903999999998859493643976747989654541015625	-111.277773999999993748133420012891292572021484375	HOBO Rain Gauge Data Logger - RG3	HOBO Temperature/RH Smart Sensor (S-THB-M002)	Soil Moisture Smart Sensor - EC5 (S-SMC-M005)	2019-08-06T13:00:01	0.00	12.896	68.800	0.6177	7.3
2091	AB07CD0350	WETLAND SAL01	SALINE (FEN)	56.573903999999998859493643976747989654541015625	-111.277773999999993748133420012891292572021484375	HOBO Rain Gauge Data Logger - RG3	HOBO Temperature/RH Smart Sensor (S-THB-M002)	Soil Moisture Smart Sensor - EC5 (S-SMC-M005)	2019-08-06T14:00:01	0.00	13.449	67.400	0.6177	7.5
2092	AB07CD0350	WETLAND SAL01	SALINE (FEN)	56.573903999999998859493643976747989654541015625	-111.277773999999993748133420012891292572021484375	HOBO Rain Gauge Data Logger - RG3	HOBO Temperature/RH Smart Sensor (S-THB-M002)	Soil Moisture Smart Sensor - EC5 (S-SMC-M005)	2019-08-06T15:00:01	0.00	14.457	62.700	0.6177	7.4
2093	AB07CD0350	WETLAND SAL01	SALINE (FEN)	56.573903999999998859493643976747989654541015625	-111.277773999999993748133420012891292572021484375	HOBO Rain Gauge Data Logger - RG3	HOBO Temperature/RH Smart Sensor (S-THB-M002)	Soil Moisture Smart Sensor - EC5 (S-SMC-M005)	2019-08-06T16:00:01	0.00	14.816	60.400	0.6177	7.2
2094	AB07CD0350	WETLAND SAL01	SALINE (FEN)	56.573903999999998859493643976747989654541015625	-111.277773999999993748133420012891292572021484375	HOBO Rain Gauge Data Logger - RG3	HOBO Temperature/RH Smart Sensor (S-THB-M002)	Soil Moisture Smart Sensor - EC5 (S-SMC-M005)	2019-08-06T17:00:01	0.00	15.629	59.800	0.6169	7.9
2095	AB07CD0350	WETLAND SAL01	SALINE (FEN)	56.573903999999998859493643976747989654541015625	-111.277773999999993748133420012891292572021484375	HOBO Rain Gauge Data Logger - RG3	HOBO Temperature/RH Smart Sensor (S-THB-M002)	Soil Moisture Smart Sensor - EC5 (S-SMC-M005)	2019-08-06T18:00:01	0.00	15.963	59.100	0.6169	8.0
2096	AB07CD0350	WETLAND SAL01	SALINE (FEN)	56.573903999999998859493643976747989654541015625	-111.277773999999993748133420012891292572021484375	HOBO Rain Gauge Data Logger - RG3	HOBO Temperature/RH Smart Sensor (S-THB-M002)	Soil Moisture Smart Sensor - EC5 (S-SMC-M005)	2019-08-06T19:00:01	0.00	16.058	58.200	0.6169	7.9
2097	AB07CD0350	WETLAND SAL01	SALINE (FEN)	56.573903999999998859493643976747989654541015625	-111.277773999999993748133420012891292572021484375	HOBO Rain Gauge Data Logger - RG3	HOBO Temperature/RH Smart Sensor (S-THB-M002)	Soil Moisture Smart Sensor - EC5 (S-SMC-M005)	2019-08-06T20:00:01	0.00	15.008	59.700	0.6169	7.2
2098	AB07CD0350	WETLAND SAL01	SALINE (FEN)	56.573903999999998859493643976747989654541015625	-111.277773999999993748133420012891292572021484375	HOBO Rain Gauge Data Logger - RG3	HOBO Temperature/RH Smart Sensor (S-THB-M002)	Soil Moisture Smart Sensor - EC5 (S-SMC-M005)	2019-08-06T21:00:01	0.00	12.630	65.400	0.6169	6.3
2099	AB07CD0350	WETLAND SAL01	SALINE (FEN)	56.573903999999998859493643976747989654541015625	-111.277773999999993748133420012891292572021484375	HOBO Rain Gauge Data Logger - RG3	HOBO Temperature/RH Smart Sensor (S-THB-M002)	Soil Moisture Smart Sensor - EC5 (S-SMC-M005)	2019-08-06T22:00:01	0.00	6.940	78.700	0.6169	3.5
2100	AB07CD0350	WETLAND SAL01	SALINE (FEN)	56.573903999999998859493643976747989654541015625	-111.277773999999993748133420012891292572021484375	HOBO Rain Gauge Data Logger - RG3	HOBO Temperature/RH Smart Sensor (S-THB-M002)	Soil Moisture Smart Sensor - EC5 (S-SMC-M005)	2019-08-06T23:00:01	0.00	5.024	90.000	0.6177	3.5
2101	AB07CD0350	WETLAND SAL01	SALINE (FEN)	56.573903999999998859493643976747989654541015625	-111.277773999999993748133420012891292572021484375	HOBO Rain Gauge Data Logger - RG3	HOBO Temperature/RH Smart Sensor (S-THB-M002)	Soil Moisture Smart Sensor - EC5 (S-SMC-M005)	2019-08-07T00:00:01	0.00	3.932	92.900	0.6169	2.9
2102	AB07CD0350	WETLAND SAL01	SALINE (FEN)	56.573903999999998859493643976747989654541015625	-111.277773999999993748133420012891292572021484375	HOBO Rain Gauge Data Logger - RG3	HOBO Temperature/RH Smart Sensor (S-THB-M002)	Soil Moisture Smart Sensor - EC5 (S-SMC-M005)	2019-08-07T01:00:01	0.00	2.557	94.300	0.6177	1.7
2103	AB07CD0350	WETLAND SAL01	SALINE (FEN)	56.573903999999998859493643976747989654541015625	-111.277773999999993748133420012891292572021484375	HOBO Rain Gauge Data Logger - RG3	HOBO Temperature/RH Smart Sensor (S-THB-M002)	Soil Moisture Smart Sensor - EC5 (S-SMC-M005)	2019-08-07T02:00:01	0.00	3.670	95.500	0.6177	3.0
2104	AB07CD0350	WETLAND SAL01	SALINE (FEN)	56.573903999999998859493643976747989654541015625	-111.277773999999993748133420012891292572021484375	HOBO Rain Gauge Data Logger - RG3	HOBO Temperature/RH Smart Sensor (S-THB-M002)	Soil Moisture Smart Sensor - EC5 (S-SMC-M005)	2019-08-07T03:00:01	0.00	1.289	96.200	0.6169	0.7
2105	AB07CD0350	WETLAND SAL01	SALINE (FEN)	56.573903999999998859493643976747989654541015625	-111.277773999999993748133420012891292572021484375	HOBO Rain Gauge Data Logger - RG3	HOBO Temperature/RH Smart Sensor (S-THB-M002)	Soil Moisture Smart Sensor - EC5 (S-SMC-M005)	2019-08-07T04:00:01	0.00	1.044	96.600	0.6169	0.6
2106	AB07CD0350	WETLAND SAL01	SALINE (FEN)	56.573903999999998859493643976747989654541015625	-111.277773999999993748133420012891292572021484375	HOBO Rain Gauge Data Logger - RG3	HOBO Temperature/RH Smart Sensor (S-THB-M002)	Soil Moisture Smart Sensor - EC5 (S-SMC-M005)	2019-08-07T05:00:01	0.00	2.209	97.000	0.6169	1.8
2107	AB07CD0350	WETLAND SAL01	SALINE (FEN)	56.573903999999998859493643976747989654541015625	-111.277773999999993748133420012891292572021484375	HOBO Rain Gauge Data Logger - RG3	HOBO Temperature/RH Smart Sensor (S-THB-M002)	Soil Moisture Smart Sensor - EC5 (S-SMC-M005)	2019-08-07T06:00:01	0.00	2.396	97.200	0.6169	2.0
2108	AB07CD0350	WETLAND SAL01	SALINE (FEN)	56.573903999999998859493643976747989654541015625	-111.277773999999993748133420012891292572021484375	HOBO Rain Gauge Data Logger - RG3	HOBO Temperature/RH Smart Sensor (S-THB-M002)	Soil Moisture Smart Sensor - EC5 (S-SMC-M005)	2019-08-07T07:00:01	0.00	5.154	96.900	0.6169	4.7
2109	AB07CD0350	WETLAND SAL01	SALINE (FEN)	56.573903999999998859493643976747989654541015625	-111.277773999999993748133420012891292572021484375	HOBO Rain Gauge Data Logger - RG3	HOBO Temperature/RH Smart Sensor (S-THB-M002)	Soil Moisture Smart Sensor - EC5 (S-SMC-M005)	2019-08-07T08:00:01	0.00	8.020	93.200	0.6169	7.0
2110	AB07CD0350	WETLAND SAL01	SALINE (FEN)	56.573903999999998859493643976747989654541015625	-111.277773999999993748133420012891292572021484375	HOBO Rain Gauge Data Logger - RG3	HOBO Temperature/RH Smart Sensor (S-THB-M002)	Soil Moisture Smart Sensor - EC5 (S-SMC-M005)	2019-08-07T09:00:01	0.00	11.102	84.000	0.6169	8.5
2111	AB07CD0350	WETLAND SAL01	SALINE (FEN)	56.573903999999998859493643976747989654541015625	-111.277773999999993748133420012891292572021484375	HOBO Rain Gauge Data Logger - RG3	HOBO Temperature/RH Smart Sensor (S-THB-M002)	Soil Moisture Smart Sensor - EC5 (S-SMC-M005)	2019-08-07T10:00:01	0.00	14.529	74.500	0.6162	10.1
2112	AB07CD0350	WETLAND SAL01	SALINE (FEN)	56.573903999999998859493643976747989654541015625	-111.277773999999993748133420012891292572021484375	HOBO Rain Gauge Data Logger - RG3	HOBO Temperature/RH Smart Sensor (S-THB-M002)	Soil Moisture Smart Sensor - EC5 (S-SMC-M005)	2019-08-07T11:00:01	0.00	16.272	64.400	0.6162	9.6
2113	AB07CD0350	WETLAND SAL01	SALINE (FEN)	56.573903999999998859493643976747989654541015625	-111.277773999999993748133420012891292572021484375	HOBO Rain Gauge Data Logger - RG3	HOBO Temperature/RH Smart Sensor (S-THB-M002)	Soil Moisture Smart Sensor - EC5 (S-SMC-M005)	2019-08-07T12:00:01	0.00	17.249	57.900	0.6162	8.9
2114	AB07CD0350	WETLAND SAL01	SALINE (FEN)	56.573903999999998859493643976747989654541015625	-111.277773999999993748133420012891292572021484375	HOBO Rain Gauge Data Logger - RG3	HOBO Temperature/RH Smart Sensor (S-THB-M002)	Soil Moisture Smart Sensor - EC5 (S-SMC-M005)	2019-08-07T13:00:01	0.00	18.533	52.100	0.6162	8.5
2115	AB07CD0350	WETLAND SAL01	SALINE (FEN)	56.573903999999998859493643976747989654541015625	-111.277773999999993748133420012891292572021484375	HOBO Rain Gauge Data Logger - RG3	HOBO Temperature/RH Smart Sensor (S-THB-M002)	Soil Moisture Smart Sensor - EC5 (S-SMC-M005)	2019-08-07T14:00:01	0.00	19.460	50.300	0.6162	8.9
2116	AB07CD0350	WETLAND SAL01	SALINE (FEN)	56.573903999999998859493643976747989654541015625	-111.277773999999993748133420012891292572021484375	HOBO Rain Gauge Data Logger - RG3	HOBO Temperature/RH Smart Sensor (S-THB-M002)	Soil Moisture Smart Sensor - EC5 (S-SMC-M005)	2019-08-07T15:00:01	0.00	19.651	47.500	0.6155	8.2
2117	AB07CD0350	WETLAND SAL01	SALINE (FEN)	56.573903999999998859493643976747989654541015625	-111.277773999999993748133420012891292572021484375	HOBO Rain Gauge Data Logger - RG3	HOBO Temperature/RH Smart Sensor (S-THB-M002)	Soil Moisture Smart Sensor - EC5 (S-SMC-M005)	2019-08-07T16:00:01	0.00	20.317	42.200	0.6155	7.1
2118	AB07CD0350	WETLAND SAL01	SALINE (FEN)	56.573903999999998859493643976747989654541015625	-111.277773999999993748133420012891292572021484375	HOBO Rain Gauge Data Logger - RG3	HOBO Temperature/RH Smart Sensor (S-THB-M002)	Soil Moisture Smart Sensor - EC5 (S-SMC-M005)	2019-08-07T17:00:01	0.00	20.913	41.300	0.6155	7.3
2119	AB07CD0350	WETLAND SAL01	SALINE (FEN)	56.573903999999998859493643976747989654541015625	-111.277773999999993748133420012891292572021484375	HOBO Rain Gauge Data Logger - RG3	HOBO Temperature/RH Smart Sensor (S-THB-M002)	Soil Moisture Smart Sensor - EC5 (S-SMC-M005)	2019-08-07T18:00:01	0.00	21.079	41.400	0.6155	7.5
2120	AB07CD0350	WETLAND SAL01	SALINE (FEN)	56.573903999999998859493643976747989654541015625	-111.277773999999993748133420012891292572021484375	HOBO Rain Gauge Data Logger - RG3	HOBO Temperature/RH Smart Sensor (S-THB-M002)	Soil Moisture Smart Sensor - EC5 (S-SMC-M005)	2019-08-07T19:00:01	0.00	20.269	41.600	0.6155	6.8
2121	AB07CD0350	WETLAND SAL01	SALINE (FEN)	56.573903999999998859493643976747989654541015625	-111.277773999999993748133420012891292572021484375	HOBO Rain Gauge Data Logger - RG3	HOBO Temperature/RH Smart Sensor (S-THB-M002)	Soil Moisture Smart Sensor - EC5 (S-SMC-M005)	2019-08-07T20:00:01	0.00	18.842	40.800	0.6155	5.3
2122	AB07CD0350	WETLAND SAL01	SALINE (FEN)	56.573903999999998859493643976747989654541015625	-111.277773999999993748133420012891292572021484375	HOBO Rain Gauge Data Logger - RG3	HOBO Temperature/RH Smart Sensor (S-THB-M002)	Soil Moisture Smart Sensor - EC5 (S-SMC-M005)	2019-08-07T21:00:01	0.00	14.936	47.700	0.6162	3.9
2123	AB07CD0350	WETLAND SAL01	SALINE (FEN)	56.573903999999998859493643976747989654541015625	-111.277773999999993748133420012891292572021484375	HOBO Rain Gauge Data Logger - RG3	HOBO Temperature/RH Smart Sensor (S-THB-M002)	Soil Moisture Smart Sensor - EC5 (S-SMC-M005)	2019-08-07T22:00:01	0.00	9.089	72.100	0.6155	4.3
2124	AB07CD0350	WETLAND SAL01	SALINE (FEN)	56.573903999999998859493643976747989654541015625	-111.277773999999993748133420012891292572021484375	HOBO Rain Gauge Data Logger - RG3	HOBO Temperature/RH Smart Sensor (S-THB-M002)	Soil Moisture Smart Sensor - EC5 (S-SMC-M005)	2019-08-07T23:00:01	0.00	6.560	83.900	0.6162	4.0
2125	AB07CD0350	WETLAND SAL01	SALINE (FEN)	56.573903999999998859493643976747989654541015625	-111.277773999999993748133420012891292572021484375	HOBO Rain Gauge Data Logger - RG3	HOBO Temperature/RH Smart Sensor (S-THB-M002)	Soil Moisture Smart Sensor - EC5 (S-SMC-M005)	2019-08-08T00:00:01	0.00	5.565	87.500	0.6162	3.7
2126	AB07CD0350	WETLAND SAL01	SALINE (FEN)	56.573903999999998859493643976747989654541015625	-111.277773999999993748133420012891292572021484375	HOBO Rain Gauge Data Logger - RG3	HOBO Temperature/RH Smart Sensor (S-THB-M002)	Soil Moisture Smart Sensor - EC5 (S-SMC-M005)	2019-08-08T01:00:01	0.00	6.737	82.500	0.6162	4.0
2127	AB07CD0350	WETLAND SAL01	SALINE (FEN)	56.573903999999998859493643976747989654541015625	-111.277773999999993748133420012891292572021484375	HOBO Rain Gauge Data Logger - RG3	HOBO Temperature/RH Smart Sensor (S-THB-M002)	Soil Moisture Smart Sensor - EC5 (S-SMC-M005)	2019-08-08T02:00:01	0.00	5.154	89.300	0.6162	3.5
2128	AB07CD0350	WETLAND SAL01	SALINE (FEN)	56.573903999999998859493643976747989654541015625	-111.277773999999993748133420012891292572021484375	HOBO Rain Gauge Data Logger - RG3	HOBO Temperature/RH Smart Sensor (S-THB-M002)	Soil Moisture Smart Sensor - EC5 (S-SMC-M005)	2019-08-08T03:00:01	0.00	4.063	93.000	0.6169	3.0
2129	AB07CD0350	WETLAND SAL01	SALINE (FEN)	56.573903999999998859493643976747989654541015625	-111.277773999999993748133420012891292572021484375	HOBO Rain Gauge Data Logger - RG3	HOBO Temperature/RH Smart Sensor (S-THB-M002)	Soil Moisture Smart Sensor - EC5 (S-SMC-M005)	2019-08-08T04:00:01	0.00	3.221	95.300	0.6162	2.5
2130	AB07CD0350	WETLAND SAL01	SALINE (FEN)	56.573903999999998859493643976747989654541015625	-111.277773999999993748133420012891292572021484375	HOBO Rain Gauge Data Logger - RG3	HOBO Temperature/RH Smart Sensor (S-THB-M002)	Soil Moisture Smart Sensor - EC5 (S-SMC-M005)	2019-08-08T05:00:01	0.00	2.477	95.600	0.6162	1.8
2131	AB07CD0350	WETLAND SAL01	SALINE (FEN)	56.573903999999998859493643976747989654541015625	-111.277773999999993748133420012891292572021484375	HOBO Rain Gauge Data Logger - RG3	HOBO Temperature/RH Smart Sensor (S-THB-M002)	Soil Moisture Smart Sensor - EC5 (S-SMC-M005)	2019-08-08T06:00:01	0.00	2.343	96.000	0.6162	1.8
2132	AB07CD0350	WETLAND SAL01	SALINE (FEN)	56.573903999999998859493643976747989654541015625	-111.277773999999993748133420012891292572021484375	HOBO Rain Gauge Data Logger - RG3	HOBO Temperature/RH Smart Sensor (S-THB-M002)	Soil Moisture Smart Sensor - EC5 (S-SMC-M005)	2019-08-08T07:00:01	0.00	6.611	96.100	0.6162	6.0
2133	AB07CD0350	WETLAND SAL01	SALINE (FEN)	56.573903999999998859493643976747989654541015625	-111.277773999999993748133420012891292572021484375	HOBO Rain Gauge Data Logger - RG3	HOBO Temperature/RH Smart Sensor (S-THB-M002)	Soil Moisture Smart Sensor - EC5 (S-SMC-M005)	2019-08-08T08:00:01	0.00	9.952	91.700	0.6162	8.7
2134	AB07CD0350	WETLAND SAL01	SALINE (FEN)	56.573903999999998859493643976747989654541015625	-111.277773999999993748133420012891292572021484375	HOBO Rain Gauge Data Logger - RG3	HOBO Temperature/RH Smart Sensor (S-THB-M002)	Soil Moisture Smart Sensor - EC5 (S-SMC-M005)	2019-08-08T09:00:01	0.00	14.912	84.000	0.6162	12.2
2135	AB07CD0350	WETLAND SAL01	SALINE (FEN)	56.573903999999998859493643976747989654541015625	-111.277773999999993748133420012891292572021484375	HOBO Rain Gauge Data Logger - RG3	HOBO Temperature/RH Smart Sensor (S-THB-M002)	Soil Moisture Smart Sensor - EC5 (S-SMC-M005)	2019-08-08T10:00:01	0.00	17.891	65.800	0.6162	11.4
2136	AB07CD0350	WETLAND SAL01	SALINE (FEN)	56.573903999999998859493643976747989654541015625	-111.277773999999993748133420012891292572021484375	HOBO Rain Gauge Data Logger - RG3	HOBO Temperature/RH Smart Sensor (S-THB-M002)	Soil Moisture Smart Sensor - EC5 (S-SMC-M005)	2019-08-08T11:00:01	0.00	20.365	56.300	0.6162	11.4
2137	AB07CD0350	WETLAND SAL01	SALINE (FEN)	56.573903999999998859493643976747989654541015625	-111.277773999999993748133420012891292572021484375	HOBO Rain Gauge Data Logger - RG3	HOBO Temperature/RH Smart Sensor (S-THB-M002)	Soil Moisture Smart Sensor - EC5 (S-SMC-M005)	2019-08-08T12:00:01	0.00	17.724	58.200	0.6162	9.4
2138	AB07CD0350	WETLAND SAL01	SALINE (FEN)	56.573903999999998859493643976747989654541015625	-111.277773999999993748133420012891292572021484375	HOBO Rain Gauge Data Logger - RG3	HOBO Temperature/RH Smart Sensor (S-THB-M002)	Soil Moisture Smart Sensor - EC5 (S-SMC-M005)	2019-08-08T13:00:01	0.00	17.867	63.700	0.6155	10.9
2139	AB07CD0350	WETLAND SAL01	SALINE (FEN)	56.573903999999998859493643976747989654541015625	-111.277773999999993748133420012891292572021484375	HOBO Rain Gauge Data Logger - RG3	HOBO Temperature/RH Smart Sensor (S-THB-M002)	Soil Moisture Smart Sensor - EC5 (S-SMC-M005)	2019-08-08T14:00:01	0.00	20.055	60.500	0.6162	12.2
2140	AB07CD0350	WETLAND SAL01	SALINE (FEN)	56.573903999999998859493643976747989654541015625	-111.277773999999993748133420012891292572021484375	HOBO Rain Gauge Data Logger - RG3	HOBO Temperature/RH Smart Sensor (S-THB-M002)	Soil Moisture Smart Sensor - EC5 (S-SMC-M005)	2019-08-08T15:00:01	0.00	22.441	56.400	0.6162	13.4
2141	AB07CD0350	WETLAND SAL01	SALINE (FEN)	56.573903999999998859493643976747989654541015625	-111.277773999999993748133420012891292572021484375	HOBO Rain Gauge Data Logger - RG3	HOBO Temperature/RH Smart Sensor (S-THB-M002)	Soil Moisture Smart Sensor - EC5 (S-SMC-M005)	2019-08-08T16:00:01	0.00	20.031	59.400	0.6155	11.9
2142	AB07CD0350	WETLAND SAL01	SALINE (FEN)	56.573903999999998859493643976747989654541015625	-111.277773999999993748133420012891292572021484375	HOBO Rain Gauge Data Logger - RG3	HOBO Temperature/RH Smart Sensor (S-THB-M002)	Soil Moisture Smart Sensor - EC5 (S-SMC-M005)	2019-08-08T17:00:01	0.00	16.296	70.900	0.6155	11.0
2143	AB07CD0350	WETLAND SAL01	SALINE (FEN)	56.573903999999998859493643976747989654541015625	-111.277773999999993748133420012891292572021484375	HOBO Rain Gauge Data Logger - RG3	HOBO Temperature/RH Smart Sensor (S-THB-M002)	Soil Moisture Smart Sensor - EC5 (S-SMC-M005)	2019-08-08T18:00:01	0.20	14.649	84.600	0.6155	12.1
2144	AB07CD0350	WETLAND SAL01	SALINE (FEN)	56.573903999999998859493643976747989654541015625	-111.277773999999993748133420012891292572021484375	HOBO Rain Gauge Data Logger - RG3	HOBO Temperature/RH Smart Sensor (S-THB-M002)	Soil Moisture Smart Sensor - EC5 (S-SMC-M005)	2019-08-08T19:00:01	0.80	13.978	91.700	0.6155	12.7
2145	AB07CD0350	WETLAND SAL01	SALINE (FEN)	56.573903999999998859493643976747989654541015625	-111.277773999999993748133420012891292572021484375	HOBO Rain Gauge Data Logger - RG3	HOBO Temperature/RH Smart Sensor (S-THB-M002)	Soil Moisture Smart Sensor - EC5 (S-SMC-M005)	2019-08-08T20:00:01	3.40	13.666	95.000	0.6155	12.9
2146	AB07CD0350	WETLAND SAL01	SALINE (FEN)	56.573903999999998859493643976747989654541015625	-111.277773999999993748133420012891292572021484375	HOBO Rain Gauge Data Logger - RG3	HOBO Temperature/RH Smart Sensor (S-THB-M002)	Soil Moisture Smart Sensor - EC5 (S-SMC-M005)	2019-08-08T21:00:01	1.80	13.594	96.800	0.6162	13.1
2147	AB07CD0350	WETLAND SAL01	SALINE (FEN)	56.573903999999998859493643976747989654541015625	-111.277773999999993748133420012891292572021484375	HOBO Rain Gauge Data Logger - RG3	HOBO Temperature/RH Smart Sensor (S-THB-M002)	Soil Moisture Smart Sensor - EC5 (S-SMC-M005)	2019-08-08T22:00:01	0.60	13.473	97.500	0.6162	13.1
2148	AB07CD0350	WETLAND SAL01	SALINE (FEN)	56.573903999999998859493643976747989654541015625	-111.277773999999993748133420012891292572021484375	HOBO Rain Gauge Data Logger - RG3	HOBO Temperature/RH Smart Sensor (S-THB-M002)	Soil Moisture Smart Sensor - EC5 (S-SMC-M005)	2019-08-08T23:00:01	0.20	12.944	97.600	0.6162	12.6
2149	AB07CD0350	WETLAND SAL01	SALINE (FEN)	56.573903999999998859493643976747989654541015625	-111.277773999999993748133420012891292572021484375	HOBO Rain Gauge Data Logger - RG3	HOBO Temperature/RH Smart Sensor (S-THB-M002)	Soil Moisture Smart Sensor - EC5 (S-SMC-M005)	2019-08-09T00:00:01	0.20	13.112	97.700	0.6162	12.8
2150	AB07CD0350	WETLAND SAL01	SALINE (FEN)	56.573903999999998859493643976747989654541015625	-111.277773999999993748133420012891292572021484375	HOBO Rain Gauge Data Logger - RG3	HOBO Temperature/RH Smart Sensor (S-THB-M002)	Soil Moisture Smart Sensor - EC5 (S-SMC-M005)	2019-08-09T01:00:01	0.00	12.364	98.100	0.6162	12.1
2151	AB07CD0350	WETLAND SAL01	SALINE (FEN)	56.573903999999998859493643976747989654541015625	-111.277773999999993748133420012891292572021484375	HOBO Rain Gauge Data Logger - RG3	HOBO Temperature/RH Smart Sensor (S-THB-M002)	Soil Moisture Smart Sensor - EC5 (S-SMC-M005)	2019-08-09T02:00:01	0.20	12.050	98.400	0.6162	11.8
2152	AB07CD0350	WETLAND SAL01	SALINE (FEN)	56.573903999999998859493643976747989654541015625	-111.277773999999993748133420012891292572021484375	HOBO Rain Gauge Data Logger - RG3	HOBO Temperature/RH Smart Sensor (S-THB-M002)	Soil Moisture Smart Sensor - EC5 (S-SMC-M005)	2019-08-09T03:00:01	0.40	11.540	98.600	0.6162	11.3
2153	AB07CD0350	WETLAND SAL01	SALINE (FEN)	56.573903999999998859493643976747989654541015625	-111.277773999999993748133420012891292572021484375	HOBO Rain Gauge Data Logger - RG3	HOBO Temperature/RH Smart Sensor (S-THB-M002)	Soil Moisture Smart Sensor - EC5 (S-SMC-M005)	2019-08-09T04:00:01	0.20	11.224	98.400	0.6162	11.0
2154	AB07CD0350	WETLAND SAL01	SALINE (FEN)	56.573903999999998859493643976747989654541015625	-111.277773999999993748133420012891292572021484375	HOBO Rain Gauge Data Logger - RG3	HOBO Temperature/RH Smart Sensor (S-THB-M002)	Soil Moisture Smart Sensor - EC5 (S-SMC-M005)	2019-08-09T05:00:01	0.20	10.980	97.800	0.6162	10.7
2155	AB07CD0350	WETLAND SAL01	SALINE (FEN)	56.573903999999998859493643976747989654541015625	-111.277773999999993748133420012891292572021484375	HOBO Rain Gauge Data Logger - RG3	HOBO Temperature/RH Smart Sensor (S-THB-M002)	Soil Moisture Smart Sensor - EC5 (S-SMC-M005)	2019-08-09T06:00:01	0.00	10.932	97.700	0.6162	10.6
2156	AB07CD0350	WETLAND SAL01	SALINE (FEN)	56.573903999999998859493643976747989654541015625	-111.277773999999993748133420012891292572021484375	HOBO Rain Gauge Data Logger - RG3	HOBO Temperature/RH Smart Sensor (S-THB-M002)	Soil Moisture Smart Sensor - EC5 (S-SMC-M005)	2019-08-09T07:00:01	0.00	10.736	96.600	0.6162	10.2
2157	AB07CD0350	WETLAND SAL01	SALINE (FEN)	56.573903999999998859493643976747989654541015625	-111.277773999999993748133420012891292572021484375	HOBO Rain Gauge Data Logger - RG3	HOBO Temperature/RH Smart Sensor (S-THB-M002)	Soil Moisture Smart Sensor - EC5 (S-SMC-M005)	2019-08-09T08:00:01	0.00	10.516	96.200	0.6162	9.9
2158	AB07CD0350	WETLAND SAL01	SALINE (FEN)	56.573903999999998859493643976747989654541015625	-111.277773999999993748133420012891292572021484375	HOBO Rain Gauge Data Logger - RG3	HOBO Temperature/RH Smart Sensor (S-THB-M002)	Soil Moisture Smart Sensor - EC5 (S-SMC-M005)	2019-08-09T09:00:01	0.00	10.810	94.700	0.6162	10.0
2159	AB07CD0350	WETLAND SAL01	SALINE (FEN)	56.573903999999998859493643976747989654541015625	-111.277773999999993748133420012891292572021484375	HOBO Rain Gauge Data Logger - RG3	HOBO Temperature/RH Smart Sensor (S-THB-M002)	Soil Moisture Smart Sensor - EC5 (S-SMC-M005)	2019-08-09T10:00:01	0.00	11.856	89.800	0.6162	10.2
2160	AB07CD0350	WETLAND SAL01	SALINE (FEN)	56.573903999999998859493643976747989654541015625	-111.277773999999993748133420012891292572021484375	HOBO Rain Gauge Data Logger - RG3	HOBO Temperature/RH Smart Sensor (S-THB-M002)	Soil Moisture Smart Sensor - EC5 (S-SMC-M005)	2019-08-09T11:00:01	0.00	11.807	84.000	0.6162	9.2
2161	AB07CD0350	WETLAND SAL01	SALINE (FEN)	56.573903999999998859493643976747989654541015625	-111.277773999999993748133420012891292572021484375	HOBO Rain Gauge Data Logger - RG3	HOBO Temperature/RH Smart Sensor (S-THB-M002)	Soil Moisture Smart Sensor - EC5 (S-SMC-M005)	2019-08-09T12:00:01	0.00	12.920	81.600	0.6162	9.9
2162	AB07CD0350	WETLAND SAL01	SALINE (FEN)	56.573903999999998859493643976747989654541015625	-111.277773999999993748133420012891292572021484375	HOBO Rain Gauge Data Logger - RG3	HOBO Temperature/RH Smart Sensor (S-THB-M002)	Soil Moisture Smart Sensor - EC5 (S-SMC-M005)	2019-08-09T13:00:01	0.00	13.906	75.900	0.6162	9.7
2163	AB07CD0350	WETLAND SAL01	SALINE (FEN)	56.573903999999998859493643976747989654541015625	-111.277773999999993748133420012891292572021484375	HOBO Rain Gauge Data Logger - RG3	HOBO Temperature/RH Smart Sensor (S-THB-M002)	Soil Moisture Smart Sensor - EC5 (S-SMC-M005)	2019-08-09T14:00:01	0.00	13.305	73.700	0.6162	8.7
2164	AB07CD0350	WETLAND SAL01	SALINE (FEN)	56.573903999999998859493643976747989654541015625	-111.277773999999993748133420012891292572021484375	HOBO Rain Gauge Data Logger - RG3	HOBO Temperature/RH Smart Sensor (S-THB-M002)	Soil Moisture Smart Sensor - EC5 (S-SMC-M005)	2019-08-09T15:00:01	0.00	14.577	80.100	0.6162	11.2
2165	AB07CD0350	WETLAND SAL01	SALINE (FEN)	56.573903999999998859493643976747989654541015625	-111.277773999999993748133420012891292572021484375	HOBO Rain Gauge Data Logger - RG3	HOBO Temperature/RH Smart Sensor (S-THB-M002)	Soil Moisture Smart Sensor - EC5 (S-SMC-M005)	2019-08-09T16:00:01	0.40	13.978	74.800	0.6162	9.6
2166	AB07CD0350	WETLAND SAL01	SALINE (FEN)	56.573903999999998859493643976747989654541015625	-111.277773999999993748133420012891292572021484375	HOBO Rain Gauge Data Logger - RG3	HOBO Temperature/RH Smart Sensor (S-THB-M002)	Soil Moisture Smart Sensor - EC5 (S-SMC-M005)	2019-08-09T17:00:01	1.40	14.266	84.600	0.6162	11.7
2167	AB07CD0350	WETLAND SAL01	SALINE (FEN)	56.573903999999998859493643976747989654541015625	-111.277773999999993748133420012891292572021484375	HOBO Rain Gauge Data Logger - RG3	HOBO Temperature/RH Smart Sensor (S-THB-M002)	Soil Moisture Smart Sensor - EC5 (S-SMC-M005)	2019-08-09T18:00:01	0.40	11.443	81.300	0.6162	8.4
2168	AB07CD0350	WETLAND SAL01	SALINE (FEN)	56.573903999999998859493643976747989654541015625	-111.277773999999993748133420012891292572021484375	HOBO Rain Gauge Data Logger - RG3	HOBO Temperature/RH Smart Sensor (S-THB-M002)	Soil Moisture Smart Sensor - EC5 (S-SMC-M005)	2019-08-09T19:00:01	0.00	12.896	86.500	0.6162	10.7
2169	AB07CD0350	WETLAND SAL01	SALINE (FEN)	56.573903999999998859493643976747989654541015625	-111.277773999999993748133420012891292572021484375	HOBO Rain Gauge Data Logger - RG3	HOBO Temperature/RH Smart Sensor (S-THB-M002)	Soil Moisture Smart Sensor - EC5 (S-SMC-M005)	2019-08-09T20:00:01	0.40	11.029	82.700	0.6162	8.2
2170	AB07CD0350	WETLAND SAL01	SALINE (FEN)	56.573903999999998859493643976747989654541015625	-111.277773999999993748133420012891292572021484375	HOBO Rain Gauge Data Logger - RG3	HOBO Temperature/RH Smart Sensor (S-THB-M002)	Soil Moisture Smart Sensor - EC5 (S-SMC-M005)	2019-08-09T21:00:01	0.00	11.419	85.800	0.6162	9.1
2171	AB07CD0350	WETLAND SAL01	SALINE (FEN)	56.573903999999998859493643976747989654541015625	-111.277773999999993748133420012891292572021484375	HOBO Rain Gauge Data Logger - RG3	HOBO Temperature/RH Smart Sensor (S-THB-M002)	Soil Moisture Smart Sensor - EC5 (S-SMC-M005)	2019-08-09T22:00:01	0.20	10.124	85.800	0.6162	7.9
2172	AB07CD0350	WETLAND SAL01	SALINE (FEN)	56.573903999999998859493643976747989654541015625	-111.277773999999993748133420012891292572021484375	HOBO Rain Gauge Data Logger - RG3	HOBO Temperature/RH Smart Sensor (S-THB-M002)	Soil Moisture Smart Sensor - EC5 (S-SMC-M005)	2019-08-09T23:00:01	0.00	9.336	88.600	0.6162	7.6
2173	AB07CD0350	WETLAND SAL01	SALINE (FEN)	56.573903999999998859493643976747989654541015625	-111.277773999999993748133420012891292572021484375	HOBO Rain Gauge Data Logger - RG3	HOBO Temperature/RH Smart Sensor (S-THB-M002)	Soil Moisture Smart Sensor - EC5 (S-SMC-M005)	2019-08-10T00:00:01	0.00	8.593	88.900	0.6162	6.9
2174	AB07CD0350	WETLAND SAL01	SALINE (FEN)	56.573903999999998859493643976747989654541015625	-111.277773999999993748133420012891292572021484375	HOBO Rain Gauge Data Logger - RG3	HOBO Temperature/RH Smart Sensor (S-THB-M002)	Soil Moisture Smart Sensor - EC5 (S-SMC-M005)	2019-08-10T01:00:01	0.00	8.170	92.500	0.6169	7.0
2175	AB07CD0350	WETLAND SAL01	SALINE (FEN)	56.573903999999998859493643976747989654541015625	-111.277773999999993748133420012891292572021484375	HOBO Rain Gauge Data Logger - RG3	HOBO Temperature/RH Smart Sensor (S-THB-M002)	Soil Moisture Smart Sensor - EC5 (S-SMC-M005)	2019-08-10T02:00:01	0.00	6.864	93.300	0.6169	5.9
2176	AB07CD0350	WETLAND SAL01	SALINE (FEN)	56.573903999999998859493643976747989654541015625	-111.277773999999993748133420012891292572021484375	HOBO Rain Gauge Data Logger - RG3	HOBO Temperature/RH Smart Sensor (S-THB-M002)	Soil Moisture Smart Sensor - EC5 (S-SMC-M005)	2019-08-10T03:00:01	0.00	5.975	94.000	0.6169	5.1
2177	AB07CD0350	WETLAND SAL01	SALINE (FEN)	56.573903999999998859493643976747989654541015625	-111.277773999999993748133420012891292572021484375	HOBO Rain Gauge Data Logger - RG3	HOBO Temperature/RH Smart Sensor (S-THB-M002)	Soil Moisture Smart Sensor - EC5 (S-SMC-M005)	2019-08-10T04:00:01	0.00	6.788	94.600	0.6169	6.0
2178	AB07CD0350	WETLAND SAL01	SALINE (FEN)	56.573903999999998859493643976747989654541015625	-111.277773999999993748133420012891292572021484375	HOBO Rain Gauge Data Logger - RG3	HOBO Temperature/RH Smart Sensor (S-THB-M002)	Soil Moisture Smart Sensor - EC5 (S-SMC-M005)	2019-08-10T05:00:01	0.00	5.205	94.600	0.6169	4.4
2179	AB07CD0350	WETLAND SAL01	SALINE (FEN)	56.573903999999998859493643976747989654541015625	-111.277773999999993748133420012891292572021484375	HOBO Rain Gauge Data Logger - RG3	HOBO Temperature/RH Smart Sensor (S-THB-M002)	Soil Moisture Smart Sensor - EC5 (S-SMC-M005)	2019-08-10T06:00:01	0.00	4.662	96.000	0.6169	4.1
2180	AB07CD0350	WETLAND SAL01	SALINE (FEN)	56.573903999999998859493643976747989654541015625	-111.277773999999993748133420012891292572021484375	HOBO Rain Gauge Data Logger - RG3	HOBO Temperature/RH Smart Sensor (S-THB-M002)	Soil Moisture Smart Sensor - EC5 (S-SMC-M005)	2019-08-10T07:00:01	0.00	6.179	94.200	0.6162	5.3
2181	AB07CD0350	WETLAND SAL01	SALINE (FEN)	56.573903999999998859493643976747989654541015625	-111.277773999999993748133420012891292572021484375	HOBO Rain Gauge Data Logger - RG3	HOBO Temperature/RH Smart Sensor (S-THB-M002)	Soil Moisture Smart Sensor - EC5 (S-SMC-M005)	2019-08-10T08:00:01	0.00	7.619	90.600	0.6162	6.2
2182	AB07CD0350	WETLAND SAL01	SALINE (FEN)	56.573903999999998859493643976747989654541015625	-111.277773999999993748133420012891292572021484375	HOBO Rain Gauge Data Logger - RG3	HOBO Temperature/RH Smart Sensor (S-THB-M002)	Soil Moisture Smart Sensor - EC5 (S-SMC-M005)	2019-08-10T09:00:01	0.00	10.100	87.300	0.6162	8.1
2183	AB07CD0350	WETLAND SAL01	SALINE (FEN)	56.573903999999998859493643976747989654541015625	-111.277773999999993748133420012891292572021484375	HOBO Rain Gauge Data Logger - RG3	HOBO Temperature/RH Smart Sensor (S-THB-M002)	Soil Moisture Smart Sensor - EC5 (S-SMC-M005)	2019-08-10T10:00:01	0.00	12.751	75.400	0.6162	8.5
2184	AB07CD0350	WETLAND SAL01	SALINE (FEN)	56.573903999999998859493643976747989654541015625	-111.277773999999993748133420012891292572021484375	HOBO Rain Gauge Data Logger - RG3	HOBO Temperature/RH Smart Sensor (S-THB-M002)	Soil Moisture Smart Sensor - EC5 (S-SMC-M005)	2019-08-10T11:00:01	0.00	13.954	68.500	0.6162	8.3
2185	AB07CD0350	WETLAND SAL01	SALINE (FEN)	56.573903999999998859493643976747989654541015625	-111.277773999999993748133420012891292572021484375	HOBO Rain Gauge Data Logger - RG3	HOBO Temperature/RH Smart Sensor (S-THB-M002)	Soil Moisture Smart Sensor - EC5 (S-SMC-M005)	2019-08-10T12:00:01	0.00	15.986	60.500	0.6162	8.4
2186	AB07CD0350	WETLAND SAL01	SALINE (FEN)	56.573903999999998859493643976747989654541015625	-111.277773999999993748133420012891292572021484375	HOBO Rain Gauge Data Logger - RG3	HOBO Temperature/RH Smart Sensor (S-THB-M002)	Soil Moisture Smart Sensor - EC5 (S-SMC-M005)	2019-08-10T13:00:01	0.00	15.629	55.700	0.6155	6.8
2187	AB07CD0350	WETLAND SAL01	SALINE (FEN)	56.573903999999998859493643976747989654541015625	-111.277773999999993748133420012891292572021484375	HOBO Rain Gauge Data Logger - RG3	HOBO Temperature/RH Smart Sensor (S-THB-M002)	Soil Moisture Smart Sensor - EC5 (S-SMC-M005)	2019-08-10T14:00:01	0.00	15.986	53.800	0.6155	6.6
2188	AB07CD0350	WETLAND SAL01	SALINE (FEN)	56.573903999999998859493643976747989654541015625	-111.277773999999993748133420012891292572021484375	HOBO Rain Gauge Data Logger - RG3	HOBO Temperature/RH Smart Sensor (S-THB-M002)	Soil Moisture Smart Sensor - EC5 (S-SMC-M005)	2019-08-10T15:00:01	0.00	18.461	51.800	0.6155	8.4
2189	AB07CD0350	WETLAND SAL01	SALINE (FEN)	56.573903999999998859493643976747989654541015625	-111.277773999999993748133420012891292572021484375	HOBO Rain Gauge Data Logger - RG3	HOBO Temperature/RH Smart Sensor (S-THB-M002)	Soil Moisture Smart Sensor - EC5 (S-SMC-M005)	2019-08-10T16:00:01	0.00	18.105	50.500	0.6155	7.7
2190	AB07CD0350	WETLAND SAL01	SALINE (FEN)	56.573903999999998859493643976747989654541015625	-111.277773999999993748133420012891292572021484375	HOBO Rain Gauge Data Logger - RG3	HOBO Temperature/RH Smart Sensor (S-THB-M002)	Soil Moisture Smart Sensor - EC5 (S-SMC-M005)	2019-08-10T17:00:01	0.00	19.151	47.800	0.6155	7.8
2191	AB07CD0350	WETLAND SAL01	SALINE (FEN)	56.573903999999998859493643976747989654541015625	-111.277773999999993748133420012891292572021484375	HOBO Rain Gauge Data Logger - RG3	HOBO Temperature/RH Smart Sensor (S-THB-M002)	Soil Moisture Smart Sensor - EC5 (S-SMC-M005)	2019-08-10T18:00:01	0.00	18.652	46.300	0.6155	6.9
2192	AB07CD0350	WETLAND SAL01	SALINE (FEN)	56.573903999999998859493643976747989654541015625	-111.277773999999993748133420012891292572021484375	HOBO Rain Gauge Data Logger - RG3	HOBO Temperature/RH Smart Sensor (S-THB-M002)	Soil Moisture Smart Sensor - EC5 (S-SMC-M005)	2019-08-10T19:00:01	0.00	18.961	47.000	0.6155	7.4
2193	AB07CD0350	WETLAND SAL01	SALINE (FEN)	56.573903999999998859493643976747989654541015625	-111.277773999999993748133420012891292572021484375	HOBO Rain Gauge Data Logger - RG3	HOBO Temperature/RH Smart Sensor (S-THB-M002)	Soil Moisture Smart Sensor - EC5 (S-SMC-M005)	2019-08-10T20:00:01	0.00	17.106	47.800	0.6155	6.0
2194	AB07CD0350	WETLAND SAL01	SALINE (FEN)	56.573903999999998859493643976747989654541015625	-111.277773999999993748133420012891292572021484375	HOBO Rain Gauge Data Logger - RG3	HOBO Temperature/RH Smart Sensor (S-THB-M002)	Soil Moisture Smart Sensor - EC5 (S-SMC-M005)	2019-08-10T21:00:01	0.00	12.147	59.200	0.6155	4.4
2195	AB07CD0350	WETLAND SAL01	SALINE (FEN)	56.573903999999998859493643976747989654541015625	-111.277773999999993748133420012891292572021484375	HOBO Rain Gauge Data Logger - RG3	HOBO Temperature/RH Smart Sensor (S-THB-M002)	Soil Moisture Smart Sensor - EC5 (S-SMC-M005)	2019-08-10T22:00:01	0.00	8.369	80.300	0.6155	5.2
2196	AB07CD0350	WETLAND SAL01	SALINE (FEN)	56.573903999999998859493643976747989654541015625	-111.277773999999993748133420012891292572021484375	HOBO Rain Gauge Data Logger - RG3	HOBO Temperature/RH Smart Sensor (S-THB-M002)	Soil Moisture Smart Sensor - EC5 (S-SMC-M005)	2019-08-10T23:00:01	0.00	7.368	84.700	0.6162	5.0
2197	AB07CD0350	WETLAND SAL01	SALINE (FEN)	56.573903999999998859493643976747989654541015625	-111.277773999999993748133420012891292572021484375	HOBO Rain Gauge Data Logger - RG3	HOBO Temperature/RH Smart Sensor (S-THB-M002)	Soil Moisture Smart Sensor - EC5 (S-SMC-M005)	2019-08-11T00:00:01	0.00	6.306	85.300	0.6162	4.0
2198	AB07CD0350	WETLAND SAL01	SALINE (FEN)	56.573903999999998859493643976747989654541015625	-111.277773999999993748133420012891292572021484375	HOBO Rain Gauge Data Logger - RG3	HOBO Temperature/RH Smart Sensor (S-THB-M002)	Soil Moisture Smart Sensor - EC5 (S-SMC-M005)	2019-08-11T01:00:01	0.00	4.428	90.300	0.6162	3.0
2199	AB07CD0350	WETLAND SAL01	SALINE (FEN)	56.573903999999998859493643976747989654541015625	-111.277773999999993748133420012891292572021484375	HOBO Rain Gauge Data Logger - RG3	HOBO Temperature/RH Smart Sensor (S-THB-M002)	Soil Moisture Smart Sensor - EC5 (S-SMC-M005)	2019-08-11T02:00:01	0.00	8.195	91.400	0.6162	6.9
2200	AB07CD0350	WETLAND SAL01	SALINE (FEN)	56.573903999999998859493643976747989654541015625	-111.277773999999993748133420012891292572021484375	HOBO Rain Gauge Data Logger - RG3	HOBO Temperature/RH Smart Sensor (S-THB-M002)	Soil Moisture Smart Sensor - EC5 (S-SMC-M005)	2019-08-11T03:00:01	0.00	5.334	89.300	0.6162	3.7
2201	AB07CD0350	WETLAND SAL01	SALINE (FEN)	56.573903999999998859493643976747989654541015625	-111.277773999999993748133420012891292572021484375	HOBO Rain Gauge Data Logger - RG3	HOBO Temperature/RH Smart Sensor (S-THB-M002)	Soil Moisture Smart Sensor - EC5 (S-SMC-M005)	2019-08-11T04:00:01	0.00	2.930	93.900	0.6162	2.0
2202	AB07CD0350	WETLAND SAL01	SALINE (FEN)	56.573903999999998859493643976747989654541015625	-111.277773999999993748133420012891292572021484375	HOBO Rain Gauge Data Logger - RG3	HOBO Temperature/RH Smart Sensor (S-THB-M002)	Soil Moisture Smart Sensor - EC5 (S-SMC-M005)	2019-08-11T05:00:01	0.00	1.778	95.400	0.6162	1.1
2203	AB07CD0350	WETLAND SAL01	SALINE (FEN)	56.573903999999998859493643976747989654541015625	-111.277773999999993748133420012891292572021484375	HOBO Rain Gauge Data Logger - RG3	HOBO Temperature/RH Smart Sensor (S-THB-M002)	Soil Moisture Smart Sensor - EC5 (S-SMC-M005)	2019-08-11T06:00:01	0.00	1.126	95.900	0.6162	0.5
2204	AB07CD0350	WETLAND SAL01	SALINE (FEN)	56.573903999999998859493643976747989654541015625	-111.277773999999993748133420012891292572021484375	HOBO Rain Gauge Data Logger - RG3	HOBO Temperature/RH Smart Sensor (S-THB-M002)	Soil Moisture Smart Sensor - EC5 (S-SMC-M005)	2019-08-11T07:00:01	0.00	5.745	95.900	0.6162	5.1
2205	AB07CD0350	WETLAND SAL01	SALINE (FEN)	56.573903999999998859493643976747989654541015625	-111.277773999999993748133420012891292572021484375	HOBO Rain Gauge Data Logger - RG3	HOBO Temperature/RH Smart Sensor (S-THB-M002)	Soil Moisture Smart Sensor - EC5 (S-SMC-M005)	2019-08-11T08:00:01	0.00	9.312	93.100	0.6162	8.3
2206	AB07CD0350	WETLAND SAL01	SALINE (FEN)	56.573903999999998859493643976747989654541015625	-111.277773999999993748133420012891292572021484375	HOBO Rain Gauge Data Logger - RG3	HOBO Temperature/RH Smart Sensor (S-THB-M002)	Soil Moisture Smart Sensor - EC5 (S-SMC-M005)	2019-08-11T09:00:01	0.00	12.968	85.000	0.6162	10.5
2207	AB07CD0350	WETLAND SAL01	SALINE (FEN)	56.573903999999998859493643976747989654541015625	-111.277773999999993748133420012891292572021484375	HOBO Rain Gauge Data Logger - RG3	HOBO Temperature/RH Smart Sensor (S-THB-M002)	Soil Moisture Smart Sensor - EC5 (S-SMC-M005)	2019-08-11T10:00:01	0.00	14.792	75.300	0.6162	10.5
2208	AB07CD0350	WETLAND SAL01	SALINE (FEN)	56.573903999999998859493643976747989654541015625	-111.277773999999993748133420012891292572021484375	HOBO Rain Gauge Data Logger - RG3	HOBO Temperature/RH Smart Sensor (S-THB-M002)	Soil Moisture Smart Sensor - EC5 (S-SMC-M005)	2019-08-11T11:00:01	0.00	16.487	71.000	0.6155	11.2
2209	AB07CD0350	WETLAND SAL01	SALINE (FEN)	56.573903999999998859493643976747989654541015625	-111.277773999999993748133420012891292572021484375	HOBO Rain Gauge Data Logger - RG3	HOBO Temperature/RH Smart Sensor (S-THB-M002)	Soil Moisture Smart Sensor - EC5 (S-SMC-M005)	2019-08-11T12:00:01	0.00	17.082	61.600	0.6155	9.7
2210	AB07CD0350	WETLAND SAL01	SALINE (FEN)	56.573903999999998859493643976747989654541015625	-111.277773999999993748133420012891292572021484375	HOBO Rain Gauge Data Logger - RG3	HOBO Temperature/RH Smart Sensor (S-THB-M002)	Soil Moisture Smart Sensor - EC5 (S-SMC-M005)	2019-08-11T13:00:01	0.00	17.011	56.800	0.6155	8.4
2211	AB07CD0350	WETLAND SAL01	SALINE (FEN)	56.573903999999998859493643976747989654541015625	-111.277773999999993748133420012891292572021484375	HOBO Rain Gauge Data Logger - RG3	HOBO Temperature/RH Smart Sensor (S-THB-M002)	Soil Moisture Smart Sensor - EC5 (S-SMC-M005)	2019-08-11T14:00:01	0.00	17.225	57.900	0.6155	8.9
2212	AB07CD0350	WETLAND SAL01	SALINE (FEN)	56.573903999999998859493643976747989654541015625	-111.277773999999993748133420012891292572021484375	HOBO Rain Gauge Data Logger - RG3	HOBO Temperature/RH Smart Sensor (S-THB-M002)	Soil Moisture Smart Sensor - EC5 (S-SMC-M005)	2019-08-11T15:00:01	0.00	17.249	58.700	0.6155	9.1
2213	AB07CD0350	WETLAND SAL01	SALINE (FEN)	56.573903999999998859493643976747989654541015625	-111.277773999999993748133420012891292572021484375	HOBO Rain Gauge Data Logger - RG3	HOBO Temperature/RH Smart Sensor (S-THB-M002)	Soil Moisture Smart Sensor - EC5 (S-SMC-M005)	2019-08-11T16:00:01	0.00	16.844	61.400	0.6155	9.4
2214	AB07CD0350	WETLAND SAL01	SALINE (FEN)	56.573903999999998859493643976747989654541015625	-111.277773999999993748133420012891292572021484375	HOBO Rain Gauge Data Logger - RG3	HOBO Temperature/RH Smart Sensor (S-THB-M002)	Soil Moisture Smart Sensor - EC5 (S-SMC-M005)	2019-08-11T17:00:01	0.00	16.892	65.100	0.6155	10.3
2215	AB07CD0350	WETLAND SAL01	SALINE (FEN)	56.573903999999998859493643976747989654541015625	-111.277773999999993748133420012891292572021484375	HOBO Rain Gauge Data Logger - RG3	HOBO Temperature/RH Smart Sensor (S-THB-M002)	Soil Moisture Smart Sensor - EC5 (S-SMC-M005)	2019-08-11T18:00:01	0.00	16.582	64.400	0.6155	9.9
2216	AB07CD0350	WETLAND SAL01	SALINE (FEN)	56.573903999999998859493643976747989654541015625	-111.277773999999993748133420012891292572021484375	HOBO Rain Gauge Data Logger - RG3	HOBO Temperature/RH Smart Sensor (S-THB-M002)	Soil Moisture Smart Sensor - EC5 (S-SMC-M005)	2019-08-11T19:00:01	0.00	15.843	65.100	0.6155	9.3
2217	AB07CD0350	WETLAND SAL01	SALINE (FEN)	56.573903999999998859493643976747989654541015625	-111.277773999999993748133420012891292572021484375	HOBO Rain Gauge Data Logger - RG3	HOBO Temperature/RH Smart Sensor (S-THB-M002)	Soil Moisture Smart Sensor - EC5 (S-SMC-M005)	2019-08-11T20:00:01	0.00	14.960	69.400	0.6155	9.4
2218	AB07CD0350	WETLAND SAL01	SALINE (FEN)	56.573903999999998859493643976747989654541015625	-111.277773999999993748133420012891292572021484375	HOBO Rain Gauge Data Logger - RG3	HOBO Temperature/RH Smart Sensor (S-THB-M002)	Soil Moisture Smart Sensor - EC5 (S-SMC-M005)	2019-08-11T21:00:01	0.00	14.146	72.900	0.6155	9.4
2219	AB07CD0350	WETLAND SAL01	SALINE (FEN)	56.573903999999998859493643976747989654541015625	-111.277773999999993748133420012891292572021484375	HOBO Rain Gauge Data Logger - RG3	HOBO Temperature/RH Smart Sensor (S-THB-M002)	Soil Moisture Smart Sensor - EC5 (S-SMC-M005)	2019-08-11T22:00:01	0.00	12.582	81.900	0.6155	9.6
2220	AB07CD0350	WETLAND SAL01	SALINE (FEN)	56.573903999999998859493643976747989654541015625	-111.277773999999993748133420012891292572021484375	HOBO Rain Gauge Data Logger - RG3	HOBO Temperature/RH Smart Sensor (S-THB-M002)	Soil Moisture Smart Sensor - EC5 (S-SMC-M005)	2019-08-11T23:00:01	0.00	13.112	81.700	0.6155	10.1
2221	AB07CD0350	WETLAND SAL01	SALINE (FEN)	56.573903999999998859493643976747989654541015625	-111.277773999999993748133420012891292572021484375	HOBO Rain Gauge Data Logger - RG3	HOBO Temperature/RH Smart Sensor (S-THB-M002)	Soil Moisture Smart Sensor - EC5 (S-SMC-M005)	2019-08-12T00:00:01	0.20	12.509	81.600	0.6155	9.5
2222	AB07CD0350	WETLAND SAL01	SALINE (FEN)	56.573903999999998859493643976747989654541015625	-111.277773999999993748133420012891292572021484375	HOBO Rain Gauge Data Logger - RG3	HOBO Temperature/RH Smart Sensor (S-THB-M002)	Soil Moisture Smart Sensor - EC5 (S-SMC-M005)	2019-08-12T01:00:01	0.00	12.195	87.200	0.6155	10.1
2223	AB07CD0350	WETLAND SAL01	SALINE (FEN)	56.573903999999998859493643976747989654541015625	-111.277773999999993748133420012891292572021484375	HOBO Rain Gauge Data Logger - RG3	HOBO Temperature/RH Smart Sensor (S-THB-M002)	Soil Moisture Smart Sensor - EC5 (S-SMC-M005)	2019-08-12T02:00:01	0.00	12.098	87.500	0.6155	10.1
2224	AB07CD0350	WETLAND SAL01	SALINE (FEN)	56.573903999999998859493643976747989654541015625	-111.277773999999993748133420012891292572021484375	HOBO Rain Gauge Data Logger - RG3	HOBO Temperature/RH Smart Sensor (S-THB-M002)	Soil Moisture Smart Sensor - EC5 (S-SMC-M005)	2019-08-12T03:00:01	0.00	12.050	87.000	0.6155	10.0
2225	AB07CD0350	WETLAND SAL01	SALINE (FEN)	56.573903999999998859493643976747989654541015625	-111.277773999999993748133420012891292572021484375	HOBO Rain Gauge Data Logger - RG3	HOBO Temperature/RH Smart Sensor (S-THB-M002)	Soil Moisture Smart Sensor - EC5 (S-SMC-M005)	2019-08-12T04:00:01	0.00	11.492	88.400	0.6155	9.7
2226	AB07CD0350	WETLAND SAL01	SALINE (FEN)	56.573903999999998859493643976747989654541015625	-111.277773999999993748133420012891292572021484375	HOBO Rain Gauge Data Logger - RG3	HOBO Temperature/RH Smart Sensor (S-THB-M002)	Soil Moisture Smart Sensor - EC5 (S-SMC-M005)	2019-08-12T05:00:01	0.00	11.321	88.400	0.6155	9.5
2227	AB07CD0350	WETLAND SAL01	SALINE (FEN)	56.573903999999998859493643976747989654541015625	-111.277773999999993748133420012891292572021484375	HOBO Rain Gauge Data Logger - RG3	HOBO Temperature/RH Smart Sensor (S-THB-M002)	Soil Moisture Smart Sensor - EC5 (S-SMC-M005)	2019-08-12T06:00:01	0.00	11.492	89.500	0.6155	9.8
2228	AB07CD0350	WETLAND SAL01	SALINE (FEN)	56.573903999999998859493643976747989654541015625	-111.277773999999993748133420012891292572021484375	HOBO Rain Gauge Data Logger - RG3	HOBO Temperature/RH Smart Sensor (S-THB-M002)	Soil Moisture Smart Sensor - EC5 (S-SMC-M005)	2019-08-12T07:00:01	0.00	11.467	89.900	0.6155	9.9
2229	AB07CD0350	WETLAND SAL01	SALINE (FEN)	56.573903999999998859493643976747989654541015625	-111.277773999999993748133420012891292572021484375	HOBO Rain Gauge Data Logger - RG3	HOBO Temperature/RH Smart Sensor (S-THB-M002)	Soil Moisture Smart Sensor - EC5 (S-SMC-M005)	2019-08-12T08:00:01	0.00	12.678	90.700	0.6155	11.2
2230	AB07CD0350	WETLAND SAL01	SALINE (FEN)	56.573903999999998859493643976747989654541015625	-111.277773999999993748133420012891292572021484375	HOBO Rain Gauge Data Logger - RG3	HOBO Temperature/RH Smart Sensor (S-THB-M002)	Soil Moisture Smart Sensor - EC5 (S-SMC-M005)	2019-08-12T09:00:01	0.00	14.218	88.800	0.6155	12.4
2231	AB07CD0350	WETLAND SAL01	SALINE (FEN)	56.573903999999998859493643976747989654541015625	-111.277773999999993748133420012891292572021484375	HOBO Rain Gauge Data Logger - RG3	HOBO Temperature/RH Smart Sensor (S-THB-M002)	Soil Moisture Smart Sensor - EC5 (S-SMC-M005)	2019-08-12T10:00:01	0.00	18.033	82.900	0.6155	15.1
2232	AB07CD0350	WETLAND SAL01	SALINE (FEN)	56.573903999999998859493643976747989654541015625	-111.277773999999993748133420012891292572021484375	HOBO Rain Gauge Data Logger - RG3	HOBO Temperature/RH Smart Sensor (S-THB-M002)	Soil Moisture Smart Sensor - EC5 (S-SMC-M005)	2019-08-12T11:00:01	0.00	18.081	70.800	0.6155	12.7
2233	AB07CD0350	WETLAND SAL01	SALINE (FEN)	56.573903999999998859493643976747989654541015625	-111.277773999999993748133420012891292572021484375	HOBO Rain Gauge Data Logger - RG3	HOBO Temperature/RH Smart Sensor (S-THB-M002)	Soil Moisture Smart Sensor - EC5 (S-SMC-M005)	2019-08-12T12:00:01	0.00	18.461	69.400	0.6155	12.8
2234	AB07CD0350	WETLAND SAL01	SALINE (FEN)	56.573903999999998859493643976747989654541015625	-111.277773999999993748133420012891292572021484375	HOBO Rain Gauge Data Logger - RG3	HOBO Temperature/RH Smart Sensor (S-THB-M002)	Soil Moisture Smart Sensor - EC5 (S-SMC-M005)	2019-08-12T13:00:01	0.00	19.888	70.900	0.6155	14.5
2235	AB07CD0350	WETLAND SAL01	SALINE (FEN)	56.573903999999998859493643976747989654541015625	-111.277773999999993748133420012891292572021484375	HOBO Rain Gauge Data Logger - RG3	HOBO Temperature/RH Smart Sensor (S-THB-M002)	Soil Moisture Smart Sensor - EC5 (S-SMC-M005)	2019-08-12T14:00:01	0.00	20.269	63.500	0.6155	13.1
2236	AB07CD0350	WETLAND SAL01	SALINE (FEN)	56.573903999999998859493643976747989654541015625	-111.277773999999993748133420012891292572021484375	HOBO Rain Gauge Data Logger - RG3	HOBO Temperature/RH Smart Sensor (S-THB-M002)	Soil Moisture Smart Sensor - EC5 (S-SMC-M005)	2019-08-12T15:00:01	0.00	20.174	61.300	0.6155	12.5
2237	AB07CD0350	WETLAND SAL01	SALINE (FEN)	56.573903999999998859493643976747989654541015625	-111.277773999999993748133420012891292572021484375	HOBO Rain Gauge Data Logger - RG3	HOBO Temperature/RH Smart Sensor (S-THB-M002)	Soil Moisture Smart Sensor - EC5 (S-SMC-M005)	2019-08-12T16:00:01	1.20	20.269	72.900	0.6155	15.3
2238	AB07CD0350	WETLAND SAL01	SALINE (FEN)	56.573903999999998859493643976747989654541015625	-111.277773999999993748133420012891292572021484375	HOBO Rain Gauge Data Logger - RG3	HOBO Temperature/RH Smart Sensor (S-THB-M002)	Soil Moisture Smart Sensor - EC5 (S-SMC-M005)	2019-08-12T17:00:01	11.00	14.697	80.500	0.6162	11.4
2239	AB07CD0350	WETLAND SAL01	SALINE (FEN)	56.573903999999998859493643976747989654541015625	-111.277773999999993748133420012891292572021484375	HOBO Rain Gauge Data Logger - RG3	HOBO Temperature/RH Smart Sensor (S-THB-M002)	Soil Moisture Smart Sensor - EC5 (S-SMC-M005)	2019-08-12T18:00:01	0.00	16.606	88.400	0.6162	14.7
2240	AB07CD0350	WETLAND SAL01	SALINE (FEN)	56.573903999999998859493643976747989654541015625	-111.277773999999993748133420012891292572021484375	HOBO Rain Gauge Data Logger - RG3	HOBO Temperature/RH Smart Sensor (S-THB-M002)	Soil Moisture Smart Sensor - EC5 (S-SMC-M005)	2019-08-12T19:00:01	0.00	17.249	87.200	0.6162	15.1
2241	AB07CD0350	WETLAND SAL01	SALINE (FEN)	56.573903999999998859493643976747989654541015625	-111.277773999999993748133420012891292572021484375	HOBO Rain Gauge Data Logger - RG3	HOBO Temperature/RH Smart Sensor (S-THB-M002)	Soil Moisture Smart Sensor - EC5 (S-SMC-M005)	2019-08-12T20:00:01	0.00	17.439	85.600	0.6162	15.0
2242	AB07CD0350	WETLAND SAL01	SALINE (FEN)	56.573903999999998859493643976747989654541015625	-111.277773999999993748133420012891292572021484375	HOBO Rain Gauge Data Logger - RG3	HOBO Temperature/RH Smart Sensor (S-THB-M002)	Soil Moisture Smart Sensor - EC5 (S-SMC-M005)	2019-08-12T21:00:01	0.00	15.891	88.900	0.6162	14.1
2243	AB07CD0350	WETLAND SAL01	SALINE (FEN)	56.573903999999998859493643976747989654541015625	-111.277773999999993748133420012891292572021484375	HOBO Rain Gauge Data Logger - RG3	HOBO Temperature/RH Smart Sensor (S-THB-M002)	Soil Moisture Smart Sensor - EC5 (S-SMC-M005)	2019-08-12T22:00:01	0.00	14.936	91.700	0.6162	13.6
2244	AB07CD0350	WETLAND SAL01	SALINE (FEN)	56.573903999999998859493643976747989654541015625	-111.277773999999993748133420012891292572021484375	HOBO Rain Gauge Data Logger - RG3	HOBO Temperature/RH Smart Sensor (S-THB-M002)	Soil Moisture Smart Sensor - EC5 (S-SMC-M005)	2019-08-12T23:00:01	0.00	13.570	92.400	0.6162	12.4
2245	AB07CD0350	WETLAND SAL01	SALINE (FEN)	56.573903999999998859493643976747989654541015625	-111.277773999999993748133420012891292572021484375	HOBO Rain Gauge Data Logger - RG3	HOBO Temperature/RH Smart Sensor (S-THB-M002)	Soil Moisture Smart Sensor - EC5 (S-SMC-M005)	2019-08-13T00:00:01	0.00	13.522	92.700	0.6169	12.4
2246	AB07CD0350	WETLAND SAL01	SALINE (FEN)	56.573903999999998859493643976747989654541015625	-111.277773999999993748133420012891292572021484375	HOBO Rain Gauge Data Logger - RG3	HOBO Temperature/RH Smart Sensor (S-THB-M002)	Soil Moisture Smart Sensor - EC5 (S-SMC-M005)	2019-08-13T01:00:01	0.00	13.642	89.500	0.6169	12.0
2247	AB07CD0350	WETLAND SAL01	SALINE (FEN)	56.573903999999998859493643976747989654541015625	-111.277773999999993748133420012891292572021484375	HOBO Rain Gauge Data Logger - RG3	HOBO Temperature/RH Smart Sensor (S-THB-M002)	Soil Moisture Smart Sensor - EC5 (S-SMC-M005)	2019-08-13T02:00:01	0.00	14.122	89.000	0.6169	12.4
2248	AB07CD0350	WETLAND SAL01	SALINE (FEN)	56.573903999999998859493643976747989654541015625	-111.277773999999993748133420012891292572021484375	HOBO Rain Gauge Data Logger - RG3	HOBO Temperature/RH Smart Sensor (S-THB-M002)	Soil Moisture Smart Sensor - EC5 (S-SMC-M005)	2019-08-13T03:00:01	0.20	14.529	91.100	0.6169	13.1
2249	AB07CD0350	WETLAND SAL01	SALINE (FEN)	56.573903999999998859493643976747989654541015625	-111.277773999999993748133420012891292572021484375	HOBO Rain Gauge Data Logger - RG3	HOBO Temperature/RH Smart Sensor (S-THB-M002)	Soil Moisture Smart Sensor - EC5 (S-SMC-M005)	2019-08-13T04:00:01	0.00	14.266	93.500	0.6169	13.2
2250	AB07CD0350	WETLAND SAL01	SALINE (FEN)	56.573903999999998859493643976747989654541015625	-111.277773999999993748133420012891292572021484375	HOBO Rain Gauge Data Logger - RG3	HOBO Temperature/RH Smart Sensor (S-THB-M002)	Soil Moisture Smart Sensor - EC5 (S-SMC-M005)	2019-08-13T05:00:01	0.20	14.074	95.100	0.6169	13.3
2251	AB07CD0350	WETLAND SAL01	SALINE (FEN)	56.573903999999998859493643976747989654541015625	-111.277773999999993748133420012891292572021484375	HOBO Rain Gauge Data Logger - RG3	HOBO Temperature/RH Smart Sensor (S-THB-M002)	Soil Moisture Smart Sensor - EC5 (S-SMC-M005)	2019-08-13T06:00:01	0.00	13.978	95.400	0.6169	13.3
2252	AB07CD0350	WETLAND SAL01	SALINE (FEN)	56.573903999999998859493643976747989654541015625	-111.277773999999993748133420012891292572021484375	HOBO Rain Gauge Data Logger - RG3	HOBO Temperature/RH Smart Sensor (S-THB-M002)	Soil Moisture Smart Sensor - EC5 (S-SMC-M005)	2019-08-13T07:00:01	0.40	14.002	95.500	0.6169	13.3
2253	AB07CD0350	WETLAND SAL01	SALINE (FEN)	56.573903999999998859493643976747989654541015625	-111.277773999999993748133420012891292572021484375	HOBO Rain Gauge Data Logger - RG3	HOBO Temperature/RH Smart Sensor (S-THB-M002)	Soil Moisture Smart Sensor - EC5 (S-SMC-M005)	2019-08-13T08:00:01	0.40	13.954	96.600	0.6169	13.4
2254	AB07CD0350	WETLAND SAL01	SALINE (FEN)	56.573903999999998859493643976747989654541015625	-111.277773999999993748133420012891292572021484375	HOBO Rain Gauge Data Logger - RG3	HOBO Temperature/RH Smart Sensor (S-THB-M002)	Soil Moisture Smart Sensor - EC5 (S-SMC-M005)	2019-08-13T09:00:01	1.20	14.170	96.800	0.6169	13.7
2255	AB07CD0350	WETLAND SAL01	SALINE (FEN)	56.573903999999998859493643976747989654541015625	-111.277773999999993748133420012891292572021484375	HOBO Rain Gauge Data Logger - RG3	HOBO Temperature/RH Smart Sensor (S-THB-M002)	Soil Moisture Smart Sensor - EC5 (S-SMC-M005)	2019-08-13T10:00:01	0.20	14.745	96.400	0.6169	14.2
2256	AB07CD0350	WETLAND SAL01	SALINE (FEN)	56.573903999999998859493643976747989654541015625	-111.277773999999993748133420012891292572021484375	HOBO Rain Gauge Data Logger - RG3	HOBO Temperature/RH Smart Sensor (S-THB-M002)	Soil Moisture Smart Sensor - EC5 (S-SMC-M005)	2019-08-13T11:00:01	0.00	15.819	94.600	0.6169	15.0
2257	AB07CD0350	WETLAND SAL01	SALINE (FEN)	56.573903999999998859493643976747989654541015625	-111.277773999999993748133420012891292572021484375	HOBO Rain Gauge Data Logger - RG3	HOBO Temperature/RH Smart Sensor (S-THB-M002)	Soil Moisture Smart Sensor - EC5 (S-SMC-M005)	2019-08-13T12:00:01	0.00	17.296	90.100	0.6169	15.7
2258	AB07CD0350	WETLAND SAL01	SALINE (FEN)	56.573903999999998859493643976747989654541015625	-111.277773999999993748133420012891292572021484375	HOBO Rain Gauge Data Logger - RG3	HOBO Temperature/RH Smart Sensor (S-THB-M002)	Soil Moisture Smart Sensor - EC5 (S-SMC-M005)	2019-08-13T13:00:01	0.00	19.651	81.600	0.6169	16.4
2259	AB07CD0350	WETLAND SAL01	SALINE (FEN)	56.573903999999998859493643976747989654541015625	-111.277773999999993748133420012891292572021484375	HOBO Rain Gauge Data Logger - RG3	HOBO Temperature/RH Smart Sensor (S-THB-M002)	Soil Moisture Smart Sensor - EC5 (S-SMC-M005)	2019-08-13T14:00:01	0.00	20.793	74.100	0.6169	16.0
2260	AB07CD0350	WETLAND SAL01	SALINE (FEN)	56.573903999999998859493643976747989654541015625	-111.277773999999993748133420012891292572021484375	HOBO Rain Gauge Data Logger - RG3	HOBO Temperature/RH Smart Sensor (S-THB-M002)	Soil Moisture Smart Sensor - EC5 (S-SMC-M005)	2019-08-13T15:00:01	0.00	20.388	64.900	0.6162	13.6
2261	AB07CD0350	WETLAND SAL01	SALINE (FEN)	56.573903999999998859493643976747989654541015625	-111.277773999999993748133420012891292572021484375	HOBO Rain Gauge Data Logger - RG3	HOBO Temperature/RH Smart Sensor (S-THB-M002)	Soil Moisture Smart Sensor - EC5 (S-SMC-M005)	2019-08-13T16:00:01	0.00	22.441	62.600	0.6162	15.0
2262	AB07CD0350	WETLAND SAL01	SALINE (FEN)	56.573903999999998859493643976747989654541015625	-111.277773999999993748133420012891292572021484375	HOBO Rain Gauge Data Logger - RG3	HOBO Temperature/RH Smart Sensor (S-THB-M002)	Soil Moisture Smart Sensor - EC5 (S-SMC-M005)	2019-08-13T17:00:01	0.00	23.112	50.200	0.6162	12.2
2263	AB07CD0350	WETLAND SAL01	SALINE (FEN)	56.573903999999998859493643976747989654541015625	-111.277773999999993748133420012891292572021484375	HOBO Rain Gauge Data Logger - RG3	HOBO Temperature/RH Smart Sensor (S-THB-M002)	Soil Moisture Smart Sensor - EC5 (S-SMC-M005)	2019-08-13T18:00:01	0.00	22.705	47.500	0.6162	11.0
2264	AB07CD0350	WETLAND SAL01	SALINE (FEN)	56.573903999999998859493643976747989654541015625	-111.277773999999993748133420012891292572021484375	HOBO Rain Gauge Data Logger - RG3	HOBO Temperature/RH Smart Sensor (S-THB-M002)	Soil Moisture Smart Sensor - EC5 (S-SMC-M005)	2019-08-13T19:00:01	0.00	22.441	46.500	0.6162	10.4
2265	AB07CD0350	WETLAND SAL01	SALINE (FEN)	56.573903999999998859493643976747989654541015625	-111.277773999999993748133420012891292572021484375	HOBO Rain Gauge Data Logger - RG3	HOBO Temperature/RH Smart Sensor (S-THB-M002)	Soil Moisture Smart Sensor - EC5 (S-SMC-M005)	2019-08-13T20:00:01	0.00	20.341	50.800	0.6169	9.8
2266	AB07CD0350	WETLAND SAL01	SALINE (FEN)	56.573903999999998859493643976747989654541015625	-111.277773999999993748133420012891292572021484375	HOBO Rain Gauge Data Logger - RG3	HOBO Temperature/RH Smart Sensor (S-THB-M002)	Soil Moisture Smart Sensor - EC5 (S-SMC-M005)	2019-08-13T21:00:01	0.00	15.151	65.900	0.6169	8.8
2267	AB07CD0350	WETLAND SAL01	SALINE (FEN)	56.573903999999998859493643976747989654541015625	-111.277773999999993748133420012891292572021484375	HOBO Rain Gauge Data Logger - RG3	HOBO Temperature/RH Smart Sensor (S-THB-M002)	Soil Moisture Smart Sensor - EC5 (S-SMC-M005)	2019-08-13T22:00:01	0.00	14.960	78.600	0.6169	11.3
2268	AB07CD0350	WETLAND SAL01	SALINE (FEN)	56.573903999999998859493643976747989654541015625	-111.277773999999993748133420012891292572021484375	HOBO Rain Gauge Data Logger - RG3	HOBO Temperature/RH Smart Sensor (S-THB-M002)	Soil Moisture Smart Sensor - EC5 (S-SMC-M005)	2019-08-13T23:00:01	0.00	12.485	80.200	0.6169	9.2
2269	AB07CD0350	WETLAND SAL01	SALINE (FEN)	56.573903999999998859493643976747989654541015625	-111.277773999999993748133420012891292572021484375	HOBO Rain Gauge Data Logger - RG3	HOBO Temperature/RH Smart Sensor (S-THB-M002)	Soil Moisture Smart Sensor - EC5 (S-SMC-M005)	2019-08-14T00:00:01	0.00	14.218	80.200	0.6177	10.9
2270	AB07CD0350	WETLAND SAL01	SALINE (FEN)	56.573903999999998859493643976747989654541015625	-111.277773999999993748133420012891292572021484375	HOBO Rain Gauge Data Logger - RG3	HOBO Temperature/RH Smart Sensor (S-THB-M002)	Soil Moisture Smart Sensor - EC5 (S-SMC-M005)	2019-08-14T01:00:01	0.00	13.834	75.100	0.6177	9.5
2271	AB07CD0350	WETLAND SAL01	SALINE (FEN)	56.573903999999998859493643976747989654541015625	-111.277773999999993748133420012891292572021484375	HOBO Rain Gauge Data Logger - RG3	HOBO Temperature/RH Smart Sensor (S-THB-M002)	Soil Moisture Smart Sensor - EC5 (S-SMC-M005)	2019-08-14T02:00:01	0.00	14.242	76.400	0.6177	10.2
2272	AB07CD0350	WETLAND SAL01	SALINE (FEN)	56.573903999999998859493643976747989654541015625	-111.277773999999993748133420012891292572021484375	HOBO Rain Gauge Data Logger - RG3	HOBO Temperature/RH Smart Sensor (S-THB-M002)	Soil Moisture Smart Sensor - EC5 (S-SMC-M005)	2019-08-14T03:00:01	0.00	14.601	73.300	0.6177	9.9
2273	AB07CD0350	WETLAND SAL01	SALINE (FEN)	56.573903999999998859493643976747989654541015625	-111.277773999999993748133420012891292572021484375	HOBO Rain Gauge Data Logger - RG3	HOBO Temperature/RH Smart Sensor (S-THB-M002)	Soil Moisture Smart Sensor - EC5 (S-SMC-M005)	2019-08-14T04:00:01	0.00	14.792	74.000	0.6177	10.2
2274	AB07CD0350	WETLAND SAL01	SALINE (FEN)	56.573903999999998859493643976747989654541015625	-111.277773999999993748133420012891292572021484375	HOBO Rain Gauge Data Logger - RG3	HOBO Temperature/RH Smart Sensor (S-THB-M002)	Soil Moisture Smart Sensor - EC5 (S-SMC-M005)	2019-08-14T05:00:01	0.00	14.864	76.300	0.6177	10.7
2275	AB07CD0350	WETLAND SAL01	SALINE (FEN)	56.573903999999998859493643976747989654541015625	-111.277773999999993748133420012891292572021484375	HOBO Rain Gauge Data Logger - RG3	HOBO Temperature/RH Smart Sensor (S-THB-M002)	Soil Moisture Smart Sensor - EC5 (S-SMC-M005)	2019-08-14T06:00:01	0.00	14.361	78.800	0.6177	10.7
2276	AB07CD0350	WETLAND SAL01	SALINE (FEN)	56.573903999999998859493643976747989654541015625	-111.277773999999993748133420012891292572021484375	HOBO Rain Gauge Data Logger - RG3	HOBO Temperature/RH Smart Sensor (S-THB-M002)	Soil Moisture Smart Sensor - EC5 (S-SMC-M005)	2019-08-14T07:00:01	0.00	15.031	80.200	0.6177	11.7
2277	AB07CD0350	WETLAND SAL01	SALINE (FEN)	56.573903999999998859493643976747989654541015625	-111.277773999999993748133420012891292572021484375	HOBO Rain Gauge Data Logger - RG3	HOBO Temperature/RH Smart Sensor (S-THB-M002)	Soil Moisture Smart Sensor - EC5 (S-SMC-M005)	2019-08-14T08:00:01	0.00	16.249	75.100	0.6177	11.8
2278	AB07CD0350	WETLAND SAL01	SALINE (FEN)	56.573903999999998859493643976747989654541015625	-111.277773999999993748133420012891292572021484375	HOBO Rain Gauge Data Logger - RG3	HOBO Temperature/RH Smart Sensor (S-THB-M002)	Soil Moisture Smart Sensor - EC5 (S-SMC-M005)	2019-08-14T09:00:01	0.00	17.986	69.200	0.6177	12.3
2279	AB07CD0350	WETLAND SAL01	SALINE (FEN)	56.573903999999998859493643976747989654541015625	-111.277773999999993748133420012891292572021484375	HOBO Rain Gauge Data Logger - RG3	HOBO Temperature/RH Smart Sensor (S-THB-M002)	Soil Moisture Smart Sensor - EC5 (S-SMC-M005)	2019-08-14T10:00:01	0.00	19.888	60.900	0.6169	12.1
2280	AB07CD0350	WETLAND SAL01	SALINE (FEN)	56.573903999999998859493643976747989654541015625	-111.277773999999993748133420012891292572021484375	HOBO Rain Gauge Data Logger - RG3	HOBO Temperature/RH Smart Sensor (S-THB-M002)	Soil Moisture Smart Sensor - EC5 (S-SMC-M005)	2019-08-14T11:00:01	0.00	21.676	55.200	0.6169	12.3
2281	AB07CD0350	WETLAND SAL01	SALINE (FEN)	56.573903999999998859493643976747989654541015625	-111.277773999999993748133420012891292572021484375	HOBO Rain Gauge Data Logger - RG3	HOBO Temperature/RH Smart Sensor (S-THB-M002)	Soil Moisture Smart Sensor - EC5 (S-SMC-M005)	2019-08-14T12:00:01	0.00	21.843	54.100	0.6169	12.2
2282	AB07CD0350	WETLAND SAL01	SALINE (FEN)	56.573903999999998859493643976747989654541015625	-111.277773999999993748133420012891292572021484375	HOBO Rain Gauge Data Logger - RG3	HOBO Temperature/RH Smart Sensor (S-THB-M002)	Soil Moisture Smart Sensor - EC5 (S-SMC-M005)	2019-08-14T13:00:01	0.00	22.250	55.900	0.6169	13.0
2283	AB07CD0350	WETLAND SAL01	SALINE (FEN)	56.573903999999998859493643976747989654541015625	-111.277773999999993748133420012891292572021484375	HOBO Rain Gauge Data Logger - RG3	HOBO Temperature/RH Smart Sensor (S-THB-M002)	Soil Moisture Smart Sensor - EC5 (S-SMC-M005)	2019-08-14T14:00:01	0.00	20.960	59.600	0.6169	12.8
2284	AB07CD0350	WETLAND SAL01	SALINE (FEN)	56.573903999999998859493643976747989654541015625	-111.277773999999993748133420012891292572021484375	HOBO Rain Gauge Data Logger - RG3	HOBO Temperature/RH Smart Sensor (S-THB-M002)	Soil Moisture Smart Sensor - EC5 (S-SMC-M005)	2019-08-14T15:00:01	0.00	22.178	60.300	0.6169	14.1
2285	AB07CD0350	WETLAND SAL01	SALINE (FEN)	56.573903999999998859493643976747989654541015625	-111.277773999999993748133420012891292572021484375	HOBO Rain Gauge Data Logger - RG3	HOBO Temperature/RH Smart Sensor (S-THB-M002)	Soil Moisture Smart Sensor - EC5 (S-SMC-M005)	2019-08-14T16:00:01	0.00	23.088	53.300	0.6169	13.1
2286	AB07CD0350	WETLAND SAL01	SALINE (FEN)	56.573903999999998859493643976747989654541015625	-111.277773999999993748133420012891292572021484375	HOBO Rain Gauge Data Logger - RG3	HOBO Temperature/RH Smart Sensor (S-THB-M002)	Soil Moisture Smart Sensor - EC5 (S-SMC-M005)	2019-08-14T17:00:01	0.00	22.178	54.300	0.6169	12.5
2287	AB07CD0350	WETLAND SAL01	SALINE (FEN)	56.573903999999998859493643976747989654541015625	-111.277773999999993748133420012891292572021484375	HOBO Rain Gauge Data Logger - RG3	HOBO Temperature/RH Smart Sensor (S-THB-M002)	Soil Moisture Smart Sensor - EC5 (S-SMC-M005)	2019-08-14T18:00:01	0.00	21.795	61.600	0.6169	14.1
2288	AB07CD0350	WETLAND SAL01	SALINE (FEN)	56.573903999999998859493643976747989654541015625	-111.277773999999993748133420012891292572021484375	HOBO Rain Gauge Data Logger - RG3	HOBO Temperature/RH Smart Sensor (S-THB-M002)	Soil Moisture Smart Sensor - EC5 (S-SMC-M005)	2019-08-14T19:00:01	0.00	22.944	61.000	0.6169	15.0
2289	AB07CD0350	WETLAND SAL01	SALINE (FEN)	56.573903999999998859493643976747989654541015625	-111.277773999999993748133420012891292572021484375	HOBO Rain Gauge Data Logger - RG3	HOBO Temperature/RH Smart Sensor (S-THB-M002)	Soil Moisture Smart Sensor - EC5 (S-SMC-M005)	2019-08-14T20:00:01	0.00	19.888	55.400	0.6162	10.7
2290	AB07CD0350	WETLAND SAL01	SALINE (FEN)	56.573903999999998859493643976747989654541015625	-111.277773999999993748133420012891292572021484375	HOBO Rain Gauge Data Logger - RG3	HOBO Temperature/RH Smart Sensor (S-THB-M002)	Soil Moisture Smart Sensor - EC5 (S-SMC-M005)	2019-08-14T21:00:01	0.00	17.320	74.400	0.6162	12.7
2291	AB07CD0350	WETLAND SAL01	SALINE (FEN)	56.573903999999998859493643976747989654541015625	-111.277773999999993748133420012891292572021484375	HOBO Rain Gauge Data Logger - RG3	HOBO Temperature/RH Smart Sensor (S-THB-M002)	Soil Moisture Smart Sensor - EC5 (S-SMC-M005)	2019-08-14T22:00:01	0.00	13.473	76.800	0.6169	9.5
2292	AB07CD0350	WETLAND SAL01	SALINE (FEN)	56.573903999999998859493643976747989654541015625	-111.277773999999993748133420012891292572021484375	HOBO Rain Gauge Data Logger - RG3	HOBO Temperature/RH Smart Sensor (S-THB-M002)	Soil Moisture Smart Sensor - EC5 (S-SMC-M005)	2019-08-14T23:00:01	0.00	12.920	84.700	0.6169	10.4
2293	AB07CD0350	WETLAND SAL01	SALINE (FEN)	56.573903999999998859493643976747989654541015625	-111.277773999999993748133420012891292572021484375	HOBO Rain Gauge Data Logger - RG3	HOBO Temperature/RH Smart Sensor (S-THB-M002)	Soil Moisture Smart Sensor - EC5 (S-SMC-M005)	2019-08-15T00:00:01	0.00	12.871	89.300	0.6169	11.2
2294	AB07CD0350	WETLAND SAL01	SALINE (FEN)	56.573903999999998859493643976747989654541015625	-111.277773999999993748133420012891292572021484375	HOBO Rain Gauge Data Logger - RG3	HOBO Temperature/RH Smart Sensor (S-THB-M002)	Soil Moisture Smart Sensor - EC5 (S-SMC-M005)	2019-08-15T01:00:01	0.00	11.929	91.500	0.6169	10.6
2295	AB07CD0350	WETLAND SAL01	SALINE (FEN)	56.573903999999998859493643976747989654541015625	-111.277773999999993748133420012891292572021484375	HOBO Rain Gauge Data Logger - RG3	HOBO Temperature/RH Smart Sensor (S-THB-M002)	Soil Moisture Smart Sensor - EC5 (S-SMC-M005)	2019-08-15T02:00:01	0.00	12.050	93.400	0.6169	11.0
2296	AB07CD0350	WETLAND SAL01	SALINE (FEN)	56.573903999999998859493643976747989654541015625	-111.277773999999993748133420012891292572021484375	HOBO Rain Gauge Data Logger - RG3	HOBO Temperature/RH Smart Sensor (S-THB-M002)	Soil Moisture Smart Sensor - EC5 (S-SMC-M005)	2019-08-15T03:00:01	0.00	11.953	94.000	0.6169	11.0
2297	AB07CD0350	WETLAND SAL01	SALINE (FEN)	56.573903999999998859493643976747989654541015625	-111.277773999999993748133420012891292572021484375	HOBO Rain Gauge Data Logger - RG3	HOBO Temperature/RH Smart Sensor (S-THB-M002)	Soil Moisture Smart Sensor - EC5 (S-SMC-M005)	2019-08-15T04:00:01	0.00	11.492	95.500	0.6169	10.8
2298	AB07CD0350	WETLAND SAL01	SALINE (FEN)	56.573903999999998859493643976747989654541015625	-111.277773999999993748133420012891292572021484375	HOBO Rain Gauge Data Logger - RG3	HOBO Temperature/RH Smart Sensor (S-THB-M002)	Soil Moisture Smart Sensor - EC5 (S-SMC-M005)	2019-08-15T05:00:01	0.00	10.614	95.600	0.6169	10.0
2299	AB07CD0350	WETLAND SAL01	SALINE (FEN)	56.573903999999998859493643976747989654541015625	-111.277773999999993748133420012891292572021484375	HOBO Rain Gauge Data Logger - RG3	HOBO Temperature/RH Smart Sensor (S-THB-M002)	Soil Moisture Smart Sensor - EC5 (S-SMC-M005)	2019-08-15T06:00:01	0.00	10.173	96.400	0.6169	9.6
2300	AB07CD0350	WETLAND SAL01	SALINE (FEN)	56.573903999999998859493643976747989654541015625	-111.277773999999993748133420012891292572021484375	HOBO Rain Gauge Data Logger - RG3	HOBO Temperature/RH Smart Sensor (S-THB-M002)	Soil Moisture Smart Sensor - EC5 (S-SMC-M005)	2019-08-15T07:00:01	0.00	12.558	95.500	0.6169	11.9
2301	AB07CD0350	WETLAND SAL01	SALINE (FEN)	56.573903999999998859493643976747989654541015625	-111.277773999999993748133420012891292572021484375	HOBO Rain Gauge Data Logger - RG3	HOBO Temperature/RH Smart Sensor (S-THB-M002)	Soil Moisture Smart Sensor - EC5 (S-SMC-M005)	2019-08-15T08:00:01	0.00	14.912	89.800	0.6169	13.3
2302	AB07CD0350	WETLAND SAL01	SALINE (FEN)	56.573903999999998859493643976747989654541015625	-111.277773999999993748133420012891292572021484375	HOBO Rain Gauge Data Logger - RG3	HOBO Temperature/RH Smart Sensor (S-THB-M002)	Soil Moisture Smart Sensor - EC5 (S-SMC-M005)	2019-08-15T09:00:01	0.00	17.605	82.200	0.6169	14.6
2303	AB07CD0350	WETLAND SAL01	SALINE (FEN)	56.573903999999998859493643976747989654541015625	-111.277773999999993748133420012891292572021484375	HOBO Rain Gauge Data Logger - RG3	HOBO Temperature/RH Smart Sensor (S-THB-M002)	Soil Moisture Smart Sensor - EC5 (S-SMC-M005)	2019-08-15T10:00:01	0.00	20.698	71.900	0.6169	15.5
2304	AB07CD0350	WETLAND SAL01	SALINE (FEN)	56.573903999999998859493643976747989654541015625	-111.277773999999993748133420012891292572021484375	HOBO Rain Gauge Data Logger - RG3	HOBO Temperature/RH Smart Sensor (S-THB-M002)	Soil Moisture Smart Sensor - EC5 (S-SMC-M005)	2019-08-15T11:00:01	0.00	22.800	59.000	0.6169	14.4
2305	AB07CD0350	WETLAND SAL01	SALINE (FEN)	56.573903999999998859493643976747989654541015625	-111.277773999999993748133420012891292572021484375	HOBO Rain Gauge Data Logger - RG3	HOBO Temperature/RH Smart Sensor (S-THB-M002)	Soil Moisture Smart Sensor - EC5 (S-SMC-M005)	2019-08-15T12:00:01	0.00	24.243	50.400	0.6169	13.3
2306	AB07CD0350	WETLAND SAL01	SALINE (FEN)	56.573903999999998859493643976747989654541015625	-111.277773999999993748133420012891292572021484375	HOBO Rain Gauge Data Logger - RG3	HOBO Temperature/RH Smart Sensor (S-THB-M002)	Soil Moisture Smart Sensor - EC5 (S-SMC-M005)	2019-08-15T13:00:01	0.00	24.871	47.500	0.6169	13.0
2307	AB07CD0350	WETLAND SAL01	SALINE (FEN)	56.573903999999998859493643976747989654541015625	-111.277773999999993748133420012891292572021484375	HOBO Rain Gauge Data Logger - RG3	HOBO Temperature/RH Smart Sensor (S-THB-M002)	Soil Moisture Smart Sensor - EC5 (S-SMC-M005)	2019-08-15T14:00:01	0.00	25.089	43.600	0.6162	11.9
2308	AB07CD0350	WETLAND SAL01	SALINE (FEN)	56.573903999999998859493643976747989654541015625	-111.277773999999993748133420012891292572021484375	HOBO Rain Gauge Data Logger - RG3	HOBO Temperature/RH Smart Sensor (S-THB-M002)	Soil Moisture Smart Sensor - EC5 (S-SMC-M005)	2019-08-15T15:00:01	0.00	27.087	42.300	0.6162	13.2
2309	AB07CD0350	WETLAND SAL01	SALINE (FEN)	56.573903999999998859493643976747989654541015625	-111.277773999999993748133420012891292572021484375	HOBO Rain Gauge Data Logger - RG3	HOBO Temperature/RH Smart Sensor (S-THB-M002)	Soil Moisture Smart Sensor - EC5 (S-SMC-M005)	2019-08-15T16:00:01	0.00	24.919	40.400	0.6169	10.6
2310	AB07CD0350	WETLAND SAL01	SALINE (FEN)	56.573903999999998859493643976747989654541015625	-111.277773999999993748133420012891292572021484375	HOBO Rain Gauge Data Logger - RG3	HOBO Temperature/RH Smart Sensor (S-THB-M002)	Soil Moisture Smart Sensor - EC5 (S-SMC-M005)	2019-08-15T17:00:01	0.00	23.641	44.000	0.6169	10.7
2311	AB07CD0350	WETLAND SAL01	SALINE (FEN)	56.573903999999998859493643976747989654541015625	-111.277773999999993748133420012891292572021484375	HOBO Rain Gauge Data Logger - RG3	HOBO Temperature/RH Smart Sensor (S-THB-M002)	Soil Moisture Smart Sensor - EC5 (S-SMC-M005)	2019-08-15T18:00:01	0.00	19.413	54.700	0.6162	10.1
2312	AB07CD0350	WETLAND SAL01	SALINE (FEN)	56.573903999999998859493643976747989654541015625	-111.277773999999993748133420012891292572021484375	HOBO Rain Gauge Data Logger - RG3	HOBO Temperature/RH Smart Sensor (S-THB-M002)	Soil Moisture Smart Sensor - EC5 (S-SMC-M005)	2019-08-15T19:00:01	0.20	15.629	85.700	0.6169	13.3
2313	AB07CD0350	WETLAND SAL01	SALINE (FEN)	56.573903999999998859493643976747989654541015625	-111.277773999999993748133420012891292572021484375	HOBO Rain Gauge Data Logger - RG3	HOBO Temperature/RH Smart Sensor (S-THB-M002)	Soil Moisture Smart Sensor - EC5 (S-SMC-M005)	2019-08-15T20:00:01	0.80	15.318	92.800	0.6169	14.2
2314	AB07CD0350	WETLAND SAL01	SALINE (FEN)	56.573903999999998859493643976747989654541015625	-111.277773999999993748133420012891292572021484375	HOBO Rain Gauge Data Logger - RG3	HOBO Temperature/RH Smart Sensor (S-THB-M002)	Soil Moisture Smart Sensor - EC5 (S-SMC-M005)	2019-08-15T21:00:01	0.40	15.079	94.500	0.6169	14.2
2315	AB07CD0350	WETLAND SAL01	SALINE (FEN)	56.573903999999998859493643976747989654541015625	-111.277773999999993748133420012891292572021484375	HOBO Rain Gauge Data Logger - RG3	HOBO Temperature/RH Smart Sensor (S-THB-M002)	Soil Moisture Smart Sensor - EC5 (S-SMC-M005)	2019-08-15T22:00:01	0.40	14.768	96.000	0.6177	14.2
2316	AB07CD0350	WETLAND SAL01	SALINE (FEN)	56.573903999999998859493643976747989654541015625	-111.277773999999993748133420012891292572021484375	HOBO Rain Gauge Data Logger - RG3	HOBO Temperature/RH Smart Sensor (S-THB-M002)	Soil Moisture Smart Sensor - EC5 (S-SMC-M005)	2019-08-15T23:00:01	2.00	14.816	97.000	0.6177	14.4
2317	AB07CD0350	WETLAND SAL01	SALINE (FEN)	56.573903999999998859493643976747989654541015625	-111.277773999999993748133420012891292572021484375	HOBO Rain Gauge Data Logger - RG3	HOBO Temperature/RH Smart Sensor (S-THB-M002)	Soil Moisture Smart Sensor - EC5 (S-SMC-M005)	2019-08-16T00:00:01	3.40	14.505	97.300	0.6169	14.1
2318	AB07CD0350	WETLAND SAL01	SALINE (FEN)	56.573903999999998859493643976747989654541015625	-111.277773999999993748133420012891292572021484375	HOBO Rain Gauge Data Logger - RG3	HOBO Temperature/RH Smart Sensor (S-THB-M002)	Soil Moisture Smart Sensor - EC5 (S-SMC-M005)	2019-08-16T01:00:01	2.60	14.721	97.600	0.6162	14.4
2319	AB07CD0350	WETLAND SAL01	SALINE (FEN)	56.573903999999998859493643976747989654541015625	-111.277773999999993748133420012891292572021484375	HOBO Rain Gauge Data Logger - RG3	HOBO Temperature/RH Smart Sensor (S-THB-M002)	Soil Moisture Smart Sensor - EC5 (S-SMC-M005)	2019-08-16T02:00:01	0.60	14.577	97.500	0.6162	14.2
2320	AB07CD0350	WETLAND SAL01	SALINE (FEN)	56.573903999999998859493643976747989654541015625	-111.277773999999993748133420012891292572021484375	HOBO Rain Gauge Data Logger - RG3	HOBO Temperature/RH Smart Sensor (S-THB-M002)	Soil Moisture Smart Sensor - EC5 (S-SMC-M005)	2019-08-16T03:00:01	1.40	14.481	97.800	0.6162	14.2
2321	AB07CD0350	WETLAND SAL01	SALINE (FEN)	56.573903999999998859493643976747989654541015625	-111.277773999999993748133420012891292572021484375	HOBO Rain Gauge Data Logger - RG3	HOBO Temperature/RH Smart Sensor (S-THB-M002)	Soil Moisture Smart Sensor - EC5 (S-SMC-M005)	2019-08-16T04:00:01	1.20	13.978	98.300	0.6155	13.7
2322	AB07CD0350	WETLAND SAL01	SALINE (FEN)	56.573903999999998859493643976747989654541015625	-111.277773999999993748133420012891292572021484375	HOBO Rain Gauge Data Logger - RG3	HOBO Temperature/RH Smart Sensor (S-THB-M002)	Soil Moisture Smart Sensor - EC5 (S-SMC-M005)	2019-08-16T05:00:01	3.00	14.098	98.700	0.6155	13.9
2323	AB07CD0350	WETLAND SAL01	SALINE (FEN)	56.573903999999998859493643976747989654541015625	-111.277773999999993748133420012891292572021484375	HOBO Rain Gauge Data Logger - RG3	HOBO Temperature/RH Smart Sensor (S-THB-M002)	Soil Moisture Smart Sensor - EC5 (S-SMC-M005)	2019-08-16T06:00:01	1.40	14.146	98.400	0.6148	13.9
2324	AB07CD0350	WETLAND SAL01	SALINE (FEN)	56.573903999999998859493643976747989654541015625	-111.277773999999993748133420012891292572021484375	HOBO Rain Gauge Data Logger - RG3	HOBO Temperature/RH Smart Sensor (S-THB-M002)	Soil Moisture Smart Sensor - EC5 (S-SMC-M005)	2019-08-16T07:00:01	1.00	13.738	98.100	0.6148	13.5
2325	AB07CD0350	WETLAND SAL01	SALINE (FEN)	56.573903999999998859493643976747989654541015625	-111.277773999999993748133420012891292572021484375	HOBO Rain Gauge Data Logger - RG3	HOBO Temperature/RH Smart Sensor (S-THB-M002)	Soil Moisture Smart Sensor - EC5 (S-SMC-M005)	2019-08-16T08:00:01	0.60	13.570	97.700	0.6148	13.2
2326	AB07CD0350	WETLAND SAL01	SALINE (FEN)	56.573903999999998859493643976747989654541015625	-111.277773999999993748133420012891292572021484375	HOBO Rain Gauge Data Logger - RG3	HOBO Temperature/RH Smart Sensor (S-THB-M002)	Soil Moisture Smart Sensor - EC5 (S-SMC-M005)	2019-08-16T09:00:01	0.80	12.437	96.500	0.6148	11.9
2327	AB07CD0350	WETLAND SAL01	SALINE (FEN)	56.573903999999998859493643976747989654541015625	-111.277773999999993748133420012891292572021484375	HOBO Rain Gauge Data Logger - RG3	HOBO Temperature/RH Smart Sensor (S-THB-M002)	Soil Moisture Smart Sensor - EC5 (S-SMC-M005)	2019-08-16T10:00:01	1.80	12.147	97.600	0.6148	11.8
2328	AB07CD0350	WETLAND SAL01	SALINE (FEN)	56.573903999999998859493643976747989654541015625	-111.277773999999993748133420012891292572021484375	HOBO Rain Gauge Data Logger - RG3	HOBO Temperature/RH Smart Sensor (S-THB-M002)	Soil Moisture Smart Sensor - EC5 (S-SMC-M005)	2019-08-16T11:00:01	1.00	11.492	96.200	0.6148	10.9
2329	AB07CD0350	WETLAND SAL01	SALINE (FEN)	56.573903999999998859493643976747989654541015625	-111.277773999999993748133420012891292572021484375	HOBO Rain Gauge Data Logger - RG3	HOBO Temperature/RH Smart Sensor (S-THB-M002)	Soil Moisture Smart Sensor - EC5 (S-SMC-M005)	2019-08-16T12:00:01	2.60	10.687	96.100	0.6148	10.1
2330	AB07CD0350	WETLAND SAL01	SALINE (FEN)	56.573903999999998859493643976747989654541015625	-111.277773999999993748133420012891292572021484375	HOBO Rain Gauge Data Logger - RG3	HOBO Temperature/RH Smart Sensor (S-THB-M002)	Soil Moisture Smart Sensor - EC5 (S-SMC-M005)	2019-08-16T13:00:01	3.20	10.296	95.900	0.6148	9.7
2331	AB07CD0350	WETLAND SAL01	SALINE (FEN)	56.573903999999998859493643976747989654541015625	-111.277773999999993748133420012891292572021484375	HOBO Rain Gauge Data Logger - RG3	HOBO Temperature/RH Smart Sensor (S-THB-M002)	Soil Moisture Smart Sensor - EC5 (S-SMC-M005)	2019-08-16T14:00:01	2.60	10.100	95.600	0.6148	9.4
2332	AB07CD0350	WETLAND SAL01	SALINE (FEN)	56.573903999999998859493643976747989654541015625	-111.277773999999993748133420012891292572021484375	HOBO Rain Gauge Data Logger - RG3	HOBO Temperature/RH Smart Sensor (S-THB-M002)	Soil Moisture Smart Sensor - EC5 (S-SMC-M005)	2019-08-16T15:00:01	3.60	9.558	95.100	0.6148	8.8
2333	AB07CD0350	WETLAND SAL01	SALINE (FEN)	56.573903999999998859493643976747989654541015625	-111.277773999999993748133420012891292572021484375	HOBO Rain Gauge Data Logger - RG3	HOBO Temperature/RH Smart Sensor (S-THB-M002)	Soil Moisture Smart Sensor - EC5 (S-SMC-M005)	2019-08-16T16:00:01	3.80	9.583	95.500	0.6155	8.9
2334	AB07CD0350	WETLAND SAL01	SALINE (FEN)	56.573903999999998859493643976747989654541015625	-111.277773999999993748133420012891292572021484375	HOBO Rain Gauge Data Logger - RG3	HOBO Temperature/RH Smart Sensor (S-THB-M002)	Soil Moisture Smart Sensor - EC5 (S-SMC-M005)	2019-08-16T17:00:01	3.40	9.040	95.600	0.6148	8.4
2335	AB07CD0350	WETLAND SAL01	SALINE (FEN)	56.573903999999998859493643976747989654541015625	-111.277773999999993748133420012891292572021484375	HOBO Rain Gauge Data Logger - RG3	HOBO Temperature/RH Smart Sensor (S-THB-M002)	Soil Moisture Smart Sensor - EC5 (S-SMC-M005)	2019-08-16T18:00:01	2.00	8.618	95.400	0.6148	7.9
2336	AB07CD0350	WETLAND SAL01	SALINE (FEN)	56.573903999999998859493643976747989654541015625	-111.277773999999993748133420012891292572021484375	HOBO Rain Gauge Data Logger - RG3	HOBO Temperature/RH Smart Sensor (S-THB-M002)	Soil Moisture Smart Sensor - EC5 (S-SMC-M005)	2019-08-16T19:00:01	1.40	8.444	94.600	0.6148	7.6
2337	AB07CD0350	WETLAND SAL01	SALINE (FEN)	56.573903999999998859493643976747989654541015625	-111.277773999999993748133420012891292572021484375	HOBO Rain Gauge Data Logger - RG3	HOBO Temperature/RH Smart Sensor (S-THB-M002)	Soil Moisture Smart Sensor - EC5 (S-SMC-M005)	2019-08-16T20:00:01	1.00	8.295	95.300	0.6148	7.6
2338	AB07CD0350	WETLAND SAL01	SALINE (FEN)	56.573903999999998859493643976747989654541015625	-111.277773999999993748133420012891292572021484375	HOBO Rain Gauge Data Logger - RG3	HOBO Temperature/RH Smart Sensor (S-THB-M002)	Soil Moisture Smart Sensor - EC5 (S-SMC-M005)	2019-08-16T21:00:01	0.60	7.920	95.000	0.6148	7.2
2339	AB07CD0350	WETLAND SAL01	SALINE (FEN)	56.573903999999998859493643976747989654541015625	-111.277773999999993748133420012891292572021484375	HOBO Rain Gauge Data Logger - RG3	HOBO Temperature/RH Smart Sensor (S-THB-M002)	Soil Moisture Smart Sensor - EC5 (S-SMC-M005)	2019-08-16T22:00:01	0.40	7.845	94.800	0.6148	7.1
2340	AB07CD0350	WETLAND SAL01	SALINE (FEN)	56.573903999999998859493643976747989654541015625	-111.277773999999993748133420012891292572021484375	HOBO Rain Gauge Data Logger - RG3	HOBO Temperature/RH Smart Sensor (S-THB-M002)	Soil Moisture Smart Sensor - EC5 (S-SMC-M005)	2019-08-16T23:00:01	0.00	7.945	95.000	0.6148	7.2
2341	AB07CD0350	WETLAND SAL01	SALINE (FEN)	56.573903999999998859493643976747989654541015625	-111.277773999999993748133420012891292572021484375	HOBO Rain Gauge Data Logger - RG3	HOBO Temperature/RH Smart Sensor (S-THB-M002)	Soil Moisture Smart Sensor - EC5 (S-SMC-M005)	2019-08-17T00:00:01	0.00	8.170	93.700	0.6148	7.2
2342	AB07CD0350	WETLAND SAL01	SALINE (FEN)	56.573903999999998859493643976747989654541015625	-111.277773999999993748133420012891292572021484375	HOBO Rain Gauge Data Logger - RG3	HOBO Temperature/RH Smart Sensor (S-THB-M002)	Soil Moisture Smart Sensor - EC5 (S-SMC-M005)	2019-08-17T01:00:01	0.00	7.870	90.900	0.6140	6.5
2343	AB07CD0350	WETLAND SAL01	SALINE (FEN)	56.573903999999998859493643976747989654541015625	-111.277773999999993748133420012891292572021484375	HOBO Rain Gauge Data Logger - RG3	HOBO Temperature/RH Smart Sensor (S-THB-M002)	Soil Moisture Smart Sensor - EC5 (S-SMC-M005)	2019-08-17T02:00:01	0.00	7.870	89.000	0.6148	6.2
2344	AB07CD0350	WETLAND SAL01	SALINE (FEN)	56.573903999999998859493643976747989654541015625	-111.277773999999993748133420012891292572021484375	HOBO Rain Gauge Data Logger - RG3	HOBO Temperature/RH Smart Sensor (S-THB-M002)	Soil Moisture Smart Sensor - EC5 (S-SMC-M005)	2019-08-17T03:00:01	0.00	7.670	88.100	0.6148	5.8
2345	AB07CD0350	WETLAND SAL01	SALINE (FEN)	56.573903999999998859493643976747989654541015625	-111.277773999999993748133420012891292572021484375	HOBO Rain Gauge Data Logger - RG3	HOBO Temperature/RH Smart Sensor (S-THB-M002)	Soil Moisture Smart Sensor - EC5 (S-SMC-M005)	2019-08-17T04:00:01	0.00	7.444	88.400	0.6140	5.7
2346	AB07CD0350	WETLAND SAL01	SALINE (FEN)	56.573903999999998859493643976747989654541015625	-111.277773999999993748133420012891292572021484375	HOBO Rain Gauge Data Logger - RG3	HOBO Temperature/RH Smart Sensor (S-THB-M002)	Soil Moisture Smart Sensor - EC5 (S-SMC-M005)	2019-08-17T05:00:01	0.00	7.066	88.800	0.6140	5.4
2347	AB07CD0350	WETLAND SAL01	SALINE (FEN)	56.573903999999998859493643976747989654541015625	-111.277773999999993748133420012891292572021484375	HOBO Rain Gauge Data Logger - RG3	HOBO Temperature/RH Smart Sensor (S-THB-M002)	Soil Moisture Smart Sensor - EC5 (S-SMC-M005)	2019-08-17T06:00:01	0.00	6.737	89.100	0.6140	5.1
2348	AB07CD0350	WETLAND SAL01	SALINE (FEN)	56.573903999999998859493643976747989654541015625	-111.277773999999993748133420012891292572021484375	HOBO Rain Gauge Data Logger - RG3	HOBO Temperature/RH Smart Sensor (S-THB-M002)	Soil Moisture Smart Sensor - EC5 (S-SMC-M005)	2019-08-17T07:00:01	0.00	6.864	88.600	0.6140	5.1
2349	AB07CD0350	WETLAND SAL01	SALINE (FEN)	56.573903999999998859493643976747989654541015625	-111.277773999999993748133420012891292572021484375	HOBO Rain Gauge Data Logger - RG3	HOBO Temperature/RH Smart Sensor (S-THB-M002)	Soil Moisture Smart Sensor - EC5 (S-SMC-M005)	2019-08-17T08:00:01	0.00	7.041	87.500	0.6140	5.1
2350	AB07CD0350	WETLAND SAL01	SALINE (FEN)	56.573903999999998859493643976747989654541015625	-111.277773999999993748133420012891292572021484375	HOBO Rain Gauge Data Logger - RG3	HOBO Temperature/RH Smart Sensor (S-THB-M002)	Soil Moisture Smart Sensor - EC5 (S-SMC-M005)	2019-08-17T09:00:01	0.00	7.970	86.000	0.6133	5.8
2351	AB07CD0350	WETLAND SAL01	SALINE (FEN)	56.573903999999998859493643976747989654541015625	-111.277773999999993748133420012891292572021484375	HOBO Rain Gauge Data Logger - RG3	HOBO Temperature/RH Smart Sensor (S-THB-M002)	Soil Moisture Smart Sensor - EC5 (S-SMC-M005)	2019-08-17T10:00:01	0.00	9.213	81.000	0.6133	6.1
2352	AB07CD0350	WETLAND SAL01	SALINE (FEN)	56.573903999999998859493643976747989654541015625	-111.277773999999993748133420012891292572021484375	HOBO Rain Gauge Data Logger - RG3	HOBO Temperature/RH Smart Sensor (S-THB-M002)	Soil Moisture Smart Sensor - EC5 (S-SMC-M005)	2019-08-17T11:00:01	0.00	10.173	76.500	0.6133	6.2
2353	AB07CD0350	WETLAND SAL01	SALINE (FEN)	56.573903999999998859493643976747989654541015625	-111.277773999999993748133420012891292572021484375	HOBO Rain Gauge Data Logger - RG3	HOBO Temperature/RH Smart Sensor (S-THB-M002)	Soil Moisture Smart Sensor - EC5 (S-SMC-M005)	2019-08-17T12:00:01	0.00	10.687	73.200	0.6133	6.1
2354	AB07CD0350	WETLAND SAL01	SALINE (FEN)	56.573903999999998859493643976747989654541015625	-111.277773999999993748133420012891292572021484375	HOBO Rain Gauge Data Logger - RG3	HOBO Temperature/RH Smart Sensor (S-THB-M002)	Soil Moisture Smart Sensor - EC5 (S-SMC-M005)	2019-08-17T13:00:01	0.00	11.127	71.000	0.6133	6.1
2355	AB07CD0350	WETLAND SAL01	SALINE (FEN)	56.573903999999998859493643976747989654541015625	-111.277773999999993748133420012891292572021484375	HOBO Rain Gauge Data Logger - RG3	HOBO Temperature/RH Smart Sensor (S-THB-M002)	Soil Moisture Smart Sensor - EC5 (S-SMC-M005)	2019-08-17T14:00:01	0.00	11.419	69.200	0.6126	6.0
2356	AB07CD0350	WETLAND SAL01	SALINE (FEN)	56.573903999999998859493643976747989654541015625	-111.277773999999993748133420012891292572021484375	HOBO Rain Gauge Data Logger - RG3	HOBO Temperature/RH Smart Sensor (S-THB-M002)	Soil Moisture Smart Sensor - EC5 (S-SMC-M005)	2019-08-17T15:00:01	0.00	11.904	66.800	0.6126	5.9
2357	AB07CD0350	WETLAND SAL01	SALINE (FEN)	56.573903999999998859493643976747989654541015625	-111.277773999999993748133420012891292572021484375	HOBO Rain Gauge Data Logger - RG3	HOBO Temperature/RH Smart Sensor (S-THB-M002)	Soil Moisture Smart Sensor - EC5 (S-SMC-M005)	2019-08-17T16:00:01	0.00	12.219	63.700	0.6126	5.6
2358	AB07CD0350	WETLAND SAL01	SALINE (FEN)	56.573903999999998859493643976747989654541015625	-111.277773999999993748133420012891292572021484375	HOBO Rain Gauge Data Logger - RG3	HOBO Temperature/RH Smart Sensor (S-THB-M002)	Soil Moisture Smart Sensor - EC5 (S-SMC-M005)	2019-08-17T17:00:01	0.00	12.147	63.000	0.6126	5.3
2359	AB07CD0350	WETLAND SAL01	SALINE (FEN)	56.573903999999998859493643976747989654541015625	-111.277773999999993748133420012891292572021484375	HOBO Rain Gauge Data Logger - RG3	HOBO Temperature/RH Smart Sensor (S-THB-M002)	Soil Moisture Smart Sensor - EC5 (S-SMC-M005)	2019-08-17T18:00:01	0.00	11.759	64.300	0.6126	5.3
2360	AB07CD0350	WETLAND SAL01	SALINE (FEN)	56.573903999999998859493643976747989654541015625	-111.277773999999993748133420012891292572021484375	HOBO Rain Gauge Data Logger - RG3	HOBO Temperature/RH Smart Sensor (S-THB-M002)	Soil Moisture Smart Sensor - EC5 (S-SMC-M005)	2019-08-17T19:00:01	0.00	11.516	65.700	0.6126	5.3
2361	AB07CD0350	WETLAND SAL01	SALINE (FEN)	56.573903999999998859493643976747989654541015625	-111.277773999999993748133420012891292572021484375	HOBO Rain Gauge Data Logger - RG3	HOBO Temperature/RH Smart Sensor (S-THB-M002)	Soil Moisture Smart Sensor - EC5 (S-SMC-M005)	2019-08-17T20:00:01	0.00	11.321	68.100	0.6126	5.7
2362	AB07CD0350	WETLAND SAL01	SALINE (FEN)	56.573903999999998859493643976747989654541015625	-111.277773999999993748133420012891292572021484375	HOBO Rain Gauge Data Logger - RG3	HOBO Temperature/RH Smart Sensor (S-THB-M002)	Soil Moisture Smart Sensor - EC5 (S-SMC-M005)	2019-08-17T21:00:01	0.00	10.271	69.500	0.6126	4.9
2363	AB07CD0350	WETLAND SAL01	SALINE (FEN)	56.573903999999998859493643976747989654541015625	-111.277773999999993748133420012891292572021484375	HOBO Rain Gauge Data Logger - RG3	HOBO Temperature/RH Smart Sensor (S-THB-M002)	Soil Moisture Smart Sensor - EC5 (S-SMC-M005)	2019-08-17T22:00:01	0.00	9.952	74.000	0.6126	5.5
2364	AB07CD0350	WETLAND SAL01	SALINE (FEN)	56.573903999999998859493643976747989654541015625	-111.277773999999993748133420012891292572021484375	HOBO Rain Gauge Data Logger - RG3	HOBO Temperature/RH Smart Sensor (S-THB-M002)	Soil Moisture Smart Sensor - EC5 (S-SMC-M005)	2019-08-17T23:00:01	0.00	9.015	75.900	0.6126	5.0
2365	AB07CD0350	WETLAND SAL01	SALINE (FEN)	56.573903999999998859493643976747989654541015625	-111.277773999999993748133420012891292572021484375	HOBO Rain Gauge Data Logger - RG3	HOBO Temperature/RH Smart Sensor (S-THB-M002)	Soil Moisture Smart Sensor - EC5 (S-SMC-M005)	2019-08-18T00:00:01	0.00	9.064	79.300	0.6119	5.7
2366	AB07CD0350	WETLAND SAL01	SALINE (FEN)	56.573903999999998859493643976747989654541015625	-111.277773999999993748133420012891292572021484375	HOBO Rain Gauge Data Logger - RG3	HOBO Temperature/RH Smart Sensor (S-THB-M002)	Soil Moisture Smart Sensor - EC5 (S-SMC-M005)	2019-08-18T01:00:01	0.00	8.369	79.800	0.6119	5.1
2367	AB07CD0350	WETLAND SAL01	SALINE (FEN)	56.573903999999998859493643976747989654541015625	-111.277773999999993748133420012891292572021484375	HOBO Rain Gauge Data Logger - RG3	HOBO Temperature/RH Smart Sensor (S-THB-M002)	Soil Moisture Smart Sensor - EC5 (S-SMC-M005)	2019-08-18T02:00:01	0.00	7.444	83.300	0.6119	4.8
2368	AB07CD0350	WETLAND SAL01	SALINE (FEN)	56.573903999999998859493643976747989654541015625	-111.277773999999993748133420012891292572021484375	HOBO Rain Gauge Data Logger - RG3	HOBO Temperature/RH Smart Sensor (S-THB-M002)	Soil Moisture Smart Sensor - EC5 (S-SMC-M005)	2019-08-18T03:00:01	0.00	7.167	85.400	0.6119	4.9
2369	AB07CD0350	WETLAND SAL01	SALINE (FEN)	56.573903999999998859493643976747989654541015625	-111.277773999999993748133420012891292572021484375	HOBO Rain Gauge Data Logger - RG3	HOBO Temperature/RH Smart Sensor (S-THB-M002)	Soil Moisture Smart Sensor - EC5 (S-SMC-M005)	2019-08-18T04:00:01	0.00	6.509	89.700	0.6119	4.9
2370	AB07CD0350	WETLAND SAL01	SALINE (FEN)	56.573903999999998859493643976747989654541015625	-111.277773999999993748133420012891292572021484375	HOBO Rain Gauge Data Logger - RG3	HOBO Temperature/RH Smart Sensor (S-THB-M002)	Soil Moisture Smart Sensor - EC5 (S-SMC-M005)	2019-08-18T05:00:01	0.00	7.318	89.700	0.6119	5.7
2371	AB07CD0350	WETLAND SAL01	SALINE (FEN)	56.573903999999998859493643976747989654541015625	-111.277773999999993748133420012891292572021484375	HOBO Rain Gauge Data Logger - RG3	HOBO Temperature/RH Smart Sensor (S-THB-M002)	Soil Moisture Smart Sensor - EC5 (S-SMC-M005)	2019-08-18T06:00:01	0.00	6.889	89.500	0.6119	5.3
2372	AB07CD0350	WETLAND SAL01	SALINE (FEN)	56.573903999999998859493643976747989654541015625	-111.277773999999993748133420012891292572021484375	HOBO Rain Gauge Data Logger - RG3	HOBO Temperature/RH Smart Sensor (S-THB-M002)	Soil Moisture Smart Sensor - EC5 (S-SMC-M005)	2019-08-18T07:00:01	0.00	7.091	91.500	0.6119	5.8
2373	AB07CD0350	WETLAND SAL01	SALINE (FEN)	56.573903999999998859493643976747989654541015625	-111.277773999999993748133420012891292572021484375	HOBO Rain Gauge Data Logger - RG3	HOBO Temperature/RH Smart Sensor (S-THB-M002)	Soil Moisture Smart Sensor - EC5 (S-SMC-M005)	2019-08-18T08:00:01	0.00	7.795	90.300	0.6119	6.3
2374	AB07CD0350	WETLAND SAL01	SALINE (FEN)	56.573903999999998859493643976747989654541015625	-111.277773999999993748133420012891292572021484375	HOBO Rain Gauge Data Logger - RG3	HOBO Temperature/RH Smart Sensor (S-THB-M002)	Soil Moisture Smart Sensor - EC5 (S-SMC-M005)	2019-08-18T09:00:01	0.00	8.767	88.100	0.6119	6.9
2375	AB07CD0350	WETLAND SAL01	SALINE (FEN)	56.573903999999998859493643976747989654541015625	-111.277773999999993748133420012891292572021484375	HOBO Rain Gauge Data Logger - RG3	HOBO Temperature/RH Smart Sensor (S-THB-M002)	Soil Moisture Smart Sensor - EC5 (S-SMC-M005)	2019-08-18T10:00:01	0.00	10.100	84.600	0.6119	7.6
2376	AB07CD0350	WETLAND SAL01	SALINE (FEN)	56.573903999999998859493643976747989654541015625	-111.277773999999993748133420012891292572021484375	HOBO Rain Gauge Data Logger - RG3	HOBO Temperature/RH Smart Sensor (S-THB-M002)	Soil Moisture Smart Sensor - EC5 (S-SMC-M005)	2019-08-18T11:00:01	0.00	10.614	82.700	0.6119	7.8
2377	AB07CD0350	WETLAND SAL01	SALINE (FEN)	56.573903999999998859493643976747989654541015625	-111.277773999999993748133420012891292572021484375	HOBO Rain Gauge Data Logger - RG3	HOBO Temperature/RH Smart Sensor (S-THB-M002)	Soil Moisture Smart Sensor - EC5 (S-SMC-M005)	2019-08-18T12:00:01	0.00	11.540	80.900	0.6119	8.4
2378	AB07CD0350	WETLAND SAL01	SALINE (FEN)	56.573903999999998859493643976747989654541015625	-111.277773999999993748133420012891292572021484375	HOBO Rain Gauge Data Logger - RG3	HOBO Temperature/RH Smart Sensor (S-THB-M002)	Soil Moisture Smart Sensor - EC5 (S-SMC-M005)	2019-08-18T13:00:01	0.00	12.944	78.100	0.6111	9.2
2379	AB07CD0350	WETLAND SAL01	SALINE (FEN)	56.573903999999998859493643976747989654541015625	-111.277773999999993748133420012891292572021484375	HOBO Rain Gauge Data Logger - RG3	HOBO Temperature/RH Smart Sensor (S-THB-M002)	Soil Moisture Smart Sensor - EC5 (S-SMC-M005)	2019-08-18T14:00:01	0.00	13.209	73.300	0.6111	8.5
2380	AB07CD0350	WETLAND SAL01	SALINE (FEN)	56.573903999999998859493643976747989654541015625	-111.277773999999993748133420012891292572021484375	HOBO Rain Gauge Data Logger - RG3	HOBO Temperature/RH Smart Sensor (S-THB-M002)	Soil Moisture Smart Sensor - EC5 (S-SMC-M005)	2019-08-18T15:00:01	0.00	13.064	71.500	0.6111	8.0
2381	AB07CD0350	WETLAND SAL01	SALINE (FEN)	56.573903999999998859493643976747989654541015625	-111.277773999999993748133420012891292572021484375	HOBO Rain Gauge Data Logger - RG3	HOBO Temperature/RH Smart Sensor (S-THB-M002)	Soil Moisture Smart Sensor - EC5 (S-SMC-M005)	2019-08-18T16:00:01	0.00	14.385	70.200	0.6111	9.0
2382	AB07CD0350	WETLAND SAL01	SALINE (FEN)	56.573903999999998859493643976747989654541015625	-111.277773999999993748133420012891292572021484375	HOBO Rain Gauge Data Logger - RG3	HOBO Temperature/RH Smart Sensor (S-THB-M002)	Soil Moisture Smart Sensor - EC5 (S-SMC-M005)	2019-08-18T17:00:01	0.00	13.690	68.400	0.6111	8.0
2383	AB07CD0350	WETLAND SAL01	SALINE (FEN)	56.573903999999998859493643976747989654541015625	-111.277773999999993748133420012891292572021484375	HOBO Rain Gauge Data Logger - RG3	HOBO Temperature/RH Smart Sensor (S-THB-M002)	Soil Moisture Smart Sensor - EC5 (S-SMC-M005)	2019-08-18T18:00:01	0.00	13.618	65.900	0.6111	7.4
2384	AB07CD0350	WETLAND SAL01	SALINE (FEN)	56.573903999999998859493643976747989654541015625	-111.277773999999993748133420012891292572021484375	HOBO Rain Gauge Data Logger - RG3	HOBO Temperature/RH Smart Sensor (S-THB-M002)	Soil Moisture Smart Sensor - EC5 (S-SMC-M005)	2019-08-18T19:00:01	0.00	14.194	67.500	0.6111	8.3
2385	AB07CD0350	WETLAND SAL01	SALINE (FEN)	56.573903999999998859493643976747989654541015625	-111.277773999999993748133420012891292572021484375	HOBO Rain Gauge Data Logger - RG3	HOBO Temperature/RH Smart Sensor (S-THB-M002)	Soil Moisture Smart Sensor - EC5 (S-SMC-M005)	2019-08-18T20:00:01	0.00	12.606	70.800	0.6111	7.5
2386	AB07CD0350	WETLAND SAL01	SALINE (FEN)	56.573903999999998859493643976747989654541015625	-111.277773999999993748133420012891292572021484375	HOBO Rain Gauge Data Logger - RG3	HOBO Temperature/RH Smart Sensor (S-THB-M002)	Soil Moisture Smart Sensor - EC5 (S-SMC-M005)	2019-08-18T21:00:01	0.00	11.662	76.500	0.6111	7.7
2387	AB07CD0350	WETLAND SAL01	SALINE (FEN)	56.573903999999998859493643976747989654541015625	-111.277773999999993748133420012891292572021484375	HOBO Rain Gauge Data Logger - RG3	HOBO Temperature/RH Smart Sensor (S-THB-M002)	Soil Moisture Smart Sensor - EC5 (S-SMC-M005)	2019-08-18T22:00:01	0.00	11.443	79.900	0.6111	8.1
2388	AB07CD0350	WETLAND SAL01	SALINE (FEN)	56.573903999999998859493643976747989654541015625	-111.277773999999993748133420012891292572021484375	HOBO Rain Gauge Data Logger - RG3	HOBO Temperature/RH Smart Sensor (S-THB-M002)	Soil Moisture Smart Sensor - EC5 (S-SMC-M005)	2019-08-18T23:00:01	0.00	9.854	85.000	0.6111	7.5
2389	AB07CD0350	WETLAND SAL01	SALINE (FEN)	56.573903999999998859493643976747989654541015625	-111.277773999999993748133420012891292572021484375	HOBO Rain Gauge Data Logger - RG3	HOBO Temperature/RH Smart Sensor (S-THB-M002)	Soil Moisture Smart Sensor - EC5 (S-SMC-M005)	2019-08-19T00:00:01	0.00	8.643	91.000	0.6111	7.3
2390	AB07CD0350	WETLAND SAL01	SALINE (FEN)	56.573903999999998859493643976747989654541015625	-111.277773999999993748133420012891292572021484375	HOBO Rain Gauge Data Logger - RG3	HOBO Temperature/RH Smart Sensor (S-THB-M002)	Soil Moisture Smart Sensor - EC5 (S-SMC-M005)	2019-08-19T01:00:01	0.00	7.569	94.600	0.6111	6.8
2391	AB07CD0350	WETLAND SAL01	SALINE (FEN)	56.573903999999998859493643976747989654541015625	-111.277773999999993748133420012891292572021484375	HOBO Rain Gauge Data Logger - RG3	HOBO Temperature/RH Smart Sensor (S-THB-M002)	Soil Moisture Smart Sensor - EC5 (S-SMC-M005)	2019-08-19T02:00:01	0.00	7.343	95.600	0.6111	6.7
2392	AB07CD0350	WETLAND SAL01	SALINE (FEN)	56.573903999999998859493643976747989654541015625	-111.277773999999993748133420012891292572021484375	HOBO Rain Gauge Data Logger - RG3	HOBO Temperature/RH Smart Sensor (S-THB-M002)	Soil Moisture Smart Sensor - EC5 (S-SMC-M005)	2019-08-19T03:00:01	0.00	5.668	95.000	0.6111	4.9
2393	AB07CD0350	WETLAND SAL01	SALINE (FEN)	56.573903999999998859493643976747989654541015625	-111.277773999999993748133420012891292572021484375	HOBO Rain Gauge Data Logger - RG3	HOBO Temperature/RH Smart Sensor (S-THB-M002)	Soil Moisture Smart Sensor - EC5 (S-SMC-M005)	2019-08-19T04:00:01	0.00	5.745	96.100	0.6111	5.2
2394	AB07CD0350	WETLAND SAL01	SALINE (FEN)	56.573903999999998859493643976747989654541015625	-111.277773999999993748133420012891292572021484375	HOBO Rain Gauge Data Logger - RG3	HOBO Temperature/RH Smart Sensor (S-THB-M002)	Soil Moisture Smart Sensor - EC5 (S-SMC-M005)	2019-08-19T05:00:01	0.00	6.763	97.000	0.6111	6.3
2395	AB07CD0350	WETLAND SAL01	SALINE (FEN)	56.573903999999998859493643976747989654541015625	-111.277773999999993748133420012891292572021484375	HOBO Rain Gauge Data Logger - RG3	HOBO Temperature/RH Smart Sensor (S-THB-M002)	Soil Moisture Smart Sensor - EC5 (S-SMC-M005)	2019-08-19T06:00:01	0.00	6.357	97.700	0.6111	6.0
2396	AB07CD0350	WETLAND SAL01	SALINE (FEN)	56.573903999999998859493643976747989654541015625	-111.277773999999993748133420012891292572021484375	HOBO Rain Gauge Data Logger - RG3	HOBO Temperature/RH Smart Sensor (S-THB-M002)	Soil Moisture Smart Sensor - EC5 (S-SMC-M005)	2019-08-19T07:00:01	0.00	7.116	97.400	0.6111	6.7
2397	AB07CD0350	WETLAND SAL01	SALINE (FEN)	56.573903999999998859493643976747989654541015625	-111.277773999999993748133420012891292572021484375	HOBO Rain Gauge Data Logger - RG3	HOBO Temperature/RH Smart Sensor (S-THB-M002)	Soil Moisture Smart Sensor - EC5 (S-SMC-M005)	2019-08-19T08:00:01	0.00	8.643	93.900	0.6111	7.7
2398	AB07CD0350	WETLAND SAL01	SALINE (FEN)	56.573903999999998859493643976747989654541015625	-111.277773999999993748133420012891292572021484375	HOBO Rain Gauge Data Logger - RG3	HOBO Temperature/RH Smart Sensor (S-THB-M002)	Soil Moisture Smart Sensor - EC5 (S-SMC-M005)	2019-08-19T09:00:01	0.00	10.001	88.300	0.6111	8.2
2399	AB07CD0350	WETLAND SAL01	SALINE (FEN)	56.573903999999998859493643976747989654541015625	-111.277773999999993748133420012891292572021484375	HOBO Rain Gauge Data Logger - RG3	HOBO Temperature/RH Smart Sensor (S-THB-M002)	Soil Moisture Smart Sensor - EC5 (S-SMC-M005)	2019-08-19T10:00:01	0.00	10.369	83.400	0.6111	7.7
2400	AB07CD0350	WETLAND SAL01	SALINE (FEN)	56.573903999999998859493643976747989654541015625	-111.277773999999993748133420012891292572021484375	HOBO Rain Gauge Data Logger - RG3	HOBO Temperature/RH Smart Sensor (S-THB-M002)	Soil Moisture Smart Sensor - EC5 (S-SMC-M005)	2019-08-19T11:00:01	0.00	10.785	82.400	0.6111	7.9
2401	AB07CD0350	WETLAND SAL01	SALINE (FEN)	56.573903999999998859493643976747989654541015625	-111.277773999999993748133420012891292572021484375	HOBO Rain Gauge Data Logger - RG3	HOBO Temperature/RH Smart Sensor (S-THB-M002)	Soil Moisture Smart Sensor - EC5 (S-SMC-M005)	2019-08-19T12:00:01	0.00	11.565	80.000	0.6104	8.2
2402	AB07CD0350	WETLAND SAL01	SALINE (FEN)	56.573903999999998859493643976747989654541015625	-111.277773999999993748133420012891292572021484375	HOBO Rain Gauge Data Logger - RG3	HOBO Temperature/RH Smart Sensor (S-THB-M002)	Soil Moisture Smart Sensor - EC5 (S-SMC-M005)	2019-08-19T13:00:01	0.00	12.896	76.000	0.6104	8.8
2403	AB07CD0350	WETLAND SAL01	SALINE (FEN)	56.573903999999998859493643976747989654541015625	-111.277773999999993748133420012891292572021484375	HOBO Rain Gauge Data Logger - RG3	HOBO Temperature/RH Smart Sensor (S-THB-M002)	Soil Moisture Smart Sensor - EC5 (S-SMC-M005)	2019-08-19T14:00:01	0.00	13.233	74.000	0.6111	8.7
2404	AB07CD0350	WETLAND SAL01	SALINE (FEN)	56.573903999999998859493643976747989654541015625	-111.277773999999993748133420012891292572021484375	HOBO Rain Gauge Data Logger - RG3	HOBO Temperature/RH Smart Sensor (S-THB-M002)	Soil Moisture Smart Sensor - EC5 (S-SMC-M005)	2019-08-19T15:00:01	0.00	13.377	77.400	0.6104	9.5
2405	AB07CD0350	WETLAND SAL01	SALINE (FEN)	56.573903999999998859493643976747989654541015625	-111.277773999999993748133420012891292572021484375	HOBO Rain Gauge Data Logger - RG3	HOBO Temperature/RH Smart Sensor (S-THB-M002)	Soil Moisture Smart Sensor - EC5 (S-SMC-M005)	2019-08-19T16:00:01	0.00	14.385	74.100	0.6104	9.8
2406	AB07CD0350	WETLAND SAL01	SALINE (FEN)	56.573903999999998859493643976747989654541015625	-111.277773999999993748133420012891292572021484375	HOBO Rain Gauge Data Logger - RG3	HOBO Temperature/RH Smart Sensor (S-THB-M002)	Soil Moisture Smart Sensor - EC5 (S-SMC-M005)	2019-08-19T17:00:01	0.00	12.461	69.300	0.6104	7.0
2407	AB07CD0350	WETLAND SAL01	SALINE (FEN)	56.573903999999998859493643976747989654541015625	-111.277773999999993748133420012891292572021484375	HOBO Rain Gauge Data Logger - RG3	HOBO Temperature/RH Smart Sensor (S-THB-M002)	Soil Moisture Smart Sensor - EC5 (S-SMC-M005)	2019-08-19T18:00:01	0.00	13.618	74.500	0.6104	9.2
2408	AB07CD0350	WETLAND SAL01	SALINE (FEN)	56.573903999999998859493643976747989654541015625	-111.277773999999993748133420012891292572021484375	HOBO Rain Gauge Data Logger - RG3	HOBO Temperature/RH Smart Sensor (S-THB-M002)	Soil Moisture Smart Sensor - EC5 (S-SMC-M005)	2019-08-19T19:00:01	0.00	13.546	73.600	0.6104	8.9
2409	AB07CD0350	WETLAND SAL01	SALINE (FEN)	56.573903999999998859493643976747989654541015625	-111.277773999999993748133420012891292572021484375	HOBO Rain Gauge Data Logger - RG3	HOBO Temperature/RH Smart Sensor (S-THB-M002)	Soil Moisture Smart Sensor - EC5 (S-SMC-M005)	2019-08-19T20:00:01	0.00	14.074	70.800	0.6104	8.9
2410	AB07CD0350	WETLAND SAL01	SALINE (FEN)	56.573903999999998859493643976747989654541015625	-111.277773999999993748133420012891292572021484375	HOBO Rain Gauge Data Logger - RG3	HOBO Temperature/RH Smart Sensor (S-THB-M002)	Soil Moisture Smart Sensor - EC5 (S-SMC-M005)	2019-08-19T21:00:01	0.00	9.632	75.600	0.6104	5.5
2411	AB07CD0350	WETLAND SAL01	SALINE (FEN)	56.573903999999998859493643976747989654541015625	-111.277773999999993748133420012891292572021484375	HOBO Rain Gauge Data Logger - RG3	HOBO Temperature/RH Smart Sensor (S-THB-M002)	Soil Moisture Smart Sensor - EC5 (S-SMC-M005)	2019-08-19T22:00:01	0.00	8.270	88.700	0.6104	6.5
2412	AB07CD0350	WETLAND SAL01	SALINE (FEN)	56.573903999999998859493643976747989654541015625	-111.277773999999993748133420012891292572021484375	HOBO Rain Gauge Data Logger - RG3	HOBO Temperature/RH Smart Sensor (S-THB-M002)	Soil Moisture Smart Sensor - EC5 (S-SMC-M005)	2019-08-19T23:00:01	0.00	8.220	93.300	0.6104	7.2
2413	AB07CD0350	WETLAND SAL01	SALINE (FEN)	56.573903999999998859493643976747989654541015625	-111.277773999999993748133420012891292572021484375	HOBO Rain Gauge Data Logger - RG3	HOBO Temperature/RH Smart Sensor (S-THB-M002)	Soil Moisture Smart Sensor - EC5 (S-SMC-M005)	2019-08-20T00:00:01	0.00	8.319	94.000	0.6104	7.4
2414	AB07CD0350	WETLAND SAL01	SALINE (FEN)	56.573903999999998859493643976747989654541015625	-111.277773999999993748133420012891292572021484375	HOBO Rain Gauge Data Logger - RG3	HOBO Temperature/RH Smart Sensor (S-THB-M002)	Soil Moisture Smart Sensor - EC5 (S-SMC-M005)	2019-08-20T01:00:01	0.00	7.116	94.200	0.6104	6.3
2415	AB07CD0350	WETLAND SAL01	SALINE (FEN)	56.573903999999998859493643976747989654541015625	-111.277773999999993748133420012891292572021484375	HOBO Rain Gauge Data Logger - RG3	HOBO Temperature/RH Smart Sensor (S-THB-M002)	Soil Moisture Smart Sensor - EC5 (S-SMC-M005)	2019-08-20T02:00:01	0.00	5.616	94.900	0.6104	4.9
2416	AB07CD0350	WETLAND SAL01	SALINE (FEN)	56.573903999999998859493643976747989654541015625	-111.277773999999993748133420012891292572021484375	HOBO Rain Gauge Data Logger - RG3	HOBO Temperature/RH Smart Sensor (S-THB-M002)	Soil Moisture Smart Sensor - EC5 (S-SMC-M005)	2019-08-20T03:00:01	0.00	5.745	95.900	0.6104	5.1
2417	AB07CD0350	WETLAND SAL01	SALINE (FEN)	56.573903999999998859493643976747989654541015625	-111.277773999999993748133420012891292572021484375	HOBO Rain Gauge Data Logger - RG3	HOBO Temperature/RH Smart Sensor (S-THB-M002)	Soil Moisture Smart Sensor - EC5 (S-SMC-M005)	2019-08-20T04:00:01	0.00	5.411	96.400	0.6111	4.9
2418	AB07CD0350	WETLAND SAL01	SALINE (FEN)	56.573903999999998859493643976747989654541015625	-111.277773999999993748133420012891292572021484375	HOBO Rain Gauge Data Logger - RG3	HOBO Temperature/RH Smart Sensor (S-THB-M002)	Soil Moisture Smart Sensor - EC5 (S-SMC-M005)	2019-08-20T05:00:01	0.00	4.168	96.900	0.6104	3.7
2419	AB07CD0350	WETLAND SAL01	SALINE (FEN)	56.573903999999998859493643976747989654541015625	-111.277773999999993748133420012891292572021484375	HOBO Rain Gauge Data Logger - RG3	HOBO Temperature/RH Smart Sensor (S-THB-M002)	Soil Moisture Smart Sensor - EC5 (S-SMC-M005)	2019-08-20T06:00:01	0.00	3.722	97.000	0.6104	3.3
2420	AB07CD0350	WETLAND SAL01	SALINE (FEN)	56.573903999999998859493643976747989654541015625	-111.277773999999993748133420012891292572021484375	HOBO Rain Gauge Data Logger - RG3	HOBO Temperature/RH Smart Sensor (S-THB-M002)	Soil Moisture Smart Sensor - EC5 (S-SMC-M005)	2019-08-20T07:00:01	0.00	5.796	97.100	0.6111	5.4
2421	AB07CD0350	WETLAND SAL01	SALINE (FEN)	56.573903999999998859493643976747989654541015625	-111.277773999999993748133420012891292572021484375	HOBO Rain Gauge Data Logger - RG3	HOBO Temperature/RH Smart Sensor (S-THB-M002)	Soil Moisture Smart Sensor - EC5 (S-SMC-M005)	2019-08-20T08:00:01	0.00	8.891	93.300	0.6111	7.9
2422	AB07CD0350	WETLAND SAL01	SALINE (FEN)	56.573903999999998859493643976747989654541015625	-111.277773999999993748133420012891292572021484375	HOBO Rain Gauge Data Logger - RG3	HOBO Temperature/RH Smart Sensor (S-THB-M002)	Soil Moisture Smart Sensor - EC5 (S-SMC-M005)	2019-08-20T09:00:01	0.00	10.980	88.900	0.6104	9.2
2423	AB07CD0350	WETLAND SAL01	SALINE (FEN)	56.573903999999998859493643976747989654541015625	-111.277773999999993748133420012891292572021484375	HOBO Rain Gauge Data Logger - RG3	HOBO Temperature/RH Smart Sensor (S-THB-M002)	Soil Moisture Smart Sensor - EC5 (S-SMC-M005)	2019-08-20T10:00:01	0.00	12.340	84.100	0.6104	9.7
2424	AB07CD0350	WETLAND SAL01	SALINE (FEN)	56.573903999999998859493643976747989654541015625	-111.277773999999993748133420012891292572021484375	HOBO Rain Gauge Data Logger - RG3	HOBO Temperature/RH Smart Sensor (S-THB-M002)	Soil Moisture Smart Sensor - EC5 (S-SMC-M005)	2019-08-20T11:00:01	0.00	13.473	79.200	0.6104	10.0
2425	AB07CD0350	WETLAND SAL01	SALINE (FEN)	56.573903999999998859493643976747989654541015625	-111.277773999999993748133420012891292572021484375	HOBO Rain Gauge Data Logger - RG3	HOBO Temperature/RH Smart Sensor (S-THB-M002)	Soil Moisture Smart Sensor - EC5 (S-SMC-M005)	2019-08-20T12:00:01	0.00	15.700	70.800	0.6104	10.4
2426	AB07CD0350	WETLAND SAL01	SALINE (FEN)	56.573903999999998859493643976747989654541015625	-111.277773999999993748133420012891292572021484375	HOBO Rain Gauge Data Logger - RG3	HOBO Temperature/RH Smart Sensor (S-THB-M002)	Soil Moisture Smart Sensor - EC5 (S-SMC-M005)	2019-08-20T13:00:01	0.00	17.510	56.700	0.6104	8.8
2427	AB07CD0350	WETLAND SAL01	SALINE (FEN)	56.573903999999998859493643976747989654541015625	-111.277773999999993748133420012891292572021484375	HOBO Rain Gauge Data Logger - RG3	HOBO Temperature/RH Smart Sensor (S-THB-M002)	Soil Moisture Smart Sensor - EC5 (S-SMC-M005)	2019-08-20T14:00:01	0.00	17.915	48.700	0.6104	7.0
2428	AB07CD0350	WETLAND SAL01	SALINE (FEN)	56.573903999999998859493643976747989654541015625	-111.277773999999993748133420012891292572021484375	HOBO Rain Gauge Data Logger - RG3	HOBO Temperature/RH Smart Sensor (S-THB-M002)	Soil Moisture Smart Sensor - EC5 (S-SMC-M005)	2019-08-20T15:00:01	0.00	19.103	46.200	0.6104	7.3
2429	AB07CD0350	WETLAND SAL01	SALINE (FEN)	56.573903999999998859493643976747989654541015625	-111.277773999999993748133420012891292572021484375	HOBO Rain Gauge Data Logger - RG3	HOBO Temperature/RH Smart Sensor (S-THB-M002)	Soil Moisture Smart Sensor - EC5 (S-SMC-M005)	2019-08-20T16:00:01	0.00	20.484	40.400	0.6104	6.6
2430	AB07CD0350	WETLAND SAL01	SALINE (FEN)	56.573903999999998859493643976747989654541015625	-111.277773999999993748133420012891292572021484375	HOBO Rain Gauge Data Logger - RG3	HOBO Temperature/RH Smart Sensor (S-THB-M002)	Soil Moisture Smart Sensor - EC5 (S-SMC-M005)	2019-08-20T17:00:01	0.00	20.341	40.400	0.6104	6.5
2431	AB07CD0350	WETLAND SAL01	SALINE (FEN)	56.573903999999998859493643976747989654541015625	-111.277773999999993748133420012891292572021484375	HOBO Rain Gauge Data Logger - RG3	HOBO Temperature/RH Smart Sensor (S-THB-M002)	Soil Moisture Smart Sensor - EC5 (S-SMC-M005)	2019-08-20T18:00:01	0.00	20.793	41.100	0.6104	7.1
2432	AB07CD0350	WETLAND SAL01	SALINE (FEN)	56.573903999999998859493643976747989654541015625	-111.277773999999993748133420012891292572021484375	HOBO Rain Gauge Data Logger - RG3	HOBO Temperature/RH Smart Sensor (S-THB-M002)	Soil Moisture Smart Sensor - EC5 (S-SMC-M005)	2019-08-20T19:00:01	0.00	19.865	42.300	0.6104	6.7
2433	AB07CD0350	WETLAND SAL01	SALINE (FEN)	56.573903999999998859493643976747989654541015625	-111.277773999999993748133420012891292572021484375	HOBO Rain Gauge Data Logger - RG3	HOBO Temperature/RH Smart Sensor (S-THB-M002)	Soil Moisture Smart Sensor - EC5 (S-SMC-M005)	2019-08-20T20:00:01	0.00	18.295	48.300	0.6104	7.2
2434	AB07CD0350	WETLAND SAL01	SALINE (FEN)	56.573903999999998859493643976747989654541015625	-111.277773999999993748133420012891292572021484375	HOBO Rain Gauge Data Logger - RG3	HOBO Temperature/RH Smart Sensor (S-THB-M002)	Soil Moisture Smart Sensor - EC5 (S-SMC-M005)	2019-08-20T21:00:01	0.00	15.652	53.200	0.6104	6.2
2435	AB07CD0350	WETLAND SAL01	SALINE (FEN)	56.573903999999998859493643976747989654541015625	-111.277773999999993748133420012891292572021484375	HOBO Rain Gauge Data Logger - RG3	HOBO Temperature/RH Smart Sensor (S-THB-M002)	Soil Moisture Smart Sensor - EC5 (S-SMC-M005)	2019-08-20T22:00:01	0.00	14.409	59.400	0.6104	6.6
2436	AB07CD0350	WETLAND SAL01	SALINE (FEN)	56.573903999999998859493643976747989654541015625	-111.277773999999993748133420012891292572021484375	HOBO Rain Gauge Data Logger - RG3	HOBO Temperature/RH Smart Sensor (S-THB-M002)	Soil Moisture Smart Sensor - EC5 (S-SMC-M005)	2019-08-20T23:00:01	0.00	14.936	61.100	0.6104	7.5
2437	AB07CD0350	WETLAND SAL01	SALINE (FEN)	56.573903999999998859493643976747989654541015625	-111.277773999999993748133420012891292572021484375	HOBO Rain Gauge Data Logger - RG3	HOBO Temperature/RH Smart Sensor (S-THB-M002)	Soil Moisture Smart Sensor - EC5 (S-SMC-M005)	2019-08-21T00:00:01	0.00	14.098	61.300	0.6104	6.8
2438	AB07CD0350	WETLAND SAL01	SALINE (FEN)	56.573903999999998859493643976747989654541015625	-111.277773999999993748133420012891292572021484375	HOBO Rain Gauge Data Logger - RG3	HOBO Temperature/RH Smart Sensor (S-THB-M002)	Soil Moisture Smart Sensor - EC5 (S-SMC-M005)	2019-08-21T01:00:01	0.00	13.353	65.400	0.6104	7.0
2439	AB07CD0350	WETLAND SAL01	SALINE (FEN)	56.573903999999998859493643976747989654541015625	-111.277773999999993748133420012891292572021484375	HOBO Rain Gauge Data Logger - RG3	HOBO Temperature/RH Smart Sensor (S-THB-M002)	Soil Moisture Smart Sensor - EC5 (S-SMC-M005)	2019-08-21T02:00:01	0.00	13.112	68.000	0.6104	7.4
2440	AB07CD0350	WETLAND SAL01	SALINE (FEN)	56.573903999999998859493643976747989654541015625	-111.277773999999993748133420012891292572021484375	HOBO Rain Gauge Data Logger - RG3	HOBO Temperature/RH Smart Sensor (S-THB-M002)	Soil Moisture Smart Sensor - EC5 (S-SMC-M005)	2019-08-21T03:00:01	0.00	12.606	70.300	0.6111	7.4
2441	AB07CD0350	WETLAND SAL01	SALINE (FEN)	56.573903999999998859493643976747989654541015625	-111.277773999999993748133420012891292572021484375	HOBO Rain Gauge Data Logger - RG3	HOBO Temperature/RH Smart Sensor (S-THB-M002)	Soil Moisture Smart Sensor - EC5 (S-SMC-M005)	2019-08-21T04:00:01	0.00	12.195	70.700	0.6111	7.0
2442	AB07CD0350	WETLAND SAL01	SALINE (FEN)	56.573903999999998859493643976747989654541015625	-111.277773999999993748133420012891292572021484375	HOBO Rain Gauge Data Logger - RG3	HOBO Temperature/RH Smart Sensor (S-THB-M002)	Soil Moisture Smart Sensor - EC5 (S-SMC-M005)	2019-08-21T05:00:01	0.00	12.195	71.600	0.6111	7.2
2443	AB07CD0350	WETLAND SAL01	SALINE (FEN)	56.573903999999998859493643976747989654541015625	-111.277773999999993748133420012891292572021484375	HOBO Rain Gauge Data Logger - RG3	HOBO Temperature/RH Smart Sensor (S-THB-M002)	Soil Moisture Smart Sensor - EC5 (S-SMC-M005)	2019-08-21T06:00:01	0.00	11.637	73.200	0.6111	7.0
2444	AB07CD0350	WETLAND SAL01	SALINE (FEN)	56.573903999999998859493643976747989654541015625	-111.277773999999993748133420012891292572021484375	HOBO Rain Gauge Data Logger - RG3	HOBO Temperature/RH Smart Sensor (S-THB-M002)	Soil Moisture Smart Sensor - EC5 (S-SMC-M005)	2019-08-21T07:00:01	0.00	12.098	73.300	0.6111	7.5
2445	AB07CD0350	WETLAND SAL01	SALINE (FEN)	56.573903999999998859493643976747989654541015625	-111.277773999999993748133420012891292572021484375	HOBO Rain Gauge Data Logger - RG3	HOBO Temperature/RH Smart Sensor (S-THB-M002)	Soil Moisture Smart Sensor - EC5 (S-SMC-M005)	2019-08-21T08:00:01	0.00	12.703	71.300	0.6111	7.7
2446	AB07CD0350	WETLAND SAL01	SALINE (FEN)	56.573903999999998859493643976747989654541015625	-111.277773999999993748133420012891292572021484375	HOBO Rain Gauge Data Logger - RG3	HOBO Temperature/RH Smart Sensor (S-THB-M002)	Soil Moisture Smart Sensor - EC5 (S-SMC-M005)	2019-08-21T09:00:01	0.00	14.050	70.100	0.6111	8.7
2447	AB07CD0350	WETLAND SAL01	SALINE (FEN)	56.573903999999998859493643976747989654541015625	-111.277773999999993748133420012891292572021484375	HOBO Rain Gauge Data Logger - RG3	HOBO Temperature/RH Smart Sensor (S-THB-M002)	Soil Moisture Smart Sensor - EC5 (S-SMC-M005)	2019-08-21T10:00:01	0.00	15.700	65.400	0.6111	9.2
2448	AB07CD0350	WETLAND SAL01	SALINE (FEN)	56.573903999999998859493643976747989654541015625	-111.277773999999993748133420012891292572021484375	HOBO Rain Gauge Data Logger - RG3	HOBO Temperature/RH Smart Sensor (S-THB-M002)	Soil Moisture Smart Sensor - EC5 (S-SMC-M005)	2019-08-21T11:00:01	0.00	18.509	61.100	0.6111	10.9
2449	AB07CD0350	WETLAND SAL01	SALINE (FEN)	56.573903999999998859493643976747989654541015625	-111.277773999999993748133420012891292572021484375	HOBO Rain Gauge Data Logger - RG3	HOBO Temperature/RH Smart Sensor (S-THB-M002)	Soil Moisture Smart Sensor - EC5 (S-SMC-M005)	2019-08-21T12:00:01	0.00	20.746	56.200	0.6111	11.7
2450	AB07CD0350	WETLAND SAL01	SALINE (FEN)	56.573903999999998859493643976747989654541015625	-111.277773999999993748133420012891292572021484375	HOBO Rain Gauge Data Logger - RG3	HOBO Temperature/RH Smart Sensor (S-THB-M002)	Soil Moisture Smart Sensor - EC5 (S-SMC-M005)	2019-08-21T13:00:01	0.00	21.819	52.000	0.6111	11.5
2451	AB07CD0350	WETLAND SAL01	SALINE (FEN)	56.573903999999998859493643976747989654541015625	-111.277773999999993748133420012891292572021484375	HOBO Rain Gauge Data Logger - RG3	HOBO Temperature/RH Smart Sensor (S-THB-M002)	Soil Moisture Smart Sensor - EC5 (S-SMC-M005)	2019-08-21T14:00:01	0.00	24.243	47.700	0.6111	12.5
2452	AB07CD0350	WETLAND SAL01	SALINE (FEN)	56.573903999999998859493643976747989654541015625	-111.277773999999993748133420012891292572021484375	HOBO Rain Gauge Data Logger - RG3	HOBO Temperature/RH Smart Sensor (S-THB-M002)	Soil Moisture Smart Sensor - EC5 (S-SMC-M005)	2019-08-21T15:00:01	0.00	24.750	40.000	0.6111	10.3
2453	AB07CD0350	WETLAND SAL01	SALINE (FEN)	56.573903999999998859493643976747989654541015625	-111.277773999999993748133420012891292572021484375	HOBO Rain Gauge Data Logger - RG3	HOBO Temperature/RH Smart Sensor (S-THB-M002)	Soil Moisture Smart Sensor - EC5 (S-SMC-M005)	2019-08-21T16:00:01	0.00	25.987	37.700	0.6111	10.5
2454	AB07CD0350	WETLAND SAL01	SALINE (FEN)	56.573903999999998859493643976747989654541015625	-111.277773999999993748133420012891292572021484375	HOBO Rain Gauge Data Logger - RG3	HOBO Temperature/RH Smart Sensor (S-THB-M002)	Soil Moisture Smart Sensor - EC5 (S-SMC-M005)	2019-08-21T17:00:01	0.00	25.744	35.600	0.6111	9.4
2455	AB07CD0350	WETLAND SAL01	SALINE (FEN)	56.573903999999998859493643976747989654541015625	-111.277773999999993748133420012891292572021484375	HOBO Rain Gauge Data Logger - RG3	HOBO Temperature/RH Smart Sensor (S-THB-M002)	Soil Moisture Smart Sensor - EC5 (S-SMC-M005)	2019-08-21T18:00:01	0.00	25.162	37.500	0.6111	9.7
2456	AB07CD0350	WETLAND SAL01	SALINE (FEN)	56.573903999999998859493643976747989654541015625	-111.277773999999993748133420012891292572021484375	HOBO Rain Gauge Data Logger - RG3	HOBO Temperature/RH Smart Sensor (S-THB-M002)	Soil Moisture Smart Sensor - EC5 (S-SMC-M005)	2019-08-21T19:00:01	0.00	24.171	42.100	0.6111	10.5
2457	AB07CD0350	WETLAND SAL01	SALINE (FEN)	56.573903999999998859493643976747989654541015625	-111.277773999999993748133420012891292572021484375	HOBO Rain Gauge Data Logger - RG3	HOBO Temperature/RH Smart Sensor (S-THB-M002)	Soil Moisture Smart Sensor - EC5 (S-SMC-M005)	2019-08-21T20:00:01	0.00	22.441	47.100	0.6111	10.6
2458	AB07CD0350	WETLAND SAL01	SALINE (FEN)	56.573903999999998859493643976747989654541015625	-111.277773999999993748133420012891292572021484375	HOBO Rain Gauge Data Logger - RG3	HOBO Temperature/RH Smart Sensor (S-THB-M002)	Soil Moisture Smart Sensor - EC5 (S-SMC-M005)	2019-08-21T21:00:01	0.00	20.865	54.500	0.6111	11.4
2459	AB07CD0350	WETLAND SAL01	SALINE (FEN)	56.573903999999998859493643976747989654541015625	-111.277773999999993748133420012891292572021484375	HOBO Rain Gauge Data Logger - RG3	HOBO Temperature/RH Smart Sensor (S-THB-M002)	Soil Moisture Smart Sensor - EC5 (S-SMC-M005)	2019-08-21T22:00:01	0.00	19.841	59.400	0.6119	11.7
2460	AB07CD0350	WETLAND SAL01	SALINE (FEN)	56.573903999999998859493643976747989654541015625	-111.277773999999993748133420012891292572021484375	HOBO Rain Gauge Data Logger - RG3	HOBO Temperature/RH Smart Sensor (S-THB-M002)	Soil Moisture Smart Sensor - EC5 (S-SMC-M005)	2019-08-21T23:00:01	0.00	19.246	61.500	0.6119	11.7
2461	AB07CD0350	WETLAND SAL01	SALINE (FEN)	56.573903999999998859493643976747989654541015625	-111.277773999999993748133420012891292572021484375	HOBO Rain Gauge Data Logger - RG3	HOBO Temperature/RH Smart Sensor (S-THB-M002)	Soil Moisture Smart Sensor - EC5 (S-SMC-M005)	2019-08-22T00:00:01	0.00	18.010	63.900	0.6119	11.1
2462	AB07CD0350	WETLAND SAL01	SALINE (FEN)	56.573903999999998859493643976747989654541015625	-111.277773999999993748133420012891292572021484375	HOBO Rain Gauge Data Logger - RG3	HOBO Temperature/RH Smart Sensor (S-THB-M002)	Soil Moisture Smart Sensor - EC5 (S-SMC-M005)	2019-08-22T01:00:01	0.00	17.225	66.800	0.6119	11.0
2463	AB07CD0350	WETLAND SAL01	SALINE (FEN)	56.573903999999998859493643976747989654541015625	-111.277773999999993748133420012891292572021484375	HOBO Rain Gauge Data Logger - RG3	HOBO Temperature/RH Smart Sensor (S-THB-M002)	Soil Moisture Smart Sensor - EC5 (S-SMC-M005)	2019-08-22T02:00:01	0.00	16.701	69.000	0.6119	11.0
2464	AB07CD0350	WETLAND SAL01	SALINE (FEN)	56.573903999999998859493643976747989654541015625	-111.277773999999993748133420012891292572021484375	HOBO Rain Gauge Data Logger - RG3	HOBO Temperature/RH Smart Sensor (S-THB-M002)	Soil Moisture Smart Sensor - EC5 (S-SMC-M005)	2019-08-22T03:00:01	0.00	16.415	69.500	0.6119	10.8
2465	AB07CD0350	WETLAND SAL01	SALINE (FEN)	56.573903999999998859493643976747989654541015625	-111.277773999999993748133420012891292572021484375	HOBO Rain Gauge Data Logger - RG3	HOBO Temperature/RH Smart Sensor (S-THB-M002)	Soil Moisture Smart Sensor - EC5 (S-SMC-M005)	2019-08-22T04:00:01	0.00	16.582	69.800	0.6126	11.1
2466	AB07CD0350	WETLAND SAL01	SALINE (FEN)	56.573903999999998859493643976747989654541015625	-111.277773999999993748133420012891292572021484375	HOBO Rain Gauge Data Logger - RG3	HOBO Temperature/RH Smart Sensor (S-THB-M002)	Soil Moisture Smart Sensor - EC5 (S-SMC-M005)	2019-08-22T05:00:01	0.20	14.505	73.300	0.6126	9.8
2467	AB07CD0350	WETLAND SAL01	SALINE (FEN)	56.573903999999998859493643976747989654541015625	-111.277773999999993748133420012891292572021484375	HOBO Rain Gauge Data Logger - RG3	HOBO Temperature/RH Smart Sensor (S-THB-M002)	Soil Moisture Smart Sensor - EC5 (S-SMC-M005)	2019-08-22T06:00:01	0.40	14.457	87.200	0.6126	12.4
2468	AB07CD0350	WETLAND SAL01	SALINE (FEN)	56.573903999999998859493643976747989654541015625	-111.277773999999993748133420012891292572021484375	HOBO Rain Gauge Data Logger - RG3	HOBO Temperature/RH Smart Sensor (S-THB-M002)	Soil Moisture Smart Sensor - EC5 (S-SMC-M005)	2019-08-22T07:00:01	1.20	14.002	91.900	0.6126	12.7
2469	AB07CD0350	WETLAND SAL01	SALINE (FEN)	56.573903999999998859493643976747989654541015625	-111.277773999999993748133420012891292572021484375	HOBO Rain Gauge Data Logger - RG3	HOBO Temperature/RH Smart Sensor (S-THB-M002)	Soil Moisture Smart Sensor - EC5 (S-SMC-M005)	2019-08-22T08:00:01	0.40	13.834	93.900	0.6126	12.9
2470	AB07CD0350	WETLAND SAL01	SALINE (FEN)	56.573903999999998859493643976747989654541015625	-111.277773999999993748133420012891292572021484375	HOBO Rain Gauge Data Logger - RG3	HOBO Temperature/RH Smart Sensor (S-THB-M002)	Soil Moisture Smart Sensor - EC5 (S-SMC-M005)	2019-08-22T09:00:01	0.00	14.098	93.900	0.6126	13.1
2471	AB07CD0350	WETLAND SAL01	SALINE (FEN)	56.573903999999998859493643976747989654541015625	-111.277773999999993748133420012891292572021484375	HOBO Rain Gauge Data Logger - RG3	HOBO Temperature/RH Smart Sensor (S-THB-M002)	Soil Moisture Smart Sensor - EC5 (S-SMC-M005)	2019-08-22T10:00:01	0.00	15.652	89.800	0.6126	14.0
2472	AB07CD0350	WETLAND SAL01	SALINE (FEN)	56.573903999999998859493643976747989654541015625	-111.277773999999993748133420012891292572021484375	HOBO Rain Gauge Data Logger - RG3	HOBO Temperature/RH Smart Sensor (S-THB-M002)	Soil Moisture Smart Sensor - EC5 (S-SMC-M005)	2019-08-22T11:00:01	0.00	16.606	81.600	0.6126	13.5
2473	AB07CD0350	WETLAND SAL01	SALINE (FEN)	56.573903999999998859493643976747989654541015625	-111.277773999999993748133420012891292572021484375	HOBO Rain Gauge Data Logger - RG3	HOBO Temperature/RH Smart Sensor (S-THB-M002)	Soil Moisture Smart Sensor - EC5 (S-SMC-M005)	2019-08-22T12:00:01	0.00	16.844	74.400	0.6126	12.3
2474	AB07CD0350	WETLAND SAL01	SALINE (FEN)	56.573903999999998859493643976747989654541015625	-111.277773999999993748133420012891292572021484375	HOBO Rain Gauge Data Logger - RG3	HOBO Temperature/RH Smart Sensor (S-THB-M002)	Soil Moisture Smart Sensor - EC5 (S-SMC-M005)	2019-08-22T13:00:01	0.00	18.866	64.500	0.6126	12.0
2475	AB07CD0350	WETLAND SAL01	SALINE (FEN)	56.573903999999998859493643976747989654541015625	-111.277773999999993748133420012891292572021484375	HOBO Rain Gauge Data Logger - RG3	HOBO Temperature/RH Smart Sensor (S-THB-M002)	Soil Moisture Smart Sensor - EC5 (S-SMC-M005)	2019-08-22T14:00:01	0.00	18.628	53.100	0.6126	8.9
2476	AB07CD0350	WETLAND SAL01	SALINE (FEN)	56.573903999999998859493643976747989654541015625	-111.277773999999993748133420012891292572021484375	HOBO Rain Gauge Data Logger - RG3	HOBO Temperature/RH Smart Sensor (S-THB-M002)	Soil Moisture Smart Sensor - EC5 (S-SMC-M005)	2019-08-22T15:00:01	0.00	18.723	49.000	0.6126	7.8
2477	AB07CD0350	WETLAND SAL01	SALINE (FEN)	56.573903999999998859493643976747989654541015625	-111.277773999999993748133420012891292572021484375	HOBO Rain Gauge Data Logger - RG3	HOBO Temperature/RH Smart Sensor (S-THB-M002)	Soil Moisture Smart Sensor - EC5 (S-SMC-M005)	2019-08-22T16:00:01	0.00	17.629	51.600	0.6126	7.6
2478	AB07CD0350	WETLAND SAL01	SALINE (FEN)	56.573903999999998859493643976747989654541015625	-111.277773999999993748133420012891292572021484375	HOBO Rain Gauge Data Logger - RG3	HOBO Temperature/RH Smart Sensor (S-THB-M002)	Soil Moisture Smart Sensor - EC5 (S-SMC-M005)	2019-08-22T17:00:01	0.00	16.773	57.800	0.6126	8.4
2479	AB07CD0350	WETLAND SAL01	SALINE (FEN)	56.573903999999998859493643976747989654541015625	-111.277773999999993748133420012891292572021484375	HOBO Rain Gauge Data Logger - RG3	HOBO Temperature/RH Smart Sensor (S-THB-M002)	Soil Moisture Smart Sensor - EC5 (S-SMC-M005)	2019-08-22T18:00:01	0.00	16.868	59.000	0.6126	8.8
2480	AB07CD0350	WETLAND SAL01	SALINE (FEN)	56.573903999999998859493643976747989654541015625	-111.277773999999993748133420012891292572021484375	HOBO Rain Gauge Data Logger - RG3	HOBO Temperature/RH Smart Sensor (S-THB-M002)	Soil Moisture Smart Sensor - EC5 (S-SMC-M005)	2019-08-22T19:00:01	0.00	17.225	54.200	0.6126	7.9
2481	AB07CD0350	WETLAND SAL01	SALINE (FEN)	56.573903999999998859493643976747989654541015625	-111.277773999999993748133420012891292572021484375	HOBO Rain Gauge Data Logger - RG3	HOBO Temperature/RH Smart Sensor (S-THB-M002)	Soil Moisture Smart Sensor - EC5 (S-SMC-M005)	2019-08-22T20:00:01	0.00	15.342	53.500	0.6126	6.0
2482	AB07CD0350	WETLAND SAL01	SALINE (FEN)	56.573903999999998859493643976747989654541015625	-111.277773999999993748133420012891292572021484375	HOBO Rain Gauge Data Logger - RG3	HOBO Temperature/RH Smart Sensor (S-THB-M002)	Soil Moisture Smart Sensor - EC5 (S-SMC-M005)	2019-08-22T21:00:01	0.00	13.040	58.800	0.6126	5.2
2483	AB07CD0350	WETLAND SAL01	SALINE (FEN)	56.573903999999998859493643976747989654541015625	-111.277773999999993748133420012891292572021484375	HOBO Rain Gauge Data Logger - RG3	HOBO Temperature/RH Smart Sensor (S-THB-M002)	Soil Moisture Smart Sensor - EC5 (S-SMC-M005)	2019-08-22T22:00:01	0.00	9.213	72.500	0.6126	4.5
2484	AB07CD0350	WETLAND SAL01	SALINE (FEN)	56.573903999999998859493643976747989654541015625	-111.277773999999993748133420012891292572021484375	HOBO Rain Gauge Data Logger - RG3	HOBO Temperature/RH Smart Sensor (S-THB-M002)	Soil Moisture Smart Sensor - EC5 (S-SMC-M005)	2019-08-22T23:00:01	0.00	9.682	85.000	0.6126	7.3
2485	AB07CD0350	WETLAND SAL01	SALINE (FEN)	56.573903999999998859493643976747989654541015625	-111.277773999999993748133420012891292572021484375	HOBO Rain Gauge Data Logger - RG3	HOBO Temperature/RH Smart Sensor (S-THB-M002)	Soil Moisture Smart Sensor - EC5 (S-SMC-M005)	2019-08-23T00:00:01	0.00	9.262	83.900	0.6133	6.7
2486	AB07CD0350	WETLAND SAL01	SALINE (FEN)	56.573903999999998859493643976747989654541015625	-111.277773999999993748133420012891292572021484375	HOBO Rain Gauge Data Logger - RG3	HOBO Temperature/RH Smart Sensor (S-THB-M002)	Soil Moisture Smart Sensor - EC5 (S-SMC-M005)	2019-08-23T01:00:01	0.00	8.469	85.900	0.6133	6.3
2487	AB07CD0350	WETLAND SAL01	SALINE (FEN)	56.573903999999998859493643976747989654541015625	-111.277773999999993748133420012891292572021484375	HOBO Rain Gauge Data Logger - RG3	HOBO Temperature/RH Smart Sensor (S-THB-M002)	Soil Moisture Smart Sensor - EC5 (S-SMC-M005)	2019-08-23T02:00:01	0.00	7.619	87.000	0.6126	5.6
2488	AB07CD0350	WETLAND SAL01	SALINE (FEN)	56.573903999999998859493643976747989654541015625	-111.277773999999993748133420012891292572021484375	HOBO Rain Gauge Data Logger - RG3	HOBO Temperature/RH Smart Sensor (S-THB-M002)	Soil Moisture Smart Sensor - EC5 (S-SMC-M005)	2019-08-23T03:00:01	0.00	7.242	88.900	0.6133	5.5
2489	AB07CD0350	WETLAND SAL01	SALINE (FEN)	56.573903999999998859493643976747989654541015625	-111.277773999999993748133420012891292572021484375	HOBO Rain Gauge Data Logger - RG3	HOBO Temperature/RH Smart Sensor (S-THB-M002)	Soil Moisture Smart Sensor - EC5 (S-SMC-M005)	2019-08-23T04:00:01	0.00	7.368	89.900	0.6133	5.8
2490	AB07CD0350	WETLAND SAL01	SALINE (FEN)	56.573903999999998859493643976747989654541015625	-111.277773999999993748133420012891292572021484375	HOBO Rain Gauge Data Logger - RG3	HOBO Temperature/RH Smart Sensor (S-THB-M002)	Soil Moisture Smart Sensor - EC5 (S-SMC-M005)	2019-08-23T05:00:01	0.00	4.818	90.200	0.6133	3.4
2491	AB07CD0350	WETLAND SAL01	SALINE (FEN)	56.573903999999998859493643976747989654541015625	-111.277773999999993748133420012891292572021484375	HOBO Rain Gauge Data Logger - RG3	HOBO Temperature/RH Smart Sensor (S-THB-M002)	Soil Moisture Smart Sensor - EC5 (S-SMC-M005)	2019-08-23T06:00:01	0.00	5.128	93.500	0.6133	4.2
2492	AB07CD0350	WETLAND SAL01	SALINE (FEN)	56.573903999999998859493643976747989654541015625	-111.277773999999993748133420012891292572021484375	HOBO Rain Gauge Data Logger - RG3	HOBO Temperature/RH Smart Sensor (S-THB-M002)	Soil Moisture Smart Sensor - EC5 (S-SMC-M005)	2019-08-23T07:00:01	0.00	7.318	93.900	0.6133	6.4
2493	AB07CD0350	WETLAND SAL01	SALINE (FEN)	56.573903999999998859493643976747989654541015625	-111.277773999999993748133420012891292572021484375	HOBO Rain Gauge Data Logger - RG3	HOBO Temperature/RH Smart Sensor (S-THB-M002)	Soil Moisture Smart Sensor - EC5 (S-SMC-M005)	2019-08-23T08:00:01	0.00	11.613	88.700	0.6133	9.8
2494	AB07CD0350	WETLAND SAL01	SALINE (FEN)	56.573903999999998859493643976747989654541015625	-111.277773999999993748133420012891292572021484375	HOBO Rain Gauge Data Logger - RG3	HOBO Temperature/RH Smart Sensor (S-THB-M002)	Soil Moisture Smart Sensor - EC5 (S-SMC-M005)	2019-08-23T09:00:01	0.00	12.630	83.000	0.6133	9.8
2495	AB07CD0350	WETLAND SAL01	SALINE (FEN)	56.573903999999998859493643976747989654541015625	-111.277773999999993748133420012891292572021484375	HOBO Rain Gauge Data Logger - RG3	HOBO Temperature/RH Smart Sensor (S-THB-M002)	Soil Moisture Smart Sensor - EC5 (S-SMC-M005)	2019-08-23T10:00:01	0.00	14.888	76.400	0.6133	10.8
2496	AB07CD0350	WETLAND SAL01	SALINE (FEN)	56.573903999999998859493643976747989654541015625	-111.277773999999993748133420012891292572021484375	HOBO Rain Gauge Data Logger - RG3	HOBO Temperature/RH Smart Sensor (S-THB-M002)	Soil Moisture Smart Sensor - EC5 (S-SMC-M005)	2019-08-23T11:00:01	0.00	16.439	64.500	0.6133	9.7
2497	AB07CD0350	WETLAND SAL01	SALINE (FEN)	56.573903999999998859493643976747989654541015625	-111.277773999999993748133420012891292572021484375	HOBO Rain Gauge Data Logger - RG3	HOBO Temperature/RH Smart Sensor (S-THB-M002)	Soil Moisture Smart Sensor - EC5 (S-SMC-M005)	2019-08-23T12:00:01	0.00	16.225	57.200	0.6126	7.8
2498	AB07CD0350	WETLAND SAL01	SALINE (FEN)	56.573903999999998859493643976747989654541015625	-111.277773999999993748133420012891292572021484375	HOBO Rain Gauge Data Logger - RG3	HOBO Temperature/RH Smart Sensor (S-THB-M002)	Soil Moisture Smart Sensor - EC5 (S-SMC-M005)	2019-08-23T13:00:01	0.00	16.296	59.400	0.6126	8.4
2499	AB07CD0350	WETLAND SAL01	SALINE (FEN)	56.573903999999998859493643976747989654541015625	-111.277773999999993748133420012891292572021484375	HOBO Rain Gauge Data Logger - RG3	HOBO Temperature/RH Smart Sensor (S-THB-M002)	Soil Moisture Smart Sensor - EC5 (S-SMC-M005)	2019-08-23T14:00:01	0.00	15.509	67.600	0.6126	9.6
2500	AB07CD0350	WETLAND SAL01	SALINE (FEN)	56.573903999999998859493643976747989654541015625	-111.277773999999993748133420012891292572021484375	HOBO Rain Gauge Data Logger - RG3	HOBO Temperature/RH Smart Sensor (S-THB-M002)	Soil Moisture Smart Sensor - EC5 (S-SMC-M005)	2019-08-23T15:00:01	0.00	15.963	67.600	0.6126	10.0
2501	AB07CD0350	WETLAND SAL01	SALINE (FEN)	56.573903999999998859493643976747989654541015625	-111.277773999999993748133420012891292572021484375	HOBO Rain Gauge Data Logger - RG3	HOBO Temperature/RH Smart Sensor (S-THB-M002)	Soil Moisture Smart Sensor - EC5 (S-SMC-M005)	2019-08-23T16:00:01	0.00	17.439	64.800	0.6126	10.8
2502	AB07CD0350	WETLAND SAL01	SALINE (FEN)	56.573903999999998859493643976747989654541015625	-111.277773999999993748133420012891292572021484375	HOBO Rain Gauge Data Logger - RG3	HOBO Temperature/RH Smart Sensor (S-THB-M002)	Soil Moisture Smart Sensor - EC5 (S-SMC-M005)	2019-08-23T17:00:01	0.00	16.963	62.200	0.6119	9.7
2503	AB07CD0350	WETLAND SAL01	SALINE (FEN)	56.573903999999998859493643976747989654541015625	-111.277773999999993748133420012891292572021484375	HOBO Rain Gauge Data Logger - RG3	HOBO Temperature/RH Smart Sensor (S-THB-M002)	Soil Moisture Smart Sensor - EC5 (S-SMC-M005)	2019-08-23T18:00:01	0.00	17.843	65.900	0.6126	11.4
2504	AB07CD0350	WETLAND SAL01	SALINE (FEN)	56.573903999999998859493643976747989654541015625	-111.277773999999993748133420012891292572021484375	HOBO Rain Gauge Data Logger - RG3	HOBO Temperature/RH Smart Sensor (S-THB-M002)	Soil Moisture Smart Sensor - EC5 (S-SMC-M005)	2019-08-23T19:00:01	0.00	16.987	64.800	0.6119	10.3
2505	AB07CD0350	WETLAND SAL01	SALINE (FEN)	56.573903999999998859493643976747989654541015625	-111.277773999999993748133420012891292572021484375	HOBO Rain Gauge Data Logger - RG3	HOBO Temperature/RH Smart Sensor (S-THB-M002)	Soil Moisture Smart Sensor - EC5 (S-SMC-M005)	2019-08-23T20:00:01	0.00	15.867	66.400	0.6119	9.6
2506	AB07CD0350	WETLAND SAL01	SALINE (FEN)	56.573903999999998859493643976747989654541015625	-111.277773999999993748133420012891292572021484375	HOBO Rain Gauge Data Logger - RG3	HOBO Temperature/RH Smart Sensor (S-THB-M002)	Soil Moisture Smart Sensor - EC5 (S-SMC-M005)	2019-08-23T21:00:01	0.00	15.438	70.900	0.6119	10.2
2507	AB07CD0350	WETLAND SAL01	SALINE (FEN)	56.573903999999998859493643976747989654541015625	-111.277773999999993748133420012891292572021484375	HOBO Rain Gauge Data Logger - RG3	HOBO Temperature/RH Smart Sensor (S-THB-M002)	Soil Moisture Smart Sensor - EC5 (S-SMC-M005)	2019-08-23T22:00:01	0.00	15.390	72.500	0.6119	10.5
2508	AB07CD0350	WETLAND SAL01	SALINE (FEN)	56.573903999999998859493643976747989654541015625	-111.277773999999993748133420012891292572021484375	HOBO Rain Gauge Data Logger - RG3	HOBO Temperature/RH Smart Sensor (S-THB-M002)	Soil Moisture Smart Sensor - EC5 (S-SMC-M005)	2019-08-23T23:00:01	0.00	15.318	75.500	0.6119	11.0
2509	AB07CD0350	WETLAND SAL01	SALINE (FEN)	56.573903999999998859493643976747989654541015625	-111.277773999999993748133420012891292572021484375	HOBO Rain Gauge Data Logger - RG3	HOBO Temperature/RH Smart Sensor (S-THB-M002)	Soil Moisture Smart Sensor - EC5 (S-SMC-M005)	2019-08-24T00:00:01	0.00	16.225	75.400	0.6119	11.9
2510	AB07CD0350	WETLAND SAL01	SALINE (FEN)	56.573903999999998859493643976747989654541015625	-111.277773999999993748133420012891292572021484375	HOBO Rain Gauge Data Logger - RG3	HOBO Temperature/RH Smart Sensor (S-THB-M002)	Soil Moisture Smart Sensor - EC5 (S-SMC-M005)	2019-08-24T01:00:01	0.00	15.509	74.200	0.6119	11.0
2511	AB07CD0350	WETLAND SAL01	SALINE (FEN)	56.573903999999998859493643976747989654541015625	-111.277773999999993748133420012891292572021484375	HOBO Rain Gauge Data Logger - RG3	HOBO Temperature/RH Smart Sensor (S-THB-M002)	Soil Moisture Smart Sensor - EC5 (S-SMC-M005)	2019-08-24T02:00:01	0.00	13.473	79.600	0.6119	10.0
2512	AB07CD0350	WETLAND SAL01	SALINE (FEN)	56.573903999999998859493643976747989654541015625	-111.277773999999993748133420012891292572021484375	HOBO Rain Gauge Data Logger - RG3	HOBO Temperature/RH Smart Sensor (S-THB-M002)	Soil Moisture Smart Sensor - EC5 (S-SMC-M005)	2019-08-24T03:00:01	0.00	11.224	88.500	0.6119	9.4
2513	AB07CD0350	WETLAND SAL01	SALINE (FEN)	56.573903999999998859493643976747989654541015625	-111.277773999999993748133420012891292572021484375	HOBO Rain Gauge Data Logger - RG3	HOBO Temperature/RH Smart Sensor (S-THB-M002)	Soil Moisture Smart Sensor - EC5 (S-SMC-M005)	2019-08-24T04:00:01	0.00	11.151	92.400	0.6119	10.0
2514	AB07CD0350	WETLAND SAL01	SALINE (FEN)	56.573903999999998859493643976747989654541015625	-111.277773999999993748133420012891292572021484375	HOBO Rain Gauge Data Logger - RG3	HOBO Temperature/RH Smart Sensor (S-THB-M002)	Soil Moisture Smart Sensor - EC5 (S-SMC-M005)	2019-08-24T05:00:01	0.00	10.761	93.600	0.6126	9.8
2515	AB07CD0350	WETLAND SAL01	SALINE (FEN)	56.573903999999998859493643976747989654541015625	-111.277773999999993748133420012891292572021484375	HOBO Rain Gauge Data Logger - RG3	HOBO Temperature/RH Smart Sensor (S-THB-M002)	Soil Moisture Smart Sensor - EC5 (S-SMC-M005)	2019-08-24T06:00:01	0.00	10.198	94.300	0.6126	9.3
2516	AB07CD0350	WETLAND SAL01	SALINE (FEN)	56.573903999999998859493643976747989654541015625	-111.277773999999993748133420012891292572021484375	HOBO Rain Gauge Data Logger - RG3	HOBO Temperature/RH Smart Sensor (S-THB-M002)	Soil Moisture Smart Sensor - EC5 (S-SMC-M005)	2019-08-24T07:00:01	0.00	10.247	95.000	0.6119	9.5
2517	AB07CD0350	WETLAND SAL01	SALINE (FEN)	56.573903999999998859493643976747989654541015625	-111.277773999999993748133420012891292572021484375	HOBO Rain Gauge Data Logger - RG3	HOBO Temperature/RH Smart Sensor (S-THB-M002)	Soil Moisture Smart Sensor - EC5 (S-SMC-M005)	2019-08-24T08:00:01	0.00	14.409	91.900	0.6119	13.1
2518	AB07CD0350	WETLAND SAL01	SALINE (FEN)	56.573903999999998859493643976747989654541015625	-111.277773999999993748133420012891292572021484375	HOBO Rain Gauge Data Logger - RG3	HOBO Temperature/RH Smart Sensor (S-THB-M002)	Soil Moisture Smart Sensor - EC5 (S-SMC-M005)	2019-08-24T09:00:01	0.00	17.772	80.400	0.6119	14.4
2519	AB07CD0350	WETLAND SAL01	SALINE (FEN)	56.573903999999998859493643976747989654541015625	-111.277773999999993748133420012891292572021484375	HOBO Rain Gauge Data Logger - RG3	HOBO Temperature/RH Smart Sensor (S-THB-M002)	Soil Moisture Smart Sensor - EC5 (S-SMC-M005)	2019-08-24T10:00:01	0.00	19.841	69.700	0.6119	14.2
2520	AB07CD0350	WETLAND SAL01	SALINE (FEN)	56.573903999999998859493643976747989654541015625	-111.277773999999993748133420012891292572021484375	HOBO Rain Gauge Data Logger - RG3	HOBO Temperature/RH Smart Sensor (S-THB-M002)	Soil Moisture Smart Sensor - EC5 (S-SMC-M005)	2019-08-24T11:00:01	0.00	20.579	63.300	0.6126	13.4
2521	AB07CD0350	WETLAND SAL01	SALINE (FEN)	56.573903999999998859493643976747989654541015625	-111.277773999999993748133420012891292572021484375	HOBO Rain Gauge Data Logger - RG3	HOBO Temperature/RH Smart Sensor (S-THB-M002)	Soil Moisture Smart Sensor - EC5 (S-SMC-M005)	2019-08-24T12:00:01	0.00	21.079	60.200	0.6126	13.1
2522	AB07CD0350	WETLAND SAL01	SALINE (FEN)	56.573903999999998859493643976747989654541015625	-111.277773999999993748133420012891292572021484375	HOBO Rain Gauge Data Logger - RG3	HOBO Temperature/RH Smart Sensor (S-THB-M002)	Soil Moisture Smart Sensor - EC5 (S-SMC-M005)	2019-08-24T13:00:01	0.00	20.674	54.300	0.6126	11.1
2523	AB07CD0350	WETLAND SAL01	SALINE (FEN)	56.573903999999998859493643976747989654541015625	-111.277773999999993748133420012891292572021484375	HOBO Rain Gauge Data Logger - RG3	HOBO Temperature/RH Smart Sensor (S-THB-M002)	Soil Moisture Smart Sensor - EC5 (S-SMC-M005)	2019-08-24T14:00:01	0.00	22.274	51.700	0.6119	11.9
2524	AB07CD0350	WETLAND SAL01	SALINE (FEN)	56.573903999999998859493643976747989654541015625	-111.277773999999993748133420012891292572021484375	HOBO Rain Gauge Data Logger - RG3	HOBO Temperature/RH Smart Sensor (S-THB-M002)	Soil Moisture Smart Sensor - EC5 (S-SMC-M005)	2019-08-24T15:00:01	0.00	21.724	47.400	0.6119	10.1
2525	AB07CD0350	WETLAND SAL01	SALINE (FEN)	56.573903999999998859493643976747989654541015625	-111.277773999999993748133420012891292572021484375	HOBO Rain Gauge Data Logger - RG3	HOBO Temperature/RH Smart Sensor (S-THB-M002)	Soil Moisture Smart Sensor - EC5 (S-SMC-M005)	2019-08-24T16:00:01	0.00	22.489	43.800	0.6126	9.6
2526	AB07CD0350	WETLAND SAL01	SALINE (FEN)	56.573903999999998859493643976747989654541015625	-111.277773999999993748133420012891292572021484375	HOBO Rain Gauge Data Logger - RG3	HOBO Temperature/RH Smart Sensor (S-THB-M002)	Soil Moisture Smart Sensor - EC5 (S-SMC-M005)	2019-08-24T17:00:01	0.00	21.939	41.100	0.6119	8.1
2527	AB07CD0350	WETLAND SAL01	SALINE (FEN)	56.573903999999998859493643976747989654541015625	-111.277773999999993748133420012891292572021484375	HOBO Rain Gauge Data Logger - RG3	HOBO Temperature/RH Smart Sensor (S-THB-M002)	Soil Moisture Smart Sensor - EC5 (S-SMC-M005)	2019-08-24T18:00:01	0.00	21.652	41.600	0.6119	8.1
2528	AB07CD0350	WETLAND SAL01	SALINE (FEN)	56.573903999999998859493643976747989654541015625	-111.277773999999993748133420012891292572021484375	HOBO Rain Gauge Data Logger - RG3	HOBO Temperature/RH Smart Sensor (S-THB-M002)	Soil Moisture Smart Sensor - EC5 (S-SMC-M005)	2019-08-24T19:00:01	0.00	20.627	48.000	0.6119	9.2
2529	AB07CD0350	WETLAND SAL01	SALINE (FEN)	56.573903999999998859493643976747989654541015625	-111.277773999999993748133420012891292572021484375	HOBO Rain Gauge Data Logger - RG3	HOBO Temperature/RH Smart Sensor (S-THB-M002)	Soil Moisture Smart Sensor - EC5 (S-SMC-M005)	2019-08-24T20:00:01	0.00	19.222	51.900	0.6119	9.1
2530	AB07CD0350	WETLAND SAL01	SALINE (FEN)	56.573903999999998859493643976747989654541015625	-111.277773999999993748133420012891292572021484375	HOBO Rain Gauge Data Logger - RG3	HOBO Temperature/RH Smart Sensor (S-THB-M002)	Soil Moisture Smart Sensor - EC5 (S-SMC-M005)	2019-08-24T21:00:01	0.00	16.844	56.800	0.6119	8.2
2531	AB07CD0350	WETLAND SAL01	SALINE (FEN)	56.573903999999998859493643976747989654541015625	-111.277773999999993748133420012891292572021484375	HOBO Rain Gauge Data Logger - RG3	HOBO Temperature/RH Smart Sensor (S-THB-M002)	Soil Moisture Smart Sensor - EC5 (S-SMC-M005)	2019-08-24T22:00:01	0.00	13.425	68.400	0.6119	7.7
2532	AB07CD0350	WETLAND SAL01	SALINE (FEN)	56.573903999999998859493643976747989654541015625	-111.277773999999993748133420012891292572021484375	HOBO Rain Gauge Data Logger - RG3	HOBO Temperature/RH Smart Sensor (S-THB-M002)	Soil Moisture Smart Sensor - EC5 (S-SMC-M005)	2019-08-24T23:00:01	0.00	14.194	73.300	0.6119	9.5
2533	AB07CD0350	WETLAND SAL01	SALINE (FEN)	56.573903999999998859493643976747989654541015625	-111.277773999999993748133420012891292572021484375	HOBO Rain Gauge Data Logger - RG3	HOBO Temperature/RH Smart Sensor (S-THB-M002)	Soil Moisture Smart Sensor - EC5 (S-SMC-M005)	2019-08-25T00:00:01	0.00	14.050	73.200	0.6126	9.3
2534	AB07CD0350	WETLAND SAL01	SALINE (FEN)	56.573903999999998859493643976747989654541015625	-111.277773999999993748133420012891292572021484375	HOBO Rain Gauge Data Logger - RG3	HOBO Temperature/RH Smart Sensor (S-THB-M002)	Soil Moisture Smart Sensor - EC5 (S-SMC-M005)	2019-08-25T01:00:01	0.00	12.920	77.200	0.6126	9.0
2535	AB07CD0350	WETLAND SAL01	SALINE (FEN)	56.573903999999998859493643976747989654541015625	-111.277773999999993748133420012891292572021484375	HOBO Rain Gauge Data Logger - RG3	HOBO Temperature/RH Smart Sensor (S-THB-M002)	Soil Moisture Smart Sensor - EC5 (S-SMC-M005)	2019-08-25T02:00:01	0.20	11.175	85.100	0.6126	8.8
2536	AB07CD0350	WETLAND SAL01	SALINE (FEN)	56.573903999999998859493643976747989654541015625	-111.277773999999993748133420012891292572021484375	HOBO Rain Gauge Data Logger - RG3	HOBO Temperature/RH Smart Sensor (S-THB-M002)	Soil Moisture Smart Sensor - EC5 (S-SMC-M005)	2019-08-25T03:00:01	0.00	11.419	87.700	0.6126	9.5
2537	AB07CD0350	WETLAND SAL01	SALINE (FEN)	56.573903999999998859493643976747989654541015625	-111.277773999999993748133420012891292572021484375	HOBO Rain Gauge Data Logger - RG3	HOBO Temperature/RH Smart Sensor (S-THB-M002)	Soil Moisture Smart Sensor - EC5 (S-SMC-M005)	2019-08-25T04:00:01	0.00	10.932	87.300	0.6126	8.9
2538	AB07CD0350	WETLAND SAL01	SALINE (FEN)	56.573903999999998859493643976747989654541015625	-111.277773999999993748133420012891292572021484375	HOBO Rain Gauge Data Logger - RG3	HOBO Temperature/RH Smart Sensor (S-THB-M002)	Soil Moisture Smart Sensor - EC5 (S-SMC-M005)	2019-08-25T05:00:01	0.00	10.541	88.700	0.6133	8.8
2539	AB07CD0350	WETLAND SAL01	SALINE (FEN)	56.573903999999998859493643976747989654541015625	-111.277773999999993748133420012891292572021484375	HOBO Rain Gauge Data Logger - RG3	HOBO Temperature/RH Smart Sensor (S-THB-M002)	Soil Moisture Smart Sensor - EC5 (S-SMC-M005)	2019-08-25T06:00:01	0.00	9.854	89.600	0.6133	8.2
2540	AB07CD0350	WETLAND SAL01	SALINE (FEN)	56.573903999999998859493643976747989654541015625	-111.277773999999993748133420012891292572021484375	HOBO Rain Gauge Data Logger - RG3	HOBO Temperature/RH Smart Sensor (S-THB-M002)	Soil Moisture Smart Sensor - EC5 (S-SMC-M005)	2019-08-25T07:00:01	0.00	10.296	91.000	0.6133	8.9
2541	AB07CD0350	WETLAND SAL01	SALINE (FEN)	56.573903999999998859493643976747989654541015625	-111.277773999999993748133420012891292572021484375	HOBO Rain Gauge Data Logger - RG3	HOBO Temperature/RH Smart Sensor (S-THB-M002)	Soil Moisture Smart Sensor - EC5 (S-SMC-M005)	2019-08-25T08:00:01	0.00	12.268	87.300	0.6126	10.2
2542	AB07CD0350	WETLAND SAL01	SALINE (FEN)	56.573903999999998859493643976747989654541015625	-111.277773999999993748133420012891292572021484375	HOBO Rain Gauge Data Logger - RG3	HOBO Temperature/RH Smart Sensor (S-THB-M002)	Soil Moisture Smart Sensor - EC5 (S-SMC-M005)	2019-08-25T09:00:01	0.00	14.026	81.600	0.6126	10.9
2543	AB07CD0350	WETLAND SAL01	SALINE (FEN)	56.573903999999998859493643976747989654541015625	-111.277773999999993748133420012891292572021484375	HOBO Rain Gauge Data Logger - RG3	HOBO Temperature/RH Smart Sensor (S-THB-M002)	Soil Moisture Smart Sensor - EC5 (S-SMC-M005)	2019-08-25T10:00:01	0.00	16.534	76.000	0.6133	12.3
2544	AB07CD0350	WETLAND SAL01	SALINE (FEN)	56.573903999999998859493643976747989654541015625	-111.277773999999993748133420012891292572021484375	HOBO Rain Gauge Data Logger - RG3	HOBO Temperature/RH Smart Sensor (S-THB-M002)	Soil Moisture Smart Sensor - EC5 (S-SMC-M005)	2019-08-25T11:00:01	0.00	17.201	74.600	0.6133	12.7
2545	AB07CD0350	WETLAND SAL01	SALINE (FEN)	56.573903999999998859493643976747989654541015625	-111.277773999999993748133420012891292572021484375	HOBO Rain Gauge Data Logger - RG3	HOBO Temperature/RH Smart Sensor (S-THB-M002)	Soil Moisture Smart Sensor - EC5 (S-SMC-M005)	2019-08-25T12:00:01	0.00	18.794	70.800	0.6126	13.4
2546	AB07CD0350	WETLAND SAL01	SALINE (FEN)	56.573903999999998859493643976747989654541015625	-111.277773999999993748133420012891292572021484375	HOBO Rain Gauge Data Logger - RG3	HOBO Temperature/RH Smart Sensor (S-THB-M002)	Soil Moisture Smart Sensor - EC5 (S-SMC-M005)	2019-08-25T13:00:01	0.00	18.533	69.200	0.6133	12.8
2547	AB07CD0350	WETLAND SAL01	SALINE (FEN)	56.573903999999998859493643976747989654541015625	-111.277773999999993748133420012891292572021484375	HOBO Rain Gauge Data Logger - RG3	HOBO Temperature/RH Smart Sensor (S-THB-M002)	Soil Moisture Smart Sensor - EC5 (S-SMC-M005)	2019-08-25T14:00:01	0.00	18.509	67.000	0.6126	12.3
2548	AB07CD0350	WETLAND SAL01	SALINE (FEN)	56.573903999999998859493643976747989654541015625	-111.277773999999993748133420012891292572021484375	HOBO Rain Gauge Data Logger - RG3	HOBO Temperature/RH Smart Sensor (S-THB-M002)	Soil Moisture Smart Sensor - EC5 (S-SMC-M005)	2019-08-25T15:00:01	0.00	18.366	68.500	0.6133	12.5
2549	AB07CD0350	WETLAND SAL01	SALINE (FEN)	56.573903999999998859493643976747989654541015625	-111.277773999999993748133420012891292572021484375	HOBO Rain Gauge Data Logger - RG3	HOBO Temperature/RH Smart Sensor (S-THB-M002)	Soil Moisture Smart Sensor - EC5 (S-SMC-M005)	2019-08-25T16:00:01	0.00	19.389	64.100	0.6133	12.4
2550	AB07CD0350	WETLAND SAL01	SALINE (FEN)	56.573903999999998859493643976747989654541015625	-111.277773999999993748133420012891292572021484375	HOBO Rain Gauge Data Logger - RG3	HOBO Temperature/RH Smart Sensor (S-THB-M002)	Soil Moisture Smart Sensor - EC5 (S-SMC-M005)	2019-08-25T17:00:01	0.00	17.415	65.900	0.6133	11.0
2551	AB07CD0350	WETLAND SAL01	SALINE (FEN)	56.573903999999998859493643976747989654541015625	-111.277773999999993748133420012891292572021484375	HOBO Rain Gauge Data Logger - RG3	HOBO Temperature/RH Smart Sensor (S-THB-M002)	Soil Moisture Smart Sensor - EC5 (S-SMC-M005)	2019-08-25T18:00:01	0.00	18.533	68.000	0.6126	12.5
2552	AB07CD0350	WETLAND SAL01	SALINE (FEN)	56.573903999999998859493643976747989654541015625	-111.277773999999993748133420012891292572021484375	HOBO Rain Gauge Data Logger - RG3	HOBO Temperature/RH Smart Sensor (S-THB-M002)	Soil Moisture Smart Sensor - EC5 (S-SMC-M005)	2019-08-25T19:00:01	0.00	15.963	71.200	0.6133	10.8
2553	AB07CD0350	WETLAND SAL01	SALINE (FEN)	56.573903999999998859493643976747989654541015625	-111.277773999999993748133420012891292572021484375	HOBO Rain Gauge Data Logger - RG3	HOBO Temperature/RH Smart Sensor (S-THB-M002)	Soil Moisture Smart Sensor - EC5 (S-SMC-M005)	2019-08-25T20:00:01	0.00	14.433	76.200	0.6133	10.3
2554	AB07CD0350	WETLAND SAL01	SALINE (FEN)	56.573903999999998859493643976747989654541015625	-111.277773999999993748133420012891292572021484375	HOBO Rain Gauge Data Logger - RG3	HOBO Temperature/RH Smart Sensor (S-THB-M002)	Soil Moisture Smart Sensor - EC5 (S-SMC-M005)	2019-08-25T21:00:01	0.00	13.666	81.700	0.6133	10.6
2555	AB07CD0350	WETLAND SAL01	SALINE (FEN)	56.573903999999998859493643976747989654541015625	-111.277773999999993748133420012891292572021484375	HOBO Rain Gauge Data Logger - RG3	HOBO Temperature/RH Smart Sensor (S-THB-M002)	Soil Moisture Smart Sensor - EC5 (S-SMC-M005)	2019-08-25T22:00:01	0.00	13.064	85.400	0.6133	10.7
2556	AB07CD0350	WETLAND SAL01	SALINE (FEN)	56.573903999999998859493643976747989654541015625	-111.277773999999993748133420012891292572021484375	HOBO Rain Gauge Data Logger - RG3	HOBO Temperature/RH Smart Sensor (S-THB-M002)	Soil Moisture Smart Sensor - EC5 (S-SMC-M005)	2019-08-25T23:00:01	0.00	12.751	86.600	0.6133	10.6
2557	AB07CD0350	WETLAND SAL01	SALINE (FEN)	56.573903999999998859493643976747989654541015625	-111.277773999999993748133420012891292572021484375	HOBO Rain Gauge Data Logger - RG3	HOBO Temperature/RH Smart Sensor (S-THB-M002)	Soil Moisture Smart Sensor - EC5 (S-SMC-M005)	2019-08-26T00:00:01	0.00	12.268	88.200	0.6133	10.4
2558	AB07CD0350	WETLAND SAL01	SALINE (FEN)	56.573903999999998859493643976747989654541015625	-111.277773999999993748133420012891292572021484375	HOBO Rain Gauge Data Logger - RG3	HOBO Temperature/RH Smart Sensor (S-THB-M002)	Soil Moisture Smart Sensor - EC5 (S-SMC-M005)	2019-08-26T01:00:01	0.00	11.589	91.000	0.6126	10.2
2559	AB07CD0350	WETLAND SAL01	SALINE (FEN)	56.573903999999998859493643976747989654541015625	-111.277773999999993748133420012891292572021484375	HOBO Rain Gauge Data Logger - RG3	HOBO Temperature/RH Smart Sensor (S-THB-M002)	Soil Moisture Smart Sensor - EC5 (S-SMC-M005)	2019-08-26T02:00:01	0.00	11.175	92.800	0.6126	10.1
2560	AB07CD0350	WETLAND SAL01	SALINE (FEN)	56.573903999999998859493643976747989654541015625	-111.277773999999993748133420012891292572021484375	HOBO Rain Gauge Data Logger - RG3	HOBO Temperature/RH Smart Sensor (S-THB-M002)	Soil Moisture Smart Sensor - EC5 (S-SMC-M005)	2019-08-26T03:00:01	0.00	10.883	95.000	0.6126	10.1
2561	AB07CD0350	WETLAND SAL01	SALINE (FEN)	56.573903999999998859493643976747989654541015625	-111.277773999999993748133420012891292572021484375	HOBO Rain Gauge Data Logger - RG3	HOBO Temperature/RH Smart Sensor (S-THB-M002)	Soil Moisture Smart Sensor - EC5 (S-SMC-M005)	2019-08-26T04:00:01	0.00	11.321	96.200	0.6133	10.8
2562	AB07CD0350	WETLAND SAL01	SALINE (FEN)	56.573903999999998859493643976747989654541015625	-111.277773999999993748133420012891292572021484375	HOBO Rain Gauge Data Logger - RG3	HOBO Temperature/RH Smart Sensor (S-THB-M002)	Soil Moisture Smart Sensor - EC5 (S-SMC-M005)	2019-08-26T05:00:01	0.00	11.127	96.000	0.6126	10.5
2563	AB07CD0350	WETLAND SAL01	SALINE (FEN)	56.573903999999998859493643976747989654541015625	-111.277773999999993748133420012891292572021484375	HOBO Rain Gauge Data Logger - RG3	HOBO Temperature/RH Smart Sensor (S-THB-M002)	Soil Moisture Smart Sensor - EC5 (S-SMC-M005)	2019-08-26T06:00:01	0.00	11.078	96.000	0.6126	10.5
2564	AB07CD0350	WETLAND SAL01	SALINE (FEN)	56.573903999999998859493643976747989654541015625	-111.277773999999993748133420012891292572021484375	HOBO Rain Gauge Data Logger - RG3	HOBO Temperature/RH Smart Sensor (S-THB-M002)	Soil Moisture Smart Sensor - EC5 (S-SMC-M005)	2019-08-26T07:00:01	0.00	11.151	96.600	0.6133	10.6
2565	AB07CD0350	WETLAND SAL01	SALINE (FEN)	56.573903999999998859493643976747989654541015625	-111.277773999999993748133420012891292572021484375	HOBO Rain Gauge Data Logger - RG3	HOBO Temperature/RH Smart Sensor (S-THB-M002)	Soil Moisture Smart Sensor - EC5 (S-SMC-M005)	2019-08-26T08:00:01	0.00	12.340	96.000	0.6133	11.7
2566	AB07CD0350	WETLAND SAL01	SALINE (FEN)	56.573903999999998859493643976747989654541015625	-111.277773999999993748133420012891292572021484375	HOBO Rain Gauge Data Logger - RG3	HOBO Temperature/RH Smart Sensor (S-THB-M002)	Soil Moisture Smart Sensor - EC5 (S-SMC-M005)	2019-08-26T09:00:01	0.00	13.473	92.000	0.6126	12.2
2567	AB07CD0350	WETLAND SAL01	SALINE (FEN)	56.573903999999998859493643976747989654541015625	-111.277773999999993748133420012891292572021484375	HOBO Rain Gauge Data Logger - RG3	HOBO Temperature/RH Smart Sensor (S-THB-M002)	Soil Moisture Smart Sensor - EC5 (S-SMC-M005)	2019-08-26T10:00:01	0.00	14.409	86.000	0.6133	12.1
2568	AB07CD0350	WETLAND SAL01	SALINE (FEN)	56.573903999999998859493643976747989654541015625	-111.277773999999993748133420012891292572021484375	HOBO Rain Gauge Data Logger - RG3	HOBO Temperature/RH Smart Sensor (S-THB-M002)	Soil Moisture Smart Sensor - EC5 (S-SMC-M005)	2019-08-26T11:00:01	0.00	14.864	83.700	0.6126	12.1
2569	AB07CD0350	WETLAND SAL01	SALINE (FEN)	56.573903999999998859493643976747989654541015625	-111.277773999999993748133420012891292572021484375	HOBO Rain Gauge Data Logger - RG3	HOBO Temperature/RH Smart Sensor (S-THB-M002)	Soil Moisture Smart Sensor - EC5 (S-SMC-M005)	2019-08-26T12:00:01	0.00	15.605	79.900	0.6126	12.2
2570	AB07CD0350	WETLAND SAL01	SALINE (FEN)	56.573903999999998859493643976747989654541015625	-111.277773999999993748133420012891292572021484375	HOBO Rain Gauge Data Logger - RG3	HOBO Temperature/RH Smart Sensor (S-THB-M002)	Soil Moisture Smart Sensor - EC5 (S-SMC-M005)	2019-08-26T13:00:01	0.00	16.654	76.800	0.6126	12.6
2571	AB07CD0350	WETLAND SAL01	SALINE (FEN)	56.573903999999998859493643976747989654541015625	-111.277773999999993748133420012891292572021484375	HOBO Rain Gauge Data Logger - RG3	HOBO Temperature/RH Smart Sensor (S-THB-M002)	Soil Moisture Smart Sensor - EC5 (S-SMC-M005)	2019-08-26T14:00:01	0.00	16.939	71.000	0.6126	11.7
2572	AB07CD0350	WETLAND SAL01	SALINE (FEN)	56.573903999999998859493643976747989654541015625	-111.277773999999993748133420012891292572021484375	HOBO Rain Gauge Data Logger - RG3	HOBO Temperature/RH Smart Sensor (S-THB-M002)	Soil Moisture Smart Sensor - EC5 (S-SMC-M005)	2019-08-26T15:00:01	0.00	17.320	67.200	0.6126	11.2
2573	AB07CD0350	WETLAND SAL01	SALINE (FEN)	56.573903999999998859493643976747989654541015625	-111.277773999999993748133420012891292572021484375	HOBO Rain Gauge Data Logger - RG3	HOBO Temperature/RH Smart Sensor (S-THB-M002)	Soil Moisture Smart Sensor - EC5 (S-SMC-M005)	2019-08-26T16:00:01	0.00	15.223	74.500	0.6126	10.7
2574	AB07CD0350	WETLAND SAL01	SALINE (FEN)	56.573903999999998859493643976747989654541015625	-111.277773999999993748133420012891292572021484375	HOBO Rain Gauge Data Logger - RG3	HOBO Temperature/RH Smart Sensor (S-THB-M002)	Soil Moisture Smart Sensor - EC5 (S-SMC-M005)	2019-08-26T17:00:01	0.00	14.529	81.800	0.6133	11.5
2575	AB07CD0350	WETLAND SAL01	SALINE (FEN)	56.573903999999998859493643976747989654541015625	-111.277773999999993748133420012891292572021484375	HOBO Rain Gauge Data Logger - RG3	HOBO Temperature/RH Smart Sensor (S-THB-M002)	Soil Moisture Smart Sensor - EC5 (S-SMC-M005)	2019-08-26T18:00:01	0.00	14.481	81.700	0.6126	11.4
2576	AB07CD0350	WETLAND SAL01	SALINE (FEN)	56.573903999999998859493643976747989654541015625	-111.277773999999993748133420012891292572021484375	HOBO Rain Gauge Data Logger - RG3	HOBO Temperature/RH Smart Sensor (S-THB-M002)	Soil Moisture Smart Sensor - EC5 (S-SMC-M005)	2019-08-26T19:00:01	0.00	14.194	83.100	0.6133	11.4
2577	AB07CD0350	WETLAND SAL01	SALINE (FEN)	56.573903999999998859493643976747989654541015625	-111.277773999999993748133420012891292572021484375	HOBO Rain Gauge Data Logger - RG3	HOBO Temperature/RH Smart Sensor (S-THB-M002)	Soil Moisture Smart Sensor - EC5 (S-SMC-M005)	2019-08-26T20:00:01	0.00	13.305	88.300	0.6126	11.4
2578	AB07CD0350	WETLAND SAL01	SALINE (FEN)	56.573903999999998859493643976747989654541015625	-111.277773999999993748133420012891292572021484375	HOBO Rain Gauge Data Logger - RG3	HOBO Temperature/RH Smart Sensor (S-THB-M002)	Soil Moisture Smart Sensor - EC5 (S-SMC-M005)	2019-08-26T21:00:01	0.00	12.461	91.600	0.6126	11.1
2579	AB07CD0350	WETLAND SAL01	SALINE (FEN)	56.573903999999998859493643976747989654541015625	-111.277773999999993748133420012891292572021484375	HOBO Rain Gauge Data Logger - RG3	HOBO Temperature/RH Smart Sensor (S-THB-M002)	Soil Moisture Smart Sensor - EC5 (S-SMC-M005)	2019-08-26T22:00:01	0.00	12.389	93.000	0.6133	11.3
2580	AB07CD0350	WETLAND SAL01	SALINE (FEN)	56.573903999999998859493643976747989654541015625	-111.277773999999993748133420012891292572021484375	HOBO Rain Gauge Data Logger - RG3	HOBO Temperature/RH Smart Sensor (S-THB-M002)	Soil Moisture Smart Sensor - EC5 (S-SMC-M005)	2019-08-26T23:00:01	0.00	12.122	93.400	0.6133	11.1
2581	AB07CD0350	WETLAND SAL01	SALINE (FEN)	56.573903999999998859493643976747989654541015625	-111.277773999999993748133420012891292572021484375	HOBO Rain Gauge Data Logger - RG3	HOBO Temperature/RH Smart Sensor (S-THB-M002)	Soil Moisture Smart Sensor - EC5 (S-SMC-M005)	2019-08-27T00:00:01	0.00	11.929	95.100	0.6133	11.2
2582	AB07CD0350	WETLAND SAL01	SALINE (FEN)	56.573903999999998859493643976747989654541015625	-111.277773999999993748133420012891292572021484375	HOBO Rain Gauge Data Logger - RG3	HOBO Temperature/RH Smart Sensor (S-THB-M002)	Soil Moisture Smart Sensor - EC5 (S-SMC-M005)	2019-08-27T01:00:01	0.00	11.686	95.600	0.6133	11.0
2583	AB07CD0350	WETLAND SAL01	SALINE (FEN)	56.573903999999998859493643976747989654541015625	-111.277773999999993748133420012891292572021484375	HOBO Rain Gauge Data Logger - RG3	HOBO Temperature/RH Smart Sensor (S-THB-M002)	Soil Moisture Smart Sensor - EC5 (S-SMC-M005)	2019-08-27T02:00:01	0.00	11.589	96.600	0.6133	11.1
2584	AB07CD0350	WETLAND SAL01	SALINE (FEN)	56.573903999999998859493643976747989654541015625	-111.277773999999993748133420012891292572021484375	HOBO Rain Gauge Data Logger - RG3	HOBO Temperature/RH Smart Sensor (S-THB-M002)	Soil Moisture Smart Sensor - EC5 (S-SMC-M005)	2019-08-27T03:00:01	0.00	10.541	96.000	0.6133	9.9
2585	AB07CD0350	WETLAND SAL01	SALINE (FEN)	56.573903999999998859493643976747989654541015625	-111.277773999999993748133420012891292572021484375	HOBO Rain Gauge Data Logger - RG3	HOBO Temperature/RH Smart Sensor (S-THB-M002)	Soil Moisture Smart Sensor - EC5 (S-SMC-M005)	2019-08-27T04:00:01	0.00	9.756	96.800	0.6133	9.3
2586	AB07CD0350	WETLAND SAL01	SALINE (FEN)	56.573903999999998859493643976747989654541015625	-111.277773999999993748133420012891292572021484375	HOBO Rain Gauge Data Logger - RG3	HOBO Temperature/RH Smart Sensor (S-THB-M002)	Soil Moisture Smart Sensor - EC5 (S-SMC-M005)	2019-08-27T05:00:01	0.00	9.015	97.300	0.6133	8.6
2587	AB07CD0350	WETLAND SAL01	SALINE (FEN)	56.573903999999998859493643976747989654541015625	-111.277773999999993748133420012891292572021484375	HOBO Rain Gauge Data Logger - RG3	HOBO Temperature/RH Smart Sensor (S-THB-M002)	Soil Moisture Smart Sensor - EC5 (S-SMC-M005)	2019-08-27T06:00:01	0.00	7.895	98.000	0.6133	7.6
2588	AB07CD0350	WETLAND SAL01	SALINE (FEN)	56.573903999999998859493643976747989654541015625	-111.277773999999993748133420012891292572021484375	HOBO Rain Gauge Data Logger - RG3	HOBO Temperature/RH Smart Sensor (S-THB-M002)	Soil Moisture Smart Sensor - EC5 (S-SMC-M005)	2019-08-27T07:00:01	0.00	7.444	99.000	0.6133	7.3
2589	AB07CD0350	WETLAND SAL01	SALINE (FEN)	56.573903999999998859493643976747989654541015625	-111.277773999999993748133420012891292572021484375	HOBO Rain Gauge Data Logger - RG3	HOBO Temperature/RH Smart Sensor (S-THB-M002)	Soil Moisture Smart Sensor - EC5 (S-SMC-M005)	2019-08-27T08:00:01	0.00	9.558	98.000	0.6133	9.3
2590	AB07CD0350	WETLAND SAL01	SALINE (FEN)	56.573903999999998859493643976747989654541015625	-111.277773999999993748133420012891292572021484375	HOBO Rain Gauge Data Logger - RG3	HOBO Temperature/RH Smart Sensor (S-THB-M002)	Soil Moisture Smart Sensor - EC5 (S-SMC-M005)	2019-08-27T09:00:01	0.00	12.558	90.900	0.6133	11.1
2591	AB07CD0350	WETLAND SAL01	SALINE (FEN)	56.573903999999998859493643976747989654541015625	-111.277773999999993748133420012891292572021484375	HOBO Rain Gauge Data Logger - RG3	HOBO Temperature/RH Smart Sensor (S-THB-M002)	Soil Moisture Smart Sensor - EC5 (S-SMC-M005)	2019-08-27T10:00:01	0.00	15.127	82.500	0.6133	12.2
2592	AB07CD0350	WETLAND SAL01	SALINE (FEN)	56.573903999999998859493643976747989654541015625	-111.277773999999993748133420012891292572021484375	HOBO Rain Gauge Data Logger - RG3	HOBO Temperature/RH Smart Sensor (S-THB-M002)	Soil Moisture Smart Sensor - EC5 (S-SMC-M005)	2019-08-27T11:00:01	0.00	16.773	74.100	0.6133	12.2
2593	AB07CD0350	WETLAND SAL01	SALINE (FEN)	56.573903999999998859493643976747989654541015625	-111.277773999999993748133420012891292572021484375	HOBO Rain Gauge Data Logger - RG3	HOBO Temperature/RH Smart Sensor (S-THB-M002)	Soil Moisture Smart Sensor - EC5 (S-SMC-M005)	2019-08-27T12:00:01	0.00	17.629	63.900	0.6133	10.7
2594	AB07CD0350	WETLAND SAL01	SALINE (FEN)	56.573903999999998859493643976747989654541015625	-111.277773999999993748133420012891292572021484375	HOBO Rain Gauge Data Logger - RG3	HOBO Temperature/RH Smart Sensor (S-THB-M002)	Soil Moisture Smart Sensor - EC5 (S-SMC-M005)	2019-08-27T13:00:01	0.00	18.343	56.800	0.6133	9.6
2595	AB07CD0350	WETLAND SAL01	SALINE (FEN)	56.573903999999998859493643976747989654541015625	-111.277773999999993748133420012891292572021484375	HOBO Rain Gauge Data Logger - RG3	HOBO Temperature/RH Smart Sensor (S-THB-M002)	Soil Moisture Smart Sensor - EC5 (S-SMC-M005)	2019-08-27T14:00:01	0.00	18.866	52.000	0.6126	8.8
2596	AB07CD0350	WETLAND SAL01	SALINE (FEN)	56.573903999999998859493643976747989654541015625	-111.277773999999993748133420012891292572021484375	HOBO Rain Gauge Data Logger - RG3	HOBO Temperature/RH Smart Sensor (S-THB-M002)	Soil Moisture Smart Sensor - EC5 (S-SMC-M005)	2019-08-27T15:00:01	0.00	18.937	49.100	0.6126	8.0
2597	AB07CD0350	WETLAND SAL01	SALINE (FEN)	56.573903999999998859493643976747989654541015625	-111.277773999999993748133420012891292572021484375	HOBO Rain Gauge Data Logger - RG3	HOBO Temperature/RH Smart Sensor (S-THB-M002)	Soil Moisture Smart Sensor - EC5 (S-SMC-M005)	2019-08-27T16:00:01	0.00	19.413	47.500	0.6126	8.0
2598	AB07CD0350	WETLAND SAL01	SALINE (FEN)	56.573903999999998859493643976747989654541015625	-111.277773999999993748133420012891292572021484375	HOBO Rain Gauge Data Logger - RG3	HOBO Temperature/RH Smart Sensor (S-THB-M002)	Soil Moisture Smart Sensor - EC5 (S-SMC-M005)	2019-08-27T17:00:01	0.00	18.961	48.400	0.6126	7.8
2599	AB07CD0350	WETLAND SAL01	SALINE (FEN)	56.573903999999998859493643976747989654541015625	-111.277773999999993748133420012891292572021484375	HOBO Rain Gauge Data Logger - RG3	HOBO Temperature/RH Smart Sensor (S-THB-M002)	Soil Moisture Smart Sensor - EC5 (S-SMC-M005)	2019-08-27T18:00:01	0.00	17.534	49.400	0.6126	6.8
2600	AB07CD0350	WETLAND SAL01	SALINE (FEN)	56.573903999999998859493643976747989654541015625	-111.277773999999993748133420012891292572021484375	HOBO Rain Gauge Data Logger - RG3	HOBO Temperature/RH Smart Sensor (S-THB-M002)	Soil Moisture Smart Sensor - EC5 (S-SMC-M005)	2019-08-27T19:00:01	0.00	13.570	63.200	0.6126	6.7
2601	AB07CD0350	WETLAND SAL01	SALINE (FEN)	56.573903999999998859493643976747989654541015625	-111.277773999999993748133420012891292572021484375	HOBO Rain Gauge Data Logger - RG3	HOBO Temperature/RH Smart Sensor (S-THB-M002)	Soil Moisture Smart Sensor - EC5 (S-SMC-M005)	2019-08-27T20:00:01	0.20	13.642	80.300	0.6126	10.3
2602	AB07CD0350	WETLAND SAL01	SALINE (FEN)	56.573903999999998859493643976747989654541015625	-111.277773999999993748133420012891292572021484375	HOBO Rain Gauge Data Logger - RG3	HOBO Temperature/RH Smart Sensor (S-THB-M002)	Soil Moisture Smart Sensor - EC5 (S-SMC-M005)	2019-08-27T21:00:01	0.00	12.871	86.100	0.6126	10.6
2603	AB07CD0350	WETLAND SAL01	SALINE (FEN)	56.573903999999998859493643976747989654541015625	-111.277773999999993748133420012891292572021484375	HOBO Rain Gauge Data Logger - RG3	HOBO Temperature/RH Smart Sensor (S-THB-M002)	Soil Moisture Smart Sensor - EC5 (S-SMC-M005)	2019-08-27T22:00:01	0.00	12.847	84.800	0.6126	10.4
2604	AB07CD0350	WETLAND SAL01	SALINE (FEN)	56.573903999999998859493643976747989654541015625	-111.277773999999993748133420012891292572021484375	HOBO Rain Gauge Data Logger - RG3	HOBO Temperature/RH Smart Sensor (S-THB-M002)	Soil Moisture Smart Sensor - EC5 (S-SMC-M005)	2019-08-27T23:00:01	0.20	12.025	85.200	0.6133	9.6
2605	AB07CD0350	WETLAND SAL01	SALINE (FEN)	56.573903999999998859493643976747989654541015625	-111.277773999999993748133420012891292572021484375	HOBO Rain Gauge Data Logger - RG3	HOBO Temperature/RH Smart Sensor (S-THB-M002)	Soil Moisture Smart Sensor - EC5 (S-SMC-M005)	2019-08-28T00:00:01	0.00	11.880	90.800	0.6133	10.4
2606	AB07CD0350	WETLAND SAL01	SALINE (FEN)	56.573903999999998859493643976747989654541015625	-111.277773999999993748133420012891292572021484375	HOBO Rain Gauge Data Logger - RG3	HOBO Temperature/RH Smart Sensor (S-THB-M002)	Soil Moisture Smart Sensor - EC5 (S-SMC-M005)	2019-08-28T01:00:01	0.00	11.977	91.600	0.6133	10.7
2607	AB07CD0350	WETLAND SAL01	SALINE (FEN)	56.573903999999998859493643976747989654541015625	-111.277773999999993748133420012891292572021484375	HOBO Rain Gauge Data Logger - RG3	HOBO Temperature/RH Smart Sensor (S-THB-M002)	Soil Moisture Smart Sensor - EC5 (S-SMC-M005)	2019-08-28T02:00:01	0.00	10.394	91.700	0.6133	9.1
2608	AB07CD0350	WETLAND SAL01	SALINE (FEN)	56.573903999999998859493643976747989654541015625	-111.277773999999993748133420012891292572021484375	HOBO Rain Gauge Data Logger - RG3	HOBO Temperature/RH Smart Sensor (S-THB-M002)	Soil Moisture Smart Sensor - EC5 (S-SMC-M005)	2019-08-28T03:00:01	0.00	10.418	94.300	0.6133	9.6
2609	AB07CD0350	WETLAND SAL01	SALINE (FEN)	56.573903999999998859493643976747989654541015625	-111.277773999999993748133420012891292572021484375	HOBO Rain Gauge Data Logger - RG3	HOBO Temperature/RH Smart Sensor (S-THB-M002)	Soil Moisture Smart Sensor - EC5 (S-SMC-M005)	2019-08-28T04:00:01	0.00	8.319	95.400	0.6133	7.6
2610	AB07CD0350	WETLAND SAL01	SALINE (FEN)	56.573903999999998859493643976747989654541015625	-111.277773999999993748133420012891292572021484375	HOBO Rain Gauge Data Logger - RG3	HOBO Temperature/RH Smart Sensor (S-THB-M002)	Soil Moisture Smart Sensor - EC5 (S-SMC-M005)	2019-08-28T05:00:01	1.40	9.386	96.400	0.6133	8.9
2611	AB07CD0350	WETLAND SAL01	SALINE (FEN)	56.573903999999998859493643976747989654541015625	-111.277773999999993748133420012891292572021484375	HOBO Rain Gauge Data Logger - RG3	HOBO Temperature/RH Smart Sensor (S-THB-M002)	Soil Moisture Smart Sensor - EC5 (S-SMC-M005)	2019-08-28T06:00:01	1.00	9.829	96.700	0.6133	9.3
2612	AB07CD0350	WETLAND SAL01	SALINE (FEN)	56.573903999999998859493643976747989654541015625	-111.277773999999993748133420012891292572021484375	HOBO Rain Gauge Data Logger - RG3	HOBO Temperature/RH Smart Sensor (S-THB-M002)	Soil Moisture Smart Sensor - EC5 (S-SMC-M005)	2019-08-28T07:00:01	0.00	10.124	96.900	0.6133	9.7
2613	AB07CD0350	WETLAND SAL01	SALINE (FEN)	56.573903999999998859493643976747989654541015625	-111.277773999999993748133420012891292572021484375	HOBO Rain Gauge Data Logger - RG3	HOBO Temperature/RH Smart Sensor (S-THB-M002)	Soil Moisture Smart Sensor - EC5 (S-SMC-M005)	2019-08-28T08:00:01	0.20	10.663	96.900	0.6133	10.2
2614	AB07CD0350	WETLAND SAL01	SALINE (FEN)	56.573903999999998859493643976747989654541015625	-111.277773999999993748133420012891292572021484375	HOBO Rain Gauge Data Logger - RG3	HOBO Temperature/RH Smart Sensor (S-THB-M002)	Soil Moisture Smart Sensor - EC5 (S-SMC-M005)	2019-08-28T09:00:01	0.00	10.785	97.100	0.6133	10.4
2615	AB07CD0350	WETLAND SAL01	SALINE (FEN)	56.573903999999998859493643976747989654541015625	-111.277773999999993748133420012891292572021484375	HOBO Rain Gauge Data Logger - RG3	HOBO Temperature/RH Smart Sensor (S-THB-M002)	Soil Moisture Smart Sensor - EC5 (S-SMC-M005)	2019-08-28T10:00:01	0.00	11.224	97.300	0.6133	10.8
2616	AB07CD0350	WETLAND SAL01	SALINE (FEN)	56.573903999999998859493643976747989654541015625	-111.277773999999993748133420012891292572021484375	HOBO Rain Gauge Data Logger - RG3	HOBO Temperature/RH Smart Sensor (S-THB-M002)	Soil Moisture Smart Sensor - EC5 (S-SMC-M005)	2019-08-28T11:00:01	2.20	11.710	96.800	0.6133	11.2
2617	AB07CD0350	WETLAND SAL01	SALINE (FEN)	56.573903999999998859493643976747989654541015625	-111.277773999999993748133420012891292572021484375	HOBO Rain Gauge Data Logger - RG3	HOBO Temperature/RH Smart Sensor (S-THB-M002)	Soil Moisture Smart Sensor - EC5 (S-SMC-M005)	2019-08-28T12:00:01	1.00	11.516	96.800	0.6126	11.0
2618	AB07CD0350	WETLAND SAL01	SALINE (FEN)	56.573903999999998859493643976747989654541015625	-111.277773999999993748133420012891292572021484375	HOBO Rain Gauge Data Logger - RG3	HOBO Temperature/RH Smart Sensor (S-THB-M002)	Soil Moisture Smart Sensor - EC5 (S-SMC-M005)	2019-08-28T13:00:01	0.00	11.783	96.800	0.6126	11.3
2619	AB07CD0350	WETLAND SAL01	SALINE (FEN)	56.573903999999998859493643976747989654541015625	-111.277773999999993748133420012891292572021484375	HOBO Rain Gauge Data Logger - RG3	HOBO Temperature/RH Smart Sensor (S-THB-M002)	Soil Moisture Smart Sensor - EC5 (S-SMC-M005)	2019-08-28T14:00:01	0.00	11.880	95.300	0.6126	11.2
2620	AB07CD0350	WETLAND SAL01	SALINE (FEN)	56.573903999999998859493643976747989654541015625	-111.277773999999993748133420012891292572021484375	HOBO Rain Gauge Data Logger - RG3	HOBO Temperature/RH Smart Sensor (S-THB-M002)	Soil Moisture Smart Sensor - EC5 (S-SMC-M005)	2019-08-28T15:00:01	0.00	14.002	91.700	0.6126	12.7
2621	AB07CD0350	WETLAND SAL01	SALINE (FEN)	56.573903999999998859493643976747989654541015625	-111.277773999999993748133420012891292572021484375	HOBO Rain Gauge Data Logger - RG3	HOBO Temperature/RH Smart Sensor (S-THB-M002)	Soil Moisture Smart Sensor - EC5 (S-SMC-M005)	2019-08-28T16:00:01	0.00	14.481	85.900	0.6126	12.2
2622	AB07CD0350	WETLAND SAL01	SALINE (FEN)	56.573903999999998859493643976747989654541015625	-111.277773999999993748133420012891292572021484375	HOBO Rain Gauge Data Logger - RG3	HOBO Temperature/RH Smart Sensor (S-THB-M002)	Soil Moisture Smart Sensor - EC5 (S-SMC-M005)	2019-08-28T17:00:01	0.00	15.079	73.900	0.6126	10.5
2623	AB07CD0350	WETLAND SAL01	SALINE (FEN)	56.573903999999998859493643976747989654541015625	-111.277773999999993748133420012891292572021484375	HOBO Rain Gauge Data Logger - RG3	HOBO Temperature/RH Smart Sensor (S-THB-M002)	Soil Moisture Smart Sensor - EC5 (S-SMC-M005)	2019-08-28T18:00:01	0.40	14.936	81.600	0.6126	11.8
2624	AB07CD0350	WETLAND SAL01	SALINE (FEN)	56.573903999999998859493643976747989654541015625	-111.277773999999993748133420012891292572021484375	HOBO Rain Gauge Data Logger - RG3	HOBO Temperature/RH Smart Sensor (S-THB-M002)	Soil Moisture Smart Sensor - EC5 (S-SMC-M005)	2019-08-28T19:00:01	0.00	14.074	74.300	0.6126	9.6
2625	AB07CD0350	WETLAND SAL01	SALINE (FEN)	56.573903999999998859493643976747989654541015625	-111.277773999999993748133420012891292572021484375	HOBO Rain Gauge Data Logger - RG3	HOBO Temperature/RH Smart Sensor (S-THB-M002)	Soil Moisture Smart Sensor - EC5 (S-SMC-M005)	2019-08-28T20:00:01	0.00	13.209	79.300	0.6126	9.7
2626	AB07CD0350	WETLAND SAL01	SALINE (FEN)	56.573903999999998859493643976747989654541015625	-111.277773999999993748133420012891292572021484375	HOBO Rain Gauge Data Logger - RG3	HOBO Temperature/RH Smart Sensor (S-THB-M002)	Soil Moisture Smart Sensor - EC5 (S-SMC-M005)	2019-08-28T21:00:01	0.00	10.932	86.300	0.6126	8.7
2627	AB07CD0350	WETLAND SAL01	SALINE (FEN)	56.573903999999998859493643976747989654541015625	-111.277773999999993748133420012891292572021484375	HOBO Rain Gauge Data Logger - RG3	HOBO Temperature/RH Smart Sensor (S-THB-M002)	Soil Moisture Smart Sensor - EC5 (S-SMC-M005)	2019-08-28T22:00:01	0.00	9.805	86.000	0.6126	7.6
2628	AB07CD0350	WETLAND SAL01	SALINE (FEN)	56.573903999999998859493643976747989654541015625	-111.277773999999993748133420012891292572021484375	HOBO Rain Gauge Data Logger - RG3	HOBO Temperature/RH Smart Sensor (S-THB-M002)	Soil Moisture Smart Sensor - EC5 (S-SMC-M005)	2019-08-28T23:00:01	0.00	8.020	89.600	0.6126	6.4
2629	AB07CD0350	WETLAND SAL01	SALINE (FEN)	56.573903999999998859493643976747989654541015625	-111.277773999999993748133420012891292572021484375	HOBO Rain Gauge Data Logger - RG3	HOBO Temperature/RH Smart Sensor (S-THB-M002)	Soil Moisture Smart Sensor - EC5 (S-SMC-M005)	2019-08-29T00:00:01	0.00	6.914	93.400	0.6126	5.9
2630	AB07CD0350	WETLAND SAL01	SALINE (FEN)	56.573903999999998859493643976747989654541015625	-111.277773999999993748133420012891292572021484375	HOBO Rain Gauge Data Logger - RG3	HOBO Temperature/RH Smart Sensor (S-THB-M002)	Soil Moisture Smart Sensor - EC5 (S-SMC-M005)	2019-08-29T01:00:01	0.00	6.509	95.900	0.6126	5.9
2631	AB07CD0350	WETLAND SAL01	SALINE (FEN)	56.573903999999998859493643976747989654541015625	-111.277773999999993748133420012891292572021484375	HOBO Rain Gauge Data Logger - RG3	HOBO Temperature/RH Smart Sensor (S-THB-M002)	Soil Moisture Smart Sensor - EC5 (S-SMC-M005)	2019-08-29T02:00:01	0.00	6.560	96.900	0.6126	6.1
2632	AB07CD0350	WETLAND SAL01	SALINE (FEN)	56.573903999999998859493643976747989654541015625	-111.277773999999993748133420012891292572021484375	HOBO Rain Gauge Data Logger - RG3	HOBO Temperature/RH Smart Sensor (S-THB-M002)	Soil Moisture Smart Sensor - EC5 (S-SMC-M005)	2019-08-29T03:00:01	0.00	6.026	97.000	0.6126	5.6
2633	AB07CD0350	WETLAND SAL01	SALINE (FEN)	56.573903999999998859493643976747989654541015625	-111.277773999999993748133420012891292572021484375	HOBO Rain Gauge Data Logger - RG3	HOBO Temperature/RH Smart Sensor (S-THB-M002)	Soil Moisture Smart Sensor - EC5 (S-SMC-M005)	2019-08-29T04:00:01	0.00	5.693	97.200	0.6126	5.3
2634	AB07CD0350	WETLAND SAL01	SALINE (FEN)	56.573903999999998859493643976747989654541015625	-111.277773999999993748133420012891292572021484375	HOBO Rain Gauge Data Logger - RG3	HOBO Temperature/RH Smart Sensor (S-THB-M002)	Soil Moisture Smart Sensor - EC5 (S-SMC-M005)	2019-08-29T05:00:01	0.00	5.308	97.500	0.6126	4.9
2635	AB07CD0350	WETLAND SAL01	SALINE (FEN)	56.573903999999998859493643976747989654541015625	-111.277773999999993748133420012891292572021484375	HOBO Rain Gauge Data Logger - RG3	HOBO Temperature/RH Smart Sensor (S-THB-M002)	Soil Moisture Smart Sensor - EC5 (S-SMC-M005)	2019-08-29T06:00:01	0.00	5.334	97.600	0.6126	5.0
2636	AB07CD0350	WETLAND SAL01	SALINE (FEN)	56.573903999999998859493643976747989654541015625	-111.277773999999993748133420012891292572021484375	HOBO Rain Gauge Data Logger - RG3	HOBO Temperature/RH Smart Sensor (S-THB-M002)	Soil Moisture Smart Sensor - EC5 (S-SMC-M005)	2019-08-29T07:00:01	0.00	5.872	97.300	0.6119	5.5
2637	AB07CD0350	WETLAND SAL01	SALINE (FEN)	56.573903999999998859493643976747989654541015625	-111.277773999999993748133420012891292572021484375	HOBO Rain Gauge Data Logger - RG3	HOBO Temperature/RH Smart Sensor (S-THB-M002)	Soil Moisture Smart Sensor - EC5 (S-SMC-M005)	2019-08-29T08:00:01	0.00	7.318	95.000	0.6119	6.6
2638	AB07CD0350	WETLAND SAL01	SALINE (FEN)	56.573903999999998859493643976747989654541015625	-111.277773999999993748133420012891292572021484375	HOBO Rain Gauge Data Logger - RG3	HOBO Temperature/RH Smart Sensor (S-THB-M002)	Soil Moisture Smart Sensor - EC5 (S-SMC-M005)	2019-08-29T09:00:01	0.00	9.780	91.500	0.6126	8.5
2639	AB07CD0350	WETLAND SAL01	SALINE (FEN)	56.573903999999998859493643976747989654541015625	-111.277773999999993748133420012891292572021484375	HOBO Rain Gauge Data Logger - RG3	HOBO Temperature/RH Smart Sensor (S-THB-M002)	Soil Moisture Smart Sensor - EC5 (S-SMC-M005)	2019-08-29T10:00:01	0.00	12.122	85.800	0.6119	9.8
2640	AB07CD0350	WETLAND SAL01	SALINE (FEN)	56.573903999999998859493643976747989654541015625	-111.277773999999993748133420012891292572021484375	HOBO Rain Gauge Data Logger - RG3	HOBO Temperature/RH Smart Sensor (S-THB-M002)	Soil Moisture Smart Sensor - EC5 (S-SMC-M005)	2019-08-29T11:00:01	0.00	14.337	78.600	0.6119	10.7
2641	AB07CD0350	WETLAND SAL01	SALINE (FEN)	56.573903999999998859493643976747989654541015625	-111.277773999999993748133420012891292572021484375	HOBO Rain Gauge Data Logger - RG3	HOBO Temperature/RH Smart Sensor (S-THB-M002)	Soil Moisture Smart Sensor - EC5 (S-SMC-M005)	2019-08-29T12:00:01	0.00	16.654	70.100	0.6119	11.2
2642	AB07CD0350	WETLAND SAL01	SALINE (FEN)	56.573903999999998859493643976747989654541015625	-111.277773999999993748133420012891292572021484375	HOBO Rain Gauge Data Logger - RG3	HOBO Temperature/RH Smart Sensor (S-THB-M002)	Soil Moisture Smart Sensor - EC5 (S-SMC-M005)	2019-08-29T13:00:01	0.00	17.843	59.600	0.6119	9.9
2643	AB07CD0350	WETLAND SAL01	SALINE (FEN)	56.573903999999998859493643976747989654541015625	-111.277773999999993748133420012891292572021484375	HOBO Rain Gauge Data Logger - RG3	HOBO Temperature/RH Smart Sensor (S-THB-M002)	Soil Moisture Smart Sensor - EC5 (S-SMC-M005)	2019-08-29T14:00:01	0.00	18.652	51.400	0.6119	8.4
2644	AB07CD0350	WETLAND SAL01	SALINE (FEN)	56.573903999999998859493643976747989654541015625	-111.277773999999993748133420012891292572021484375	HOBO Rain Gauge Data Logger - RG3	HOBO Temperature/RH Smart Sensor (S-THB-M002)	Soil Moisture Smart Sensor - EC5 (S-SMC-M005)	2019-08-29T15:00:01	0.00	19.032	49.900	0.6111	8.4
2645	AB07CD0350	WETLAND SAL01	SALINE (FEN)	56.573903999999998859493643976747989654541015625	-111.277773999999993748133420012891292572021484375	HOBO Rain Gauge Data Logger - RG3	HOBO Temperature/RH Smart Sensor (S-THB-M002)	Soil Moisture Smart Sensor - EC5 (S-SMC-M005)	2019-08-29T16:00:01	0.00	18.438	48.400	0.6111	7.4
2646	AB07CD0350	WETLAND SAL01	SALINE (FEN)	56.573903999999998859493643976747989654541015625	-111.277773999999993748133420012891292572021484375	HOBO Rain Gauge Data Logger - RG3	HOBO Temperature/RH Smart Sensor (S-THB-M002)	Soil Moisture Smart Sensor - EC5 (S-SMC-M005)	2019-08-29T17:00:01	0.00	19.888	46.800	0.6111	8.2
2647	AB07CD0350	WETLAND SAL01	SALINE (FEN)	56.573903999999998859493643976747989654541015625	-111.277773999999993748133420012891292572021484375	HOBO Rain Gauge Data Logger - RG3	HOBO Temperature/RH Smart Sensor (S-THB-M002)	Soil Moisture Smart Sensor - EC5 (S-SMC-M005)	2019-08-29T18:00:01	0.00	17.819	44.000	0.6111	5.4
2648	AB07CD0350	WETLAND SAL01	SALINE (FEN)	56.573903999999998859493643976747989654541015625	-111.277773999999993748133420012891292572021484375	HOBO Rain Gauge Data Logger - RG3	HOBO Temperature/RH Smart Sensor (S-THB-M002)	Soil Moisture Smart Sensor - EC5 (S-SMC-M005)	2019-08-29T19:00:01	0.00	19.246	47.100	0.6111	7.7
2649	AB07CD0350	WETLAND SAL01	SALINE (FEN)	56.573903999999998859493643976747989654541015625	-111.277773999999993748133420012891292572021484375	HOBO Rain Gauge Data Logger - RG3	HOBO Temperature/RH Smart Sensor (S-THB-M002)	Soil Moisture Smart Sensor - EC5 (S-SMC-M005)	2019-08-29T20:00:01	0.00	16.058	53.700	0.6111	6.7
2650	AB07CD0350	WETLAND SAL01	SALINE (FEN)	56.573903999999998859493643976747989654541015625	-111.277773999999993748133420012891292572021484375	HOBO Rain Gauge Data Logger - RG3	HOBO Temperature/RH Smart Sensor (S-THB-M002)	Soil Moisture Smart Sensor - EC5 (S-SMC-M005)	2019-08-29T21:00:01	0.00	9.682	74.000	0.6111	5.3
2651	AB07CD0350	WETLAND SAL01	SALINE (FEN)	56.573903999999998859493643976747989654541015625	-111.277773999999993748133420012891292572021484375	HOBO Rain Gauge Data Logger - RG3	HOBO Temperature/RH Smart Sensor (S-THB-M002)	Soil Moisture Smart Sensor - EC5 (S-SMC-M005)	2019-08-29T22:00:01	0.00	7.920	87.000	0.6111	5.9
2652	AB07CD0350	WETLAND SAL01	SALINE (FEN)	56.573903999999998859493643976747989654541015625	-111.277773999999993748133420012891292572021484375	HOBO Rain Gauge Data Logger - RG3	HOBO Temperature/RH Smart Sensor (S-THB-M002)	Soil Moisture Smart Sensor - EC5 (S-SMC-M005)	2019-08-29T23:00:01	0.00	7.217	89.700	0.6111	5.6
2653	AB07CD0350	WETLAND SAL01	SALINE (FEN)	56.573903999999998859493643976747989654541015625	-111.277773999999993748133420012891292572021484375	HOBO Rain Gauge Data Logger - RG3	HOBO Temperature/RH Smart Sensor (S-THB-M002)	Soil Moisture Smart Sensor - EC5 (S-SMC-M005)	2019-08-30T00:00:01	0.00	6.636	91.600	0.6119	5.4
2654	AB07CD0350	WETLAND SAL01	SALINE (FEN)	56.573903999999998859493643976747989654541015625	-111.277773999999993748133420012891292572021484375	HOBO Rain Gauge Data Logger - RG3	HOBO Temperature/RH Smart Sensor (S-THB-M002)	Soil Moisture Smart Sensor - EC5 (S-SMC-M005)	2019-08-30T01:00:01	0.00	5.462	92.800	0.6111	4.4
2655	AB07CD0350	WETLAND SAL01	SALINE (FEN)	56.573903999999998859493643976747989654541015625	-111.277773999999993748133420012891292572021484375	HOBO Rain Gauge Data Logger - RG3	HOBO Temperature/RH Smart Sensor (S-THB-M002)	Soil Moisture Smart Sensor - EC5 (S-SMC-M005)	2019-08-30T02:00:01	0.00	5.050	93.900	0.6119	4.2
2656	AB07CD0350	WETLAND SAL01	SALINE (FEN)	56.573903999999998859493643976747989654541015625	-111.277773999999993748133420012891292572021484375	HOBO Rain Gauge Data Logger - RG3	HOBO Temperature/RH Smart Sensor (S-THB-M002)	Soil Moisture Smart Sensor - EC5 (S-SMC-M005)	2019-08-30T03:00:01	0.00	3.827	94.600	0.6119	3.0
2657	AB07CD0350	WETLAND SAL01	SALINE (FEN)	56.573903999999998859493643976747989654541015625	-111.277773999999993748133420012891292572021484375	HOBO Rain Gauge Data Logger - RG3	HOBO Temperature/RH Smart Sensor (S-THB-M002)	Soil Moisture Smart Sensor - EC5 (S-SMC-M005)	2019-08-30T04:00:01	0.00	3.564	95.400	0.6111	2.9
2658	AB07CD0350	WETLAND SAL01	SALINE (FEN)	56.573903999999998859493643976747989654541015625	-111.277773999999993748133420012891292572021484375	HOBO Rain Gauge Data Logger - RG3	HOBO Temperature/RH Smart Sensor (S-THB-M002)	Soil Moisture Smart Sensor - EC5 (S-SMC-M005)	2019-08-30T05:00:01	0.00	3.301	95.700	0.6119	2.7
2659	AB07CD0350	WETLAND SAL01	SALINE (FEN)	56.573903999999998859493643976747989654541015625	-111.277773999999993748133420012891292572021484375	HOBO Rain Gauge Data Logger - RG3	HOBO Temperature/RH Smart Sensor (S-THB-M002)	Soil Moisture Smart Sensor - EC5 (S-SMC-M005)	2019-08-30T06:00:01	0.00	2.717	96.100	0.6119	2.2
2660	AB07CD0350	WETLAND SAL01	SALINE (FEN)	56.573903999999998859493643976747989654541015625	-111.277773999999993748133420012891292572021484375	HOBO Rain Gauge Data Logger - RG3	HOBO Temperature/RH Smart Sensor (S-THB-M002)	Soil Moisture Smart Sensor - EC5 (S-SMC-M005)	2019-08-30T07:00:01	0.00	3.749	96.300	0.6119	3.2
2661	AB07CD0350	WETLAND SAL01	SALINE (FEN)	56.573903999999998859493643976747989654541015625	-111.277773999999993748133420012891292572021484375	HOBO Rain Gauge Data Logger - RG3	HOBO Temperature/RH Smart Sensor (S-THB-M002)	Soil Moisture Smart Sensor - EC5 (S-SMC-M005)	2019-08-30T08:00:01	0.00	9.879	94.100	0.6119	9.0
2662	AB07CD0350	WETLAND SAL01	SALINE (FEN)	56.573903999999998859493643976747989654541015625	-111.277773999999993748133420012891292572021484375	HOBO Rain Gauge Data Logger - RG3	HOBO Temperature/RH Smart Sensor (S-THB-M002)	Soil Moisture Smart Sensor - EC5 (S-SMC-M005)	2019-08-30T09:00:01	0.00	13.040	81.200	0.6119	9.9
2663	AB07CD0350	WETLAND SAL01	SALINE (FEN)	56.573903999999998859493643976747989654541015625	-111.277773999999993748133420012891292572021484375	HOBO Rain Gauge Data Logger - RG3	HOBO Temperature/RH Smart Sensor (S-THB-M002)	Soil Moisture Smart Sensor - EC5 (S-SMC-M005)	2019-08-30T10:00:01	0.00	15.700	68.200	0.6119	9.9
2664	AB07CD0350	WETLAND SAL01	SALINE (FEN)	56.573903999999998859493643976747989654541015625	-111.277773999999993748133420012891292572021484375	HOBO Rain Gauge Data Logger - RG3	HOBO Temperature/RH Smart Sensor (S-THB-M002)	Soil Moisture Smart Sensor - EC5 (S-SMC-M005)	2019-08-30T11:00:01	0.00	18.224	57.900	0.6119	9.8
2665	AB07CD0350	WETLAND SAL01	SALINE (FEN)	56.573903999999998859493643976747989654541015625	-111.277773999999993748133420012891292572021484375	HOBO Rain Gauge Data Logger - RG3	HOBO Temperature/RH Smart Sensor (S-THB-M002)	Soil Moisture Smart Sensor - EC5 (S-SMC-M005)	2019-08-30T12:00:01	0.00	19.698	50.900	0.6111	9.3
2666	AB07CD0350	WETLAND SAL01	SALINE (FEN)	56.573903999999998859493643976747989654541015625	-111.277773999999993748133420012891292572021484375	HOBO Rain Gauge Data Logger - RG3	HOBO Temperature/RH Smart Sensor (S-THB-M002)	Soil Moisture Smart Sensor - EC5 (S-SMC-M005)	2019-08-30T13:00:01	0.00	20.984	43.800	0.6111	8.2
2667	AB07CD0350	WETLAND SAL01	SALINE (FEN)	56.573903999999998859493643976747989654541015625	-111.277773999999993748133420012891292572021484375	HOBO Rain Gauge Data Logger - RG3	HOBO Temperature/RH Smart Sensor (S-THB-M002)	Soil Moisture Smart Sensor - EC5 (S-SMC-M005)	2019-08-30T14:00:01	0.00	20.817	39.300	0.6111	6.5
2668	AB07CD0350	WETLAND SAL01	SALINE (FEN)	56.573903999999998859493643976747989654541015625	-111.277773999999993748133420012891292572021484375	HOBO Rain Gauge Data Logger - RG3	HOBO Temperature/RH Smart Sensor (S-THB-M002)	Soil Moisture Smart Sensor - EC5 (S-SMC-M005)	2019-08-30T15:00:01	0.00	21.461	37.000	0.6111	6.2
2669	AB07CD0350	WETLAND SAL01	SALINE (FEN)	56.573903999999998859493643976747989654541015625	-111.277773999999993748133420012891292572021484375	HOBO Rain Gauge Data Logger - RG3	HOBO Temperature/RH Smart Sensor (S-THB-M002)	Soil Moisture Smart Sensor - EC5 (S-SMC-M005)	2019-08-30T16:00:01	0.00	21.485	36.600	0.6111	6.0
2670	AB07CD0350	WETLAND SAL01	SALINE (FEN)	56.573903999999998859493643976747989654541015625	-111.277773999999993748133420012891292572021484375	HOBO Rain Gauge Data Logger - RG3	HOBO Temperature/RH Smart Sensor (S-THB-M002)	Soil Moisture Smart Sensor - EC5 (S-SMC-M005)	2019-08-30T17:00:01	0.00	18.842	54.100	0.6111	9.4
2671	AB07CD0350	WETLAND SAL01	SALINE (FEN)	56.573903999999998859493643976747989654541015625	-111.277773999999993748133420012891292572021484375	HOBO Rain Gauge Data Logger - RG3	HOBO Temperature/RH Smart Sensor (S-THB-M002)	Soil Moisture Smart Sensor - EC5 (S-SMC-M005)	2019-08-30T18:00:01	0.00	17.867	53.600	0.6111	8.3
2672	AB07CD0350	WETLAND SAL01	SALINE (FEN)	56.573903999999998859493643976747989654541015625	-111.277773999999993748133420012891292572021484375	HOBO Rain Gauge Data Logger - RG3	HOBO Temperature/RH Smart Sensor (S-THB-M002)	Soil Moisture Smart Sensor - EC5 (S-SMC-M005)	2019-08-30T19:00:01	0.00	17.605	55.000	0.6111	8.5
2673	AB07CD0350	WETLAND SAL01	SALINE (FEN)	56.573903999999998859493643976747989654541015625	-111.277773999999993748133420012891292572021484375	HOBO Rain Gauge Data Logger - RG3	HOBO Temperature/RH Smart Sensor (S-THB-M002)	Soil Moisture Smart Sensor - EC5 (S-SMC-M005)	2019-08-30T20:00:01	0.00	15.461	59.400	0.6104	7.6
2674	AB07CD0350	WETLAND SAL01	SALINE (FEN)	56.573903999999998859493643976747989654541015625	-111.277773999999993748133420012891292572021484375	HOBO Rain Gauge Data Logger - RG3	HOBO Temperature/RH Smart Sensor (S-THB-M002)	Soil Moisture Smart Sensor - EC5 (S-SMC-M005)	2019-08-30T21:00:01	0.00	10.761	72.200	0.6111	6.0
2675	AB07CD0350	WETLAND SAL01	SALINE (FEN)	56.573903999999998859493643976747989654541015625	-111.277773999999993748133420012891292572021484375	HOBO Rain Gauge Data Logger - RG3	HOBO Temperature/RH Smart Sensor (S-THB-M002)	Soil Moisture Smart Sensor - EC5 (S-SMC-M005)	2019-08-30T22:00:01	0.00	9.534	85.900	0.6111	7.3
2676	AB07CD0350	WETLAND SAL01	SALINE (FEN)	56.573903999999998859493643976747989654541015625	-111.277773999999993748133420012891292572021484375	HOBO Rain Gauge Data Logger - RG3	HOBO Temperature/RH Smart Sensor (S-THB-M002)	Soil Moisture Smart Sensor - EC5 (S-SMC-M005)	2019-08-30T23:00:01	0.00	8.319	90.600	0.6111	6.9
2677	AB07CD0350	WETLAND SAL01	SALINE (FEN)	56.573903999999998859493643976747989654541015625	-111.277773999999993748133420012891292572021484375	HOBO Rain Gauge Data Logger - RG3	HOBO Temperature/RH Smart Sensor (S-THB-M002)	Soil Moisture Smart Sensor - EC5 (S-SMC-M005)	2019-08-31T00:00:01	0.00	10.687	91.700	0.6111	9.4
2678	AB07CD0350	WETLAND SAL01	SALINE (FEN)	56.573903999999998859493643976747989654541015625	-111.277773999999993748133420012891292572021484375	HOBO Rain Gauge Data Logger - RG3	HOBO Temperature/RH Smart Sensor (S-THB-M002)	Soil Moisture Smart Sensor - EC5 (S-SMC-M005)	2019-08-31T01:00:01	2.80	11.516	80.600	0.6111	8.3
2679	AB07CD0350	WETLAND SAL01	SALINE (FEN)	56.573903999999998859493643976747989654541015625	-111.277773999999993748133420012891292572021484375	HOBO Rain Gauge Data Logger - RG3	HOBO Temperature/RH Smart Sensor (S-THB-M002)	Soil Moisture Smart Sensor - EC5 (S-SMC-M005)	2019-08-31T02:00:01	0.40	9.139	88.500	0.6111	7.3
2680	AB07CD0350	WETLAND SAL01	SALINE (FEN)	56.573903999999998859493643976747989654541015625	-111.277773999999993748133420012891292572021484375	HOBO Rain Gauge Data Logger - RG3	HOBO Temperature/RH Smart Sensor (S-THB-M002)	Soil Moisture Smart Sensor - EC5 (S-SMC-M005)	2019-08-31T03:00:01	0.00	6.585	93.400	0.6111	5.6
2681	AB07CD0350	WETLAND SAL01	SALINE (FEN)	56.573903999999998859493643976747989654541015625	-111.277773999999993748133420012891292572021484375	HOBO Rain Gauge Data Logger - RG3	HOBO Temperature/RH Smart Sensor (S-THB-M002)	Soil Moisture Smart Sensor - EC5 (S-SMC-M005)	2019-08-31T04:00:01	0.00	6.153	95.900	0.6119	5.6
2682	AB07CD0350	WETLAND SAL01	SALINE (FEN)	56.573903999999998859493643976747989654541015625	-111.277773999999993748133420012891292572021484375	HOBO Rain Gauge Data Logger - RG3	HOBO Temperature/RH Smart Sensor (S-THB-M002)	Soil Moisture Smart Sensor - EC5 (S-SMC-M005)	2019-08-31T05:00:01	0.00	5.128	96.000	0.6119	4.5
2683	AB07CD0350	WETLAND SAL01	SALINE (FEN)	56.573903999999998859493643976747989654541015625	-111.277773999999993748133420012891292572021484375	HOBO Rain Gauge Data Logger - RG3	HOBO Temperature/RH Smart Sensor (S-THB-M002)	Soil Moisture Smart Sensor - EC5 (S-SMC-M005)	2019-08-31T06:00:01	0.00	4.506	96.600	0.6111	4.0
2684	AB07CD0350	WETLAND SAL01	SALINE (FEN)	56.573903999999998859493643976747989654541015625	-111.277773999999993748133420012891292572021484375	HOBO Rain Gauge Data Logger - RG3	HOBO Temperature/RH Smart Sensor (S-THB-M002)	Soil Moisture Smart Sensor - EC5 (S-SMC-M005)	2019-08-31T07:00:01	0.00	4.168	96.600	0.6119	3.7
2685	AB07CD0350	WETLAND SAL01	SALINE (FEN)	56.573903999999998859493643976747989654541015625	-111.277773999999993748133420012891292572021484375	HOBO Rain Gauge Data Logger - RG3	HOBO Temperature/RH Smart Sensor (S-THB-M002)	Soil Moisture Smart Sensor - EC5 (S-SMC-M005)	2019-08-31T08:00:01	0.00	8.369	96.100	0.6119	7.8
2686	AB07CD0350	WETLAND SAL01	SALINE (FEN)	56.573903999999998859493643976747989654541015625	-111.277773999999993748133420012891292572021484375	HOBO Rain Gauge Data Logger - RG3	HOBO Temperature/RH Smart Sensor (S-THB-M002)	Soil Moisture Smart Sensor - EC5 (S-SMC-M005)	2019-08-31T09:00:01	0.00	10.051	92.900	0.6119	9.0
2687	AB07CD0350	WETLAND SAL01	SALINE (FEN)	56.573903999999998859493643976747989654541015625	-111.277773999999993748133420012891292572021484375	HOBO Rain Gauge Data Logger - RG3	HOBO Temperature/RH Smart Sensor (S-THB-M002)	Soil Moisture Smart Sensor - EC5 (S-SMC-M005)	2019-08-31T10:00:01	0.00	11.565	88.800	0.6111	9.8
2688	AB07CD0350	WETLAND SAL01	SALINE (FEN)	56.573903999999998859493643976747989654541015625	-111.277773999999993748133420012891292572021484375	HOBO Rain Gauge Data Logger - RG3	HOBO Temperature/RH Smart Sensor (S-THB-M002)	Soil Moisture Smart Sensor - EC5 (S-SMC-M005)	2019-08-31T11:00:01	0.00	12.678	85.500	0.6111	10.3
2689	AB07CD0350	WETLAND SAL01	SALINE (FEN)	56.573903999999998859493643976747989654541015625	-111.277773999999993748133420012891292572021484375	HOBO Rain Gauge Data Logger - RG3	HOBO Temperature/RH Smart Sensor (S-THB-M002)	Soil Moisture Smart Sensor - EC5 (S-SMC-M005)	2019-08-31T12:00:01	0.00	11.904	85.100	0.6111	9.5
2690	AB07CD0350	WETLAND SAL01	SALINE (FEN)	56.573903999999998859493643976747989654541015625	-111.277773999999993748133420012891292572021484375	HOBO Rain Gauge Data Logger - RG3	HOBO Temperature/RH Smart Sensor (S-THB-M002)	Soil Moisture Smart Sensor - EC5 (S-SMC-M005)	2019-08-31T13:00:01	0.00	14.026	83.700	0.6111	11.3
2691	AB07CD0350	WETLAND SAL01	SALINE (FEN)	56.573903999999998859493643976747989654541015625	-111.277773999999993748133420012891292572021484375	HOBO Rain Gauge Data Logger - RG3	HOBO Temperature/RH Smart Sensor (S-THB-M002)	Soil Moisture Smart Sensor - EC5 (S-SMC-M005)	2019-08-31T14:00:01	0.00	12.727	80.200	0.6111	9.4
2692	AB07CD0350	WETLAND SAL01	SALINE (FEN)	56.573903999999998859493643976747989654541015625	-111.277773999999993748133420012891292572021484375	HOBO Rain Gauge Data Logger - RG3	HOBO Temperature/RH Smart Sensor (S-THB-M002)	Soil Moisture Smart Sensor - EC5 (S-SMC-M005)	2019-08-31T15:00:01	0.00	11.783	85.400	0.6111	9.4
2693	AB07CD0350	WETLAND SAL01	SALINE (FEN)	56.573903999999998859493643976747989654541015625	-111.277773999999993748133420012891292572021484375	HOBO Rain Gauge Data Logger - RG3	HOBO Temperature/RH Smart Sensor (S-THB-M002)	Soil Moisture Smart Sensor - EC5 (S-SMC-M005)	2019-08-31T16:00:01	0.00	12.823	82.400	0.6111	9.9
2694	AB07CD0350	WETLAND SAL01	SALINE (FEN)	56.573903999999998859493643976747989654541015625	-111.277773999999993748133420012891292572021484375	HOBO Rain Gauge Data Logger - RG3	HOBO Temperature/RH Smart Sensor (S-THB-M002)	Soil Moisture Smart Sensor - EC5 (S-SMC-M005)	2019-08-31T17:00:01	0.00	15.318	73.000	0.6111	10.5
2695	AB07CD0350	WETLAND SAL01	SALINE (FEN)	56.573903999999998859493643976747989654541015625	-111.277773999999993748133420012891292572021484375	HOBO Rain Gauge Data Logger - RG3	HOBO Temperature/RH Smart Sensor (S-THB-M002)	Soil Moisture Smart Sensor - EC5 (S-SMC-M005)	2019-08-31T18:00:01	0.00	15.509	65.200	0.6111	9.0
2696	AB07CD0350	WETLAND SAL01	SALINE (FEN)	56.573903999999998859493643976747989654541015625	-111.277773999999993748133420012891292572021484375	HOBO Rain Gauge Data Logger - RG3	HOBO Temperature/RH Smart Sensor (S-THB-M002)	Soil Moisture Smart Sensor - EC5 (S-SMC-M005)	2019-08-31T19:00:01	0.00	13.858	66.200	0.6111	7.7
2697	AB07CD0350	WETLAND SAL01	SALINE (FEN)	56.573903999999998859493643976747989654541015625	-111.277773999999993748133420012891292572021484375	HOBO Rain Gauge Data Logger - RG3	HOBO Temperature/RH Smart Sensor (S-THB-M002)	Soil Moisture Smart Sensor - EC5 (S-SMC-M005)	2019-08-31T20:00:01	0.00	12.316	70.400	0.6111	7.1
2698	AB07CD0350	WETLAND SAL01	SALINE (FEN)	56.573903999999998859493643976747989654541015625	-111.277773999999993748133420012891292572021484375	HOBO Rain Gauge Data Logger - RG3	HOBO Temperature/RH Smart Sensor (S-THB-M002)	Soil Moisture Smart Sensor - EC5 (S-SMC-M005)	2019-08-31T21:00:01	0.00	7.945	81.700	0.6104	5.0
2699	AB07CD0350	WETLAND SAL01	SALINE (FEN)	56.573903999999998859493643976747989654541015625	-111.277773999999993748133420012891292572021484375	HOBO Rain Gauge Data Logger - RG3	HOBO Temperature/RH Smart Sensor (S-THB-M002)	Soil Moisture Smart Sensor - EC5 (S-SMC-M005)	2019-08-31T22:00:01	0.00	6.382	90.500	0.6104	4.9
2700	AB07CD0350	WETLAND SAL01	SALINE (FEN)	56.573903999999998859493643976747989654541015625	-111.277773999999993748133420012891292572021484375	HOBO Rain Gauge Data Logger - RG3	HOBO Temperature/RH Smart Sensor (S-THB-M002)	Soil Moisture Smart Sensor - EC5 (S-SMC-M005)	2019-08-31T23:00:01	0.00	4.740	93.200	0.6111	3.7
2701	AB07CD0350	WETLAND SAL01	SALINE (FEN)	56.573903999999998859493643976747989654541015625	-111.277773999999993748133420012891292572021484375	HOBO Rain Gauge Data Logger - RG3	HOBO Temperature/RH Smart Sensor (S-THB-M002)	Soil Moisture Smart Sensor - EC5 (S-SMC-M005)	2019-09-01T00:00:01	0.00	3.932	94.300	0.6104	3.1
2702	AB07CD0350	WETLAND SAL01	SALINE (FEN)	56.573903999999998859493643976747989654541015625	-111.277773999999993748133420012891292572021484375	HOBO Rain Gauge Data Logger - RG3	HOBO Temperature/RH Smart Sensor (S-THB-M002)	Soil Moisture Smart Sensor - EC5 (S-SMC-M005)	2019-09-01T01:00:01	0.00	3.643	95.100	0.6111	2.9
2703	AB07CD0350	WETLAND SAL01	SALINE (FEN)	56.573903999999998859493643976747989654541015625	-111.277773999999993748133420012891292572021484375	HOBO Rain Gauge Data Logger - RG3	HOBO Temperature/RH Smart Sensor (S-THB-M002)	Soil Moisture Smart Sensor - EC5 (S-SMC-M005)	2019-09-01T02:00:01	0.00	3.512	95.600	0.6111	2.9
2704	AB07CD0350	WETLAND SAL01	SALINE (FEN)	56.573903999999998859493643976747989654541015625	-111.277773999999993748133420012891292572021484375	HOBO Rain Gauge Data Logger - RG3	HOBO Temperature/RH Smart Sensor (S-THB-M002)	Soil Moisture Smart Sensor - EC5 (S-SMC-M005)	2019-09-01T03:00:01	0.00	2.956	96.100	0.6111	2.4
2705	AB07CD0350	WETLAND SAL01	SALINE (FEN)	56.573903999999998859493643976747989654541015625	-111.277773999999993748133420012891292572021484375	HOBO Rain Gauge Data Logger - RG3	HOBO Temperature/RH Smart Sensor (S-THB-M002)	Soil Moisture Smart Sensor - EC5 (S-SMC-M005)	2019-09-01T04:00:01	0.00	1.398	96.500	0.6111	0.9
2706	AB07CD0350	WETLAND SAL01	SALINE (FEN)	56.573903999999998859493643976747989654541015625	-111.277773999999993748133420012891292572021484375	HOBO Rain Gauge Data Logger - RG3	HOBO Temperature/RH Smart Sensor (S-THB-M002)	Soil Moisture Smart Sensor - EC5 (S-SMC-M005)	2019-09-01T05:00:01	0.00	1.697	96.900	0.6111	1.3
2707	AB07CD0350	WETLAND SAL01	SALINE (FEN)	56.573903999999998859493643976747989654541015625	-111.277773999999993748133420012891292572021484375	HOBO Rain Gauge Data Logger - RG3	HOBO Temperature/RH Smart Sensor (S-THB-M002)	Soil Moisture Smart Sensor - EC5 (S-SMC-M005)	2019-09-01T06:00:01	0.00	1.126	97.400	0.6111	0.8
2708	AB07CD0350	WETLAND SAL01	SALINE (FEN)	56.573903999999998859493643976747989654541015625	-111.277773999999993748133420012891292572021484375	HOBO Rain Gauge Data Logger - RG3	HOBO Temperature/RH Smart Sensor (S-THB-M002)	Soil Moisture Smart Sensor - EC5 (S-SMC-M005)	2019-09-01T07:00:01	0.00	1.670	97.600	0.6111	1.3
2709	AB07CD0350	WETLAND SAL01	SALINE (FEN)	56.573903999999998859493643976747989654541015625	-111.277773999999993748133420012891292572021484375	HOBO Rain Gauge Data Logger - RG3	HOBO Temperature/RH Smart Sensor (S-THB-M002)	Soil Moisture Smart Sensor - EC5 (S-SMC-M005)	2019-09-01T08:00:01	0.00	4.610	97.200	0.6111	4.2
2710	AB07CD0350	WETLAND SAL01	SALINE (FEN)	56.573903999999998859493643976747989654541015625	-111.277773999999993748133420012891292572021484375	HOBO Rain Gauge Data Logger - RG3	HOBO Temperature/RH Smart Sensor (S-THB-M002)	Soil Moisture Smart Sensor - EC5 (S-SMC-M005)	2019-09-01T09:00:01	0.00	9.534	95.000	0.6111	8.8
2711	AB07CD0350	WETLAND SAL01	SALINE (FEN)	56.573903999999998859493643976747989654541015625	-111.277773999999993748133420012891292572021484375	HOBO Rain Gauge Data Logger - RG3	HOBO Temperature/RH Smart Sensor (S-THB-M002)	Soil Moisture Smart Sensor - EC5 (S-SMC-M005)	2019-09-01T10:00:01	0.00	13.473	86.200	0.6111	11.2
2712	AB07CD0350	WETLAND SAL01	SALINE (FEN)	56.573903999999998859493643976747989654541015625	-111.277773999999993748133420012891292572021484375	HOBO Rain Gauge Data Logger - RG3	HOBO Temperature/RH Smart Sensor (S-THB-M002)	Soil Moisture Smart Sensor - EC5 (S-SMC-M005)	2019-09-01T11:00:01	0.00	15.509	69.100	0.6104	9.9
2713	AB07CD0350	WETLAND SAL01	SALINE (FEN)	56.573903999999998859493643976747989654541015625	-111.277773999999993748133420012891292572021484375	HOBO Rain Gauge Data Logger - RG3	HOBO Temperature/RH Smart Sensor (S-THB-M002)	Soil Moisture Smart Sensor - EC5 (S-SMC-M005)	2019-09-01T12:00:01	0.00	16.892	56.200	0.6104	8.1
2714	AB07CD0350	WETLAND SAL01	SALINE (FEN)	56.573903999999998859493643976747989654541015625	-111.277773999999993748133420012891292572021484375	HOBO Rain Gauge Data Logger - RG3	HOBO Temperature/RH Smart Sensor (S-THB-M002)	Soil Moisture Smart Sensor - EC5 (S-SMC-M005)	2019-09-01T13:00:01	0.00	17.510	56.600	0.6104	8.8
2715	AB07CD0350	WETLAND SAL01	SALINE (FEN)	56.573903999999998859493643976747989654541015625	-111.277773999999993748133420012891292572021484375	HOBO Rain Gauge Data Logger - RG3	HOBO Temperature/RH Smart Sensor (S-THB-M002)	Soil Moisture Smart Sensor - EC5 (S-SMC-M005)	2019-09-01T14:00:01	0.00	18.485	54.700	0.6104	9.2
2716	AB07CD0350	WETLAND SAL01	SALINE (FEN)	56.573903999999998859493643976747989654541015625	-111.277773999999993748133420012891292572021484375	HOBO Rain Gauge Data Logger - RG3	HOBO Temperature/RH Smart Sensor (S-THB-M002)	Soil Moisture Smart Sensor - EC5 (S-SMC-M005)	2019-09-01T15:00:01	0.00	19.080	52.900	0.6097	9.3
2717	AB07CD0350	WETLAND SAL01	SALINE (FEN)	56.573903999999998859493643976747989654541015625	-111.277773999999993748133420012891292572021484375	HOBO Rain Gauge Data Logger - RG3	HOBO Temperature/RH Smart Sensor (S-THB-M002)	Soil Moisture Smart Sensor - EC5 (S-SMC-M005)	2019-09-01T16:00:01	0.00	19.912	49.900	0.6097	9.2
2718	AB07CD0350	WETLAND SAL01	SALINE (FEN)	56.573903999999998859493643976747989654541015625	-111.277773999999993748133420012891292572021484375	HOBO Rain Gauge Data Logger - RG3	HOBO Temperature/RH Smart Sensor (S-THB-M002)	Soil Moisture Smart Sensor - EC5 (S-SMC-M005)	2019-09-01T17:00:01	0.00	19.698	49.100	0.6097	8.7
2719	AB07CD0350	WETLAND SAL01	SALINE (FEN)	56.573903999999998859493643976747989654541015625	-111.277773999999993748133420012891292572021484375	HOBO Rain Gauge Data Logger - RG3	HOBO Temperature/RH Smart Sensor (S-THB-M002)	Soil Moisture Smart Sensor - EC5 (S-SMC-M005)	2019-09-01T18:00:01	0.00	18.247	50.700	0.6097	7.9
2720	AB07CD0350	WETLAND SAL01	SALINE (FEN)	56.573903999999998859493643976747989654541015625	-111.277773999999993748133420012891292572021484375	HOBO Rain Gauge Data Logger - RG3	HOBO Temperature/RH Smart Sensor (S-THB-M002)	Soil Moisture Smart Sensor - EC5 (S-SMC-M005)	2019-09-01T19:00:01	0.00	17.486	52.400	0.6097	7.7
2721	AB07CD0350	WETLAND SAL01	SALINE (FEN)	56.573903999999998859493643976747989654541015625	-111.277773999999993748133420012891292572021484375	HOBO Rain Gauge Data Logger - RG3	HOBO Temperature/RH Smart Sensor (S-THB-M002)	Soil Moisture Smart Sensor - EC5 (S-SMC-M005)	2019-09-01T20:00:01	0.00	15.629	56.100	0.6097	6.9
2722	AB07CD0350	WETLAND SAL01	SALINE (FEN)	56.573903999999998859493643976747989654541015625	-111.277773999999993748133420012891292572021484375	HOBO Rain Gauge Data Logger - RG3	HOBO Temperature/RH Smart Sensor (S-THB-M002)	Soil Moisture Smart Sensor - EC5 (S-SMC-M005)	2019-09-01T21:00:01	0.00	12.751	64.500	0.6097	6.2
2723	AB07CD0350	WETLAND SAL01	SALINE (FEN)	56.573903999999998859493643976747989654541015625	-111.277773999999993748133420012891292572021484375	HOBO Rain Gauge Data Logger - RG3	HOBO Temperature/RH Smart Sensor (S-THB-M002)	Soil Moisture Smart Sensor - EC5 (S-SMC-M005)	2019-09-01T22:00:01	0.00	12.751	70.600	0.6097	7.6
2724	AB07CD0350	WETLAND SAL01	SALINE (FEN)	56.573903999999998859493643976747989654541015625	-111.277773999999993748133420012891292572021484375	HOBO Rain Gauge Data Logger - RG3	HOBO Temperature/RH Smart Sensor (S-THB-M002)	Soil Moisture Smart Sensor - EC5 (S-SMC-M005)	2019-09-01T23:00:01	0.00	13.786	71.400	0.6097	8.7
2725	AB07CD0350	WETLAND SAL01	SALINE (FEN)	56.573903999999998859493643976747989654541015625	-111.277773999999993748133420012891292572021484375	HOBO Rain Gauge Data Logger - RG3	HOBO Temperature/RH Smart Sensor (S-THB-M002)	Soil Moisture Smart Sensor - EC5 (S-SMC-M005)	2019-09-02T00:00:01	0.00	12.292	71.000	0.6097	7.2
2726	AB07CD0350	WETLAND SAL01	SALINE (FEN)	56.573903999999998859493643976747989654541015625	-111.277773999999993748133420012891292572021484375	HOBO Rain Gauge Data Logger - RG3	HOBO Temperature/RH Smart Sensor (S-THB-M002)	Soil Moisture Smart Sensor - EC5 (S-SMC-M005)	2019-09-02T01:00:01	0.00	11.370	77.000	0.6097	7.5
2727	AB07CD0350	WETLAND SAL01	SALINE (FEN)	56.573903999999998859493643976747989654541015625	-111.277773999999993748133420012891292572021484375	HOBO Rain Gauge Data Logger - RG3	HOBO Temperature/RH Smart Sensor (S-THB-M002)	Soil Moisture Smart Sensor - EC5 (S-SMC-M005)	2019-09-02T02:00:01	0.00	11.443	79.000	0.6104	7.9
2728	AB07CD0350	WETLAND SAL01	SALINE (FEN)	56.573903999999998859493643976747989654541015625	-111.277773999999993748133420012891292572021484375	HOBO Rain Gauge Data Logger - RG3	HOBO Temperature/RH Smart Sensor (S-THB-M002)	Soil Moisture Smart Sensor - EC5 (S-SMC-M005)	2019-09-02T03:00:01	0.00	11.370	79.200	0.6097	7.9
2729	AB07CD0350	WETLAND SAL01	SALINE (FEN)	56.573903999999998859493643976747989654541015625	-111.277773999999993748133420012891292572021484375	HOBO Rain Gauge Data Logger - RG3	HOBO Temperature/RH Smart Sensor (S-THB-M002)	Soil Moisture Smart Sensor - EC5 (S-SMC-M005)	2019-09-02T04:00:01	0.00	10.810	82.200	0.6104	7.9
2730	AB07CD0350	WETLAND SAL01	SALINE (FEN)	56.573903999999998859493643976747989654541015625	-111.277773999999993748133420012891292572021484375	HOBO Rain Gauge Data Logger - RG3	HOBO Temperature/RH Smart Sensor (S-THB-M002)	Soil Moisture Smart Sensor - EC5 (S-SMC-M005)	2019-09-02T05:00:01	0.00	10.516	83.400	0.6104	7.8
2731	AB07CD0350	WETLAND SAL01	SALINE (FEN)	56.573903999999998859493643976747989654541015625	-111.277773999999993748133420012891292572021484375	HOBO Rain Gauge Data Logger - RG3	HOBO Temperature/RH Smart Sensor (S-THB-M002)	Soil Moisture Smart Sensor - EC5 (S-SMC-M005)	2019-09-02T06:00:01	0.20	9.805	88.300	0.6104	8.0
2732	AB07CD0350	WETLAND SAL01	SALINE (FEN)	56.573903999999998859493643976747989654541015625	-111.277773999999993748133420012891292572021484375	HOBO Rain Gauge Data Logger - RG3	HOBO Temperature/RH Smart Sensor (S-THB-M002)	Soil Moisture Smart Sensor - EC5 (S-SMC-M005)	2019-09-02T07:00:01	0.20	9.682	92.200	0.6104	8.5
2733	AB07CD0350	WETLAND SAL01	SALINE (FEN)	56.573903999999998859493643976747989654541015625	-111.277773999999993748133420012891292572021484375	HOBO Rain Gauge Data Logger - RG3	HOBO Temperature/RH Smart Sensor (S-THB-M002)	Soil Moisture Smart Sensor - EC5 (S-SMC-M005)	2019-09-02T08:00:01	0.20	10.222	94.400	0.6104	9.4
2734	AB07CD0350	WETLAND SAL01	SALINE (FEN)	56.573903999999998859493643976747989654541015625	-111.277773999999993748133420012891292572021484375	HOBO Rain Gauge Data Logger - RG3	HOBO Temperature/RH Smart Sensor (S-THB-M002)	Soil Moisture Smart Sensor - EC5 (S-SMC-M005)	2019-09-02T09:00:01	0.20	10.785	94.300	0.6097	9.9
2735	AB07CD0350	WETLAND SAL01	SALINE (FEN)	56.573903999999998859493643976747989654541015625	-111.277773999999993748133420012891292572021484375	HOBO Rain Gauge Data Logger - RG3	HOBO Temperature/RH Smart Sensor (S-THB-M002)	Soil Moisture Smart Sensor - EC5 (S-SMC-M005)	2019-09-02T10:00:01	0.40	11.467	95.000	0.6097	10.7
2736	AB07CD0350	WETLAND SAL01	SALINE (FEN)	56.573903999999998859493643976747989654541015625	-111.277773999999993748133420012891292572021484375	HOBO Rain Gauge Data Logger - RG3	HOBO Temperature/RH Smart Sensor (S-THB-M002)	Soil Moisture Smart Sensor - EC5 (S-SMC-M005)	2019-09-02T11:00:01	0.00	11.832	94.700	0.6097	11.0
2737	AB07CD0350	WETLAND SAL01	SALINE (FEN)	56.573903999999998859493643976747989654541015625	-111.277773999999993748133420012891292572021484375	HOBO Rain Gauge Data Logger - RG3	HOBO Temperature/RH Smart Sensor (S-THB-M002)	Soil Moisture Smart Sensor - EC5 (S-SMC-M005)	2019-09-02T12:00:01	0.00	12.413	93.900	0.6097	11.5
2738	AB07CD0350	WETLAND SAL01	SALINE (FEN)	56.573903999999998859493643976747989654541015625	-111.277773999999993748133420012891292572021484375	HOBO Rain Gauge Data Logger - RG3	HOBO Temperature/RH Smart Sensor (S-THB-M002)	Soil Moisture Smart Sensor - EC5 (S-SMC-M005)	2019-09-02T13:00:01	0.00	13.473	88.800	0.6097	11.7
2739	AB07CD0350	WETLAND SAL01	SALINE (FEN)	56.573903999999998859493643976747989654541015625	-111.277773999999993748133420012891292572021484375	HOBO Rain Gauge Data Logger - RG3	HOBO Temperature/RH Smart Sensor (S-THB-M002)	Soil Moisture Smart Sensor - EC5 (S-SMC-M005)	2019-09-02T14:00:01	0.00	14.505	85.000	0.6097	12.0
2740	AB07CD0350	WETLAND SAL01	SALINE (FEN)	56.573903999999998859493643976747989654541015625	-111.277773999999993748133420012891292572021484375	HOBO Rain Gauge Data Logger - RG3	HOBO Temperature/RH Smart Sensor (S-THB-M002)	Soil Moisture Smart Sensor - EC5 (S-SMC-M005)	2019-09-02T15:00:01	0.00	16.010	76.800	0.6097	12.0
2741	AB07CD0350	WETLAND SAL01	SALINE (FEN)	56.573903999999998859493643976747989654541015625	-111.277773999999993748133420012891292572021484375	HOBO Rain Gauge Data Logger - RG3	HOBO Temperature/RH Smart Sensor (S-THB-M002)	Soil Moisture Smart Sensor - EC5 (S-SMC-M005)	2019-09-02T16:00:01	0.00	16.796	72.600	0.6097	11.9
2742	AB07CD0350	WETLAND SAL01	SALINE (FEN)	56.573903999999998859493643976747989654541015625	-111.277773999999993748133420012891292572021484375	HOBO Rain Gauge Data Logger - RG3	HOBO Temperature/RH Smart Sensor (S-THB-M002)	Soil Moisture Smart Sensor - EC5 (S-SMC-M005)	2019-09-02T17:00:01	0.00	17.320	69.700	0.6097	11.7
2743	AB07CD0350	WETLAND SAL01	SALINE (FEN)	56.573903999999998859493643976747989654541015625	-111.277773999999993748133420012891292572021484375	HOBO Rain Gauge Data Logger - RG3	HOBO Temperature/RH Smart Sensor (S-THB-M002)	Soil Moisture Smart Sensor - EC5 (S-SMC-M005)	2019-09-02T18:00:01	0.00	16.225	65.000	0.6097	9.7
2744	AB07CD0350	WETLAND SAL01	SALINE (FEN)	56.573903999999998859493643976747989654541015625	-111.277773999999993748133420012891292572021484375	HOBO Rain Gauge Data Logger - RG3	HOBO Temperature/RH Smart Sensor (S-THB-M002)	Soil Moisture Smart Sensor - EC5 (S-SMC-M005)	2019-09-02T19:00:01	0.00	16.106	67.800	0.6097	10.2
2745	AB07CD0350	WETLAND SAL01	SALINE (FEN)	56.573903999999998859493643976747989654541015625	-111.277773999999993748133420012891292572021484375	HOBO Rain Gauge Data Logger - RG3	HOBO Temperature/RH Smart Sensor (S-THB-M002)	Soil Moisture Smart Sensor - EC5 (S-SMC-M005)	2019-09-02T20:00:01	0.00	14.721	71.500	0.6097	9.6
2746	AB07CD0350	WETLAND SAL01	SALINE (FEN)	56.573903999999998859493643976747989654541015625	-111.277773999999993748133420012891292572021484375	HOBO Rain Gauge Data Logger - RG3	HOBO Temperature/RH Smart Sensor (S-THB-M002)	Soil Moisture Smart Sensor - EC5 (S-SMC-M005)	2019-09-02T21:00:01	0.00	11.273	80.500	0.6097	8.1
2747	AB07CD0350	WETLAND SAL01	SALINE (FEN)	56.573903999999998859493643976747989654541015625	-111.277773999999993748133420012891292572021484375	HOBO Rain Gauge Data Logger - RG3	HOBO Temperature/RH Smart Sensor (S-THB-M002)	Soil Moisture Smart Sensor - EC5 (S-SMC-M005)	2019-09-02T22:00:01	0.00	11.175	87.400	0.6097	9.2
2748	AB07CD0350	WETLAND SAL01	SALINE (FEN)	56.573903999999998859493643976747989654541015625	-111.277773999999993748133420012891292572021484375	HOBO Rain Gauge Data Logger - RG3	HOBO Temperature/RH Smart Sensor (S-THB-M002)	Soil Moisture Smart Sensor - EC5 (S-SMC-M005)	2019-09-02T23:00:01	0.00	12.074	89.900	0.6097	10.5
2749	AB07CD0350	WETLAND SAL01	SALINE (FEN)	56.573903999999998859493643976747989654541015625	-111.277773999999993748133420012891292572021484375	HOBO Rain Gauge Data Logger - RG3	HOBO Temperature/RH Smart Sensor (S-THB-M002)	Soil Moisture Smart Sensor - EC5 (S-SMC-M005)	2019-09-03T00:00:01	0.00	11.710	89.500	0.6097	10.1
2750	AB07CD0350	WETLAND SAL01	SALINE (FEN)	56.573903999999998859493643976747989654541015625	-111.277773999999993748133420012891292572021484375	HOBO Rain Gauge Data Logger - RG3	HOBO Temperature/RH Smart Sensor (S-THB-M002)	Soil Moisture Smart Sensor - EC5 (S-SMC-M005)	2019-09-03T01:00:01	0.00	11.200	89.800	0.6097	9.6
2751	AB07CD0350	WETLAND SAL01	SALINE (FEN)	56.573903999999998859493643976747989654541015625	-111.277773999999993748133420012891292572021484375	HOBO Rain Gauge Data Logger - RG3	HOBO Temperature/RH Smart Sensor (S-THB-M002)	Soil Moisture Smart Sensor - EC5 (S-SMC-M005)	2019-09-03T02:00:01	0.00	11.613	90.100	0.6097	10.1
2752	AB07CD0350	WETLAND SAL01	SALINE (FEN)	56.573903999999998859493643976747989654541015625	-111.277773999999993748133420012891292572021484375	HOBO Rain Gauge Data Logger - RG3	HOBO Temperature/RH Smart Sensor (S-THB-M002)	Soil Moisture Smart Sensor - EC5 (S-SMC-M005)	2019-09-03T03:00:01	0.00	11.540	88.600	0.6104	9.7
2753	AB07CD0350	WETLAND SAL01	SALINE (FEN)	56.573903999999998859493643976747989654541015625	-111.277773999999993748133420012891292572021484375	HOBO Rain Gauge Data Logger - RG3	HOBO Temperature/RH Smart Sensor (S-THB-M002)	Soil Moisture Smart Sensor - EC5 (S-SMC-M005)	2019-09-03T04:00:01	0.00	11.492	88.200	0.6104	9.6
2754	AB07CD0350	WETLAND SAL01	SALINE (FEN)	56.573903999999998859493643976747989654541015625	-111.277773999999993748133420012891292572021484375	HOBO Rain Gauge Data Logger - RG3	HOBO Temperature/RH Smart Sensor (S-THB-M002)	Soil Moisture Smart Sensor - EC5 (S-SMC-M005)	2019-09-03T05:00:01	0.00	11.273	88.400	0.6097	9.4
2755	AB07CD0350	WETLAND SAL01	SALINE (FEN)	56.573903999999998859493643976747989654541015625	-111.277773999999993748133420012891292572021484375	HOBO Rain Gauge Data Logger - RG3	HOBO Temperature/RH Smart Sensor (S-THB-M002)	Soil Moisture Smart Sensor - EC5 (S-SMC-M005)	2019-09-03T06:00:01	0.00	12.437	87.000	0.6104	10.3
2756	AB07CD0350	WETLAND SAL01	SALINE (FEN)	56.573903999999998859493643976747989654541015625	-111.277773999999993748133420012891292572021484375	HOBO Rain Gauge Data Logger - RG3	HOBO Temperature/RH Smart Sensor (S-THB-M002)	Soil Moisture Smart Sensor - EC5 (S-SMC-M005)	2019-09-03T07:00:01	0.00	9.977	86.100	0.6104	7.8
2757	AB07CD0350	WETLAND SAL01	SALINE (FEN)	56.573903999999998859493643976747989654541015625	-111.277773999999993748133420012891292572021484375	HOBO Rain Gauge Data Logger - RG3	HOBO Temperature/RH Smart Sensor (S-THB-M002)	Soil Moisture Smart Sensor - EC5 (S-SMC-M005)	2019-09-03T08:00:01	0.00	12.534	89.100	0.6104	10.8
2758	AB07CD0350	WETLAND SAL01	SALINE (FEN)	56.573903999999998859493643976747989654541015625	-111.277773999999993748133420012891292572021484375	HOBO Rain Gauge Data Logger - RG3	HOBO Temperature/RH Smart Sensor (S-THB-M002)	Soil Moisture Smart Sensor - EC5 (S-SMC-M005)	2019-09-03T09:00:01	0.00	13.281	81.900	0.6104	10.3
2759	AB07CD0350	WETLAND SAL01	SALINE (FEN)	56.573903999999998859493643976747989654541015625	-111.277773999999993748133420012891292572021484375	HOBO Rain Gauge Data Logger - RG3	HOBO Temperature/RH Smart Sensor (S-THB-M002)	Soil Moisture Smart Sensor - EC5 (S-SMC-M005)	2019-09-03T10:00:01	0.00	13.618	82.000	0.6104	10.6
2760	AB07CD0350	WETLAND SAL01	SALINE (FEN)	56.573903999999998859493643976747989654541015625	-111.277773999999993748133420012891292572021484375	HOBO Rain Gauge Data Logger - RG3	HOBO Temperature/RH Smart Sensor (S-THB-M002)	Soil Moisture Smart Sensor - EC5 (S-SMC-M005)	2019-09-03T11:00:01	0.00	15.247	79.100	0.6104	11.7
2761	AB07CD0350	WETLAND SAL01	SALINE (FEN)	56.573903999999998859493643976747989654541015625	-111.277773999999993748133420012891292572021484375	HOBO Rain Gauge Data Logger - RG3	HOBO Temperature/RH Smart Sensor (S-THB-M002)	Soil Moisture Smart Sensor - EC5 (S-SMC-M005)	2019-09-03T12:00:01	0.00	18.033	69.300	0.6104	12.3
2762	AB07CD0350	WETLAND SAL01	SALINE (FEN)	56.573903999999998859493643976747989654541015625	-111.277773999999993748133420012891292572021484375	HOBO Rain Gauge Data Logger - RG3	HOBO Temperature/RH Smart Sensor (S-THB-M002)	Soil Moisture Smart Sensor - EC5 (S-SMC-M005)	2019-09-03T13:00:01	0.00	17.724	62.700	0.6097	10.5
2763	AB07CD0350	WETLAND SAL01	SALINE (FEN)	56.573903999999998859493643976747989654541015625	-111.277773999999993748133420012891292572021484375	HOBO Rain Gauge Data Logger - RG3	HOBO Temperature/RH Smart Sensor (S-THB-M002)	Soil Moisture Smart Sensor - EC5 (S-SMC-M005)	2019-09-03T14:00:01	0.00	20.150	61.000	0.6097	12.4
2764	AB07CD0350	WETLAND SAL01	SALINE (FEN)	56.573903999999998859493643976747989654541015625	-111.277773999999993748133420012891292572021484375	HOBO Rain Gauge Data Logger - RG3	HOBO Temperature/RH Smart Sensor (S-THB-M002)	Soil Moisture Smart Sensor - EC5 (S-SMC-M005)	2019-09-03T15:00:01	0.00	19.199	59.300	0.6097	11.1
2765	AB07CD0350	WETLAND SAL01	SALINE (FEN)	56.573903999999998859493643976747989654541015625	-111.277773999999993748133420012891292572021484375	HOBO Rain Gauge Data Logger - RG3	HOBO Temperature/RH Smart Sensor (S-THB-M002)	Soil Moisture Smart Sensor - EC5 (S-SMC-M005)	2019-09-03T16:00:01	0.00	19.127	60.700	0.6097	11.4
2766	AB07CD0350	WETLAND SAL01	SALINE (FEN)	56.573903999999998859493643976747989654541015625	-111.277773999999993748133420012891292572021484375	HOBO Rain Gauge Data Logger - RG3	HOBO Temperature/RH Smart Sensor (S-THB-M002)	Soil Moisture Smart Sensor - EC5 (S-SMC-M005)	2019-09-03T17:00:01	0.00	22.465	55.200	0.6097	13.1
2767	AB07CD0350	WETLAND SAL01	SALINE (FEN)	56.573903999999998859493643976747989654541015625	-111.277773999999993748133420012891292572021484375	HOBO Rain Gauge Data Logger - RG3	HOBO Temperature/RH Smart Sensor (S-THB-M002)	Soil Moisture Smart Sensor - EC5 (S-SMC-M005)	2019-09-03T18:00:01	0.00	22.011	48.400	0.6097	10.6
2768	AB07CD0350	WETLAND SAL01	SALINE (FEN)	56.573903999999998859493643976747989654541015625	-111.277773999999993748133420012891292572021484375	HOBO Rain Gauge Data Logger - RG3	HOBO Temperature/RH Smart Sensor (S-THB-M002)	Soil Moisture Smart Sensor - EC5 (S-SMC-M005)	2019-09-03T19:00:01	0.00	19.936	50.000	0.6097	9.2
2769	AB07CD0350	WETLAND SAL01	SALINE (FEN)	56.573903999999998859493643976747989654541015625	-111.277773999999993748133420012891292572021484375	HOBO Rain Gauge Data Logger - RG3	HOBO Temperature/RH Smart Sensor (S-THB-M002)	Soil Moisture Smart Sensor - EC5 (S-SMC-M005)	2019-09-03T20:00:01	0.00	15.605	67.700	0.6097	9.7
2770	AB07CD0350	WETLAND SAL01	SALINE (FEN)	56.573903999999998859493643976747989654541015625	-111.277773999999993748133420012891292572021484375	HOBO Rain Gauge Data Logger - RG3	HOBO Temperature/RH Smart Sensor (S-THB-M002)	Soil Moisture Smart Sensor - EC5 (S-SMC-M005)	2019-09-03T21:00:01	0.00	12.485	85.500	0.6097	10.1
2771	AB07CD0350	WETLAND SAL01	SALINE (FEN)	56.573903999999998859493643976747989654541015625	-111.277773999999993748133420012891292572021484375	HOBO Rain Gauge Data Logger - RG3	HOBO Temperature/RH Smart Sensor (S-THB-M002)	Soil Moisture Smart Sensor - EC5 (S-SMC-M005)	2019-09-03T22:00:01	0.00	11.370	89.000	0.6104	9.6
2772	AB07CD0350	WETLAND SAL01	SALINE (FEN)	56.573903999999998859493643976747989654541015625	-111.277773999999993748133420012891292572021484375	HOBO Rain Gauge Data Logger - RG3	HOBO Temperature/RH Smart Sensor (S-THB-M002)	Soil Moisture Smart Sensor - EC5 (S-SMC-M005)	2019-09-03T23:00:01	0.00	12.847	83.200	0.6097	10.1
2773	AB07CD0350	WETLAND SAL01	SALINE (FEN)	56.573903999999998859493643976747989654541015625	-111.277773999999993748133420012891292572021484375	HOBO Rain Gauge Data Logger - RG3	HOBO Temperature/RH Smart Sensor (S-THB-M002)	Soil Moisture Smart Sensor - EC5 (S-SMC-M005)	2019-09-04T00:00:01	0.00	9.163	85.200	0.6104	6.8
2774	AB07CD0350	WETLAND SAL01	SALINE (FEN)	56.573903999999998859493643976747989654541015625	-111.277773999999993748133420012891292572021484375	HOBO Rain Gauge Data Logger - RG3	HOBO Temperature/RH Smart Sensor (S-THB-M002)	Soil Moisture Smart Sensor - EC5 (S-SMC-M005)	2019-09-04T01:00:01	0.00	9.509	91.700	0.6104	8.2
2775	AB07CD0350	WETLAND SAL01	SALINE (FEN)	56.573903999999998859493643976747989654541015625	-111.277773999999993748133420012891292572021484375	HOBO Rain Gauge Data Logger - RG3	HOBO Temperature/RH Smart Sensor (S-THB-M002)	Soil Moisture Smart Sensor - EC5 (S-SMC-M005)	2019-09-04T02:00:01	0.00	9.583	93.200	0.6097	8.5
2776	AB07CD0350	WETLAND SAL01	SALINE (FEN)	56.573903999999998859493643976747989654541015625	-111.277773999999993748133420012891292572021484375	HOBO Rain Gauge Data Logger - RG3	HOBO Temperature/RH Smart Sensor (S-THB-M002)	Soil Moisture Smart Sensor - EC5 (S-SMC-M005)	2019-09-04T03:00:01	0.00	9.435	94.100	0.6104	8.5
2777	AB07CD0350	WETLAND SAL01	SALINE (FEN)	56.573903999999998859493643976747989654541015625	-111.277773999999993748133420012891292572021484375	HOBO Rain Gauge Data Logger - RG3	HOBO Temperature/RH Smart Sensor (S-THB-M002)	Soil Moisture Smart Sensor - EC5 (S-SMC-M005)	2019-09-04T04:00:01	0.00	10.345	94.600	0.6104	9.5
2778	AB07CD0350	WETLAND SAL01	SALINE (FEN)	56.573903999999998859493643976747989654541015625	-111.277773999999993748133420012891292572021484375	HOBO Rain Gauge Data Logger - RG3	HOBO Temperature/RH Smart Sensor (S-THB-M002)	Soil Moisture Smart Sensor - EC5 (S-SMC-M005)	2019-09-04T05:00:01	0.00	11.102	92.500	0.6104	9.9
2779	AB07CD0350	WETLAND SAL01	SALINE (FEN)	56.573903999999998859493643976747989654541015625	-111.277773999999993748133420012891292572021484375	HOBO Rain Gauge Data Logger - RG3	HOBO Temperature/RH Smart Sensor (S-THB-M002)	Soil Moisture Smart Sensor - EC5 (S-SMC-M005)	2019-09-04T06:00:01	0.00	12.025	91.400	0.6104	10.7
2780	AB07CD0350	WETLAND SAL01	SALINE (FEN)	56.573903999999998859493643976747989654541015625	-111.277773999999993748133420012891292572021484375	HOBO Rain Gauge Data Logger - RG3	HOBO Temperature/RH Smart Sensor (S-THB-M002)	Soil Moisture Smart Sensor - EC5 (S-SMC-M005)	2019-09-04T07:00:01	0.00	11.953	90.100	0.6104	10.4
2781	AB07CD0350	WETLAND SAL01	SALINE (FEN)	56.573903999999998859493643976747989654541015625	-111.277773999999993748133420012891292572021484375	HOBO Rain Gauge Data Logger - RG3	HOBO Temperature/RH Smart Sensor (S-THB-M002)	Soil Moisture Smart Sensor - EC5 (S-SMC-M005)	2019-09-04T08:00:01	0.00	12.340	91.400	0.6104	11.0
2782	AB07CD0350	WETLAND SAL01	SALINE (FEN)	56.573903999999998859493643976747989654541015625	-111.277773999999993748133420012891292572021484375	HOBO Rain Gauge Data Logger - RG3	HOBO Temperature/RH Smart Sensor (S-THB-M002)	Soil Moisture Smart Sensor - EC5 (S-SMC-M005)	2019-09-04T09:00:01	0.20	12.630	92.400	0.6104	11.4
2783	AB07CD0350	WETLAND SAL01	SALINE (FEN)	56.573903999999998859493643976747989654541015625	-111.277773999999993748133420012891292572021484375	HOBO Rain Gauge Data Logger - RG3	HOBO Temperature/RH Smart Sensor (S-THB-M002)	Soil Moisture Smart Sensor - EC5 (S-SMC-M005)	2019-09-04T10:00:01	0.00	13.858	92.800	0.6104	12.7
2784	AB07CD0350	WETLAND SAL01	SALINE (FEN)	56.573903999999998859493643976747989654541015625	-111.277773999999993748133420012891292572021484375	HOBO Rain Gauge Data Logger - RG3	HOBO Temperature/RH Smart Sensor (S-THB-M002)	Soil Moisture Smart Sensor - EC5 (S-SMC-M005)	2019-09-04T11:00:01	0.00	14.170	89.100	0.6104	12.4
2785	AB07CD0350	WETLAND SAL01	SALINE (FEN)	56.573903999999998859493643976747989654541015625	-111.277773999999993748133420012891292572021484375	HOBO Rain Gauge Data Logger - RG3	HOBO Temperature/RH Smart Sensor (S-THB-M002)	Soil Moisture Smart Sensor - EC5 (S-SMC-M005)	2019-09-04T12:00:01	0.00	16.820	85.100	0.6104	14.3
2786	AB07CD0350	WETLAND SAL01	SALINE (FEN)	56.573903999999998859493643976747989654541015625	-111.277773999999993748133420012891292572021484375	HOBO Rain Gauge Data Logger - RG3	HOBO Temperature/RH Smart Sensor (S-THB-M002)	Soil Moisture Smart Sensor - EC5 (S-SMC-M005)	2019-09-04T13:00:01	0.00	18.105	76.100	0.6104	13.8
2787	AB07CD0350	WETLAND SAL01	SALINE (FEN)	56.573903999999998859493643976747989654541015625	-111.277773999999993748133420012891292572021484375	HOBO Rain Gauge Data Logger - RG3	HOBO Temperature/RH Smart Sensor (S-THB-M002)	Soil Moisture Smart Sensor - EC5 (S-SMC-M005)	2019-09-04T14:00:01	0.20	17.201	80.400	0.6104	13.8
2788	AB07CD0350	WETLAND SAL01	SALINE (FEN)	56.573903999999998859493643976747989654541015625	-111.277773999999993748133420012891292572021484375	HOBO Rain Gauge Data Logger - RG3	HOBO Temperature/RH Smart Sensor (S-THB-M002)	Soil Moisture Smart Sensor - EC5 (S-SMC-M005)	2019-09-04T15:00:01	0.00	18.295	82.300	0.6104	15.2
2789	AB07CD0350	WETLAND SAL01	SALINE (FEN)	56.573903999999998859493643976747989654541015625	-111.277773999999993748133420012891292572021484375	HOBO Rain Gauge Data Logger - RG3	HOBO Temperature/RH Smart Sensor (S-THB-M002)	Soil Moisture Smart Sensor - EC5 (S-SMC-M005)	2019-09-04T16:00:01	0.00	19.127	78.900	0.6104	15.4
2790	AB07CD0350	WETLAND SAL01	SALINE (FEN)	56.573903999999998859493643976747989654541015625	-111.277773999999993748133420012891292572021484375	HOBO Rain Gauge Data Logger - RG3	HOBO Temperature/RH Smart Sensor (S-THB-M002)	Soil Moisture Smart Sensor - EC5 (S-SMC-M005)	2019-09-04T17:00:01	0.00	20.222	74.300	0.6104	15.5
2791	AB07CD0350	WETLAND SAL01	SALINE (FEN)	56.573903999999998859493643976747989654541015625	-111.277773999999993748133420012891292572021484375	HOBO Rain Gauge Data Logger - RG3	HOBO Temperature/RH Smart Sensor (S-THB-M002)	Soil Moisture Smart Sensor - EC5 (S-SMC-M005)	2019-09-04T18:00:01	0.00	20.793	71.300	0.6104	15.4
2792	AB07CD0350	WETLAND SAL01	SALINE (FEN)	56.573903999999998859493643976747989654541015625	-111.277773999999993748133420012891292572021484375	HOBO Rain Gauge Data Logger - RG3	HOBO Temperature/RH Smart Sensor (S-THB-M002)	Soil Moisture Smart Sensor - EC5 (S-SMC-M005)	2019-09-04T19:00:01	0.00	19.746	76.000	0.6104	15.4
2793	AB07CD0350	WETLAND SAL01	SALINE (FEN)	56.573903999999998859493643976747989654541015625	-111.277773999999993748133420012891292572021484375	HOBO Rain Gauge Data Logger - RG3	HOBO Temperature/RH Smart Sensor (S-THB-M002)	Soil Moisture Smart Sensor - EC5 (S-SMC-M005)	2019-09-04T20:00:01	0.00	17.629	83.600	0.6104	14.8
2794	AB07CD0350	WETLAND SAL01	SALINE (FEN)	56.573903999999998859493643976747989654541015625	-111.277773999999993748133420012891292572021484375	HOBO Rain Gauge Data Logger - RG3	HOBO Temperature/RH Smart Sensor (S-THB-M002)	Soil Moisture Smart Sensor - EC5 (S-SMC-M005)	2019-09-04T21:00:01	0.00	16.844	89.200	0.6104	15.1
2795	AB07CD0350	WETLAND SAL01	SALINE (FEN)	56.573903999999998859493643976747989654541015625	-111.277773999999993748133420012891292572021484375	HOBO Rain Gauge Data Logger - RG3	HOBO Temperature/RH Smart Sensor (S-THB-M002)	Soil Moisture Smart Sensor - EC5 (S-SMC-M005)	2019-09-04T22:00:01	1.00	15.748	87.400	0.6104	13.7
2796	AB07CD0350	WETLAND SAL01	SALINE (FEN)	56.573903999999998859493643976747989654541015625	-111.277773999999993748133420012891292572021484375	HOBO Rain Gauge Data Logger - RG3	HOBO Temperature/RH Smart Sensor (S-THB-M002)	Soil Moisture Smart Sensor - EC5 (S-SMC-M005)	2019-09-04T23:00:01	0.20	13.858	91.800	0.6104	12.6
2797	AB07CD0350	WETLAND SAL01	SALINE (FEN)	56.573903999999998859493643976747989654541015625	-111.277773999999993748133420012891292572021484375	HOBO Rain Gauge Data Logger - RG3	HOBO Temperature/RH Smart Sensor (S-THB-M002)	Soil Moisture Smart Sensor - EC5 (S-SMC-M005)	2019-09-05T00:00:01	0.00	14.792	93.400	0.6104	13.8
2798	AB07CD0350	WETLAND SAL01	SALINE (FEN)	56.573903999999998859493643976747989654541015625	-111.277773999999993748133420012891292572021484375	HOBO Rain Gauge Data Logger - RG3	HOBO Temperature/RH Smart Sensor (S-THB-M002)	Soil Moisture Smart Sensor - EC5 (S-SMC-M005)	2019-09-05T01:00:01	0.00	14.745	92.100	0.6104	13.5
2799	AB07CD0350	WETLAND SAL01	SALINE (FEN)	56.573903999999998859493643976747989654541015625	-111.277773999999993748133420012891292572021484375	HOBO Rain Gauge Data Logger - RG3	HOBO Temperature/RH Smart Sensor (S-THB-M002)	Soil Moisture Smart Sensor - EC5 (S-SMC-M005)	2019-09-05T02:00:01	0.60	13.088	93.800	0.6104	12.1
2800	AB07CD0350	WETLAND SAL01	SALINE (FEN)	56.573903999999998859493643976747989654541015625	-111.277773999999993748133420012891292572021484375	HOBO Rain Gauge Data Logger - RG3	HOBO Temperature/RH Smart Sensor (S-THB-M002)	Soil Moisture Smart Sensor - EC5 (S-SMC-M005)	2019-09-05T03:00:01	0.20	12.775	93.700	0.6104	11.8
2801	AB07CD0350	WETLAND SAL01	SALINE (FEN)	56.573903999999998859493643976747989654541015625	-111.277773999999993748133420012891292572021484375	HOBO Rain Gauge Data Logger - RG3	HOBO Temperature/RH Smart Sensor (S-THB-M002)	Soil Moisture Smart Sensor - EC5 (S-SMC-M005)	2019-09-05T04:00:01	0.00	13.088	91.500	0.6111	11.8
2802	AB07CD0350	WETLAND SAL01	SALINE (FEN)	56.573903999999998859493643976747989654541015625	-111.277773999999993748133420012891292572021484375	HOBO Rain Gauge Data Logger - RG3	HOBO Temperature/RH Smart Sensor (S-THB-M002)	Soil Moisture Smart Sensor - EC5 (S-SMC-M005)	2019-09-05T05:00:01	0.00	12.896	89.700	0.6111	11.3
2803	AB07CD0350	WETLAND SAL01	SALINE (FEN)	56.573903999999998859493643976747989654541015625	-111.277773999999993748133420012891292572021484375	HOBO Rain Gauge Data Logger - RG3	HOBO Temperature/RH Smart Sensor (S-THB-M002)	Soil Moisture Smart Sensor - EC5 (S-SMC-M005)	2019-09-05T06:00:01	0.00	12.437	90.900	0.6111	11.0
2804	AB07CD0350	WETLAND SAL01	SALINE (FEN)	56.573903999999998859493643976747989654541015625	-111.277773999999993748133420012891292572021484375	HOBO Rain Gauge Data Logger - RG3	HOBO Temperature/RH Smart Sensor (S-THB-M002)	Soil Moisture Smart Sensor - EC5 (S-SMC-M005)	2019-09-05T07:00:01	0.00	12.340	90.800	0.6111	10.9
2805	AB07CD0350	WETLAND SAL01	SALINE (FEN)	56.573903999999998859493643976747989654541015625	-111.277773999999993748133420012891292572021484375	HOBO Rain Gauge Data Logger - RG3	HOBO Temperature/RH Smart Sensor (S-THB-M002)	Soil Moisture Smart Sensor - EC5 (S-SMC-M005)	2019-09-05T08:00:01	0.00	12.606	90.100	0.6111	11.0
2806	AB07CD0350	WETLAND SAL01	SALINE (FEN)	56.573903999999998859493643976747989654541015625	-111.277773999999993748133420012891292572021484375	HOBO Rain Gauge Data Logger - RG3	HOBO Temperature/RH Smart Sensor (S-THB-M002)	Soil Moisture Smart Sensor - EC5 (S-SMC-M005)	2019-09-05T09:00:01	0.00	14.002	87.400	0.6111	12.0
2807	AB07CD0350	WETLAND SAL01	SALINE (FEN)	56.573903999999998859493643976747989654541015625	-111.277773999999993748133420012891292572021484375	HOBO Rain Gauge Data Logger - RG3	HOBO Temperature/RH Smart Sensor (S-THB-M002)	Soil Moisture Smart Sensor - EC5 (S-SMC-M005)	2019-09-05T10:00:01	0.00	15.438	80.900	0.6111	12.2
2808	AB07CD0350	WETLAND SAL01	SALINE (FEN)	56.573903999999998859493643976747989654541015625	-111.277773999999993748133420012891292572021484375	HOBO Rain Gauge Data Logger - RG3	HOBO Temperature/RH Smart Sensor (S-THB-M002)	Soil Moisture Smart Sensor - EC5 (S-SMC-M005)	2019-09-05T11:00:01	0.00	15.438	76.900	0.6111	11.4
2809	AB07CD0350	WETLAND SAL01	SALINE (FEN)	56.573903999999998859493643976747989654541015625	-111.277773999999993748133420012891292572021484375	HOBO Rain Gauge Data Logger - RG3	HOBO Temperature/RH Smart Sensor (S-THB-M002)	Soil Moisture Smart Sensor - EC5 (S-SMC-M005)	2019-09-05T12:00:01	0.00	17.153	72.000	0.6111	12.1
2810	AB07CD0350	WETLAND SAL01	SALINE (FEN)	56.573903999999998859493643976747989654541015625	-111.277773999999993748133420012891292572021484375	HOBO Rain Gauge Data Logger - RG3	HOBO Temperature/RH Smart Sensor (S-THB-M002)	Soil Moisture Smart Sensor - EC5 (S-SMC-M005)	2019-09-05T13:00:01	0.00	18.319	66.900	0.6111	12.1
2811	AB07CD0350	WETLAND SAL01	SALINE (FEN)	56.573903999999998859493643976747989654541015625	-111.277773999999993748133420012891292572021484375	HOBO Rain Gauge Data Logger - RG3	HOBO Temperature/RH Smart Sensor (S-THB-M002)	Soil Moisture Smart Sensor - EC5 (S-SMC-M005)	2019-09-05T14:00:01	0.00	19.793	61.500	0.6111	12.2
2812	AB07CD0350	WETLAND SAL01	SALINE (FEN)	56.573903999999998859493643976747989654541015625	-111.277773999999993748133420012891292572021484375	HOBO Rain Gauge Data Logger - RG3	HOBO Temperature/RH Smart Sensor (S-THB-M002)	Soil Moisture Smart Sensor - EC5 (S-SMC-M005)	2019-09-05T15:00:01	0.00	20.365	55.400	0.6111	11.2
2813	AB07CD0350	WETLAND SAL01	SALINE (FEN)	56.573903999999998859493643976747989654541015625	-111.277773999999993748133420012891292572021484375	HOBO Rain Gauge Data Logger - RG3	HOBO Temperature/RH Smart Sensor (S-THB-M002)	Soil Moisture Smart Sensor - EC5 (S-SMC-M005)	2019-09-05T16:00:01	0.00	21.294	48.700	0.6104	10.1
2814	AB07CD0350	WETLAND SAL01	SALINE (FEN)	56.573903999999998859493643976747989654541015625	-111.277773999999993748133420012891292572021484375	HOBO Rain Gauge Data Logger - RG3	HOBO Temperature/RH Smart Sensor (S-THB-M002)	Soil Moisture Smart Sensor - EC5 (S-SMC-M005)	2019-09-05T17:00:01	0.00	20.603	45.000	0.6111	8.3
2815	AB07CD0350	WETLAND SAL01	SALINE (FEN)	56.573903999999998859493643976747989654541015625	-111.277773999999993748133420012891292572021484375	HOBO Rain Gauge Data Logger - RG3	HOBO Temperature/RH Smart Sensor (S-THB-M002)	Soil Moisture Smart Sensor - EC5 (S-SMC-M005)	2019-09-05T18:00:01	0.00	20.174	43.700	0.6111	7.5
2816	AB07CD0350	WETLAND SAL01	SALINE (FEN)	56.573903999999998859493643976747989654541015625	-111.277773999999993748133420012891292572021484375	HOBO Rain Gauge Data Logger - RG3	HOBO Temperature/RH Smart Sensor (S-THB-M002)	Soil Moisture Smart Sensor - EC5 (S-SMC-M005)	2019-09-05T19:00:01	0.00	17.368	48.600	0.6111	6.4
2817	AB07CD0350	WETLAND SAL01	SALINE (FEN)	56.573903999999998859493643976747989654541015625	-111.277773999999993748133420012891292572021484375	HOBO Rain Gauge Data Logger - RG3	HOBO Temperature/RH Smart Sensor (S-THB-M002)	Soil Moisture Smart Sensor - EC5 (S-SMC-M005)	2019-09-05T20:00:01	0.00	14.194	63.200	0.6111	7.3
2818	AB07CD0350	WETLAND SAL01	SALINE (FEN)	56.573903999999998859493643976747989654541015625	-111.277773999999993748133420012891292572021484375	HOBO Rain Gauge Data Logger - RG3	HOBO Temperature/RH Smart Sensor (S-THB-M002)	Soil Moisture Smart Sensor - EC5 (S-SMC-M005)	2019-09-05T21:00:01	0.00	12.122	70.500	0.6111	6.9
2819	AB07CD0350	WETLAND SAL01	SALINE (FEN)	56.573903999999998859493643976747989654541015625	-111.277773999999993748133420012891292572021484375	HOBO Rain Gauge Data Logger - RG3	HOBO Temperature/RH Smart Sensor (S-THB-M002)	Soil Moisture Smart Sensor - EC5 (S-SMC-M005)	2019-09-05T22:00:01	0.00	7.920	81.600	0.6111	5.0
2820	AB07CD0350	WETLAND SAL01	SALINE (FEN)	56.573903999999998859493643976747989654541015625	-111.277773999999993748133420012891292572021484375	HOBO Rain Gauge Data Logger - RG3	HOBO Temperature/RH Smart Sensor (S-THB-M002)	Soil Moisture Smart Sensor - EC5 (S-SMC-M005)	2019-09-05T23:00:01	0.00	6.611	89.700	0.6111	5.0
2821	AB07CD0350	WETLAND SAL01	SALINE (FEN)	56.573903999999998859493643976747989654541015625	-111.277773999999993748133420012891292572021484375	HOBO Rain Gauge Data Logger - RG3	HOBO Temperature/RH Smart Sensor (S-THB-M002)	Soil Moisture Smart Sensor - EC5 (S-SMC-M005)	2019-09-06T00:00:01	0.00	4.818	91.700	0.6111	3.6
2822	AB07CD0350	WETLAND SAL01	SALINE (FEN)	56.573903999999998859493643976747989654541015625	-111.277773999999993748133420012891292572021484375	HOBO Rain Gauge Data Logger - RG3	HOBO Temperature/RH Smart Sensor (S-THB-M002)	Soil Moisture Smart Sensor - EC5 (S-SMC-M005)	2019-09-06T01:00:01	0.00	4.921	93.000	0.6111	3.9
2823	AB07CD0350	WETLAND SAL01	SALINE (FEN)	56.573903999999998859493643976747989654541015625	-111.277773999999993748133420012891292572021484375	HOBO Rain Gauge Data Logger - RG3	HOBO Temperature/RH Smart Sensor (S-THB-M002)	Soil Moisture Smart Sensor - EC5 (S-SMC-M005)	2019-09-06T02:00:01	0.00	4.558	93.900	0.6119	3.7
2824	AB07CD0350	WETLAND SAL01	SALINE (FEN)	56.573903999999998859493643976747989654541015625	-111.277773999999993748133420012891292572021484375	HOBO Rain Gauge Data Logger - RG3	HOBO Temperature/RH Smart Sensor (S-THB-M002)	Soil Moisture Smart Sensor - EC5 (S-SMC-M005)	2019-09-06T03:00:01	0.00	4.506	94.700	0.6119	3.7
2825	AB07CD0350	WETLAND SAL01	SALINE (FEN)	56.573903999999998859493643976747989654541015625	-111.277773999999993748133420012891292572021484375	HOBO Rain Gauge Data Logger - RG3	HOBO Temperature/RH Smart Sensor (S-THB-M002)	Soil Moisture Smart Sensor - EC5 (S-SMC-M005)	2019-09-06T04:00:01	0.00	3.749	95.100	0.6119	3.0
2826	AB07CD0350	WETLAND SAL01	SALINE (FEN)	56.573903999999998859493643976747989654541015625	-111.277773999999993748133420012891292572021484375	HOBO Rain Gauge Data Logger - RG3	HOBO Temperature/RH Smart Sensor (S-THB-M002)	Soil Moisture Smart Sensor - EC5 (S-SMC-M005)	2019-09-06T05:00:01	0.00	5.308	96.000	0.6119	4.7
2827	AB07CD0350	WETLAND SAL01	SALINE (FEN)	56.573903999999998859493643976747989654541015625	-111.277773999999993748133420012891292572021484375	HOBO Rain Gauge Data Logger - RG3	HOBO Temperature/RH Smart Sensor (S-THB-M002)	Soil Moisture Smart Sensor - EC5 (S-SMC-M005)	2019-09-06T06:00:01	0.00	5.231	95.500	0.6119	4.6
2828	AB07CD0350	WETLAND SAL01	SALINE (FEN)	56.573903999999998859493643976747989654541015625	-111.277773999999993748133420012891292572021484375	HOBO Rain Gauge Data Logger - RG3	HOBO Temperature/RH Smart Sensor (S-THB-M002)	Soil Moisture Smart Sensor - EC5 (S-SMC-M005)	2019-09-06T07:00:01	0.00	5.076	95.500	0.6119	4.4
2829	AB07CD0350	WETLAND SAL01	SALINE (FEN)	56.573903999999998859493643976747989654541015625	-111.277773999999993748133420012891292572021484375	HOBO Rain Gauge Data Logger - RG3	HOBO Temperature/RH Smart Sensor (S-THB-M002)	Soil Moisture Smart Sensor - EC5 (S-SMC-M005)	2019-09-06T08:00:01	0.00	7.820	93.800	0.6111	6.9
2830	AB07CD0350	WETLAND SAL01	SALINE (FEN)	56.573903999999998859493643976747989654541015625	-111.277773999999993748133420012891292572021484375	HOBO Rain Gauge Data Logger - RG3	HOBO Temperature/RH Smart Sensor (S-THB-M002)	Soil Moisture Smart Sensor - EC5 (S-SMC-M005)	2019-09-06T09:00:01	0.00	10.296	89.200	0.6111	8.6
2831	AB07CD0350	WETLAND SAL01	SALINE (FEN)	56.573903999999998859493643976747989654541015625	-111.277773999999993748133420012891292572021484375	HOBO Rain Gauge Data Logger - RG3	HOBO Temperature/RH Smart Sensor (S-THB-M002)	Soil Moisture Smart Sensor - EC5 (S-SMC-M005)	2019-09-06T10:00:01	0.00	12.147	84.300	0.6111	9.6
2832	AB07CD0350	WETLAND SAL01	SALINE (FEN)	56.573903999999998859493643976747989654541015625	-111.277773999999993748133420012891292572021484375	HOBO Rain Gauge Data Logger - RG3	HOBO Temperature/RH Smart Sensor (S-THB-M002)	Soil Moisture Smart Sensor - EC5 (S-SMC-M005)	2019-09-06T11:00:01	0.00	14.697	77.100	0.6111	10.7
2833	AB07CD0350	WETLAND SAL01	SALINE (FEN)	56.573903999999998859493643976747989654541015625	-111.277773999999993748133420012891292572021484375	HOBO Rain Gauge Data Logger - RG3	HOBO Temperature/RH Smart Sensor (S-THB-M002)	Soil Moisture Smart Sensor - EC5 (S-SMC-M005)	2019-09-06T12:00:01	0.00	16.630	69.300	0.6111	11.0
2834	AB07CD0350	WETLAND SAL01	SALINE (FEN)	56.573903999999998859493643976747989654541015625	-111.277773999999993748133420012891292572021484375	HOBO Rain Gauge Data Logger - RG3	HOBO Temperature/RH Smart Sensor (S-THB-M002)	Soil Moisture Smart Sensor - EC5 (S-SMC-M005)	2019-09-06T13:00:01	0.00	17.796	61.800	0.6111	10.4
2835	AB07CD0350	WETLAND SAL01	SALINE (FEN)	56.573903999999998859493643976747989654541015625	-111.277773999999993748133420012891292572021484375	HOBO Rain Gauge Data Logger - RG3	HOBO Temperature/RH Smart Sensor (S-THB-M002)	Soil Moisture Smart Sensor - EC5 (S-SMC-M005)	2019-09-06T14:00:01	0.00	18.842	55.000	0.6111	9.6
2836	AB07CD0350	WETLAND SAL01	SALINE (FEN)	56.573903999999998859493643976747989654541015625	-111.277773999999993748133420012891292572021484375	HOBO Rain Gauge Data Logger - RG3	HOBO Temperature/RH Smart Sensor (S-THB-M002)	Soil Moisture Smart Sensor - EC5 (S-SMC-M005)	2019-09-06T15:00:01	0.00	18.937	50.400	0.6104	8.4
2837	AB07CD0350	WETLAND SAL01	SALINE (FEN)	56.573903999999998859493643976747989654541015625	-111.277773999999993748133420012891292572021484375	HOBO Rain Gauge Data Logger - RG3	HOBO Temperature/RH Smart Sensor (S-THB-M002)	Soil Moisture Smart Sensor - EC5 (S-SMC-M005)	2019-09-06T16:00:01	0.00	20.007	47.800	0.6104	8.6
2838	AB07CD0350	WETLAND SAL01	SALINE (FEN)	56.573903999999998859493643976747989654541015625	-111.277773999999993748133420012891292572021484375	HOBO Rain Gauge Data Logger - RG3	HOBO Temperature/RH Smart Sensor (S-THB-M002)	Soil Moisture Smart Sensor - EC5 (S-SMC-M005)	2019-09-06T17:00:01	0.00	19.532	45.000	0.6104	7.3
2839	AB07CD0350	WETLAND SAL01	SALINE (FEN)	56.573903999999998859493643976747989654541015625	-111.277773999999993748133420012891292572021484375	HOBO Rain Gauge Data Logger - RG3	HOBO Temperature/RH Smart Sensor (S-THB-M002)	Soil Moisture Smart Sensor - EC5 (S-SMC-M005)	2019-09-06T18:00:01	0.00	18.937	42.400	0.6104	5.9
2840	AB07CD0350	WETLAND SAL01	SALINE (FEN)	56.573903999999998859493643976747989654541015625	-111.277773999999993748133420012891292572021484375	HOBO Rain Gauge Data Logger - RG3	HOBO Temperature/RH Smart Sensor (S-THB-M002)	Soil Moisture Smart Sensor - EC5 (S-SMC-M005)	2019-09-06T19:00:01	0.00	16.820	53.000	0.6104	7.2
2841	AB07CD0350	WETLAND SAL01	SALINE (FEN)	56.573903999999998859493643976747989654541015625	-111.277773999999993748133420012891292572021484375	HOBO Rain Gauge Data Logger - RG3	HOBO Temperature/RH Smart Sensor (S-THB-M002)	Soil Moisture Smart Sensor - EC5 (S-SMC-M005)	2019-09-06T20:00:01	0.00	14.457	65.100	0.6104	8.0
2842	AB07CD0350	WETLAND SAL01	SALINE (FEN)	56.573903999999998859493643976747989654541015625	-111.277773999999993748133420012891292572021484375	HOBO Rain Gauge Data Logger - RG3	HOBO Temperature/RH Smart Sensor (S-THB-M002)	Soil Moisture Smart Sensor - EC5 (S-SMC-M005)	2019-09-06T21:00:01	0.00	12.534	79.000	0.6104	9.0
2843	AB07CD0350	WETLAND SAL01	SALINE (FEN)	56.573903999999998859493643976747989654541015625	-111.277773999999993748133420012891292572021484375	HOBO Rain Gauge Data Logger - RG3	HOBO Temperature/RH Smart Sensor (S-THB-M002)	Soil Moisture Smart Sensor - EC5 (S-SMC-M005)	2019-09-06T22:00:01	0.00	13.666	76.100	0.6104	9.5
2844	AB07CD0350	WETLAND SAL01	SALINE (FEN)	56.573903999999998859493643976747989654541015625	-111.277773999999993748133420012891292572021484375	HOBO Rain Gauge Data Logger - RG3	HOBO Temperature/RH Smart Sensor (S-THB-M002)	Soil Moisture Smart Sensor - EC5 (S-SMC-M005)	2019-09-06T23:00:01	0.00	13.185	72.400	0.6104	8.3
2845	AB07CD0350	WETLAND SAL01	SALINE (FEN)	56.573903999999998859493643976747989654541015625	-111.277773999999993748133420012891292572021484375	HOBO Rain Gauge Data Logger - RG3	HOBO Temperature/RH Smart Sensor (S-THB-M002)	Soil Moisture Smart Sensor - EC5 (S-SMC-M005)	2019-09-07T00:00:01	0.00	13.546	69.300	0.6104	8.0
2846	AB07CD0350	WETLAND SAL01	SALINE (FEN)	56.573903999999998859493643976747989654541015625	-111.277773999999993748133420012891292572021484375	HOBO Rain Gauge Data Logger - RG3	HOBO Temperature/RH Smart Sensor (S-THB-M002)	Soil Moisture Smart Sensor - EC5 (S-SMC-M005)	2019-09-07T01:00:01	0.00	13.233	71.000	0.6104	8.1
2847	AB07CD0350	WETLAND SAL01	SALINE (FEN)	56.573903999999998859493643976747989654541015625	-111.277773999999993748133420012891292572021484375	HOBO Rain Gauge Data Logger - RG3	HOBO Temperature/RH Smart Sensor (S-THB-M002)	Soil Moisture Smart Sensor - EC5 (S-SMC-M005)	2019-09-07T02:00:01	0.00	12.630	74.500	0.6104	8.2
2848	AB07CD0350	WETLAND SAL01	SALINE (FEN)	56.573903999999998859493643976747989654541015625	-111.277773999999993748133420012891292572021484375	HOBO Rain Gauge Data Logger - RG3	HOBO Temperature/RH Smart Sensor (S-THB-M002)	Soil Moisture Smart Sensor - EC5 (S-SMC-M005)	2019-09-07T03:00:01	0.00	11.370	81.500	0.6104	8.3
2849	AB07CD0350	WETLAND SAL01	SALINE (FEN)	56.573903999999998859493643976747989654541015625	-111.277773999999993748133420012891292572021484375	HOBO Rain Gauge Data Logger - RG3	HOBO Temperature/RH Smart Sensor (S-THB-M002)	Soil Moisture Smart Sensor - EC5 (S-SMC-M005)	2019-09-07T04:00:01	0.00	10.590	87.000	0.6111	8.5
2850	AB07CD0350	WETLAND SAL01	SALINE (FEN)	56.573903999999998859493643976747989654541015625	-111.277773999999993748133420012891292572021484375	HOBO Rain Gauge Data Logger - RG3	HOBO Temperature/RH Smart Sensor (S-THB-M002)	Soil Moisture Smart Sensor - EC5 (S-SMC-M005)	2019-09-07T05:00:01	0.00	11.102	87.200	0.6104	9.1
2851	AB07CD0350	WETLAND SAL01	SALINE (FEN)	56.573903999999998859493643976747989654541015625	-111.277773999999993748133420012891292572021484375	HOBO Rain Gauge Data Logger - RG3	HOBO Temperature/RH Smart Sensor (S-THB-M002)	Soil Moisture Smart Sensor - EC5 (S-SMC-M005)	2019-09-07T06:00:01	0.00	10.345	87.200	0.6104	8.3
2852	AB07CD0350	WETLAND SAL01	SALINE (FEN)	56.573903999999998859493643976747989654541015625	-111.277773999999993748133420012891292572021484375	HOBO Rain Gauge Data Logger - RG3	HOBO Temperature/RH Smart Sensor (S-THB-M002)	Soil Moisture Smart Sensor - EC5 (S-SMC-M005)	2019-09-07T07:00:01	0.00	10.394	90.100	0.6111	8.9
2853	AB07CD0350	WETLAND SAL01	SALINE (FEN)	56.573903999999998859493643976747989654541015625	-111.277773999999993748133420012891292572021484375	HOBO Rain Gauge Data Logger - RG3	HOBO Temperature/RH Smart Sensor (S-THB-M002)	Soil Moisture Smart Sensor - EC5 (S-SMC-M005)	2019-09-07T08:00:01	0.20	10.785	90.600	0.6111	9.3
2854	AB07CD0350	WETLAND SAL01	SALINE (FEN)	56.573903999999998859493643976747989654541015625	-111.277773999999993748133420012891292572021484375	HOBO Rain Gauge Data Logger - RG3	HOBO Temperature/RH Smart Sensor (S-THB-M002)	Soil Moisture Smart Sensor - EC5 (S-SMC-M005)	2019-09-07T09:00:01	1.20	11.370	93.500	0.6111	10.4
2855	AB07CD0350	WETLAND SAL01	SALINE (FEN)	56.573903999999998859493643976747989654541015625	-111.277773999999993748133420012891292572021484375	HOBO Rain Gauge Data Logger - RG3	HOBO Temperature/RH Smart Sensor (S-THB-M002)	Soil Moisture Smart Sensor - EC5 (S-SMC-M005)	2019-09-07T10:00:01	1.00	11.734	95.400	0.6111	11.0
2856	AB07CD0350	WETLAND SAL01	SALINE (FEN)	56.573903999999998859493643976747989654541015625	-111.277773999999993748133420012891292572021484375	HOBO Rain Gauge Data Logger - RG3	HOBO Temperature/RH Smart Sensor (S-THB-M002)	Soil Moisture Smart Sensor - EC5 (S-SMC-M005)	2019-09-07T11:00:01	0.80	11.734	95.800	0.6111	11.1
2857	AB07CD0350	WETLAND SAL01	SALINE (FEN)	56.573903999999998859493643976747989654541015625	-111.277773999999993748133420012891292572021484375	HOBO Rain Gauge Data Logger - RG3	HOBO Temperature/RH Smart Sensor (S-THB-M002)	Soil Moisture Smart Sensor - EC5 (S-SMC-M005)	2019-09-07T12:00:01	1.40	12.098	96.700	0.6111	11.6
2858	AB07CD0350	WETLAND SAL01	SALINE (FEN)	56.573903999999998859493643976747989654541015625	-111.277773999999993748133420012891292572021484375	HOBO Rain Gauge Data Logger - RG3	HOBO Temperature/RH Smart Sensor (S-THB-M002)	Soil Moisture Smart Sensor - EC5 (S-SMC-M005)	2019-09-07T13:00:01	1.00	11.734	96.900	0.6104	11.3
2859	AB07CD0350	WETLAND SAL01	SALINE (FEN)	56.573903999999998859493643976747989654541015625	-111.277773999999993748133420012891292572021484375	HOBO Rain Gauge Data Logger - RG3	HOBO Temperature/RH Smart Sensor (S-THB-M002)	Soil Moisture Smart Sensor - EC5 (S-SMC-M005)	2019-09-07T14:00:01	1.20	11.734	97.300	0.6104	11.3
2860	AB07CD0350	WETLAND SAL01	SALINE (FEN)	56.573903999999998859493643976747989654541015625	-111.277773999999993748133420012891292572021484375	HOBO Rain Gauge Data Logger - RG3	HOBO Temperature/RH Smart Sensor (S-THB-M002)	Soil Moisture Smart Sensor - EC5 (S-SMC-M005)	2019-09-07T15:00:01	0.60	11.880	97.400	0.6104	11.5
2861	AB07CD0350	WETLAND SAL01	SALINE (FEN)	56.573903999999998859493643976747989654541015625	-111.277773999999993748133420012891292572021484375	HOBO Rain Gauge Data Logger - RG3	HOBO Temperature/RH Smart Sensor (S-THB-M002)	Soil Moisture Smart Sensor - EC5 (S-SMC-M005)	2019-09-07T16:00:01	0.40	12.025	97.100	0.6104	11.6
2862	AB07CD0350	WETLAND SAL01	SALINE (FEN)	56.573903999999998859493643976747989654541015625	-111.277773999999993748133420012891292572021484375	HOBO Rain Gauge Data Logger - RG3	HOBO Temperature/RH Smart Sensor (S-THB-M002)	Soil Moisture Smart Sensor - EC5 (S-SMC-M005)	2019-09-07T17:00:01	0.00	12.219	96.200	0.6104	11.6
2863	AB07CD0350	WETLAND SAL01	SALINE (FEN)	56.573903999999998859493643976747989654541015625	-111.277773999999993748133420012891292572021484375	HOBO Rain Gauge Data Logger - RG3	HOBO Temperature/RH Smart Sensor (S-THB-M002)	Soil Moisture Smart Sensor - EC5 (S-SMC-M005)	2019-09-07T18:00:01	0.00	12.268	95.000	0.6104	11.5
2864	AB07CD0350	WETLAND SAL01	SALINE (FEN)	56.573903999999998859493643976747989654541015625	-111.277773999999993748133420012891292572021484375	HOBO Rain Gauge Data Logger - RG3	HOBO Temperature/RH Smart Sensor (S-THB-M002)	Soil Moisture Smart Sensor - EC5 (S-SMC-M005)	2019-09-07T19:00:01	0.20	11.832	95.900	0.6104	11.2
2865	AB07CD0350	WETLAND SAL01	SALINE (FEN)	56.573903999999998859493643976747989654541015625	-111.277773999999993748133420012891292572021484375	HOBO Rain Gauge Data Logger - RG3	HOBO Temperature/RH Smart Sensor (S-THB-M002)	Soil Moisture Smart Sensor - EC5 (S-SMC-M005)	2019-09-07T20:00:01	0.40	11.686	97.600	0.6104	11.3
2866	AB07CD0350	WETLAND SAL01	SALINE (FEN)	56.573903999999998859493643976747989654541015625	-111.277773999999993748133420012891292572021484375	HOBO Rain Gauge Data Logger - RG3	HOBO Temperature/RH Smart Sensor (S-THB-M002)	Soil Moisture Smart Sensor - EC5 (S-SMC-M005)	2019-09-07T21:00:01	0.00	11.443	97.100	0.6104	11.0
2867	AB07CD0350	WETLAND SAL01	SALINE (FEN)	56.573903999999998859493643976747989654541015625	-111.277773999999993748133420012891292572021484375	HOBO Rain Gauge Data Logger - RG3	HOBO Temperature/RH Smart Sensor (S-THB-M002)	Soil Moisture Smart Sensor - EC5 (S-SMC-M005)	2019-09-07T22:00:01	0.00	10.980	96.900	0.6104	10.5
2868	AB07CD0350	WETLAND SAL01	SALINE (FEN)	56.573903999999998859493643976747989654541015625	-111.277773999999993748133420012891292572021484375	HOBO Rain Gauge Data Logger - RG3	HOBO Temperature/RH Smart Sensor (S-THB-M002)	Soil Moisture Smart Sensor - EC5 (S-SMC-M005)	2019-09-07T23:00:01	0.00	10.785	97.400	0.6104	10.4
2869	AB07CD0350	WETLAND SAL01	SALINE (FEN)	56.573903999999998859493643976747989654541015625	-111.277773999999993748133420012891292572021484375	HOBO Rain Gauge Data Logger - RG3	HOBO Temperature/RH Smart Sensor (S-THB-M002)	Soil Moisture Smart Sensor - EC5 (S-SMC-M005)	2019-09-08T00:00:01	0.00	10.736	97.500	0.6104	10.4
2870	AB07CD0350	WETLAND SAL01	SALINE (FEN)	56.573903999999998859493643976747989654541015625	-111.277773999999993748133420012891292572021484375	HOBO Rain Gauge Data Logger - RG3	HOBO Temperature/RH Smart Sensor (S-THB-M002)	Soil Moisture Smart Sensor - EC5 (S-SMC-M005)	2019-09-08T01:00:01	0.00	10.590	97.600	0.6104	10.2
2871	AB07CD0350	WETLAND SAL01	SALINE (FEN)	56.573903999999998859493643976747989654541015625	-111.277773999999993748133420012891292572021484375	HOBO Rain Gauge Data Logger - RG3	HOBO Temperature/RH Smart Sensor (S-THB-M002)	Soil Moisture Smart Sensor - EC5 (S-SMC-M005)	2019-09-08T02:00:01	0.00	10.516	97.800	0.6104	10.2
2872	AB07CD0350	WETLAND SAL01	SALINE (FEN)	56.573903999999998859493643976747989654541015625	-111.277773999999993748133420012891292572021484375	HOBO Rain Gauge Data Logger - RG3	HOBO Temperature/RH Smart Sensor (S-THB-M002)	Soil Moisture Smart Sensor - EC5 (S-SMC-M005)	2019-09-08T03:00:01	0.00	10.222	97.800	0.6104	9.9
2873	AB07CD0350	WETLAND SAL01	SALINE (FEN)	56.573903999999998859493643976747989654541015625	-111.277773999999993748133420012891292572021484375	HOBO Rain Gauge Data Logger - RG3	HOBO Temperature/RH Smart Sensor (S-THB-M002)	Soil Moisture Smart Sensor - EC5 (S-SMC-M005)	2019-09-08T04:00:01	0.00	9.952	97.800	0.6104	9.6
2874	AB07CD0350	WETLAND SAL01	SALINE (FEN)	56.573903999999998859493643976747989654541015625	-111.277773999999993748133420012891292572021484375	HOBO Rain Gauge Data Logger - RG3	HOBO Temperature/RH Smart Sensor (S-THB-M002)	Soil Moisture Smart Sensor - EC5 (S-SMC-M005)	2019-09-08T05:00:01	0.00	9.854	97.500	0.6104	9.5
2875	AB07CD0350	WETLAND SAL01	SALINE (FEN)	56.573903999999998859493643976747989654541015625	-111.277773999999993748133420012891292572021484375	HOBO Rain Gauge Data Logger - RG3	HOBO Temperature/RH Smart Sensor (S-THB-M002)	Soil Moisture Smart Sensor - EC5 (S-SMC-M005)	2019-09-08T06:00:01	0.00	9.780	97.300	0.6104	9.4
2876	AB07CD0350	WETLAND SAL01	SALINE (FEN)	56.573903999999998859493643976747989654541015625	-111.277773999999993748133420012891292572021484375	HOBO Rain Gauge Data Logger - RG3	HOBO Temperature/RH Smart Sensor (S-THB-M002)	Soil Moisture Smart Sensor - EC5 (S-SMC-M005)	2019-09-08T07:00:01	0.00	9.682	97.600	0.6104	9.3
2877	AB07CD0350	WETLAND SAL01	SALINE (FEN)	56.573903999999998859493643976747989654541015625	-111.277773999999993748133420012891292572021484375	HOBO Rain Gauge Data Logger - RG3	HOBO Temperature/RH Smart Sensor (S-THB-M002)	Soil Moisture Smart Sensor - EC5 (S-SMC-M005)	2019-09-08T08:00:01	0.00	9.608	98.100	0.6097	9.3
2878	AB07CD0350	WETLAND SAL01	SALINE (FEN)	56.573903999999998859493643976747989654541015625	-111.277773999999993748133420012891292572021484375	HOBO Rain Gauge Data Logger - RG3	HOBO Temperature/RH Smart Sensor (S-THB-M002)	Soil Moisture Smart Sensor - EC5 (S-SMC-M005)	2019-09-08T09:00:01	0.00	10.026	98.100	0.6097	9.8
2879	AB07CD0350	WETLAND SAL01	SALINE (FEN)	56.573903999999998859493643976747989654541015625	-111.277773999999993748133420012891292572021484375	HOBO Rain Gauge Data Logger - RG3	HOBO Temperature/RH Smart Sensor (S-THB-M002)	Soil Moisture Smart Sensor - EC5 (S-SMC-M005)	2019-09-08T10:00:01	0.00	10.565	97.200	0.6097	10.2
2880	AB07CD0350	WETLAND SAL01	SALINE (FEN)	56.573903999999998859493643976747989654541015625	-111.277773999999993748133420012891292572021484375	HOBO Rain Gauge Data Logger - RG3	HOBO Temperature/RH Smart Sensor (S-THB-M002)	Soil Moisture Smart Sensor - EC5 (S-SMC-M005)	2019-09-08T11:00:01	0.00	10.883	96.400	0.6097	10.3
2881	AB07CD0350	WETLAND SAL01	SALINE (FEN)	56.573903999999998859493643976747989654541015625	-111.277773999999993748133420012891292572021484375	HOBO Rain Gauge Data Logger - RG3	HOBO Temperature/RH Smart Sensor (S-THB-M002)	Soil Moisture Smart Sensor - EC5 (S-SMC-M005)	2019-09-08T12:00:01	0.00	11.856	94.000	0.6097	10.9
2882	AB07CD0350	WETLAND SAL01	SALINE (FEN)	56.573903999999998859493643976747989654541015625	-111.277773999999993748133420012891292572021484375	HOBO Rain Gauge Data Logger - RG3	HOBO Temperature/RH Smart Sensor (S-THB-M002)	Soil Moisture Smart Sensor - EC5 (S-SMC-M005)	2019-09-08T13:00:01	0.00	12.195	89.300	0.6097	10.5
2883	AB07CD0350	WETLAND SAL01	SALINE (FEN)	56.573903999999998859493643976747989654541015625	-111.277773999999993748133420012891292572021484375	HOBO Rain Gauge Data Logger - RG3	HOBO Temperature/RH Smart Sensor (S-THB-M002)	Soil Moisture Smart Sensor - EC5 (S-SMC-M005)	2019-09-08T14:00:01	0.00	12.920	85.700	0.6097	10.6
2884	AB07CD0350	WETLAND SAL01	SALINE (FEN)	56.573903999999998859493643976747989654541015625	-111.277773999999993748133420012891292572021484375	HOBO Rain Gauge Data Logger - RG3	HOBO Temperature/RH Smart Sensor (S-THB-M002)	Soil Moisture Smart Sensor - EC5 (S-SMC-M005)	2019-09-08T15:00:01	0.00	13.377	80.200	0.6097	10.0
2885	AB07CD0350	WETLAND SAL01	SALINE (FEN)	56.573903999999998859493643976747989654541015625	-111.277773999999993748133420012891292572021484375	HOBO Rain Gauge Data Logger - RG3	HOBO Temperature/RH Smart Sensor (S-THB-M002)	Soil Moisture Smart Sensor - EC5 (S-SMC-M005)	2019-09-08T16:00:01	0.00	13.618	75.300	0.6097	9.3
2886	AB07CD0350	WETLAND SAL01	SALINE (FEN)	56.573903999999998859493643976747989654541015625	-111.277773999999993748133420012891292572021484375	HOBO Rain Gauge Data Logger - RG3	HOBO Temperature/RH Smart Sensor (S-THB-M002)	Soil Moisture Smart Sensor - EC5 (S-SMC-M005)	2019-09-08T17:00:01	0.00	13.185	74.000	0.6097	8.7
2887	AB07CD0350	WETLAND SAL01	SALINE (FEN)	56.573903999999998859493643976747989654541015625	-111.277773999999993748133420012891292572021484375	HOBO Rain Gauge Data Logger - RG3	HOBO Temperature/RH Smart Sensor (S-THB-M002)	Soil Moisture Smart Sensor - EC5 (S-SMC-M005)	2019-09-08T18:00:01	0.00	12.968	73.900	0.6097	8.4
2888	AB07CD0350	WETLAND SAL01	SALINE (FEN)	56.573903999999998859493643976747989654541015625	-111.277773999999993748133420012891292572021484375	HOBO Rain Gauge Data Logger - RG3	HOBO Temperature/RH Smart Sensor (S-THB-M002)	Soil Moisture Smart Sensor - EC5 (S-SMC-M005)	2019-09-08T19:00:01	0.00	12.509	76.700	0.6097	8.5
2889	AB07CD0350	WETLAND SAL01	SALINE (FEN)	56.573903999999998859493643976747989654541015625	-111.277773999999993748133420012891292572021484375	HOBO Rain Gauge Data Logger - RG3	HOBO Temperature/RH Smart Sensor (S-THB-M002)	Soil Moisture Smart Sensor - EC5 (S-SMC-M005)	2019-09-08T20:00:01	0.00	11.443	82.100	0.6089	8.5
2890	AB07CD0350	WETLAND SAL01	SALINE (FEN)	56.573903999999998859493643976747989654541015625	-111.277773999999993748133420012891292572021484375	HOBO Rain Gauge Data Logger - RG3	HOBO Temperature/RH Smart Sensor (S-THB-M002)	Soil Moisture Smart Sensor - EC5 (S-SMC-M005)	2019-09-08T21:00:01	0.00	8.469	89.100	0.6097	6.8
2891	AB07CD0350	WETLAND SAL01	SALINE (FEN)	56.573903999999998859493643976747989654541015625	-111.277773999999993748133420012891292572021484375	HOBO Rain Gauge Data Logger - RG3	HOBO Temperature/RH Smart Sensor (S-THB-M002)	Soil Moisture Smart Sensor - EC5 (S-SMC-M005)	2019-09-08T22:00:01	0.00	9.089	87.300	0.6097	7.1
2892	AB07CD0350	WETLAND SAL01	SALINE (FEN)	56.573903999999998859493643976747989654541015625	-111.277773999999993748133420012891292572021484375	HOBO Rain Gauge Data Logger - RG3	HOBO Temperature/RH Smart Sensor (S-THB-M002)	Soil Moisture Smart Sensor - EC5 (S-SMC-M005)	2019-09-08T23:00:01	0.00	9.064	80.100	0.6097	5.8
2893	AB07CD0350	WETLAND SAL01	SALINE (FEN)	56.573903999999998859493643976747989654541015625	-111.277773999999993748133420012891292572021484375	HOBO Rain Gauge Data Logger - RG3	HOBO Temperature/RH Smart Sensor (S-THB-M002)	Soil Moisture Smart Sensor - EC5 (S-SMC-M005)	2019-09-09T00:00:01	0.00	7.494	79.600	0.6097	4.2
2894	AB07CD0350	WETLAND SAL01	SALINE (FEN)	56.573903999999998859493643976747989654541015625	-111.277773999999993748133420012891292572021484375	HOBO Rain Gauge Data Logger - RG3	HOBO Temperature/RH Smart Sensor (S-THB-M002)	Soil Moisture Smart Sensor - EC5 (S-SMC-M005)	2019-09-09T01:00:01	0.00	7.870	81.900	0.6097	5.0
2895	AB07CD0350	WETLAND SAL01	SALINE (FEN)	56.573903999999998859493643976747989654541015625	-111.277773999999993748133420012891292572021484375	HOBO Rain Gauge Data Logger - RG3	HOBO Temperature/RH Smart Sensor (S-THB-M002)	Soil Moisture Smart Sensor - EC5 (S-SMC-M005)	2019-09-09T02:00:01	0.00	6.813	83.600	0.6097	4.2
2896	AB07CD0350	WETLAND SAL01	SALINE (FEN)	56.573903999999998859493643976747989654541015625	-111.277773999999993748133420012891292572021484375	HOBO Rain Gauge Data Logger - RG3	HOBO Temperature/RH Smart Sensor (S-THB-M002)	Soil Moisture Smart Sensor - EC5 (S-SMC-M005)	2019-09-09T03:00:01	0.00	6.509	84.500	0.6097	4.1
2897	AB07CD0350	WETLAND SAL01	SALINE (FEN)	56.573903999999998859493643976747989654541015625	-111.277773999999993748133420012891292572021484375	HOBO Rain Gauge Data Logger - RG3	HOBO Temperature/RH Smart Sensor (S-THB-M002)	Soil Moisture Smart Sensor - EC5 (S-SMC-M005)	2019-09-09T04:00:01	0.00	5.642	86.600	0.6097	3.6
2898	AB07CD0350	WETLAND SAL01	SALINE (FEN)	56.573903999999998859493643976747989654541015625	-111.277773999999993748133420012891292572021484375	HOBO Rain Gauge Data Logger - RG3	HOBO Temperature/RH Smart Sensor (S-THB-M002)	Soil Moisture Smart Sensor - EC5 (S-SMC-M005)	2019-09-09T05:00:01	0.00	5.462	89.000	0.6097	3.8
2899	AB07CD0350	WETLAND SAL01	SALINE (FEN)	56.573903999999998859493643976747989654541015625	-111.277773999999993748133420012891292572021484375	HOBO Rain Gauge Data Logger - RG3	HOBO Temperature/RH Smart Sensor (S-THB-M002)	Soil Moisture Smart Sensor - EC5 (S-SMC-M005)	2019-09-09T06:00:01	0.00	5.898	88.500	0.6097	4.1
2900	AB07CD0350	WETLAND SAL01	SALINE (FEN)	56.573903999999998859493643976747989654541015625	-111.277773999999993748133420012891292572021484375	HOBO Rain Gauge Data Logger - RG3	HOBO Temperature/RH Smart Sensor (S-THB-M002)	Soil Moisture Smart Sensor - EC5 (S-SMC-M005)	2019-09-09T07:00:01	0.00	5.642	88.300	0.6097	3.9
2901	AB07CD0350	WETLAND SAL01	SALINE (FEN)	56.573903999999998859493643976747989654541015625	-111.277773999999993748133420012891292572021484375	HOBO Rain Gauge Data Logger - RG3	HOBO Temperature/RH Smart Sensor (S-THB-M002)	Soil Moisture Smart Sensor - EC5 (S-SMC-M005)	2019-09-09T08:00:01	0.00	5.872	88.600	0.6097	4.1
2902	AB07CD0350	WETLAND SAL01	SALINE (FEN)	56.573903999999998859493643976747989654541015625	-111.277773999999993748133420012891292572021484375	HOBO Rain Gauge Data Logger - RG3	HOBO Temperature/RH Smart Sensor (S-THB-M002)	Soil Moisture Smart Sensor - EC5 (S-SMC-M005)	2019-09-09T09:00:01	0.00	7.469	86.800	0.6097	5.4
2903	AB07CD0350	WETLAND SAL01	SALINE (FEN)	56.573903999999998859493643976747989654541015625	-111.277773999999993748133420012891292572021484375	HOBO Rain Gauge Data Logger - RG3	HOBO Temperature/RH Smart Sensor (S-THB-M002)	Soil Moisture Smart Sensor - EC5 (S-SMC-M005)	2019-09-09T10:00:01	0.00	9.040	80.900	0.6089	5.9
2904	AB07CD0350	WETLAND SAL01	SALINE (FEN)	56.573903999999998859493643976747989654541015625	-111.277773999999993748133420012891292572021484375	HOBO Rain Gauge Data Logger - RG3	HOBO Temperature/RH Smart Sensor (S-THB-M002)	Soil Moisture Smart Sensor - EC5 (S-SMC-M005)	2019-09-09T11:00:01	0.00	11.637	72.300	0.6089	6.8
2905	AB07CD0350	WETLAND SAL01	SALINE (FEN)	56.573903999999998859493643976747989654541015625	-111.277773999999993748133420012891292572021484375	HOBO Rain Gauge Data Logger - RG3	HOBO Temperature/RH Smart Sensor (S-THB-M002)	Soil Moisture Smart Sensor - EC5 (S-SMC-M005)	2019-09-09T12:00:01	0.00	11.953	65.500	0.6089	5.7
2906	AB07CD0350	WETLAND SAL01	SALINE (FEN)	56.573903999999998859493643976747989654541015625	-111.277773999999993748133420012891292572021484375	HOBO Rain Gauge Data Logger - RG3	HOBO Temperature/RH Smart Sensor (S-THB-M002)	Soil Moisture Smart Sensor - EC5 (S-SMC-M005)	2019-09-09T13:00:01	0.00	12.678	67.700	0.6089	6.9
2907	AB07CD0350	WETLAND SAL01	SALINE (FEN)	56.573903999999998859493643976747989654541015625	-111.277773999999993748133420012891292572021484375	HOBO Rain Gauge Data Logger - RG3	HOBO Temperature/RH Smart Sensor (S-THB-M002)	Soil Moisture Smart Sensor - EC5 (S-SMC-M005)	2019-09-09T14:00:01	0.00	13.161	66.700	0.6089	7.1
2908	AB07CD0350	WETLAND SAL01	SALINE (FEN)	56.573903999999998859493643976747989654541015625	-111.277773999999993748133420012891292572021484375	HOBO Rain Gauge Data Logger - RG3	HOBO Temperature/RH Smart Sensor (S-THB-M002)	Soil Moisture Smart Sensor - EC5 (S-SMC-M005)	2019-09-09T15:00:01	0.00	14.361	64.300	0.6089	7.7
2909	AB07CD0350	WETLAND SAL01	SALINE (FEN)	56.573903999999998859493643976747989654541015625	-111.277773999999993748133420012891292572021484375	HOBO Rain Gauge Data Logger - RG3	HOBO Temperature/RH Smart Sensor (S-THB-M002)	Soil Moisture Smart Sensor - EC5 (S-SMC-M005)	2019-09-09T16:00:01	0.00	13.690	65.500	0.6089	7.4
2910	AB07CD0350	WETLAND SAL01	SALINE (FEN)	56.573903999999998859493643976747989654541015625	-111.277773999999993748133420012891292572021484375	HOBO Rain Gauge Data Logger - RG3	HOBO Temperature/RH Smart Sensor (S-THB-M002)	Soil Moisture Smart Sensor - EC5 (S-SMC-M005)	2019-09-09T17:00:01	0.00	13.858	63.400	0.6089	7.0
2911	AB07CD0350	WETLAND SAL01	SALINE (FEN)	56.573903999999998859493643976747989654541015625	-111.277773999999993748133420012891292572021484375	HOBO Rain Gauge Data Logger - RG3	HOBO Temperature/RH Smart Sensor (S-THB-M002)	Soil Moisture Smart Sensor - EC5 (S-SMC-M005)	2019-09-09T18:00:01	0.00	13.546	63.700	0.6082	6.8
2912	AB07CD0350	WETLAND SAL01	SALINE (FEN)	56.573903999999998859493643976747989654541015625	-111.277773999999993748133420012891292572021484375	HOBO Rain Gauge Data Logger - RG3	HOBO Temperature/RH Smart Sensor (S-THB-M002)	Soil Moisture Smart Sensor - EC5 (S-SMC-M005)	2019-09-09T19:00:01	0.00	13.618	66.100	0.6082	7.4
2913	AB07CD0350	WETLAND SAL01	SALINE (FEN)	56.573903999999998859493643976747989654541015625	-111.277773999999993748133420012891292572021484375	HOBO Rain Gauge Data Logger - RG3	HOBO Temperature/RH Smart Sensor (S-THB-M002)	Soil Moisture Smart Sensor - EC5 (S-SMC-M005)	2019-09-09T20:00:01	0.00	10.663	67.100	0.6082	4.8
2914	AB07CD0350	WETLAND SAL01	SALINE (FEN)	56.573903999999998859493643976747989654541015625	-111.277773999999993748133420012891292572021484375	HOBO Rain Gauge Data Logger - RG3	HOBO Temperature/RH Smart Sensor (S-THB-M002)	Soil Moisture Smart Sensor - EC5 (S-SMC-M005)	2019-09-09T21:00:01	0.00	7.720	78.700	0.6082	4.3
2915	AB07CD0350	WETLAND SAL01	SALINE (FEN)	56.573903999999998859493643976747989654541015625	-111.277773999999993748133420012891292572021484375	HOBO Rain Gauge Data Logger - RG3	HOBO Temperature/RH Smart Sensor (S-THB-M002)	Soil Moisture Smart Sensor - EC5 (S-SMC-M005)	2019-09-09T22:00:01	0.00	4.740	85.400	0.6082	2.5
2916	AB07CD0350	WETLAND SAL01	SALINE (FEN)	56.573903999999998859493643976747989654541015625	-111.277773999999993748133420012891292572021484375	HOBO Rain Gauge Data Logger - RG3	HOBO Temperature/RH Smart Sensor (S-THB-M002)	Soil Moisture Smart Sensor - EC5 (S-SMC-M005)	2019-09-09T23:00:01	0.00	3.801	91.200	0.6082	2.5
2917	AB07CD0350	WETLAND SAL01	SALINE (FEN)	56.573903999999998859493643976747989654541015625	-111.277773999999993748133420012891292572021484375	HOBO Rain Gauge Data Logger - RG3	HOBO Temperature/RH Smart Sensor (S-THB-M002)	Soil Moisture Smart Sensor - EC5 (S-SMC-M005)	2019-09-10T00:00:01	0.00	3.880	91.800	0.6082	2.7
2918	AB07CD0350	WETLAND SAL01	SALINE (FEN)	56.573903999999998859493643976747989654541015625	-111.277773999999993748133420012891292572021484375	HOBO Rain Gauge Data Logger - RG3	HOBO Temperature/RH Smart Sensor (S-THB-M002)	Soil Moisture Smart Sensor - EC5 (S-SMC-M005)	2019-09-10T01:00:01	0.00	2.343	92.700	0.6089	1.3
2919	AB07CD0350	WETLAND SAL01	SALINE (FEN)	56.573903999999998859493643976747989654541015625	-111.277773999999993748133420012891292572021484375	HOBO Rain Gauge Data Logger - RG3	HOBO Temperature/RH Smart Sensor (S-THB-M002)	Soil Moisture Smart Sensor - EC5 (S-SMC-M005)	2019-09-10T02:00:01	0.00	0.107	94.100	0.6089	-0.7
2920	AB07CD0350	WETLAND SAL01	SALINE (FEN)	56.573903999999998859493643976747989654541015625	-111.277773999999993748133420012891292572021484375	HOBO Rain Gauge Data Logger - RG3	HOBO Temperature/RH Smart Sensor (S-THB-M002)	Soil Moisture Smart Sensor - EC5 (S-SMC-M005)	2019-09-10T03:00:01	0.00	-0.199	95.000	0.6082	-0.9
2921	AB07CD0350	WETLAND SAL01	SALINE (FEN)	56.573903999999998859493643976747989654541015625	-111.277773999999993748133420012891292572021484375	HOBO Rain Gauge Data Logger - RG3	HOBO Temperature/RH Smart Sensor (S-THB-M002)	Soil Moisture Smart Sensor - EC5 (S-SMC-M005)	2019-09-10T04:00:01	0.00	-0.873	95.700	0.6082	-1.5
2922	AB07CD0350	WETLAND SAL01	SALINE (FEN)	56.573903999999998859493643976747989654541015625	-111.277773999999993748133420012891292572021484375	HOBO Rain Gauge Data Logger - RG3	HOBO Temperature/RH Smart Sensor (S-THB-M002)	Soil Moisture Smart Sensor - EC5 (S-SMC-M005)	2019-09-10T05:00:01	0.00	-1.015	96.100	0.6089	-1.6
2923	AB07CD0350	WETLAND SAL01	SALINE (FEN)	56.573903999999998859493643976747989654541015625	-111.277773999999993748133420012891292572021484375	HOBO Rain Gauge Data Logger - RG3	HOBO Temperature/RH Smart Sensor (S-THB-M002)	Soil Moisture Smart Sensor - EC5 (S-SMC-M005)	2019-09-10T06:00:01	0.00	-0.760	96.300	0.6082	-1.3
2924	AB07CD0350	WETLAND SAL01	SALINE (FEN)	56.573903999999998859493643976747989654541015625	-111.277773999999993748133420012891292572021484375	HOBO Rain Gauge Data Logger - RG3	HOBO Temperature/RH Smart Sensor (S-THB-M002)	Soil Moisture Smart Sensor - EC5 (S-SMC-M005)	2019-09-10T07:00:01	0.00	-2.305	96.700	0.6089	-2.8
2925	AB07CD0350	WETLAND SAL01	SALINE (FEN)	56.573903999999998859493643976747989654541015625	-111.277773999999993748133420012891292572021484375	HOBO Rain Gauge Data Logger - RG3	HOBO Temperature/RH Smart Sensor (S-THB-M002)	Soil Moisture Smart Sensor - EC5 (S-SMC-M005)	2019-09-10T08:00:01	0.00	1.670	96.300	0.6082	1.1
2926	AB07CD0350	WETLAND SAL01	SALINE (FEN)	56.573903999999998859493643976747989654541015625	-111.277773999999993748133420012891292572021484375	HOBO Rain Gauge Data Logger - RG3	HOBO Temperature/RH Smart Sensor (S-THB-M002)	Soil Moisture Smart Sensor - EC5 (S-SMC-M005)	2019-09-10T09:00:01	0.00	6.026	94.500	0.6089	5.2
2927	AB07CD0350	WETLAND SAL01	SALINE (FEN)	56.573903999999998859493643976747989654541015625	-111.277773999999993748133420012891292572021484375	HOBO Rain Gauge Data Logger - RG3	HOBO Temperature/RH Smart Sensor (S-THB-M002)	Soil Moisture Smart Sensor - EC5 (S-SMC-M005)	2019-09-10T10:00:01	0.00	8.668	88.400	0.6082	6.9
2928	AB07CD0350	WETLAND SAL01	SALINE (FEN)	56.573903999999998859493643976747989654541015625	-111.277773999999993748133420012891292572021484375	HOBO Rain Gauge Data Logger - RG3	HOBO Temperature/RH Smart Sensor (S-THB-M002)	Soil Moisture Smart Sensor - EC5 (S-SMC-M005)	2019-09-10T11:00:01	0.00	9.238	84.900	0.6082	6.8
2929	AB07CD0350	WETLAND SAL01	SALINE (FEN)	56.573903999999998859493643976747989654541015625	-111.277773999999993748133420012891292572021484375	HOBO Rain Gauge Data Logger - RG3	HOBO Temperature/RH Smart Sensor (S-THB-M002)	Soil Moisture Smart Sensor - EC5 (S-SMC-M005)	2019-09-10T12:00:01	0.00	10.320	75.200	0.6082	6.1
2930	AB07CD0350	WETLAND SAL01	SALINE (FEN)	56.573903999999998859493643976747989654541015625	-111.277773999999993748133420012891292572021484375	HOBO Rain Gauge Data Logger - RG3	HOBO Temperature/RH Smart Sensor (S-THB-M002)	Soil Moisture Smart Sensor - EC5 (S-SMC-M005)	2019-09-10T13:00:01	0.00	10.907	65.100	0.6075	4.6
2931	AB07CD0350	WETLAND SAL01	SALINE (FEN)	56.573903999999998859493643976747989654541015625	-111.277773999999993748133420012891292572021484375	HOBO Rain Gauge Data Logger - RG3	HOBO Temperature/RH Smart Sensor (S-THB-M002)	Soil Moisture Smart Sensor - EC5 (S-SMC-M005)	2019-09-10T14:00:01	0.00	13.810	56.900	0.6075	5.4
2932	AB07CD0350	WETLAND SAL01	SALINE (FEN)	56.573903999999998859493643976747989654541015625	-111.277773999999993748133420012891292572021484375	HOBO Rain Gauge Data Logger - RG3	HOBO Temperature/RH Smart Sensor (S-THB-M002)	Soil Moisture Smart Sensor - EC5 (S-SMC-M005)	2019-09-10T15:00:01	0.00	14.050	50.500	0.6075	3.9
2933	AB07CD0350	WETLAND SAL01	SALINE (FEN)	56.573903999999998859493643976747989654541015625	-111.277773999999993748133420012891292572021484375	HOBO Rain Gauge Data Logger - RG3	HOBO Temperature/RH Smart Sensor (S-THB-M002)	Soil Moisture Smart Sensor - EC5 (S-SMC-M005)	2019-09-10T16:00:01	0.00	14.721	46.700	0.6075	3.4
2934	AB07CD0350	WETLAND SAL01	SALINE (FEN)	56.573903999999998859493643976747989654541015625	-111.277773999999993748133420012891292572021484375	HOBO Rain Gauge Data Logger - RG3	HOBO Temperature/RH Smart Sensor (S-THB-M002)	Soil Moisture Smart Sensor - EC5 (S-SMC-M005)	2019-09-10T17:00:01	0.00	14.864	44.400	0.6075	2.9
2935	AB07CD0350	WETLAND SAL01	SALINE (FEN)	56.573903999999998859493643976747989654541015625	-111.277773999999993748133420012891292572021484375	HOBO Rain Gauge Data Logger - RG3	HOBO Temperature/RH Smart Sensor (S-THB-M002)	Soil Moisture Smart Sensor - EC5 (S-SMC-M005)	2019-09-10T18:00:01	0.00	14.505	46.000	0.6075	3.0
2936	AB07CD0350	WETLAND SAL01	SALINE (FEN)	56.573903999999998859493643976747989654541015625	-111.277773999999993748133420012891292572021484375	HOBO Rain Gauge Data Logger - RG3	HOBO Temperature/RH Smart Sensor (S-THB-M002)	Soil Moisture Smart Sensor - EC5 (S-SMC-M005)	2019-09-10T19:00:01	0.00	13.209	47.500	0.6075	2.3
2937	AB07CD0350	WETLAND SAL01	SALINE (FEN)	56.573903999999998859493643976747989654541015625	-111.277773999999993748133420012891292572021484375	HOBO Rain Gauge Data Logger - RG3	HOBO Temperature/RH Smart Sensor (S-THB-M002)	Soil Moisture Smart Sensor - EC5 (S-SMC-M005)	2019-09-10T20:00:01	0.00	9.780	54.300	0.6068	1.0
2938	AB07CD0350	WETLAND SAL01	SALINE (FEN)	56.573903999999998859493643976747989654541015625	-111.277773999999993748133420012891292572021484375	HOBO Rain Gauge Data Logger - RG3	HOBO Temperature/RH Smart Sensor (S-THB-M002)	Soil Moisture Smart Sensor - EC5 (S-SMC-M005)	2019-09-10T21:00:01	0.00	7.795	70.400	0.6068	2.8
2939	AB07CD0350	WETLAND SAL01	SALINE (FEN)	56.573903999999998859493643976747989654541015625	-111.277773999999993748133420012891292572021484375	HOBO Rain Gauge Data Logger - RG3	HOBO Temperature/RH Smart Sensor (S-THB-M002)	Soil Moisture Smart Sensor - EC5 (S-SMC-M005)	2019-09-10T22:00:01	0.00	2.343	79.600	0.6068	-0.8
2940	AB07CD0350	WETLAND SAL01	SALINE (FEN)	56.573903999999998859493643976747989654541015625	-111.277773999999993748133420012891292572021484375	HOBO Rain Gauge Data Logger - RG3	HOBO Temperature/RH Smart Sensor (S-THB-M002)	Soil Moisture Smart Sensor - EC5 (S-SMC-M005)	2019-09-10T23:00:01	0.00	1.289	88.100	0.6068	-0.5
2941	AB07CD0350	WETLAND SAL01	SALINE (FEN)	56.573903999999998859493643976747989654541015625	-111.277773999999993748133420012891292572021484375	HOBO Rain Gauge Data Logger - RG3	HOBO Temperature/RH Smart Sensor (S-THB-M002)	Soil Moisture Smart Sensor - EC5 (S-SMC-M005)	2019-09-11T00:00:01	0.00	3.643	88.600	0.6068	1.9
2942	AB07CD0350	WETLAND SAL01	SALINE (FEN)	56.573903999999998859493643976747989654541015625	-111.277773999999993748133420012891292572021484375	HOBO Rain Gauge Data Logger - RG3	HOBO Temperature/RH Smart Sensor (S-THB-M002)	Soil Moisture Smart Sensor - EC5 (S-SMC-M005)	2019-09-11T01:00:01	0.00	4.947	85.400	0.6068	2.7
2943	AB07CD0350	WETLAND SAL01	SALINE (FEN)	56.573903999999998859493643976747989654541015625	-111.277773999999993748133420012891292572021484375	HOBO Rain Gauge Data Logger - RG3	HOBO Temperature/RH Smart Sensor (S-THB-M002)	Soil Moisture Smart Sensor - EC5 (S-SMC-M005)	2019-09-11T02:00:01	0.00	3.749	86.900	0.6068	1.8
2944	AB07CD0350	WETLAND SAL01	SALINE (FEN)	56.573903999999998859493643976747989654541015625	-111.277773999999993748133420012891292572021484375	HOBO Rain Gauge Data Logger - RG3	HOBO Temperature/RH Smart Sensor (S-THB-M002)	Soil Moisture Smart Sensor - EC5 (S-SMC-M005)	2019-09-11T03:00:01	0.00	1.913	90.200	0.6075	0.5
2945	AB07CD0350	WETLAND SAL01	SALINE (FEN)	56.573903999999998859493643976747989654541015625	-111.277773999999993748133420012891292572021484375	HOBO Rain Gauge Data Logger - RG3	HOBO Temperature/RH Smart Sensor (S-THB-M002)	Soil Moisture Smart Sensor - EC5 (S-SMC-M005)	2019-09-11T04:00:01	0.00	-0.171	92.700	0.6068	-1.2
2946	AB07CD0350	WETLAND SAL01	SALINE (FEN)	56.573903999999998859493643976747989654541015625	-111.277773999999993748133420012891292572021484375	HOBO Rain Gauge Data Logger - RG3	HOBO Temperature/RH Smart Sensor (S-THB-M002)	Soil Moisture Smart Sensor - EC5 (S-SMC-M005)	2019-09-11T05:00:01	0.00	0.467	94.200	0.6068	-0.4
2947	AB07CD0350	WETLAND SAL01	SALINE (FEN)	56.573903999999998859493643976747989654541015625	-111.277773999999993748133420012891292572021484375	HOBO Rain Gauge Data Logger - RG3	HOBO Temperature/RH Smart Sensor (S-THB-M002)	Soil Moisture Smart Sensor - EC5 (S-SMC-M005)	2019-09-11T06:00:01	0.00	2.155	95.200	0.6068	1.5
2948	AB07CD0350	WETLAND SAL01	SALINE (FEN)	56.573903999999998859493643976747989654541015625	-111.277773999999993748133420012891292572021484375	HOBO Rain Gauge Data Logger - RG3	HOBO Temperature/RH Smart Sensor (S-THB-M002)	Soil Moisture Smart Sensor - EC5 (S-SMC-M005)	2019-09-11T07:00:01	0.00	2.770	95.300	0.6068	2.1
2949	AB07CD0350	WETLAND SAL01	SALINE (FEN)	56.573903999999998859493643976747989654541015625	-111.277773999999993748133420012891292572021484375	HOBO Rain Gauge Data Logger - RG3	HOBO Temperature/RH Smart Sensor (S-THB-M002)	Soil Moisture Smart Sensor - EC5 (S-SMC-M005)	2019-09-11T08:00:01	0.00	4.869	94.800	0.6068	4.1
2950	AB07CD0350	WETLAND SAL01	SALINE (FEN)	56.573903999999998859493643976747989654541015625	-111.277773999999993748133420012891292572021484375	HOBO Rain Gauge Data Logger - RG3	HOBO Temperature/RH Smart Sensor (S-THB-M002)	Soil Moisture Smart Sensor - EC5 (S-SMC-M005)	2019-09-11T09:00:01	0.00	8.717	88.500	0.6068	6.9
2951	AB07CD0350	WETLAND SAL01	SALINE (FEN)	56.573903999999998859493643976747989654541015625	-111.277773999999993748133420012891292572021484375	HOBO Rain Gauge Data Logger - RG3	HOBO Temperature/RH Smart Sensor (S-THB-M002)	Soil Moisture Smart Sensor - EC5 (S-SMC-M005)	2019-09-11T10:00:01	0.00	11.467	81.100	0.6068	8.4
2952	AB07CD0350	WETLAND SAL01	SALINE (FEN)	56.573903999999998859493643976747989654541015625	-111.277773999999993748133420012891292572021484375	HOBO Rain Gauge Data Logger - RG3	HOBO Temperature/RH Smart Sensor (S-THB-M002)	Soil Moisture Smart Sensor - EC5 (S-SMC-M005)	2019-09-11T11:00:01	0.00	11.710	77.700	0.6068	8.0
2953	AB07CD0350	WETLAND SAL01	SALINE (FEN)	56.573903999999998859493643976747989654541015625	-111.277773999999993748133420012891292572021484375	HOBO Rain Gauge Data Logger - RG3	HOBO Temperature/RH Smart Sensor (S-THB-M002)	Soil Moisture Smart Sensor - EC5 (S-SMC-M005)	2019-09-11T12:00:01	0.00	13.497	73.200	0.6068	8.8
2954	AB07CD0350	WETLAND SAL01	SALINE (FEN)	56.573903999999998859493643976747989654541015625	-111.277773999999993748133420012891292572021484375	HOBO Rain Gauge Data Logger - RG3	HOBO Temperature/RH Smart Sensor (S-THB-M002)	Soil Moisture Smart Sensor - EC5 (S-SMC-M005)	2019-09-11T13:00:01	0.00	12.920	69.800	0.6060	7.6
2955	AB07CD0350	WETLAND SAL01	SALINE (FEN)	56.573903999999998859493643976747989654541015625	-111.277773999999993748133420012891292572021484375	HOBO Rain Gauge Data Logger - RG3	HOBO Temperature/RH Smart Sensor (S-THB-M002)	Soil Moisture Smart Sensor - EC5 (S-SMC-M005)	2019-09-11T14:00:01	0.00	13.858	69.100	0.6060	8.3
2956	AB07CD0350	WETLAND SAL01	SALINE (FEN)	56.573903999999998859493643976747989654541015625	-111.277773999999993748133420012891292572021484375	HOBO Rain Gauge Data Logger - RG3	HOBO Temperature/RH Smart Sensor (S-THB-M002)	Soil Moisture Smart Sensor - EC5 (S-SMC-M005)	2019-09-11T15:00:01	0.00	13.906	67.200	0.6060	7.9
2957	AB07CD0350	WETLAND SAL01	SALINE (FEN)	56.573903999999998859493643976747989654541015625	-111.277773999999993748133420012891292572021484375	HOBO Rain Gauge Data Logger - RG3	HOBO Temperature/RH Smart Sensor (S-THB-M002)	Soil Moisture Smart Sensor - EC5 (S-SMC-M005)	2019-09-11T16:00:01	0.00	14.314	66.000	0.6060	8.1
2958	AB07CD0350	WETLAND SAL01	SALINE (FEN)	56.573903999999998859493643976747989654541015625	-111.277773999999993748133420012891292572021484375	HOBO Rain Gauge Data Logger - RG3	HOBO Temperature/RH Smart Sensor (S-THB-M002)	Soil Moisture Smart Sensor - EC5 (S-SMC-M005)	2019-09-11T17:00:01	0.00	14.098	64.800	0.6060	7.6
2959	AB07CD0350	WETLAND SAL01	SALINE (FEN)	56.573903999999998859493643976747989654541015625	-111.277773999999993748133420012891292572021484375	HOBO Rain Gauge Data Logger - RG3	HOBO Temperature/RH Smart Sensor (S-THB-M002)	Soil Moisture Smart Sensor - EC5 (S-SMC-M005)	2019-09-11T18:00:01	0.00	13.618	66.000	0.6060	7.4
2960	AB07CD0350	WETLAND SAL01	SALINE (FEN)	56.573903999999998859493643976747989654541015625	-111.277773999999993748133420012891292572021484375	HOBO Rain Gauge Data Logger - RG3	HOBO Temperature/RH Smart Sensor (S-THB-M002)	Soil Moisture Smart Sensor - EC5 (S-SMC-M005)	2019-09-11T19:00:01	0.00	13.257	67.000	0.6060	7.3
2961	AB07CD0350	WETLAND SAL01	SALINE (FEN)	56.573903999999998859493643976747989654541015625	-111.277773999999993748133420012891292572021484375	HOBO Rain Gauge Data Logger - RG3	HOBO Temperature/RH Smart Sensor (S-THB-M002)	Soil Moisture Smart Sensor - EC5 (S-SMC-M005)	2019-09-11T20:00:01	0.00	12.678	70.100	0.6060	7.4
2962	AB07CD0350	WETLAND SAL01	SALINE (FEN)	56.573903999999998859493643976747989654541015625	-111.277773999999993748133420012891292572021484375	HOBO Rain Gauge Data Logger - RG3	HOBO Temperature/RH Smart Sensor (S-THB-M002)	Soil Moisture Smart Sensor - EC5 (S-SMC-M005)	2019-09-11T21:00:01	0.00	12.074	73.900	0.6060	7.6
2963	AB07CD0350	WETLAND SAL01	SALINE (FEN)	56.573903999999998859493643976747989654541015625	-111.277773999999993748133420012891292572021484375	HOBO Rain Gauge Data Logger - RG3	HOBO Temperature/RH Smart Sensor (S-THB-M002)	Soil Moisture Smart Sensor - EC5 (S-SMC-M005)	2019-09-11T22:00:01	0.00	12.001	75.700	0.6060	7.9
2964	AB07CD0350	WETLAND SAL01	SALINE (FEN)	56.573903999999998859493643976747989654541015625	-111.277773999999993748133420012891292572021484375	HOBO Rain Gauge Data Logger - RG3	HOBO Temperature/RH Smart Sensor (S-THB-M002)	Soil Moisture Smart Sensor - EC5 (S-SMC-M005)	2019-09-11T23:00:01	0.00	11.637	77.400	0.6060	7.8
2965	AB07CD0350	WETLAND SAL01	SALINE (FEN)	56.573903999999998859493643976747989654541015625	-111.277773999999993748133420012891292572021484375	HOBO Rain Gauge Data Logger - RG3	HOBO Temperature/RH Smart Sensor (S-THB-M002)	Soil Moisture Smart Sensor - EC5 (S-SMC-M005)	2019-09-12T00:00:01	0.00	11.759	78.400	0.6060	8.1
2966	AB07CD0350	WETLAND SAL01	SALINE (FEN)	56.573903999999998859493643976747989654541015625	-111.277773999999993748133420012891292572021484375	HOBO Rain Gauge Data Logger - RG3	HOBO Temperature/RH Smart Sensor (S-THB-M002)	Soil Moisture Smart Sensor - EC5 (S-SMC-M005)	2019-09-12T01:00:01	0.00	11.492	80.100	0.6060	8.2
2967	AB07CD0350	WETLAND SAL01	SALINE (FEN)	56.573903999999998859493643976747989654541015625	-111.277773999999993748133420012891292572021484375	HOBO Rain Gauge Data Logger - RG3	HOBO Temperature/RH Smart Sensor (S-THB-M002)	Soil Moisture Smart Sensor - EC5 (S-SMC-M005)	2019-09-12T02:00:01	0.00	10.443	83.200	0.6060	7.7
2968	AB07CD0350	WETLAND SAL01	SALINE (FEN)	56.573903999999998859493643976747989654541015625	-111.277773999999993748133420012891292572021484375	HOBO Rain Gauge Data Logger - RG3	HOBO Temperature/RH Smart Sensor (S-THB-M002)	Soil Moisture Smart Sensor - EC5 (S-SMC-M005)	2019-09-12T03:00:01	0.00	10.467	85.900	0.6060	8.2
2969	AB07CD0350	WETLAND SAL01	SALINE (FEN)	56.573903999999998859493643976747989654541015625	-111.277773999999993748133420012891292572021484375	HOBO Rain Gauge Data Logger - RG3	HOBO Temperature/RH Smart Sensor (S-THB-M002)	Soil Moisture Smart Sensor - EC5 (S-SMC-M005)	2019-09-12T04:00:01	0.00	10.687	85.900	0.6060	8.4
2970	AB07CD0350	WETLAND SAL01	SALINE (FEN)	56.573903999999998859493643976747989654541015625	-111.277773999999993748133420012891292572021484375	HOBO Rain Gauge Data Logger - RG3	HOBO Temperature/RH Smart Sensor (S-THB-M002)	Soil Moisture Smart Sensor - EC5 (S-SMC-M005)	2019-09-12T05:00:01	0.00	10.980	86.300	0.6060	8.8
2971	AB07CD0350	WETLAND SAL01	SALINE (FEN)	56.573903999999998859493643976747989654541015625	-111.277773999999993748133420012891292572021484375	HOBO Rain Gauge Data Logger - RG3	HOBO Temperature/RH Smart Sensor (S-THB-M002)	Soil Moisture Smart Sensor - EC5 (S-SMC-M005)	2019-09-12T06:00:01	0.00	10.858	85.300	0.6060	8.5
2972	AB07CD0350	WETLAND SAL01	SALINE (FEN)	56.573903999999998859493643976747989654541015625	-111.277773999999993748133420012891292572021484375	HOBO Rain Gauge Data Logger - RG3	HOBO Temperature/RH Smart Sensor (S-THB-M002)	Soil Moisture Smart Sensor - EC5 (S-SMC-M005)	2019-09-12T07:00:01	0.00	9.657	87.000	0.6060	7.6
2973	AB07CD0350	WETLAND SAL01	SALINE (FEN)	56.573903999999998859493643976747989654541015625	-111.277773999999993748133420012891292572021484375	HOBO Rain Gauge Data Logger - RG3	HOBO Temperature/RH Smart Sensor (S-THB-M002)	Soil Moisture Smart Sensor - EC5 (S-SMC-M005)	2019-09-12T08:00:01	0.00	10.761	88.700	0.6060	9.0
2974	AB07CD0350	WETLAND SAL01	SALINE (FEN)	56.573903999999998859493643976747989654541015625	-111.277773999999993748133420012891292572021484375	HOBO Rain Gauge Data Logger - RG3	HOBO Temperature/RH Smart Sensor (S-THB-M002)	Soil Moisture Smart Sensor - EC5 (S-SMC-M005)	2019-09-12T09:00:01	0.00	13.714	80.600	0.6060	10.5
2975	AB07CD0350	WETLAND SAL01	SALINE (FEN)	56.573903999999998859493643976747989654541015625	-111.277773999999993748133420012891292572021484375	HOBO Rain Gauge Data Logger - RG3	HOBO Temperature/RH Smart Sensor (S-THB-M002)	Soil Moisture Smart Sensor - EC5 (S-SMC-M005)	2019-09-12T10:00:01	0.00	14.577	73.700	0.6060	10.0
2976	AB07CD0350	WETLAND SAL01	SALINE (FEN)	56.573903999999998859493643976747989654541015625	-111.277773999999993748133420012891292572021484375	HOBO Rain Gauge Data Logger - RG3	HOBO Temperature/RH Smart Sensor (S-THB-M002)	Soil Moisture Smart Sensor - EC5 (S-SMC-M005)	2019-09-12T11:00:01	0.00	16.106	69.100	0.6060	10.5
2977	AB07CD0350	WETLAND SAL01	SALINE (FEN)	56.573903999999998859493643976747989654541015625	-111.277773999999993748133420012891292572021484375	HOBO Rain Gauge Data Logger - RG3	HOBO Temperature/RH Smart Sensor (S-THB-M002)	Soil Moisture Smart Sensor - EC5 (S-SMC-M005)	2019-09-12T12:00:01	0.00	18.176	63.800	0.6060	11.2
2978	AB07CD0350	WETLAND SAL01	SALINE (FEN)	56.573903999999998859493643976747989654541015625	-111.277773999999993748133420012891292572021484375	HOBO Rain Gauge Data Logger - RG3	HOBO Temperature/RH Smart Sensor (S-THB-M002)	Soil Moisture Smart Sensor - EC5 (S-SMC-M005)	2019-09-12T13:00:01	0.00	19.817	56.900	0.6060	11.0
2979	AB07CD0350	WETLAND SAL01	SALINE (FEN)	56.573903999999998859493643976747989654541015625	-111.277773999999993748133420012891292572021484375	HOBO Rain Gauge Data Logger - RG3	HOBO Temperature/RH Smart Sensor (S-THB-M002)	Soil Moisture Smart Sensor - EC5 (S-SMC-M005)	2019-09-12T14:00:01	0.00	20.770	52.000	0.6060	10.6
2980	AB07CD0350	WETLAND SAL01	SALINE (FEN)	56.573903999999998859493643976747989654541015625	-111.277773999999993748133420012891292572021484375	HOBO Rain Gauge Data Logger - RG3	HOBO Temperature/RH Smart Sensor (S-THB-M002)	Soil Moisture Smart Sensor - EC5 (S-SMC-M005)	2019-09-12T15:00:01	0.00	21.533	47.500	0.6060	9.9
2981	AB07CD0350	WETLAND SAL01	SALINE (FEN)	56.573903999999998859493643976747989654541015625	-111.277773999999993748133420012891292572021484375	HOBO Rain Gauge Data Logger - RG3	HOBO Temperature/RH Smart Sensor (S-THB-M002)	Soil Moisture Smart Sensor - EC5 (S-SMC-M005)	2019-09-12T16:00:01	0.00	22.537	44.400	0.6060	9.8
2982	AB07CD0350	WETLAND SAL01	SALINE (FEN)	56.573903999999998859493643976747989654541015625	-111.277773999999993748133420012891292572021484375	HOBO Rain Gauge Data Logger - RG3	HOBO Temperature/RH Smart Sensor (S-THB-M002)	Soil Moisture Smart Sensor - EC5 (S-SMC-M005)	2019-09-12T17:00:01	0.00	23.064	42.300	0.6060	9.6
2983	AB07CD0350	WETLAND SAL01	SALINE (FEN)	56.573903999999998859493643976747989654541015625	-111.277773999999993748133420012891292572021484375	HOBO Rain Gauge Data Logger - RG3	HOBO Temperature/RH Smart Sensor (S-THB-M002)	Soil Moisture Smart Sensor - EC5 (S-SMC-M005)	2019-09-12T18:00:01	0.00	22.154	45.900	0.6060	10.0
2984	AB07CD0350	WETLAND SAL01	SALINE (FEN)	56.573903999999998859493643976747989654541015625	-111.277773999999993748133420012891292572021484375	HOBO Rain Gauge Data Logger - RG3	HOBO Temperature/RH Smart Sensor (S-THB-M002)	Soil Moisture Smart Sensor - EC5 (S-SMC-M005)	2019-09-12T19:00:01	0.00	20.865	44.700	0.6060	8.4
2985	AB07CD0350	WETLAND SAL01	SALINE (FEN)	56.573903999999998859493643976747989654541015625	-111.277773999999993748133420012891292572021484375	HOBO Rain Gauge Data Logger - RG3	HOBO Temperature/RH Smart Sensor (S-THB-M002)	Soil Moisture Smart Sensor - EC5 (S-SMC-M005)	2019-09-12T20:00:01	0.00	16.701	51.700	0.6060	6.7
2986	AB07CD0350	WETLAND SAL01	SALINE (FEN)	56.573903999999998859493643976747989654541015625	-111.277773999999993748133420012891292572021484375	HOBO Rain Gauge Data Logger - RG3	HOBO Temperature/RH Smart Sensor (S-THB-M002)	Soil Moisture Smart Sensor - EC5 (S-SMC-M005)	2019-09-12T21:00:01	0.00	15.127	63.100	0.6060	8.2
2987	AB07CD0350	WETLAND SAL01	SALINE (FEN)	56.573903999999998859493643976747989654541015625	-111.277773999999993748133420012891292572021484375	HOBO Rain Gauge Data Logger - RG3	HOBO Temperature/RH Smart Sensor (S-THB-M002)	Soil Moisture Smart Sensor - EC5 (S-SMC-M005)	2019-09-12T22:00:01	0.00	13.305	71.800	0.6060	8.3
2988	AB07CD0350	WETLAND SAL01	SALINE (FEN)	56.573903999999998859493643976747989654541015625	-111.277773999999993748133420012891292572021484375	HOBO Rain Gauge Data Logger - RG3	HOBO Temperature/RH Smart Sensor (S-THB-M002)	Soil Moisture Smart Sensor - EC5 (S-SMC-M005)	2019-09-12T23:00:01	0.00	14.984	74.000	0.6060	10.4
2989	AB07CD0350	WETLAND SAL01	SALINE (FEN)	56.573903999999998859493643976747989654541015625	-111.277773999999993748133420012891292572021484375	HOBO Rain Gauge Data Logger - RG3	HOBO Temperature/RH Smart Sensor (S-THB-M002)	Soil Moisture Smart Sensor - EC5 (S-SMC-M005)	2019-09-13T00:00:01	0.00	15.031	70.200	0.6060	9.7
2990	AB07CD0350	WETLAND SAL01	SALINE (FEN)	56.573903999999998859493643976747989654541015625	-111.277773999999993748133420012891292572021484375	HOBO Rain Gauge Data Logger - RG3	HOBO Temperature/RH Smart Sensor (S-THB-M002)	Soil Moisture Smart Sensor - EC5 (S-SMC-M005)	2019-09-13T01:00:01	0.00	14.194	72.500	0.6060	9.3
2991	AB07CD0350	WETLAND SAL01	SALINE (FEN)	56.573903999999998859493643976747989654541015625	-111.277773999999993748133420012891292572021484375	HOBO Rain Gauge Data Logger - RG3	HOBO Temperature/RH Smart Sensor (S-THB-M002)	Soil Moisture Smart Sensor - EC5 (S-SMC-M005)	2019-09-13T02:00:01	0.00	13.954	74.300	0.6068	9.5
2992	AB07CD0350	WETLAND SAL01	SALINE (FEN)	56.573903999999998859493643976747989654541015625	-111.277773999999993748133420012891292572021484375	HOBO Rain Gauge Data Logger - RG3	HOBO Temperature/RH Smart Sensor (S-THB-M002)	Soil Moisture Smart Sensor - EC5 (S-SMC-M005)	2019-09-13T03:00:01	0.00	14.194	75.600	0.6068	10.0
2993	AB07CD0350	WETLAND SAL01	SALINE (FEN)	56.573903999999998859493643976747989654541015625	-111.277773999999993748133420012891292572021484375	HOBO Rain Gauge Data Logger - RG3	HOBO Temperature/RH Smart Sensor (S-THB-M002)	Soil Moisture Smart Sensor - EC5 (S-SMC-M005)	2019-09-13T04:00:01	0.00	9.188	81.500	0.6068	6.2
2994	AB07CD0350	WETLAND SAL01	SALINE (FEN)	56.573903999999998859493643976747989654541015625	-111.277773999999993748133420012891292572021484375	HOBO Rain Gauge Data Logger - RG3	HOBO Temperature/RH Smart Sensor (S-THB-M002)	Soil Moisture Smart Sensor - EC5 (S-SMC-M005)	2019-09-13T05:00:01	0.00	6.661	89.600	0.6068	5.1
2995	AB07CD0350	WETLAND SAL01	SALINE (FEN)	56.573903999999998859493643976747989654541015625	-111.277773999999993748133420012891292572021484375	HOBO Rain Gauge Data Logger - RG3	HOBO Temperature/RH Smart Sensor (S-THB-M002)	Soil Moisture Smart Sensor - EC5 (S-SMC-M005)	2019-09-13T06:00:01	0.00	5.205	92.400	0.6068	4.1
2996	AB07CD0350	WETLAND SAL01	SALINE (FEN)	56.573903999999998859493643976747989654541015625	-111.277773999999993748133420012891292572021484375	HOBO Rain Gauge Data Logger - RG3	HOBO Temperature/RH Smart Sensor (S-THB-M002)	Soil Moisture Smart Sensor - EC5 (S-SMC-M005)	2019-09-13T07:00:01	0.00	7.444	93.900	0.6068	6.5
2997	AB07CD0350	WETLAND SAL01	SALINE (FEN)	56.573903999999998859493643976747989654541015625	-111.277773999999993748133420012891292572021484375	HOBO Rain Gauge Data Logger - RG3	HOBO Temperature/RH Smart Sensor (S-THB-M002)	Soil Moisture Smart Sensor - EC5 (S-SMC-M005)	2019-09-13T08:00:01	0.00	9.089	94.300	0.6075	8.2
2998	AB07CD0350	WETLAND SAL01	SALINE (FEN)	56.573903999999998859493643976747989654541015625	-111.277773999999993748133420012891292572021484375	HOBO Rain Gauge Data Logger - RG3	HOBO Temperature/RH Smart Sensor (S-THB-M002)	Soil Moisture Smart Sensor - EC5 (S-SMC-M005)	2019-09-13T09:00:01	0.00	10.590	92.500	0.6068	9.4
2999	AB07CD0350	WETLAND SAL01	SALINE (FEN)	56.573903999999998859493643976747989654541015625	-111.277773999999993748133420012891292572021484375	HOBO Rain Gauge Data Logger - RG3	HOBO Temperature/RH Smart Sensor (S-THB-M002)	Soil Moisture Smart Sensor - EC5 (S-SMC-M005)	2019-09-13T10:00:01	0.00	12.992	89.200	0.6068	11.3
3000	AB07CD0350	WETLAND SAL01	SALINE (FEN)	56.573903999999998859493643976747989654541015625	-111.277773999999993748133420012891292572021484375	HOBO Rain Gauge Data Logger - RG3	HOBO Temperature/RH Smart Sensor (S-THB-M002)	Soil Moisture Smart Sensor - EC5 (S-SMC-M005)	2019-09-13T11:00:01	0.00	14.792	81.200	0.6068	11.6
3001	AB07CD0350	WETLAND SAL01	SALINE (FEN)	56.573903999999998859493643976747989654541015625	-111.277773999999993748133420012891292572021484375	HOBO Rain Gauge Data Logger - RG3	HOBO Temperature/RH Smart Sensor (S-THB-M002)	Soil Moisture Smart Sensor - EC5 (S-SMC-M005)	2019-09-13T12:00:01	0.00	15.867	77.200	0.6068	11.9
3002	AB07CD0350	WETLAND SAL01	SALINE (FEN)	56.573903999999998859493643976747989654541015625	-111.277773999999993748133420012891292572021484375	HOBO Rain Gauge Data Logger - RG3	HOBO Temperature/RH Smart Sensor (S-THB-M002)	Soil Moisture Smart Sensor - EC5 (S-SMC-M005)	2019-09-13T13:00:01	0.00	17.249	72.700	0.6068	12.3
3003	AB07CD0350	WETLAND SAL01	SALINE (FEN)	56.573903999999998859493643976747989654541015625	-111.277773999999993748133420012891292572021484375	HOBO Rain Gauge Data Logger - RG3	HOBO Temperature/RH Smart Sensor (S-THB-M002)	Soil Moisture Smart Sensor - EC5 (S-SMC-M005)	2019-09-13T14:00:01	0.00	17.772	68.100	0.6068	11.8
3004	AB07CD0350	WETLAND SAL01	SALINE (FEN)	56.573903999999998859493643976747989654541015625	-111.277773999999993748133420012891292572021484375	HOBO Rain Gauge Data Logger - RG3	HOBO Temperature/RH Smart Sensor (S-THB-M002)	Soil Moisture Smart Sensor - EC5 (S-SMC-M005)	2019-09-13T15:00:01	0.00	17.629	66.500	0.6068	11.3
3005	AB07CD0350	WETLAND SAL01	SALINE (FEN)	56.573903999999998859493643976747989654541015625	-111.277773999999993748133420012891292572021484375	HOBO Rain Gauge Data Logger - RG3	HOBO Temperature/RH Smart Sensor (S-THB-M002)	Soil Moisture Smart Sensor - EC5 (S-SMC-M005)	2019-09-13T16:00:01	0.00	18.105	68.500	0.6068	12.2
3006	AB07CD0350	WETLAND SAL01	SALINE (FEN)	56.573903999999998859493643976747989654541015625	-111.277773999999993748133420012891292572021484375	HOBO Rain Gauge Data Logger - RG3	HOBO Temperature/RH Smart Sensor (S-THB-M002)	Soil Moisture Smart Sensor - EC5 (S-SMC-M005)	2019-09-13T17:00:01	0.00	17.891	68.700	0.6068	12.1
3007	AB07CD0350	WETLAND SAL01	SALINE (FEN)	56.573903999999998859493643976747989654541015625	-111.277773999999993748133420012891292572021484375	HOBO Rain Gauge Data Logger - RG3	HOBO Temperature/RH Smart Sensor (S-THB-M002)	Soil Moisture Smart Sensor - EC5 (S-SMC-M005)	2019-09-13T18:00:01	0.00	18.652	68.200	0.6068	12.7
3008	AB07CD0350	WETLAND SAL01	SALINE (FEN)	56.573903999999998859493643976747989654541015625	-111.277773999999993748133420012891292572021484375	HOBO Rain Gauge Data Logger - RG3	HOBO Temperature/RH Smart Sensor (S-THB-M002)	Soil Moisture Smart Sensor - EC5 (S-SMC-M005)	2019-09-13T19:00:01	0.00	17.368	68.100	0.6068	11.4
3009	AB07CD0350	WETLAND SAL01	SALINE (FEN)	56.573903999999998859493643976747989654541015625	-111.277773999999993748133420012891292572021484375	HOBO Rain Gauge Data Logger - RG3	HOBO Temperature/RH Smart Sensor (S-THB-M002)	Soil Moisture Smart Sensor - EC5 (S-SMC-M005)	2019-09-13T20:00:01	0.00	13.762	76.300	0.6068	9.7
3010	AB07CD0350	WETLAND SAL01	SALINE (FEN)	56.573903999999998859493643976747989654541015625	-111.277773999999993748133420012891292572021484375	HOBO Rain Gauge Data Logger - RG3	HOBO Temperature/RH Smart Sensor (S-THB-M002)	Soil Moisture Smart Sensor - EC5 (S-SMC-M005)	2019-09-13T21:00:01	0.00	12.847	88.600	0.6068	11.0
3011	AB07CD0350	WETLAND SAL01	SALINE (FEN)	56.573903999999998859493643976747989654541015625	-111.277773999999993748133420012891292572021484375	HOBO Rain Gauge Data Logger - RG3	HOBO Temperature/RH Smart Sensor (S-THB-M002)	Soil Moisture Smart Sensor - EC5 (S-SMC-M005)	2019-09-13T22:00:01	0.00	13.377	87.100	0.6068	11.3
3012	AB07CD0350	WETLAND SAL01	SALINE (FEN)	56.573903999999998859493643976747989654541015625	-111.277773999999993748133420012891292572021484375	HOBO Rain Gauge Data Logger - RG3	HOBO Temperature/RH Smart Sensor (S-THB-M002)	Soil Moisture Smart Sensor - EC5 (S-SMC-M005)	2019-09-13T23:00:01	0.00	12.461	84.900	0.6068	10.0
3013	AB07CD0350	WETLAND SAL01	SALINE (FEN)	56.573903999999998859493643976747989654541015625	-111.277773999999993748133420012891292572021484375	HOBO Rain Gauge Data Logger - RG3	HOBO Temperature/RH Smart Sensor (S-THB-M002)	Soil Moisture Smart Sensor - EC5 (S-SMC-M005)	2019-09-14T00:00:01	0.00	11.904	85.200	0.6068	9.5
3014	AB07CD0350	WETLAND SAL01	SALINE (FEN)	56.573903999999998859493643976747989654541015625	-111.277773999999993748133420012891292572021484375	HOBO Rain Gauge Data Logger - RG3	HOBO Temperature/RH Smart Sensor (S-THB-M002)	Soil Moisture Smart Sensor - EC5 (S-SMC-M005)	2019-09-14T01:00:01	0.00	11.589	83.700	0.6075	8.9
3015	AB07CD0350	WETLAND SAL01	SALINE (FEN)	56.573903999999998859493643976747989654541015625	-111.277773999999993748133420012891292572021484375	HOBO Rain Gauge Data Logger - RG3	HOBO Temperature/RH Smart Sensor (S-THB-M002)	Soil Moisture Smart Sensor - EC5 (S-SMC-M005)	2019-09-14T02:00:01	0.00	10.541	84.200	0.6060	8.0
3016	AB07CD0350	WETLAND SAL01	SALINE (FEN)	56.573903999999998859493643976747989654541015625	-111.277773999999993748133420012891292572021484375	HOBO Rain Gauge Data Logger - RG3	HOBO Temperature/RH Smart Sensor (S-THB-M002)	Soil Moisture Smart Sensor - EC5 (S-SMC-M005)	2019-09-14T03:00:01	0.00	10.516	84.200	0.6060	8.0
3017	AB07CD0350	WETLAND SAL01	SALINE (FEN)	56.573903999999998859493643976747989654541015625	-111.277773999999993748133420012891292572021484375	HOBO Rain Gauge Data Logger - RG3	HOBO Temperature/RH Smart Sensor (S-THB-M002)	Soil Moisture Smart Sensor - EC5 (S-SMC-M005)	2019-09-14T04:00:01	0.00	11.078	82.400	0.6060	8.2
3018	AB07CD0350	WETLAND SAL01	SALINE (FEN)	56.573903999999998859493643976747989654541015625	-111.277773999999993748133420012891292572021484375	HOBO Rain Gauge Data Logger - RG3	HOBO Temperature/RH Smart Sensor (S-THB-M002)	Soil Moisture Smart Sensor - EC5 (S-SMC-M005)	2019-09-14T05:00:01	0.00	10.001	82.200	0.6060	7.1
3019	AB07CD0350	WETLAND SAL01	SALINE (FEN)	56.573903999999998859493643976747989654541015625	-111.277773999999993748133420012891292572021484375	HOBO Rain Gauge Data Logger - RG3	HOBO Temperature/RH Smart Sensor (S-THB-M002)	Soil Moisture Smart Sensor - EC5 (S-SMC-M005)	2019-09-14T06:00:01	0.00	9.829	83.500	0.6060	7.2
3020	AB07CD0350	WETLAND SAL01	SALINE (FEN)	56.573903999999998859493643976747989654541015625	-111.277773999999993748133420012891292572021484375	HOBO Rain Gauge Data Logger - RG3	HOBO Temperature/RH Smart Sensor (S-THB-M002)	Soil Moisture Smart Sensor - EC5 (S-SMC-M005)	2019-09-14T07:00:01	0.00	9.336	85.200	0.6060	7.0
3021	AB07CD0350	WETLAND SAL01	SALINE (FEN)	56.573903999999998859493643976747989654541015625	-111.277773999999993748133420012891292572021484375	HOBO Rain Gauge Data Logger - RG3	HOBO Temperature/RH Smart Sensor (S-THB-M002)	Soil Moisture Smart Sensor - EC5 (S-SMC-M005)	2019-09-14T08:00:01	0.00	11.686	81.700	0.6060	8.7
3022	AB07CD0350	WETLAND SAL01	SALINE (FEN)	56.573903999999998859493643976747989654541015625	-111.277773999999993748133420012891292572021484375	HOBO Rain Gauge Data Logger - RG3	HOBO Temperature/RH Smart Sensor (S-THB-M002)	Soil Moisture Smart Sensor - EC5 (S-SMC-M005)	2019-09-14T09:00:01	0.00	14.505	72.500	0.6060	9.6
3023	AB07CD0350	WETLAND SAL01	SALINE (FEN)	56.573903999999998859493643976747989654541015625	-111.277773999999993748133420012891292572021484375	HOBO Rain Gauge Data Logger - RG3	HOBO Temperature/RH Smart Sensor (S-THB-M002)	Soil Moisture Smart Sensor - EC5 (S-SMC-M005)	2019-09-14T10:00:01	0.00	16.844	64.700	0.6060	10.2
3024	AB07CD0350	WETLAND SAL01	SALINE (FEN)	56.573903999999998859493643976747989654541015625	-111.277773999999993748133420012891292572021484375	HOBO Rain Gauge Data Logger - RG3	HOBO Temperature/RH Smart Sensor (S-THB-M002)	Soil Moisture Smart Sensor - EC5 (S-SMC-M005)	2019-09-14T11:00:01	0.00	16.892	59.300	0.6060	8.9
3025	AB07CD0350	WETLAND SAL01	SALINE (FEN)	56.573903999999998859493643976747989654541015625	-111.277773999999993748133420012891292572021484375	HOBO Rain Gauge Data Logger - RG3	HOBO Temperature/RH Smart Sensor (S-THB-M002)	Soil Moisture Smart Sensor - EC5 (S-SMC-M005)	2019-09-14T12:00:01	0.00	18.033	59.100	0.6060	9.9
3026	AB07CD0350	WETLAND SAL01	SALINE (FEN)	56.573903999999998859493643976747989654541015625	-111.277773999999993748133420012891292572021484375	HOBO Rain Gauge Data Logger - RG3	HOBO Temperature/RH Smart Sensor (S-THB-M002)	Soil Moisture Smart Sensor - EC5 (S-SMC-M005)	2019-09-14T13:00:01	0.00	17.915	60.400	0.6060	10.2
3027	AB07CD0350	WETLAND SAL01	SALINE (FEN)	56.573903999999998859493643976747989654541015625	-111.277773999999993748133420012891292572021484375	HOBO Rain Gauge Data Logger - RG3	HOBO Temperature/RH Smart Sensor (S-THB-M002)	Soil Moisture Smart Sensor - EC5 (S-SMC-M005)	2019-09-14T14:00:01	0.00	19.389	56.300	0.6060	10.5
3028	AB07CD0350	WETLAND SAL01	SALINE (FEN)	56.573903999999998859493643976747989654541015625	-111.277773999999993748133420012891292572021484375	HOBO Rain Gauge Data Logger - RG3	HOBO Temperature/RH Smart Sensor (S-THB-M002)	Soil Moisture Smart Sensor - EC5 (S-SMC-M005)	2019-09-14T15:00:01	0.00	20.388	51.200	0.6060	10.0
3029	AB07CD0350	WETLAND SAL01	SALINE (FEN)	56.573903999999998859493643976747989654541015625	-111.277773999999993748133420012891292572021484375	HOBO Rain Gauge Data Logger - RG3	HOBO Temperature/RH Smart Sensor (S-THB-M002)	Soil Moisture Smart Sensor - EC5 (S-SMC-M005)	2019-09-14T16:00:01	0.00	19.365	49.300	0.6060	8.5
3030	AB07CD0350	WETLAND SAL01	SALINE (FEN)	56.573903999999998859493643976747989654541015625	-111.277773999999993748133420012891292572021484375	HOBO Rain Gauge Data Logger - RG3	HOBO Temperature/RH Smart Sensor (S-THB-M002)	Soil Moisture Smart Sensor - EC5 (S-SMC-M005)	2019-09-14T17:00:01	0.00	19.246	51.000	0.6060	8.9
3031	AB07CD0350	WETLAND SAL01	SALINE (FEN)	56.573903999999998859493643976747989654541015625	-111.277773999999993748133420012891292572021484375	HOBO Rain Gauge Data Logger - RG3	HOBO Temperature/RH Smart Sensor (S-THB-M002)	Soil Moisture Smart Sensor - EC5 (S-SMC-M005)	2019-09-14T18:00:01	0.00	17.701	54.300	0.6060	8.4
3032	AB07CD0350	WETLAND SAL01	SALINE (FEN)	56.573903999999998859493643976747989654541015625	-111.277773999999993748133420012891292572021484375	HOBO Rain Gauge Data Logger - RG3	HOBO Temperature/RH Smart Sensor (S-THB-M002)	Soil Moisture Smart Sensor - EC5 (S-SMC-M005)	2019-09-14T19:00:01	0.00	16.225	59.900	0.6060	8.4
3033	AB07CD0350	WETLAND SAL01	SALINE (FEN)	56.573903999999998859493643976747989654541015625	-111.277773999999993748133420012891292572021484375	HOBO Rain Gauge Data Logger - RG3	HOBO Temperature/RH Smart Sensor (S-THB-M002)	Soil Moisture Smart Sensor - EC5 (S-SMC-M005)	2019-09-14T20:00:01	0.00	14.505	65.100	0.6053	8.0
3034	AB07CD0350	WETLAND SAL01	SALINE (FEN)	56.573903999999998859493643976747989654541015625	-111.277773999999993748133420012891292572021484375	HOBO Rain Gauge Data Logger - RG3	HOBO Temperature/RH Smart Sensor (S-THB-M002)	Soil Moisture Smart Sensor - EC5 (S-SMC-M005)	2019-09-14T21:00:01	0.00	12.847	71.600	0.6060	7.9
3035	AB07CD0350	WETLAND SAL01	SALINE (FEN)	56.573903999999998859493643976747989654541015625	-111.277773999999993748133420012891292572021484375	HOBO Rain Gauge Data Logger - RG3	HOBO Temperature/RH Smart Sensor (S-THB-M002)	Soil Moisture Smart Sensor - EC5 (S-SMC-M005)	2019-09-14T22:00:01	0.00	12.389	77.100	0.6060	8.5
3036	AB07CD0350	WETLAND SAL01	SALINE (FEN)	56.573903999999998859493643976747989654541015625	-111.277773999999993748133420012891292572021484375	HOBO Rain Gauge Data Logger - RG3	HOBO Temperature/RH Smart Sensor (S-THB-M002)	Soil Moisture Smart Sensor - EC5 (S-SMC-M005)	2019-09-14T23:00:01	0.00	12.534	79.100	0.6060	9.0
3037	AB07CD0350	WETLAND SAL01	SALINE (FEN)	56.573903999999998859493643976747989654541015625	-111.277773999999993748133420012891292572021484375	HOBO Rain Gauge Data Logger - RG3	HOBO Temperature/RH Smart Sensor (S-THB-M002)	Soil Moisture Smart Sensor - EC5 (S-SMC-M005)	2019-09-15T00:00:01	0.00	11.613	80.700	0.6060	8.4
3038	AB07CD0350	WETLAND SAL01	SALINE (FEN)	56.573903999999998859493643976747989654541015625	-111.277773999999993748133420012891292572021484375	HOBO Rain Gauge Data Logger - RG3	HOBO Temperature/RH Smart Sensor (S-THB-M002)	Soil Moisture Smart Sensor - EC5 (S-SMC-M005)	2019-09-15T01:00:01	0.00	11.321	82.800	0.6060	8.5
3039	AB07CD0350	WETLAND SAL01	SALINE (FEN)	56.573903999999998859493643976747989654541015625	-111.277773999999993748133420012891292572021484375	HOBO Rain Gauge Data Logger - RG3	HOBO Temperature/RH Smart Sensor (S-THB-M002)	Soil Moisture Smart Sensor - EC5 (S-SMC-M005)	2019-09-15T02:00:01	0.00	10.980	83.500	0.6060	8.3
3040	AB07CD0350	WETLAND SAL01	SALINE (FEN)	56.573903999999998859493643976747989654541015625	-111.277773999999993748133420012891292572021484375	HOBO Rain Gauge Data Logger - RG3	HOBO Temperature/RH Smart Sensor (S-THB-M002)	Soil Moisture Smart Sensor - EC5 (S-SMC-M005)	2019-09-15T03:00:01	0.00	9.756	87.000	0.6060	7.7
3041	AB07CD0350	WETLAND SAL01	SALINE (FEN)	56.573903999999998859493643976747989654541015625	-111.277773999999993748133420012891292572021484375	HOBO Rain Gauge Data Logger - RG3	HOBO Temperature/RH Smart Sensor (S-THB-M002)	Soil Moisture Smart Sensor - EC5 (S-SMC-M005)	2019-09-15T04:00:01	0.00	9.040	89.800	0.6060	7.5
3042	AB07CD0350	WETLAND SAL01	SALINE (FEN)	56.573903999999998859493643976747989654541015625	-111.277773999999993748133420012891292572021484375	HOBO Rain Gauge Data Logger - RG3	HOBO Temperature/RH Smart Sensor (S-THB-M002)	Soil Moisture Smart Sensor - EC5 (S-SMC-M005)	2019-09-15T05:00:01	0.00	7.393	91.000	0.6060	6.0
3043	AB07CD0350	WETLAND SAL01	SALINE (FEN)	56.573903999999998859493643976747989654541015625	-111.277773999999993748133420012891292572021484375	HOBO Rain Gauge Data Logger - RG3	HOBO Temperature/RH Smart Sensor (S-THB-M002)	Soil Moisture Smart Sensor - EC5 (S-SMC-M005)	2019-09-15T06:00:01	0.00	6.230	93.100	0.6060	5.2
3044	AB07CD0350	WETLAND SAL01	SALINE (FEN)	56.573903999999998859493643976747989654541015625	-111.277773999999993748133420012891292572021484375	HOBO Rain Gauge Data Logger - RG3	HOBO Temperature/RH Smart Sensor (S-THB-M002)	Soil Moisture Smart Sensor - EC5 (S-SMC-M005)	2019-09-15T07:00:01	0.00	5.128	94.700	0.6060	4.4
3045	AB07CD0350	WETLAND SAL01	SALINE (FEN)	56.573903999999998859493643976747989654541015625	-111.277773999999993748133420012891292572021484375	HOBO Rain Gauge Data Logger - RG3	HOBO Temperature/RH Smart Sensor (S-THB-M002)	Soil Moisture Smart Sensor - EC5 (S-SMC-M005)	2019-09-15T08:00:01	0.00	6.763	95.400	0.6060	6.1
3046	AB07CD0350	WETLAND SAL01	SALINE (FEN)	56.573903999999998859493643976747989654541015625	-111.277773999999993748133420012891292572021484375	HOBO Rain Gauge Data Logger - RG3	HOBO Temperature/RH Smart Sensor (S-THB-M002)	Soil Moisture Smart Sensor - EC5 (S-SMC-M005)	2019-09-15T09:00:01	0.00	9.854	95.500	0.6060	9.2
3047	AB07CD0350	WETLAND SAL01	SALINE (FEN)	56.573903999999998859493643976747989654541015625	-111.277773999999993748133420012891292572021484375	HOBO Rain Gauge Data Logger - RG3	HOBO Temperature/RH Smart Sensor (S-THB-M002)	Soil Moisture Smart Sensor - EC5 (S-SMC-M005)	2019-09-15T10:00:01	0.00	12.219	91.800	0.6060	10.9
3048	AB07CD0350	WETLAND SAL01	SALINE (FEN)	56.573903999999998859493643976747989654541015625	-111.277773999999993748133420012891292572021484375	HOBO Rain Gauge Data Logger - RG3	HOBO Temperature/RH Smart Sensor (S-THB-M002)	Soil Moisture Smart Sensor - EC5 (S-SMC-M005)	2019-09-15T11:00:01	0.00	12.147	84.900	0.6060	9.7
3049	AB07CD0350	WETLAND SAL01	SALINE (FEN)	56.573903999999998859493643976747989654541015625	-111.277773999999993748133420012891292572021484375	HOBO Rain Gauge Data Logger - RG3	HOBO Temperature/RH Smart Sensor (S-THB-M002)	Soil Moisture Smart Sensor - EC5 (S-SMC-M005)	2019-09-15T12:00:01	0.00	13.064	83.500	0.6060	10.3
3050	AB07CD0350	WETLAND SAL01	SALINE (FEN)	56.573903999999998859493643976747989654541015625	-111.277773999999993748133420012891292572021484375	HOBO Rain Gauge Data Logger - RG3	HOBO Temperature/RH Smart Sensor (S-THB-M002)	Soil Moisture Smart Sensor - EC5 (S-SMC-M005)	2019-09-15T13:00:01	0.00	14.625	77.200	0.6060	10.7
3051	AB07CD0350	WETLAND SAL01	SALINE (FEN)	56.573903999999998859493643976747989654541015625	-111.277773999999993748133420012891292572021484375	HOBO Rain Gauge Data Logger - RG3	HOBO Temperature/RH Smart Sensor (S-THB-M002)	Soil Moisture Smart Sensor - EC5 (S-SMC-M005)	2019-09-15T14:00:01	0.00	15.796	71.800	0.6060	10.7
3052	AB07CD0350	WETLAND SAL01	SALINE (FEN)	56.573903999999998859493643976747989654541015625	-111.277773999999993748133420012891292572021484375	HOBO Rain Gauge Data Logger - RG3	HOBO Temperature/RH Smart Sensor (S-THB-M002)	Soil Moisture Smart Sensor - EC5 (S-SMC-M005)	2019-09-15T15:00:01	0.00	17.629	66.400	0.6060	11.3
3053	AB07CD0350	WETLAND SAL01	SALINE (FEN)	56.573903999999998859493643976747989654541015625	-111.277773999999993748133420012891292572021484375	HOBO Rain Gauge Data Logger - RG3	HOBO Temperature/RH Smart Sensor (S-THB-M002)	Soil Moisture Smart Sensor - EC5 (S-SMC-M005)	2019-09-15T16:00:01	0.00	17.605	64.500	0.6060	10.8
3054	AB07CD0350	WETLAND SAL01	SALINE (FEN)	56.573903999999998859493643976747989654541015625	-111.277773999999993748133420012891292572021484375	HOBO Rain Gauge Data Logger - RG3	HOBO Temperature/RH Smart Sensor (S-THB-M002)	Soil Moisture Smart Sensor - EC5 (S-SMC-M005)	2019-09-15T17:00:01	0.00	17.938	63.200	0.6053	10.9
3055	AB07CD0350	WETLAND SAL01	SALINE (FEN)	56.573903999999998859493643976747989654541015625	-111.277773999999993748133420012891292572021484375	HOBO Rain Gauge Data Logger - RG3	HOBO Temperature/RH Smart Sensor (S-THB-M002)	Soil Moisture Smart Sensor - EC5 (S-SMC-M005)	2019-09-15T18:00:01	0.00	17.391	66.700	0.6053	11.2
3056	AB07CD0350	WETLAND SAL01	SALINE (FEN)	56.573903999999998859493643976747989654541015625	-111.277773999999993748133420012891292572021484375	HOBO Rain Gauge Data Logger - RG3	HOBO Temperature/RH Smart Sensor (S-THB-M002)	Soil Moisture Smart Sensor - EC5 (S-SMC-M005)	2019-09-15T19:00:01	0.00	15.891	73.700	0.6053	11.2
3057	AB07CD0350	WETLAND SAL01	SALINE (FEN)	56.573903999999998859493643976747989654541015625	-111.277773999999993748133420012891292572021484375	HOBO Rain Gauge Data Logger - RG3	HOBO Temperature/RH Smart Sensor (S-THB-M002)	Soil Moisture Smart Sensor - EC5 (S-SMC-M005)	2019-09-15T20:00:01	0.00	13.858	80.600	0.6053	10.6
3058	AB07CD0350	WETLAND SAL01	SALINE (FEN)	56.573903999999998859493643976747989654541015625	-111.277773999999993748133420012891292572021484375	HOBO Rain Gauge Data Logger - RG3	HOBO Temperature/RH Smart Sensor (S-THB-M002)	Soil Moisture Smart Sensor - EC5 (S-SMC-M005)	2019-09-15T21:00:01	0.00	12.727	85.600	0.6053	10.4
3059	AB07CD0350	WETLAND SAL01	SALINE (FEN)	56.573903999999998859493643976747989654541015625	-111.277773999999993748133420012891292572021484375	HOBO Rain Gauge Data Logger - RG3	HOBO Temperature/RH Smart Sensor (S-THB-M002)	Soil Moisture Smart Sensor - EC5 (S-SMC-M005)	2019-09-15T22:00:01	0.00	11.273	89.400	0.6053	9.6
3060	AB07CD0350	WETLAND SAL01	SALINE (FEN)	56.573903999999998859493643976747989654541015625	-111.277773999999993748133420012891292572021484375	HOBO Rain Gauge Data Logger - RG3	HOBO Temperature/RH Smart Sensor (S-THB-M002)	Soil Moisture Smart Sensor - EC5 (S-SMC-M005)	2019-09-15T23:00:01	0.00	9.731	92.400	0.6053	8.6
3061	AB07CD0350	WETLAND SAL01	SALINE (FEN)	56.573903999999998859493643976747989654541015625	-111.277773999999993748133420012891292572021484375	HOBO Rain Gauge Data Logger - RG3	HOBO Temperature/RH Smart Sensor (S-THB-M002)	Soil Moisture Smart Sensor - EC5 (S-SMC-M005)	2019-09-16T00:00:01	0.00	9.977	94.200	0.6053	9.1
3062	AB07CD0350	WETLAND SAL01	SALINE (FEN)	56.573903999999998859493643976747989654541015625	-111.277773999999993748133420012891292572021484375	HOBO Rain Gauge Data Logger - RG3	HOBO Temperature/RH Smart Sensor (S-THB-M002)	Soil Moisture Smart Sensor - EC5 (S-SMC-M005)	2019-09-16T01:00:01	0.00	8.792	94.800	0.6053	8.0
3063	AB07CD0350	WETLAND SAL01	SALINE (FEN)	56.573903999999998859493643976747989654541015625	-111.277773999999993748133420012891292572021484375	HOBO Rain Gauge Data Logger - RG3	HOBO Temperature/RH Smart Sensor (S-THB-M002)	Soil Moisture Smart Sensor - EC5 (S-SMC-M005)	2019-09-16T02:00:01	0.00	11.029	94.500	0.6053	10.2
3064	AB07CD0350	WETLAND SAL01	SALINE (FEN)	56.573903999999998859493643976747989654541015625	-111.277773999999993748133420012891292572021484375	HOBO Rain Gauge Data Logger - RG3	HOBO Temperature/RH Smart Sensor (S-THB-M002)	Soil Moisture Smart Sensor - EC5 (S-SMC-M005)	2019-09-16T03:00:01	0.00	12.703	86.500	0.6060	10.5
3065	AB07CD0350	WETLAND SAL01	SALINE (FEN)	56.573903999999998859493643976747989654541015625	-111.277773999999993748133420012891292572021484375	HOBO Rain Gauge Data Logger - RG3	HOBO Temperature/RH Smart Sensor (S-THB-M002)	Soil Moisture Smart Sensor - EC5 (S-SMC-M005)	2019-09-16T04:00:01	0.00	13.161	82.100	0.6060	10.2
3066	AB07CD0350	WETLAND SAL01	SALINE (FEN)	56.573903999999998859493643976747989654541015625	-111.277773999999993748133420012891292572021484375	HOBO Rain Gauge Data Logger - RG3	HOBO Temperature/RH Smart Sensor (S-THB-M002)	Soil Moisture Smart Sensor - EC5 (S-SMC-M005)	2019-09-16T05:00:01	0.00	13.546	80.700	0.6060	10.3
3067	AB07CD0350	WETLAND SAL01	SALINE (FEN)	56.573903999999998859493643976747989654541015625	-111.277773999999993748133420012891292572021484375	HOBO Rain Gauge Data Logger - RG3	HOBO Temperature/RH Smart Sensor (S-THB-M002)	Soil Moisture Smart Sensor - EC5 (S-SMC-M005)	2019-09-16T06:00:01	0.00	12.968	79.500	0.6060	9.5
3068	AB07CD0350	WETLAND SAL01	SALINE (FEN)	56.573903999999998859493643976747989654541015625	-111.277773999999993748133420012891292572021484375	HOBO Rain Gauge Data Logger - RG3	HOBO Temperature/RH Smart Sensor (S-THB-M002)	Soil Moisture Smart Sensor - EC5 (S-SMC-M005)	2019-09-16T07:00:01	0.00	12.219	83.600	0.6060	9.5
3069	AB07CD0350	WETLAND SAL01	SALINE (FEN)	56.573903999999998859493643976747989654541015625	-111.277773999999993748133420012891292572021484375	HOBO Rain Gauge Data Logger - RG3	HOBO Temperature/RH Smart Sensor (S-THB-M002)	Soil Moisture Smart Sensor - EC5 (S-SMC-M005)	2019-09-16T08:00:01	0.00	11.516	86.000	0.6060	9.3
3070	AB07CD0350	WETLAND SAL01	SALINE (FEN)	56.573903999999998859493643976747989654541015625	-111.277773999999993748133420012891292572021484375	HOBO Rain Gauge Data Logger - RG3	HOBO Temperature/RH Smart Sensor (S-THB-M002)	Soil Moisture Smart Sensor - EC5 (S-SMC-M005)	2019-09-16T09:00:01	0.00	13.377	86.600	0.6060	11.2
3071	AB07CD0350	WETLAND SAL01	SALINE (FEN)	56.573903999999998859493643976747989654541015625	-111.277773999999993748133420012891292572021484375	HOBO Rain Gauge Data Logger - RG3	HOBO Temperature/RH Smart Sensor (S-THB-M002)	Soil Moisture Smart Sensor - EC5 (S-SMC-M005)	2019-09-16T10:00:01	0.00	15.414	82.800	0.6060	12.5
3072	AB07CD0350	WETLAND SAL01	SALINE (FEN)	56.573903999999998859493643976747989654541015625	-111.277773999999993748133420012891292572021484375	HOBO Rain Gauge Data Logger - RG3	HOBO Temperature/RH Smart Sensor (S-THB-M002)	Soil Moisture Smart Sensor - EC5 (S-SMC-M005)	2019-09-16T11:00:01	0.00	17.629	69.700	0.6060	12.0
3073	AB07CD0350	WETLAND SAL01	SALINE (FEN)	56.573903999999998859493643976747989654541015625	-111.277773999999993748133420012891292572021484375	HOBO Rain Gauge Data Logger - RG3	HOBO Temperature/RH Smart Sensor (S-THB-M002)	Soil Moisture Smart Sensor - EC5 (S-SMC-M005)	2019-09-16T12:00:01	0.00	17.034	68.400	0.6060	11.2
3074	AB07CD0350	WETLAND SAL01	SALINE (FEN)	56.573903999999998859493643976747989654541015625	-111.277773999999993748133420012891292572021484375	HOBO Rain Gauge Data Logger - RG3	HOBO Temperature/RH Smart Sensor (S-THB-M002)	Soil Moisture Smart Sensor - EC5 (S-SMC-M005)	2019-09-16T13:00:01	0.00	16.820	68.500	0.6060	11.0
3075	AB07CD0350	WETLAND SAL01	SALINE (FEN)	56.573903999999998859493643976747989654541015625	-111.277773999999993748133420012891292572021484375	HOBO Rain Gauge Data Logger - RG3	HOBO Temperature/RH Smart Sensor (S-THB-M002)	Soil Moisture Smart Sensor - EC5 (S-SMC-M005)	2019-09-16T14:00:01	0.00	19.246	66.600	0.6060	12.9
3076	AB07CD0350	WETLAND SAL01	SALINE (FEN)	56.573903999999998859493643976747989654541015625	-111.277773999999993748133420012891292572021484375	HOBO Rain Gauge Data Logger - RG3	HOBO Temperature/RH Smart Sensor (S-THB-M002)	Soil Moisture Smart Sensor - EC5 (S-SMC-M005)	2019-09-16T15:00:01	0.00	18.818	60.800	0.6060	11.1
3077	AB07CD0350	WETLAND SAL01	SALINE (FEN)	56.573903999999998859493643976747989654541015625	-111.277773999999993748133420012891292572021484375	HOBO Rain Gauge Data Logger - RG3	HOBO Temperature/RH Smart Sensor (S-THB-M002)	Soil Moisture Smart Sensor - EC5 (S-SMC-M005)	2019-09-16T16:00:01	0.00	18.604	56.000	0.6053	9.7
3078	AB07CD0350	WETLAND SAL01	SALINE (FEN)	56.573903999999998859493643976747989654541015625	-111.277773999999993748133420012891292572021484375	HOBO Rain Gauge Data Logger - RG3	HOBO Temperature/RH Smart Sensor (S-THB-M002)	Soil Moisture Smart Sensor - EC5 (S-SMC-M005)	2019-09-16T17:00:01	0.00	18.224	56.400	0.6060	9.4
3079	AB07CD0350	WETLAND SAL01	SALINE (FEN)	56.573903999999998859493643976747989654541015625	-111.277773999999993748133420012891292572021484375	HOBO Rain Gauge Data Logger - RG3	HOBO Temperature/RH Smart Sensor (S-THB-M002)	Soil Moisture Smart Sensor - EC5 (S-SMC-M005)	2019-09-16T18:00:01	0.00	18.081	60.500	0.6053	10.3
3080	AB07CD0350	WETLAND SAL01	SALINE (FEN)	56.573903999999998859493643976747989654541015625	-111.277773999999993748133420012891292572021484375	HOBO Rain Gauge Data Logger - RG3	HOBO Temperature/RH Smart Sensor (S-THB-M002)	Soil Moisture Smart Sensor - EC5 (S-SMC-M005)	2019-09-16T19:00:01	0.00	15.390	63.100	0.6060	8.4
3081	AB07CD0350	WETLAND SAL01	SALINE (FEN)	56.573903999999998859493643976747989654541015625	-111.277773999999993748133420012891292572021484375	HOBO Rain Gauge Data Logger - RG3	HOBO Temperature/RH Smart Sensor (S-THB-M002)	Soil Moisture Smart Sensor - EC5 (S-SMC-M005)	2019-09-16T20:00:01	0.00	12.219	68.900	0.6060	6.7
3082	AB07CD0350	WETLAND SAL01	SALINE (FEN)	56.573903999999998859493643976747989654541015625	-111.277773999999993748133420012891292572021484375	HOBO Rain Gauge Data Logger - RG3	HOBO Temperature/RH Smart Sensor (S-THB-M002)	Soil Moisture Smart Sensor - EC5 (S-SMC-M005)	2019-09-16T21:00:01	0.00	12.992	79.100	0.6060	9.5
3083	AB07CD0350	WETLAND SAL01	SALINE (FEN)	56.573903999999998859493643976747989654541015625	-111.277773999999993748133420012891292572021484375	HOBO Rain Gauge Data Logger - RG3	HOBO Temperature/RH Smart Sensor (S-THB-M002)	Soil Moisture Smart Sensor - EC5 (S-SMC-M005)	2019-09-16T22:00:01	0.00	12.074	77.500	0.6060	8.3
3084	AB07CD0350	WETLAND SAL01	SALINE (FEN)	56.573903999999998859493643976747989654541015625	-111.277773999999993748133420012891292572021484375	HOBO Rain Gauge Data Logger - RG3	HOBO Temperature/RH Smart Sensor (S-THB-M002)	Soil Moisture Smart Sensor - EC5 (S-SMC-M005)	2019-09-16T23:00:01	0.00	11.759	78.000	0.6060	8.1
3085	AB07CD0350	WETLAND SAL01	SALINE (FEN)	56.573903999999998859493643976747989654541015625	-111.277773999999993748133420012891292572021484375	HOBO Rain Gauge Data Logger - RG3	HOBO Temperature/RH Smart Sensor (S-THB-M002)	Soil Moisture Smart Sensor - EC5 (S-SMC-M005)	2019-09-17T00:00:01	0.00	9.410	80.400	0.6060	6.2
3086	AB07CD0350	WETLAND SAL01	SALINE (FEN)	56.573903999999998859493643976747989654541015625	-111.277773999999993748133420012891292572021484375	HOBO Rain Gauge Data Logger - RG3	HOBO Temperature/RH Smart Sensor (S-THB-M002)	Soil Moisture Smart Sensor - EC5 (S-SMC-M005)	2019-09-17T01:00:01	0.00	9.558	86.500	0.6060	7.4
3087	AB07CD0350	WETLAND SAL01	SALINE (FEN)	56.573903999999998859493643976747989654541015625	-111.277773999999993748133420012891292572021484375	HOBO Rain Gauge Data Logger - RG3	HOBO Temperature/RH Smart Sensor (S-THB-M002)	Soil Moisture Smart Sensor - EC5 (S-SMC-M005)	2019-09-17T02:00:01	0.00	8.916	85.100	0.6060	6.6
3088	AB07CD0350	WETLAND SAL01	SALINE (FEN)	56.573903999999998859493643976747989654541015625	-111.277773999999993748133420012891292572021484375	HOBO Rain Gauge Data Logger - RG3	HOBO Temperature/RH Smart Sensor (S-THB-M002)	Soil Moisture Smart Sensor - EC5 (S-SMC-M005)	2019-09-17T03:00:01	0.00	7.217	88.000	0.6068	5.4
3089	AB07CD0350	WETLAND SAL01	SALINE (FEN)	56.573903999999998859493643976747989654541015625	-111.277773999999993748133420012891292572021484375	HOBO Rain Gauge Data Logger - RG3	HOBO Temperature/RH Smart Sensor (S-THB-M002)	Soil Moisture Smart Sensor - EC5 (S-SMC-M005)	2019-09-17T04:00:01	0.00	7.041	90.800	0.6068	5.6
3090	AB07CD0350	WETLAND SAL01	SALINE (FEN)	56.573903999999998859493643976747989654541015625	-111.277773999999993748133420012891292572021484375	HOBO Rain Gauge Data Logger - RG3	HOBO Temperature/RH Smart Sensor (S-THB-M002)	Soil Moisture Smart Sensor - EC5 (S-SMC-M005)	2019-09-17T05:00:01	0.00	6.255	92.300	0.6068	5.1
3091	AB07CD0350	WETLAND SAL01	SALINE (FEN)	56.573903999999998859493643976747989654541015625	-111.277773999999993748133420012891292572021484375	HOBO Rain Gauge Data Logger - RG3	HOBO Temperature/RH Smart Sensor (S-THB-M002)	Soil Moisture Smart Sensor - EC5 (S-SMC-M005)	2019-09-17T06:00:01	0.00	6.179	93.100	0.6068	5.2
3092	AB07CD0350	WETLAND SAL01	SALINE (FEN)	56.573903999999998859493643976747989654541015625	-111.277773999999993748133420012891292572021484375	HOBO Rain Gauge Data Logger - RG3	HOBO Temperature/RH Smart Sensor (S-THB-M002)	Soil Moisture Smart Sensor - EC5 (S-SMC-M005)	2019-09-17T07:00:01	0.00	5.360	93.200	0.6068	4.4
3093	AB07CD0350	WETLAND SAL01	SALINE (FEN)	56.573903999999998859493643976747989654541015625	-111.277773999999993748133420012891292572021484375	HOBO Rain Gauge Data Logger - RG3	HOBO Temperature/RH Smart Sensor (S-THB-M002)	Soil Moisture Smart Sensor - EC5 (S-SMC-M005)	2019-09-17T08:00:01	0.00	5.128	94.500	0.6068	4.3
3094	AB07CD0350	WETLAND SAL01	SALINE (FEN)	56.573903999999998859493643976747989654541015625	-111.277773999999993748133420012891292572021484375	HOBO Rain Gauge Data Logger - RG3	HOBO Temperature/RH Smart Sensor (S-THB-M002)	Soil Moisture Smart Sensor - EC5 (S-SMC-M005)	2019-09-17T09:00:01	0.00	9.015	93.500	0.6060	8.0
3095	AB07CD0350	WETLAND SAL01	SALINE (FEN)	56.573903999999998859493643976747989654541015625	-111.277773999999993748133420012891292572021484375	HOBO Rain Gauge Data Logger - RG3	HOBO Temperature/RH Smart Sensor (S-THB-M002)	Soil Moisture Smart Sensor - EC5 (S-SMC-M005)	2019-09-17T10:00:01	0.00	11.516	85.200	0.6068	9.1
3096	AB07CD0350	WETLAND SAL01	SALINE (FEN)	56.573903999999998859493643976747989654541015625	-111.277773999999993748133420012891292572021484375	HOBO Rain Gauge Data Logger - RG3	HOBO Temperature/RH Smart Sensor (S-THB-M002)	Soil Moisture Smart Sensor - EC5 (S-SMC-M005)	2019-09-17T11:00:01	0.00	13.281	74.300	0.6060	8.8
3097	AB07CD0350	WETLAND SAL01	SALINE (FEN)	56.573903999999998859493643976747989654541015625	-111.277773999999993748133420012891292572021484375	HOBO Rain Gauge Data Logger - RG3	HOBO Temperature/RH Smart Sensor (S-THB-M002)	Soil Moisture Smart Sensor - EC5 (S-SMC-M005)	2019-09-17T12:00:01	0.00	13.666	67.300	0.6060	7.7
3098	AB07CD0350	WETLAND SAL01	SALINE (FEN)	56.573903999999998859493643976747989654541015625	-111.277773999999993748133420012891292572021484375	HOBO Rain Gauge Data Logger - RG3	HOBO Temperature/RH Smart Sensor (S-THB-M002)	Soil Moisture Smart Sensor - EC5 (S-SMC-M005)	2019-09-17T13:00:01	0.00	14.745	64.100	0.6060	8.0
3099	AB07CD0350	WETLAND SAL01	SALINE (FEN)	56.573903999999998859493643976747989654541015625	-111.277773999999993748133420012891292572021484375	HOBO Rain Gauge Data Logger - RG3	HOBO Temperature/RH Smart Sensor (S-THB-M002)	Soil Moisture Smart Sensor - EC5 (S-SMC-M005)	2019-09-17T14:00:01	0.00	17.439	54.600	0.6060	8.2
3100	AB07CD0350	WETLAND SAL01	SALINE (FEN)	56.573903999999998859493643976747989654541015625	-111.277773999999993748133420012891292572021484375	HOBO Rain Gauge Data Logger - RG3	HOBO Temperature/RH Smart Sensor (S-THB-M002)	Soil Moisture Smart Sensor - EC5 (S-SMC-M005)	2019-09-17T15:00:01	0.00	17.629	48.900	0.6060	6.8
3101	AB07CD0350	WETLAND SAL01	SALINE (FEN)	56.573903999999998859493643976747989654541015625	-111.277773999999993748133420012891292572021484375	HOBO Rain Gauge Data Logger - RG3	HOBO Temperature/RH Smart Sensor (S-THB-M002)	Soil Moisture Smart Sensor - EC5 (S-SMC-M005)	2019-09-17T16:00:01	0.00	17.558	47.600	0.6060	6.3
3102	AB07CD0350	WETLAND SAL01	SALINE (FEN)	56.573903999999998859493643976747989654541015625	-111.277773999999993748133420012891292572021484375	HOBO Rain Gauge Data Logger - RG3	HOBO Temperature/RH Smart Sensor (S-THB-M002)	Soil Moisture Smart Sensor - EC5 (S-SMC-M005)	2019-09-17T17:00:01	0.00	17.629	45.700	0.6060	5.8
3103	AB07CD0350	WETLAND SAL01	SALINE (FEN)	56.573903999999998859493643976747989654541015625	-111.277773999999993748133420012891292572021484375	HOBO Rain Gauge Data Logger - RG3	HOBO Temperature/RH Smart Sensor (S-THB-M002)	Soil Moisture Smart Sensor - EC5 (S-SMC-M005)	2019-09-17T18:00:01	0.00	17.177	45.700	0.6060	5.4
3104	AB07CD0350	WETLAND SAL01	SALINE (FEN)	56.573903999999998859493643976747989654541015625	-111.277773999999993748133420012891292572021484375	HOBO Rain Gauge Data Logger - RG3	HOBO Temperature/RH Smart Sensor (S-THB-M002)	Soil Moisture Smart Sensor - EC5 (S-SMC-M005)	2019-09-17T19:00:01	0.00	15.986	47.100	0.6060	4.7
3105	AB07CD0350	WETLAND SAL01	SALINE (FEN)	56.573903999999998859493643976747989654541015625	-111.277773999999993748133420012891292572021484375	HOBO Rain Gauge Data Logger - RG3	HOBO Temperature/RH Smart Sensor (S-THB-M002)	Soil Moisture Smart Sensor - EC5 (S-SMC-M005)	2019-09-17T20:00:01	0.00	8.990	64.600	0.6060	2.7
3106	AB07CD0350	WETLAND SAL01	SALINE (FEN)	56.573903999999998859493643976747989654541015625	-111.277773999999993748133420012891292572021484375	HOBO Rain Gauge Data Logger - RG3	HOBO Temperature/RH Smart Sensor (S-THB-M002)	Soil Moisture Smart Sensor - EC5 (S-SMC-M005)	2019-09-17T21:00:01	0.00	5.898	83.200	0.6060	3.3
3107	AB07CD0350	WETLAND SAL01	SALINE (FEN)	56.573903999999998859493643976747989654541015625	-111.277773999999993748133420012891292572021484375	HOBO Rain Gauge Data Logger - RG3	HOBO Temperature/RH Smart Sensor (S-THB-M002)	Soil Moisture Smart Sensor - EC5 (S-SMC-M005)	2019-09-17T22:00:01	0.00	4.584	87.200	0.6060	2.6
3108	AB07CD0350	WETLAND SAL01	SALINE (FEN)	56.573903999999998859493643976747989654541015625	-111.277773999999993748133420012891292572021484375	HOBO Rain Gauge Data Logger - RG3	HOBO Temperature/RH Smart Sensor (S-THB-M002)	Soil Moisture Smart Sensor - EC5 (S-SMC-M005)	2019-09-17T23:00:01	0.00	3.036	89.700	0.6060	1.5
3109	AB07CD0350	WETLAND SAL01	SALINE (FEN)	56.573903999999998859493643976747989654541015625	-111.277773999999993748133420012891292572021484375	HOBO Rain Gauge Data Logger - RG3	HOBO Temperature/RH Smart Sensor (S-THB-M002)	Soil Moisture Smart Sensor - EC5 (S-SMC-M005)	2019-09-18T00:00:01	0.00	2.262	92.100	0.6060	1.1
3110	AB07CD0350	WETLAND SAL01	SALINE (FEN)	56.573903999999998859493643976747989654541015625	-111.277773999999993748133420012891292572021484375	HOBO Rain Gauge Data Logger - RG3	HOBO Temperature/RH Smart Sensor (S-THB-M002)	Soil Moisture Smart Sensor - EC5 (S-SMC-M005)	2019-09-18T01:00:01	0.00	2.047	92.800	0.6060	1.0
3111	AB07CD0350	WETLAND SAL01	SALINE (FEN)	56.573903999999998859493643976747989654541015625	-111.277773999999993748133420012891292572021484375	HOBO Rain Gauge Data Logger - RG3	HOBO Temperature/RH Smart Sensor (S-THB-M002)	Soil Moisture Smart Sensor - EC5 (S-SMC-M005)	2019-09-18T02:00:01	0.00	0.522	93.700	0.6060	-0.4
3112	AB07CD0350	WETLAND SAL01	SALINE (FEN)	56.573903999999998859493643976747989654541015625	-111.277773999999993748133420012891292572021484375	HOBO Rain Gauge Data Logger - RG3	HOBO Temperature/RH Smart Sensor (S-THB-M002)	Soil Moisture Smart Sensor - EC5 (S-SMC-M005)	2019-09-18T03:00:01	0.00	0.051	94.400	0.6060	-0.7
3113	AB07CD0350	WETLAND SAL01	SALINE (FEN)	56.573903999999998859493643976747989654541015625	-111.277773999999993748133420012891292572021484375	HOBO Rain Gauge Data Logger - RG3	HOBO Temperature/RH Smart Sensor (S-THB-M002)	Soil Moisture Smart Sensor - EC5 (S-SMC-M005)	2019-09-18T04:00:01	0.00	-0.171	95.000	0.6060	-0.9
3114	AB07CD0350	WETLAND SAL01	SALINE (FEN)	56.573903999999998859493643976747989654541015625	-111.277773999999993748133420012891292572021484375	HOBO Rain Gauge Data Logger - RG3	HOBO Temperature/RH Smart Sensor (S-THB-M002)	Soil Moisture Smart Sensor - EC5 (S-SMC-M005)	2019-09-18T05:00:01	0.00	-0.311	95.300	0.6060	-1.0
3115	AB07CD0350	WETLAND SAL01	SALINE (FEN)	56.573903999999998859493643976747989654541015625	-111.277773999999993748133420012891292572021484375	HOBO Rain Gauge Data Logger - RG3	HOBO Temperature/RH Smart Sensor (S-THB-M002)	Soil Moisture Smart Sensor - EC5 (S-SMC-M005)	2019-09-18T06:00:01	0.00	-0.591	95.700	0.6060	-1.2
3116	AB07CD0350	WETLAND SAL01	SALINE (FEN)	56.573903999999998859493643976747989654541015625	-111.277773999999993748133420012891292572021484375	HOBO Rain Gauge Data Logger - RG3	HOBO Temperature/RH Smart Sensor (S-THB-M002)	Soil Moisture Smart Sensor - EC5 (S-SMC-M005)	2019-09-18T07:00:01	0.00	-0.116	95.900	0.6060	-0.7
3117	AB07CD0350	WETLAND SAL01	SALINE (FEN)	56.573903999999998859493643976747989654541015625	-111.277773999999993748133420012891292572021484375	HOBO Rain Gauge Data Logger - RG3	HOBO Temperature/RH Smart Sensor (S-THB-M002)	Soil Moisture Smart Sensor - EC5 (S-SMC-M005)	2019-09-18T08:00:01	0.00	2.423	95.800	0.6060	1.8
3118	AB07CD0350	WETLAND SAL01	SALINE (FEN)	56.573903999999998859493643976747989654541015625	-111.277773999999993748133420012891292572021484375	HOBO Rain Gauge Data Logger - RG3	HOBO Temperature/RH Smart Sensor (S-THB-M002)	Soil Moisture Smart Sensor - EC5 (S-SMC-M005)	2019-09-18T09:00:01	0.00	4.947	94.200	0.6053	4.1
3119	AB07CD0350	WETLAND SAL01	SALINE (FEN)	56.573903999999998859493643976747989654541015625	-111.277773999999993748133420012891292572021484375	HOBO Rain Gauge Data Logger - RG3	HOBO Temperature/RH Smart Sensor (S-THB-M002)	Soil Moisture Smart Sensor - EC5 (S-SMC-M005)	2019-09-18T10:00:01	0.00	11.540	86.100	0.6053	9.3
3120	AB07CD0350	WETLAND SAL01	SALINE (FEN)	56.573903999999998859493643976747989654541015625	-111.277773999999993748133420012891292572021484375	HOBO Rain Gauge Data Logger - RG3	HOBO Temperature/RH Smart Sensor (S-THB-M002)	Soil Moisture Smart Sensor - EC5 (S-SMC-M005)	2019-09-18T11:00:01	0.00	15.605	69.100	0.6053	10.0
3121	AB07CD0350	WETLAND SAL01	SALINE (FEN)	56.573903999999998859493643976747989654541015625	-111.277773999999993748133420012891292572021484375	HOBO Rain Gauge Data Logger - RG3	HOBO Temperature/RH Smart Sensor (S-THB-M002)	Soil Moisture Smart Sensor - EC5 (S-SMC-M005)	2019-09-18T12:00:01	0.00	16.915	57.000	0.6053	8.4
3122	AB07CD0350	WETLAND SAL01	SALINE (FEN)	56.573903999999998859493643976747989654541015625	-111.277773999999993748133420012891292572021484375	HOBO Rain Gauge Data Logger - RG3	HOBO Temperature/RH Smart Sensor (S-THB-M002)	Soil Moisture Smart Sensor - EC5 (S-SMC-M005)	2019-09-18T13:00:01	0.00	18.652	50.300	0.6046	8.1
3123	AB07CD0350	WETLAND SAL01	SALINE (FEN)	56.573903999999998859493643976747989654541015625	-111.277773999999993748133420012891292572021484375	HOBO Rain Gauge Data Logger - RG3	HOBO Temperature/RH Smart Sensor (S-THB-M002)	Soil Moisture Smart Sensor - EC5 (S-SMC-M005)	2019-09-18T14:00:01	0.00	18.247	48.100	0.6046	7.1
3124	AB07CD0350	WETLAND SAL01	SALINE (FEN)	56.573903999999998859493643976747989654541015625	-111.277773999999993748133420012891292572021484375	HOBO Rain Gauge Data Logger - RG3	HOBO Temperature/RH Smart Sensor (S-THB-M002)	Soil Moisture Smart Sensor - EC5 (S-SMC-M005)	2019-09-18T15:00:01	0.00	18.390	46.300	0.6046	6.7
3125	AB07CD0350	WETLAND SAL01	SALINE (FEN)	56.573903999999998859493643976747989654541015625	-111.277773999999993748133420012891292572021484375	HOBO Rain Gauge Data Logger - RG3	HOBO Temperature/RH Smart Sensor (S-THB-M002)	Soil Moisture Smart Sensor - EC5 (S-SMC-M005)	2019-09-18T16:00:01	0.00	19.270	42.100	0.6046	6.1
3126	AB07CD0350	WETLAND SAL01	SALINE (FEN)	56.573903999999998859493643976747989654541015625	-111.277773999999993748133420012891292572021484375	HOBO Rain Gauge Data Logger - RG3	HOBO Temperature/RH Smart Sensor (S-THB-M002)	Soil Moisture Smart Sensor - EC5 (S-SMC-M005)	2019-09-18T17:00:01	0.00	18.033	45.400	0.6046	6.1
3127	AB07CD0350	WETLAND SAL01	SALINE (FEN)	56.573903999999998859493643976747989654541015625	-111.277773999999993748133420012891292572021484375	HOBO Rain Gauge Data Logger - RG3	HOBO Temperature/RH Smart Sensor (S-THB-M002)	Soil Moisture Smart Sensor - EC5 (S-SMC-M005)	2019-09-18T18:00:01	0.00	19.270	43.100	0.6046	6.4
3128	AB07CD0350	WETLAND SAL01	SALINE (FEN)	56.573903999999998859493643976747989654541015625	-111.277773999999993748133420012891292572021484375	HOBO Rain Gauge Data Logger - RG3	HOBO Temperature/RH Smart Sensor (S-THB-M002)	Soil Moisture Smart Sensor - EC5 (S-SMC-M005)	2019-09-18T19:00:01	0.00	16.511	44.800	0.6046	4.5
3129	AB07CD0350	WETLAND SAL01	SALINE (FEN)	56.573903999999998859493643976747989654541015625	-111.277773999999993748133420012891292572021484375	HOBO Rain Gauge Data Logger - RG3	HOBO Temperature/RH Smart Sensor (S-THB-M002)	Soil Moisture Smart Sensor - EC5 (S-SMC-M005)	2019-09-18T20:00:01	0.00	9.731	59.000	0.6039	2.1
3130	AB07CD0350	WETLAND SAL01	SALINE (FEN)	56.573903999999998859493643976747989654541015625	-111.277773999999993748133420012891292572021484375	HOBO Rain Gauge Data Logger - RG3	HOBO Temperature/RH Smart Sensor (S-THB-M002)	Soil Moisture Smart Sensor - EC5 (S-SMC-M005)	2019-09-18T21:00:01	0.00	8.990	76.500	0.6046	5.1
3131	AB07CD0350	WETLAND SAL01	SALINE (FEN)	56.573903999999998859493643976747989654541015625	-111.277773999999993748133420012891292572021484375	HOBO Rain Gauge Data Logger - RG3	HOBO Temperature/RH Smart Sensor (S-THB-M002)	Soil Moisture Smart Sensor - EC5 (S-SMC-M005)	2019-09-18T22:00:01	0.00	9.262	73.000	0.6046	4.7
3132	AB07CD0350	WETLAND SAL01	SALINE (FEN)	56.573903999999998859493643976747989654541015625	-111.277773999999993748133420012891292572021484375	HOBO Rain Gauge Data Logger - RG3	HOBO Temperature/RH Smart Sensor (S-THB-M002)	Soil Moisture Smart Sensor - EC5 (S-SMC-M005)	2019-09-18T23:00:01	0.00	8.568	78.200	0.6046	5.0
3133	AB07CD0350	WETLAND SAL01	SALINE (FEN)	56.573903999999998859493643976747989654541015625	-111.277773999999993748133420012891292572021484375	HOBO Rain Gauge Data Logger - RG3	HOBO Temperature/RH Smart Sensor (S-THB-M002)	Soil Moisture Smart Sensor - EC5 (S-SMC-M005)	2019-09-19T00:00:01	0.00	7.670	78.900	0.6046	4.2
3134	AB07CD0350	WETLAND SAL01	SALINE (FEN)	56.573903999999998859493643976747989654541015625	-111.277773999999993748133420012891292572021484375	HOBO Rain Gauge Data Logger - RG3	HOBO Temperature/RH Smart Sensor (S-THB-M002)	Soil Moisture Smart Sensor - EC5 (S-SMC-M005)	2019-09-19T01:00:01	0.00	6.813	82.100	0.6046	4.0
3135	AB07CD0350	WETLAND SAL01	SALINE (FEN)	56.573903999999998859493643976747989654541015625	-111.277773999999993748133420012891292572021484375	HOBO Rain Gauge Data Logger - RG3	HOBO Temperature/RH Smart Sensor (S-THB-M002)	Soil Moisture Smart Sensor - EC5 (S-SMC-M005)	2019-09-19T02:00:01	0.00	4.558	83.400	0.6046	2.0
3136	AB07CD0350	WETLAND SAL01	SALINE (FEN)	56.573903999999998859493643976747989654541015625	-111.277773999999993748133420012891292572021484375	HOBO Rain Gauge Data Logger - RG3	HOBO Temperature/RH Smart Sensor (S-THB-M002)	Soil Moisture Smart Sensor - EC5 (S-SMC-M005)	2019-09-19T03:00:01	0.00	3.142	88.000	0.6046	1.3
3137	AB07CD0350	WETLAND SAL01	SALINE (FEN)	56.573903999999998859493643976747989654541015625	-111.277773999999993748133420012891292572021484375	HOBO Rain Gauge Data Logger - RG3	HOBO Temperature/RH Smart Sensor (S-THB-M002)	Soil Moisture Smart Sensor - EC5 (S-SMC-M005)	2019-09-19T04:00:01	0.00	2.797	91.400	0.6046	1.5
3138	AB07CD0350	WETLAND SAL01	SALINE (FEN)	56.573903999999998859493643976747989654541015625	-111.277773999999993748133420012891292572021484375	HOBO Rain Gauge Data Logger - RG3	HOBO Temperature/RH Smart Sensor (S-THB-M002)	Soil Moisture Smart Sensor - EC5 (S-SMC-M005)	2019-09-19T05:00:01	0.00	1.913	92.600	0.6046	0.8
3139	AB07CD0350	WETLAND SAL01	SALINE (FEN)	56.573903999999998859493643976747989654541015625	-111.277773999999993748133420012891292572021484375	HOBO Rain Gauge Data Logger - RG3	HOBO Temperature/RH Smart Sensor (S-THB-M002)	Soil Moisture Smart Sensor - EC5 (S-SMC-M005)	2019-09-19T06:00:01	0.00	2.047	93.400	0.6046	1.1
3140	AB07CD0350	WETLAND SAL01	SALINE (FEN)	56.573903999999998859493643976747989654541015625	-111.277773999999993748133420012891292572021484375	HOBO Rain Gauge Data Logger - RG3	HOBO Temperature/RH Smart Sensor (S-THB-M002)	Soil Moisture Smart Sensor - EC5 (S-SMC-M005)	2019-09-19T07:00:01	0.00	1.044	94.100	0.6046	0.2
3141	AB07CD0350	WETLAND SAL01	SALINE (FEN)	56.573903999999998859493643976747989654541015625	-111.277773999999993748133420012891292572021484375	HOBO Rain Gauge Data Logger - RG3	HOBO Temperature/RH Smart Sensor (S-THB-M002)	Soil Moisture Smart Sensor - EC5 (S-SMC-M005)	2019-09-19T08:00:01	0.00	4.324	93.900	0.6046	3.4
3142	AB07CD0350	WETLAND SAL01	SALINE (FEN)	56.573903999999998859493643976747989654541015625	-111.277773999999993748133420012891292572021484375	HOBO Rain Gauge Data Logger - RG3	HOBO Temperature/RH Smart Sensor (S-THB-M002)	Soil Moisture Smart Sensor - EC5 (S-SMC-M005)	2019-09-19T09:00:01	0.00	10.394	88.900	0.6046	8.7
3143	AB07CD0350	WETLAND SAL01	SALINE (FEN)	56.573903999999998859493643976747989654541015625	-111.277773999999993748133420012891292572021484375	HOBO Rain Gauge Data Logger - RG3	HOBO Temperature/RH Smart Sensor (S-THB-M002)	Soil Moisture Smart Sensor - EC5 (S-SMC-M005)	2019-09-19T10:00:01	0.00	14.194	75.500	0.6039	9.9
3144	AB07CD0350	WETLAND SAL01	SALINE (FEN)	56.573903999999998859493643976747989654541015625	-111.277773999999993748133420012891292572021484375	HOBO Rain Gauge Data Logger - RG3	HOBO Temperature/RH Smart Sensor (S-THB-M002)	Soil Moisture Smart Sensor - EC5 (S-SMC-M005)	2019-09-19T11:00:01	0.00	17.748	60.400	0.6039	10.0
3145	AB07CD0350	WETLAND SAL01	SALINE (FEN)	56.573903999999998859493643976747989654541015625	-111.277773999999993748133420012891292572021484375	HOBO Rain Gauge Data Logger - RG3	HOBO Temperature/RH Smart Sensor (S-THB-M002)	Soil Moisture Smart Sensor - EC5 (S-SMC-M005)	2019-09-19T12:00:01	0.00	19.912	48.500	0.6039	8.7
3146	AB07CD0350	WETLAND SAL01	SALINE (FEN)	56.573903999999998859493643976747989654541015625	-111.277773999999993748133420012891292572021484375	HOBO Rain Gauge Data Logger - RG3	HOBO Temperature/RH Smart Sensor (S-THB-M002)	Soil Moisture Smart Sensor - EC5 (S-SMC-M005)	2019-09-19T13:00:01	0.00	20.246	43.100	0.6039	7.3
3147	AB07CD0350	WETLAND SAL01	SALINE (FEN)	56.573903999999998859493643976747989654541015625	-111.277773999999993748133420012891292572021484375	HOBO Rain Gauge Data Logger - RG3	HOBO Temperature/RH Smart Sensor (S-THB-M002)	Soil Moisture Smart Sensor - EC5 (S-SMC-M005)	2019-09-19T14:00:01	0.00	20.174	41.700	0.6039	6.8
3148	AB07CD0350	WETLAND SAL01	SALINE (FEN)	56.573903999999998859493643976747989654541015625	-111.277773999999993748133420012891292572021484375	HOBO Rain Gauge Data Logger - RG3	HOBO Temperature/RH Smart Sensor (S-THB-M002)	Soil Moisture Smart Sensor - EC5 (S-SMC-M005)	2019-09-19T15:00:01	0.00	19.413	41.400	0.6031	6.0
3149	AB07CD0350	WETLAND SAL01	SALINE (FEN)	56.573903999999998859493643976747989654541015625	-111.277773999999993748133420012891292572021484375	HOBO Rain Gauge Data Logger - RG3	HOBO Temperature/RH Smart Sensor (S-THB-M002)	Soil Moisture Smart Sensor - EC5 (S-SMC-M005)	2019-09-19T16:00:01	0.00	21.366	40.600	0.6031	7.4
3150	AB07CD0350	WETLAND SAL01	SALINE (FEN)	56.573903999999998859493643976747989654541015625	-111.277773999999993748133420012891292572021484375	HOBO Rain Gauge Data Logger - RG3	HOBO Temperature/RH Smart Sensor (S-THB-M002)	Soil Moisture Smart Sensor - EC5 (S-SMC-M005)	2019-09-19T17:00:01	0.00	21.246	39.400	0.6031	6.9
3151	AB07CD0350	WETLAND SAL01	SALINE (FEN)	56.573903999999998859493643976747989654541015625	-111.277773999999993748133420012891292572021484375	HOBO Rain Gauge Data Logger - RG3	HOBO Temperature/RH Smart Sensor (S-THB-M002)	Soil Moisture Smart Sensor - EC5 (S-SMC-M005)	2019-09-19T18:00:01	0.00	19.508	39.600	0.6031	5.4
3152	AB07CD0350	WETLAND SAL01	SALINE (FEN)	56.573903999999998859493643976747989654541015625	-111.277773999999993748133420012891292572021484375	HOBO Rain Gauge Data Logger - RG3	HOBO Temperature/RH Smart Sensor (S-THB-M002)	Soil Moisture Smart Sensor - EC5 (S-SMC-M005)	2019-09-19T19:00:01	0.00	18.366	43.400	0.6031	5.7
3153	AB07CD0350	WETLAND SAL01	SALINE (FEN)	56.573903999999998859493643976747989654541015625	-111.277773999999993748133420012891292572021484375	HOBO Rain Gauge Data Logger - RG3	HOBO Temperature/RH Smart Sensor (S-THB-M002)	Soil Moisture Smart Sensor - EC5 (S-SMC-M005)	2019-09-19T20:00:01	0.00	13.906	51.200	0.6031	4.0
3154	AB07CD0350	WETLAND SAL01	SALINE (FEN)	56.573903999999998859493643976747989654541015625	-111.277773999999993748133420012891292572021484375	HOBO Rain Gauge Data Logger - RG3	HOBO Temperature/RH Smart Sensor (S-THB-M002)	Soil Moisture Smart Sensor - EC5 (S-SMC-M005)	2019-09-19T21:00:01	0.00	11.904	63.100	0.6031	5.1
3155	AB07CD0350	WETLAND SAL01	SALINE (FEN)	56.573903999999998859493643976747989654541015625	-111.277773999999993748133420012891292572021484375	HOBO Rain Gauge Data Logger - RG3	HOBO Temperature/RH Smart Sensor (S-THB-M002)	Soil Moisture Smart Sensor - EC5 (S-SMC-M005)	2019-09-19T22:00:01	0.00	11.832	68.300	0.6031	6.2
3156	AB07CD0350	WETLAND SAL01	SALINE (FEN)	56.573903999999998859493643976747989654541015625	-111.277773999999993748133420012891292572021484375	HOBO Rain Gauge Data Logger - RG3	HOBO Temperature/RH Smart Sensor (S-THB-M002)	Soil Moisture Smart Sensor - EC5 (S-SMC-M005)	2019-09-19T23:00:01	0.00	13.570	67.500	0.6031	7.7
3157	AB07CD0350	WETLAND SAL01	SALINE (FEN)	56.573903999999998859493643976747989654541015625	-111.277773999999993748133420012891292572021484375	HOBO Rain Gauge Data Logger - RG3	HOBO Temperature/RH Smart Sensor (S-THB-M002)	Soil Moisture Smart Sensor - EC5 (S-SMC-M005)	2019-09-20T00:00:01	0.00	13.473	64.500	0.6031	6.9
3158	AB07CD0350	WETLAND SAL01	SALINE (FEN)	56.573903999999998859493643976747989654541015625	-111.277773999999993748133420012891292572021484375	HOBO Rain Gauge Data Logger - RG3	HOBO Temperature/RH Smart Sensor (S-THB-M002)	Soil Moisture Smart Sensor - EC5 (S-SMC-M005)	2019-09-20T01:00:01	0.00	12.268	67.000	0.6031	6.3
3159	AB07CD0350	WETLAND SAL01	SALINE (FEN)	56.573903999999998859493643976747989654541015625	-111.277773999999993748133420012891292572021484375	HOBO Rain Gauge Data Logger - RG3	HOBO Temperature/RH Smart Sensor (S-THB-M002)	Soil Moisture Smart Sensor - EC5 (S-SMC-M005)	2019-09-20T02:00:01	0.00	12.219	69.400	0.6039	6.8
3160	AB07CD0350	WETLAND SAL01	SALINE (FEN)	56.573903999999998859493643976747989654541015625	-111.277773999999993748133420012891292572021484375	HOBO Rain Gauge Data Logger - RG3	HOBO Temperature/RH Smart Sensor (S-THB-M002)	Soil Moisture Smart Sensor - EC5 (S-SMC-M005)	2019-09-20T03:00:01	0.00	12.050	70.900	0.6039	6.9
3161	AB07CD0350	WETLAND SAL01	SALINE (FEN)	56.573903999999998859493643976747989654541015625	-111.277773999999993748133420012891292572021484375	HOBO Rain Gauge Data Logger - RG3	HOBO Temperature/RH Smart Sensor (S-THB-M002)	Soil Moisture Smart Sensor - EC5 (S-SMC-M005)	2019-09-20T04:00:01	0.00	10.296	76.700	0.6039	6.4
3162	AB07CD0350	WETLAND SAL01	SALINE (FEN)	56.573903999999998859493643976747989654541015625	-111.277773999999993748133420012891292572021484375	HOBO Rain Gauge Data Logger - RG3	HOBO Temperature/RH Smart Sensor (S-THB-M002)	Soil Moisture Smart Sensor - EC5 (S-SMC-M005)	2019-09-20T05:00:01	0.00	10.149	84.400	0.6031	7.6
3163	AB07CD0350	WETLAND SAL01	SALINE (FEN)	56.573903999999998859493643976747989654541015625	-111.277773999999993748133420012891292572021484375	HOBO Rain Gauge Data Logger - RG3	HOBO Temperature/RH Smart Sensor (S-THB-M002)	Soil Moisture Smart Sensor - EC5 (S-SMC-M005)	2019-09-20T06:00:01	0.00	9.682	88.200	0.6039	7.8
3164	AB07CD0350	WETLAND SAL01	SALINE (FEN)	56.573903999999998859493643976747989654541015625	-111.277773999999993748133420012891292572021484375	HOBO Rain Gauge Data Logger - RG3	HOBO Temperature/RH Smart Sensor (S-THB-M002)	Soil Moisture Smart Sensor - EC5 (S-SMC-M005)	2019-09-20T07:00:01	0.00	9.410	90.100	0.6039	7.9
3165	AB07CD0350	WETLAND SAL01	SALINE (FEN)	56.573903999999998859493643976747989654541015625	-111.277773999999993748133420012891292572021484375	HOBO Rain Gauge Data Logger - RG3	HOBO Temperature/RH Smart Sensor (S-THB-M002)	Soil Moisture Smart Sensor - EC5 (S-SMC-M005)	2019-09-20T08:00:01	0.00	11.370	89.400	0.6039	9.7
3166	AB07CD0350	WETLAND SAL01	SALINE (FEN)	56.573903999999998859493643976747989654541015625	-111.277773999999993748133420012891292572021484375	HOBO Rain Gauge Data Logger - RG3	HOBO Temperature/RH Smart Sensor (S-THB-M002)	Soil Moisture Smart Sensor - EC5 (S-SMC-M005)	2019-09-20T09:00:01	0.00	11.686	88.800	0.6039	9.9
3167	AB07CD0350	WETLAND SAL01	SALINE (FEN)	56.573903999999998859493643976747989654541015625	-111.277773999999993748133420012891292572021484375	HOBO Rain Gauge Data Logger - RG3	HOBO Temperature/RH Smart Sensor (S-THB-M002)	Soil Moisture Smart Sensor - EC5 (S-SMC-M005)	2019-09-20T10:00:01	0.00	13.161	86.800	0.6039	11.0
3168	AB07CD0350	WETLAND SAL01	SALINE (FEN)	56.573903999999998859493643976747989654541015625	-111.277773999999993748133420012891292572021484375	HOBO Rain Gauge Data Logger - RG3	HOBO Temperature/RH Smart Sensor (S-THB-M002)	Soil Moisture Smart Sensor - EC5 (S-SMC-M005)	2019-09-20T11:00:01	0.00	13.449	85.300	0.6031	11.0
3169	AB07CD0350	WETLAND SAL01	SALINE (FEN)	56.573903999999998859493643976747989654541015625	-111.277773999999993748133420012891292572021484375	HOBO Rain Gauge Data Logger - RG3	HOBO Temperature/RH Smart Sensor (S-THB-M002)	Soil Moisture Smart Sensor - EC5 (S-SMC-M005)	2019-09-20T12:00:01	0.00	14.984	80.200	0.6031	11.6
3170	AB07CD0350	WETLAND SAL01	SALINE (FEN)	56.573903999999998859493643976747989654541015625	-111.277773999999993748133420012891292572021484375	HOBO Rain Gauge Data Logger - RG3	HOBO Temperature/RH Smart Sensor (S-THB-M002)	Soil Moisture Smart Sensor - EC5 (S-SMC-M005)	2019-09-20T13:00:01	0.00	14.481	73.100	0.6031	9.7
3171	AB07CD0350	WETLAND SAL01	SALINE (FEN)	56.573903999999998859493643976747989654541015625	-111.277773999999993748133420012891292572021484375	HOBO Rain Gauge Data Logger - RG3	HOBO Temperature/RH Smart Sensor (S-THB-M002)	Soil Moisture Smart Sensor - EC5 (S-SMC-M005)	2019-09-20T14:00:01	0.00	15.031	69.900	0.6039	9.6
3172	AB07CD0350	WETLAND SAL01	SALINE (FEN)	56.573903999999998859493643976747989654541015625	-111.277773999999993748133420012891292572021484375	HOBO Rain Gauge Data Logger - RG3	HOBO Temperature/RH Smart Sensor (S-THB-M002)	Soil Moisture Smart Sensor - EC5 (S-SMC-M005)	2019-09-20T15:00:01	0.00	14.721	68.700	0.6031	9.0
3173	AB07CD0350	WETLAND SAL01	SALINE (FEN)	56.573903999999998859493643976747989654541015625	-111.277773999999993748133420012891292572021484375	HOBO Rain Gauge Data Logger - RG3	HOBO Temperature/RH Smart Sensor (S-THB-M002)	Soil Moisture Smart Sensor - EC5 (S-SMC-M005)	2019-09-20T16:00:01	0.00	15.438	71.800	0.6039	10.4
3174	AB07CD0350	WETLAND SAL01	SALINE (FEN)	56.573903999999998859493643976747989654541015625	-111.277773999999993748133420012891292572021484375	HOBO Rain Gauge Data Logger - RG3	HOBO Temperature/RH Smart Sensor (S-THB-M002)	Soil Moisture Smart Sensor - EC5 (S-SMC-M005)	2019-09-20T17:00:01	2.00	13.112	83.400	0.6031	10.4
3175	AB07CD0350	WETLAND SAL01	SALINE (FEN)	56.573903999999998859493643976747989654541015625	-111.277773999999993748133420012891292572021484375	HOBO Rain Gauge Data Logger - RG3	HOBO Temperature/RH Smart Sensor (S-THB-M002)	Soil Moisture Smart Sensor - EC5 (S-SMC-M005)	2019-09-20T18:00:01	0.00	14.146	82.100	0.6031	11.2
3176	AB07CD0350	WETLAND SAL01	SALINE (FEN)	56.573903999999998859493643976747989654541015625	-111.277773999999993748133420012891292572021484375	HOBO Rain Gauge Data Logger - RG3	HOBO Temperature/RH Smart Sensor (S-THB-M002)	Soil Moisture Smart Sensor - EC5 (S-SMC-M005)	2019-09-20T19:00:01	0.00	13.449	73.800	0.6031	8.9
3177	AB07CD0350	WETLAND SAL01	SALINE (FEN)	56.573903999999998859493643976747989654541015625	-111.277773999999993748133420012891292572021484375	HOBO Rain Gauge Data Logger - RG3	HOBO Temperature/RH Smart Sensor (S-THB-M002)	Soil Moisture Smart Sensor - EC5 (S-SMC-M005)	2019-09-20T20:00:01	0.00	12.413	74.900	0.6031	8.1
3178	AB07CD0350	WETLAND SAL01	SALINE (FEN)	56.573903999999998859493643976747989654541015625	-111.277773999999993748133420012891292572021484375	HOBO Rain Gauge Data Logger - RG3	HOBO Temperature/RH Smart Sensor (S-THB-M002)	Soil Moisture Smart Sensor - EC5 (S-SMC-M005)	2019-09-20T21:00:01	0.00	11.637	79.800	0.6031	8.3
3179	AB07CD0350	WETLAND SAL01	SALINE (FEN)	56.573903999999998859493643976747989654541015625	-111.277773999999993748133420012891292572021484375	HOBO Rain Gauge Data Logger - RG3	HOBO Temperature/RH Smart Sensor (S-THB-M002)	Soil Moisture Smart Sensor - EC5 (S-SMC-M005)	2019-09-20T22:00:01	0.00	10.051	83.200	0.6031	7.3
3180	AB07CD0350	WETLAND SAL01	SALINE (FEN)	56.573903999999998859493643976747989654541015625	-111.277773999999993748133420012891292572021484375	HOBO Rain Gauge Data Logger - RG3	HOBO Temperature/RH Smart Sensor (S-THB-M002)	Soil Moisture Smart Sensor - EC5 (S-SMC-M005)	2019-09-20T23:00:01	0.00	10.418	87.700	0.6031	8.5
3181	AB07CD0350	WETLAND SAL01	SALINE (FEN)	56.573903999999998859493643976747989654541015625	-111.277773999999993748133420012891292572021484375	HOBO Rain Gauge Data Logger - RG3	HOBO Temperature/RH Smart Sensor (S-THB-M002)	Soil Moisture Smart Sensor - EC5 (S-SMC-M005)	2019-09-21T00:00:01	0.00	10.271	88.100	0.6031	8.4
3182	AB07CD0350	WETLAND SAL01	SALINE (FEN)	56.573903999999998859493643976747989654541015625	-111.277773999999993748133420012891292572021484375	HOBO Rain Gauge Data Logger - RG3	HOBO Temperature/RH Smart Sensor (S-THB-M002)	Soil Moisture Smart Sensor - EC5 (S-SMC-M005)	2019-09-21T01:00:01	0.00	8.965	88.900	0.6031	7.2
3183	AB07CD0350	WETLAND SAL01	SALINE (FEN)	56.573903999999998859493643976747989654541015625	-111.277773999999993748133420012891292572021484375	HOBO Rain Gauge Data Logger - RG3	HOBO Temperature/RH Smart Sensor (S-THB-M002)	Soil Moisture Smart Sensor - EC5 (S-SMC-M005)	2019-09-21T02:00:01	0.00	6.990	91.400	0.6039	5.7
3184	AB07CD0350	WETLAND SAL01	SALINE (FEN)	56.573903999999998859493643976747989654541015625	-111.277773999999993748133420012891292572021484375	HOBO Rain Gauge Data Logger - RG3	HOBO Temperature/RH Smart Sensor (S-THB-M002)	Soil Moisture Smart Sensor - EC5 (S-SMC-M005)	2019-09-21T03:00:01	0.00	6.153	94.000	0.6039	5.3
3185	AB07CD0350	WETLAND SAL01	SALINE (FEN)	56.573903999999998859493643976747989654541015625	-111.277773999999993748133420012891292572021484375	HOBO Rain Gauge Data Logger - RG3	HOBO Temperature/RH Smart Sensor (S-THB-M002)	Soil Moisture Smart Sensor - EC5 (S-SMC-M005)	2019-09-21T04:00:01	0.00	5.565	94.800	0.6039	4.8
3186	AB07CD0350	WETLAND SAL01	SALINE (FEN)	56.573903999999998859493643976747989654541015625	-111.277773999999993748133420012891292572021484375	HOBO Rain Gauge Data Logger - RG3	HOBO Temperature/RH Smart Sensor (S-THB-M002)	Soil Moisture Smart Sensor - EC5 (S-SMC-M005)	2019-09-21T05:00:01	0.00	4.558	95.000	0.6031	3.8
3187	AB07CD0350	WETLAND SAL01	SALINE (FEN)	56.573903999999998859493643976747989654541015625	-111.277773999999993748133420012891292572021484375	HOBO Rain Gauge Data Logger - RG3	HOBO Temperature/RH Smart Sensor (S-THB-M002)	Soil Moisture Smart Sensor - EC5 (S-SMC-M005)	2019-09-21T06:00:01	0.00	4.324	95.500	0.6039	3.7
3188	AB07CD0350	WETLAND SAL01	SALINE (FEN)	56.573903999999998859493643976747989654541015625	-111.277773999999993748133420012891292572021484375	HOBO Rain Gauge Data Logger - RG3	HOBO Temperature/RH Smart Sensor (S-THB-M002)	Soil Moisture Smart Sensor - EC5 (S-SMC-M005)	2019-09-21T07:00:01	0.00	0.962	95.800	0.6039	0.4
3189	AB07CD0350	WETLAND SAL01	SALINE (FEN)	56.573903999999998859493643976747989654541015625	-111.277773999999993748133420012891292572021484375	HOBO Rain Gauge Data Logger - RG3	HOBO Temperature/RH Smart Sensor (S-THB-M002)	Soil Moisture Smart Sensor - EC5 (S-SMC-M005)	2019-09-21T08:00:01	0.00	5.179	95.900	0.6039	4.6
3190	AB07CD0350	WETLAND SAL01	SALINE (FEN)	56.573903999999998859493643976747989654541015625	-111.277773999999993748133420012891292572021484375	HOBO Rain Gauge Data Logger - RG3	HOBO Temperature/RH Smart Sensor (S-THB-M002)	Soil Moisture Smart Sensor - EC5 (S-SMC-M005)	2019-09-21T09:00:01	0.00	9.879	92.400	0.6039	8.7
3191	AB07CD0350	WETLAND SAL01	SALINE (FEN)	56.573903999999998859493643976747989654541015625	-111.277773999999993748133420012891292572021484375	HOBO Rain Gauge Data Logger - RG3	HOBO Temperature/RH Smart Sensor (S-THB-M002)	Soil Moisture Smart Sensor - EC5 (S-SMC-M005)	2019-09-21T10:00:01	0.00	14.337	85.900	0.6031	12.0
3192	AB07CD0350	WETLAND SAL01	SALINE (FEN)	56.573903999999998859493643976747989654541015625	-111.277773999999993748133420012891292572021484375	HOBO Rain Gauge Data Logger - RG3	HOBO Temperature/RH Smart Sensor (S-THB-M002)	Soil Moisture Smart Sensor - EC5 (S-SMC-M005)	2019-09-21T11:00:01	0.00	16.320	63.100	0.6031	9.3
3193	AB07CD0350	WETLAND SAL01	SALINE (FEN)	56.573903999999998859493643976747989654541015625	-111.277773999999993748133420012891292572021484375	HOBO Rain Gauge Data Logger - RG3	HOBO Temperature/RH Smart Sensor (S-THB-M002)	Soil Moisture Smart Sensor - EC5 (S-SMC-M005)	2019-09-21T12:00:01	0.00	18.366	49.800	0.6031	7.7
3194	AB07CD0350	WETLAND SAL01	SALINE (FEN)	56.573903999999998859493643976747989654541015625	-111.277773999999993748133420012891292572021484375	HOBO Rain Gauge Data Logger - RG3	HOBO Temperature/RH Smart Sensor (S-THB-M002)	Soil Moisture Smart Sensor - EC5 (S-SMC-M005)	2019-09-21T13:00:01	0.00	19.389	45.100	0.6031	7.2
3195	AB07CD0350	WETLAND SAL01	SALINE (FEN)	56.573903999999998859493643976747989654541015625	-111.277773999999993748133420012891292572021484375	HOBO Rain Gauge Data Logger - RG3	HOBO Temperature/RH Smart Sensor (S-THB-M002)	Soil Moisture Smart Sensor - EC5 (S-SMC-M005)	2019-09-21T14:00:01	0.00	20.055	45.300	0.6031	7.9
3196	AB07CD0350	WETLAND SAL01	SALINE (FEN)	56.573903999999998859493643976747989654541015625	-111.277773999999993748133420012891292572021484375	HOBO Rain Gauge Data Logger - RG3	HOBO Temperature/RH Smart Sensor (S-THB-M002)	Soil Moisture Smart Sensor - EC5 (S-SMC-M005)	2019-09-21T15:00:01	0.00	20.865	45.200	0.6031	8.6
3197	AB07CD0350	WETLAND SAL01	SALINE (FEN)	56.573903999999998859493643976747989654541015625	-111.277773999999993748133420012891292572021484375	HOBO Rain Gauge Data Logger - RG3	HOBO Temperature/RH Smart Sensor (S-THB-M002)	Soil Moisture Smart Sensor - EC5 (S-SMC-M005)	2019-09-21T16:00:01	0.00	21.987	45.200	0.6031	9.6
3198	AB07CD0350	WETLAND SAL01	SALINE (FEN)	56.573903999999998859493643976747989654541015625	-111.277773999999993748133420012891292572021484375	HOBO Rain Gauge Data Logger - RG3	HOBO Temperature/RH Smart Sensor (S-THB-M002)	Soil Moisture Smart Sensor - EC5 (S-SMC-M005)	2019-09-21T17:00:01	0.00	21.366	46.200	0.6031	9.4
3199	AB07CD0350	WETLAND SAL01	SALINE (FEN)	56.573903999999998859493643976747989654541015625	-111.277773999999993748133420012891292572021484375	HOBO Rain Gauge Data Logger - RG3	HOBO Temperature/RH Smart Sensor (S-THB-M002)	Soil Moisture Smart Sensor - EC5 (S-SMC-M005)	2019-09-21T18:00:01	0.00	21.485	46.400	0.6031	9.5
3200	AB07CD0350	WETLAND SAL01	SALINE (FEN)	56.573903999999998859493643976747989654541015625	-111.277773999999993748133420012891292572021484375	HOBO Rain Gauge Data Logger - RG3	HOBO Temperature/RH Smart Sensor (S-THB-M002)	Soil Moisture Smart Sensor - EC5 (S-SMC-M005)	2019-09-21T19:00:01	0.00	19.888	47.200	0.6031	8.3
3201	AB07CD0350	WETLAND SAL01	SALINE (FEN)	56.573903999999998859493643976747989654541015625	-111.277773999999993748133420012891292572021484375	HOBO Rain Gauge Data Logger - RG3	HOBO Temperature/RH Smart Sensor (S-THB-M002)	Soil Moisture Smart Sensor - EC5 (S-SMC-M005)	2019-09-21T20:00:01	0.00	16.892	53.400	0.6031	7.4
3202	AB07CD0350	WETLAND SAL01	SALINE (FEN)	56.573903999999998859493643976747989654541015625	-111.277773999999993748133420012891292572021484375	HOBO Rain Gauge Data Logger - RG3	HOBO Temperature/RH Smart Sensor (S-THB-M002)	Soil Moisture Smart Sensor - EC5 (S-SMC-M005)	2019-09-21T21:00:01	0.00	15.915	61.400	0.6031	8.5
3203	AB07CD0350	WETLAND SAL01	SALINE (FEN)	56.573903999999998859493643976747989654541015625	-111.277773999999993748133420012891292572021484375	HOBO Rain Gauge Data Logger - RG3	HOBO Temperature/RH Smart Sensor (S-THB-M002)	Soil Moisture Smart Sensor - EC5 (S-SMC-M005)	2019-09-21T22:00:01	0.00	13.834	65.800	0.6031	7.6
3204	AB07CD0350	WETLAND SAL01	SALINE (FEN)	56.573903999999998859493643976747989654541015625	-111.277773999999993748133420012891292572021484375	HOBO Rain Gauge Data Logger - RG3	HOBO Temperature/RH Smart Sensor (S-THB-M002)	Soil Moisture Smart Sensor - EC5 (S-SMC-M005)	2019-09-21T23:00:01	0.00	14.098	70.700	0.6031	8.9
3205	AB07CD0350	WETLAND SAL01	SALINE (FEN)	56.573903999999998859493643976747989654541015625	-111.277773999999993748133420012891292572021484375	HOBO Rain Gauge Data Logger - RG3	HOBO Temperature/RH Smart Sensor (S-THB-M002)	Soil Moisture Smart Sensor - EC5 (S-SMC-M005)	2019-09-22T00:00:01	0.00	13.377	69.900	0.6031	8.0
3206	AB07CD0350	WETLAND SAL01	SALINE (FEN)	56.573903999999998859493643976747989654541015625	-111.277773999999993748133420012891292572021484375	HOBO Rain Gauge Data Logger - RG3	HOBO Temperature/RH Smart Sensor (S-THB-M002)	Soil Moisture Smart Sensor - EC5 (S-SMC-M005)	2019-09-22T01:00:01	0.00	12.896	70.400	0.6031	7.7
3207	AB07CD0350	WETLAND SAL01	SALINE (FEN)	56.573903999999998859493643976747989654541015625	-111.277773999999993748133420012891292572021484375	HOBO Rain Gauge Data Logger - RG3	HOBO Temperature/RH Smart Sensor (S-THB-M002)	Soil Moisture Smart Sensor - EC5 (S-SMC-M005)	2019-09-22T02:00:01	0.00	12.025	73.200	0.6039	7.4
3208	AB07CD0350	WETLAND SAL01	SALINE (FEN)	56.573903999999998859493643976747989654541015625	-111.277773999999993748133420012891292572021484375	HOBO Rain Gauge Data Logger - RG3	HOBO Temperature/RH Smart Sensor (S-THB-M002)	Soil Moisture Smart Sensor - EC5 (S-SMC-M005)	2019-09-22T03:00:01	0.00	13.064	71.400	0.6031	8.0
3209	AB07CD0350	WETLAND SAL01	SALINE (FEN)	56.573903999999998859493643976747989654541015625	-111.277773999999993748133420012891292572021484375	HOBO Rain Gauge Data Logger - RG3	HOBO Temperature/RH Smart Sensor (S-THB-M002)	Soil Moisture Smart Sensor - EC5 (S-SMC-M005)	2019-09-22T04:00:01	0.00	12.654	69.500	0.6039	7.2
3210	AB07CD0350	WETLAND SAL01	SALINE (FEN)	56.573903999999998859493643976747989654541015625	-111.277773999999993748133420012891292572021484375	HOBO Rain Gauge Data Logger - RG3	HOBO Temperature/RH Smart Sensor (S-THB-M002)	Soil Moisture Smart Sensor - EC5 (S-SMC-M005)	2019-09-22T05:00:01	0.00	12.292	71.200	0.6039	7.2
3211	AB07CD0350	WETLAND SAL01	SALINE (FEN)	56.573903999999998859493643976747989654541015625	-111.277773999999993748133420012891292572021484375	HOBO Rain Gauge Data Logger - RG3	HOBO Temperature/RH Smart Sensor (S-THB-M002)	Soil Moisture Smart Sensor - EC5 (S-SMC-M005)	2019-09-22T06:00:01	0.00	12.389	72.400	0.6039	7.6
3212	AB07CD0350	WETLAND SAL01	SALINE (FEN)	56.573903999999998859493643976747989654541015625	-111.277773999999993748133420012891292572021484375	HOBO Rain Gauge Data Logger - RG3	HOBO Temperature/RH Smart Sensor (S-THB-M002)	Soil Moisture Smart Sensor - EC5 (S-SMC-M005)	2019-09-22T07:00:01	0.00	11.953	71.600	0.6039	7.0
3213	AB07CD0350	WETLAND SAL01	SALINE (FEN)	56.573903999999998859493643976747989654541015625	-111.277773999999993748133420012891292572021484375	HOBO Rain Gauge Data Logger - RG3	HOBO Temperature/RH Smart Sensor (S-THB-M002)	Soil Moisture Smart Sensor - EC5 (S-SMC-M005)	2019-09-22T08:00:01	0.00	13.618	69.800	0.6039	8.2
3214	AB07CD0350	WETLAND SAL01	SALINE (FEN)	56.573903999999998859493643976747989654541015625	-111.277773999999993748133420012891292572021484375	HOBO Rain Gauge Data Logger - RG3	HOBO Temperature/RH Smart Sensor (S-THB-M002)	Soil Moisture Smart Sensor - EC5 (S-SMC-M005)	2019-09-22T09:00:01	0.00	15.581	63.500	0.6031	8.7
3215	AB07CD0350	WETLAND SAL01	SALINE (FEN)	56.573903999999998859493643976747989654541015625	-111.277773999999993748133420012891292572021484375	HOBO Rain Gauge Data Logger - RG3	HOBO Temperature/RH Smart Sensor (S-THB-M002)	Soil Moisture Smart Sensor - EC5 (S-SMC-M005)	2019-09-22T10:00:01	0.00	17.677	56.700	0.6039	9.0
3216	AB07CD0350	WETLAND SAL01	SALINE (FEN)	56.573903999999998859493643976747989654541015625	-111.277773999999993748133420012891292572021484375	HOBO Rain Gauge Data Logger - RG3	HOBO Temperature/RH Smart Sensor (S-THB-M002)	Soil Moisture Smart Sensor - EC5 (S-SMC-M005)	2019-09-22T11:00:01	0.00	18.889	51.500	0.6039	8.7
3217	AB07CD0350	WETLAND SAL01	SALINE (FEN)	56.573903999999998859493643976747989654541015625	-111.277773999999993748133420012891292572021484375	HOBO Rain Gauge Data Logger - RG3	HOBO Temperature/RH Smart Sensor (S-THB-M002)	Soil Moisture Smart Sensor - EC5 (S-SMC-M005)	2019-09-22T12:00:01	0.00	19.294	48.500	0.6031	8.2
3218	AB07CD0350	WETLAND SAL01	SALINE (FEN)	56.573903999999998859493643976747989654541015625	-111.277773999999993748133420012891292572021484375	HOBO Rain Gauge Data Logger - RG3	HOBO Temperature/RH Smart Sensor (S-THB-M002)	Soil Moisture Smart Sensor - EC5 (S-SMC-M005)	2019-09-22T13:00:01	0.00	20.555	47.600	0.6031	9.1
3219	AB07CD0350	WETLAND SAL01	SALINE (FEN)	56.573903999999998859493643976747989654541015625	-111.277773999999993748133420012891292572021484375	HOBO Rain Gauge Data Logger - RG3	HOBO Temperature/RH Smart Sensor (S-THB-M002)	Soil Moisture Smart Sensor - EC5 (S-SMC-M005)	2019-09-22T14:00:01	0.00	20.984	42.100	0.6031	7.6
3220	AB07CD0350	WETLAND SAL01	SALINE (FEN)	56.573903999999998859493643976747989654541015625	-111.277773999999993748133420012891292572021484375	HOBO Rain Gauge Data Logger - RG3	HOBO Temperature/RH Smart Sensor (S-THB-M002)	Soil Moisture Smart Sensor - EC5 (S-SMC-M005)	2019-09-22T15:00:01	0.00	21.366	41.300	0.6031	7.7
3221	AB07CD0350	WETLAND SAL01	SALINE (FEN)	56.573903999999998859493643976747989654541015625	-111.277773999999993748133420012891292572021484375	HOBO Rain Gauge Data Logger - RG3	HOBO Temperature/RH Smart Sensor (S-THB-M002)	Soil Moisture Smart Sensor - EC5 (S-SMC-M005)	2019-09-22T16:00:01	0.00	20.126	41.800	0.6031	6.8
3222	AB07CD0350	WETLAND SAL01	SALINE (FEN)	56.573903999999998859493643976747989654541015625	-111.277773999999993748133420012891292572021484375	HOBO Rain Gauge Data Logger - RG3	HOBO Temperature/RH Smart Sensor (S-THB-M002)	Soil Moisture Smart Sensor - EC5 (S-SMC-M005)	2019-09-22T17:00:01	0.00	19.270	45.100	0.6031	7.1
3223	AB07CD0350	WETLAND SAL01	SALINE (FEN)	56.573903999999998859493643976747989654541015625	-111.277773999999993748133420012891292572021484375	HOBO Rain Gauge Data Logger - RG3	HOBO Temperature/RH Smart Sensor (S-THB-M002)	Soil Moisture Smart Sensor - EC5 (S-SMC-M005)	2019-09-22T18:00:01	0.00	18.485	47.200	0.6031	7.0
3224	AB07CD0350	WETLAND SAL01	SALINE (FEN)	56.573903999999998859493643976747989654541015625	-111.277773999999993748133420012891292572021484375	HOBO Rain Gauge Data Logger - RG3	HOBO Temperature/RH Smart Sensor (S-THB-M002)	Soil Moisture Smart Sensor - EC5 (S-SMC-M005)	2019-09-22T19:00:01	0.00	17.272	49.900	0.6031	6.7
3225	AB07CD0350	WETLAND SAL01	SALINE (FEN)	56.573903999999998859493643976747989654541015625	-111.277773999999993748133420012891292572021484375	HOBO Rain Gauge Data Logger - RG3	HOBO Temperature/RH Smart Sensor (S-THB-M002)	Soil Moisture Smart Sensor - EC5 (S-SMC-M005)	2019-09-22T20:00:01	0.00	14.792	54.800	0.6039	5.8
3226	AB07CD0350	WETLAND SAL01	SALINE (FEN)	56.573903999999998859493643976747989654541015625	-111.277773999999993748133420012891292572021484375	HOBO Rain Gauge Data Logger - RG3	HOBO Temperature/RH Smart Sensor (S-THB-M002)	Soil Moisture Smart Sensor - EC5 (S-SMC-M005)	2019-09-22T21:00:01	0.00	12.074	71.500	0.6039	7.1
3227	AB07CD0350	WETLAND SAL01	SALINE (FEN)	56.573903999999998859493643976747989654541015625	-111.277773999999993748133420012891292572021484375	HOBO Rain Gauge Data Logger - RG3	HOBO Temperature/RH Smart Sensor (S-THB-M002)	Soil Moisture Smart Sensor - EC5 (S-SMC-M005)	2019-09-22T22:00:01	0.00	13.930	65.800	0.6039	7.7
3228	AB07CD0350	WETLAND SAL01	SALINE (FEN)	56.573903999999998859493643976747989654541015625	-111.277773999999993748133420012891292572021484375	HOBO Rain Gauge Data Logger - RG3	HOBO Temperature/RH Smart Sensor (S-THB-M002)	Soil Moisture Smart Sensor - EC5 (S-SMC-M005)	2019-09-22T23:00:01	0.00	11.856	68.300	0.6039	6.2
3229	AB07CD0350	WETLAND SAL01	SALINE (FEN)	56.573903999999998859493643976747989654541015625	-111.277773999999993748133420012891292572021484375	HOBO Rain Gauge Data Logger - RG3	HOBO Temperature/RH Smart Sensor (S-THB-M002)	Soil Moisture Smart Sensor - EC5 (S-SMC-M005)	2019-09-23T00:00:01	0.00	12.823	72.400	0.6039	8.0
3230	AB07CD0350	WETLAND SAL01	SALINE (FEN)	56.573903999999998859493643976747989654541015625	-111.277773999999993748133420012891292572021484375	HOBO Rain Gauge Data Logger - RG3	HOBO Temperature/RH Smart Sensor (S-THB-M002)	Soil Moisture Smart Sensor - EC5 (S-SMC-M005)	2019-09-23T01:00:01	0.00	12.001	70.200	0.6039	6.8
3231	AB07CD0350	WETLAND SAL01	SALINE (FEN)	56.573903999999998859493643976747989654541015625	-111.277773999999993748133420012891292572021484375	HOBO Rain Gauge Data Logger - RG3	HOBO Temperature/RH Smart Sensor (S-THB-M002)	Soil Moisture Smart Sensor - EC5 (S-SMC-M005)	2019-09-23T02:00:01	0.00	11.419	72.600	0.6039	6.7
3232	AB07CD0350	WETLAND SAL01	SALINE (FEN)	56.573903999999998859493643976747989654541015625	-111.277773999999993748133420012891292572021484375	HOBO Rain Gauge Data Logger - RG3	HOBO Temperature/RH Smart Sensor (S-THB-M002)	Soil Moisture Smart Sensor - EC5 (S-SMC-M005)	2019-09-23T03:00:01	0.00	12.968	71.000	0.6046	7.8
3233	AB07CD0350	WETLAND SAL01	SALINE (FEN)	56.573903999999998859493643976747989654541015625	-111.277773999999993748133420012891292572021484375	HOBO Rain Gauge Data Logger - RG3	HOBO Temperature/RH Smart Sensor (S-THB-M002)	Soil Moisture Smart Sensor - EC5 (S-SMC-M005)	2019-09-23T04:00:01	0.00	11.807	69.600	0.6039	6.4
3234	AB07CD0350	WETLAND SAL01	SALINE (FEN)	56.573903999999998859493643976747989654541015625	-111.277773999999993748133420012891292572021484375	HOBO Rain Gauge Data Logger - RG3	HOBO Temperature/RH Smart Sensor (S-THB-M002)	Soil Moisture Smart Sensor - EC5 (S-SMC-M005)	2019-09-23T05:00:01	1.20	10.345	87.600	0.6039	8.4
3235	AB07CD0350	WETLAND SAL01	SALINE (FEN)	56.573903999999998859493643976747989654541015625	-111.277773999999993748133420012891292572021484375	HOBO Rain Gauge Data Logger - RG3	HOBO Temperature/RH Smart Sensor (S-THB-M002)	Soil Moisture Smart Sensor - EC5 (S-SMC-M005)	2019-09-23T06:00:01	0.60	10.075	93.600	0.6039	9.1
3236	AB07CD0350	WETLAND SAL01	SALINE (FEN)	56.573903999999998859493643976747989654541015625	-111.277773999999993748133420012891292572021484375	HOBO Rain Gauge Data Logger - RG3	HOBO Temperature/RH Smart Sensor (S-THB-M002)	Soil Moisture Smart Sensor - EC5 (S-SMC-M005)	2019-09-23T07:00:01	0.00	10.001	94.900	0.6039	9.2
3237	AB07CD0350	WETLAND SAL01	SALINE (FEN)	56.573903999999998859493643976747989654541015625	-111.277773999999993748133420012891292572021484375	HOBO Rain Gauge Data Logger - RG3	HOBO Temperature/RH Smart Sensor (S-THB-M002)	Soil Moisture Smart Sensor - EC5 (S-SMC-M005)	2019-09-23T08:00:01	0.00	9.977	94.400	0.6039	9.1
3238	AB07CD0350	WETLAND SAL01	SALINE (FEN)	56.573903999999998859493643976747989654541015625	-111.277773999999993748133420012891292572021484375	HOBO Rain Gauge Data Logger - RG3	HOBO Temperature/RH Smart Sensor (S-THB-M002)	Soil Moisture Smart Sensor - EC5 (S-SMC-M005)	2019-09-23T09:00:01	0.00	9.706	92.300	0.6039	8.5
3239	AB07CD0350	WETLAND SAL01	SALINE (FEN)	56.573903999999998859493643976747989654541015625	-111.277773999999993748133420012891292572021484375	HOBO Rain Gauge Data Logger - RG3	HOBO Temperature/RH Smart Sensor (S-THB-M002)	Soil Moisture Smart Sensor - EC5 (S-SMC-M005)	2019-09-23T10:00:01	0.00	11.151	83.700	0.6031	8.5
3240	AB07CD0350	WETLAND SAL01	SALINE (FEN)	56.573903999999998859493643976747989654541015625	-111.277773999999993748133420012891292572021484375	HOBO Rain Gauge Data Logger - RG3	HOBO Temperature/RH Smart Sensor (S-THB-M002)	Soil Moisture Smart Sensor - EC5 (S-SMC-M005)	2019-09-23T11:00:01	0.00	11.540	74.500	0.6031	7.2
3241	AB07CD0350	WETLAND SAL01	SALINE (FEN)	56.573903999999998859493643976747989654541015625	-111.277773999999993748133420012891292572021484375	HOBO Rain Gauge Data Logger - RG3	HOBO Temperature/RH Smart Sensor (S-THB-M002)	Soil Moisture Smart Sensor - EC5 (S-SMC-M005)	2019-09-23T12:00:01	0.00	10.932	75.500	0.6031	6.8
3242	AB07CD0350	WETLAND SAL01	SALINE (FEN)	56.573903999999998859493643976747989654541015625	-111.277773999999993748133420012891292572021484375	HOBO Rain Gauge Data Logger - RG3	HOBO Temperature/RH Smart Sensor (S-THB-M002)	Soil Moisture Smart Sensor - EC5 (S-SMC-M005)	2019-09-23T13:00:01	0.00	11.394	73.300	0.6031	6.8
3243	AB07CD0350	WETLAND SAL01	SALINE (FEN)	56.573903999999998859493643976747989654541015625	-111.277773999999993748133420012891292572021484375	HOBO Rain Gauge Data Logger - RG3	HOBO Temperature/RH Smart Sensor (S-THB-M002)	Soil Moisture Smart Sensor - EC5 (S-SMC-M005)	2019-09-23T14:00:01	0.00	14.337	66.000	0.6031	8.1
3244	AB07CD0350	WETLAND SAL01	SALINE (FEN)	56.573903999999998859493643976747989654541015625	-111.277773999999993748133420012891292572021484375	HOBO Rain Gauge Data Logger - RG3	HOBO Temperature/RH Smart Sensor (S-THB-M002)	Soil Moisture Smart Sensor - EC5 (S-SMC-M005)	2019-09-23T15:00:01	0.00	15.175	54.800	0.6024	6.2
3245	AB07CD0350	WETLAND SAL01	SALINE (FEN)	56.573903999999998859493643976747989654541015625	-111.277773999999993748133420012891292572021484375	HOBO Rain Gauge Data Logger - RG3	HOBO Temperature/RH Smart Sensor (S-THB-M002)	Soil Moisture Smart Sensor - EC5 (S-SMC-M005)	2019-09-23T16:00:01	0.00	16.249	45.800	0.6024	4.6
3246	AB07CD0350	WETLAND SAL01	SALINE (FEN)	56.573903999999998859493643976747989654541015625	-111.277773999999993748133420012891292572021484375	HOBO Rain Gauge Data Logger - RG3	HOBO Temperature/RH Smart Sensor (S-THB-M002)	Soil Moisture Smart Sensor - EC5 (S-SMC-M005)	2019-09-23T17:00:01	0.00	15.652	40.400	0.6024	2.2
3247	AB07CD0350	WETLAND SAL01	SALINE (FEN)	56.573903999999998859493643976747989654541015625	-111.277773999999993748133420012891292572021484375	HOBO Rain Gauge Data Logger - RG3	HOBO Temperature/RH Smart Sensor (S-THB-M002)	Soil Moisture Smart Sensor - EC5 (S-SMC-M005)	2019-09-23T18:00:01	0.00	15.247	40.200	0.6031	1.8
3248	AB07CD0350	WETLAND SAL01	SALINE (FEN)	56.573903999999998859493643976747989654541015625	-111.277773999999993748133420012891292572021484375	HOBO Rain Gauge Data Logger - RG3	HOBO Temperature/RH Smart Sensor (S-THB-M002)	Soil Moisture Smart Sensor - EC5 (S-SMC-M005)	2019-09-23T19:00:01	0.00	13.906	39.500	0.6031	0.4
3249	AB07CD0350	WETLAND SAL01	SALINE (FEN)	56.573903999999998859493643976747989654541015625	-111.277773999999993748133420012891292572021484375	HOBO Rain Gauge Data Logger - RG3	HOBO Temperature/RH Smart Sensor (S-THB-M002)	Soil Moisture Smart Sensor - EC5 (S-SMC-M005)	2019-09-23T20:00:01	0.00	11.029	42.900	0.6031	-1.1
3250	AB07CD0350	WETLAND SAL01	SALINE (FEN)	56.573903999999998859493643976747989654541015625	-111.277773999999993748133420012891292572021484375	HOBO Rain Gauge Data Logger - RG3	HOBO Temperature/RH Smart Sensor (S-THB-M002)	Soil Moisture Smart Sensor - EC5 (S-SMC-M005)	2019-09-23T21:00:01	0.00	11.200	49.000	0.6031	0.9
3251	AB07CD0350	WETLAND SAL01	SALINE (FEN)	56.573903999999998859493643976747989654541015625	-111.277773999999993748133420012891292572021484375	HOBO Rain Gauge Data Logger - RG3	HOBO Temperature/RH Smart Sensor (S-THB-M002)	Soil Moisture Smart Sensor - EC5 (S-SMC-M005)	2019-09-23T22:00:01	0.00	9.854	50.700	0.6031	0.1
3252	AB07CD0350	WETLAND SAL01	SALINE (FEN)	56.573903999999998859493643976747989654541015625	-111.277773999999993748133420012891292572021484375	HOBO Rain Gauge Data Logger - RG3	HOBO Temperature/RH Smart Sensor (S-THB-M002)	Soil Moisture Smart Sensor - EC5 (S-SMC-M005)	2019-09-23T23:00:01	0.00	7.368	60.200	0.6031	0.2
3253	AB07CD0350	WETLAND SAL01	SALINE (FEN)	56.573903999999998859493643976747989654541015625	-111.277773999999993748133420012891292572021484375	HOBO Rain Gauge Data Logger - RG3	HOBO Temperature/RH Smart Sensor (S-THB-M002)	Soil Moisture Smart Sensor - EC5 (S-SMC-M005)	2019-09-24T00:00:01	0.00	6.737	66.300	0.6031	0.9
3254	AB07CD0350	WETLAND SAL01	SALINE (FEN)	56.573903999999998859493643976747989654541015625	-111.277773999999993748133420012891292572021484375	HOBO Rain Gauge Data Logger - RG3	HOBO Temperature/RH Smart Sensor (S-THB-M002)	Soil Moisture Smart Sensor - EC5 (S-SMC-M005)	2019-09-24T01:00:01	0.00	5.949	69.000	0.6031	0.7
3255	AB07CD0350	WETLAND SAL01	SALINE (FEN)	56.573903999999998859493643976747989654541015625	-111.277773999999993748133420012891292572021484375	HOBO Rain Gauge Data Logger - RG3	HOBO Temperature/RH Smart Sensor (S-THB-M002)	Soil Moisture Smart Sensor - EC5 (S-SMC-M005)	2019-09-24T02:00:01	0.00	4.610	72.300	0.6031	0.1
3256	AB07CD0350	WETLAND SAL01	SALINE (FEN)	56.573903999999998859493643976747989654541015625	-111.277773999999993748133420012891292572021484375	HOBO Rain Gauge Data Logger - RG3	HOBO Temperature/RH Smart Sensor (S-THB-M002)	Soil Moisture Smart Sensor - EC5 (S-SMC-M005)	2019-09-24T03:00:01	0.00	2.557	76.700	0.6031	-1.1
3257	AB07CD0350	WETLAND SAL01	SALINE (FEN)	56.573903999999998859493643976747989654541015625	-111.277773999999993748133420012891292572021484375	HOBO Rain Gauge Data Logger - RG3	HOBO Temperature/RH Smart Sensor (S-THB-M002)	Soil Moisture Smart Sensor - EC5 (S-SMC-M005)	2019-09-24T04:00:01	0.00	2.930	81.400	0.6031	0.1
3258	AB07CD0350	WETLAND SAL01	SALINE (FEN)	56.573903999999998859493643976747989654541015625	-111.277773999999993748133420012891292572021484375	HOBO Rain Gauge Data Logger - RG3	HOBO Temperature/RH Smart Sensor (S-THB-M002)	Soil Moisture Smart Sensor - EC5 (S-SMC-M005)	2019-09-24T05:00:01	0.00	2.316	83.000	0.6031	-0.3
3259	AB07CD0350	WETLAND SAL01	SALINE (FEN)	56.573903999999998859493643976747989654541015625	-111.277773999999993748133420012891292572021484375	HOBO Rain Gauge Data Logger - RG3	HOBO Temperature/RH Smart Sensor (S-THB-M002)	Soil Moisture Smart Sensor - EC5 (S-SMC-M005)	2019-09-24T06:00:01	0.00	1.480	85.300	0.6031	-0.7
3260	AB07CD0350	WETLAND SAL01	SALINE (FEN)	56.573903999999998859493643976747989654541015625	-111.277773999999993748133420012891292572021484375	HOBO Rain Gauge Data Logger - RG3	HOBO Temperature/RH Smart Sensor (S-THB-M002)	Soil Moisture Smart Sensor - EC5 (S-SMC-M005)	2019-09-24T07:00:01	0.00	2.262	87.900	0.6031	0.5
3261	AB07CD0350	WETLAND SAL01	SALINE (FEN)	56.573903999999998859493643976747989654541015625	-111.277773999999993748133420012891292572021484375	HOBO Rain Gauge Data Logger - RG3	HOBO Temperature/RH Smart Sensor (S-THB-M002)	Soil Moisture Smart Sensor - EC5 (S-SMC-M005)	2019-09-24T08:00:01	0.00	3.221	86.100	0.6024	1.1
3262	AB07CD0350	WETLAND SAL01	SALINE (FEN)	56.573903999999998859493643976747989654541015625	-111.277773999999993748133420012891292572021484375	HOBO Rain Gauge Data Logger - RG3	HOBO Temperature/RH Smart Sensor (S-THB-M002)	Soil Moisture Smart Sensor - EC5 (S-SMC-M005)	2019-09-24T09:00:01	0.00	4.792	83.100	0.6031	2.2
3263	AB07CD0350	WETLAND SAL01	SALINE (FEN)	56.573903999999998859493643976747989654541015625	-111.277773999999993748133420012891292572021484375	HOBO Rain Gauge Data Logger - RG3	HOBO Temperature/RH Smart Sensor (S-THB-M002)	Soil Moisture Smart Sensor - EC5 (S-SMC-M005)	2019-09-24T10:00:01	0.00	6.585	77.200	0.6024	2.9
3264	AB07CD0350	WETLAND SAL01	SALINE (FEN)	56.573903999999998859493643976747989654541015625	-111.277773999999993748133420012891292572021484375	HOBO Rain Gauge Data Logger - RG3	HOBO Temperature/RH Smart Sensor (S-THB-M002)	Soil Moisture Smart Sensor - EC5 (S-SMC-M005)	2019-09-24T11:00:01	0.00	8.145	73.900	0.6024	3.8
3265	AB07CD0350	WETLAND SAL01	SALINE (FEN)	56.573903999999998859493643976747989654541015625	-111.277773999999993748133420012891292572021484375	HOBO Rain Gauge Data Logger - RG3	HOBO Temperature/RH Smart Sensor (S-THB-M002)	Soil Moisture Smart Sensor - EC5 (S-SMC-M005)	2019-09-24T12:00:01	0.00	9.756	69.800	0.6024	4.5
3266	AB07CD0350	WETLAND SAL01	SALINE (FEN)	56.573903999999998859493643976747989654541015625	-111.277773999999993748133420012891292572021484375	HOBO Rain Gauge Data Logger - RG3	HOBO Temperature/RH Smart Sensor (S-THB-M002)	Soil Moisture Smart Sensor - EC5 (S-SMC-M005)	2019-09-24T13:00:01	0.00	10.883	65.200	0.6024	4.6
3267	AB07CD0350	WETLAND SAL01	SALINE (FEN)	56.573903999999998859493643976747989654541015625	-111.277773999999993748133420012891292572021484375	HOBO Rain Gauge Data Logger - RG3	HOBO Temperature/RH Smart Sensor (S-THB-M002)	Soil Moisture Smart Sensor - EC5 (S-SMC-M005)	2019-09-24T14:00:01	0.00	10.736	60.700	0.6024	3.5
3268	AB07CD0350	WETLAND SAL01	SALINE (FEN)	56.573903999999998859493643976747989654541015625	-111.277773999999993748133420012891292572021484375	HOBO Rain Gauge Data Logger - RG3	HOBO Temperature/RH Smart Sensor (S-THB-M002)	Soil Moisture Smart Sensor - EC5 (S-SMC-M005)	2019-09-24T15:00:01	0.00	12.219	55.500	0.6017	3.6
3269	AB07CD0350	WETLAND SAL01	SALINE (FEN)	56.573903999999998859493643976747989654541015625	-111.277773999999993748133420012891292572021484375	HOBO Rain Gauge Data Logger - RG3	HOBO Temperature/RH Smart Sensor (S-THB-M002)	Soil Moisture Smart Sensor - EC5 (S-SMC-M005)	2019-09-24T16:00:01	0.00	14.242	50.300	0.6017	4.1
3270	AB07CD0350	WETLAND SAL01	SALINE (FEN)	56.573903999999998859493643976747989654541015625	-111.277773999999993748133420012891292572021484375	HOBO Rain Gauge Data Logger - RG3	HOBO Temperature/RH Smart Sensor (S-THB-M002)	Soil Moisture Smart Sensor - EC5 (S-SMC-M005)	2019-09-24T17:00:01	0.00	12.461	48.100	0.6017	1.8
3271	AB07CD0350	WETLAND SAL01	SALINE (FEN)	56.573903999999998859493643976747989654541015625	-111.277773999999993748133420012891292572021484375	HOBO Rain Gauge Data Logger - RG3	HOBO Temperature/RH Smart Sensor (S-THB-M002)	Soil Moisture Smart Sensor - EC5 (S-SMC-M005)	2019-09-24T18:00:01	0.00	12.992	43.900	0.6017	1.0
3272	AB07CD0350	WETLAND SAL01	SALINE (FEN)	56.573903999999998859493643976747989654541015625	-111.277773999999993748133420012891292572021484375	HOBO Rain Gauge Data Logger - RG3	HOBO Temperature/RH Smart Sensor (S-THB-M002)	Soil Moisture Smart Sensor - EC5 (S-SMC-M005)	2019-09-24T19:00:01	0.00	10.614	45.000	0.6017	-0.8
3273	AB07CD0350	WETLAND SAL01	SALINE (FEN)	56.573903999999998859493643976747989654541015625	-111.277773999999993748133420012891292572021484375	HOBO Rain Gauge Data Logger - RG3	HOBO Temperature/RH Smart Sensor (S-THB-M002)	Soil Moisture Smart Sensor - EC5 (S-SMC-M005)	2019-09-24T20:00:01	0.00	5.745	52.700	0.6017	-3.2
3274	AB07CD0350	WETLAND SAL01	SALINE (FEN)	56.573903999999998859493643976747989654541015625	-111.277773999999993748133420012891292572021484375	HOBO Rain Gauge Data Logger - RG3	HOBO Temperature/RH Smart Sensor (S-THB-M002)	Soil Moisture Smart Sensor - EC5 (S-SMC-M005)	2019-09-24T21:00:01	0.00	7.318	62.900	0.6017	0.7
3275	AB07CD0350	WETLAND SAL01	SALINE (FEN)	56.573903999999998859493643976747989654541015625	-111.277773999999993748133420012891292572021484375	HOBO Rain Gauge Data Logger - RG3	HOBO Temperature/RH Smart Sensor (S-THB-M002)	Soil Moisture Smart Sensor - EC5 (S-SMC-M005)	2019-09-24T22:00:01	0.00	2.930	64.200	0.6017	-3.2
3276	AB07CD0350	WETLAND SAL01	SALINE (FEN)	56.573903999999998859493643976747989654541015625	-111.277773999999993748133420012891292572021484375	HOBO Rain Gauge Data Logger - RG3	HOBO Temperature/RH Smart Sensor (S-THB-M002)	Soil Moisture Smart Sensor - EC5 (S-SMC-M005)	2019-09-24T23:00:01	0.00	1.643	81.000	0.6017	-1.3
3277	AB07CD0350	WETLAND SAL01	SALINE (FEN)	56.573903999999998859493643976747989654541015625	-111.277773999999993748133420012891292572021484375	HOBO Rain Gauge Data Logger - RG3	HOBO Temperature/RH Smart Sensor (S-THB-M002)	Soil Moisture Smart Sensor - EC5 (S-SMC-M005)	2019-09-25T00:00:01	0.00	3.327	82.600	0.6017	0.7
3278	AB07CD0350	WETLAND SAL01	SALINE (FEN)	56.573903999999998859493643976747989654541015625	-111.277773999999993748133420012891292572021484375	HOBO Rain Gauge Data Logger - RG3	HOBO Temperature/RH Smart Sensor (S-THB-M002)	Soil Moisture Smart Sensor - EC5 (S-SMC-M005)	2019-09-25T01:00:01	0.00	3.274	81.900	0.6017	0.5
3279	AB07CD0350	WETLAND SAL01	SALINE (FEN)	56.573903999999998859493643976747989654541015625	-111.277773999999993748133420012891292572021484375	HOBO Rain Gauge Data Logger - RG3	HOBO Temperature/RH Smart Sensor (S-THB-M002)	Soil Moisture Smart Sensor - EC5 (S-SMC-M005)	2019-09-25T02:00:01	0.00	1.507	82.500	0.6017	-1.1
3280	AB07CD0350	WETLAND SAL01	SALINE (FEN)	56.573903999999998859493643976747989654541015625	-111.277773999999993748133420012891292572021484375	HOBO Rain Gauge Data Logger - RG3	HOBO Temperature/RH Smart Sensor (S-THB-M002)	Soil Moisture Smart Sensor - EC5 (S-SMC-M005)	2019-09-25T03:00:01	0.00	1.886	85.400	0.6017	-0.3
3281	AB07CD0350	WETLAND SAL01	SALINE (FEN)	56.573903999999998859493643976747989654541015625	-111.277773999999993748133420012891292572021484375	HOBO Rain Gauge Data Logger - RG3	HOBO Temperature/RH Smart Sensor (S-THB-M002)	Soil Moisture Smart Sensor - EC5 (S-SMC-M005)	2019-09-25T04:00:01	0.00	1.832	86.200	0.6017	-0.2
3282	AB07CD0350	WETLAND SAL01	SALINE (FEN)	56.573903999999998859493643976747989654541015625	-111.277773999999993748133420012891292572021484375	HOBO Rain Gauge Data Logger - RG3	HOBO Temperature/RH Smart Sensor (S-THB-M002)	Soil Moisture Smart Sensor - EC5 (S-SMC-M005)	2019-09-25T05:00:01	0.00	-0.958	87.500	0.6017	-2.8
3283	AB07CD0350	WETLAND SAL01	SALINE (FEN)	56.573903999999998859493643976747989654541015625	-111.277773999999993748133420012891292572021484375	HOBO Rain Gauge Data Logger - RG3	HOBO Temperature/RH Smart Sensor (S-THB-M002)	Soil Moisture Smart Sensor - EC5 (S-SMC-M005)	2019-09-25T06:00:01	0.00	-0.311	91.000	0.6017	-1.6
3284	AB07CD0350	WETLAND SAL01	SALINE (FEN)	56.573903999999998859493643976747989654541015625	-111.277773999999993748133420012891292572021484375	HOBO Rain Gauge Data Logger - RG3	HOBO Temperature/RH Smart Sensor (S-THB-M002)	Soil Moisture Smart Sensor - EC5 (S-SMC-M005)	2019-09-25T07:00:01	0.00	2.903	90.000	0.6017	1.4
3285	AB07CD0350	WETLAND SAL01	SALINE (FEN)	56.573903999999998859493643976747989654541015625	-111.277773999999993748133420012891292572021484375	HOBO Rain Gauge Data Logger - RG3	HOBO Temperature/RH Smart Sensor (S-THB-M002)	Soil Moisture Smart Sensor - EC5 (S-SMC-M005)	2019-09-25T08:00:01	0.00	4.947	86.800	0.6017	2.9
3286	AB07CD0350	WETLAND SAL01	SALINE (FEN)	56.573903999999998859493643976747989654541015625	-111.277773999999993748133420012891292572021484375	HOBO Rain Gauge Data Logger - RG3	HOBO Temperature/RH Smart Sensor (S-THB-M002)	Soil Moisture Smart Sensor - EC5 (S-SMC-M005)	2019-09-25T09:00:01	0.00	6.408	84.300	0.6017	4.0
3287	AB07CD0350	WETLAND SAL01	SALINE (FEN)	56.573903999999998859493643976747989654541015625	-111.277773999999993748133420012891292572021484375	HOBO Rain Gauge Data Logger - RG3	HOBO Temperature/RH Smart Sensor (S-THB-M002)	Soil Moisture Smart Sensor - EC5 (S-SMC-M005)	2019-09-25T10:00:01	0.00	7.895	81.600	0.6010	5.0
3288	AB07CD0350	WETLAND SAL01	SALINE (FEN)	56.573903999999998859493643976747989654541015625	-111.277773999999993748133420012891292572021484375	HOBO Rain Gauge Data Logger - RG3	HOBO Temperature/RH Smart Sensor (S-THB-M002)	Soil Moisture Smart Sensor - EC5 (S-SMC-M005)	2019-09-25T11:00:01	0.00	9.114	77.100	0.6010	5.3
3289	AB07CD0350	WETLAND SAL01	SALINE (FEN)	56.573903999999998859493643976747989654541015625	-111.277773999999993748133420012891292572021484375	HOBO Rain Gauge Data Logger - RG3	HOBO Temperature/RH Smart Sensor (S-THB-M002)	Soil Moisture Smart Sensor - EC5 (S-SMC-M005)	2019-09-25T12:00:01	0.00	8.792	71.100	0.6010	3.9
3290	AB07CD0350	WETLAND SAL01	SALINE (FEN)	56.573903999999998859493643976747989654541015625	-111.277773999999993748133420012891292572021484375	HOBO Rain Gauge Data Logger - RG3	HOBO Temperature/RH Smart Sensor (S-THB-M002)	Soil Moisture Smart Sensor - EC5 (S-SMC-M005)	2019-09-25T13:00:01	0.00	8.742	71.100	0.6010	3.8
3291	AB07CD0350	WETLAND SAL01	SALINE (FEN)	56.573903999999998859493643976747989654541015625	-111.277773999999993748133420012891292572021484375	HOBO Rain Gauge Data Logger - RG3	HOBO Temperature/RH Smart Sensor (S-THB-M002)	Soil Moisture Smart Sensor - EC5 (S-SMC-M005)	2019-09-25T14:00:01	0.00	7.569	73.500	0.6010	3.1
3292	AB07CD0350	WETLAND SAL01	SALINE (FEN)	56.573903999999998859493643976747989654541015625	-111.277773999999993748133420012891292572021484375	HOBO Rain Gauge Data Logger - RG3	HOBO Temperature/RH Smart Sensor (S-THB-M002)	Soil Moisture Smart Sensor - EC5 (S-SMC-M005)	2019-09-25T15:00:01	0.00	10.565	77.500	0.6002	6.8
3293	AB07CD0350	WETLAND SAL01	SALINE (FEN)	56.573903999999998859493643976747989654541015625	-111.277773999999993748133420012891292572021484375	HOBO Rain Gauge Data Logger - RG3	HOBO Temperature/RH Smart Sensor (S-THB-M002)	Soil Moisture Smart Sensor - EC5 (S-SMC-M005)	2019-09-25T16:00:01	0.00	9.952	65.400	0.6010	3.8
3294	AB07CD0350	WETLAND SAL01	SALINE (FEN)	56.573903999999998859493643976747989654541015625	-111.277773999999993748133420012891292572021484375	HOBO Rain Gauge Data Logger - RG3	HOBO Temperature/RH Smart Sensor (S-THB-M002)	Soil Moisture Smart Sensor - EC5 (S-SMC-M005)	2019-09-25T17:00:01	0.00	11.151	57.700	0.6002	3.1
3295	AB07CD0350	WETLAND SAL01	SALINE (FEN)	56.573903999999998859493643976747989654541015625	-111.277773999999993748133420012891292572021484375	HOBO Rain Gauge Data Logger - RG3	HOBO Temperature/RH Smart Sensor (S-THB-M002)	Soil Moisture Smart Sensor - EC5 (S-SMC-M005)	2019-09-25T18:00:01	0.00	9.879	52.700	0.6002	0.7
3296	AB07CD0350	WETLAND SAL01	SALINE (FEN)	56.573903999999998859493643976747989654541015625	-111.277773999999993748133420012891292572021484375	HOBO Rain Gauge Data Logger - RG3	HOBO Temperature/RH Smart Sensor (S-THB-M002)	Soil Moisture Smart Sensor - EC5 (S-SMC-M005)	2019-09-25T19:00:01	0.00	7.444	54.100	0.6010	-1.2
3297	AB07CD0350	WETLAND SAL01	SALINE (FEN)	56.573903999999998859493643976747989654541015625	-111.277773999999993748133420012891292572021484375	HOBO Rain Gauge Data Logger - RG3	HOBO Temperature/RH Smart Sensor (S-THB-M002)	Soil Moisture Smart Sensor - EC5 (S-SMC-M005)	2019-09-25T20:00:01	0.00	1.208	61.000	0.6002	-5.5
3298	AB07CD0350	WETLAND SAL01	SALINE (FEN)	56.573903999999998859493643976747989654541015625	-111.277773999999993748133420012891292572021484375	HOBO Rain Gauge Data Logger - RG3	HOBO Temperature/RH Smart Sensor (S-THB-M002)	Soil Moisture Smart Sensor - EC5 (S-SMC-M005)	2019-09-25T21:00:01	0.00	-1.242	79.100	0.6002	-4.4
3299	AB07CD0350	WETLAND SAL01	SALINE (FEN)	56.573903999999998859493643976747989654541015625	-111.277773999999993748133420012891292572021484375	HOBO Rain Gauge Data Logger - RG3	HOBO Temperature/RH Smart Sensor (S-THB-M002)	Soil Moisture Smart Sensor - EC5 (S-SMC-M005)	2019-09-25T22:00:01	0.00	-2.392	84.600	0.6002	-4.6
3300	AB07CD0350	WETLAND SAL01	SALINE (FEN)	56.573903999999998859493643976747989654541015625	-111.277773999999993748133420012891292572021484375	HOBO Rain Gauge Data Logger - RG3	HOBO Temperature/RH Smart Sensor (S-THB-M002)	Soil Moisture Smart Sensor - EC5 (S-SMC-M005)	2019-09-25T23:00:01	0.00	-2.305	88.700	0.6002	-3.9
3301	AB07CD0350	WETLAND SAL01	SALINE (FEN)	56.573903999999998859493643976747989654541015625	-111.277773999999993748133420012891292572021484375	HOBO Rain Gauge Data Logger - RG3	HOBO Temperature/RH Smart Sensor (S-THB-M002)	Soil Moisture Smart Sensor - EC5 (S-SMC-M005)	2019-09-26T00:00:01	0.00	-2.450	90.200	0.6002	-3.8
3302	AB07CD0350	WETLAND SAL01	SALINE (FEN)	56.573903999999998859493643976747989654541015625	-111.277773999999993748133420012891292572021484375	HOBO Rain Gauge Data Logger - RG3	HOBO Temperature/RH Smart Sensor (S-THB-M002)	Soil Moisture Smart Sensor - EC5 (S-SMC-M005)	2019-09-26T01:00:01	0.00	-2.976	91.400	0.6002	-4.2
3303	AB07CD0350	WETLAND SAL01	SALINE (FEN)	56.573903999999998859493643976747989654541015625	-111.277773999999993748133420012891292572021484375	HOBO Rain Gauge Data Logger - RG3	HOBO Temperature/RH Smart Sensor (S-THB-M002)	Soil Moisture Smart Sensor - EC5 (S-SMC-M005)	2019-09-26T02:00:01	0.00	-3.598	92.300	0.6002	-4.7
3304	AB07CD0350	WETLAND SAL01	SALINE (FEN)	56.573903999999998859493643976747989654541015625	-111.277773999999993748133420012891292572021484375	HOBO Rain Gauge Data Logger - RG3	HOBO Temperature/RH Smart Sensor (S-THB-M002)	Soil Moisture Smart Sensor - EC5 (S-SMC-M005)	2019-09-26T03:00:01	0.00	-1.900	93.100	0.6002	-2.9
3305	AB07CD0350	WETLAND SAL01	SALINE (FEN)	56.573903999999998859493643976747989654541015625	-111.277773999999993748133420012891292572021484375	HOBO Rain Gauge Data Logger - RG3	HOBO Temperature/RH Smart Sensor (S-THB-M002)	Soil Moisture Smart Sensor - EC5 (S-SMC-M005)	2019-09-26T04:00:01	0.00	-2.537	92.800	0.6002	-3.5
3306	AB07CD0350	WETLAND SAL01	SALINE (FEN)	56.573903999999998859493643976747989654541015625	-111.277773999999993748133420012891292572021484375	HOBO Rain Gauge Data Logger - RG3	HOBO Temperature/RH Smart Sensor (S-THB-M002)	Soil Moisture Smart Sensor - EC5 (S-SMC-M005)	2019-09-26T05:00:01	0.00	-3.568	93.100	0.6002	-4.5
3307	AB07CD0350	WETLAND SAL01	SALINE (FEN)	56.573903999999998859493643976747989654541015625	-111.277773999999993748133420012891292572021484375	HOBO Rain Gauge Data Logger - RG3	HOBO Temperature/RH Smart Sensor (S-THB-M002)	Soil Moisture Smart Sensor - EC5 (S-SMC-M005)	2019-09-26T06:00:01	0.00	-4.621	94.000	0.6002	-5.4
3308	AB07CD0350	WETLAND SAL01	SALINE (FEN)	56.573903999999998859493643976747989654541015625	-111.277773999999993748133420012891292572021484375	HOBO Rain Gauge Data Logger - RG3	HOBO Temperature/RH Smart Sensor (S-THB-M002)	Soil Moisture Smart Sensor - EC5 (S-SMC-M005)	2019-09-26T07:00:01	0.00	-5.018	94.400	0.6002	-5.8
3309	AB07CD0350	WETLAND SAL01	SALINE (FEN)	56.573903999999998859493643976747989654541015625	-111.277773999999993748133420012891292572021484375	HOBO Rain Gauge Data Logger - RG3	HOBO Temperature/RH Smart Sensor (S-THB-M002)	Soil Moisture Smart Sensor - EC5 (S-SMC-M005)	2019-09-26T08:00:01	0.00	-2.859	93.700	0.6002	-3.7
3310	AB07CD0350	WETLAND SAL01	SALINE (FEN)	56.573903999999998859493643976747989654541015625	-111.277773999999993748133420012891292572021484375	HOBO Rain Gauge Data Logger - RG3	HOBO Temperature/RH Smart Sensor (S-THB-M002)	Soil Moisture Smart Sensor - EC5 (S-SMC-M005)	2019-09-26T09:00:01	0.00	0.715	90.500	0.5995	-0.7
3311	AB07CD0350	WETLAND SAL01	SALINE (FEN)	56.573903999999998859493643976747989654541015625	-111.277773999999993748133420012891292572021484375	HOBO Rain Gauge Data Logger - RG3	HOBO Temperature/RH Smart Sensor (S-THB-M002)	Soil Moisture Smart Sensor - EC5 (S-SMC-M005)	2019-09-26T10:00:01	0.00	4.350	85.200	0.5995	2.1
3312	AB07CD0350	WETLAND SAL01	SALINE (FEN)	56.573903999999998859493643976747989654541015625	-111.277773999999993748133420012891292572021484375	HOBO Rain Gauge Data Logger - RG3	HOBO Temperature/RH Smart Sensor (S-THB-M002)	Soil Moisture Smart Sensor - EC5 (S-SMC-M005)	2019-09-26T11:00:01	0.00	6.433	73.100	0.5988	2.0
3313	AB07CD0350	WETLAND SAL01	SALINE (FEN)	56.573903999999998859493643976747989654541015625	-111.277773999999993748133420012891292572021484375	HOBO Rain Gauge Data Logger - RG3	HOBO Temperature/RH Smart Sensor (S-THB-M002)	Soil Moisture Smart Sensor - EC5 (S-SMC-M005)	2019-09-26T12:00:01	0.00	7.895	61.200	0.5988	0.9
3314	AB07CD0350	WETLAND SAL01	SALINE (FEN)	56.573903999999998859493643976747989654541015625	-111.277773999999993748133420012891292572021484375	HOBO Rain Gauge Data Logger - RG3	HOBO Temperature/RH Smart Sensor (S-THB-M002)	Soil Moisture Smart Sensor - EC5 (S-SMC-M005)	2019-09-26T13:00:01	0.00	9.238	53.600	0.5995	0.3
3315	AB07CD0350	WETLAND SAL01	SALINE (FEN)	56.573903999999998859493643976747989654541015625	-111.277773999999993748133420012891292572021484375	HOBO Rain Gauge Data Logger - RG3	HOBO Temperature/RH Smart Sensor (S-THB-M002)	Soil Moisture Smart Sensor - EC5 (S-SMC-M005)	2019-09-26T14:00:01	0.00	9.706	49.500	0.5995	-0.3
3316	AB07CD0350	WETLAND SAL01	SALINE (FEN)	56.573903999999998859493643976747989654541015625	-111.277773999999993748133420012891292572021484375	HOBO Rain Gauge Data Logger - RG3	HOBO Temperature/RH Smart Sensor (S-THB-M002)	Soil Moisture Smart Sensor - EC5 (S-SMC-M005)	2019-09-26T15:00:01	0.00	10.345	45.500	0.5988	-0.9
3317	AB07CD0350	WETLAND SAL01	SALINE (FEN)	56.573903999999998859493643976747989654541015625	-111.277773999999993748133420012891292572021484375	HOBO Rain Gauge Data Logger - RG3	HOBO Temperature/RH Smart Sensor (S-THB-M002)	Soil Moisture Smart Sensor - EC5 (S-SMC-M005)	2019-09-26T16:00:01	0.00	10.124	44.100	0.5988	-1.5
3318	AB07CD0350	WETLAND SAL01	SALINE (FEN)	56.573903999999998859493643976747989654541015625	-111.277773999999993748133420012891292572021484375	HOBO Rain Gauge Data Logger - RG3	HOBO Temperature/RH Smart Sensor (S-THB-M002)	Soil Moisture Smart Sensor - EC5 (S-SMC-M005)	2019-09-26T17:00:01	0.00	9.829	46.000	0.5988	-1.2
3319	AB07CD0350	WETLAND SAL01	SALINE (FEN)	56.573903999999998859493643976747989654541015625	-111.277773999999993748133420012891292572021484375	HOBO Rain Gauge Data Logger - RG3	HOBO Temperature/RH Smart Sensor (S-THB-M002)	Soil Moisture Smart Sensor - EC5 (S-SMC-M005)	2019-09-26T18:00:01	0.00	8.394	47.100	0.5988	-2.2
3320	AB07CD0350	WETLAND SAL01	SALINE (FEN)	56.573903999999998859493643976747989654541015625	-111.277773999999993748133420012891292572021484375	HOBO Rain Gauge Data Logger - RG3	HOBO Temperature/RH Smart Sensor (S-THB-M002)	Soil Moisture Smart Sensor - EC5 (S-SMC-M005)	2019-09-26T19:00:01	0.00	5.719	51.300	0.5988	-3.5
3321	AB07CD0350	WETLAND SAL01	SALINE (FEN)	56.573903999999998859493643976747989654541015625	-111.277773999999993748133420012891292572021484375	HOBO Rain Gauge Data Logger - RG3	HOBO Temperature/RH Smart Sensor (S-THB-M002)	Soil Moisture Smart Sensor - EC5 (S-SMC-M005)	2019-09-26T20:00:01	0.00	4.610	61.200	0.5988	-2.2
3322	AB07CD0350	WETLAND SAL01	SALINE (FEN)	56.573903999999998859493643976747989654541015625	-111.277773999999993748133420012891292572021484375	HOBO Rain Gauge Data Logger - RG3	HOBO Temperature/RH Smart Sensor (S-THB-M002)	Soil Moisture Smart Sensor - EC5 (S-SMC-M005)	2019-09-26T21:00:01	0.00	2.584	70.600	0.5995	-2.2
3323	AB07CD0350	WETLAND SAL01	SALINE (FEN)	56.573903999999998859493643976747989654541015625	-111.277773999999993748133420012891292572021484375	HOBO Rain Gauge Data Logger - RG3	HOBO Temperature/RH Smart Sensor (S-THB-M002)	Soil Moisture Smart Sensor - EC5 (S-SMC-M005)	2019-09-26T22:00:01	0.00	3.354	74.100	0.5995	-0.8
3324	AB07CD0350	WETLAND SAL01	SALINE (FEN)	56.573903999999998859493643976747989654541015625	-111.277773999999993748133420012891292572021484375	HOBO Rain Gauge Data Logger - RG3	HOBO Temperature/RH Smart Sensor (S-THB-M002)	Soil Moisture Smart Sensor - EC5 (S-SMC-M005)	2019-09-26T23:00:01	0.00	2.797	69.200	0.5995	-2.3
3325	AB07CD0350	WETLAND SAL01	SALINE (FEN)	56.573903999999998859493643976747989654541015625	-111.277773999999993748133420012891292572021484375	HOBO Rain Gauge Data Logger - RG3	HOBO Temperature/RH Smart Sensor (S-THB-M002)	Soil Moisture Smart Sensor - EC5 (S-SMC-M005)	2019-09-27T00:00:01	0.00	2.074	68.700	0.5995	-3.1
3326	AB07CD0350	WETLAND SAL01	SALINE (FEN)	56.573903999999998859493643976747989654541015625	-111.277773999999993748133420012891292572021484375	HOBO Rain Gauge Data Logger - RG3	HOBO Temperature/RH Smart Sensor (S-THB-M002)	Soil Moisture Smart Sensor - EC5 (S-SMC-M005)	2019-09-27T01:00:01	0.00	1.208	67.600	0.5995	-4.1
3327	AB07CD0350	WETLAND SAL01	SALINE (FEN)	56.573903999999998859493643976747989654541015625	-111.277773999999993748133420012891292572021484375	HOBO Rain Gauge Data Logger - RG3	HOBO Temperature/RH Smart Sensor (S-THB-M002)	Soil Moisture Smart Sensor - EC5 (S-SMC-M005)	2019-09-27T02:00:01	0.00	0.907	68.800	0.5995	-4.2
3328	AB07CD0350	WETLAND SAL01	SALINE (FEN)	56.573903999999998859493643976747989654541015625	-111.277773999999993748133420012891292572021484375	HOBO Rain Gauge Data Logger - RG3	HOBO Temperature/RH Smart Sensor (S-THB-M002)	Soil Moisture Smart Sensor - EC5 (S-SMC-M005)	2019-09-27T03:00:01	0.00	0.632	72.200	0.5995	-3.8
3329	AB07CD0350	WETLAND SAL01	SALINE (FEN)	56.573903999999998859493643976747989654541015625	-111.277773999999993748133420012891292572021484375	HOBO Rain Gauge Data Logger - RG3	HOBO Temperature/RH Smart Sensor (S-THB-M002)	Soil Moisture Smart Sensor - EC5 (S-SMC-M005)	2019-09-27T04:00:01	0.00	0.605	75.600	0.5995	-3.2
3330	AB07CD0350	WETLAND SAL01	SALINE (FEN)	56.573903999999998859493643976747989654541015625	-111.277773999999993748133420012891292572021484375	HOBO Rain Gauge Data Logger - RG3	HOBO Temperature/RH Smart Sensor (S-THB-M002)	Soil Moisture Smart Sensor - EC5 (S-SMC-M005)	2019-09-27T05:00:01	0.00	0.797	75.300	0.5995	-3.1
3331	AB07CD0350	WETLAND SAL01	SALINE (FEN)	56.573903999999998859493643976747989654541015625	-111.277773999999993748133420012891292572021484375	HOBO Rain Gauge Data Logger - RG3	HOBO Temperature/RH Smart Sensor (S-THB-M002)	Soil Moisture Smart Sensor - EC5 (S-SMC-M005)	2019-09-27T06:00:01	0.00	1.697	75.000	0.5995	-2.3
3332	AB07CD0350	WETLAND SAL01	SALINE (FEN)	56.573903999999998859493643976747989654541015625	-111.277773999999993748133420012891292572021484375	HOBO Rain Gauge Data Logger - RG3	HOBO Temperature/RH Smart Sensor (S-THB-M002)	Soil Moisture Smart Sensor - EC5 (S-SMC-M005)	2019-09-27T07:00:01	0.00	1.398	74.500	0.5995	-2.6
3333	AB07CD0350	WETLAND SAL01	SALINE (FEN)	56.573903999999998859493643976747989654541015625	-111.277773999999993748133420012891292572021484375	HOBO Rain Gauge Data Logger - RG3	HOBO Temperature/RH Smart Sensor (S-THB-M002)	Soil Moisture Smart Sensor - EC5 (S-SMC-M005)	2019-09-27T08:00:01	0.00	1.235	74.000	0.5995	-2.9
3334	AB07CD0350	WETLAND SAL01	SALINE (FEN)	56.573903999999998859493643976747989654541015625	-111.277773999999993748133420012891292572021484375	HOBO Rain Gauge Data Logger - RG3	HOBO Temperature/RH Smart Sensor (S-THB-M002)	Soil Moisture Smart Sensor - EC5 (S-SMC-M005)	2019-09-27T09:00:01	0.00	1.480	75.400	0.5995	-2.4
3335	AB07CD0350	WETLAND SAL01	SALINE (FEN)	56.573903999999998859493643976747989654541015625	-111.277773999999993748133420012891292572021484375	HOBO Rain Gauge Data Logger - RG3	HOBO Temperature/RH Smart Sensor (S-THB-M002)	Soil Moisture Smart Sensor - EC5 (S-SMC-M005)	2019-09-27T10:00:01	0.00	1.832	72.200	0.5995	-2.6
3336	AB07CD0350	WETLAND SAL01	SALINE (FEN)	56.573903999999998859493643976747989654541015625	-111.277773999999993748133420012891292572021484375	HOBO Rain Gauge Data Logger - RG3	HOBO Temperature/RH Smart Sensor (S-THB-M002)	Soil Moisture Smart Sensor - EC5 (S-SMC-M005)	2019-09-27T11:00:01	0.00	2.396	72.800	0.5995	-2.0
3337	AB07CD0350	WETLAND SAL01	SALINE (FEN)	56.573903999999998859493643976747989654541015625	-111.277773999999993748133420012891292572021484375	HOBO Rain Gauge Data Logger - RG3	HOBO Temperature/RH Smart Sensor (S-THB-M002)	Soil Moisture Smart Sensor - EC5 (S-SMC-M005)	2019-09-27T12:00:01	0.00	3.063	66.600	0.5995	-2.5
3338	AB07CD0350	WETLAND SAL01	SALINE (FEN)	56.573903999999998859493643976747989654541015625	-111.277773999999993748133420012891292572021484375	HOBO Rain Gauge Data Logger - RG3	HOBO Temperature/RH Smart Sensor (S-THB-M002)	Soil Moisture Smart Sensor - EC5 (S-SMC-M005)	2019-09-27T13:00:01	0.00	3.327	58.100	0.5995	-4.1
3339	AB07CD0350	WETLAND SAL01	SALINE (FEN)	56.573903999999998859493643976747989654541015625	-111.277773999999993748133420012891292572021484375	HOBO Rain Gauge Data Logger - RG3	HOBO Temperature/RH Smart Sensor (S-THB-M002)	Soil Moisture Smart Sensor - EC5 (S-SMC-M005)	2019-09-27T14:00:01	0.00	5.179	54.300	0.5995	-3.3
3340	AB07CD0350	WETLAND SAL01	SALINE (FEN)	56.573903999999998859493643976747989654541015625	-111.277773999999993748133420012891292572021484375	HOBO Rain Gauge Data Logger - RG3	HOBO Temperature/RH Smart Sensor (S-THB-M002)	Soil Moisture Smart Sensor - EC5 (S-SMC-M005)	2019-09-27T15:00:01	0.00	4.973	53.900	0.5995	-3.6
3341	AB07CD0350	WETLAND SAL01	SALINE (FEN)	56.573903999999998859493643976747989654541015625	-111.277773999999993748133420012891292572021484375	HOBO Rain Gauge Data Logger - RG3	HOBO Temperature/RH Smart Sensor (S-THB-M002)	Soil Moisture Smart Sensor - EC5 (S-SMC-M005)	2019-09-27T16:00:01	0.00	5.231	50.100	0.5995	-4.3
3342	AB07CD0350	WETLAND SAL01	SALINE (FEN)	56.573903999999998859493643976747989654541015625	-111.277773999999993748133420012891292572021484375	HOBO Rain Gauge Data Logger - RG3	HOBO Temperature/RH Smart Sensor (S-THB-M002)	Soil Moisture Smart Sensor - EC5 (S-SMC-M005)	2019-09-27T17:00:01	0.00	5.591	49.100	0.5995	-4.2
3343	AB07CD0350	WETLAND SAL01	SALINE (FEN)	56.573903999999998859493643976747989654541015625	-111.277773999999993748133420012891292572021484375	HOBO Rain Gauge Data Logger - RG3	HOBO Temperature/RH Smart Sensor (S-THB-M002)	Soil Moisture Smart Sensor - EC5 (S-SMC-M005)	2019-09-27T18:00:01	0.00	5.360	48.000	0.5995	-4.8
3344	AB07CD0350	WETLAND SAL01	SALINE (FEN)	56.573903999999998859493643976747989654541015625	-111.277773999999993748133420012891292572021484375	HOBO Rain Gauge Data Logger - RG3	HOBO Temperature/RH Smart Sensor (S-THB-M002)	Soil Moisture Smart Sensor - EC5 (S-SMC-M005)	2019-09-27T19:00:01	0.00	4.636	49.400	0.5995	-5.0
3345	AB07CD0350	WETLAND SAL01	SALINE (FEN)	56.573903999999998859493643976747989654541015625	-111.277773999999993748133420012891292572021484375	HOBO Rain Gauge Data Logger - RG3	HOBO Temperature/RH Smart Sensor (S-THB-M002)	Soil Moisture Smart Sensor - EC5 (S-SMC-M005)	2019-09-27T20:00:01	0.00	3.643	66.400	0.5995	-2.0
3346	AB07CD0350	WETLAND SAL01	SALINE (FEN)	56.573903999999998859493643976747989654541015625	-111.277773999999993748133420012891292572021484375	HOBO Rain Gauge Data Logger - RG3	HOBO Temperature/RH Smart Sensor (S-THB-M002)	Soil Moisture Smart Sensor - EC5 (S-SMC-M005)	2019-09-27T21:00:01	0.00	3.775	66.100	0.5995	-2.0
3347	AB07CD0350	WETLAND SAL01	SALINE (FEN)	56.573903999999998859493643976747989654541015625	-111.277773999999993748133420012891292572021484375	HOBO Rain Gauge Data Logger - RG3	HOBO Temperature/RH Smart Sensor (S-THB-M002)	Soil Moisture Smart Sensor - EC5 (S-SMC-M005)	2019-09-27T22:00:01	0.00	2.343	71.200	0.5995	-2.3
3348	AB07CD0350	WETLAND SAL01	SALINE (FEN)	56.573903999999998859493643976747989654541015625	-111.277773999999993748133420012891292572021484375	HOBO Rain Gauge Data Logger - RG3	HOBO Temperature/RH Smart Sensor (S-THB-M002)	Soil Moisture Smart Sensor - EC5 (S-SMC-M005)	2019-09-27T23:00:01	0.00	2.423	74.300	0.5995	-1.7
3349	AB07CD0350	WETLAND SAL01	SALINE (FEN)	56.573903999999998859493643976747989654541015625	-111.277773999999993748133420012891292572021484375	HOBO Rain Gauge Data Logger - RG3	HOBO Temperature/RH Smart Sensor (S-THB-M002)	Soil Moisture Smart Sensor - EC5 (S-SMC-M005)	2019-09-28T00:00:01	0.00	1.805	75.000	0.5995	-2.2
3350	AB07CD0350	WETLAND SAL01	SALINE (FEN)	56.573903999999998859493643976747989654541015625	-111.277773999999993748133420012891292572021484375	HOBO Rain Gauge Data Logger - RG3	HOBO Temperature/RH Smart Sensor (S-THB-M002)	Soil Moisture Smart Sensor - EC5 (S-SMC-M005)	2019-09-28T01:00:01	0.00	0.135	78.400	0.5995	-3.2
3351	AB07CD0350	WETLAND SAL01	SALINE (FEN)	56.573903999999998859493643976747989654541015625	-111.277773999999993748133420012891292572021484375	HOBO Rain Gauge Data Logger - RG3	HOBO Temperature/RH Smart Sensor (S-THB-M002)	Soil Moisture Smart Sensor - EC5 (S-SMC-M005)	2019-09-28T02:00:01	0.00	0.797	80.000	0.5995	-2.3
3352	AB07CD0350	WETLAND SAL01	SALINE (FEN)	56.573903999999998859493643976747989654541015625	-111.277773999999993748133420012891292572021484375	HOBO Rain Gauge Data Logger - RG3	HOBO Temperature/RH Smart Sensor (S-THB-M002)	Soil Moisture Smart Sensor - EC5 (S-SMC-M005)	2019-09-28T03:00:01	0.00	-1.128	81.800	0.5995	-3.8
3353	AB07CD0350	WETLAND SAL01	SALINE (FEN)	56.573903999999998859493643976747989654541015625	-111.277773999999993748133420012891292572021484375	HOBO Rain Gauge Data Logger - RG3	HOBO Temperature/RH Smart Sensor (S-THB-M002)	Soil Moisture Smart Sensor - EC5 (S-SMC-M005)	2019-09-28T04:00:01	0.00	-2.800	84.500	0.5988	-5.1
3354	AB07CD0350	WETLAND SAL01	SALINE (FEN)	56.573903999999998859493643976747989654541015625	-111.277773999999993748133420012891292572021484375	HOBO Rain Gauge Data Logger - RG3	HOBO Temperature/RH Smart Sensor (S-THB-M002)	Soil Moisture Smart Sensor - EC5 (S-SMC-M005)	2019-09-28T05:00:01	0.00	-2.859	87.700	0.5995	-4.6
3355	AB07CD0350	WETLAND SAL01	SALINE (FEN)	56.573903999999998859493643976747989654541015625	-111.277773999999993748133420012891292572021484375	HOBO Rain Gauge Data Logger - RG3	HOBO Temperature/RH Smart Sensor (S-THB-M002)	Soil Moisture Smart Sensor - EC5 (S-SMC-M005)	2019-09-28T06:00:01	0.00	-1.670	88.300	0.5995	-3.4
3356	AB07CD0350	WETLAND SAL01	SALINE (FEN)	56.573903999999998859493643976747989654541015625	-111.277773999999993748133420012891292572021484375	HOBO Rain Gauge Data Logger - RG3	HOBO Temperature/RH Smart Sensor (S-THB-M002)	Soil Moisture Smart Sensor - EC5 (S-SMC-M005)	2019-09-28T07:00:01	0.00	-1.413	87.300	0.5995	-3.3
3357	AB07CD0350	WETLAND SAL01	SALINE (FEN)	56.573903999999998859493643976747989654541015625	-111.277773999999993748133420012891292572021484375	HOBO Rain Gauge Data Logger - RG3	HOBO Temperature/RH Smart Sensor (S-THB-M002)	Soil Moisture Smart Sensor - EC5 (S-SMC-M005)	2019-09-28T08:00:01	0.00	-1.213	86.700	0.5995	-3.1
3358	AB07CD0350	WETLAND SAL01	SALINE (FEN)	56.573903999999998859493643976747989654541015625	-111.277773999999993748133420012891292572021484375	HOBO Rain Gauge Data Logger - RG3	HOBO Temperature/RH Smart Sensor (S-THB-M002)	Soil Moisture Smart Sensor - EC5 (S-SMC-M005)	2019-09-28T09:00:01	0.00	-0.732	84.900	0.5995	-3.0
3359	AB07CD0350	WETLAND SAL01	SALINE (FEN)	56.573903999999998859493643976747989654541015625	-111.277773999999993748133420012891292572021484375	HOBO Rain Gauge Data Logger - RG3	HOBO Temperature/RH Smart Sensor (S-THB-M002)	Soil Moisture Smart Sensor - EC5 (S-SMC-M005)	2019-09-28T10:00:01	0.00	0.825	80.400	0.5988	-2.2
3360	AB07CD0350	WETLAND SAL01	SALINE (FEN)	56.573903999999998859493643976747989654541015625	-111.277773999999993748133420012891292572021484375	HOBO Rain Gauge Data Logger - RG3	HOBO Temperature/RH Smart Sensor (S-THB-M002)	Soil Moisture Smart Sensor - EC5 (S-SMC-M005)	2019-09-28T11:00:01	0.00	1.724	72.700	0.5988	-2.6
3361	AB07CD0350	WETLAND SAL01	SALINE (FEN)	56.573903999999998859493643976747989654541015625	-111.277773999999993748133420012891292572021484375	HOBO Rain Gauge Data Logger - RG3	HOBO Temperature/RH Smart Sensor (S-THB-M002)	Soil Moisture Smart Sensor - EC5 (S-SMC-M005)	2019-09-28T12:00:01	0.00	4.037	68.100	0.5988	-1.3
3362	AB07CD0350	WETLAND SAL01	SALINE (FEN)	56.573903999999998859493643976747989654541015625	-111.277773999999993748133420012891292572021484375	HOBO Rain Gauge Data Logger - RG3	HOBO Temperature/RH Smart Sensor (S-THB-M002)	Soil Moisture Smart Sensor - EC5 (S-SMC-M005)	2019-09-28T13:00:01	0.00	5.308	58.100	0.5988	-2.3
3363	AB07CD0350	WETLAND SAL01	SALINE (FEN)	56.573903999999998859493643976747989654541015625	-111.277773999999993748133420012891292572021484375	HOBO Rain Gauge Data Logger - RG3	HOBO Temperature/RH Smart Sensor (S-THB-M002)	Soil Moisture Smart Sensor - EC5 (S-SMC-M005)	2019-09-28T14:00:01	0.00	3.827	63.900	0.5988	-2.4
3364	AB07CD0350	WETLAND SAL01	SALINE (FEN)	56.573903999999998859493643976747989654541015625	-111.277773999999993748133420012891292572021484375	HOBO Rain Gauge Data Logger - RG3	HOBO Temperature/RH Smart Sensor (S-THB-M002)	Soil Moisture Smart Sensor - EC5 (S-SMC-M005)	2019-09-28T15:00:01	0.00	4.376	60.000	0.5988	-2.7
3365	AB07CD0350	WETLAND SAL01	SALINE (FEN)	56.573903999999998859493643976747989654541015625	-111.277773999999993748133420012891292572021484375	HOBO Rain Gauge Data Logger - RG3	HOBO Temperature/RH Smart Sensor (S-THB-M002)	Soil Moisture Smart Sensor - EC5 (S-SMC-M005)	2019-09-28T16:00:01	0.00	4.662	56.500	0.5988	-3.2
3366	AB07CD0350	WETLAND SAL01	SALINE (FEN)	56.573903999999998859493643976747989654541015625	-111.277773999999993748133420012891292572021484375	HOBO Rain Gauge Data Logger - RG3	HOBO Temperature/RH Smart Sensor (S-THB-M002)	Soil Moisture Smart Sensor - EC5 (S-SMC-M005)	2019-09-28T17:00:01	0.00	4.532	50.500	0.5988	-4.9
3367	AB07CD0350	WETLAND SAL01	SALINE (FEN)	56.573903999999998859493643976747989654541015625	-111.277773999999993748133420012891292572021484375	HOBO Rain Gauge Data Logger - RG3	HOBO Temperature/RH Smart Sensor (S-THB-M002)	Soil Moisture Smart Sensor - EC5 (S-SMC-M005)	2019-09-28T18:00:01	0.00	4.115	52.100	0.5988	-4.8
3368	AB07CD0350	WETLAND SAL01	SALINE (FEN)	56.573903999999998859493643976747989654541015625	-111.277773999999993748133420012891292572021484375	HOBO Rain Gauge Data Logger - RG3	HOBO Temperature/RH Smart Sensor (S-THB-M002)	Soil Moisture Smart Sensor - EC5 (S-SMC-M005)	2019-09-28T19:00:01	0.00	2.101	53.600	0.5988	-6.3
3369	AB07CD0350	WETLAND SAL01	SALINE (FEN)	56.573903999999998859493643976747989654541015625	-111.277773999999993748133420012891292572021484375	HOBO Rain Gauge Data Logger - RG3	HOBO Temperature/RH Smart Sensor (S-THB-M002)	Soil Moisture Smart Sensor - EC5 (S-SMC-M005)	2019-09-28T20:00:01	0.00	-0.507	61.800	0.5988	-6.9
3370	AB07CD0350	WETLAND SAL01	SALINE (FEN)	56.573903999999998859493643976747989654541015625	-111.277773999999993748133420012891292572021484375	HOBO Rain Gauge Data Logger - RG3	HOBO Temperature/RH Smart Sensor (S-THB-M002)	Soil Moisture Smart Sensor - EC5 (S-SMC-M005)	2019-09-28T21:00:01	0.00	0.934	69.400	0.5988	-4.0
3371	AB07CD0350	WETLAND SAL01	SALINE (FEN)	56.573903999999998859493643976747989654541015625	-111.277773999999993748133420012891292572021484375	HOBO Rain Gauge Data Logger - RG3	HOBO Temperature/RH Smart Sensor (S-THB-M002)	Soil Moisture Smart Sensor - EC5 (S-SMC-M005)	2019-09-28T22:00:01	0.00	0.135	68.700	0.5988	-4.9
3372	AB07CD0350	WETLAND SAL01	SALINE (FEN)	56.573903999999998859493643976747989654541015625	-111.277773999999993748133420012891292572021484375	HOBO Rain Gauge Data Logger - RG3	HOBO Temperature/RH Smart Sensor (S-THB-M002)	Soil Moisture Smart Sensor - EC5 (S-SMC-M005)	2019-09-28T23:00:01	0.00	-0.760	75.200	0.5988	-4.6
3373	AB07CD0350	WETLAND SAL01	SALINE (FEN)	56.573903999999998859493643976747989654541015625	-111.277773999999993748133420012891292572021484375	HOBO Rain Gauge Data Logger - RG3	HOBO Temperature/RH Smart Sensor (S-THB-M002)	Soil Moisture Smart Sensor - EC5 (S-SMC-M005)	2019-09-29T00:00:01	0.00	-0.591	75.900	0.5981	-4.3
3374	AB07CD0350	WETLAND SAL01	SALINE (FEN)	56.573903999999998859493643976747989654541015625	-111.277773999999993748133420012891292572021484375	HOBO Rain Gauge Data Logger - RG3	HOBO Temperature/RH Smart Sensor (S-THB-M002)	Soil Moisture Smart Sensor - EC5 (S-SMC-M005)	2019-09-29T01:00:01	0.00	-0.676	76.100	0.5988	-4.4
3375	AB07CD0350	WETLAND SAL01	SALINE (FEN)	56.573903999999998859493643976747989654541015625	-111.277773999999993748133420012891292572021484375	HOBO Rain Gauge Data Logger - RG3	HOBO Temperature/RH Smart Sensor (S-THB-M002)	Soil Moisture Smart Sensor - EC5 (S-SMC-M005)	2019-09-29T02:00:01	0.00	-1.613	79.100	0.5988	-4.8
3376	AB07CD0350	WETLAND SAL01	SALINE (FEN)	56.573903999999998859493643976747989654541015625	-111.277773999999993748133420012891292572021484375	HOBO Rain Gauge Data Logger - RG3	HOBO Temperature/RH Smart Sensor (S-THB-M002)	Soil Moisture Smart Sensor - EC5 (S-SMC-M005)	2019-09-29T03:00:01	0.00	-1.756	81.700	0.5988	-4.5
3377	AB07CD0350	WETLAND SAL01	SALINE (FEN)	56.573903999999998859493643976747989654541015625	-111.277773999999993748133420012891292572021484375	HOBO Rain Gauge Data Logger - RG3	HOBO Temperature/RH Smart Sensor (S-THB-M002)	Soil Moisture Smart Sensor - EC5 (S-SMC-M005)	2019-09-29T04:00:01	0.00	-2.654	85.500	0.5988	-4.8
3378	AB07CD0350	WETLAND SAL01	SALINE (FEN)	56.573903999999998859493643976747989654541015625	-111.277773999999993748133420012891292572021484375	HOBO Rain Gauge Data Logger - RG3	HOBO Temperature/RH Smart Sensor (S-THB-M002)	Soil Moisture Smart Sensor - EC5 (S-SMC-M005)	2019-09-29T05:00:01	0.00	-3.330	86.200	0.5988	-5.3
3379	AB07CD0350	WETLAND SAL01	SALINE (FEN)	56.573903999999998859493643976747989654541015625	-111.277773999999993748133420012891292572021484375	HOBO Rain Gauge Data Logger - RG3	HOBO Temperature/RH Smart Sensor (S-THB-M002)	Soil Moisture Smart Sensor - EC5 (S-SMC-M005)	2019-09-29T06:00:01	0.00	-5.018	88.800	0.5988	-6.6
3380	AB07CD0350	WETLAND SAL01	SALINE (FEN)	56.573903999999998859493643976747989654541015625	-111.277773999999993748133420012891292572021484375	HOBO Rain Gauge Data Logger - RG3	HOBO Temperature/RH Smart Sensor (S-THB-M002)	Soil Moisture Smart Sensor - EC5 (S-SMC-M005)	2019-09-29T07:00:01	0.00	-6.168	90.600	0.5988	-7.5
3381	AB07CD0350	WETLAND SAL01	SALINE (FEN)	56.573903999999998859493643976747989654541015625	-111.277773999999993748133420012891292572021484375	HOBO Rain Gauge Data Logger - RG3	HOBO Temperature/RH Smart Sensor (S-THB-M002)	Soil Moisture Smart Sensor - EC5 (S-SMC-M005)	2019-09-29T08:00:01	0.00	-5.141	91.300	0.5988	-6.3
3382	AB07CD0350	WETLAND SAL01	SALINE (FEN)	56.573903999999998859493643976747989654541015625	-111.277773999999993748133420012891292572021484375	HOBO Rain Gauge Data Logger - RG3	HOBO Temperature/RH Smart Sensor (S-THB-M002)	Soil Moisture Smart Sensor - EC5 (S-SMC-M005)	2019-09-29T09:00:01	0.00	-3.627	91.300	0.5988	-4.8
3383	AB07CD0350	WETLAND SAL01	SALINE (FEN)	56.573903999999998859493643976747989654541015625	-111.277773999999993748133420012891292572021484375	HOBO Rain Gauge Data Logger - RG3	HOBO Temperature/RH Smart Sensor (S-THB-M002)	Soil Moisture Smart Sensor - EC5 (S-SMC-M005)	2019-09-29T10:00:01	0.00	1.859	87.200	0.5988	0.0
3384	AB07CD0350	WETLAND SAL01	SALINE (FEN)	56.573903999999998859493643976747989654541015625	-111.277773999999993748133420012891292572021484375	HOBO Rain Gauge Data Logger - RG3	HOBO Temperature/RH Smart Sensor (S-THB-M002)	Soil Moisture Smart Sensor - EC5 (S-SMC-M005)	2019-09-29T11:00:01	0.00	4.584	71.300	0.5981	-0.2
3385	AB07CD0350	WETLAND SAL01	SALINE (FEN)	56.573903999999998859493643976747989654541015625	-111.277773999999993748133420012891292572021484375	HOBO Rain Gauge Data Logger - RG3	HOBO Temperature/RH Smart Sensor (S-THB-M002)	Soil Moisture Smart Sensor - EC5 (S-SMC-M005)	2019-09-29T12:00:01	0.00	6.077	54.400	0.5981	-2.4
3386	AB07CD0350	WETLAND SAL01	SALINE (FEN)	56.573903999999998859493643976747989654541015625	-111.277773999999993748133420012891292572021484375	HOBO Rain Gauge Data Logger - RG3	HOBO Temperature/RH Smart Sensor (S-THB-M002)	Soil Moisture Smart Sensor - EC5 (S-SMC-M005)	2019-09-29T13:00:01	0.00	4.921	45.300	0.5981	-5.9
3387	AB07CD0350	WETLAND SAL01	SALINE (FEN)	56.573903999999998859493643976747989654541015625	-111.277773999999993748133420012891292572021484375	HOBO Rain Gauge Data Logger - RG3	HOBO Temperature/RH Smart Sensor (S-THB-M002)	Soil Moisture Smart Sensor - EC5 (S-SMC-M005)	2019-09-29T14:00:01	0.00	5.154	43.900	0.5981	-6.1
3388	AB07CD0350	WETLAND SAL01	SALINE (FEN)	56.573903999999998859493643976747989654541015625	-111.277773999999993748133420012891292572021484375	HOBO Rain Gauge Data Logger - RG3	HOBO Temperature/RH Smart Sensor (S-THB-M002)	Soil Moisture Smart Sensor - EC5 (S-SMC-M005)	2019-09-29T15:00:01	0.00	5.591	45.000	0.5981	-5.4
3389	AB07CD0350	WETLAND SAL01	SALINE (FEN)	56.573903999999998859493643976747989654541015625	-111.277773999999993748133420012891292572021484375	HOBO Rain Gauge Data Logger - RG3	HOBO Temperature/RH Smart Sensor (S-THB-M002)	Soil Moisture Smart Sensor - EC5 (S-SMC-M005)	2019-09-29T16:00:01	0.00	5.898	42.700	0.5981	-5.8
3390	AB07CD0350	WETLAND SAL01	SALINE (FEN)	56.573903999999998859493643976747989654541015625	-111.277773999999993748133420012891292572021484375	HOBO Rain Gauge Data Logger - RG3	HOBO Temperature/RH Smart Sensor (S-THB-M002)	Soil Moisture Smart Sensor - EC5 (S-SMC-M005)	2019-09-29T17:00:01	0.00	5.154	42.500	0.5981	-6.5
3391	AB07CD0350	WETLAND SAL01	SALINE (FEN)	56.573903999999998859493643976747989654541015625	-111.277773999999993748133420012891292572021484375	HOBO Rain Gauge Data Logger - RG3	HOBO Temperature/RH Smart Sensor (S-THB-M002)	Soil Moisture Smart Sensor - EC5 (S-SMC-M005)	2019-09-29T18:00:01	0.00	5.411	43.900	0.5981	-5.9
3392	AB07CD0350	WETLAND SAL01	SALINE (FEN)	56.573903999999998859493643976747989654541015625	-111.277773999999993748133420012891292572021484375	HOBO Rain Gauge Data Logger - RG3	HOBO Temperature/RH Smart Sensor (S-THB-M002)	Soil Moisture Smart Sensor - EC5 (S-SMC-M005)	2019-09-29T19:00:01	0.00	2.690	47.900	0.5981	-7.2
3393	AB07CD0350	WETLAND SAL01	SALINE (FEN)	56.573903999999998859493643976747989654541015625	-111.277773999999993748133420012891292572021484375	HOBO Rain Gauge Data Logger - RG3	HOBO Temperature/RH Smart Sensor (S-THB-M002)	Soil Moisture Smart Sensor - EC5 (S-SMC-M005)	2019-09-29T20:00:01	0.00	0.218	56.300	0.5981	-7.5
3394	AB07CD0350	WETLAND SAL01	SALINE (FEN)	56.573903999999998859493643976747989654541015625	-111.277773999999993748133420012891292572021484375	HOBO Rain Gauge Data Logger - RG3	HOBO Temperature/RH Smart Sensor (S-THB-M002)	Soil Moisture Smart Sensor - EC5 (S-SMC-M005)	2019-09-29T21:00:01	0.00	-1.756	62.600	0.5981	-7.9
3395	AB07CD0350	WETLAND SAL01	SALINE (FEN)	56.573903999999998859493643976747989654541015625	-111.277773999999993748133420012891292572021484375	HOBO Rain Gauge Data Logger - RG3	HOBO Temperature/RH Smart Sensor (S-THB-M002)	Soil Moisture Smart Sensor - EC5 (S-SMC-M005)	2019-09-29T22:00:01	0.00	-4.197	70.500	0.5981	-8.8
3396	AB07CD0350	WETLAND SAL01	SALINE (FEN)	56.573903999999998859493643976747989654541015625	-111.277773999999993748133420012891292572021484375	HOBO Rain Gauge Data Logger - RG3	HOBO Temperature/RH Smart Sensor (S-THB-M002)	Soil Moisture Smart Sensor - EC5 (S-SMC-M005)	2019-09-29T23:00:01	0.00	-4.530	79.700	0.5981	-7.5
3397	AB07CD0350	WETLAND SAL01	SALINE (FEN)	56.573903999999998859493643976747989654541015625	-111.277773999999993748133420012891292572021484375	HOBO Rain Gauge Data Logger - RG3	HOBO Temperature/RH Smart Sensor (S-THB-M002)	Soil Moisture Smart Sensor - EC5 (S-SMC-M005)	2019-09-30T00:00:01	0.00	-3.124	83.500	0.5981	-5.5
3398	AB07CD0350	WETLAND SAL01	SALINE (FEN)	56.573903999999998859493643976747989654541015625	-111.277773999999993748133420012891292572021484375	HOBO Rain Gauge Data Logger - RG3	HOBO Temperature/RH Smart Sensor (S-THB-M002)	Soil Moisture Smart Sensor - EC5 (S-SMC-M005)	2019-09-30T01:00:01	0.00	-2.947	78.700	0.5988	-6.1
3399	AB07CD0350	WETLAND SAL01	SALINE (FEN)	56.573903999999998859493643976747989654541015625	-111.277773999999993748133420012891292572021484375	HOBO Rain Gauge Data Logger - RG3	HOBO Temperature/RH Smart Sensor (S-THB-M002)	Soil Moisture Smart Sensor - EC5 (S-SMC-M005)	2019-09-30T02:00:01	0.00	-3.153	77.500	0.5988	-6.5
3400	AB07CD0350	WETLAND SAL01	SALINE (FEN)	56.573903999999998859493643976747989654541015625	-111.277773999999993748133420012891292572021484375	HOBO Rain Gauge Data Logger - RG3	HOBO Temperature/RH Smart Sensor (S-THB-M002)	Soil Moisture Smart Sensor - EC5 (S-SMC-M005)	2019-09-30T03:00:01	0.00	-6.802	78.100	0.5988	-10.0
3401	AB07CD0350	WETLAND SAL01	SALINE (FEN)	56.573903999999998859493643976747989654541015625	-111.277773999999993748133420012891292572021484375	HOBO Rain Gauge Data Logger - RG3	HOBO Temperature/RH Smart Sensor (S-THB-M002)	Soil Moisture Smart Sensor - EC5 (S-SMC-M005)	2019-09-30T04:00:01	0.00	-7.510	84.600	0.5988	-9.7
3402	AB07CD0350	WETLAND SAL01	SALINE (FEN)	56.573903999999998859493643976747989654541015625	-111.277773999999993748133420012891292572021484375	HOBO Rain Gauge Data Logger - RG3	HOBO Temperature/RH Smart Sensor (S-THB-M002)	Soil Moisture Smart Sensor - EC5 (S-SMC-M005)	2019-09-30T05:00:01	0.00	-7.836	87.800	0.5988	-9.5
3403	AB07CD0350	WETLAND SAL01	SALINE (FEN)	56.573903999999998859493643976747989654541015625	-111.277773999999993748133420012891292572021484375	HOBO Rain Gauge Data Logger - RG3	HOBO Temperature/RH Smart Sensor (S-THB-M002)	Soil Moisture Smart Sensor - EC5 (S-SMC-M005)	2019-09-30T06:00:01	0.00	-8.297	89.400	0.5988	-9.7
3404	AB07CD0350	WETLAND SAL01	SALINE (FEN)	56.573903999999998859493643976747989654541015625	-111.277773999999993748133420012891292572021484375	HOBO Rain Gauge Data Logger - RG3	HOBO Temperature/RH Smart Sensor (S-THB-M002)	Soil Moisture Smart Sensor - EC5 (S-SMC-M005)	2019-09-30T07:00:01	0.00	-8.563	89.600	0.5988	-10.0
3405	AB07CD0350	WETLAND SAL01	SALINE (FEN)	56.573903999999998859493643976747989654541015625	-111.277773999999993748133420012891292572021484375	HOBO Rain Gauge Data Logger - RG3	HOBO Temperature/RH Smart Sensor (S-THB-M002)	Soil Moisture Smart Sensor - EC5 (S-SMC-M005)	2019-09-30T08:00:01	0.00	-6.199	89.700	0.5988	-7.6
3406	AB07CD0350	WETLAND SAL01	SALINE (FEN)	56.573903999999998859493643976747989654541015625	-111.277773999999993748133420012891292572021484375	HOBO Rain Gauge Data Logger - RG3	HOBO Temperature/RH Smart Sensor (S-THB-M002)	Soil Moisture Smart Sensor - EC5 (S-SMC-M005)	2019-09-30T09:00:01	0.00	-4.137	86.700	0.5981	-6.0
3407	AB07CD0350	WETLAND SAL01	SALINE (FEN)	56.573903999999998859493643976747989654541015625	-111.277773999999993748133420012891292572021484375	HOBO Rain Gauge Data Logger - RG3	HOBO Temperature/RH Smart Sensor (S-THB-M002)	Soil Moisture Smart Sensor - EC5 (S-SMC-M005)	2019-09-30T10:00:01	0.00	2.717	83.200	0.5981	0.2
3408	AB07CD0350	WETLAND SAL01	SALINE (FEN)	56.573903999999998859493643976747989654541015625	-111.277773999999993748133420012891292572021484375	HOBO Rain Gauge Data Logger - RG3	HOBO Temperature/RH Smart Sensor (S-THB-M002)	Soil Moisture Smart Sensor - EC5 (S-SMC-M005)	2019-09-30T11:00:01	0.00	2.101	63.200	0.5981	-4.2
3409	AB07CD0350	WETLAND SAL01	SALINE (FEN)	56.573903999999998859493643976747989654541015625	-111.277773999999993748133420012891292572021484375	HOBO Rain Gauge Data Logger - RG3	HOBO Temperature/RH Smart Sensor (S-THB-M002)	Soil Moisture Smart Sensor - EC5 (S-SMC-M005)	2019-09-30T12:00:01	0.00	3.880	55.800	0.5981	-4.1
3410	AB07CD0350	WETLAND SAL01	SALINE (FEN)	56.573903999999998859493643976747989654541015625	-111.277773999999993748133420012891292572021484375	HOBO Rain Gauge Data Logger - RG3	HOBO Temperature/RH Smart Sensor (S-THB-M002)	Soil Moisture Smart Sensor - EC5 (S-SMC-M005)	2019-09-30T13:00:01	0.00	4.869	47.700	0.5981	-5.3
3411	AB07CD0350	WETLAND SAL01	SALINE (FEN)	56.573903999999998859493643976747989654541015625	-111.277773999999993748133420012891292572021484375	HOBO Rain Gauge Data Logger - RG3	HOBO Temperature/RH Smart Sensor (S-THB-M002)	Soil Moisture Smart Sensor - EC5 (S-SMC-M005)	2019-09-30T14:00:01	0.00	7.041	43.200	0.5981	-4.6
3412	AB07CD0350	WETLAND SAL01	SALINE (FEN)	56.573903999999998859493643976747989654541015625	-111.277773999999993748133420012891292572021484375	HOBO Rain Gauge Data Logger - RG3	HOBO Temperature/RH Smart Sensor (S-THB-M002)	Soil Moisture Smart Sensor - EC5 (S-SMC-M005)	2019-09-30T15:00:01	0.00	6.458	42.600	0.5973	-5.3
3413	AB07CD0350	WETLAND SAL01	SALINE (FEN)	56.573903999999998859493643976747989654541015625	-111.277773999999993748133420012891292572021484375	HOBO Rain Gauge Data Logger - RG3	HOBO Temperature/RH Smart Sensor (S-THB-M002)	Soil Moisture Smart Sensor - EC5 (S-SMC-M005)	2019-09-30T16:00:01	0.00	7.343	42.400	0.5973	-4.6
3414	AB07CD0350	WETLAND SAL01	SALINE (FEN)	56.573903999999998859493643976747989654541015625	-111.277773999999993748133420012891292572021484375	HOBO Rain Gauge Data Logger - RG3	HOBO Temperature/RH Smart Sensor (S-THB-M002)	Soil Moisture Smart Sensor - EC5 (S-SMC-M005)	2019-09-30T17:00:01	0.00	7.268	40.400	0.5973	-5.3
3415	AB07CD0350	WETLAND SAL01	SALINE (FEN)	56.573903999999998859493643976747989654541015625	-111.277773999999993748133420012891292572021484375	HOBO Rain Gauge Data Logger - RG3	HOBO Temperature/RH Smart Sensor (S-THB-M002)	Soil Moisture Smart Sensor - EC5 (S-SMC-M005)	2019-09-30T18:00:01	0.00	6.179	43.100	0.5973	-5.4
3416	AB07CD0350	WETLAND SAL01	SALINE (FEN)	56.573903999999998859493643976747989654541015625	-111.277773999999993748133420012891292572021484375	HOBO Rain Gauge Data Logger - RG3	HOBO Temperature/RH Smart Sensor (S-THB-M002)	Soil Moisture Smart Sensor - EC5 (S-SMC-M005)	2019-09-30T19:00:01	0.00	2.956	48.600	0.5973	-6.8
3417	AB07CD0350	WETLAND SAL01	SALINE (FEN)	56.573903999999998859493643976747989654541015625	-111.277773999999993748133420012891292572021484375	HOBO Rain Gauge Data Logger - RG3	HOBO Temperature/RH Smart Sensor (S-THB-M002)	Soil Moisture Smart Sensor - EC5 (S-SMC-M005)	2019-09-30T20:00:01	0.00	0.934	56.700	0.5973	-6.7
3418	AB07CD0350	WETLAND SAL01	SALINE (FEN)	56.573903999999998859493643976747989654541015625	-111.277773999999993748133420012891292572021484375	HOBO Rain Gauge Data Logger - RG3	HOBO Temperature/RH Smart Sensor (S-THB-M002)	Soil Moisture Smart Sensor - EC5 (S-SMC-M005)	2019-09-30T21:00:01	0.00	0.301	62.700	0.5973	-6.0
3419	AB07CD0350	WETLAND SAL01	SALINE (FEN)	56.573903999999998859493643976747989654541015625	-111.277773999999993748133420012891292572021484375	HOBO Rain Gauge Data Logger - RG3	HOBO Temperature/RH Smart Sensor (S-THB-M002)	Soil Moisture Smart Sensor - EC5 (S-SMC-M005)	2019-09-30T22:00:01	0.00	-0.789	66.000	0.5973	-6.3
3420	AB07CD0350	WETLAND SAL01	SALINE (FEN)	56.573903999999998859493643976747989654541015625	-111.277773999999993748133420012891292572021484375	HOBO Rain Gauge Data Logger - RG3	HOBO Temperature/RH Smart Sensor (S-THB-M002)	Soil Moisture Smart Sensor - EC5 (S-SMC-M005)	2019-09-30T23:00:01	0.00	-0.845	70.600	0.5973	-5.5
3421	AB07CD0350	WETLAND SAL01	SALINE (FEN)	56.573903999999998859493643976747989654541015625	-111.277773999999993748133420012891292572021484375	HOBO Rain Gauge Data Logger - RG3	HOBO Temperature/RH Smart Sensor (S-THB-M002)	Soil Moisture Smart Sensor - EC5 (S-SMC-M005)	2019-10-01T00:00:01	0.00	-1.727	74.200	0.5973	-5.7
3422	AB07CD0350	WETLAND SAL01	SALINE (FEN)	56.573903999999998859493643976747989654541015625	-111.277773999999993748133420012891292572021484375	HOBO Rain Gauge Data Logger - RG3	HOBO Temperature/RH Smart Sensor (S-THB-M002)	Soil Moisture Smart Sensor - EC5 (S-SMC-M005)	2019-10-01T01:00:01	0.00	-1.441	75.500	0.5973	-5.2
3423	AB07CD0350	WETLAND SAL01	SALINE (FEN)	56.573903999999998859493643976747989654541015625	-111.277773999999993748133420012891292572021484375	HOBO Rain Gauge Data Logger - RG3	HOBO Temperature/RH Smart Sensor (S-THB-M002)	Soil Moisture Smart Sensor - EC5 (S-SMC-M005)	2019-10-01T02:00:01	0.00	-1.871	77.600	0.5973	-5.3
3424	AB07CD0350	WETLAND SAL01	SALINE (FEN)	56.573903999999998859493643976747989654541015625	-111.277773999999993748133420012891292572021484375	HOBO Rain Gauge Data Logger - RG3	HOBO Temperature/RH Smart Sensor (S-THB-M002)	Soil Moisture Smart Sensor - EC5 (S-SMC-M005)	2019-10-01T03:00:01	0.00	-1.327	80.300	0.5973	-4.3
3425	AB07CD0350	WETLAND SAL01	SALINE (FEN)	56.573903999999998859493643976747989654541015625	-111.277773999999993748133420012891292572021484375	HOBO Rain Gauge Data Logger - RG3	HOBO Temperature/RH Smart Sensor (S-THB-M002)	Soil Moisture Smart Sensor - EC5 (S-SMC-M005)	2019-10-01T04:00:01	0.00	-1.071	80.300	0.5973	-4.0
3426	AB07CD0350	WETLAND SAL01	SALINE (FEN)	56.573903999999998859493643976747989654541015625	-111.277773999999993748133420012891292572021484375	HOBO Rain Gauge Data Logger - RG3	HOBO Temperature/RH Smart Sensor (S-THB-M002)	Soil Moisture Smart Sensor - EC5 (S-SMC-M005)	2019-10-01T05:00:01	0.00	-1.213	80.200	0.5973	-4.2
3427	AB07CD0350	WETLAND SAL01	SALINE (FEN)	56.573903999999998859493643976747989654541015625	-111.277773999999993748133420012891292572021484375	HOBO Rain Gauge Data Logger - RG3	HOBO Temperature/RH Smart Sensor (S-THB-M002)	Soil Moisture Smart Sensor - EC5 (S-SMC-M005)	2019-10-01T06:00:01	0.00	-0.958	81.500	0.5973	-3.7
3428	AB07CD0350	WETLAND SAL01	SALINE (FEN)	56.573903999999998859493643976747989654541015625	-111.277773999999993748133420012891292572021484375	HOBO Rain Gauge Data Logger - RG3	HOBO Temperature/RH Smart Sensor (S-THB-M002)	Soil Moisture Smart Sensor - EC5 (S-SMC-M005)	2019-10-01T07:00:01	0.00	-1.299	82.600	0.5973	-3.9
3429	AB07CD0350	WETLAND SAL01	SALINE (FEN)	56.573903999999998859493643976747989654541015625	-111.277773999999993748133420012891292572021484375	HOBO Rain Gauge Data Logger - RG3	HOBO Temperature/RH Smart Sensor (S-THB-M002)	Soil Moisture Smart Sensor - EC5 (S-SMC-M005)	2019-10-01T08:00:01	0.00	-0.507	84.400	0.5973	-2.8
3430	AB07CD0350	WETLAND SAL01	SALINE (FEN)	56.573903999999998859493643976747989654541015625	-111.277773999999993748133420012891292572021484375	HOBO Rain Gauge Data Logger - RG3	HOBO Temperature/RH Smart Sensor (S-THB-M002)	Soil Moisture Smart Sensor - EC5 (S-SMC-M005)	2019-10-01T09:00:01	0.00	2.956	81.000	0.5966	0.0
3431	AB07CD0350	WETLAND SAL01	SALINE (FEN)	56.573903999999998859493643976747989654541015625	-111.277773999999993748133420012891292572021484375	HOBO Rain Gauge Data Logger - RG3	HOBO Temperature/RH Smart Sensor (S-THB-M002)	Soil Moisture Smart Sensor - EC5 (S-SMC-M005)	2019-10-01T10:00:01	0.00	5.154	71.100	0.5966	0.4
3432	AB07CD0350	WETLAND SAL01	SALINE (FEN)	56.573903999999998859493643976747989654541015625	-111.277773999999993748133420012891292572021484375	HOBO Rain Gauge Data Logger - RG3	HOBO Temperature/RH Smart Sensor (S-THB-M002)	Soil Moisture Smart Sensor - EC5 (S-SMC-M005)	2019-10-01T11:00:01	0.00	6.306	61.100	0.5966	-0.6
3433	AB07CD0350	WETLAND SAL01	SALINE (FEN)	56.573903999999998859493643976747989654541015625	-111.277773999999993748133420012891292572021484375	HOBO Rain Gauge Data Logger - RG3	HOBO Temperature/RH Smart Sensor (S-THB-M002)	Soil Moisture Smart Sensor - EC5 (S-SMC-M005)	2019-10-01T12:00:01	0.00	7.745	54.500	0.5966	-0.8
3434	AB07CD0350	WETLAND SAL01	SALINE (FEN)	56.573903999999998859493643976747989654541015625	-111.277773999999993748133420012891292572021484375	HOBO Rain Gauge Data Logger - RG3	HOBO Temperature/RH Smart Sensor (S-THB-M002)	Soil Moisture Smart Sensor - EC5 (S-SMC-M005)	2019-10-01T13:00:01	0.00	8.245	51.900	0.5966	-1.0
3435	AB07CD0350	WETLAND SAL01	SALINE (FEN)	56.573903999999998859493643976747989654541015625	-111.277773999999993748133420012891292572021484375	HOBO Rain Gauge Data Logger - RG3	HOBO Temperature/RH Smart Sensor (S-THB-M002)	Soil Moisture Smart Sensor - EC5 (S-SMC-M005)	2019-10-01T14:00:01	0.00	8.618	50.200	0.5959	-1.2
3436	AB07CD0350	WETLAND SAL01	SALINE (FEN)	56.573903999999998859493643976747989654541015625	-111.277773999999993748133420012891292572021484375	HOBO Rain Gauge Data Logger - RG3	HOBO Temperature/RH Smart Sensor (S-THB-M002)	Soil Moisture Smart Sensor - EC5 (S-SMC-M005)	2019-10-01T15:00:01	0.00	9.361	49.100	0.5966	-0.8
3437	AB07CD0350	WETLAND SAL01	SALINE (FEN)	56.573903999999998859493643976747989654541015625	-111.277773999999993748133420012891292572021484375	HOBO Rain Gauge Data Logger - RG3	HOBO Temperature/RH Smart Sensor (S-THB-M002)	Soil Moisture Smart Sensor - EC5 (S-SMC-M005)	2019-10-01T16:00:01	0.00	8.444	48.100	0.5959	-1.9
3438	AB07CD0350	WETLAND SAL01	SALINE (FEN)	56.573903999999998859493643976747989654541015625	-111.277773999999993748133420012891292572021484375	HOBO Rain Gauge Data Logger - RG3	HOBO Temperature/RH Smart Sensor (S-THB-M002)	Soil Moisture Smart Sensor - EC5 (S-SMC-M005)	2019-10-01T17:00:01	0.00	7.895	52.600	0.5959	-1.2
3439	AB07CD0350	WETLAND SAL01	SALINE (FEN)	56.573903999999998859493643976747989654541015625	-111.277773999999993748133420012891292572021484375	HOBO Rain Gauge Data Logger - RG3	HOBO Temperature/RH Smart Sensor (S-THB-M002)	Soil Moisture Smart Sensor - EC5 (S-SMC-M005)	2019-10-01T18:00:01	0.00	7.167	54.700	0.5959	-1.3
3440	AB07CD0350	WETLAND SAL01	SALINE (FEN)	56.573903999999998859493643976747989654541015625	-111.277773999999993748133420012891292572021484375	HOBO Rain Gauge Data Logger - RG3	HOBO Temperature/RH Smart Sensor (S-THB-M002)	Soil Moisture Smart Sensor - EC5 (S-SMC-M005)	2019-10-01T19:00:01	0.00	6.357	56.400	0.5966	-1.7
3441	AB07CD0350	WETLAND SAL01	SALINE (FEN)	56.573903999999998859493643976747989654541015625	-111.277773999999993748133420012891292572021484375	HOBO Rain Gauge Data Logger - RG3	HOBO Temperature/RH Smart Sensor (S-THB-M002)	Soil Moisture Smart Sensor - EC5 (S-SMC-M005)	2019-10-01T20:00:01	0.00	5.514	60.300	0.5966	-1.6
3442	AB07CD0350	WETLAND SAL01	SALINE (FEN)	56.573903999999998859493643976747989654541015625	-111.277773999999993748133420012891292572021484375	HOBO Rain Gauge Data Logger - RG3	HOBO Temperature/RH Smart Sensor (S-THB-M002)	Soil Moisture Smart Sensor - EC5 (S-SMC-M005)	2019-10-01T21:00:01	0.00	4.532	64.000	0.5959	-1.7
3443	AB07CD0350	WETLAND SAL01	SALINE (FEN)	56.573903999999998859493643976747989654541015625	-111.277773999999993748133420012891292572021484375	HOBO Rain Gauge Data Logger - RG3	HOBO Temperature/RH Smart Sensor (S-THB-M002)	Soil Moisture Smart Sensor - EC5 (S-SMC-M005)	2019-10-01T22:00:01	0.00	3.985	67.200	0.5959	-1.5
3444	AB07CD0350	WETLAND SAL01	SALINE (FEN)	56.573903999999998859493643976747989654541015625	-111.277773999999993748133420012891292572021484375	HOBO Rain Gauge Data Logger - RG3	HOBO Temperature/RH Smart Sensor (S-THB-M002)	Soil Moisture Smart Sensor - EC5 (S-SMC-M005)	2019-10-01T23:00:01	0.00	2.850	69.100	0.5959	-2.2
3445	AB07CD0350	WETLAND SAL01	SALINE (FEN)	56.573903999999998859493643976747989654541015625	-111.277773999999993748133420012891292572021484375	HOBO Rain Gauge Data Logger - RG3	HOBO Temperature/RH Smart Sensor (S-THB-M002)	Soil Moisture Smart Sensor - EC5 (S-SMC-M005)	2019-10-02T00:00:01	0.00	3.643	69.300	0.5959	-1.4
3446	AB07CD0350	WETLAND SAL01	SALINE (FEN)	56.573903999999998859493643976747989654541015625	-111.277773999999993748133420012891292572021484375	HOBO Rain Gauge Data Logger - RG3	HOBO Temperature/RH Smart Sensor (S-THB-M002)	Soil Moisture Smart Sensor - EC5 (S-SMC-M005)	2019-10-02T01:00:01	0.00	3.036	70.400	0.5959	-1.8
3447	AB07CD0350	WETLAND SAL01	SALINE (FEN)	56.573903999999998859493643976747989654541015625	-111.277773999999993748133420012891292572021484375	HOBO Rain Gauge Data Logger - RG3	HOBO Temperature/RH Smart Sensor (S-THB-M002)	Soil Moisture Smart Sensor - EC5 (S-SMC-M005)	2019-10-02T02:00:01	0.00	3.195	72.500	0.5966	-1.3
3448	AB07CD0350	WETLAND SAL01	SALINE (FEN)	56.573903999999998859493643976747989654541015625	-111.277773999999993748133420012891292572021484375	HOBO Rain Gauge Data Logger - RG3	HOBO Temperature/RH Smart Sensor (S-THB-M002)	Soil Moisture Smart Sensor - EC5 (S-SMC-M005)	2019-10-02T03:00:01	0.00	-0.507	76.500	0.5966	-4.1
3449	AB07CD0350	WETLAND SAL01	SALINE (FEN)	56.573903999999998859493643976747989654541015625	-111.277773999999993748133420012891292572021484375	HOBO Rain Gauge Data Logger - RG3	HOBO Temperature/RH Smart Sensor (S-THB-M002)	Soil Moisture Smart Sensor - EC5 (S-SMC-M005)	2019-10-02T04:00:01	0.00	-2.334	84.700	0.5966	-4.6
3450	AB07CD0350	WETLAND SAL01	SALINE (FEN)	56.573903999999998859493643976747989654541015625	-111.277773999999993748133420012891292572021484375	HOBO Rain Gauge Data Logger - RG3	HOBO Temperature/RH Smart Sensor (S-THB-M002)	Soil Moisture Smart Sensor - EC5 (S-SMC-M005)	2019-10-02T05:00:01	0.00	-3.242	87.800	0.5966	-5.0
3451	AB07CD0350	WETLAND SAL01	SALINE (FEN)	56.573903999999998859493643976747989654541015625	-111.277773999999993748133420012891292572021484375	HOBO Rain Gauge Data Logger - RG3	HOBO Temperature/RH Smart Sensor (S-THB-M002)	Soil Moisture Smart Sensor - EC5 (S-SMC-M005)	2019-10-02T06:00:01	0.00	-4.076	89.800	0.5966	-5.5
3452	AB07CD0350	WETLAND SAL01	SALINE (FEN)	56.573903999999998859493643976747989654541015625	-111.277773999999993748133420012891292572021484375	HOBO Rain Gauge Data Logger - RG3	HOBO Temperature/RH Smart Sensor (S-THB-M002)	Soil Moisture Smart Sensor - EC5 (S-SMC-M005)	2019-10-02T07:00:01	0.00	-4.408	91.000	0.5973	-5.7
3453	AB07CD0350	WETLAND SAL01	SALINE (FEN)	56.573903999999998859493643976747989654541015625	-111.277773999999993748133420012891292572021484375	HOBO Rain Gauge Data Logger - RG3	HOBO Temperature/RH Smart Sensor (S-THB-M002)	Soil Moisture Smart Sensor - EC5 (S-SMC-M005)	2019-10-02T08:00:01	0.00	-3.390	91.800	0.5966	-4.5
3454	AB07CD0350	WETLAND SAL01	SALINE (FEN)	56.573903999999998859493643976747989654541015625	-111.277773999999993748133420012891292572021484375	HOBO Rain Gauge Data Logger - RG3	HOBO Temperature/RH Smart Sensor (S-THB-M002)	Soil Moisture Smart Sensor - EC5 (S-SMC-M005)	2019-10-02T09:00:01	0.00	3.168	87.700	0.5966	1.3
3455	AB07CD0350	WETLAND SAL01	SALINE (FEN)	56.573903999999998859493643976747989654541015625	-111.277773999999993748133420012891292572021484375	HOBO Rain Gauge Data Logger - RG3	HOBO Temperature/RH Smart Sensor (S-THB-M002)	Soil Moisture Smart Sensor - EC5 (S-SMC-M005)	2019-10-02T10:00:01	0.00	6.940	76.000	0.5966	3.0
3456	AB07CD0350	WETLAND SAL01	SALINE (FEN)	56.573903999999998859493643976747989654541015625	-111.277773999999993748133420012891292572021484375	HOBO Rain Gauge Data Logger - RG3	HOBO Temperature/RH Smart Sensor (S-THB-M002)	Soil Moisture Smart Sensor - EC5 (S-SMC-M005)	2019-10-02T11:00:01	0.00	9.114	62.100	0.5966	2.3
3457	AB07CD0350	WETLAND SAL01	SALINE (FEN)	56.573903999999998859493643976747989654541015625	-111.277773999999993748133420012891292572021484375	HOBO Rain Gauge Data Logger - RG3	HOBO Temperature/RH Smart Sensor (S-THB-M002)	Soil Moisture Smart Sensor - EC5 (S-SMC-M005)	2019-10-02T12:00:01	0.00	11.029	51.600	0.5966	1.5
3458	AB07CD0350	WETLAND SAL01	SALINE (FEN)	56.573903999999998859493643976747989654541015625	-111.277773999999993748133420012891292572021484375	HOBO Rain Gauge Data Logger - RG3	HOBO Temperature/RH Smart Sensor (S-THB-M002)	Soil Moisture Smart Sensor - EC5 (S-SMC-M005)	2019-10-02T13:00:01	0.00	12.968	43.600	0.5959	0.9
3459	AB07CD0350	WETLAND SAL01	SALINE (FEN)	56.573903999999998859493643976747989654541015625	-111.277773999999993748133420012891292572021484375	HOBO Rain Gauge Data Logger - RG3	HOBO Temperature/RH Smart Sensor (S-THB-M002)	Soil Moisture Smart Sensor - EC5 (S-SMC-M005)	2019-10-02T14:00:01	0.00	14.050	34.000	0.5966	-1.6
